<?xml version="1.0" encoding="UTF-8" standalone="no" ?>
<gpx xmlns="http://www.topografix.com/GPX/1/1" xmlns:xsi="http://www.w3.org/2001/XMLSchema-instance" xsi:schemaLocation="http://www.topografix.com/GPX/1/1 http://www.topografix.com/GPX/1/1/gpx.xsd" version="1.1" creator="VisuGPX - https://www.visugpx.com">
  <metadata>
    <name>Col du Rousset - Gresse en Vercors</name>
  </metadata>
  <trk>
    <name><![CDATA[Saint-Agnan-en-Vercors Rando]]></name>
    <extensions>
      <line xmlns="http://www.topografix.com/GPX/gpx_style/0/2">
        <color>0000FF</color>
        <width>4</width>
      </line>
    </extensions>
    <trkseg>
      <trkpt lat="44.83909" lon="5.40529">
        <ele>1266.2</ele>
        <time>2024-05-11T05:08:51.000Z</time>
      </trkpt>
      <trkpt lat="44.83881" lon="5.40532">
        <ele>1268.3</ele>
        <time>2024-05-11T05:08:57.000Z</time>
      </trkpt>
      <trkpt lat="44.83884" lon="5.4053">
        <ele>1268.3</ele>
        <time>2024-05-11T05:09:01.000Z</time>
      </trkpt>
      <trkpt lat="44.83882" lon="5.40529">
        <ele>1268.7</ele>
        <time>2024-05-11T05:09:40.000Z</time>
      </trkpt>
      <trkpt lat="44.83879" lon="5.40539">
        <ele>1267.1</ele>
        <time>2024-05-11T05:09:50.000Z</time>
      </trkpt>
      <trkpt lat="44.83878" lon="5.40549">
        <ele>1265.1</ele>
        <time>2024-05-11T05:09:59.000Z</time>
      </trkpt>
      <trkpt lat="44.83886" lon="5.40589">
        <ele>1255.6</ele>
        <time>2024-05-11T05:10:14.000Z</time>
      </trkpt>
      <trkpt lat="44.83865" lon="5.40598">
        <ele>1256.9</ele>
        <time>2024-05-11T05:10:27.000Z</time>
      </trkpt>
      <trkpt lat="44.83861" lon="5.40597">
        <ele>1257.6</ele>
        <time>2024-05-11T05:10:28.000Z</time>
      </trkpt>
      <trkpt lat="44.83854" lon="5.406">
        <ele>1258.5</ele>
        <time>2024-05-11T05:10:38.000Z</time>
      </trkpt>
      <trkpt lat="44.83852" lon="5.406">
        <ele>1258.8</ele>
        <time>2024-05-11T05:10:40.000Z</time>
      </trkpt>
      <trkpt lat="44.83849" lon="5.40601">
        <ele>1259.1</ele>
        <time>2024-05-11T05:10:42.000Z</time>
      </trkpt>
      <trkpt lat="44.83848" lon="5.40605">
        <ele>1258.7</ele>
        <time>2024-05-11T05:10:46.000Z</time>
      </trkpt>
      <trkpt lat="44.83845" lon="5.40606">
        <ele>1258.9</ele>
        <time>2024-05-11T05:10:50.000Z</time>
      </trkpt>
      <trkpt lat="44.83841" lon="5.40609">
        <ele>1259.1</ele>
        <time>2024-05-11T05:10:53.000Z</time>
      </trkpt>
      <trkpt lat="44.8384" lon="5.4061">
        <ele>1259</ele>
        <time>2024-05-11T05:10:54.000Z</time>
      </trkpt>
      <trkpt lat="44.83837" lon="5.40614">
        <ele>1259.4</ele>
        <time>2024-05-11T05:10:58.000Z</time>
      </trkpt>
      <trkpt lat="44.83837" lon="5.40615">
        <ele>1259.5</ele>
        <time>2024-05-11T05:10:59.000Z</time>
      </trkpt>
      <trkpt lat="44.83835" lon="5.40618">
        <ele>1259.7</ele>
        <time>2024-05-11T05:11:01.000Z</time>
      </trkpt>
      <trkpt lat="44.83834" lon="5.40619">
        <ele>1259.8</ele>
        <time>2024-05-11T05:11:02.000Z</time>
      </trkpt>
      <trkpt lat="44.83833" lon="5.40628">
        <ele>1260.1</ele>
        <time>2024-05-11T05:11:07.000Z</time>
      </trkpt>
      <trkpt lat="44.83831" lon="5.4063">
        <ele>1260.4</ele>
        <time>2024-05-11T05:11:09.000Z</time>
      </trkpt>
      <trkpt lat="44.83827" lon="5.40639">
        <ele>1261.2</ele>
        <time>2024-05-11T05:11:15.000Z</time>
      </trkpt>
      <trkpt lat="44.83821" lon="5.40645">
        <ele>1263.9</ele>
        <time>2024-05-11T05:11:20.000Z</time>
      </trkpt>
      <trkpt lat="44.83818" lon="5.40647">
        <ele>1265.3</ele>
        <time>2024-05-11T05:11:22.000Z</time>
      </trkpt>
      <trkpt lat="44.83816" lon="5.40648">
        <ele>1265.8</ele>
        <time>2024-05-11T05:11:23.000Z</time>
      </trkpt>
      <trkpt lat="44.83811" lon="5.40645">
        <ele>1265.7</ele>
        <time>2024-05-11T05:11:27.000Z</time>
      </trkpt>
      <trkpt lat="44.83806" lon="5.4064">
        <ele>1265.3</ele>
        <time>2024-05-11T05:11:34.000Z</time>
      </trkpt>
      <trkpt lat="44.838" lon="5.4064">
        <ele>1266.1</ele>
        <time>2024-05-11T05:11:40.000Z</time>
      </trkpt>
      <trkpt lat="44.838" lon="5.40643">
        <ele>1266.9</ele>
        <time>2024-05-11T05:11:43.000Z</time>
      </trkpt>
      <trkpt lat="44.83799" lon="5.40643">
        <ele>1267</ele>
        <time>2024-05-11T05:11:45.000Z</time>
      </trkpt>
      <trkpt lat="44.83795" lon="5.40641">
        <ele>1267</ele>
        <time>2024-05-11T05:11:49.000Z</time>
      </trkpt>
      <trkpt lat="44.83793" lon="5.40641">
        <ele>1267.3</ele>
        <time>2024-05-11T05:11:52.000Z</time>
      </trkpt>
      <trkpt lat="44.83791" lon="5.40641">
        <ele>1267.6</ele>
        <time>2024-05-11T05:11:54.000Z</time>
      </trkpt>
      <trkpt lat="44.83788" lon="5.40641">
        <ele>1268.1</ele>
        <time>2024-05-11T05:12:00.000Z</time>
      </trkpt>
      <trkpt lat="44.83782" lon="5.40641">
        <ele>1268.8</ele>
        <time>2024-05-11T05:12:07.000Z</time>
      </trkpt>
      <trkpt lat="44.83778" lon="5.4064">
        <ele>1269.2</ele>
        <time>2024-05-11T05:12:12.000Z</time>
      </trkpt>
      <trkpt lat="44.83776" lon="5.40642">
        <ele>1270</ele>
        <time>2024-05-11T05:12:16.000Z</time>
      </trkpt>
      <trkpt lat="44.83775" lon="5.40642">
        <ele>1270.1</ele>
        <time>2024-05-11T05:12:17.000Z</time>
      </trkpt>
      <trkpt lat="44.83773" lon="5.40642">
        <ele>1270.4</ele>
        <time>2024-05-11T05:12:21.000Z</time>
      </trkpt>
      <trkpt lat="44.83769" lon="5.40643">
        <ele>1271.1</ele>
        <time>2024-05-11T05:12:27.000Z</time>
      </trkpt>
      <trkpt lat="44.83767" lon="5.40642">
        <ele>1271.3</ele>
        <time>2024-05-11T05:12:28.000Z</time>
      </trkpt>
      <trkpt lat="44.83761" lon="5.40643">
        <ele>1272.2</ele>
        <time>2024-05-11T05:12:33.000Z</time>
      </trkpt>
      <trkpt lat="44.83755" lon="5.40646">
        <ele>1273.6</ele>
        <time>2024-05-11T05:12:38.000Z</time>
      </trkpt>
      <trkpt lat="44.83752" lon="5.40645">
        <ele>1273.9</ele>
        <time>2024-05-11T05:12:40.000Z</time>
      </trkpt>
      <trkpt lat="44.83747" lon="5.40645">
        <ele>1274.5</ele>
        <time>2024-05-11T05:12:45.000Z</time>
      </trkpt>
      <trkpt lat="44.83744" lon="5.40641">
        <ele>1274.4</ele>
        <time>2024-05-11T05:12:48.000Z</time>
      </trkpt>
      <trkpt lat="44.83743" lon="5.40639">
        <ele>1274.3</ele>
        <time>2024-05-11T05:12:50.000Z</time>
      </trkpt>
      <trkpt lat="44.8374" lon="5.40643">
        <ele>1275.5</ele>
        <time>2024-05-11T05:12:55.000Z</time>
      </trkpt>
      <trkpt lat="44.83739" lon="5.40643">
        <ele>1275.7</ele>
        <time>2024-05-11T05:12:58.000Z</time>
      </trkpt>
      <trkpt lat="44.83738" lon="5.40643">
        <ele>1275.8</ele>
        <time>2024-05-11T05:13:00.000Z</time>
      </trkpt>
      <trkpt lat="44.83734" lon="5.40644">
        <ele>1276.6</ele>
        <time>2024-05-11T05:13:07.000Z</time>
      </trkpt>
      <trkpt lat="44.83733" lon="5.40644">
        <ele>1276.8</ele>
        <time>2024-05-11T05:13:08.000Z</time>
      </trkpt>
      <trkpt lat="44.83729" lon="5.40646">
        <ele>1277.8</ele>
        <time>2024-05-11T05:13:14.000Z</time>
      </trkpt>
      <trkpt lat="44.83728" lon="5.40646">
        <ele>1278</ele>
        <time>2024-05-11T05:13:16.000Z</time>
      </trkpt>
      <trkpt lat="44.83725" lon="5.40646">
        <ele>1278.6</ele>
        <time>2024-05-11T05:13:19.000Z</time>
      </trkpt>
      <trkpt lat="44.8372" lon="5.40646">
        <ele>1279.4</ele>
        <time>2024-05-11T05:13:25.000Z</time>
      </trkpt>
      <trkpt lat="44.83718" lon="5.40646">
        <ele>1279.8</ele>
        <time>2024-05-11T05:13:26.000Z</time>
      </trkpt>
      <trkpt lat="44.83713" lon="5.40645">
        <ele>1280.8</ele>
        <time>2024-05-11T05:13:31.000Z</time>
      </trkpt>
      <trkpt lat="44.83708" lon="5.40647">
        <ele>1282</ele>
        <time>2024-05-11T05:13:35.000Z</time>
      </trkpt>
      <trkpt lat="44.83705" lon="5.40646">
        <ele>1282.7</ele>
        <time>2024-05-11T05:13:38.000Z</time>
      </trkpt>
      <trkpt lat="44.83703" lon="5.40645">
        <ele>1282.9</ele>
        <time>2024-05-11T05:13:39.000Z</time>
      </trkpt>
      <trkpt lat="44.837" lon="5.4064">
        <ele>1282.9</ele>
        <time>2024-05-11T05:13:46.000Z</time>
      </trkpt>
      <trkpt lat="44.83696" lon="5.4064">
        <ele>1283.8</ele>
        <time>2024-05-11T05:13:52.000Z</time>
      </trkpt>
      <trkpt lat="44.83695" lon="5.4064">
        <ele>1284</ele>
        <time>2024-05-11T05:13:56.000Z</time>
      </trkpt>
      <trkpt lat="44.83693" lon="5.40643">
        <ele>1284.7</ele>
        <time>2024-05-11T05:14:00.000Z</time>
      </trkpt>
      <trkpt lat="44.8369" lon="5.40642">
        <ele>1285.2</ele>
        <time>2024-05-11T05:14:03.000Z</time>
      </trkpt>
      <trkpt lat="44.8369" lon="5.40642">
        <ele>1285.4</ele>
        <time>2024-05-11T05:14:04.000Z</time>
      </trkpt>
      <trkpt lat="44.83686" lon="5.40642">
        <ele>1286.1</ele>
        <time>2024-05-11T05:14:09.000Z</time>
      </trkpt>
      <trkpt lat="44.83683" lon="5.40643">
        <ele>1286.8</ele>
        <time>2024-05-11T05:14:12.000Z</time>
      </trkpt>
      <trkpt lat="44.83682" lon="5.40644">
        <ele>1287.1</ele>
        <time>2024-05-11T05:14:14.000Z</time>
      </trkpt>
      <trkpt lat="44.8368" lon="5.40647">
        <ele>1287.7</ele>
        <time>2024-05-11T05:14:19.000Z</time>
      </trkpt>
      <trkpt lat="44.83678" lon="5.40649">
        <ele>1288.3</ele>
        <time>2024-05-11T05:14:24.000Z</time>
      </trkpt>
      <trkpt lat="44.83673" lon="5.40657">
        <ele>1289.6</ele>
        <time>2024-05-11T05:14:30.000Z</time>
      </trkpt>
      <trkpt lat="44.83672" lon="5.40657">
        <ele>1289.8</ele>
        <time>2024-05-11T05:14:31.000Z</time>
      </trkpt>
      <trkpt lat="44.83669" lon="5.40657">
        <ele>1290.2</ele>
        <time>2024-05-11T05:14:35.000Z</time>
      </trkpt>
      <trkpt lat="44.83669" lon="5.40657">
        <ele>1290.2</ele>
        <time>2024-05-11T05:14:38.000Z</time>
      </trkpt>
      <trkpt lat="44.83666" lon="5.4066">
        <ele>1290.9</ele>
        <time>2024-05-11T05:14:43.000Z</time>
      </trkpt>
      <trkpt lat="44.83663" lon="5.40661">
        <ele>1291.5</ele>
        <time>2024-05-11T05:14:48.000Z</time>
      </trkpt>
      <trkpt lat="44.8366" lon="5.40662">
        <ele>1292.1</ele>
        <time>2024-05-11T05:14:53.000Z</time>
      </trkpt>
      <trkpt lat="44.83659" lon="5.40661">
        <ele>1292.3</ele>
        <time>2024-05-11T05:14:54.000Z</time>
      </trkpt>
      <trkpt lat="44.83655" lon="5.40665">
        <ele>1293.1</ele>
        <time>2024-05-11T05:14:58.000Z</time>
      </trkpt>
      <trkpt lat="44.83651" lon="5.40665">
        <ele>1293.9</ele>
        <time>2024-05-11T05:15:03.000Z</time>
      </trkpt>
      <trkpt lat="44.83651" lon="5.40665">
        <ele>1293.9</ele>
        <time>2024-05-11T05:15:04.000Z</time>
      </trkpt>
      <trkpt lat="44.83645" lon="5.40667">
        <ele>1295</ele>
        <time>2024-05-11T05:15:10.000Z</time>
      </trkpt>
      <trkpt lat="44.83644" lon="5.40666">
        <ele>1295.1</ele>
        <time>2024-05-11T05:15:16.000Z</time>
      </trkpt>
      <trkpt lat="44.83642" lon="5.40667">
        <ele>1295.5</ele>
        <time>2024-05-11T05:15:18.000Z</time>
      </trkpt>
      <trkpt lat="44.83638" lon="5.4067">
        <ele>1297</ele>
        <time>2024-05-11T05:15:22.000Z</time>
      </trkpt>
      <trkpt lat="44.83633" lon="5.40679">
        <ele>1300</ele>
        <time>2024-05-11T05:15:28.000Z</time>
      </trkpt>
      <trkpt lat="44.83632" lon="5.40681">
        <ele>1300.3</ele>
        <time>2024-05-11T05:15:29.000Z</time>
      </trkpt>
      <trkpt lat="44.83633" lon="5.4068">
        <ele>1300.2</ele>
        <time>2024-05-11T05:15:35.000Z</time>
      </trkpt>
      <trkpt lat="44.83629" lon="5.40683">
        <ele>1301.4</ele>
        <time>2024-05-11T05:15:42.000Z</time>
      </trkpt>
      <trkpt lat="44.83628" lon="5.40682">
        <ele>1301.4</ele>
        <time>2024-05-11T05:15:44.000Z</time>
      </trkpt>
      <trkpt lat="44.83628" lon="5.40684">
        <ele>1301.8</ele>
        <time>2024-05-11T05:15:46.000Z</time>
      </trkpt>
      <trkpt lat="44.83625" lon="5.40683">
        <ele>1302.2</ele>
        <time>2024-05-11T05:15:51.000Z</time>
      </trkpt>
      <trkpt lat="44.83624" lon="5.40684">
        <ele>1302.6</ele>
        <time>2024-05-11T05:15:53.000Z</time>
      </trkpt>
      <trkpt lat="44.83622" lon="5.40683">
        <ele>1302.7</ele>
        <time>2024-05-11T05:15:56.000Z</time>
      </trkpt>
      <trkpt lat="44.8362" lon="5.40684">
        <ele>1303.3</ele>
        <time>2024-05-11T05:16:00.000Z</time>
      </trkpt>
      <trkpt lat="44.83619" lon="5.40687">
        <ele>1303.9</ele>
        <time>2024-05-11T05:16:04.000Z</time>
      </trkpt>
      <trkpt lat="44.83618" lon="5.40689">
        <ele>1304.4</ele>
        <time>2024-05-11T05:16:08.000Z</time>
      </trkpt>
      <trkpt lat="44.83618" lon="5.4069">
        <ele>1304.5</ele>
        <time>2024-05-11T05:16:11.000Z</time>
      </trkpt>
      <trkpt lat="44.83614" lon="5.40691">
        <ele>1305.2</ele>
        <time>2024-05-11T05:16:16.000Z</time>
      </trkpt>
      <trkpt lat="44.83613" lon="5.40691">
        <ele>1305.3</ele>
        <time>2024-05-11T05:16:17.000Z</time>
      </trkpt>
      <trkpt lat="44.83608" lon="5.40692">
        <ele>1306.3</ele>
        <time>2024-05-11T05:16:23.000Z</time>
      </trkpt>
      <trkpt lat="44.83604" lon="5.40693">
        <ele>1307.2</ele>
        <time>2024-05-11T05:16:28.000Z</time>
      </trkpt>
      <trkpt lat="44.83603" lon="5.40698">
        <ele>1308.4</ele>
        <time>2024-05-11T05:16:31.000Z</time>
      </trkpt>
      <trkpt lat="44.83599" lon="5.407">
        <ele>1309.6</ele>
        <time>2024-05-11T05:16:36.000Z</time>
      </trkpt>
      <trkpt lat="44.83598" lon="5.407">
        <ele>1309.8</ele>
        <time>2024-05-11T05:16:38.000Z</time>
      </trkpt>
      <trkpt lat="44.83594" lon="5.40701">
        <ele>1310.6</ele>
        <time>2024-05-11T05:16:44.000Z</time>
      </trkpt>
      <trkpt lat="44.83594" lon="5.40701">
        <ele>1310.8</ele>
        <time>2024-05-11T05:16:45.000Z</time>
      </trkpt>
      <trkpt lat="44.83591" lon="5.40701">
        <ele>1311.2</ele>
        <time>2024-05-11T05:16:50.000Z</time>
      </trkpt>
      <trkpt lat="44.8359" lon="5.40701">
        <ele>1311.3</ele>
        <time>2024-05-11T05:16:51.000Z</time>
      </trkpt>
      <trkpt lat="44.83587" lon="5.40703">
        <ele>1312.2</ele>
        <time>2024-05-11T05:16:56.000Z</time>
      </trkpt>
      <trkpt lat="44.83584" lon="5.40703">
        <ele>1312.6</ele>
        <time>2024-05-11T05:17:01.000Z</time>
      </trkpt>
      <trkpt lat="44.83584" lon="5.40703">
        <ele>1312.8</ele>
        <time>2024-05-11T05:17:02.000Z</time>
      </trkpt>
      <trkpt lat="44.83581" lon="5.40702">
        <ele>1313</ele>
        <time>2024-05-11T05:17:06.000Z</time>
      </trkpt>
      <trkpt lat="44.8358" lon="5.40701">
        <ele>1313.1</ele>
        <time>2024-05-11T05:17:07.000Z</time>
      </trkpt>
      <trkpt lat="44.83576" lon="5.40702">
        <ele>1314</ele>
        <time>2024-05-11T05:17:14.000Z</time>
      </trkpt>
      <trkpt lat="44.83575" lon="5.40702">
        <ele>1314.2</ele>
        <time>2024-05-11T05:17:15.000Z</time>
      </trkpt>
      <trkpt lat="44.83572" lon="5.40706">
        <ele>1315.5</ele>
        <time>2024-05-11T05:17:20.000Z</time>
      </trkpt>
      <trkpt lat="44.8357" lon="5.40708">
        <ele>1316</ele>
        <time>2024-05-11T05:17:23.000Z</time>
      </trkpt>
      <trkpt lat="44.83568" lon="5.40708">
        <ele>1316.3</ele>
        <time>2024-05-11T05:17:26.000Z</time>
      </trkpt>
      <trkpt lat="44.83562" lon="5.40702">
        <ele>1316.6</ele>
        <time>2024-05-11T05:17:31.000Z</time>
      </trkpt>
      <trkpt lat="44.83561" lon="5.40704">
        <ele>1317.2</ele>
        <time>2024-05-11T05:17:37.000Z</time>
      </trkpt>
      <trkpt lat="44.8356" lon="5.40704">
        <ele>1317.3</ele>
        <time>2024-05-11T05:17:38.000Z</time>
      </trkpt>
      <trkpt lat="44.83558" lon="5.40706">
        <ele>1317.8</ele>
        <time>2024-05-11T05:17:42.000Z</time>
      </trkpt>
      <trkpt lat="44.83557" lon="5.40708">
        <ele>1318.2</ele>
        <time>2024-05-11T05:17:46.000Z</time>
      </trkpt>
      <trkpt lat="44.83557" lon="5.40708">
        <ele>1318.3</ele>
        <time>2024-05-11T05:17:47.000Z</time>
      </trkpt>
      <trkpt lat="44.83554" lon="5.40709">
        <ele>1318.8</ele>
        <time>2024-05-11T05:17:53.000Z</time>
      </trkpt>
      <trkpt lat="44.83552" lon="5.40709">
        <ele>1319.1</ele>
        <time>2024-05-11T05:17:57.000Z</time>
      </trkpt>
      <trkpt lat="44.83552" lon="5.4071">
        <ele>1319.3</ele>
        <time>2024-05-11T05:17:59.000Z</time>
      </trkpt>
      <trkpt lat="44.83552" lon="5.40712">
        <ele>1319.4</ele>
        <time>2024-05-11T05:18:00.000Z</time>
      </trkpt>
      <trkpt lat="44.83549" lon="5.40714">
        <ele>1320.1</ele>
        <time>2024-05-11T05:18:05.000Z</time>
      </trkpt>
      <trkpt lat="44.83548" lon="5.40715">
        <ele>1320.5</ele>
        <time>2024-05-11T05:18:07.000Z</time>
      </trkpt>
      <trkpt lat="44.83547" lon="5.40717">
        <ele>1320.8</ele>
        <time>2024-05-11T05:18:10.000Z</time>
      </trkpt>
      <trkpt lat="44.83545" lon="5.40718">
        <ele>1321.1</ele>
        <time>2024-05-11T05:18:15.000Z</time>
      </trkpt>
      <trkpt lat="44.83542" lon="5.40718">
        <ele>1321.6</ele>
        <time>2024-05-11T05:18:20.000Z</time>
      </trkpt>
      <trkpt lat="44.83541" lon="5.40717">
        <ele>1321.7</ele>
        <time>2024-05-11T05:18:21.000Z</time>
      </trkpt>
      <trkpt lat="44.8354" lon="5.40716">
        <ele>1321.8</ele>
        <time>2024-05-11T05:18:22.000Z</time>
      </trkpt>
      <trkpt lat="44.83537" lon="5.40715">
        <ele>1322.3</ele>
        <time>2024-05-11T05:18:26.000Z</time>
      </trkpt>
      <trkpt lat="44.83534" lon="5.40715">
        <ele>1322.8</ele>
        <time>2024-05-11T05:18:30.000Z</time>
      </trkpt>
      <trkpt lat="44.83532" lon="5.40714">
        <ele>1323</ele>
        <time>2024-05-11T05:18:33.000Z</time>
      </trkpt>
      <trkpt lat="44.8353" lon="5.40714">
        <ele>1323.3</ele>
        <time>2024-05-11T05:18:38.000Z</time>
      </trkpt>
      <trkpt lat="44.83528" lon="5.40717">
        <ele>1323.8</ele>
        <time>2024-05-11T05:18:44.000Z</time>
      </trkpt>
      <trkpt lat="44.83528" lon="5.40716">
        <ele>1323.8</ele>
        <time>2024-05-11T05:18:45.000Z</time>
      </trkpt>
      <trkpt lat="44.83526" lon="5.40716">
        <ele>1324.1</ele>
        <time>2024-05-11T05:18:52.000Z</time>
      </trkpt>
      <trkpt lat="44.83525" lon="5.40716">
        <ele>1324.2</ele>
        <time>2024-05-11T05:18:53.000Z</time>
      </trkpt>
      <trkpt lat="44.83523" lon="5.40716">
        <ele>1324.5</ele>
        <time>2024-05-11T05:18:57.000Z</time>
      </trkpt>
      <trkpt lat="44.83523" lon="5.40717">
        <ele>1324.7</ele>
        <time>2024-05-11T05:18:59.000Z</time>
      </trkpt>
      <trkpt lat="44.83521" lon="5.40721">
        <ele>1325.1</ele>
        <time>2024-05-11T05:19:03.000Z</time>
      </trkpt>
      <trkpt lat="44.83519" lon="5.40723">
        <ele>1325.7</ele>
        <time>2024-05-11T05:19:07.000Z</time>
      </trkpt>
      <trkpt lat="44.83518" lon="5.40722">
        <ele>1325.7</ele>
        <time>2024-05-11T05:19:08.000Z</time>
      </trkpt>
      <trkpt lat="44.83515" lon="5.40723">
        <ele>1326.5</ele>
        <time>2024-05-11T05:19:13.000Z</time>
      </trkpt>
      <trkpt lat="44.83515" lon="5.40724">
        <ele>1326.8</ele>
        <time>2024-05-11T05:19:14.000Z</time>
      </trkpt>
      <trkpt lat="44.83511" lon="5.40724">
        <ele>1327.8</ele>
        <time>2024-05-11T05:19:19.000Z</time>
      </trkpt>
      <trkpt lat="44.83509" lon="5.40726">
        <ele>1328.5</ele>
        <time>2024-05-11T05:19:22.000Z</time>
      </trkpt>
      <trkpt lat="44.83506" lon="5.40725">
        <ele>1328.9</ele>
        <time>2024-05-11T05:19:25.000Z</time>
      </trkpt>
      <trkpt lat="44.83501" lon="5.40729">
        <ele>1331</ele>
        <time>2024-05-11T05:19:31.000Z</time>
      </trkpt>
      <trkpt lat="44.83498" lon="5.4073">
        <ele>1332</ele>
        <time>2024-05-11T05:19:37.000Z</time>
      </trkpt>
      <trkpt lat="44.83498" lon="5.40731">
        <ele>1332.4</ele>
        <time>2024-05-11T05:19:38.000Z</time>
      </trkpt>
      <trkpt lat="44.83498" lon="5.40732">
        <ele>1332.7</ele>
        <time>2024-05-11T05:19:39.000Z</time>
      </trkpt>
      <trkpt lat="44.83498" lon="5.40732">
        <ele>1332.8</ele>
        <time>2024-05-11T05:19:41.000Z</time>
      </trkpt>
      <trkpt lat="44.83497" lon="5.40732">
        <ele>1332.6</ele>
        <time>2024-05-11T05:19:42.000Z</time>
      </trkpt>
      <trkpt lat="44.83494" lon="5.40729">
        <ele>1332.4</ele>
        <time>2024-05-11T05:19:46.000Z</time>
      </trkpt>
      <trkpt lat="44.83492" lon="5.40727">
        <ele>1332.2</ele>
        <time>2024-05-11T05:19:48.000Z</time>
      </trkpt>
      <trkpt lat="44.83489" lon="5.40724">
        <ele>1331.8</ele>
        <time>2024-05-11T05:19:54.000Z</time>
      </trkpt>
      <trkpt lat="44.83488" lon="5.40724">
        <ele>1331.9</ele>
        <time>2024-05-11T05:19:55.000Z</time>
      </trkpt>
      <trkpt lat="44.83482" lon="5.4072">
        <ele>1332.7</ele>
        <time>2024-05-11T05:20:02.000Z</time>
      </trkpt>
      <trkpt lat="44.83479" lon="5.40716">
        <ele>1333</ele>
        <time>2024-05-11T05:20:04.000Z</time>
      </trkpt>
      <trkpt lat="44.83476" lon="5.40716">
        <ele>1333.5</ele>
        <time>2024-05-11T05:20:07.000Z</time>
      </trkpt>
      <trkpt lat="44.83476" lon="5.4072">
        <ele>1334.1</ele>
        <time>2024-05-11T05:20:11.000Z</time>
      </trkpt>
      <trkpt lat="44.83474" lon="5.40721">
        <ele>1334.4</ele>
        <time>2024-05-11T05:20:16.000Z</time>
      </trkpt>
      <trkpt lat="44.83473" lon="5.40721">
        <ele>1334.8</ele>
        <time>2024-05-11T05:20:20.000Z</time>
      </trkpt>
      <trkpt lat="44.83471" lon="5.40719">
        <ele>1334.9</ele>
        <time>2024-05-11T05:20:23.000Z</time>
      </trkpt>
      <trkpt lat="44.83468" lon="5.40718">
        <ele>1335.5</ele>
        <time>2024-05-11T05:20:28.000Z</time>
      </trkpt>
      <trkpt lat="44.83467" lon="5.40719">
        <ele>1335.9</ele>
        <time>2024-05-11T05:20:32.000Z</time>
      </trkpt>
      <trkpt lat="44.83466" lon="5.40718">
        <ele>1336.1</ele>
        <time>2024-05-11T05:20:34.000Z</time>
      </trkpt>
      <trkpt lat="44.83462" lon="5.4072">
        <ele>1336.9</ele>
        <time>2024-05-11T05:20:40.000Z</time>
      </trkpt>
      <trkpt lat="44.83461" lon="5.4072">
        <ele>1337.2</ele>
        <time>2024-05-11T05:20:42.000Z</time>
      </trkpt>
      <trkpt lat="44.83458" lon="5.40719">
        <ele>1337.8</ele>
        <time>2024-05-11T05:20:46.000Z</time>
      </trkpt>
      <trkpt lat="44.83455" lon="5.40718">
        <ele>1338.3</ele>
        <time>2024-05-11T05:20:53.000Z</time>
      </trkpt>
      <trkpt lat="44.83451" lon="5.40718">
        <ele>1339.3</ele>
        <time>2024-05-11T05:20:59.000Z</time>
      </trkpt>
      <trkpt lat="44.8345" lon="5.40718">
        <ele>1339.4</ele>
        <time>2024-05-11T05:21:00.000Z</time>
      </trkpt>
      <trkpt lat="44.83447" lon="5.40716">
        <ele>1340</ele>
        <time>2024-05-11T05:21:05.000Z</time>
      </trkpt>
      <trkpt lat="44.83446" lon="5.40715">
        <ele>1340.2</ele>
        <time>2024-05-11T05:21:07.000Z</time>
      </trkpt>
      <trkpt lat="44.83444" lon="5.40715">
        <ele>1340.6</ele>
        <time>2024-05-11T05:21:10.000Z</time>
      </trkpt>
      <trkpt lat="44.83441" lon="5.40716">
        <ele>1341.2</ele>
        <time>2024-05-11T05:21:16.000Z</time>
      </trkpt>
      <trkpt lat="44.8344" lon="5.40715">
        <ele>1341.4</ele>
        <time>2024-05-11T05:21:17.000Z</time>
      </trkpt>
      <trkpt lat="44.83434" lon="5.40714">
        <ele>1342.6</ele>
        <time>2024-05-11T05:21:23.000Z</time>
      </trkpt>
      <trkpt lat="44.83433" lon="5.40714">
        <ele>1343</ele>
        <time>2024-05-11T05:21:24.000Z</time>
      </trkpt>
      <trkpt lat="44.83432" lon="5.40715">
        <ele>1343.2</ele>
        <time>2024-05-11T05:21:28.000Z</time>
      </trkpt>
      <trkpt lat="44.83432" lon="5.40716">
        <ele>1343.2</ele>
        <time>2024-05-11T05:21:33.000Z</time>
      </trkpt>
      <trkpt lat="44.83432" lon="5.40716">
        <ele>1343.3</ele>
        <time>2024-05-11T05:21:34.000Z</time>
      </trkpt>
      <trkpt lat="44.83429" lon="5.4072">
        <ele>1344.2</ele>
        <time>2024-05-11T05:21:42.000Z</time>
      </trkpt>
      <trkpt lat="44.83426" lon="5.40722">
        <ele>1345</ele>
        <time>2024-05-11T05:21:47.000Z</time>
      </trkpt>
      <trkpt lat="44.83425" lon="5.40722">
        <ele>1345.2</ele>
        <time>2024-05-11T05:21:48.000Z</time>
      </trkpt>
      <trkpt lat="44.83422" lon="5.40727">
        <ele>1346.8</ele>
        <time>2024-05-11T05:21:53.000Z</time>
      </trkpt>
      <trkpt lat="44.83421" lon="5.40729">
        <ele>1347.4</ele>
        <time>2024-05-11T05:21:55.000Z</time>
      </trkpt>
      <trkpt lat="44.8342" lon="5.40731">
        <ele>1348</ele>
        <time>2024-05-11T05:21:59.000Z</time>
      </trkpt>
      <trkpt lat="44.8342" lon="5.40727">
        <ele>1347.2</ele>
        <time>2024-05-11T05:22:02.000Z</time>
      </trkpt>
      <trkpt lat="44.83414" lon="5.40726">
        <ele>1348.1</ele>
        <time>2024-05-11T05:22:05.000Z</time>
      </trkpt>
      <trkpt lat="44.83413" lon="5.40728">
        <ele>1348.7</ele>
        <time>2024-05-11T05:22:06.000Z</time>
      </trkpt>
      <trkpt lat="44.83416" lon="5.40728">
        <ele>1348.1</ele>
        <time>2024-05-11T05:22:09.000Z</time>
      </trkpt>
      <trkpt lat="44.83415" lon="5.40731">
        <ele>1348.7</ele>
        <time>2024-05-11T05:22:16.000Z</time>
      </trkpt>
      <trkpt lat="44.83412" lon="5.40734">
        <ele>1349.9</ele>
        <time>2024-05-11T05:22:21.000Z</time>
      </trkpt>
      <trkpt lat="44.83411" lon="5.40736">
        <ele>1350.3</ele>
        <time>2024-05-11T05:22:23.000Z</time>
      </trkpt>
      <trkpt lat="44.83409" lon="5.40737">
        <ele>1350.6</ele>
        <time>2024-05-11T05:22:25.000Z</time>
      </trkpt>
      <trkpt lat="44.83405" lon="5.40738">
        <ele>1351.4</ele>
        <time>2024-05-11T05:22:30.000Z</time>
      </trkpt>
      <trkpt lat="44.83404" lon="5.40738">
        <ele>1351.7</ele>
        <time>2024-05-11T05:22:32.000Z</time>
      </trkpt>
      <trkpt lat="44.83402" lon="5.4074">
        <ele>1352.1</ele>
        <time>2024-05-11T05:22:35.000Z</time>
      </trkpt>
      <trkpt lat="44.834" lon="5.40742">
        <ele>1352.7</ele>
        <time>2024-05-11T05:22:40.000Z</time>
      </trkpt>
      <trkpt lat="44.834" lon="5.40742">
        <ele>1352.8</ele>
        <time>2024-05-11T05:22:41.000Z</time>
      </trkpt>
      <trkpt lat="44.83397" lon="5.40744">
        <ele>1353.3</ele>
        <time>2024-05-11T05:22:47.000Z</time>
      </trkpt>
      <trkpt lat="44.83397" lon="5.40744">
        <ele>1353.4</ele>
        <time>2024-05-11T05:22:48.000Z</time>
      </trkpt>
      <trkpt lat="44.83394" lon="5.40745">
        <ele>1353.8</ele>
        <time>2024-05-11T05:22:54.000Z</time>
      </trkpt>
      <trkpt lat="44.83394" lon="5.40745">
        <ele>1353.9</ele>
        <time>2024-05-11T05:22:55.000Z</time>
      </trkpt>
      <trkpt lat="44.83391" lon="5.40746">
        <ele>1354.4</ele>
        <time>2024-05-11T05:23:01.000Z</time>
      </trkpt>
      <trkpt lat="44.83388" lon="5.40748">
        <ele>1354.9</ele>
        <time>2024-05-11T05:23:08.000Z</time>
      </trkpt>
      <trkpt lat="44.83388" lon="5.40749">
        <ele>1355</ele>
        <time>2024-05-11T05:23:09.000Z</time>
      </trkpt>
      <trkpt lat="44.83385" lon="5.40749">
        <ele>1355.3</ele>
        <time>2024-05-11T05:23:14.000Z</time>
      </trkpt>
      <trkpt lat="44.83383" lon="5.4075">
        <ele>1355.6</ele>
        <time>2024-05-11T05:23:18.000Z</time>
      </trkpt>
      <trkpt lat="44.83382" lon="5.4075">
        <ele>1355.8</ele>
        <time>2024-05-11T05:23:20.000Z</time>
      </trkpt>
      <trkpt lat="44.83379" lon="5.4075">
        <ele>1356.1</ele>
        <time>2024-05-11T05:23:24.000Z</time>
      </trkpt>
      <trkpt lat="44.83378" lon="5.40752">
        <ele>1356.6</ele>
        <time>2024-05-11T05:23:27.000Z</time>
      </trkpt>
      <trkpt lat="44.83378" lon="5.40753">
        <ele>1356.8</ele>
        <time>2024-05-11T05:23:28.000Z</time>
      </trkpt>
      <trkpt lat="44.83373" lon="5.40754">
        <ele>1357.6</ele>
        <time>2024-05-11T05:23:35.000Z</time>
      </trkpt>
      <trkpt lat="44.83372" lon="5.40754">
        <ele>1357.6</ele>
        <time>2024-05-11T05:23:36.000Z</time>
      </trkpt>
      <trkpt lat="44.83368" lon="5.40754">
        <ele>1357.9</ele>
        <time>2024-05-11T05:23:40.000Z</time>
      </trkpt>
      <trkpt lat="44.83366" lon="5.40753">
        <ele>1358</ele>
        <time>2024-05-11T05:23:43.000Z</time>
      </trkpt>
      <trkpt lat="44.83362" lon="5.40752">
        <ele>1358.3</ele>
        <time>2024-05-11T05:23:48.000Z</time>
      </trkpt>
      <trkpt lat="44.83361" lon="5.40752">
        <ele>1358.4</ele>
        <time>2024-05-11T05:23:49.000Z</time>
      </trkpt>
      <trkpt lat="44.83359" lon="5.40753">
        <ele>1358.8</ele>
        <time>2024-05-11T05:23:53.000Z</time>
      </trkpt>
      <trkpt lat="44.83357" lon="5.40753">
        <ele>1359</ele>
        <time>2024-05-11T05:23:56.000Z</time>
      </trkpt>
      <trkpt lat="44.83352" lon="5.40753">
        <ele>1359.4</ele>
        <time>2024-05-11T05:24:05.000Z</time>
      </trkpt>
      <trkpt lat="44.83351" lon="5.40753">
        <ele>1359.6</ele>
        <time>2024-05-11T05:24:07.000Z</time>
      </trkpt>
      <trkpt lat="44.83347" lon="5.40752">
        <ele>1359.9</ele>
        <time>2024-05-11T05:24:13.000Z</time>
      </trkpt>
      <trkpt lat="44.83343" lon="5.40752">
        <ele>1360.3</ele>
        <time>2024-05-11T05:24:18.000Z</time>
      </trkpt>
      <trkpt lat="44.8334" lon="5.40752">
        <ele>1360.5</ele>
        <time>2024-05-11T05:24:20.000Z</time>
      </trkpt>
      <trkpt lat="44.83333" lon="5.4075">
        <ele>1361</ele>
        <time>2024-05-11T05:24:27.000Z</time>
      </trkpt>
      <trkpt lat="44.83331" lon="5.4075">
        <ele>1361.2</ele>
        <time>2024-05-11T05:24:29.000Z</time>
      </trkpt>
      <trkpt lat="44.83326" lon="5.40748">
        <ele>1361.6</ele>
        <time>2024-05-11T05:24:35.000Z</time>
      </trkpt>
      <trkpt lat="44.83322" lon="5.40746">
        <ele>1362</ele>
        <time>2024-05-11T05:24:40.000Z</time>
      </trkpt>
      <trkpt lat="44.8332" lon="5.40743">
        <ele>1362.1</ele>
        <time>2024-05-11T05:24:44.000Z</time>
      </trkpt>
      <trkpt lat="44.83315" lon="5.40742">
        <ele>1362.6</ele>
        <time>2024-05-11T05:24:52.000Z</time>
      </trkpt>
      <trkpt lat="44.83312" lon="5.40742">
        <ele>1362.9</ele>
        <time>2024-05-11T05:24:57.000Z</time>
      </trkpt>
      <trkpt lat="44.83307" lon="5.40736">
        <ele>1363.3</ele>
        <time>2024-05-11T05:25:03.000Z</time>
      </trkpt>
      <trkpt lat="44.83307" lon="5.40736">
        <ele>1363.4</ele>
        <time>2024-05-11T05:25:04.000Z</time>
      </trkpt>
      <trkpt lat="44.83304" lon="5.40734">
        <ele>1363.6</ele>
        <time>2024-05-11T05:25:08.000Z</time>
      </trkpt>
      <trkpt lat="44.833" lon="5.40731">
        <ele>1363.9</ele>
        <time>2024-05-11T05:25:13.000Z</time>
      </trkpt>
      <trkpt lat="44.83298" lon="5.40729">
        <ele>1364</ele>
        <time>2024-05-11T05:25:15.000Z</time>
      </trkpt>
      <trkpt lat="44.83295" lon="5.40726">
        <ele>1364.3</ele>
        <time>2024-05-11T05:25:21.000Z</time>
      </trkpt>
      <trkpt lat="44.83291" lon="5.40723">
        <ele>1364.6</ele>
        <time>2024-05-11T05:25:26.000Z</time>
      </trkpt>
      <trkpt lat="44.8329" lon="5.40723">
        <ele>1364.7</ele>
        <time>2024-05-11T05:25:27.000Z</time>
      </trkpt>
      <trkpt lat="44.83288" lon="5.40723">
        <ele>1365</ele>
        <time>2024-05-11T05:25:30.000Z</time>
      </trkpt>
      <trkpt lat="44.83285" lon="5.40723">
        <ele>1365.3</ele>
        <time>2024-05-11T05:25:35.000Z</time>
      </trkpt>
      <trkpt lat="44.83284" lon="5.40723">
        <ele>1365.4</ele>
        <time>2024-05-11T05:25:36.000Z</time>
      </trkpt>
      <trkpt lat="44.83278" lon="5.40726">
        <ele>1366.1</ele>
        <time>2024-05-11T05:25:44.000Z</time>
      </trkpt>
      <trkpt lat="44.83278" lon="5.40726">
        <ele>1366.1</ele>
        <time>2024-05-11T05:25:45.000Z</time>
      </trkpt>
      <trkpt lat="44.83274" lon="5.40726">
        <ele>1366.8</ele>
        <time>2024-05-11T05:25:50.000Z</time>
      </trkpt>
      <trkpt lat="44.83273" lon="5.40727">
        <ele>1367</ele>
        <time>2024-05-11T05:25:51.000Z</time>
      </trkpt>
      <trkpt lat="44.83271" lon="5.40731">
        <ele>1367.5</ele>
        <time>2024-05-11T05:25:55.000Z</time>
      </trkpt>
      <trkpt lat="44.83267" lon="5.40734">
        <ele>1368.1</ele>
        <time>2024-05-11T05:26:00.000Z</time>
      </trkpt>
      <trkpt lat="44.83262" lon="5.40737">
        <ele>1369.1</ele>
        <time>2024-05-11T05:26:06.000Z</time>
      </trkpt>
      <trkpt lat="44.83261" lon="5.40739">
        <ele>1369.3</ele>
        <time>2024-05-11T05:26:08.000Z</time>
      </trkpt>
      <trkpt lat="44.83258" lon="5.40743">
        <ele>1369.8</ele>
        <time>2024-05-11T05:26:11.000Z</time>
      </trkpt>
      <trkpt lat="44.83257" lon="5.40749">
        <ele>1370</ele>
        <time>2024-05-11T05:26:18.000Z</time>
      </trkpt>
      <trkpt lat="44.83254" lon="5.40751">
        <ele>1370.6</ele>
        <time>2024-05-11T05:26:21.000Z</time>
      </trkpt>
      <trkpt lat="44.83251" lon="5.40753">
        <ele>1371.2</ele>
        <time>2024-05-11T05:26:24.000Z</time>
      </trkpt>
      <trkpt lat="44.83247" lon="5.40756">
        <ele>1372</ele>
        <time>2024-05-11T05:26:30.000Z</time>
      </trkpt>
      <trkpt lat="44.83247" lon="5.40757">
        <ele>1372.2</ele>
        <time>2024-05-11T05:26:33.000Z</time>
      </trkpt>
      <trkpt lat="44.83246" lon="5.40759">
        <ele>1372.6</ele>
        <time>2024-05-11T05:26:36.000Z</time>
      </trkpt>
      <trkpt lat="44.83244" lon="5.40766">
        <ele>1373.6</ele>
        <time>2024-05-11T05:26:43.000Z</time>
      </trkpt>
      <trkpt lat="44.83237" lon="5.40772">
        <ele>1375.2</ele>
        <time>2024-05-11T05:26:52.000Z</time>
      </trkpt>
      <trkpt lat="44.83234" lon="5.40775">
        <ele>1375.9</ele>
        <time>2024-05-11T05:26:57.000Z</time>
      </trkpt>
      <trkpt lat="44.83234" lon="5.40777">
        <ele>1376.1</ele>
        <time>2024-05-11T05:26:59.000Z</time>
      </trkpt>
      <trkpt lat="44.83234" lon="5.40778">
        <ele>1376.3</ele>
        <time>2024-05-11T05:27:00.000Z</time>
      </trkpt>
      <trkpt lat="44.83232" lon="5.40776">
        <ele>1376.4</ele>
        <time>2024-05-11T05:27:04.000Z</time>
      </trkpt>
      <trkpt lat="44.83233" lon="5.40776">
        <ele>1376.3</ele>
        <time>2024-05-11T05:27:09.000Z</time>
      </trkpt>
      <trkpt lat="44.83232" lon="5.40778">
        <ele>1376.7</ele>
        <time>2024-05-11T05:27:12.000Z</time>
      </trkpt>
      <trkpt lat="44.83232" lon="5.40783">
        <ele>1377.7</ele>
        <time>2024-05-11T05:27:19.000Z</time>
      </trkpt>
      <trkpt lat="44.83233" lon="5.40785">
        <ele>1378.1</ele>
        <time>2024-05-11T05:27:22.000Z</time>
      </trkpt>
      <trkpt lat="44.83231" lon="5.40786">
        <ele>1378.4</ele>
        <time>2024-05-11T05:27:24.000Z</time>
      </trkpt>
      <trkpt lat="44.83229" lon="5.40786">
        <ele>1378.9</ele>
        <time>2024-05-11T05:27:29.000Z</time>
      </trkpt>
      <trkpt lat="44.83228" lon="5.40786">
        <ele>1379</ele>
        <time>2024-05-11T05:27:30.000Z</time>
      </trkpt>
      <trkpt lat="44.83225" lon="5.4079">
        <ele>1380.3</ele>
        <time>2024-05-11T05:27:37.000Z</time>
      </trkpt>
      <trkpt lat="44.83225" lon="5.40791">
        <ele>1380.4</ele>
        <time>2024-05-11T05:27:38.000Z</time>
      </trkpt>
      <trkpt lat="44.83223" lon="5.40791">
        <ele>1380.7</ele>
        <time>2024-05-11T05:27:43.000Z</time>
      </trkpt>
      <trkpt lat="44.83222" lon="5.4079">
        <ele>1380.7</ele>
        <time>2024-05-11T05:27:44.000Z</time>
      </trkpt>
      <trkpt lat="44.83222" lon="5.40789">
        <ele>1380.3</ele>
        <time>2024-05-11T05:27:51.000Z</time>
      </trkpt>
      <trkpt lat="44.83222" lon="5.40788">
        <ele>1380.3</ele>
        <time>2024-05-11T05:27:55.000Z</time>
      </trkpt>
      <trkpt lat="44.83222" lon="5.40785">
        <ele>1379.6</ele>
        <time>2024-05-11T05:28:03.000Z</time>
      </trkpt>
      <trkpt lat="44.8322" lon="5.40785">
        <ele>1380</ele>
        <time>2024-05-11T05:28:08.000Z</time>
      </trkpt>
      <trkpt lat="44.83217" lon="5.40784">
        <ele>1380</ele>
        <time>2024-05-11T05:28:14.000Z</time>
      </trkpt>
      <trkpt lat="44.83217" lon="5.40783">
        <ele>1379.9</ele>
        <time>2024-05-11T05:28:15.000Z</time>
      </trkpt>
      <trkpt lat="44.83215" lon="5.40782">
        <ele>1380</ele>
        <time>2024-05-11T05:28:22.000Z</time>
      </trkpt>
      <trkpt lat="44.83214" lon="5.4078">
        <ele>1379.5</ele>
        <time>2024-05-11T05:28:27.000Z</time>
      </trkpt>
      <trkpt lat="44.83222" lon="5.40783">
        <ele>1379.2</ele>
        <time>2024-05-11T05:28:34.000Z</time>
      </trkpt>
      <trkpt lat="44.83222" lon="5.40789">
        <ele>1380.3</ele>
        <time>2024-05-11T05:28:40.000Z</time>
      </trkpt>
      <trkpt lat="44.83222" lon="5.40789">
        <ele>1380.4</ele>
        <time>2024-05-11T05:28:49.000Z</time>
      </trkpt>
      <trkpt lat="44.83223" lon="5.40785">
        <ele>1379.4</ele>
        <time>2024-05-11T05:28:56.000Z</time>
      </trkpt>
      <trkpt lat="44.83223" lon="5.40782">
        <ele>1378.7</ele>
        <time>2024-05-11T05:29:05.000Z</time>
      </trkpt>
      <trkpt lat="44.83223" lon="5.40781">
        <ele>1378.6</ele>
        <time>2024-05-11T05:29:14.000Z</time>
      </trkpt>
      <trkpt lat="44.83223" lon="5.40781">
        <ele>1378.7</ele>
        <time>2024-05-11T05:29:24.000Z</time>
      </trkpt>
      <trkpt lat="44.83222" lon="5.40782">
        <ele>1378.9</ele>
        <time>2024-05-11T05:29:27.000Z</time>
      </trkpt>
      <trkpt lat="44.8322" lon="5.40784">
        <ele>1379.7</ele>
        <time>2024-05-11T05:29:34.000Z</time>
      </trkpt>
      <trkpt lat="44.8322" lon="5.40787">
        <ele>1380.4</ele>
        <time>2024-05-11T05:29:43.000Z</time>
      </trkpt>
      <trkpt lat="44.83218" lon="5.40786">
        <ele>1380.4</ele>
        <time>2024-05-11T05:29:46.000Z</time>
      </trkpt>
      <trkpt lat="44.83216" lon="5.40786">
        <ele>1380.8</ele>
        <time>2024-05-11T05:29:49.000Z</time>
      </trkpt>
      <trkpt lat="44.83211" lon="5.40787">
        <ele>1381.7</ele>
        <time>2024-05-11T05:29:54.000Z</time>
      </trkpt>
      <trkpt lat="44.83209" lon="5.40788">
        <ele>1382.3</ele>
        <time>2024-05-11T05:29:56.000Z</time>
      </trkpt>
      <trkpt lat="44.83207" lon="5.4079">
        <ele>1382.9</ele>
        <time>2024-05-11T05:29:59.000Z</time>
      </trkpt>
      <trkpt lat="44.83202" lon="5.40793">
        <ele>1384.6</ele>
        <time>2024-05-11T05:30:05.000Z</time>
      </trkpt>
      <trkpt lat="44.83201" lon="5.40794">
        <ele>1385</ele>
        <time>2024-05-11T05:30:06.000Z</time>
      </trkpt>
      <trkpt lat="44.83196" lon="5.40794">
        <ele>1385.8</ele>
        <time>2024-05-11T05:30:11.000Z</time>
      </trkpt>
      <trkpt lat="44.83191" lon="5.40795">
        <ele>1386.7</ele>
        <time>2024-05-11T05:30:15.000Z</time>
      </trkpt>
      <trkpt lat="44.8319" lon="5.40795">
        <ele>1386.9</ele>
        <time>2024-05-11T05:30:17.000Z</time>
      </trkpt>
      <trkpt lat="44.83185" lon="5.40795">
        <ele>1387.4</ele>
        <time>2024-05-11T05:30:21.000Z</time>
      </trkpt>
      <trkpt lat="44.83184" lon="5.40794">
        <ele>1387.4</ele>
        <time>2024-05-11T05:30:23.000Z</time>
      </trkpt>
      <trkpt lat="44.8318" lon="5.40795">
        <ele>1388</ele>
        <time>2024-05-11T05:30:28.000Z</time>
      </trkpt>
      <trkpt lat="44.83172" lon="5.40794">
        <ele>1388.7</ele>
        <time>2024-05-11T05:30:37.000Z</time>
      </trkpt>
      <trkpt lat="44.83169" lon="5.40793">
        <ele>1388.9</ele>
        <time>2024-05-11T05:30:40.000Z</time>
      </trkpt>
      <trkpt lat="44.83166" lon="5.40793">
        <ele>1389.3</ele>
        <time>2024-05-11T05:30:43.000Z</time>
      </trkpt>
      <trkpt lat="44.83162" lon="5.40794">
        <ele>1389.5</ele>
        <time>2024-05-11T05:30:46.000Z</time>
      </trkpt>
      <trkpt lat="44.83159" lon="5.40795">
        <ele>1389.6</ele>
        <time>2024-05-11T05:30:49.000Z</time>
      </trkpt>
      <trkpt lat="44.83158" lon="5.40795">
        <ele>1389.6</ele>
        <time>2024-05-11T05:30:50.000Z</time>
      </trkpt>
      <trkpt lat="44.83157" lon="5.40794">
        <ele>1389.4</ele>
        <time>2024-05-11T05:30:52.000Z</time>
      </trkpt>
      <trkpt lat="44.83155" lon="5.40793">
        <ele>1389.2</ele>
        <time>2024-05-11T05:30:54.000Z</time>
      </trkpt>
      <trkpt lat="44.8315" lon="5.40793">
        <ele>1389.2</ele>
        <time>2024-05-11T05:30:59.000Z</time>
      </trkpt>
      <trkpt lat="44.83148" lon="5.40793">
        <ele>1389.2</ele>
        <time>2024-05-11T05:31:01.000Z</time>
      </trkpt>
      <trkpt lat="44.83146" lon="5.40794">
        <ele>1389.4</ele>
        <time>2024-05-11T05:31:03.000Z</time>
      </trkpt>
      <trkpt lat="44.83145" lon="5.40796">
        <ele>1389.6</ele>
        <time>2024-05-11T05:31:07.000Z</time>
      </trkpt>
      <trkpt lat="44.8314" lon="5.40796">
        <ele>1389.6</ele>
        <time>2024-05-11T05:31:11.000Z</time>
      </trkpt>
      <trkpt lat="44.83139" lon="5.40796">
        <ele>1389.5</ele>
        <time>2024-05-11T05:31:13.000Z</time>
      </trkpt>
      <trkpt lat="44.83131" lon="5.40794">
        <ele>1388</ele>
        <time>2024-05-11T05:31:21.000Z</time>
      </trkpt>
      <trkpt lat="44.83128" lon="5.40794">
        <ele>1387.5</ele>
        <time>2024-05-11T05:31:24.000Z</time>
      </trkpt>
      <trkpt lat="44.83126" lon="5.40795">
        <ele>1387.4</ele>
        <time>2024-05-11T05:31:26.000Z</time>
      </trkpt>
      <trkpt lat="44.83124" lon="5.40795">
        <ele>1387.1</ele>
        <time>2024-05-11T05:31:28.000Z</time>
      </trkpt>
      <trkpt lat="44.83122" lon="5.40793">
        <ele>1386.5</ele>
        <time>2024-05-11T05:31:31.000Z</time>
      </trkpt>
      <trkpt lat="44.83119" lon="5.40791">
        <ele>1385.6</ele>
        <time>2024-05-11T05:31:34.000Z</time>
      </trkpt>
      <trkpt lat="44.83112" lon="5.40791">
        <ele>1384.4</ele>
        <time>2024-05-11T05:31:40.000Z</time>
      </trkpt>
      <trkpt lat="44.83106" lon="5.40793">
        <ele>1381.5</ele>
        <time>2024-05-11T05:31:49.000Z</time>
      </trkpt>
      <trkpt lat="44.83105" lon="5.40793">
        <ele>1381.1</ele>
        <time>2024-05-11T05:31:51.000Z</time>
      </trkpt>
      <trkpt lat="44.83101" lon="5.40791">
        <ele>1378.4</ele>
        <time>2024-05-11T05:31:56.000Z</time>
      </trkpt>
      <trkpt lat="44.83095" lon="5.40787">
        <ele>1374.2</ele>
        <time>2024-05-11T05:32:03.000Z</time>
      </trkpt>
      <trkpt lat="44.83092" lon="5.40785">
        <ele>1372.1</ele>
        <time>2024-05-11T05:32:07.000Z</time>
      </trkpt>
      <trkpt lat="44.83092" lon="5.40785">
        <ele>1371.9</ele>
        <time>2024-05-11T05:32:10.000Z</time>
      </trkpt>
      <trkpt lat="44.8309" lon="5.40786">
        <ele>1371.4</ele>
        <time>2024-05-11T05:32:18.000Z</time>
      </trkpt>
      <trkpt lat="44.83089" lon="5.40785">
        <ele>1370.4</ele>
        <time>2024-05-11T05:32:33.000Z</time>
      </trkpt>
      <trkpt lat="44.83088" lon="5.40785">
        <ele>1369.7</ele>
        <time>2024-05-11T05:32:47.000Z</time>
      </trkpt>
      <trkpt lat="44.83087" lon="5.40782">
        <ele>1368.1</ele>
        <time>2024-05-11T05:33:27.000Z</time>
      </trkpt>
      <trkpt lat="44.83087" lon="5.40782">
        <ele>1368.1</ele>
        <time>2024-05-11T05:33:35.000Z</time>
      </trkpt>
      <trkpt lat="44.83086" lon="5.40781">
        <ele>1367.6</ele>
        <time>2024-05-11T05:33:56.000Z</time>
      </trkpt>
      <trkpt lat="44.83085" lon="5.40779">
        <ele>1366.6</ele>
        <time>2024-05-11T05:34:28.000Z</time>
      </trkpt>
      <trkpt lat="44.83085" lon="5.40778">
        <ele>1365.7</ele>
        <time>2024-05-11T05:34:32.000Z</time>
      </trkpt>
      <trkpt lat="44.83085" lon="5.40781">
        <ele>1366.7</ele>
        <time>2024-05-11T05:34:40.000Z</time>
      </trkpt>
      <trkpt lat="44.83084" lon="5.40781">
        <ele>1366.5</ele>
        <time>2024-05-11T05:34:51.000Z</time>
      </trkpt>
      <trkpt lat="44.83083" lon="5.40785">
        <ele>1366.9</ele>
        <time>2024-05-11T05:35:03.000Z</time>
      </trkpt>
      <trkpt lat="44.83086" lon="5.40785">
        <ele>1368.3</ele>
        <time>2024-05-11T05:35:52.000Z</time>
      </trkpt>
      <trkpt lat="44.83094" lon="5.40784">
        <ele>1373</ele>
        <time>2024-05-11T05:36:32.000Z</time>
      </trkpt>
      <trkpt lat="44.83096" lon="5.40784">
        <ele>1374.1</ele>
        <time>2024-05-11T05:36:35.000Z</time>
      </trkpt>
      <trkpt lat="44.83098" lon="5.40785">
        <ele>1375.3</ele>
        <time>2024-05-11T05:36:40.000Z</time>
      </trkpt>
      <trkpt lat="44.83097" lon="5.40786">
        <ele>1375.6</ele>
        <time>2024-05-11T05:36:45.000Z</time>
      </trkpt>
      <trkpt lat="44.83097" lon="5.40788">
        <ele>1375.7</ele>
        <time>2024-05-11T05:36:51.000Z</time>
      </trkpt>
      <trkpt lat="44.83096" lon="5.40789">
        <ele>1375.2</ele>
        <time>2024-05-11T05:36:53.000Z</time>
      </trkpt>
      <trkpt lat="44.83093" lon="5.40791">
        <ele>1374.2</ele>
        <time>2024-05-11T05:36:56.000Z</time>
      </trkpt>
      <trkpt lat="44.83091" lon="5.40793">
        <ele>1373.3</ele>
        <time>2024-05-11T05:37:00.000Z</time>
      </trkpt>
      <trkpt lat="44.83087" lon="5.40796">
        <ele>1372</ele>
        <time>2024-05-11T05:37:05.000Z</time>
      </trkpt>
      <trkpt lat="44.83084" lon="5.40798">
        <ele>1371.2</ele>
        <time>2024-05-11T05:37:10.000Z</time>
      </trkpt>
      <trkpt lat="44.83084" lon="5.40798">
        <ele>1371.4</ele>
        <time>2024-05-11T05:37:16.000Z</time>
      </trkpt>
      <trkpt lat="44.83083" lon="5.40803">
        <ele>1372.1</ele>
        <time>2024-05-11T05:37:21.000Z</time>
      </trkpt>
      <trkpt lat="44.83083" lon="5.40804">
        <ele>1371.9</ele>
        <time>2024-05-11T05:37:22.000Z</time>
      </trkpt>
      <trkpt lat="44.8308" lon="5.40807">
        <ele>1370.5</ele>
        <time>2024-05-11T05:37:27.000Z</time>
      </trkpt>
      <trkpt lat="44.83079" lon="5.40807">
        <ele>1369.4</ele>
        <time>2024-05-11T05:37:33.000Z</time>
      </trkpt>
      <trkpt lat="44.83078" lon="5.40806">
        <ele>1368.6</ele>
        <time>2024-05-11T05:37:36.000Z</time>
      </trkpt>
      <trkpt lat="44.83079" lon="5.40806">
        <ele>1368.8</ele>
        <time>2024-05-11T05:37:39.000Z</time>
      </trkpt>
      <trkpt lat="44.83079" lon="5.40805">
        <ele>1369.2</ele>
        <time>2024-05-11T05:37:40.000Z</time>
      </trkpt>
      <trkpt lat="44.83081" lon="5.40804">
        <ele>1370.4</ele>
        <time>2024-05-11T05:37:45.000Z</time>
      </trkpt>
      <trkpt lat="44.83082" lon="5.40804">
        <ele>1371.5</ele>
        <time>2024-05-11T05:37:57.000Z</time>
      </trkpt>
      <trkpt lat="44.83091" lon="5.40805">
        <ele>1376.5</ele>
        <time>2024-05-11T05:38:04.000Z</time>
      </trkpt>
      <trkpt lat="44.83096" lon="5.40808">
        <ele>1380.2</ele>
        <time>2024-05-11T05:38:11.000Z</time>
      </trkpt>
      <trkpt lat="44.831" lon="5.4081">
        <ele>1382.6</ele>
        <time>2024-05-11T05:38:14.000Z</time>
      </trkpt>
      <trkpt lat="44.83102" lon="5.40811">
        <ele>1383.8</ele>
        <time>2024-05-11T05:38:16.000Z</time>
      </trkpt>
      <trkpt lat="44.83105" lon="5.40813">
        <ele>1385.6</ele>
        <time>2024-05-11T05:38:20.000Z</time>
      </trkpt>
      <trkpt lat="44.83106" lon="5.40815">
        <ele>1386.5</ele>
        <time>2024-05-11T05:38:23.000Z</time>
      </trkpt>
      <trkpt lat="44.83107" lon="5.40818">
        <ele>1387.4</ele>
        <time>2024-05-11T05:38:26.000Z</time>
      </trkpt>
      <trkpt lat="44.83109" lon="5.40822">
        <ele>1389.2</ele>
        <time>2024-05-11T05:38:31.000Z</time>
      </trkpt>
      <trkpt lat="44.83111" lon="5.40825">
        <ele>1390.4</ele>
        <time>2024-05-11T05:38:34.000Z</time>
      </trkpt>
      <trkpt lat="44.83113" lon="5.40828">
        <ele>1391.2</ele>
        <time>2024-05-11T05:38:38.000Z</time>
      </trkpt>
      <trkpt lat="44.83113" lon="5.40831">
        <ele>1391.9</ele>
        <time>2024-05-11T05:38:41.000Z</time>
      </trkpt>
      <trkpt lat="44.83116" lon="5.40833">
        <ele>1392.6</ele>
        <time>2024-05-11T05:38:45.000Z</time>
      </trkpt>
      <trkpt lat="44.83119" lon="5.40835">
        <ele>1393.6</ele>
        <time>2024-05-11T05:38:48.000Z</time>
      </trkpt>
      <trkpt lat="44.83121" lon="5.40839">
        <ele>1394.6</ele>
        <time>2024-05-11T05:38:52.000Z</time>
      </trkpt>
      <trkpt lat="44.8312" lon="5.4084">
        <ele>1394.9</ele>
        <time>2024-05-11T05:38:54.000Z</time>
      </trkpt>
      <trkpt lat="44.83119" lon="5.4084">
        <ele>1394.7</ele>
        <time>2024-05-11T05:38:57.000Z</time>
      </trkpt>
      <trkpt lat="44.83117" lon="5.40842">
        <ele>1394.8</ele>
        <time>2024-05-11T05:39:03.000Z</time>
      </trkpt>
      <trkpt lat="44.83116" lon="5.40842">
        <ele>1394.6</ele>
        <time>2024-05-11T05:39:04.000Z</time>
      </trkpt>
      <trkpt lat="44.83111" lon="5.40843">
        <ele>1394.4</ele>
        <time>2024-05-11T05:39:09.000Z</time>
      </trkpt>
      <trkpt lat="44.83108" lon="5.40846">
        <ele>1394.2</ele>
        <time>2024-05-11T05:39:14.000Z</time>
      </trkpt>
      <trkpt lat="44.83107" lon="5.40847">
        <ele>1394.2</ele>
        <time>2024-05-11T05:39:15.000Z</time>
      </trkpt>
      <trkpt lat="44.83107" lon="5.40848">
        <ele>1394.3</ele>
        <time>2024-05-11T05:39:16.000Z</time>
      </trkpt>
      <trkpt lat="44.83106" lon="5.40849">
        <ele>1394.5</ele>
        <time>2024-05-11T05:39:18.000Z</time>
      </trkpt>
      <trkpt lat="44.83104" lon="5.40852">
        <ele>1394.5</ele>
        <time>2024-05-11T05:39:22.000Z</time>
      </trkpt>
      <trkpt lat="44.83103" lon="5.40855">
        <ele>1395.1</ele>
        <time>2024-05-11T05:39:26.000Z</time>
      </trkpt>
      <trkpt lat="44.83102" lon="5.40856">
        <ele>1395.3</ele>
        <time>2024-05-11T05:39:27.000Z</time>
      </trkpt>
      <trkpt lat="44.83101" lon="5.40859">
        <ele>1395.8</ele>
        <time>2024-05-11T05:39:32.000Z</time>
      </trkpt>
      <trkpt lat="44.83101" lon="5.40861">
        <ele>1396.3</ele>
        <time>2024-05-11T05:39:35.000Z</time>
      </trkpt>
      <trkpt lat="44.831" lon="5.40863">
        <ele>1396.6</ele>
        <time>2024-05-11T05:39:38.000Z</time>
      </trkpt>
      <trkpt lat="44.83098" lon="5.40866">
        <ele>1396.9</ele>
        <time>2024-05-11T05:39:43.000Z</time>
      </trkpt>
      <trkpt lat="44.83097" lon="5.40867">
        <ele>1397</ele>
        <time>2024-05-11T05:39:45.000Z</time>
      </trkpt>
      <trkpt lat="44.83097" lon="5.4087">
        <ele>1397.4</ele>
        <time>2024-05-11T05:39:50.000Z</time>
      </trkpt>
      <trkpt lat="44.83096" lon="5.4087">
        <ele>1397.4</ele>
        <time>2024-05-11T05:39:53.000Z</time>
      </trkpt>
      <trkpt lat="44.83094" lon="5.40873">
        <ele>1397.6</ele>
        <time>2024-05-11T05:39:58.000Z</time>
      </trkpt>
      <trkpt lat="44.83094" lon="5.40874">
        <ele>1397.7</ele>
        <time>2024-05-11T05:39:59.000Z</time>
      </trkpt>
      <trkpt lat="44.83092" lon="5.40876">
        <ele>1397.8</ele>
        <time>2024-05-11T05:40:03.000Z</time>
      </trkpt>
      <trkpt lat="44.83092" lon="5.40876">
        <ele>1397.7</ele>
        <time>2024-05-11T05:40:11.000Z</time>
      </trkpt>
      <trkpt lat="44.83093" lon="5.40875">
        <ele>1397.7</ele>
        <time>2024-05-11T05:40:12.000Z</time>
      </trkpt>
      <trkpt lat="44.83094" lon="5.40874">
        <ele>1397.9</ele>
        <time>2024-05-11T05:40:44.000Z</time>
      </trkpt>
      <trkpt lat="44.83093" lon="5.40877">
        <ele>1398.4</ele>
        <time>2024-05-11T05:41:08.000Z</time>
      </trkpt>
      <trkpt lat="44.8309" lon="5.40882">
        <ele>1398.5</ele>
        <time>2024-05-11T05:41:14.000Z</time>
      </trkpt>
      <trkpt lat="44.83088" lon="5.40884">
        <ele>1398.4</ele>
        <time>2024-05-11T05:41:16.000Z</time>
      </trkpt>
      <trkpt lat="44.83086" lon="5.40885">
        <ele>1398.2</ele>
        <time>2024-05-11T05:41:20.000Z</time>
      </trkpt>
      <trkpt lat="44.83086" lon="5.40886">
        <ele>1398.2</ele>
        <time>2024-05-11T05:41:23.000Z</time>
      </trkpt>
      <trkpt lat="44.83087" lon="5.40886">
        <ele>1398.5</ele>
        <time>2024-05-11T05:41:28.000Z</time>
      </trkpt>
      <trkpt lat="44.83084" lon="5.4089">
        <ele>1398.3</ele>
        <time>2024-05-11T05:41:34.000Z</time>
      </trkpt>
      <trkpt lat="44.83087" lon="5.40895">
        <ele>1400.3</ele>
        <time>2024-05-11T05:41:41.000Z</time>
      </trkpt>
      <trkpt lat="44.83087" lon="5.40895">
        <ele>1400.6</ele>
        <time>2024-05-11T05:41:42.000Z</time>
      </trkpt>
      <trkpt lat="44.83089" lon="5.40899">
        <ele>1402.1</ele>
        <time>2024-05-11T05:41:48.000Z</time>
      </trkpt>
      <trkpt lat="44.83091" lon="5.40901">
        <ele>1403</ele>
        <time>2024-05-11T05:41:51.000Z</time>
      </trkpt>
      <trkpt lat="44.83091" lon="5.40902">
        <ele>1403.4</ele>
        <time>2024-05-11T05:41:53.000Z</time>
      </trkpt>
      <trkpt lat="44.83091" lon="5.40903">
        <ele>1403.7</ele>
        <time>2024-05-11T05:41:55.000Z</time>
      </trkpt>
      <trkpt lat="44.83092" lon="5.40904">
        <ele>1404.3</ele>
        <time>2024-05-11T05:41:57.000Z</time>
      </trkpt>
      <trkpt lat="44.83093" lon="5.40907">
        <ele>1405.2</ele>
        <time>2024-05-11T05:42:00.000Z</time>
      </trkpt>
      <trkpt lat="44.83094" lon="5.40908">
        <ele>1405.8</ele>
        <time>2024-05-11T05:42:02.000Z</time>
      </trkpt>
      <trkpt lat="44.83096" lon="5.40915">
        <ele>1408.2</ele>
        <time>2024-05-11T05:42:10.000Z</time>
      </trkpt>
      <trkpt lat="44.83096" lon="5.40919">
        <ele>1409.3</ele>
        <time>2024-05-11T05:42:16.000Z</time>
      </trkpt>
      <trkpt lat="44.83096" lon="5.40919">
        <ele>1409.4</ele>
        <time>2024-05-11T05:42:17.000Z</time>
      </trkpt>
      <trkpt lat="44.83095" lon="5.40921">
        <ele>1409.5</ele>
        <time>2024-05-11T05:42:22.000Z</time>
      </trkpt>
      <trkpt lat="44.83096" lon="5.40922">
        <ele>1409.9</ele>
        <time>2024-05-11T05:42:23.000Z</time>
      </trkpt>
      <trkpt lat="44.83096" lon="5.40925">
        <ele>1410.7</ele>
        <time>2024-05-11T05:42:29.000Z</time>
      </trkpt>
      <trkpt lat="44.83096" lon="5.40926">
        <ele>1410.9</ele>
        <time>2024-05-11T05:42:31.000Z</time>
      </trkpt>
      <trkpt lat="44.83097" lon="5.40928">
        <ele>1411.8</ele>
        <time>2024-05-11T05:42:36.000Z</time>
      </trkpt>
      <trkpt lat="44.83097" lon="5.40929">
        <ele>1412.3</ele>
        <time>2024-05-11T05:42:40.000Z</time>
      </trkpt>
      <trkpt lat="44.83099" lon="5.40933">
        <ele>1414.2</ele>
        <time>2024-05-11T05:42:43.000Z</time>
      </trkpt>
      <trkpt lat="44.831" lon="5.40933">
        <ele>1414.5</ele>
        <time>2024-05-11T05:42:46.000Z</time>
      </trkpt>
      <trkpt lat="44.83099" lon="5.40932">
        <ele>1414</ele>
        <time>2024-05-11T05:42:49.000Z</time>
      </trkpt>
      <trkpt lat="44.831" lon="5.40934">
        <ele>1414.8</ele>
        <time>2024-05-11T05:42:51.000Z</time>
      </trkpt>
      <trkpt lat="44.83101" lon="5.40936">
        <ele>1415.8</ele>
        <time>2024-05-11T05:42:56.000Z</time>
      </trkpt>
      <trkpt lat="44.83105" lon="5.4094">
        <ele>1418.5</ele>
        <time>2024-05-11T05:43:02.000Z</time>
      </trkpt>
      <trkpt lat="44.83105" lon="5.4094">
        <ele>1418.7</ele>
        <time>2024-05-11T05:43:03.000Z</time>
      </trkpt>
      <trkpt lat="44.83105" lon="5.40939">
        <ele>1418.3</ele>
        <time>2024-05-11T05:43:09.000Z</time>
      </trkpt>
      <trkpt lat="44.83105" lon="5.4094">
        <ele>1418.4</ele>
        <time>2024-05-11T05:43:10.000Z</time>
      </trkpt>
      <trkpt lat="44.83106" lon="5.40941">
        <ele>1419.5</ele>
        <time>2024-05-11T05:43:16.000Z</time>
      </trkpt>
      <trkpt lat="44.83109" lon="5.40946">
        <ele>1422.3</ele>
        <time>2024-05-11T05:43:23.000Z</time>
      </trkpt>
      <trkpt lat="44.83109" lon="5.40946">
        <ele>1422.3</ele>
        <time>2024-05-11T05:43:24.000Z</time>
      </trkpt>
      <trkpt lat="44.83108" lon="5.40946">
        <ele>1422.1</ele>
        <time>2024-05-11T05:43:30.000Z</time>
      </trkpt>
      <trkpt lat="44.83107" lon="5.40947">
        <ele>1422</ele>
        <time>2024-05-11T05:43:31.000Z</time>
      </trkpt>
      <trkpt lat="44.83108" lon="5.4095">
        <ele>1423.6</ele>
        <time>2024-05-11T05:43:38.000Z</time>
      </trkpt>
      <trkpt lat="44.83109" lon="5.4095">
        <ele>1423.7</ele>
        <time>2024-05-11T05:43:40.000Z</time>
      </trkpt>
      <trkpt lat="44.83109" lon="5.40951">
        <ele>1423.9</ele>
        <time>2024-05-11T05:43:45.000Z</time>
      </trkpt>
      <trkpt lat="44.83109" lon="5.4095">
        <ele>1423.8</ele>
        <time>2024-05-11T05:43:55.000Z</time>
      </trkpt>
      <trkpt lat="44.83112" lon="5.40956">
        <ele>1426.8</ele>
        <time>2024-05-11T05:44:09.000Z</time>
      </trkpt>
      <trkpt lat="44.83115" lon="5.40959">
        <ele>1428.3</ele>
        <time>2024-05-11T05:44:14.000Z</time>
      </trkpt>
      <trkpt lat="44.83115" lon="5.40959">
        <ele>1428.6</ele>
        <time>2024-05-11T05:44:15.000Z</time>
      </trkpt>
      <trkpt lat="44.83117" lon="5.40961">
        <ele>1429.7</ele>
        <time>2024-05-11T05:44:20.000Z</time>
      </trkpt>
      <trkpt lat="44.83117" lon="5.40962">
        <ele>1429.8</ele>
        <time>2024-05-11T05:44:21.000Z</time>
      </trkpt>
      <trkpt lat="44.8312" lon="5.40964">
        <ele>1430.9</ele>
        <time>2024-05-11T05:44:26.000Z</time>
      </trkpt>
      <trkpt lat="44.83121" lon="5.40966">
        <ele>1432.1</ele>
        <time>2024-05-11T05:44:27.000Z</time>
      </trkpt>
      <trkpt lat="44.83123" lon="5.40968">
        <ele>1433.2</ele>
        <time>2024-05-11T05:44:32.000Z</time>
      </trkpt>
      <trkpt lat="44.83124" lon="5.40968">
        <ele>1433.4</ele>
        <time>2024-05-11T05:44:33.000Z</time>
      </trkpt>
      <trkpt lat="44.83128" lon="5.40967">
        <ele>1433.8</ele>
        <time>2024-05-11T05:44:37.000Z</time>
      </trkpt>
      <trkpt lat="44.83128" lon="5.40966">
        <ele>1433.6</ele>
        <time>2024-05-11T05:44:38.000Z</time>
      </trkpt>
      <trkpt lat="44.83129" lon="5.40967">
        <ele>1434.1</ele>
        <time>2024-05-11T05:44:42.000Z</time>
      </trkpt>
      <trkpt lat="44.83132" lon="5.4097">
        <ele>1435.6</ele>
        <time>2024-05-11T05:44:47.000Z</time>
      </trkpt>
      <trkpt lat="44.83135" lon="5.4097">
        <ele>1436.6</ele>
        <time>2024-05-11T05:44:54.000Z</time>
      </trkpt>
      <trkpt lat="44.83136" lon="5.40971">
        <ele>1436.9</ele>
        <time>2024-05-11T05:44:57.000Z</time>
      </trkpt>
      <trkpt lat="44.83133" lon="5.40974">
        <ele>1437.3</ele>
        <time>2024-05-11T05:45:01.000Z</time>
      </trkpt>
      <trkpt lat="44.83131" lon="5.40975">
        <ele>1437.5</ele>
        <time>2024-05-11T05:45:05.000Z</time>
      </trkpt>
      <trkpt lat="44.8313" lon="5.40975">
        <ele>1437</ele>
        <time>2024-05-11T05:45:09.000Z</time>
      </trkpt>
      <trkpt lat="44.8313" lon="5.40974">
        <ele>1436.9</ele>
        <time>2024-05-11T05:45:13.000Z</time>
      </trkpt>
      <trkpt lat="44.8313" lon="5.40975">
        <ele>1436.9</ele>
        <time>2024-05-11T05:45:17.000Z</time>
      </trkpt>
      <trkpt lat="44.83129" lon="5.40974">
        <ele>1436.6</ele>
        <time>2024-05-11T05:45:18.000Z</time>
      </trkpt>
      <trkpt lat="44.83128" lon="5.40977">
        <ele>1437.4</ele>
        <time>2024-05-11T05:45:22.000Z</time>
      </trkpt>
      <trkpt lat="44.83128" lon="5.40978">
        <ele>1437.9</ele>
        <time>2024-05-11T05:45:23.000Z</time>
      </trkpt>
      <trkpt lat="44.83131" lon="5.40978">
        <ele>1438.3</ele>
        <time>2024-05-11T05:45:28.000Z</time>
      </trkpt>
      <trkpt lat="44.83133" lon="5.40983">
        <ele>1440.9</ele>
        <time>2024-05-11T05:45:34.000Z</time>
      </trkpt>
      <trkpt lat="44.83136" lon="5.40984">
        <ele>1441.8</ele>
        <time>2024-05-11T05:45:38.000Z</time>
      </trkpt>
      <trkpt lat="44.83138" lon="5.40986">
        <ele>1443.2</ele>
        <time>2024-05-11T05:45:41.000Z</time>
      </trkpt>
      <trkpt lat="44.83145" lon="5.40993">
        <ele>1446.6</ele>
        <time>2024-05-11T05:45:49.000Z</time>
      </trkpt>
      <trkpt lat="44.83149" lon="5.40995">
        <ele>1447.6</ele>
        <time>2024-05-11T05:45:55.000Z</time>
      </trkpt>
      <trkpt lat="44.83151" lon="5.40992">
        <ele>1446.9</ele>
        <time>2024-05-11T05:45:57.000Z</time>
      </trkpt>
      <trkpt lat="44.83148" lon="5.40995">
        <ele>1447.6</ele>
        <time>2024-05-11T05:46:01.000Z</time>
      </trkpt>
      <trkpt lat="44.83148" lon="5.40998">
        <ele>1448.8</ele>
        <time>2024-05-11T05:46:05.000Z</time>
      </trkpt>
      <trkpt lat="44.83149" lon="5.40999">
        <ele>1449.4</ele>
        <time>2024-05-11T05:46:08.000Z</time>
      </trkpt>
      <trkpt lat="44.8315" lon="5.41001">
        <ele>1450</ele>
        <time>2024-05-11T05:46:11.000Z</time>
      </trkpt>
      <trkpt lat="44.8315" lon="5.41003">
        <ele>1450.7</ele>
        <time>2024-05-11T05:46:14.000Z</time>
      </trkpt>
      <trkpt lat="44.83151" lon="5.41004">
        <ele>1451.1</ele>
        <time>2024-05-11T05:46:17.000Z</time>
      </trkpt>
      <trkpt lat="44.83152" lon="5.41003">
        <ele>1451.2</ele>
        <time>2024-05-11T05:46:19.000Z</time>
      </trkpt>
      <trkpt lat="44.83155" lon="5.41006">
        <ele>1452.1</ele>
        <time>2024-05-11T05:46:24.000Z</time>
      </trkpt>
      <trkpt lat="44.83155" lon="5.41006">
        <ele>1452.1</ele>
        <time>2024-05-11T05:46:26.000Z</time>
      </trkpt>
      <trkpt lat="44.83154" lon="5.41008">
        <ele>1453.1</ele>
        <time>2024-05-11T05:46:31.000Z</time>
      </trkpt>
      <trkpt lat="44.83154" lon="5.4101">
        <ele>1453.6</ele>
        <time>2024-05-11T05:46:33.000Z</time>
      </trkpt>
      <trkpt lat="44.83155" lon="5.41015">
        <ele>1455.7</ele>
        <time>2024-05-11T05:46:40.000Z</time>
      </trkpt>
      <trkpt lat="44.83156" lon="5.41016">
        <ele>1455.9</ele>
        <time>2024-05-11T05:46:41.000Z</time>
      </trkpt>
      <trkpt lat="44.83158" lon="5.41017">
        <ele>1456.6</ele>
        <time>2024-05-11T05:46:46.000Z</time>
      </trkpt>
      <trkpt lat="44.83158" lon="5.41017">
        <ele>1456.5</ele>
        <time>2024-05-11T05:46:47.000Z</time>
      </trkpt>
      <trkpt lat="44.83162" lon="5.41017">
        <ele>1456.6</ele>
        <time>2024-05-11T05:46:52.000Z</time>
      </trkpt>
      <trkpt lat="44.83162" lon="5.41016">
        <ele>1456.5</ele>
        <time>2024-05-11T05:46:53.000Z</time>
      </trkpt>
      <trkpt lat="44.83169" lon="5.41017">
        <ele>1457.2</ele>
        <time>2024-05-11T05:47:00.000Z</time>
      </trkpt>
      <trkpt lat="44.83172" lon="5.41015">
        <ele>1456.5</ele>
        <time>2024-05-11T05:47:04.000Z</time>
      </trkpt>
      <trkpt lat="44.83174" lon="5.41015">
        <ele>1456.8</ele>
        <time>2024-05-11T05:47:07.000Z</time>
      </trkpt>
      <trkpt lat="44.83179" lon="5.41017">
        <ele>1457.6</ele>
        <time>2024-05-11T05:47:13.000Z</time>
      </trkpt>
      <trkpt lat="44.83178" lon="5.4102">
        <ele>1458.7</ele>
        <time>2024-05-11T05:47:17.000Z</time>
      </trkpt>
      <trkpt lat="44.83178" lon="5.41021">
        <ele>1459</ele>
        <time>2024-05-11T05:47:19.000Z</time>
      </trkpt>
      <trkpt lat="44.83178" lon="5.41027">
        <ele>1461</ele>
        <time>2024-05-11T05:47:26.000Z</time>
      </trkpt>
      <trkpt lat="44.8318" lon="5.4103">
        <ele>1462.5</ele>
        <time>2024-05-11T05:47:33.000Z</time>
      </trkpt>
      <trkpt lat="44.83181" lon="5.4103">
        <ele>1462.4</ele>
        <time>2024-05-11T05:47:37.000Z</time>
      </trkpt>
      <trkpt lat="44.83182" lon="5.41031">
        <ele>1462.7</ele>
        <time>2024-05-11T05:47:39.000Z</time>
      </trkpt>
      <trkpt lat="44.83184" lon="5.41029">
        <ele>1462</ele>
        <time>2024-05-11T05:47:43.000Z</time>
      </trkpt>
      <trkpt lat="44.83186" lon="5.41032">
        <ele>1463.3</ele>
        <time>2024-05-11T05:47:47.000Z</time>
      </trkpt>
      <trkpt lat="44.83189" lon="5.41034">
        <ele>1464.2</ele>
        <time>2024-05-11T05:47:50.000Z</time>
      </trkpt>
      <trkpt lat="44.83192" lon="5.41035">
        <ele>1464.6</ele>
        <time>2024-05-11T05:47:52.000Z</time>
      </trkpt>
      <trkpt lat="44.83188" lon="5.41038">
        <ele>1465.5</ele>
        <time>2024-05-11T05:47:57.000Z</time>
      </trkpt>
      <trkpt lat="44.83186" lon="5.4104">
        <ele>1466.1</ele>
        <time>2024-05-11T05:47:59.000Z</time>
      </trkpt>
      <trkpt lat="44.83186" lon="5.4104">
        <ele>1466.2</ele>
        <time>2024-05-11T05:48:03.000Z</time>
      </trkpt>
      <trkpt lat="44.83185" lon="5.4104">
        <ele>1466.2</ele>
        <time>2024-05-11T05:48:06.000Z</time>
      </trkpt>
      <trkpt lat="44.83183" lon="5.4104">
        <ele>1466.3</ele>
        <time>2024-05-11T05:48:11.000Z</time>
      </trkpt>
      <trkpt lat="44.83182" lon="5.41041">
        <ele>1466.6</ele>
        <time>2024-05-11T05:48:15.000Z</time>
      </trkpt>
      <trkpt lat="44.8318" lon="5.41042">
        <ele>1466.8</ele>
        <time>2024-05-11T05:48:17.000Z</time>
      </trkpt>
      <trkpt lat="44.83179" lon="5.41045">
        <ele>1468.1</ele>
        <time>2024-05-11T05:48:22.000Z</time>
      </trkpt>
      <trkpt lat="44.83178" lon="5.41045">
        <ele>1468</ele>
        <time>2024-05-11T05:48:23.000Z</time>
      </trkpt>
      <trkpt lat="44.8318" lon="5.41047">
        <ele>1468.6</ele>
        <time>2024-05-11T05:48:29.000Z</time>
      </trkpt>
      <trkpt lat="44.8318" lon="5.41048">
        <ele>1469</ele>
        <time>2024-05-11T05:48:31.000Z</time>
      </trkpt>
      <trkpt lat="44.83181" lon="5.41051">
        <ele>1470.2</ele>
        <time>2024-05-11T05:48:33.000Z</time>
      </trkpt>
      <trkpt lat="44.83181" lon="5.41052">
        <ele>1470.5</ele>
        <time>2024-05-11T05:48:34.000Z</time>
      </trkpt>
      <trkpt lat="44.83181" lon="5.41051">
        <ele>1470.3</ele>
        <time>2024-05-11T05:48:39.000Z</time>
      </trkpt>
      <trkpt lat="44.83183" lon="5.41052">
        <ele>1470.5</ele>
        <time>2024-05-11T05:48:40.000Z</time>
      </trkpt>
      <trkpt lat="44.83187" lon="5.41054">
        <ele>1471.4</ele>
        <time>2024-05-11T05:48:45.000Z</time>
      </trkpt>
      <trkpt lat="44.83189" lon="5.41054">
        <ele>1471.4</ele>
        <time>2024-05-11T05:48:47.000Z</time>
      </trkpt>
      <trkpt lat="44.83192" lon="5.41056">
        <ele>1472.2</ele>
        <time>2024-05-11T05:48:50.000Z</time>
      </trkpt>
      <trkpt lat="44.83191" lon="5.41058">
        <ele>1473</ele>
        <time>2024-05-11T05:48:54.000Z</time>
      </trkpt>
      <trkpt lat="44.83189" lon="5.41057">
        <ele>1472.3</ele>
        <time>2024-05-11T05:48:56.000Z</time>
      </trkpt>
      <trkpt lat="44.83188" lon="5.41058">
        <ele>1472.8</ele>
        <time>2024-05-11T05:49:02.000Z</time>
      </trkpt>
      <trkpt lat="44.83188" lon="5.41058">
        <ele>1472.8</ele>
        <time>2024-05-11T05:49:03.000Z</time>
      </trkpt>
      <trkpt lat="44.83188" lon="5.41058">
        <ele>1472.8</ele>
        <time>2024-05-11T05:49:10.000Z</time>
      </trkpt>
      <trkpt lat="44.83186" lon="5.41059">
        <ele>1473.3</ele>
        <time>2024-05-11T05:49:17.000Z</time>
      </trkpt>
      <trkpt lat="44.83182" lon="5.41064">
        <ele>1474.9</ele>
        <time>2024-05-11T05:49:21.000Z</time>
      </trkpt>
      <trkpt lat="44.83179" lon="5.41069">
        <ele>1476.8</ele>
        <time>2024-05-11T05:49:25.000Z</time>
      </trkpt>
      <trkpt lat="44.83178" lon="5.41071">
        <ele>1477.5</ele>
        <time>2024-05-11T05:49:27.000Z</time>
      </trkpt>
      <trkpt lat="44.83181" lon="5.41073">
        <ele>1478.2</ele>
        <time>2024-05-11T05:49:32.000Z</time>
      </trkpt>
      <trkpt lat="44.83181" lon="5.41074">
        <ele>1478.5</ele>
        <time>2024-05-11T05:49:35.000Z</time>
      </trkpt>
      <trkpt lat="44.83181" lon="5.41073">
        <ele>1478.1</ele>
        <time>2024-05-11T05:49:40.000Z</time>
      </trkpt>
      <trkpt lat="44.8318" lon="5.41072">
        <ele>1478</ele>
        <time>2024-05-11T05:49:42.000Z</time>
      </trkpt>
      <trkpt lat="44.83178" lon="5.41073">
        <ele>1478.4</ele>
        <time>2024-05-11T05:49:48.000Z</time>
      </trkpt>
      <trkpt lat="44.83178" lon="5.41074">
        <ele>1478.8</ele>
        <time>2024-05-11T05:49:49.000Z</time>
      </trkpt>
      <trkpt lat="44.83176" lon="5.41078">
        <ele>1480.1</ele>
        <time>2024-05-11T05:49:55.000Z</time>
      </trkpt>
      <trkpt lat="44.83176" lon="5.41079">
        <ele>1480.3</ele>
        <time>2024-05-11T05:49:56.000Z</time>
      </trkpt>
      <trkpt lat="44.83173" lon="5.41081">
        <ele>1481.1</ele>
        <time>2024-05-11T05:50:01.000Z</time>
      </trkpt>
      <trkpt lat="44.83173" lon="5.41081">
        <ele>1481</ele>
        <time>2024-05-11T05:50:02.000Z</time>
      </trkpt>
      <trkpt lat="44.83173" lon="5.4108">
        <ele>1480.8</ele>
        <time>2024-05-11T05:50:08.000Z</time>
      </trkpt>
      <trkpt lat="44.83172" lon="5.4108">
        <ele>1480.9</ele>
        <time>2024-05-11T05:50:16.000Z</time>
      </trkpt>
      <trkpt lat="44.83171" lon="5.41081">
        <ele>1481.3</ele>
        <time>2024-05-11T05:50:23.000Z</time>
      </trkpt>
      <trkpt lat="44.83172" lon="5.41082">
        <ele>1481.6</ele>
        <time>2024-05-11T05:50:36.000Z</time>
      </trkpt>
      <trkpt lat="44.83172" lon="5.41083">
        <ele>1482</ele>
        <time>2024-05-11T05:50:48.000Z</time>
      </trkpt>
      <trkpt lat="44.83177" lon="5.41087">
        <ele>1483.5</ele>
        <time>2024-05-11T05:50:52.000Z</time>
      </trkpt>
      <trkpt lat="44.8318" lon="5.41091">
        <ele>1485</ele>
        <time>2024-05-11T05:50:55.000Z</time>
      </trkpt>
      <trkpt lat="44.83185" lon="5.41092">
        <ele>1485.4</ele>
        <time>2024-05-11T05:51:00.000Z</time>
      </trkpt>
      <trkpt lat="44.83191" lon="5.41098">
        <ele>1487.9</ele>
        <time>2024-05-11T05:51:06.000Z</time>
      </trkpt>
      <trkpt lat="44.83193" lon="5.41099">
        <ele>1488.1</ele>
        <time>2024-05-11T05:51:09.000Z</time>
      </trkpt>
      <trkpt lat="44.83198" lon="5.41101">
        <ele>1489.1</ele>
        <time>2024-05-11T05:51:15.000Z</time>
      </trkpt>
      <trkpt lat="44.83199" lon="5.41102">
        <ele>1489.5</ele>
        <time>2024-05-11T05:51:17.000Z</time>
      </trkpt>
      <trkpt lat="44.83203" lon="5.41105">
        <ele>1490.8</ele>
        <time>2024-05-11T05:51:24.000Z</time>
      </trkpt>
      <trkpt lat="44.83206" lon="5.41107">
        <ele>1491.2</ele>
        <time>2024-05-11T05:51:30.000Z</time>
      </trkpt>
      <trkpt lat="44.83207" lon="5.41107">
        <ele>1491.5</ele>
        <time>2024-05-11T05:51:31.000Z</time>
      </trkpt>
      <trkpt lat="44.83209" lon="5.41109">
        <ele>1492.3</ele>
        <time>2024-05-11T05:51:36.000Z</time>
      </trkpt>
      <trkpt lat="44.83215" lon="5.41109">
        <ele>1492.3</ele>
        <time>2024-05-11T05:51:43.000Z</time>
      </trkpt>
      <trkpt lat="44.8322" lon="5.41106">
        <ele>1491.1</ele>
        <time>2024-05-11T05:51:50.000Z</time>
      </trkpt>
      <trkpt lat="44.83227" lon="5.41106">
        <ele>1490.9</ele>
        <time>2024-05-11T05:51:57.000Z</time>
      </trkpt>
      <trkpt lat="44.83227" lon="5.41114">
        <ele>1493.9</ele>
        <time>2024-05-11T05:52:04.000Z</time>
      </trkpt>
      <trkpt lat="44.83226" lon="5.41112">
        <ele>1493.2</ele>
        <time>2024-05-11T05:52:05.000Z</time>
      </trkpt>
      <trkpt lat="44.83227" lon="5.41113">
        <ele>1493.5</ele>
        <time>2024-05-11T05:52:09.000Z</time>
      </trkpt>
      <trkpt lat="44.83229" lon="5.41116">
        <ele>1494.5</ele>
        <time>2024-05-11T05:52:14.000Z</time>
      </trkpt>
      <trkpt lat="44.83229" lon="5.41117">
        <ele>1494.8</ele>
        <time>2024-05-11T05:52:16.000Z</time>
      </trkpt>
      <trkpt lat="44.8323" lon="5.41117">
        <ele>1495</ele>
        <time>2024-05-11T05:52:18.000Z</time>
      </trkpt>
      <trkpt lat="44.83232" lon="5.41118">
        <ele>1495.1</ele>
        <time>2024-05-11T05:52:21.000Z</time>
      </trkpt>
      <trkpt lat="44.83234" lon="5.41119">
        <ele>1495.4</ele>
        <time>2024-05-11T05:52:24.000Z</time>
      </trkpt>
      <trkpt lat="44.83237" lon="5.41121">
        <ele>1496.1</ele>
        <time>2024-05-11T05:52:28.000Z</time>
      </trkpt>
      <trkpt lat="44.83238" lon="5.41123">
        <ele>1496.6</ele>
        <time>2024-05-11T05:52:30.000Z</time>
      </trkpt>
      <trkpt lat="44.83239" lon="5.41125">
        <ele>1497.5</ele>
        <time>2024-05-11T05:52:33.000Z</time>
      </trkpt>
      <trkpt lat="44.83241" lon="5.41129">
        <ele>1498.7</ele>
        <time>2024-05-11T05:52:38.000Z</time>
      </trkpt>
      <trkpt lat="44.83248" lon="5.41135">
        <ele>1500.7</ele>
        <time>2024-05-11T05:52:45.000Z</time>
      </trkpt>
      <trkpt lat="44.83249" lon="5.41136">
        <ele>1501</ele>
        <time>2024-05-11T05:52:46.000Z</time>
      </trkpt>
      <trkpt lat="44.83252" lon="5.41139">
        <ele>1502.2</ele>
        <time>2024-05-11T05:52:53.000Z</time>
      </trkpt>
      <trkpt lat="44.83255" lon="5.41143">
        <ele>1503.1</ele>
        <time>2024-05-11T05:52:58.000Z</time>
      </trkpt>
      <trkpt lat="44.83256" lon="5.41146">
        <ele>1504.3</ele>
        <time>2024-05-11T05:53:04.000Z</time>
      </trkpt>
      <trkpt lat="44.83256" lon="5.41148">
        <ele>1504.9</ele>
        <time>2024-05-11T05:53:08.000Z</time>
      </trkpt>
      <trkpt lat="44.83255" lon="5.41149">
        <ele>1505.2</ele>
        <time>2024-05-11T05:53:10.000Z</time>
      </trkpt>
      <trkpt lat="44.83256" lon="5.41151">
        <ele>1505.9</ele>
        <time>2024-05-11T05:53:15.000Z</time>
      </trkpt>
      <trkpt lat="44.83256" lon="5.41151">
        <ele>1505.9</ele>
        <time>2024-05-11T05:53:17.000Z</time>
      </trkpt>
      <trkpt lat="44.83256" lon="5.41151">
        <ele>1505.9</ele>
        <time>2024-05-11T05:53:20.000Z</time>
      </trkpt>
      <trkpt lat="44.83256" lon="5.41151">
        <ele>1505.9</ele>
        <time>2024-05-11T05:53:29.000Z</time>
      </trkpt>
      <trkpt lat="44.83258" lon="5.41161">
        <ele>1508.7</ele>
        <time>2024-05-11T05:53:37.000Z</time>
      </trkpt>
      <trkpt lat="44.83259" lon="5.41165">
        <ele>1509.7</ele>
        <time>2024-05-11T05:53:39.000Z</time>
      </trkpt>
      <trkpt lat="44.8326" lon="5.41169">
        <ele>1510.6</ele>
        <time>2024-05-11T05:53:43.000Z</time>
      </trkpt>
      <trkpt lat="44.83262" lon="5.41172">
        <ele>1511.2</ele>
        <time>2024-05-11T05:53:47.000Z</time>
      </trkpt>
      <trkpt lat="44.83263" lon="5.41174">
        <ele>1511.4</ele>
        <time>2024-05-11T05:53:50.000Z</time>
      </trkpt>
      <trkpt lat="44.83263" lon="5.41178">
        <ele>1512.3</ele>
        <time>2024-05-11T05:53:56.000Z</time>
      </trkpt>
      <trkpt lat="44.8326" lon="5.41179">
        <ele>1512.9</ele>
        <time>2024-05-11T05:54:02.000Z</time>
      </trkpt>
      <trkpt lat="44.83259" lon="5.4118">
        <ele>1513</ele>
        <time>2024-05-11T05:54:03.000Z</time>
      </trkpt>
      <trkpt lat="44.83257" lon="5.41181">
        <ele>1513.4</ele>
        <time>2024-05-11T05:54:08.000Z</time>
      </trkpt>
      <trkpt lat="44.83255" lon="5.41178">
        <ele>1513.1</ele>
        <time>2024-05-11T05:54:16.000Z</time>
      </trkpt>
      <trkpt lat="44.83253" lon="5.4118">
        <ele>1513.6</ele>
        <time>2024-05-11T05:54:22.000Z</time>
      </trkpt>
      <trkpt lat="44.83254" lon="5.41181">
        <ele>1513.7</ele>
        <time>2024-05-11T05:54:23.000Z</time>
      </trkpt>
      <trkpt lat="44.83254" lon="5.41183">
        <ele>1514</ele>
        <time>2024-05-11T05:54:25.000Z</time>
      </trkpt>
      <trkpt lat="44.83256" lon="5.41185">
        <ele>1514.5</ele>
        <time>2024-05-11T05:54:29.000Z</time>
      </trkpt>
      <trkpt lat="44.83257" lon="5.41187">
        <ele>1514.8</ele>
        <time>2024-05-11T05:54:33.000Z</time>
      </trkpt>
      <trkpt lat="44.83257" lon="5.41189">
        <ele>1515.1</ele>
        <time>2024-05-11T05:54:35.000Z</time>
      </trkpt>
      <trkpt lat="44.8326" lon="5.41193">
        <ele>1515.7</ele>
        <time>2024-05-11T05:54:43.000Z</time>
      </trkpt>
      <trkpt lat="44.8326" lon="5.41195">
        <ele>1515.9</ele>
        <time>2024-05-11T05:54:47.000Z</time>
      </trkpt>
      <trkpt lat="44.8326" lon="5.41199">
        <ele>1516.1</ele>
        <time>2024-05-11T05:54:50.000Z</time>
      </trkpt>
      <trkpt lat="44.8326" lon="5.41203">
        <ele>1516.3</ele>
        <time>2024-05-11T05:54:55.000Z</time>
      </trkpt>
      <trkpt lat="44.83259" lon="5.41204">
        <ele>1516.3</ele>
        <time>2024-05-11T05:54:56.000Z</time>
      </trkpt>
      <trkpt lat="44.83259" lon="5.41206">
        <ele>1516.4</ele>
        <time>2024-05-11T05:55:00.000Z</time>
      </trkpt>
      <trkpt lat="44.83259" lon="5.41207">
        <ele>1516.4</ele>
        <time>2024-05-11T05:55:02.000Z</time>
      </trkpt>
      <trkpt lat="44.83259" lon="5.41208">
        <ele>1516.5</ele>
        <time>2024-05-11T05:55:05.000Z</time>
      </trkpt>
      <trkpt lat="44.8326" lon="5.41211">
        <ele>1516.5</ele>
        <time>2024-05-11T05:55:09.000Z</time>
      </trkpt>
      <trkpt lat="44.83259" lon="5.41216">
        <ele>1516.8</ele>
        <time>2024-05-11T05:55:14.000Z</time>
      </trkpt>
      <trkpt lat="44.83259" lon="5.41218">
        <ele>1516.9</ele>
        <time>2024-05-11T05:55:16.000Z</time>
      </trkpt>
      <trkpt lat="44.83259" lon="5.41219">
        <ele>1516.9</ele>
        <time>2024-05-11T05:55:21.000Z</time>
      </trkpt>
      <trkpt lat="44.8326" lon="5.41218">
        <ele>1516.8</ele>
        <time>2024-05-11T05:55:24.000Z</time>
      </trkpt>
      <trkpt lat="44.8326" lon="5.41218">
        <ele>1516.8</ele>
        <time>2024-05-11T05:55:29.000Z</time>
      </trkpt>
      <trkpt lat="44.8326" lon="5.41218">
        <ele>1516.8</ele>
        <time>2024-05-11T05:55:35.000Z</time>
      </trkpt>
      <trkpt lat="44.83257" lon="5.41219">
        <ele>1517.2</ele>
        <time>2024-05-11T05:55:45.000Z</time>
      </trkpt>
      <trkpt lat="44.8325" lon="5.4122">
        <ele>1517.9</ele>
        <time>2024-05-11T05:55:52.000Z</time>
      </trkpt>
      <trkpt lat="44.83246" lon="5.41219">
        <ele>1518.7</ele>
        <time>2024-05-11T05:55:58.000Z</time>
      </trkpt>
      <trkpt lat="44.83242" lon="5.4122">
        <ele>1519.7</ele>
        <time>2024-05-11T05:56:04.000Z</time>
      </trkpt>
      <trkpt lat="44.8324" lon="5.4122">
        <ele>1519.9</ele>
        <time>2024-05-11T05:56:05.000Z</time>
      </trkpt>
      <trkpt lat="44.83239" lon="5.4122">
        <ele>1520.2</ele>
        <time>2024-05-11T05:56:07.000Z</time>
      </trkpt>
      <trkpt lat="44.83239" lon="5.41219">
        <ele>1520.3</ele>
        <time>2024-05-11T05:56:08.000Z</time>
      </trkpt>
      <trkpt lat="44.83238" lon="5.41219">
        <ele>1520.4</ele>
        <time>2024-05-11T05:56:09.000Z</time>
      </trkpt>
      <trkpt lat="44.83235" lon="5.41218">
        <ele>1521</ele>
        <time>2024-05-11T05:56:14.000Z</time>
      </trkpt>
      <trkpt lat="44.83233" lon="5.41218">
        <ele>1521.3</ele>
        <time>2024-05-11T05:56:16.000Z</time>
      </trkpt>
      <trkpt lat="44.83232" lon="5.41216">
        <ele>1521.5</ele>
        <time>2024-05-11T05:56:20.000Z</time>
      </trkpt>
      <trkpt lat="44.8323" lon="5.41215">
        <ele>1521.9</ele>
        <time>2024-05-11T05:56:24.000Z</time>
      </trkpt>
      <trkpt lat="44.83229" lon="5.41215">
        <ele>1522.1</ele>
        <time>2024-05-11T05:56:26.000Z</time>
      </trkpt>
      <trkpt lat="44.83226" lon="5.41214">
        <ele>1522.7</ele>
        <time>2024-05-11T05:56:31.000Z</time>
      </trkpt>
      <trkpt lat="44.83226" lon="5.41214">
        <ele>1522.7</ele>
        <time>2024-05-11T05:56:32.000Z</time>
      </trkpt>
      <trkpt lat="44.83225" lon="5.41214">
        <ele>1522.8</ele>
        <time>2024-05-11T05:56:33.000Z</time>
      </trkpt>
      <trkpt lat="44.83225" lon="5.41213">
        <ele>1522.9</ele>
        <time>2024-05-11T05:56:37.000Z</time>
      </trkpt>
      <trkpt lat="44.83224" lon="5.41213">
        <ele>1522.9</ele>
        <time>2024-05-11T05:56:38.000Z</time>
      </trkpt>
      <trkpt lat="44.83222" lon="5.41211">
        <ele>1523.2</ele>
        <time>2024-05-11T05:56:43.000Z</time>
      </trkpt>
      <trkpt lat="44.83221" lon="5.41211">
        <ele>1523.4</ele>
        <time>2024-05-11T05:56:45.000Z</time>
      </trkpt>
      <trkpt lat="44.83219" lon="5.41212">
        <ele>1523.8</ele>
        <time>2024-05-11T05:56:50.000Z</time>
      </trkpt>
      <trkpt lat="44.83216" lon="5.41214">
        <ele>1524.5</ele>
        <time>2024-05-11T05:56:55.000Z</time>
      </trkpt>
      <trkpt lat="44.83214" lon="5.41213">
        <ele>1524.8</ele>
        <time>2024-05-11T05:56:58.000Z</time>
      </trkpt>
      <trkpt lat="44.83211" lon="5.41214">
        <ele>1525.3</ele>
        <time>2024-05-11T05:57:03.000Z</time>
      </trkpt>
      <trkpt lat="44.8321" lon="5.41214">
        <ele>1525.4</ele>
        <time>2024-05-11T05:57:05.000Z</time>
      </trkpt>
      <trkpt lat="44.83208" lon="5.41216">
        <ele>1526</ele>
        <time>2024-05-11T05:57:08.000Z</time>
      </trkpt>
      <trkpt lat="44.83207" lon="5.41217">
        <ele>1526.2</ele>
        <time>2024-05-11T05:57:09.000Z</time>
      </trkpt>
      <trkpt lat="44.83206" lon="5.41217">
        <ele>1526.5</ele>
        <time>2024-05-11T05:57:13.000Z</time>
      </trkpt>
      <trkpt lat="44.83203" lon="5.41219">
        <ele>1527</ele>
        <time>2024-05-11T05:57:17.000Z</time>
      </trkpt>
      <trkpt lat="44.832" lon="5.41222">
        <ele>1528</ele>
        <time>2024-05-11T05:57:24.000Z</time>
      </trkpt>
      <trkpt lat="44.83198" lon="5.41222">
        <ele>1528.3</ele>
        <time>2024-05-11T05:57:28.000Z</time>
      </trkpt>
      <trkpt lat="44.83194" lon="5.41222">
        <ele>1528.9</ele>
        <time>2024-05-11T05:57:33.000Z</time>
      </trkpt>
      <trkpt lat="44.83193" lon="5.4122">
        <ele>1528.5</ele>
        <time>2024-05-11T05:57:35.000Z</time>
      </trkpt>
      <trkpt lat="44.83192" lon="5.41219">
        <ele>1528.1</ele>
        <time>2024-05-11T05:57:36.000Z</time>
      </trkpt>
      <trkpt lat="44.83188" lon="5.41216">
        <ele>1526.8</ele>
        <time>2024-05-11T05:57:40.000Z</time>
      </trkpt>
      <trkpt lat="44.83185" lon="5.41215">
        <ele>1526.3</ele>
        <time>2024-05-11T05:57:43.000Z</time>
      </trkpt>
      <trkpt lat="44.83185" lon="5.41215">
        <ele>1526.2</ele>
        <time>2024-05-11T05:57:45.000Z</time>
      </trkpt>
      <trkpt lat="44.83184" lon="5.41216">
        <ele>1526</ele>
        <time>2024-05-11T05:57:52.000Z</time>
      </trkpt>
      <trkpt lat="44.83185" lon="5.41219">
        <ele>1526.4</ele>
        <time>2024-05-11T05:58:02.000Z</time>
      </trkpt>
      <trkpt lat="44.83184" lon="5.41219">
        <ele>1526.1</ele>
        <time>2024-05-11T05:58:22.000Z</time>
      </trkpt>
      <trkpt lat="44.83183" lon="5.41219">
        <ele>1525.9</ele>
        <time>2024-05-11T05:58:43.000Z</time>
      </trkpt>
      <trkpt lat="44.83182" lon="5.41218">
        <ele>1525.8</ele>
        <time>2024-05-11T05:59:13.000Z</time>
      </trkpt>
      <trkpt lat="44.83183" lon="5.41219">
        <ele>1526</ele>
        <time>2024-05-11T05:59:41.000Z</time>
      </trkpt>
      <trkpt lat="44.83183" lon="5.4122">
        <ele>1526</ele>
        <time>2024-05-11T06:00:12.000Z</time>
      </trkpt>
      <trkpt lat="44.83183" lon="5.4122">
        <ele>1526</ele>
        <time>2024-05-11T06:00:56.000Z</time>
      </trkpt>
      <trkpt lat="44.83182" lon="5.41219">
        <ele>1525.7</ele>
        <time>2024-05-11T06:03:17.000Z</time>
      </trkpt>
      <trkpt lat="44.83183" lon="5.41224">
        <ele>1525.8</ele>
        <time>2024-05-11T06:06:20.000Z</time>
      </trkpt>
      <trkpt lat="44.83183" lon="5.41224">
        <ele>1525.8</ele>
        <time>2024-05-11T06:06:35.000Z</time>
      </trkpt>
      <trkpt lat="44.83184" lon="5.4122">
        <ele>1526.1</ele>
        <time>2024-05-11T06:07:29.000Z</time>
      </trkpt>
      <trkpt lat="44.83184" lon="5.4122">
        <ele>1526.2</ele>
        <time>2024-05-11T06:07:32.000Z</time>
      </trkpt>
      <trkpt lat="44.83184" lon="5.41219">
        <ele>1526.2</ele>
        <time>2024-05-11T06:07:41.000Z</time>
      </trkpt>
      <trkpt lat="44.83186" lon="5.41219">
        <ele>1526.6</ele>
        <time>2024-05-11T06:07:59.000Z</time>
      </trkpt>
      <trkpt lat="44.83188" lon="5.4122">
        <ele>1527.2</ele>
        <time>2024-05-11T06:08:09.000Z</time>
      </trkpt>
      <trkpt lat="44.8319" lon="5.41222">
        <ele>1527.9</ele>
        <time>2024-05-11T06:08:13.000Z</time>
      </trkpt>
      <trkpt lat="44.83191" lon="5.41223">
        <ele>1528</ele>
        <time>2024-05-11T06:08:14.000Z</time>
      </trkpt>
      <trkpt lat="44.83193" lon="5.41226">
        <ele>1527.8</ele>
        <time>2024-05-11T06:08:20.000Z</time>
      </trkpt>
      <trkpt lat="44.83193" lon="5.41232">
        <ele>1526.8</ele>
        <time>2024-05-11T06:08:29.000Z</time>
      </trkpt>
      <trkpt lat="44.83192" lon="5.41238">
        <ele>1525.4</ele>
        <time>2024-05-11T06:08:37.000Z</time>
      </trkpt>
      <trkpt lat="44.83192" lon="5.41239">
        <ele>1525.1</ele>
        <time>2024-05-11T06:08:40.000Z</time>
      </trkpt>
      <trkpt lat="44.83192" lon="5.41245">
        <ele>1524.2</ele>
        <time>2024-05-11T06:08:46.000Z</time>
      </trkpt>
      <trkpt lat="44.83193" lon="5.4125">
        <ele>1523.6</ele>
        <time>2024-05-11T06:08:52.000Z</time>
      </trkpt>
      <trkpt lat="44.83194" lon="5.41255">
        <ele>1522.8</ele>
        <time>2024-05-11T06:08:59.000Z</time>
      </trkpt>
      <trkpt lat="44.83194" lon="5.41256">
        <ele>1522.8</ele>
        <time>2024-05-11T06:09:01.000Z</time>
      </trkpt>
      <trkpt lat="44.83195" lon="5.41258">
        <ele>1522.2</ele>
        <time>2024-05-11T06:09:04.000Z</time>
      </trkpt>
      <trkpt lat="44.83195" lon="5.4126">
        <ele>1521.8</ele>
        <time>2024-05-11T06:09:08.000Z</time>
      </trkpt>
      <trkpt lat="44.83195" lon="5.41262">
        <ele>1521.4</ele>
        <time>2024-05-11T06:09:10.000Z</time>
      </trkpt>
      <trkpt lat="44.83197" lon="5.41268">
        <ele>1520</ele>
        <time>2024-05-11T06:09:17.000Z</time>
      </trkpt>
      <trkpt lat="44.83199" lon="5.41276">
        <ele>1518.2</ele>
        <time>2024-05-11T06:09:25.000Z</time>
      </trkpt>
      <trkpt lat="44.832" lon="5.41282">
        <ele>1517.4</ele>
        <time>2024-05-11T06:09:30.000Z</time>
      </trkpt>
      <trkpt lat="44.832" lon="5.41283">
        <ele>1517.2</ele>
        <time>2024-05-11T06:09:31.000Z</time>
      </trkpt>
      <trkpt lat="44.832" lon="5.41285">
        <ele>1517</ele>
        <time>2024-05-11T06:09:33.000Z</time>
      </trkpt>
      <trkpt lat="44.832" lon="5.41289">
        <ele>1516.7</ele>
        <time>2024-05-11T06:09:36.000Z</time>
      </trkpt>
      <trkpt lat="44.832" lon="5.41292">
        <ele>1516.4</ele>
        <time>2024-05-11T06:09:39.000Z</time>
      </trkpt>
      <trkpt lat="44.832" lon="5.41295">
        <ele>1516.1</ele>
        <time>2024-05-11T06:09:41.000Z</time>
      </trkpt>
      <trkpt lat="44.83199" lon="5.41297">
        <ele>1515.8</ele>
        <time>2024-05-11T06:09:43.000Z</time>
      </trkpt>
      <trkpt lat="44.832" lon="5.41307">
        <ele>1515.1</ele>
        <time>2024-05-11T06:09:51.000Z</time>
      </trkpt>
      <trkpt lat="44.83199" lon="5.41319">
        <ele>1515.7</ele>
        <time>2024-05-11T06:09:58.000Z</time>
      </trkpt>
      <trkpt lat="44.83198" lon="5.41323">
        <ele>1516</ele>
        <time>2024-05-11T06:10:02.000Z</time>
      </trkpt>
      <trkpt lat="44.83197" lon="5.41325">
        <ele>1516.2</ele>
        <time>2024-05-11T06:10:04.000Z</time>
      </trkpt>
      <trkpt lat="44.83193" lon="5.41336">
        <ele>1516.8</ele>
        <time>2024-05-11T06:10:13.000Z</time>
      </trkpt>
      <trkpt lat="44.83192" lon="5.41347">
        <ele>1516.8</ele>
        <time>2024-05-11T06:10:21.000Z</time>
      </trkpt>
      <trkpt lat="44.8319" lon="5.41354">
        <ele>1516.8</ele>
        <time>2024-05-11T06:10:26.000Z</time>
      </trkpt>
      <trkpt lat="44.83188" lon="5.41358">
        <ele>1516.9</ele>
        <time>2024-05-11T06:10:29.000Z</time>
      </trkpt>
      <trkpt lat="44.83186" lon="5.41368">
        <ele>1516.9</ele>
        <time>2024-05-11T06:10:37.000Z</time>
      </trkpt>
      <trkpt lat="44.83181" lon="5.41378">
        <ele>1517</ele>
        <time>2024-05-11T06:10:45.000Z</time>
      </trkpt>
      <trkpt lat="44.83174" lon="5.41387">
        <ele>1517.4</ele>
        <time>2024-05-11T06:10:53.000Z</time>
      </trkpt>
      <trkpt lat="44.83173" lon="5.41389">
        <ele>1517.6</ele>
        <time>2024-05-11T06:10:55.000Z</time>
      </trkpt>
      <trkpt lat="44.83169" lon="5.41393">
        <ele>1518.1</ele>
        <time>2024-05-11T06:10:59.000Z</time>
      </trkpt>
      <trkpt lat="44.83164" lon="5.414">
        <ele>1518.9</ele>
        <time>2024-05-11T06:11:06.000Z</time>
      </trkpt>
      <trkpt lat="44.83163" lon="5.41401">
        <ele>1518.9</ele>
        <time>2024-05-11T06:11:07.000Z</time>
      </trkpt>
      <trkpt lat="44.83158" lon="5.41408">
        <ele>1519.7</ele>
        <time>2024-05-11T06:11:15.000Z</time>
      </trkpt>
      <trkpt lat="44.83155" lon="5.41411">
        <ele>1520.1</ele>
        <time>2024-05-11T06:11:19.000Z</time>
      </trkpt>
      <trkpt lat="44.8315" lon="5.41416">
        <ele>1521.1</ele>
        <time>2024-05-11T06:11:25.000Z</time>
      </trkpt>
      <trkpt lat="44.83145" lon="5.41421">
        <ele>1521.7</ele>
        <time>2024-05-11T06:11:30.000Z</time>
      </trkpt>
      <trkpt lat="44.83142" lon="5.41423">
        <ele>1522</ele>
        <time>2024-05-11T06:11:34.000Z</time>
      </trkpt>
      <trkpt lat="44.83139" lon="5.41428">
        <ele>1522.4</ele>
        <time>2024-05-11T06:11:39.000Z</time>
      </trkpt>
      <trkpt lat="44.83138" lon="5.41429">
        <ele>1522.4</ele>
        <time>2024-05-11T06:11:40.000Z</time>
      </trkpt>
      <trkpt lat="44.83138" lon="5.4143">
        <ele>1522.4</ele>
        <time>2024-05-11T06:11:42.000Z</time>
      </trkpt>
      <trkpt lat="44.83133" lon="5.41435">
        <ele>1522.4</ele>
        <time>2024-05-11T06:11:50.000Z</time>
      </trkpt>
      <trkpt lat="44.83129" lon="5.4144">
        <ele>1522.6</ele>
        <time>2024-05-11T06:11:57.000Z</time>
      </trkpt>
      <trkpt lat="44.83127" lon="5.41446">
        <ele>1523</ele>
        <time>2024-05-11T06:12:02.000Z</time>
      </trkpt>
      <trkpt lat="44.83126" lon="5.41447">
        <ele>1523</ele>
        <time>2024-05-11T06:12:03.000Z</time>
      </trkpt>
      <trkpt lat="44.83119" lon="5.41456">
        <ele>1523.2</ele>
        <time>2024-05-11T06:12:10.000Z</time>
      </trkpt>
      <trkpt lat="44.83119" lon="5.41457">
        <ele>1523.2</ele>
        <time>2024-05-11T06:12:15.000Z</time>
      </trkpt>
      <trkpt lat="44.83114" lon="5.41465">
        <ele>1523.6</ele>
        <time>2024-05-11T06:12:23.000Z</time>
      </trkpt>
      <trkpt lat="44.83109" lon="5.41471">
        <ele>1524</ele>
        <time>2024-05-11T06:12:30.000Z</time>
      </trkpt>
      <trkpt lat="44.83103" lon="5.41476">
        <ele>1524.1</ele>
        <time>2024-05-11T06:12:38.000Z</time>
      </trkpt>
      <trkpt lat="44.83097" lon="5.4148">
        <ele>1524.4</ele>
        <time>2024-05-11T06:12:45.000Z</time>
      </trkpt>
      <trkpt lat="44.83091" lon="5.41486">
        <ele>1525.1</ele>
        <time>2024-05-11T06:12:53.000Z</time>
      </trkpt>
      <trkpt lat="44.83085" lon="5.4149">
        <ele>1525.8</ele>
        <time>2024-05-11T06:13:00.000Z</time>
      </trkpt>
      <trkpt lat="44.83078" lon="5.41494">
        <ele>1526.6</ele>
        <time>2024-05-11T06:13:07.000Z</time>
      </trkpt>
      <trkpt lat="44.83077" lon="5.41495">
        <ele>1526.7</ele>
        <time>2024-05-11T06:13:08.000Z</time>
      </trkpt>
      <trkpt lat="44.83072" lon="5.41499">
        <ele>1527.6</ele>
        <time>2024-05-11T06:13:14.000Z</time>
      </trkpt>
      <trkpt lat="44.83071" lon="5.41499">
        <ele>1527.8</ele>
        <time>2024-05-11T06:13:16.000Z</time>
      </trkpt>
      <trkpt lat="44.83067" lon="5.41502">
        <ele>1528.4</ele>
        <time>2024-05-11T06:13:22.000Z</time>
      </trkpt>
      <trkpt lat="44.83066" lon="5.41503">
        <ele>1528.5</ele>
        <time>2024-05-11T06:13:24.000Z</time>
      </trkpt>
      <trkpt lat="44.83061" lon="5.41506">
        <ele>1529.2</ele>
        <time>2024-05-11T06:13:30.000Z</time>
      </trkpt>
      <trkpt lat="44.83059" lon="5.41507">
        <ele>1529.4</ele>
        <time>2024-05-11T06:13:32.000Z</time>
      </trkpt>
      <trkpt lat="44.83055" lon="5.41508">
        <ele>1529.9</ele>
        <time>2024-05-11T06:13:37.000Z</time>
      </trkpt>
      <trkpt lat="44.83053" lon="5.41509">
        <ele>1530.1</ele>
        <time>2024-05-11T06:13:39.000Z</time>
      </trkpt>
      <trkpt lat="44.83051" lon="5.4151">
        <ele>1530.3</ele>
        <time>2024-05-11T06:13:41.000Z</time>
      </trkpt>
      <trkpt lat="44.83045" lon="5.41512">
        <ele>1531</ele>
        <time>2024-05-11T06:13:46.000Z</time>
      </trkpt>
      <trkpt lat="44.83041" lon="5.41513">
        <ele>1531.4</ele>
        <time>2024-05-11T06:13:51.000Z</time>
      </trkpt>
      <trkpt lat="44.83037" lon="5.41513">
        <ele>1531.7</ele>
        <time>2024-05-11T06:13:55.000Z</time>
      </trkpt>
      <trkpt lat="44.83034" lon="5.41513">
        <ele>1531.9</ele>
        <time>2024-05-11T06:13:58.000Z</time>
      </trkpt>
      <trkpt lat="44.8303" lon="5.41514">
        <ele>1532.4</ele>
        <time>2024-05-11T06:14:04.000Z</time>
      </trkpt>
      <trkpt lat="44.83026" lon="5.41516">
        <ele>1533</ele>
        <time>2024-05-11T06:14:09.000Z</time>
      </trkpt>
      <trkpt lat="44.83025" lon="5.41516">
        <ele>1533.1</ele>
        <time>2024-05-11T06:14:11.000Z</time>
      </trkpt>
      <trkpt lat="44.83022" lon="5.41518">
        <ele>1533.8</ele>
        <time>2024-05-11T06:14:15.000Z</time>
      </trkpt>
      <trkpt lat="44.8302" lon="5.41518">
        <ele>1534.1</ele>
        <time>2024-05-11T06:14:17.000Z</time>
      </trkpt>
      <trkpt lat="44.83015" lon="5.41521">
        <ele>1535</ele>
        <time>2024-05-11T06:14:25.000Z</time>
      </trkpt>
      <trkpt lat="44.83014" lon="5.41521">
        <ele>1535.1</ele>
        <time>2024-05-11T06:14:26.000Z</time>
      </trkpt>
      <trkpt lat="44.83008" lon="5.41523">
        <ele>1536.1</ele>
        <time>2024-05-11T06:14:33.000Z</time>
      </trkpt>
      <trkpt lat="44.83003" lon="5.41524">
        <ele>1536.9</ele>
        <time>2024-05-11T06:14:40.000Z</time>
      </trkpt>
      <trkpt lat="44.83001" lon="5.41526">
        <ele>1537.5</ele>
        <time>2024-05-11T06:14:43.000Z</time>
      </trkpt>
      <trkpt lat="44.82997" lon="5.41528">
        <ele>1538.4</ele>
        <time>2024-05-11T06:14:48.000Z</time>
      </trkpt>
      <trkpt lat="44.82996" lon="5.41528">
        <ele>1538.6</ele>
        <time>2024-05-11T06:14:50.000Z</time>
      </trkpt>
      <trkpt lat="44.82992" lon="5.41529">
        <ele>1539.2</ele>
        <time>2024-05-11T06:14:55.000Z</time>
      </trkpt>
      <trkpt lat="44.82988" lon="5.4153">
        <ele>1539.8</ele>
        <time>2024-05-11T06:15:00.000Z</time>
      </trkpt>
      <trkpt lat="44.82986" lon="5.41531">
        <ele>1540.2</ele>
        <time>2024-05-11T06:15:03.000Z</time>
      </trkpt>
      <trkpt lat="44.82982" lon="5.41532">
        <ele>1540.9</ele>
        <time>2024-05-11T06:15:09.000Z</time>
      </trkpt>
      <trkpt lat="44.8298" lon="5.41532">
        <ele>1541.1</ele>
        <time>2024-05-11T06:15:11.000Z</time>
      </trkpt>
      <trkpt lat="44.82975" lon="5.41534">
        <ele>1542</ele>
        <time>2024-05-11T06:15:17.000Z</time>
      </trkpt>
      <trkpt lat="44.82973" lon="5.41534">
        <ele>1542.3</ele>
        <time>2024-05-11T06:15:19.000Z</time>
      </trkpt>
      <trkpt lat="44.82971" lon="5.41535">
        <ele>1542.7</ele>
        <time>2024-05-11T06:15:23.000Z</time>
      </trkpt>
      <trkpt lat="44.82968" lon="5.41538">
        <ele>1543.2</ele>
        <time>2024-05-11T06:15:28.000Z</time>
      </trkpt>
      <trkpt lat="44.82964" lon="5.41539">
        <ele>1543.7</ele>
        <time>2024-05-11T06:15:34.000Z</time>
      </trkpt>
      <trkpt lat="44.82963" lon="5.4154">
        <ele>1543.9</ele>
        <time>2024-05-11T06:15:36.000Z</time>
      </trkpt>
      <trkpt lat="44.82959" lon="5.41541">
        <ele>1544.4</ele>
        <time>2024-05-11T06:15:41.000Z</time>
      </trkpt>
      <trkpt lat="44.82956" lon="5.41542">
        <ele>1544.9</ele>
        <time>2024-05-11T06:15:46.000Z</time>
      </trkpt>
      <trkpt lat="44.82953" lon="5.41544">
        <ele>1545.2</ele>
        <time>2024-05-11T06:15:50.000Z</time>
      </trkpt>
      <trkpt lat="44.8295" lon="5.41545">
        <ele>1545.6</ele>
        <time>2024-05-11T06:15:55.000Z</time>
      </trkpt>
      <trkpt lat="44.8295" lon="5.41545">
        <ele>1545.6</ele>
        <time>2024-05-11T06:15:56.000Z</time>
      </trkpt>
      <trkpt lat="44.82948" lon="5.41545">
        <ele>1545.9</ele>
        <time>2024-05-11T06:16:00.000Z</time>
      </trkpt>
      <trkpt lat="44.8294" lon="5.41548">
        <ele>1547</ele>
        <time>2024-05-11T06:16:09.000Z</time>
      </trkpt>
      <trkpt lat="44.82934" lon="5.4155">
        <ele>1548</ele>
        <time>2024-05-11T06:16:15.000Z</time>
      </trkpt>
      <trkpt lat="44.82932" lon="5.41551">
        <ele>1548.4</ele>
        <time>2024-05-11T06:16:17.000Z</time>
      </trkpt>
      <trkpt lat="44.82925" lon="5.41554">
        <ele>1549.7</ele>
        <time>2024-05-11T06:16:25.000Z</time>
      </trkpt>
      <trkpt lat="44.82924" lon="5.41555">
        <ele>1549.9</ele>
        <time>2024-05-11T06:16:26.000Z</time>
      </trkpt>
      <trkpt lat="44.82916" lon="5.41555">
        <ele>1551</ele>
        <time>2024-05-11T06:16:35.000Z</time>
      </trkpt>
      <trkpt lat="44.82915" lon="5.41555">
        <ele>1551.2</ele>
        <time>2024-05-11T06:16:37.000Z</time>
      </trkpt>
      <trkpt lat="44.8291" lon="5.41555">
        <ele>1551.9</ele>
        <time>2024-05-11T06:16:44.000Z</time>
      </trkpt>
      <trkpt lat="44.82906" lon="5.41556">
        <ele>1552.5</ele>
        <time>2024-05-11T06:16:48.000Z</time>
      </trkpt>
      <trkpt lat="44.82904" lon="5.41558">
        <ele>1553</ele>
        <time>2024-05-11T06:16:52.000Z</time>
      </trkpt>
      <trkpt lat="44.829" lon="5.4156">
        <ele>1553.6</ele>
        <time>2024-05-11T06:16:58.000Z</time>
      </trkpt>
      <trkpt lat="44.82895" lon="5.41563">
        <ele>1554.6</ele>
        <time>2024-05-11T06:17:06.000Z</time>
      </trkpt>
      <trkpt lat="44.82889" lon="5.41565">
        <ele>1555.6</ele>
        <time>2024-05-11T06:17:13.000Z</time>
      </trkpt>
      <trkpt lat="44.82885" lon="5.41565">
        <ele>1556</ele>
        <time>2024-05-11T06:17:17.000Z</time>
      </trkpt>
      <trkpt lat="44.82881" lon="5.41565">
        <ele>1556.3</ele>
        <time>2024-05-11T06:17:22.000Z</time>
      </trkpt>
      <trkpt lat="44.82879" lon="5.41565">
        <ele>1556.5</ele>
        <time>2024-05-11T06:17:25.000Z</time>
      </trkpt>
      <trkpt lat="44.82878" lon="5.41564">
        <ele>1556.5</ele>
        <time>2024-05-11T06:17:26.000Z</time>
      </trkpt>
      <trkpt lat="44.82873" lon="5.41563">
        <ele>1556.8</ele>
        <time>2024-05-11T06:17:30.000Z</time>
      </trkpt>
      <trkpt lat="44.8287" lon="5.41565">
        <ele>1557.3</ele>
        <time>2024-05-11T06:17:33.000Z</time>
      </trkpt>
      <trkpt lat="44.82869" lon="5.41565">
        <ele>1557.4</ele>
        <time>2024-05-11T06:17:35.000Z</time>
      </trkpt>
      <trkpt lat="44.82868" lon="5.41566">
        <ele>1557.5</ele>
        <time>2024-05-11T06:17:36.000Z</time>
      </trkpt>
      <trkpt lat="44.82866" lon="5.41567">
        <ele>1557.8</ele>
        <time>2024-05-11T06:17:39.000Z</time>
      </trkpt>
      <trkpt lat="44.82861" lon="5.41568">
        <ele>1558.4</ele>
        <time>2024-05-11T06:17:45.000Z</time>
      </trkpt>
      <trkpt lat="44.8286" lon="5.41569">
        <ele>1558.6</ele>
        <time>2024-05-11T06:17:47.000Z</time>
      </trkpt>
      <trkpt lat="44.82858" lon="5.41569">
        <ele>1558.8</ele>
        <time>2024-05-11T06:17:51.000Z</time>
      </trkpt>
      <trkpt lat="44.82857" lon="5.41569">
        <ele>1558.9</ele>
        <time>2024-05-11T06:17:53.000Z</time>
      </trkpt>
      <trkpt lat="44.82857" lon="5.4157">
        <ele>1559</ele>
        <time>2024-05-11T06:17:54.000Z</time>
      </trkpt>
      <trkpt lat="44.82852" lon="5.41571">
        <ele>1559.7</ele>
        <time>2024-05-11T06:18:01.000Z</time>
      </trkpt>
      <trkpt lat="44.82851" lon="5.41571">
        <ele>1559.8</ele>
        <time>2024-05-11T06:18:03.000Z</time>
      </trkpt>
      <trkpt lat="44.82847" lon="5.41572">
        <ele>1560.4</ele>
        <time>2024-05-11T06:18:09.000Z</time>
      </trkpt>
      <trkpt lat="44.82846" lon="5.41573">
        <ele>1560.7</ele>
        <time>2024-05-11T06:18:11.000Z</time>
      </trkpt>
      <trkpt lat="44.82842" lon="5.41576">
        <ele>1561.7</ele>
        <time>2024-05-11T06:18:18.000Z</time>
      </trkpt>
      <trkpt lat="44.82839" lon="5.41577">
        <ele>1562.2</ele>
        <time>2024-05-11T06:18:22.000Z</time>
      </trkpt>
      <trkpt lat="44.82837" lon="5.41576">
        <ele>1562.3</ele>
        <time>2024-05-11T06:18:24.000Z</time>
      </trkpt>
      <trkpt lat="44.82836" lon="5.41576">
        <ele>1562.2</ele>
        <time>2024-05-11T06:18:26.000Z</time>
      </trkpt>
      <trkpt lat="44.82835" lon="5.41575">
        <ele>1562.4</ele>
        <time>2024-05-11T06:18:31.000Z</time>
      </trkpt>
      <trkpt lat="44.82833" lon="5.41575">
        <ele>1562.7</ele>
        <time>2024-05-11T06:18:34.000Z</time>
      </trkpt>
      <trkpt lat="44.8283" lon="5.41576">
        <ele>1563.2</ele>
        <time>2024-05-11T06:18:38.000Z</time>
      </trkpt>
      <trkpt lat="44.82828" lon="5.41577">
        <ele>1563.5</ele>
        <time>2024-05-11T06:18:40.000Z</time>
      </trkpt>
      <trkpt lat="44.82827" lon="5.41577">
        <ele>1563.8</ele>
        <time>2024-05-11T06:18:45.000Z</time>
      </trkpt>
      <trkpt lat="44.82824" lon="5.41578">
        <ele>1564.3</ele>
        <time>2024-05-11T06:18:49.000Z</time>
      </trkpt>
      <trkpt lat="44.82822" lon="5.4158">
        <ele>1565</ele>
        <time>2024-05-11T06:18:53.000Z</time>
      </trkpt>
      <trkpt lat="44.8282" lon="5.41582">
        <ele>1565.6</ele>
        <time>2024-05-11T06:18:56.000Z</time>
      </trkpt>
      <trkpt lat="44.82818" lon="5.41583">
        <ele>1566.2</ele>
        <time>2024-05-11T06:19:00.000Z</time>
      </trkpt>
      <trkpt lat="44.82815" lon="5.41585">
        <ele>1566.8</ele>
        <time>2024-05-11T06:19:06.000Z</time>
      </trkpt>
      <trkpt lat="44.82813" lon="5.41585">
        <ele>1567.1</ele>
        <time>2024-05-11T06:19:08.000Z</time>
      </trkpt>
      <trkpt lat="44.82806" lon="5.41588">
        <ele>1568.5</ele>
        <time>2024-05-11T06:19:17.000Z</time>
      </trkpt>
      <trkpt lat="44.82805" lon="5.41589">
        <ele>1568.6</ele>
        <time>2024-05-11T06:19:18.000Z</time>
      </trkpt>
      <trkpt lat="44.82801" lon="5.41592">
        <ele>1569.4</ele>
        <time>2024-05-11T06:19:24.000Z</time>
      </trkpt>
      <trkpt lat="44.82798" lon="5.41597">
        <ele>1570.3</ele>
        <time>2024-05-11T06:19:30.000Z</time>
      </trkpt>
      <trkpt lat="44.82796" lon="5.41598">
        <ele>1570.7</ele>
        <time>2024-05-11T06:19:32.000Z</time>
      </trkpt>
      <trkpt lat="44.82795" lon="5.416">
        <ele>1571</ele>
        <time>2024-05-11T06:19:34.000Z</time>
      </trkpt>
      <trkpt lat="44.82795" lon="5.41601">
        <ele>1571.1</ele>
        <time>2024-05-11T06:19:35.000Z</time>
      </trkpt>
      <trkpt lat="44.82791" lon="5.41602">
        <ele>1571.8</ele>
        <time>2024-05-11T06:19:39.000Z</time>
      </trkpt>
      <trkpt lat="44.8279" lon="5.41603">
        <ele>1572.1</ele>
        <time>2024-05-11T06:19:40.000Z</time>
      </trkpt>
      <trkpt lat="44.82789" lon="5.41604">
        <ele>1572.3</ele>
        <time>2024-05-11T06:19:41.000Z</time>
      </trkpt>
      <trkpt lat="44.82785" lon="5.41608">
        <ele>1573.4</ele>
        <time>2024-05-11T06:19:47.000Z</time>
      </trkpt>
      <trkpt lat="44.82783" lon="5.41609">
        <ele>1573.9</ele>
        <time>2024-05-11T06:19:49.000Z</time>
      </trkpt>
      <trkpt lat="44.8278" lon="5.41612">
        <ele>1574.8</ele>
        <time>2024-05-11T06:19:54.000Z</time>
      </trkpt>
      <trkpt lat="44.82779" lon="5.41613">
        <ele>1575.1</ele>
        <time>2024-05-11T06:19:57.000Z</time>
      </trkpt>
      <trkpt lat="44.82776" lon="5.41614">
        <ele>1575.5</ele>
        <time>2024-05-11T06:20:02.000Z</time>
      </trkpt>
      <trkpt lat="44.82775" lon="5.41614">
        <ele>1575.6</ele>
        <time>2024-05-11T06:20:03.000Z</time>
      </trkpt>
      <trkpt lat="44.82773" lon="5.41613">
        <ele>1575.8</ele>
        <time>2024-05-11T06:20:08.000Z</time>
      </trkpt>
      <trkpt lat="44.82771" lon="5.41614">
        <ele>1576.1</ele>
        <time>2024-05-11T06:20:11.000Z</time>
      </trkpt>
      <trkpt lat="44.82768" lon="5.41616">
        <ele>1576.6</ele>
        <time>2024-05-11T06:20:15.000Z</time>
      </trkpt>
      <trkpt lat="44.82766" lon="5.41617">
        <ele>1577</ele>
        <time>2024-05-11T06:20:19.000Z</time>
      </trkpt>
      <trkpt lat="44.82763" lon="5.4162">
        <ele>1577.8</ele>
        <time>2024-05-11T06:20:25.000Z</time>
      </trkpt>
      <trkpt lat="44.82762" lon="5.41621">
        <ele>1577.9</ele>
        <time>2024-05-11T06:20:28.000Z</time>
      </trkpt>
      <trkpt lat="44.8276" lon="5.41623">
        <ele>1578.5</ele>
        <time>2024-05-11T06:20:32.000Z</time>
      </trkpt>
      <trkpt lat="44.82757" lon="5.41624">
        <ele>1579</ele>
        <time>2024-05-11T06:20:36.000Z</time>
      </trkpt>
      <trkpt lat="44.82755" lon="5.41626">
        <ele>1579.4</ele>
        <time>2024-05-11T06:20:39.000Z</time>
      </trkpt>
      <trkpt lat="44.82755" lon="5.41626">
        <ele>1579.5</ele>
        <time>2024-05-11T06:20:40.000Z</time>
      </trkpt>
      <trkpt lat="44.82754" lon="5.41627">
        <ele>1579.7</ele>
        <time>2024-05-11T06:20:44.000Z</time>
      </trkpt>
      <trkpt lat="44.82751" lon="5.41627">
        <ele>1580.2</ele>
        <time>2024-05-11T06:20:48.000Z</time>
      </trkpt>
      <trkpt lat="44.82749" lon="5.41628">
        <ele>1580.6</ele>
        <time>2024-05-11T06:20:51.000Z</time>
      </trkpt>
      <trkpt lat="44.82747" lon="5.4163">
        <ele>1581.1</ele>
        <time>2024-05-11T06:20:56.000Z</time>
      </trkpt>
      <trkpt lat="44.82747" lon="5.4163">
        <ele>1581.3</ele>
        <time>2024-05-11T06:20:58.000Z</time>
      </trkpt>
      <trkpt lat="44.82743" lon="5.41632">
        <ele>1582.2</ele>
        <time>2024-05-11T06:21:04.000Z</time>
      </trkpt>
      <trkpt lat="44.82743" lon="5.41633">
        <ele>1582.4</ele>
        <time>2024-05-11T06:21:05.000Z</time>
      </trkpt>
      <trkpt lat="44.8274" lon="5.41638">
        <ele>1583.7</ele>
        <time>2024-05-11T06:21:13.000Z</time>
      </trkpt>
      <trkpt lat="44.8274" lon="5.41639">
        <ele>1583.8</ele>
        <time>2024-05-11T06:21:14.000Z</time>
      </trkpt>
      <trkpt lat="44.82737" lon="5.41641">
        <ele>1584.7</ele>
        <time>2024-05-11T06:21:20.000Z</time>
      </trkpt>
      <trkpt lat="44.82735" lon="5.41642">
        <ele>1585</ele>
        <time>2024-05-11T06:21:22.000Z</time>
      </trkpt>
      <trkpt lat="44.82733" lon="5.41643">
        <ele>1585.5</ele>
        <time>2024-05-11T06:21:26.000Z</time>
      </trkpt>
      <trkpt lat="44.82731" lon="5.41642">
        <ele>1585.9</ele>
        <time>2024-05-11T06:21:30.000Z</time>
      </trkpt>
      <trkpt lat="44.82728" lon="5.41643">
        <ele>1586.7</ele>
        <time>2024-05-11T06:21:36.000Z</time>
      </trkpt>
      <trkpt lat="44.82725" lon="5.41644">
        <ele>1587.2</ele>
        <time>2024-05-11T06:21:41.000Z</time>
      </trkpt>
      <trkpt lat="44.82722" lon="5.41645">
        <ele>1587.8</ele>
        <time>2024-05-11T06:21:46.000Z</time>
      </trkpt>
      <trkpt lat="44.82721" lon="5.41645">
        <ele>1588.2</ele>
        <time>2024-05-11T06:21:49.000Z</time>
      </trkpt>
      <trkpt lat="44.82717" lon="5.41646">
        <ele>1589</ele>
        <time>2024-05-11T06:21:53.000Z</time>
      </trkpt>
      <trkpt lat="44.82714" lon="5.41648">
        <ele>1589.8</ele>
        <time>2024-05-11T06:21:58.000Z</time>
      </trkpt>
      <trkpt lat="44.82712" lon="5.4165">
        <ele>1590.3</ele>
        <time>2024-05-11T06:22:02.000Z</time>
      </trkpt>
      <trkpt lat="44.82712" lon="5.41649">
        <ele>1590.2</ele>
        <time>2024-05-11T06:22:06.000Z</time>
      </trkpt>
      <trkpt lat="44.82711" lon="5.41651">
        <ele>1590.8</ele>
        <time>2024-05-11T06:22:11.000Z</time>
      </trkpt>
      <trkpt lat="44.8271" lon="5.41651">
        <ele>1590.8</ele>
        <time>2024-05-11T06:22:14.000Z</time>
      </trkpt>
      <trkpt lat="44.82707" lon="5.41655">
        <ele>1592</ele>
        <time>2024-05-11T06:22:20.000Z</time>
      </trkpt>
      <trkpt lat="44.82706" lon="5.41655">
        <ele>1592.3</ele>
        <time>2024-05-11T06:22:21.000Z</time>
      </trkpt>
      <trkpt lat="44.82705" lon="5.41656">
        <ele>1592.5</ele>
        <time>2024-05-11T06:22:22.000Z</time>
      </trkpt>
      <trkpt lat="44.82703" lon="5.41656">
        <ele>1593.1</ele>
        <time>2024-05-11T06:22:28.000Z</time>
      </trkpt>
      <trkpt lat="44.82702" lon="5.41657">
        <ele>1593.2</ele>
        <time>2024-05-11T06:22:29.000Z</time>
      </trkpt>
      <trkpt lat="44.82696" lon="5.4166">
        <ele>1594.7</ele>
        <time>2024-05-11T06:22:38.000Z</time>
      </trkpt>
      <trkpt lat="44.82695" lon="5.4166">
        <ele>1594.9</ele>
        <time>2024-05-11T06:22:39.000Z</time>
      </trkpt>
      <trkpt lat="44.82692" lon="5.41661">
        <ele>1595.5</ele>
        <time>2024-05-11T06:22:47.000Z</time>
      </trkpt>
      <trkpt lat="44.82691" lon="5.41661">
        <ele>1595.6</ele>
        <time>2024-05-11T06:22:51.000Z</time>
      </trkpt>
      <trkpt lat="44.82691" lon="5.41662">
        <ele>1595.8</ele>
        <time>2024-05-11T06:22:53.000Z</time>
      </trkpt>
      <trkpt lat="44.82688" lon="5.41664">
        <ele>1596.4</ele>
        <time>2024-05-11T06:22:59.000Z</time>
      </trkpt>
      <trkpt lat="44.82687" lon="5.41664">
        <ele>1596.5</ele>
        <time>2024-05-11T06:23:00.000Z</time>
      </trkpt>
      <trkpt lat="44.82682" lon="5.41667">
        <ele>1597.8</ele>
        <time>2024-05-11T06:23:08.000Z</time>
      </trkpt>
      <trkpt lat="44.82681" lon="5.41667">
        <ele>1598</ele>
        <time>2024-05-11T06:23:09.000Z</time>
      </trkpt>
      <trkpt lat="44.82677" lon="5.41669">
        <ele>1598.9</ele>
        <time>2024-05-11T06:23:15.000Z</time>
      </trkpt>
      <trkpt lat="44.82676" lon="5.4167">
        <ele>1599.1</ele>
        <time>2024-05-11T06:23:16.000Z</time>
      </trkpt>
      <trkpt lat="44.82672" lon="5.41673">
        <ele>1600.3</ele>
        <time>2024-05-11T06:23:23.000Z</time>
      </trkpt>
      <trkpt lat="44.82671" lon="5.41673">
        <ele>1600.6</ele>
        <time>2024-05-11T06:23:24.000Z</time>
      </trkpt>
      <trkpt lat="44.82668" lon="5.41675">
        <ele>1601.4</ele>
        <time>2024-05-11T06:23:31.000Z</time>
      </trkpt>
      <trkpt lat="44.82667" lon="5.41676">
        <ele>1601.7</ele>
        <time>2024-05-11T06:23:33.000Z</time>
      </trkpt>
      <trkpt lat="44.82665" lon="5.41679">
        <ele>1602.2</ele>
        <time>2024-05-11T06:23:38.000Z</time>
      </trkpt>
      <trkpt lat="44.82663" lon="5.4168">
        <ele>1602.5</ele>
        <time>2024-05-11T06:23:41.000Z</time>
      </trkpt>
      <trkpt lat="44.82661" lon="5.41681">
        <ele>1602.8</ele>
        <time>2024-05-11T06:23:46.000Z</time>
      </trkpt>
      <trkpt lat="44.82659" lon="5.41682">
        <ele>1603.1</ele>
        <time>2024-05-11T06:23:49.000Z</time>
      </trkpt>
      <trkpt lat="44.82656" lon="5.41683">
        <ele>1603.4</ele>
        <time>2024-05-11T06:23:56.000Z</time>
      </trkpt>
      <trkpt lat="44.82656" lon="5.41683">
        <ele>1603.4</ele>
        <time>2024-05-11T06:23:57.000Z</time>
      </trkpt>
      <trkpt lat="44.82652" lon="5.41687">
        <ele>1604.5</ele>
        <time>2024-05-11T06:24:05.000Z</time>
      </trkpt>
      <trkpt lat="44.82652" lon="5.41688">
        <ele>1604.7</ele>
        <time>2024-05-11T06:24:06.000Z</time>
      </trkpt>
      <trkpt lat="44.82647" lon="5.41691">
        <ele>1605.5</ele>
        <time>2024-05-11T06:24:13.000Z</time>
      </trkpt>
      <trkpt lat="44.82645" lon="5.41693">
        <ele>1606.1</ele>
        <time>2024-05-11T06:24:20.000Z</time>
      </trkpt>
      <trkpt lat="44.82644" lon="5.41694">
        <ele>1606.6</ele>
        <time>2024-05-11T06:24:23.000Z</time>
      </trkpt>
      <trkpt lat="44.82642" lon="5.41699">
        <ele>1607.2</ele>
        <time>2024-05-11T06:24:29.000Z</time>
      </trkpt>
      <trkpt lat="44.82641" lon="5.417">
        <ele>1607.4</ele>
        <time>2024-05-11T06:24:31.000Z</time>
      </trkpt>
      <trkpt lat="44.82639" lon="5.41706">
        <ele>1608.2</ele>
        <time>2024-05-11T06:24:37.000Z</time>
      </trkpt>
      <trkpt lat="44.82639" lon="5.41707">
        <ele>1608.3</ele>
        <time>2024-05-11T06:24:38.000Z</time>
      </trkpt>
      <trkpt lat="44.82638" lon="5.41708">
        <ele>1608.3</ele>
        <time>2024-05-11T06:24:39.000Z</time>
      </trkpt>
      <trkpt lat="44.82637" lon="5.41713">
        <ele>1608.4</ele>
        <time>2024-05-11T06:24:44.000Z</time>
      </trkpt>
      <trkpt lat="44.82637" lon="5.41717">
        <ele>1608.8</ele>
        <time>2024-05-11T06:24:49.000Z</time>
      </trkpt>
      <trkpt lat="44.82636" lon="5.41719">
        <ele>1608.8</ele>
        <time>2024-05-11T06:24:50.000Z</time>
      </trkpt>
      <trkpt lat="44.82632" lon="5.41729">
        <ele>1607.7</ele>
        <time>2024-05-11T06:24:57.000Z</time>
      </trkpt>
      <trkpt lat="44.82632" lon="5.41729">
        <ele>1607.6</ele>
        <time>2024-05-11T06:24:58.000Z</time>
      </trkpt>
      <trkpt lat="44.82632" lon="5.41731">
        <ele>1607.7</ele>
        <time>2024-05-11T06:25:00.000Z</time>
      </trkpt>
      <trkpt lat="44.82631" lon="5.41733">
        <ele>1607.4</ele>
        <time>2024-05-11T06:25:02.000Z</time>
      </trkpt>
      <trkpt lat="44.8263" lon="5.41738">
        <ele>1606.9</ele>
        <time>2024-05-11T06:25:07.000Z</time>
      </trkpt>
      <trkpt lat="44.8263" lon="5.4174">
        <ele>1606.9</ele>
        <time>2024-05-11T06:25:09.000Z</time>
      </trkpt>
      <trkpt lat="44.82629" lon="5.41742">
        <ele>1606.6</ele>
        <time>2024-05-11T06:25:14.000Z</time>
      </trkpt>
      <trkpt lat="44.82628" lon="5.41744">
        <ele>1606.2</ele>
        <time>2024-05-11T06:25:18.000Z</time>
      </trkpt>
      <trkpt lat="44.82627" lon="5.41743">
        <ele>1605.8</ele>
        <time>2024-05-11T06:25:21.000Z</time>
      </trkpt>
      <trkpt lat="44.82628" lon="5.4174">
        <ele>1606.2</ele>
        <time>2024-05-11T06:25:27.000Z</time>
      </trkpt>
      <trkpt lat="44.82628" lon="5.41744">
        <ele>1606</ele>
        <time>2024-05-11T06:25:34.000Z</time>
      </trkpt>
      <trkpt lat="44.82625" lon="5.41746">
        <ele>1605.2</ele>
        <time>2024-05-11T06:25:40.000Z</time>
      </trkpt>
      <trkpt lat="44.82623" lon="5.4175">
        <ele>1604.4</ele>
        <time>2024-05-11T06:25:44.000Z</time>
      </trkpt>
      <trkpt lat="44.82621" lon="5.41751">
        <ele>1603.1</ele>
        <time>2024-05-11T06:25:49.000Z</time>
      </trkpt>
      <trkpt lat="44.82618" lon="5.41754">
        <ele>1601.5</ele>
        <time>2024-05-11T06:25:57.000Z</time>
      </trkpt>
      <trkpt lat="44.82615" lon="5.41757">
        <ele>1599.7</ele>
        <time>2024-05-11T06:26:05.000Z</time>
      </trkpt>
      <trkpt lat="44.82615" lon="5.41757">
        <ele>1599.6</ele>
        <time>2024-05-11T06:26:06.000Z</time>
      </trkpt>
      <trkpt lat="44.82615" lon="5.41757">
        <ele>1599.8</ele>
        <time>2024-05-11T06:26:18.000Z</time>
      </trkpt>
      <trkpt lat="44.82616" lon="5.41759">
        <ele>1599.4</ele>
        <time>2024-05-11T06:26:29.000Z</time>
      </trkpt>
      <trkpt lat="44.82611" lon="5.41761">
        <ele>1596.6</ele>
        <time>2024-05-11T06:27:30.000Z</time>
      </trkpt>
      <trkpt lat="44.8261" lon="5.4176">
        <ele>1596.4</ele>
        <time>2024-05-11T06:27:43.000Z</time>
      </trkpt>
      <trkpt lat="44.82613" lon="5.41755">
        <ele>1599.3</ele>
        <time>2024-05-11T06:28:22.000Z</time>
      </trkpt>
      <trkpt lat="44.82612" lon="5.41756">
        <ele>1598.8</ele>
        <time>2024-05-11T06:28:37.000Z</time>
      </trkpt>
      <trkpt lat="44.82612" lon="5.41758">
        <ele>1598.4</ele>
        <time>2024-05-11T06:29:05.000Z</time>
      </trkpt>
      <trkpt lat="44.82612" lon="5.41759">
        <ele>1598</ele>
        <time>2024-05-11T06:29:46.000Z</time>
      </trkpt>
      <trkpt lat="44.82614" lon="5.4176">
        <ele>1598.5</ele>
        <time>2024-05-11T06:30:07.000Z</time>
      </trkpt>
      <trkpt lat="44.8262" lon="5.41763">
        <ele>1600.2</ele>
        <time>2024-05-11T06:30:13.000Z</time>
      </trkpt>
      <trkpt lat="44.82623" lon="5.41765">
        <ele>1600.8</ele>
        <time>2024-05-11T06:30:18.000Z</time>
      </trkpt>
      <trkpt lat="44.82623" lon="5.41765">
        <ele>1601</ele>
        <time>2024-05-11T06:30:19.000Z</time>
      </trkpt>
      <trkpt lat="44.82624" lon="5.41766">
        <ele>1601.2</ele>
        <time>2024-05-11T06:30:20.000Z</time>
      </trkpt>
      <trkpt lat="44.82626" lon="5.41767">
        <ele>1601.8</ele>
        <time>2024-05-11T06:30:25.000Z</time>
      </trkpt>
      <trkpt lat="44.8263" lon="5.41768">
        <ele>1603.3</ele>
        <time>2024-05-11T06:30:30.000Z</time>
      </trkpt>
      <trkpt lat="44.82631" lon="5.41769">
        <ele>1603.5</ele>
        <time>2024-05-11T06:30:31.000Z</time>
      </trkpt>
      <trkpt lat="44.82635" lon="5.41771">
        <ele>1604.7</ele>
        <time>2024-05-11T06:30:36.000Z</time>
      </trkpt>
      <trkpt lat="44.82637" lon="5.41775">
        <ele>1604.6</ele>
        <time>2024-05-11T06:30:41.000Z</time>
      </trkpt>
      <trkpt lat="44.82637" lon="5.41778">
        <ele>1604.2</ele>
        <time>2024-05-11T06:30:43.000Z</time>
      </trkpt>
      <trkpt lat="44.8264" lon="5.41785">
        <ele>1601.9</ele>
        <time>2024-05-11T06:30:52.000Z</time>
      </trkpt>
      <trkpt lat="44.82641" lon="5.41787">
        <ele>1601.3</ele>
        <time>2024-05-11T06:30:55.000Z</time>
      </trkpt>
      <trkpt lat="44.8264" lon="5.41788">
        <ele>1600.7</ele>
        <time>2024-05-11T06:30:58.000Z</time>
      </trkpt>
      <trkpt lat="44.8264" lon="5.41789">
        <ele>1600.1</ele>
        <time>2024-05-11T06:31:08.000Z</time>
      </trkpt>
      <trkpt lat="44.82643" lon="5.41785">
        <ele>1602.6</ele>
        <time>2024-05-11T06:32:17.000Z</time>
      </trkpt>
      <trkpt lat="44.82642" lon="5.41784">
        <ele>1603</ele>
        <time>2024-05-11T06:32:23.000Z</time>
      </trkpt>
      <trkpt lat="44.82645" lon="5.41781">
        <ele>1604.6</ele>
        <time>2024-05-11T06:32:33.000Z</time>
      </trkpt>
      <trkpt lat="44.82645" lon="5.41782">
        <ele>1604.3</ele>
        <time>2024-05-11T06:32:42.000Z</time>
      </trkpt>
      <trkpt lat="44.82644" lon="5.41783">
        <ele>1603.7</ele>
        <time>2024-05-11T06:33:23.000Z</time>
      </trkpt>
      <trkpt lat="44.82647" lon="5.41782">
        <ele>1604.5</ele>
        <time>2024-05-11T06:34:09.000Z</time>
      </trkpt>
      <trkpt lat="44.82653" lon="5.41782">
        <ele>1605.6</ele>
        <time>2024-05-11T06:34:15.000Z</time>
      </trkpt>
      <trkpt lat="44.82657" lon="5.41783">
        <ele>1605.9</ele>
        <time>2024-05-11T06:34:20.000Z</time>
      </trkpt>
      <trkpt lat="44.82657" lon="5.41784">
        <ele>1605.8</ele>
        <time>2024-05-11T06:34:21.000Z</time>
      </trkpt>
      <trkpt lat="44.82659" lon="5.41787">
        <ele>1605.3</ele>
        <time>2024-05-11T06:34:25.000Z</time>
      </trkpt>
      <trkpt lat="44.82661" lon="5.41789">
        <ele>1605.2</ele>
        <time>2024-05-11T06:34:27.000Z</time>
      </trkpt>
      <trkpt lat="44.82663" lon="5.4179">
        <ele>1605.3</ele>
        <time>2024-05-11T06:34:28.000Z</time>
      </trkpt>
      <trkpt lat="44.82665" lon="5.41793">
        <ele>1605.4</ele>
        <time>2024-05-11T06:34:31.000Z</time>
      </trkpt>
      <trkpt lat="44.82666" lon="5.41795">
        <ele>1605.1</ele>
        <time>2024-05-11T06:34:33.000Z</time>
      </trkpt>
      <trkpt lat="44.82667" lon="5.41796">
        <ele>1605</ele>
        <time>2024-05-11T06:34:34.000Z</time>
      </trkpt>
      <trkpt lat="44.82667" lon="5.41797">
        <ele>1604.9</ele>
        <time>2024-05-11T06:34:35.000Z</time>
      </trkpt>
      <trkpt lat="44.82672" lon="5.41802">
        <ele>1603.8</ele>
        <time>2024-05-11T06:34:42.000Z</time>
      </trkpt>
      <trkpt lat="44.82673" lon="5.41802">
        <ele>1603.8</ele>
        <time>2024-05-11T06:34:43.000Z</time>
      </trkpt>
      <trkpt lat="44.82674" lon="5.41804">
        <ele>1603.5</ele>
        <time>2024-05-11T06:34:48.000Z</time>
      </trkpt>
      <trkpt lat="44.82676" lon="5.41806">
        <ele>1603.2</ele>
        <time>2024-05-11T06:34:52.000Z</time>
      </trkpt>
      <trkpt lat="44.82677" lon="5.41808">
        <ele>1602.9</ele>
        <time>2024-05-11T06:34:54.000Z</time>
      </trkpt>
      <trkpt lat="44.82679" lon="5.41814">
        <ele>1602</ele>
        <time>2024-05-11T06:34:59.000Z</time>
      </trkpt>
      <trkpt lat="44.82679" lon="5.41815">
        <ele>1601.8</ele>
        <time>2024-05-11T06:35:00.000Z</time>
      </trkpt>
      <trkpt lat="44.82683" lon="5.4182">
        <ele>1601.8</ele>
        <time>2024-05-11T06:35:05.000Z</time>
      </trkpt>
      <trkpt lat="44.82684" lon="5.41821">
        <ele>1601.7</ele>
        <time>2024-05-11T06:35:06.000Z</time>
      </trkpt>
      <trkpt lat="44.82685" lon="5.41824">
        <ele>1601.5</ele>
        <time>2024-05-11T06:35:09.000Z</time>
      </trkpt>
      <trkpt lat="44.82686" lon="5.41827">
        <ele>1601.6</ele>
        <time>2024-05-11T06:35:12.000Z</time>
      </trkpt>
      <trkpt lat="44.82688" lon="5.41831">
        <ele>1601.9</ele>
        <time>2024-05-11T06:35:16.000Z</time>
      </trkpt>
      <trkpt lat="44.82689" lon="5.41833">
        <ele>1601.9</ele>
        <time>2024-05-11T06:35:18.000Z</time>
      </trkpt>
      <trkpt lat="44.82691" lon="5.4183">
        <ele>1602.7</ele>
        <time>2024-05-11T06:35:23.000Z</time>
      </trkpt>
      <trkpt lat="44.82691" lon="5.41832">
        <ele>1602.8</ele>
        <time>2024-05-11T06:35:31.000Z</time>
      </trkpt>
      <trkpt lat="44.82693" lon="5.41847">
        <ele>1603.6</ele>
        <time>2024-05-11T06:35:42.000Z</time>
      </trkpt>
      <trkpt lat="44.82694" lon="5.41861">
        <ele>1603.7</ele>
        <time>2024-05-11T06:35:50.000Z</time>
      </trkpt>
      <trkpt lat="44.82697" lon="5.41871">
        <ele>1603.8</ele>
        <time>2024-05-11T06:35:58.000Z</time>
      </trkpt>
      <trkpt lat="44.82698" lon="5.41889">
        <ele>1604.1</ele>
        <time>2024-05-11T06:36:10.000Z</time>
      </trkpt>
      <trkpt lat="44.82698" lon="5.41902">
        <ele>1604.1</ele>
        <time>2024-05-11T06:36:18.000Z</time>
      </trkpt>
      <trkpt lat="44.827" lon="5.41921">
        <ele>1603.7</ele>
        <time>2024-05-11T06:36:30.000Z</time>
      </trkpt>
      <trkpt lat="44.82698" lon="5.41933">
        <ele>1604.1</ele>
        <time>2024-05-11T06:36:38.000Z</time>
      </trkpt>
      <trkpt lat="44.82698" lon="5.41934">
        <ele>1604</ele>
        <time>2024-05-11T06:36:39.000Z</time>
      </trkpt>
      <trkpt lat="44.827" lon="5.41949">
        <ele>1603.2</ele>
        <time>2024-05-11T06:36:48.000Z</time>
      </trkpt>
      <trkpt lat="44.82702" lon="5.41957">
        <ele>1602.2</ele>
        <time>2024-05-11T06:36:55.000Z</time>
      </trkpt>
      <trkpt lat="44.82703" lon="5.41961">
        <ele>1601.6</ele>
        <time>2024-05-11T06:36:58.000Z</time>
      </trkpt>
      <trkpt lat="44.82703" lon="5.41962">
        <ele>1601.6</ele>
        <time>2024-05-11T06:36:59.000Z</time>
      </trkpt>
      <trkpt lat="44.82703" lon="5.41966">
        <ele>1601.3</ele>
        <time>2024-05-11T06:37:02.000Z</time>
      </trkpt>
      <trkpt lat="44.82703" lon="5.4197">
        <ele>1601</ele>
        <time>2024-05-11T06:37:06.000Z</time>
      </trkpt>
      <trkpt lat="44.82705" lon="5.41973">
        <ele>1600.3</ele>
        <time>2024-05-11T06:37:10.000Z</time>
      </trkpt>
      <trkpt lat="44.82705" lon="5.41976">
        <ele>1600</ele>
        <time>2024-05-11T06:37:15.000Z</time>
      </trkpt>
      <trkpt lat="44.82705" lon="5.41977">
        <ele>1599.9</ele>
        <time>2024-05-11T06:37:16.000Z</time>
      </trkpt>
      <trkpt lat="44.82706" lon="5.41985">
        <ele>1599</ele>
        <time>2024-05-11T06:37:22.000Z</time>
      </trkpt>
      <trkpt lat="44.82708" lon="5.41993">
        <ele>1598.1</ele>
        <time>2024-05-11T06:37:27.000Z</time>
      </trkpt>
      <trkpt lat="44.82708" lon="5.41998">
        <ele>1597.7</ele>
        <time>2024-05-11T06:37:30.000Z</time>
      </trkpt>
      <trkpt lat="44.82709" lon="5.42003">
        <ele>1597.1</ele>
        <time>2024-05-11T06:37:33.000Z</time>
      </trkpt>
      <trkpt lat="44.82708" lon="5.42005">
        <ele>1596.9</ele>
        <time>2024-05-11T06:37:35.000Z</time>
      </trkpt>
      <trkpt lat="44.82708" lon="5.42006">
        <ele>1596.9</ele>
        <time>2024-05-11T06:37:36.000Z</time>
      </trkpt>
      <trkpt lat="44.82707" lon="5.4201">
        <ele>1596.6</ele>
        <time>2024-05-11T06:37:40.000Z</time>
      </trkpt>
      <trkpt lat="44.82706" lon="5.42015">
        <ele>1596</ele>
        <time>2024-05-11T06:37:44.000Z</time>
      </trkpt>
      <trkpt lat="44.82702" lon="5.42025">
        <ele>1595.1</ele>
        <time>2024-05-11T06:37:52.000Z</time>
      </trkpt>
      <trkpt lat="44.82697" lon="5.42041">
        <ele>1594.4</ele>
        <time>2024-05-11T06:38:03.000Z</time>
      </trkpt>
      <trkpt lat="44.82698" lon="5.42046">
        <ele>1594.1</ele>
        <time>2024-05-11T06:38:07.000Z</time>
      </trkpt>
      <trkpt lat="44.82697" lon="5.42052">
        <ele>1594</ele>
        <time>2024-05-11T06:38:10.000Z</time>
      </trkpt>
      <trkpt lat="44.82695" lon="5.42057">
        <ele>1593.9</ele>
        <time>2024-05-11T06:38:13.000Z</time>
      </trkpt>
      <trkpt lat="44.82694" lon="5.42062">
        <ele>1593.4</ele>
        <time>2024-05-11T06:38:16.000Z</time>
      </trkpt>
      <trkpt lat="44.82693" lon="5.42065">
        <ele>1592.4</ele>
        <time>2024-05-11T06:38:18.000Z</time>
      </trkpt>
      <trkpt lat="44.82692" lon="5.42067">
        <ele>1591.7</ele>
        <time>2024-05-11T06:38:19.000Z</time>
      </trkpt>
      <trkpt lat="44.82692" lon="5.42069">
        <ele>1591.2</ele>
        <time>2024-05-11T06:38:21.000Z</time>
      </trkpt>
      <trkpt lat="44.82691" lon="5.42072">
        <ele>1590.5</ele>
        <time>2024-05-11T06:38:23.000Z</time>
      </trkpt>
      <trkpt lat="44.82689" lon="5.42075">
        <ele>1589.4</ele>
        <time>2024-05-11T06:38:26.000Z</time>
      </trkpt>
      <trkpt lat="44.82686" lon="5.42084">
        <ele>1587</ele>
        <time>2024-05-11T06:38:33.000Z</time>
      </trkpt>
      <trkpt lat="44.82686" lon="5.42085">
        <ele>1586.8</ele>
        <time>2024-05-11T06:38:34.000Z</time>
      </trkpt>
      <trkpt lat="44.82683" lon="5.42095">
        <ele>1584.9</ele>
        <time>2024-05-11T06:38:42.000Z</time>
      </trkpt>
      <trkpt lat="44.82683" lon="5.42097">
        <ele>1584.7</ele>
        <time>2024-05-11T06:38:43.000Z</time>
      </trkpt>
      <trkpt lat="44.82682" lon="5.42106">
        <ele>1583.7</ele>
        <time>2024-05-11T06:38:50.000Z</time>
      </trkpt>
      <trkpt lat="44.82682" lon="5.42108">
        <ele>1583.6</ele>
        <time>2024-05-11T06:38:51.000Z</time>
      </trkpt>
      <trkpt lat="44.82682" lon="5.42112">
        <ele>1583.2</ele>
        <time>2024-05-11T06:38:54.000Z</time>
      </trkpt>
      <trkpt lat="44.82682" lon="5.42115">
        <ele>1583.4</ele>
        <time>2024-05-11T06:38:58.000Z</time>
      </trkpt>
      <trkpt lat="44.82682" lon="5.42116">
        <ele>1583.5</ele>
        <time>2024-05-11T06:38:59.000Z</time>
      </trkpt>
      <trkpt lat="44.82684" lon="5.42122">
        <ele>1584.4</ele>
        <time>2024-05-11T06:39:06.000Z</time>
      </trkpt>
      <trkpt lat="44.82683" lon="5.42126">
        <ele>1584.2</ele>
        <time>2024-05-11T06:39:11.000Z</time>
      </trkpt>
      <trkpt lat="44.82684" lon="5.42138">
        <ele>1584.7</ele>
        <time>2024-05-11T06:39:17.000Z</time>
      </trkpt>
      <trkpt lat="44.82685" lon="5.42147">
        <ele>1585.4</ele>
        <time>2024-05-11T06:39:22.000Z</time>
      </trkpt>
      <trkpt lat="44.82685" lon="5.4215">
        <ele>1585.8</ele>
        <time>2024-05-11T06:39:24.000Z</time>
      </trkpt>
      <trkpt lat="44.82686" lon="5.42151">
        <ele>1586.1</ele>
        <time>2024-05-11T06:39:25.000Z</time>
      </trkpt>
      <trkpt lat="44.82688" lon="5.42159">
        <ele>1587.5</ele>
        <time>2024-05-11T06:39:32.000Z</time>
      </trkpt>
      <trkpt lat="44.82692" lon="5.42171">
        <ele>1589.9</ele>
        <time>2024-05-11T06:39:40.000Z</time>
      </trkpt>
      <trkpt lat="44.82693" lon="5.42174">
        <ele>1590.6</ele>
        <time>2024-05-11T06:39:42.000Z</time>
      </trkpt>
      <trkpt lat="44.82694" lon="5.42178">
        <ele>1591.4</ele>
        <time>2024-05-11T06:39:45.000Z</time>
      </trkpt>
      <trkpt lat="44.82696" lon="5.42182">
        <ele>1590.9</ele>
        <time>2024-05-11T06:39:48.000Z</time>
      </trkpt>
      <trkpt lat="44.82696" lon="5.42183">
        <ele>1591</ele>
        <time>2024-05-11T06:39:49.000Z</time>
      </trkpt>
      <trkpt lat="44.82697" lon="5.42192">
        <ele>1591</ele>
        <time>2024-05-11T06:39:55.000Z</time>
      </trkpt>
      <trkpt lat="44.82698" lon="5.42197">
        <ele>1590.7</ele>
        <time>2024-05-11T06:39:59.000Z</time>
      </trkpt>
      <trkpt lat="44.827" lon="5.422">
        <ele>1589.7</ele>
        <time>2024-05-11T06:40:01.000Z</time>
      </trkpt>
      <trkpt lat="44.82701" lon="5.42202">
        <ele>1589.3</ele>
        <time>2024-05-11T06:40:02.000Z</time>
      </trkpt>
      <trkpt lat="44.82701" lon="5.4221">
        <ele>1588.6</ele>
        <time>2024-05-11T06:40:07.000Z</time>
      </trkpt>
      <trkpt lat="44.82701" lon="5.42213">
        <ele>1588.3</ele>
        <time>2024-05-11T06:40:09.000Z</time>
      </trkpt>
      <trkpt lat="44.827" lon="5.42221">
        <ele>1588</ele>
        <time>2024-05-11T06:40:13.000Z</time>
      </trkpt>
      <trkpt lat="44.82699" lon="5.42227">
        <ele>1587.7</ele>
        <time>2024-05-11T06:40:16.000Z</time>
      </trkpt>
      <trkpt lat="44.82699" lon="5.42229">
        <ele>1587.6</ele>
        <time>2024-05-11T06:40:18.000Z</time>
      </trkpt>
      <trkpt lat="44.82699" lon="5.42231">
        <ele>1587.5</ele>
        <time>2024-05-11T06:40:19.000Z</time>
      </trkpt>
      <trkpt lat="44.82702" lon="5.4224">
        <ele>1586.7</ele>
        <time>2024-05-11T06:40:24.000Z</time>
      </trkpt>
      <trkpt lat="44.82704" lon="5.42244">
        <ele>1586.3</ele>
        <time>2024-05-11T06:40:27.000Z</time>
      </trkpt>
      <trkpt lat="44.82707" lon="5.42245">
        <ele>1585.8</ele>
        <time>2024-05-11T06:40:29.000Z</time>
      </trkpt>
      <trkpt lat="44.82708" lon="5.42253">
        <ele>1585.4</ele>
        <time>2024-05-11T06:40:33.000Z</time>
      </trkpt>
      <trkpt lat="44.82706" lon="5.42262">
        <ele>1584.8</ele>
        <time>2024-05-11T06:40:36.000Z</time>
      </trkpt>
      <trkpt lat="44.82706" lon="5.42264">
        <ele>1584.7</ele>
        <time>2024-05-11T06:40:38.000Z</time>
      </trkpt>
      <trkpt lat="44.82706" lon="5.42266">
        <ele>1584.5</ele>
        <time>2024-05-11T06:40:39.000Z</time>
      </trkpt>
      <trkpt lat="44.82708" lon="5.42269">
        <ele>1584.6</ele>
        <time>2024-05-11T06:40:41.000Z</time>
      </trkpt>
      <trkpt lat="44.82708" lon="5.42272">
        <ele>1584.7</ele>
        <time>2024-05-11T06:40:43.000Z</time>
      </trkpt>
      <trkpt lat="44.82709" lon="5.42274">
        <ele>1584.8</ele>
        <time>2024-05-11T06:40:44.000Z</time>
      </trkpt>
      <trkpt lat="44.8271" lon="5.42281">
        <ele>1584.7</ele>
        <time>2024-05-11T06:40:48.000Z</time>
      </trkpt>
      <trkpt lat="44.8271" lon="5.42282">
        <ele>1584.6</ele>
        <time>2024-05-11T06:40:49.000Z</time>
      </trkpt>
      <trkpt lat="44.8271" lon="5.42283">
        <ele>1584.7</ele>
        <time>2024-05-11T06:40:50.000Z</time>
      </trkpt>
      <trkpt lat="44.82715" lon="5.42284">
        <ele>1586.7</ele>
        <time>2024-05-11T06:40:53.000Z</time>
      </trkpt>
      <trkpt lat="44.82717" lon="5.42285">
        <ele>1587.9</ele>
        <time>2024-05-11T06:40:55.000Z</time>
      </trkpt>
      <trkpt lat="44.82719" lon="5.42286">
        <ele>1589</ele>
        <time>2024-05-11T06:40:57.000Z</time>
      </trkpt>
      <trkpt lat="44.82721" lon="5.42287">
        <ele>1590</ele>
        <time>2024-05-11T06:40:59.000Z</time>
      </trkpt>
      <trkpt lat="44.82722" lon="5.4229">
        <ele>1590.7</ele>
        <time>2024-05-11T06:41:01.000Z</time>
      </trkpt>
      <trkpt lat="44.82722" lon="5.42291">
        <ele>1590.9</ele>
        <time>2024-05-11T06:41:02.000Z</time>
      </trkpt>
      <trkpt lat="44.82723" lon="5.42293">
        <ele>1591.1</ele>
        <time>2024-05-11T06:41:04.000Z</time>
      </trkpt>
      <trkpt lat="44.82724" lon="5.42294">
        <ele>1591.1</ele>
        <time>2024-05-11T06:41:06.000Z</time>
      </trkpt>
      <trkpt lat="44.82724" lon="5.42295">
        <ele>1591.2</ele>
        <time>2024-05-11T06:41:07.000Z</time>
      </trkpt>
      <trkpt lat="44.82726" lon="5.42297">
        <ele>1591.3</ele>
        <time>2024-05-11T06:41:10.000Z</time>
      </trkpt>
      <trkpt lat="44.82726" lon="5.42298">
        <ele>1591.4</ele>
        <time>2024-05-11T06:41:11.000Z</time>
      </trkpt>
      <trkpt lat="44.82727" lon="5.42299">
        <ele>1591.4</ele>
        <time>2024-05-11T06:41:13.000Z</time>
      </trkpt>
      <trkpt lat="44.82728" lon="5.423">
        <ele>1591.5</ele>
        <time>2024-05-11T06:41:15.000Z</time>
      </trkpt>
      <trkpt lat="44.82729" lon="5.42305">
        <ele>1591.9</ele>
        <time>2024-05-11T06:41:19.000Z</time>
      </trkpt>
      <trkpt lat="44.82731" lon="5.42312">
        <ele>1592.3</ele>
        <time>2024-05-11T06:41:24.000Z</time>
      </trkpt>
      <trkpt lat="44.82731" lon="5.42313">
        <ele>1592.3</ele>
        <time>2024-05-11T06:41:25.000Z</time>
      </trkpt>
      <trkpt lat="44.82732" lon="5.42319">
        <ele>1592.6</ele>
        <time>2024-05-11T06:41:30.000Z</time>
      </trkpt>
      <trkpt lat="44.82732" lon="5.4232">
        <ele>1592.7</ele>
        <time>2024-05-11T06:41:31.000Z</time>
      </trkpt>
      <trkpt lat="44.82733" lon="5.42324">
        <ele>1593</ele>
        <time>2024-05-11T06:41:33.000Z</time>
      </trkpt>
      <trkpt lat="44.82734" lon="5.42325">
        <ele>1593.2</ele>
        <time>2024-05-11T06:41:35.000Z</time>
      </trkpt>
      <trkpt lat="44.82738" lon="5.4233">
        <ele>1594</ele>
        <time>2024-05-11T06:41:40.000Z</time>
      </trkpt>
      <trkpt lat="44.82737" lon="5.42333">
        <ele>1594.1</ele>
        <time>2024-05-11T06:41:42.000Z</time>
      </trkpt>
      <trkpt lat="44.82739" lon="5.42339">
        <ele>1594.7</ele>
        <time>2024-05-11T06:41:47.000Z</time>
      </trkpt>
      <trkpt lat="44.82739" lon="5.42341">
        <ele>1594.8</ele>
        <time>2024-05-11T06:41:49.000Z</time>
      </trkpt>
      <trkpt lat="44.82739" lon="5.42346">
        <ele>1595.2</ele>
        <time>2024-05-11T06:41:53.000Z</time>
      </trkpt>
      <trkpt lat="44.8274" lon="5.42347">
        <ele>1595.5</ele>
        <time>2024-05-11T06:41:54.000Z</time>
      </trkpt>
      <trkpt lat="44.82743" lon="5.42351">
        <ele>1596.5</ele>
        <time>2024-05-11T06:41:58.000Z</time>
      </trkpt>
      <trkpt lat="44.82743" lon="5.42353">
        <ele>1596.6</ele>
        <time>2024-05-11T06:42:00.000Z</time>
      </trkpt>
      <trkpt lat="44.82743" lon="5.42357">
        <ele>1597.2</ele>
        <time>2024-05-11T06:42:06.000Z</time>
      </trkpt>
      <trkpt lat="44.82745" lon="5.42363">
        <ele>1598.5</ele>
        <time>2024-05-11T06:42:12.000Z</time>
      </trkpt>
      <trkpt lat="44.82745" lon="5.42366">
        <ele>1598.8</ele>
        <time>2024-05-11T06:42:15.000Z</time>
      </trkpt>
      <trkpt lat="44.82744" lon="5.4237">
        <ele>1598.9</ele>
        <time>2024-05-11T06:42:19.000Z</time>
      </trkpt>
      <trkpt lat="44.82744" lon="5.42375">
        <ele>1599.4</ele>
        <time>2024-05-11T06:42:23.000Z</time>
      </trkpt>
      <trkpt lat="44.82743" lon="5.42379">
        <ele>1599.2</ele>
        <time>2024-05-11T06:42:27.000Z</time>
      </trkpt>
      <trkpt lat="44.82743" lon="5.42384">
        <ele>1599.9</ele>
        <time>2024-05-11T06:42:32.000Z</time>
      </trkpt>
      <trkpt lat="44.82744" lon="5.42385">
        <ele>1600.7</ele>
        <time>2024-05-11T06:42:34.000Z</time>
      </trkpt>
      <trkpt lat="44.82746" lon="5.42389">
        <ele>1602.4</ele>
        <time>2024-05-11T06:42:37.000Z</time>
      </trkpt>
      <trkpt lat="44.82747" lon="5.4239">
        <ele>1602.8</ele>
        <time>2024-05-11T06:42:39.000Z</time>
      </trkpt>
      <trkpt lat="44.82749" lon="5.42393">
        <ele>1604.5</ele>
        <time>2024-05-11T06:42:45.000Z</time>
      </trkpt>
      <trkpt lat="44.82749" lon="5.42394">
        <ele>1604.8</ele>
        <time>2024-05-11T06:42:46.000Z</time>
      </trkpt>
      <trkpt lat="44.82751" lon="5.42399">
        <ele>1605.1</ele>
        <time>2024-05-11T06:42:52.000Z</time>
      </trkpt>
      <trkpt lat="44.82752" lon="5.42401">
        <ele>1605.1</ele>
        <time>2024-05-11T06:42:54.000Z</time>
      </trkpt>
      <trkpt lat="44.82753" lon="5.42407">
        <ele>1605</ele>
        <time>2024-05-11T06:43:00.000Z</time>
      </trkpt>
      <trkpt lat="44.82754" lon="5.42408">
        <ele>1605</ele>
        <time>2024-05-11T06:43:01.000Z</time>
      </trkpt>
      <trkpt lat="44.82755" lon="5.42421">
        <ele>1605</ele>
        <time>2024-05-11T06:43:10.000Z</time>
      </trkpt>
      <trkpt lat="44.82757" lon="5.42436">
        <ele>1604.5</ele>
        <time>2024-05-11T06:43:20.000Z</time>
      </trkpt>
      <trkpt lat="44.82757" lon="5.42437">
        <ele>1604.4</ele>
        <time>2024-05-11T06:43:21.000Z</time>
      </trkpt>
      <trkpt lat="44.82758" lon="5.42445">
        <ele>1604.2</ele>
        <time>2024-05-11T06:43:27.000Z</time>
      </trkpt>
      <trkpt lat="44.82759" lon="5.42454">
        <ele>1603.7</ele>
        <time>2024-05-11T06:43:32.000Z</time>
      </trkpt>
      <trkpt lat="44.82761" lon="5.42469">
        <ele>1602.9</ele>
        <time>2024-05-11T06:43:43.000Z</time>
      </trkpt>
      <trkpt lat="44.82761" lon="5.42485">
        <ele>1602.8</ele>
        <time>2024-05-11T06:43:53.000Z</time>
      </trkpt>
      <trkpt lat="44.82759" lon="5.42497">
        <ele>1602.7</ele>
        <time>2024-05-11T06:44:02.000Z</time>
      </trkpt>
      <trkpt lat="44.8276" lon="5.42509">
        <ele>1603.5</ele>
        <time>2024-05-11T06:44:10.000Z</time>
      </trkpt>
      <trkpt lat="44.82759" lon="5.4252">
        <ele>1604</ele>
        <time>2024-05-11T06:44:18.000Z</time>
      </trkpt>
      <trkpt lat="44.82759" lon="5.42521">
        <ele>1604.2</ele>
        <time>2024-05-11T06:44:19.000Z</time>
      </trkpt>
      <trkpt lat="44.8276" lon="5.42533">
        <ele>1605.1</ele>
        <time>2024-05-11T06:44:30.000Z</time>
      </trkpt>
      <trkpt lat="44.82763" lon="5.42535">
        <ele>1606</ele>
        <time>2024-05-11T06:44:35.000Z</time>
      </trkpt>
      <trkpt lat="44.82764" lon="5.42536">
        <ele>1606.3</ele>
        <time>2024-05-11T06:44:37.000Z</time>
      </trkpt>
      <trkpt lat="44.82765" lon="5.42536">
        <ele>1606.8</ele>
        <time>2024-05-11T06:44:39.000Z</time>
      </trkpt>
      <trkpt lat="44.82766" lon="5.42539">
        <ele>1607.4</ele>
        <time>2024-05-11T06:44:43.000Z</time>
      </trkpt>
      <trkpt lat="44.82767" lon="5.4254">
        <ele>1607.6</ele>
        <time>2024-05-11T06:44:44.000Z</time>
      </trkpt>
      <trkpt lat="44.82768" lon="5.42544">
        <ele>1608.2</ele>
        <time>2024-05-11T06:44:49.000Z</time>
      </trkpt>
      <trkpt lat="44.82768" lon="5.42547">
        <ele>1608.3</ele>
        <time>2024-05-11T06:44:51.000Z</time>
      </trkpt>
      <trkpt lat="44.82767" lon="5.42551">
        <ele>1608.5</ele>
        <time>2024-05-11T06:44:56.000Z</time>
      </trkpt>
      <trkpt lat="44.82766" lon="5.42553">
        <ele>1608.1</ele>
        <time>2024-05-11T06:44:59.000Z</time>
      </trkpt>
      <trkpt lat="44.82766" lon="5.42557">
        <ele>1608.6</ele>
        <time>2024-05-11T06:45:04.000Z</time>
      </trkpt>
      <trkpt lat="44.82766" lon="5.42559">
        <ele>1608.5</ele>
        <time>2024-05-11T06:45:06.000Z</time>
      </trkpt>
      <trkpt lat="44.82765" lon="5.42563">
        <ele>1608.5</ele>
        <time>2024-05-11T06:45:10.000Z</time>
      </trkpt>
      <trkpt lat="44.82765" lon="5.42565">
        <ele>1608.5</ele>
        <time>2024-05-11T06:45:11.000Z</time>
      </trkpt>
      <trkpt lat="44.82765" lon="5.42569">
        <ele>1608.7</ele>
        <time>2024-05-11T06:45:14.000Z</time>
      </trkpt>
      <trkpt lat="44.82764" lon="5.42575">
        <ele>1609.1</ele>
        <time>2024-05-11T06:45:19.000Z</time>
      </trkpt>
      <trkpt lat="44.82767" lon="5.42579">
        <ele>1610.4</ele>
        <time>2024-05-11T06:45:23.000Z</time>
      </trkpt>
      <trkpt lat="44.82766" lon="5.42583">
        <ele>1610.6</ele>
        <time>2024-05-11T06:45:26.000Z</time>
      </trkpt>
      <trkpt lat="44.82768" lon="5.42588">
        <ele>1611.3</ele>
        <time>2024-05-11T06:45:32.000Z</time>
      </trkpt>
      <trkpt lat="44.82769" lon="5.42597">
        <ele>1612.1</ele>
        <time>2024-05-11T06:45:39.000Z</time>
      </trkpt>
      <trkpt lat="44.82769" lon="5.42601">
        <ele>1612.3</ele>
        <time>2024-05-11T06:45:42.000Z</time>
      </trkpt>
      <trkpt lat="44.8277" lon="5.42604">
        <ele>1612.9</ele>
        <time>2024-05-11T06:45:44.000Z</time>
      </trkpt>
      <trkpt lat="44.82771" lon="5.42605">
        <ele>1613.2</ele>
        <time>2024-05-11T06:45:46.000Z</time>
      </trkpt>
      <trkpt lat="44.82774" lon="5.4262">
        <ele>1615.1</ele>
        <time>2024-05-11T06:45:55.000Z</time>
      </trkpt>
      <trkpt lat="44.82775" lon="5.42622">
        <ele>1615.3</ele>
        <time>2024-05-11T06:45:57.000Z</time>
      </trkpt>
      <trkpt lat="44.82774" lon="5.42624">
        <ele>1615.2</ele>
        <time>2024-05-11T06:46:00.000Z</time>
      </trkpt>
      <trkpt lat="44.82773" lon="5.42626">
        <ele>1615.2</ele>
        <time>2024-05-11T06:46:02.000Z</time>
      </trkpt>
      <trkpt lat="44.82772" lon="5.42631">
        <ele>1615.1</ele>
        <time>2024-05-11T06:46:06.000Z</time>
      </trkpt>
      <trkpt lat="44.82775" lon="5.42641">
        <ele>1616.3</ele>
        <time>2024-05-11T06:46:13.000Z</time>
      </trkpt>
      <trkpt lat="44.82779" lon="5.4265">
        <ele>1616.4</ele>
        <time>2024-05-11T06:46:21.000Z</time>
      </trkpt>
      <trkpt lat="44.82779" lon="5.42657">
        <ele>1616.2</ele>
        <time>2024-05-11T06:46:25.000Z</time>
      </trkpt>
      <trkpt lat="44.82781" lon="5.42667">
        <ele>1615.4</ele>
        <time>2024-05-11T06:46:35.000Z</time>
      </trkpt>
      <trkpt lat="44.82781" lon="5.42674">
        <ele>1614.9</ele>
        <time>2024-05-11T06:46:40.000Z</time>
      </trkpt>
      <trkpt lat="44.82782" lon="5.42676">
        <ele>1614.7</ele>
        <time>2024-05-11T06:46:41.000Z</time>
      </trkpt>
      <trkpt lat="44.82784" lon="5.42682">
        <ele>1613.9</ele>
        <time>2024-05-11T06:46:45.000Z</time>
      </trkpt>
      <trkpt lat="44.82786" lon="5.42685">
        <ele>1613.4</ele>
        <time>2024-05-11T06:46:47.000Z</time>
      </trkpt>
      <trkpt lat="44.82787" lon="5.4269">
        <ele>1612.8</ele>
        <time>2024-05-11T06:46:50.000Z</time>
      </trkpt>
      <trkpt lat="44.82788" lon="5.42695">
        <ele>1612.4</ele>
        <time>2024-05-11T06:46:54.000Z</time>
      </trkpt>
      <trkpt lat="44.82788" lon="5.42696">
        <ele>1612.2</ele>
        <time>2024-05-11T06:46:55.000Z</time>
      </trkpt>
      <trkpt lat="44.82787" lon="5.42703">
        <ele>1611.7</ele>
        <time>2024-05-11T06:46:59.000Z</time>
      </trkpt>
      <trkpt lat="44.82786" lon="5.42706">
        <ele>1611.4</ele>
        <time>2024-05-11T06:47:01.000Z</time>
      </trkpt>
      <trkpt lat="44.82786" lon="5.42711">
        <ele>1610.7</ele>
        <time>2024-05-11T06:47:05.000Z</time>
      </trkpt>
      <trkpt lat="44.82786" lon="5.42717">
        <ele>1610</ele>
        <time>2024-05-11T06:47:09.000Z</time>
      </trkpt>
      <trkpt lat="44.82784" lon="5.42732">
        <ele>1608.2</ele>
        <time>2024-05-11T06:47:19.000Z</time>
      </trkpt>
      <trkpt lat="44.82783" lon="5.42737">
        <ele>1607.8</ele>
        <time>2024-05-11T06:47:22.000Z</time>
      </trkpt>
      <trkpt lat="44.82781" lon="5.42742">
        <ele>1607.5</ele>
        <time>2024-05-11T06:47:25.000Z</time>
      </trkpt>
      <trkpt lat="44.8278" lon="5.42745">
        <ele>1607.3</ele>
        <time>2024-05-11T06:47:29.000Z</time>
      </trkpt>
      <trkpt lat="44.8278" lon="5.42747">
        <ele>1607.1</ele>
        <time>2024-05-11T06:47:31.000Z</time>
      </trkpt>
      <trkpt lat="44.8278" lon="5.42749">
        <ele>1606.7</ele>
        <time>2024-05-11T06:47:33.000Z</time>
      </trkpt>
      <trkpt lat="44.8278" lon="5.42751">
        <ele>1606.5</ele>
        <time>2024-05-11T06:47:34.000Z</time>
      </trkpt>
      <trkpt lat="44.8278" lon="5.42752">
        <ele>1606.4</ele>
        <time>2024-05-11T06:47:35.000Z</time>
      </trkpt>
      <trkpt lat="44.82777" lon="5.42762">
        <ele>1604.9</ele>
        <time>2024-05-11T06:47:41.000Z</time>
      </trkpt>
      <trkpt lat="44.82776" lon="5.42763">
        <ele>1604.3</ele>
        <time>2024-05-11T06:47:42.000Z</time>
      </trkpt>
      <trkpt lat="44.82774" lon="5.42766">
        <ele>1603.4</ele>
        <time>2024-05-11T06:47:44.000Z</time>
      </trkpt>
      <trkpt lat="44.82774" lon="5.42769">
        <ele>1602.8</ele>
        <time>2024-05-11T06:47:46.000Z</time>
      </trkpt>
      <trkpt lat="44.82774" lon="5.42772">
        <ele>1602.3</ele>
        <time>2024-05-11T06:47:49.000Z</time>
      </trkpt>
      <trkpt lat="44.82773" lon="5.42776">
        <ele>1601.5</ele>
        <time>2024-05-11T06:47:53.000Z</time>
      </trkpt>
      <trkpt lat="44.82772" lon="5.42778">
        <ele>1601</ele>
        <time>2024-05-11T06:47:55.000Z</time>
      </trkpt>
      <trkpt lat="44.82771" lon="5.42784">
        <ele>1600</ele>
        <time>2024-05-11T06:48:00.000Z</time>
      </trkpt>
      <trkpt lat="44.82771" lon="5.42792">
        <ele>1599.1</ele>
        <time>2024-05-11T06:48:07.000Z</time>
      </trkpt>
      <trkpt lat="44.82771" lon="5.42796">
        <ele>1598.7</ele>
        <time>2024-05-11T06:48:10.000Z</time>
      </trkpt>
      <trkpt lat="44.8277" lon="5.42801">
        <ele>1597.7</ele>
        <time>2024-05-11T06:48:14.000Z</time>
      </trkpt>
      <trkpt lat="44.82769" lon="5.42804">
        <ele>1597.2</ele>
        <time>2024-05-11T06:48:16.000Z</time>
      </trkpt>
      <trkpt lat="44.82769" lon="5.42809">
        <ele>1596.9</ele>
        <time>2024-05-11T06:48:20.000Z</time>
      </trkpt>
      <trkpt lat="44.82769" lon="5.42815">
        <ele>1596.4</ele>
        <time>2024-05-11T06:48:25.000Z</time>
      </trkpt>
      <trkpt lat="44.82769" lon="5.4282">
        <ele>1596</ele>
        <time>2024-05-11T06:48:29.000Z</time>
      </trkpt>
      <trkpt lat="44.82768" lon="5.42826">
        <ele>1595.5</ele>
        <time>2024-05-11T06:48:34.000Z</time>
      </trkpt>
      <trkpt lat="44.82768" lon="5.42828">
        <ele>1595.3</ele>
        <time>2024-05-11T06:48:36.000Z</time>
      </trkpt>
      <trkpt lat="44.82768" lon="5.4283">
        <ele>1595.2</ele>
        <time>2024-05-11T06:48:38.000Z</time>
      </trkpt>
      <trkpt lat="44.82769" lon="5.42835">
        <ele>1594.9</ele>
        <time>2024-05-11T06:48:41.000Z</time>
      </trkpt>
      <trkpt lat="44.82769" lon="5.42836">
        <ele>1594.8</ele>
        <time>2024-05-11T06:48:42.000Z</time>
      </trkpt>
      <trkpt lat="44.82769" lon="5.42838">
        <ele>1594.5</ele>
        <time>2024-05-11T06:48:44.000Z</time>
      </trkpt>
      <trkpt lat="44.82769" lon="5.42842">
        <ele>1594.2</ele>
        <time>2024-05-11T06:48:47.000Z</time>
      </trkpt>
      <trkpt lat="44.8277" lon="5.4285">
        <ele>1593.7</ele>
        <time>2024-05-11T06:48:54.000Z</time>
      </trkpt>
      <trkpt lat="44.82771" lon="5.42853">
        <ele>1593.5</ele>
        <time>2024-05-11T06:48:56.000Z</time>
      </trkpt>
      <trkpt lat="44.8277" lon="5.42855">
        <ele>1593.2</ele>
        <time>2024-05-11T06:48:58.000Z</time>
      </trkpt>
      <trkpt lat="44.82769" lon="5.42857">
        <ele>1592.8</ele>
        <time>2024-05-11T06:49:00.000Z</time>
      </trkpt>
      <trkpt lat="44.82768" lon="5.4286">
        <ele>1592.3</ele>
        <time>2024-05-11T06:49:02.000Z</time>
      </trkpt>
      <trkpt lat="44.82768" lon="5.42861">
        <ele>1592.2</ele>
        <time>2024-05-11T06:49:03.000Z</time>
      </trkpt>
      <trkpt lat="44.82768" lon="5.42863">
        <ele>1592.1</ele>
        <time>2024-05-11T06:49:04.000Z</time>
      </trkpt>
      <trkpt lat="44.82767" lon="5.42865">
        <ele>1592</ele>
        <time>2024-05-11T06:49:06.000Z</time>
      </trkpt>
      <trkpt lat="44.82767" lon="5.42866">
        <ele>1591.9</ele>
        <time>2024-05-11T06:49:07.000Z</time>
      </trkpt>
      <trkpt lat="44.82767" lon="5.42867">
        <ele>1591.8</ele>
        <time>2024-05-11T06:49:11.000Z</time>
      </trkpt>
      <trkpt lat="44.82767" lon="5.42867">
        <ele>1591.8</ele>
        <time>2024-05-11T06:49:20.000Z</time>
      </trkpt>
      <trkpt lat="44.8277" lon="5.42868">
        <ele>1592.3</ele>
        <time>2024-05-11T06:49:28.000Z</time>
      </trkpt>
      <trkpt lat="44.8277" lon="5.42868">
        <ele>1592.5</ele>
        <time>2024-05-11T06:49:29.000Z</time>
      </trkpt>
      <trkpt lat="44.82773" lon="5.42873">
        <ele>1593</ele>
        <time>2024-05-11T06:49:35.000Z</time>
      </trkpt>
      <trkpt lat="44.82774" lon="5.42874">
        <ele>1593.1</ele>
        <time>2024-05-11T06:49:36.000Z</time>
      </trkpt>
      <trkpt lat="44.82775" lon="5.42877">
        <ele>1593.4</ele>
        <time>2024-05-11T06:49:38.000Z</time>
      </trkpt>
      <trkpt lat="44.82777" lon="5.42881">
        <ele>1593.7</ele>
        <time>2024-05-11T06:49:41.000Z</time>
      </trkpt>
      <trkpt lat="44.82778" lon="5.42884">
        <ele>1594</ele>
        <time>2024-05-11T06:49:43.000Z</time>
      </trkpt>
      <trkpt lat="44.82778" lon="5.42892">
        <ele>1594.3</ele>
        <time>2024-05-11T06:49:49.000Z</time>
      </trkpt>
      <trkpt lat="44.82778" lon="5.42894">
        <ele>1594.5</ele>
        <time>2024-05-11T06:49:51.000Z</time>
      </trkpt>
      <trkpt lat="44.82778" lon="5.42895">
        <ele>1594.7</ele>
        <time>2024-05-11T06:49:52.000Z</time>
      </trkpt>
      <trkpt lat="44.8278" lon="5.42907">
        <ele>1595.6</ele>
        <time>2024-05-11T06:50:00.000Z</time>
      </trkpt>
      <trkpt lat="44.82781" lon="5.42915">
        <ele>1596.5</ele>
        <time>2024-05-11T06:50:06.000Z</time>
      </trkpt>
      <trkpt lat="44.82781" lon="5.42918">
        <ele>1596.7</ele>
        <time>2024-05-11T06:50:08.000Z</time>
      </trkpt>
      <trkpt lat="44.82782" lon="5.42922">
        <ele>1596.7</ele>
        <time>2024-05-11T06:50:11.000Z</time>
      </trkpt>
      <trkpt lat="44.82782" lon="5.42923">
        <ele>1596.8</ele>
        <time>2024-05-11T06:50:12.000Z</time>
      </trkpt>
      <trkpt lat="44.82782" lon="5.4293">
        <ele>1597</ele>
        <time>2024-05-11T06:50:17.000Z</time>
      </trkpt>
      <trkpt lat="44.82783" lon="5.42931">
        <ele>1597.1</ele>
        <time>2024-05-11T06:50:18.000Z</time>
      </trkpt>
      <trkpt lat="44.82784" lon="5.42941">
        <ele>1597.4</ele>
        <time>2024-05-11T06:50:24.000Z</time>
      </trkpt>
      <trkpt lat="44.82784" lon="5.42942">
        <ele>1597.5</ele>
        <time>2024-05-11T06:50:25.000Z</time>
      </trkpt>
      <trkpt lat="44.82784" lon="5.42943">
        <ele>1597.5</ele>
        <time>2024-05-11T06:50:26.000Z</time>
      </trkpt>
      <trkpt lat="44.82785" lon="5.42946">
        <ele>1597.7</ele>
        <time>2024-05-11T06:50:28.000Z</time>
      </trkpt>
      <trkpt lat="44.82785" lon="5.4295">
        <ele>1598.1</ele>
        <time>2024-05-11T06:50:31.000Z</time>
      </trkpt>
      <trkpt lat="44.82785" lon="5.42953">
        <ele>1598.4</ele>
        <time>2024-05-11T06:50:33.000Z</time>
      </trkpt>
      <trkpt lat="44.82786" lon="5.42957">
        <ele>1598.9</ele>
        <time>2024-05-11T06:50:37.000Z</time>
      </trkpt>
      <trkpt lat="44.82787" lon="5.42959">
        <ele>1599</ele>
        <time>2024-05-11T06:50:38.000Z</time>
      </trkpt>
      <trkpt lat="44.82787" lon="5.42963">
        <ele>1599.6</ele>
        <time>2024-05-11T06:50:42.000Z</time>
      </trkpt>
      <trkpt lat="44.82787" lon="5.42965">
        <ele>1599.8</ele>
        <time>2024-05-11T06:50:43.000Z</time>
      </trkpt>
      <trkpt lat="44.82787" lon="5.4297">
        <ele>1600.4</ele>
        <time>2024-05-11T06:50:47.000Z</time>
      </trkpt>
      <trkpt lat="44.82787" lon="5.42973">
        <ele>1600.7</ele>
        <time>2024-05-11T06:50:49.000Z</time>
      </trkpt>
      <trkpt lat="44.82787" lon="5.42976">
        <ele>1601.4</ele>
        <time>2024-05-11T06:50:52.000Z</time>
      </trkpt>
      <trkpt lat="44.82787" lon="5.42978">
        <ele>1601.7</ele>
        <time>2024-05-11T06:50:54.000Z</time>
      </trkpt>
      <trkpt lat="44.82787" lon="5.42982">
        <ele>1602.5</ele>
        <time>2024-05-11T06:50:58.000Z</time>
      </trkpt>
      <trkpt lat="44.82789" lon="5.42986">
        <ele>1603.1</ele>
        <time>2024-05-11T06:51:02.000Z</time>
      </trkpt>
      <trkpt lat="44.8279" lon="5.42987">
        <ele>1603.3</ele>
        <time>2024-05-11T06:51:03.000Z</time>
      </trkpt>
      <trkpt lat="44.82792" lon="5.42992">
        <ele>1604</ele>
        <time>2024-05-11T06:51:08.000Z</time>
      </trkpt>
      <trkpt lat="44.82793" lon="5.42993">
        <ele>1604.1</ele>
        <time>2024-05-11T06:51:09.000Z</time>
      </trkpt>
      <trkpt lat="44.82793" lon="5.42997">
        <ele>1605</ele>
        <time>2024-05-11T06:51:14.000Z</time>
      </trkpt>
      <trkpt lat="44.82793" lon="5.42998">
        <ele>1605.1</ele>
        <time>2024-05-11T06:51:15.000Z</time>
      </trkpt>
      <trkpt lat="44.82794" lon="5.42998">
        <ele>1605.1</ele>
        <time>2024-05-11T06:51:16.000Z</time>
      </trkpt>
      <trkpt lat="44.82795" lon="5.43">
        <ele>1605.4</ele>
        <time>2024-05-11T06:51:18.000Z</time>
      </trkpt>
      <trkpt lat="44.82794" lon="5.43005">
        <ele>1606.5</ele>
        <time>2024-05-11T06:51:23.000Z</time>
      </trkpt>
      <trkpt lat="44.82793" lon="5.43008">
        <ele>1607.2</ele>
        <time>2024-05-11T06:51:27.000Z</time>
      </trkpt>
      <trkpt lat="44.82794" lon="5.4301">
        <ele>1607.7</ele>
        <time>2024-05-11T06:51:30.000Z</time>
      </trkpt>
      <trkpt lat="44.82794" lon="5.43011">
        <ele>1608</ele>
        <time>2024-05-11T06:51:31.000Z</time>
      </trkpt>
      <trkpt lat="44.82793" lon="5.43013">
        <ele>1608.6</ele>
        <time>2024-05-11T06:51:33.000Z</time>
      </trkpt>
      <trkpt lat="44.82793" lon="5.43016">
        <ele>1609.2</ele>
        <time>2024-05-11T06:51:36.000Z</time>
      </trkpt>
      <trkpt lat="44.82793" lon="5.43017">
        <ele>1609.4</ele>
        <time>2024-05-11T06:51:37.000Z</time>
      </trkpt>
      <trkpt lat="44.82793" lon="5.43021">
        <ele>1610.3</ele>
        <time>2024-05-11T06:51:43.000Z</time>
      </trkpt>
      <trkpt lat="44.82792" lon="5.43022">
        <ele>1610.5</ele>
        <time>2024-05-11T06:51:44.000Z</time>
      </trkpt>
      <trkpt lat="44.82792" lon="5.43025">
        <ele>1611.3</ele>
        <time>2024-05-11T06:51:49.000Z</time>
      </trkpt>
      <trkpt lat="44.8279" lon="5.43026">
        <ele>1611.7</ele>
        <time>2024-05-11T06:51:51.000Z</time>
      </trkpt>
      <trkpt lat="44.82788" lon="5.43029">
        <ele>1612.4</ele>
        <time>2024-05-11T06:51:53.000Z</time>
      </trkpt>
      <trkpt lat="44.82788" lon="5.4303">
        <ele>1612.7</ele>
        <time>2024-05-11T06:51:54.000Z</time>
      </trkpt>
      <trkpt lat="44.8279" lon="5.43033">
        <ele>1613.2</ele>
        <time>2024-05-11T06:51:57.000Z</time>
      </trkpt>
      <trkpt lat="44.82793" lon="5.43035">
        <ele>1613.3</ele>
        <time>2024-05-11T06:52:00.000Z</time>
      </trkpt>
      <trkpt lat="44.82794" lon="5.43039">
        <ele>1614.2</ele>
        <time>2024-05-11T06:52:05.000Z</time>
      </trkpt>
      <trkpt lat="44.82795" lon="5.43042">
        <ele>1614.8</ele>
        <time>2024-05-11T06:52:07.000Z</time>
      </trkpt>
      <trkpt lat="44.82794" lon="5.43044">
        <ele>1615.2</ele>
        <time>2024-05-11T06:52:10.000Z</time>
      </trkpt>
      <trkpt lat="44.82795" lon="5.43046">
        <ele>1615.5</ele>
        <time>2024-05-11T06:52:12.000Z</time>
      </trkpt>
      <trkpt lat="44.82796" lon="5.43047">
        <ele>1615.7</ele>
        <time>2024-05-11T06:52:16.000Z</time>
      </trkpt>
      <trkpt lat="44.82796" lon="5.43047">
        <ele>1615.6</ele>
        <time>2024-05-11T06:52:17.000Z</time>
      </trkpt>
      <trkpt lat="44.82798" lon="5.43048">
        <ele>1615.7</ele>
        <time>2024-05-11T06:52:22.000Z</time>
      </trkpt>
      <trkpt lat="44.82798" lon="5.4305">
        <ele>1616</ele>
        <time>2024-05-11T06:52:25.000Z</time>
      </trkpt>
      <trkpt lat="44.82801" lon="5.43056">
        <ele>1616.8</ele>
        <time>2024-05-11T06:52:32.000Z</time>
      </trkpt>
      <trkpt lat="44.82801" lon="5.43056">
        <ele>1616.7</ele>
        <time>2024-05-11T06:52:34.000Z</time>
      </trkpt>
      <trkpt lat="44.82803" lon="5.4306">
        <ele>1617.4</ele>
        <time>2024-05-11T06:52:39.000Z</time>
      </trkpt>
      <trkpt lat="44.82803" lon="5.43063">
        <ele>1617.9</ele>
        <time>2024-05-11T06:52:42.000Z</time>
      </trkpt>
      <trkpt lat="44.82803" lon="5.43065">
        <ele>1618.4</ele>
        <time>2024-05-11T06:52:45.000Z</time>
      </trkpt>
      <trkpt lat="44.82803" lon="5.43068">
        <ele>1619</ele>
        <time>2024-05-11T06:52:50.000Z</time>
      </trkpt>
      <trkpt lat="44.82803" lon="5.43069">
        <ele>1619.2</ele>
        <time>2024-05-11T06:52:51.000Z</time>
      </trkpt>
      <trkpt lat="44.82805" lon="5.4307">
        <ele>1619.3</ele>
        <time>2024-05-11T06:52:56.000Z</time>
      </trkpt>
      <trkpt lat="44.82805" lon="5.43071">
        <ele>1619.5</ele>
        <time>2024-05-11T06:52:58.000Z</time>
      </trkpt>
      <trkpt lat="44.82805" lon="5.43076">
        <ele>1620.5</ele>
        <time>2024-05-11T06:53:03.000Z</time>
      </trkpt>
      <trkpt lat="44.82807" lon="5.43079">
        <ele>1621</ele>
        <time>2024-05-11T06:53:07.000Z</time>
      </trkpt>
      <trkpt lat="44.82807" lon="5.4308">
        <ele>1621</ele>
        <time>2024-05-11T06:53:08.000Z</time>
      </trkpt>
      <trkpt lat="44.82809" lon="5.43083">
        <ele>1621.4</ele>
        <time>2024-05-11T06:53:15.000Z</time>
      </trkpt>
      <trkpt lat="44.82811" lon="5.43085">
        <ele>1621.5</ele>
        <time>2024-05-11T06:53:17.000Z</time>
      </trkpt>
      <trkpt lat="44.82812" lon="5.43085">
        <ele>1621.5</ele>
        <time>2024-05-11T06:53:18.000Z</time>
      </trkpt>
      <trkpt lat="44.82812" lon="5.43086">
        <ele>1621.6</ele>
        <time>2024-05-11T06:53:19.000Z</time>
      </trkpt>
      <trkpt lat="44.82813" lon="5.43088">
        <ele>1621.9</ele>
        <time>2024-05-11T06:53:21.000Z</time>
      </trkpt>
      <trkpt lat="44.82814" lon="5.43091">
        <ele>1622.3</ele>
        <time>2024-05-11T06:53:25.000Z</time>
      </trkpt>
      <trkpt lat="44.82809" lon="5.43096">
        <ele>1623.9</ele>
        <time>2024-05-11T06:53:31.000Z</time>
      </trkpt>
      <trkpt lat="44.82811" lon="5.43098">
        <ele>1624.1</ele>
        <time>2024-05-11T06:53:33.000Z</time>
      </trkpt>
      <trkpt lat="44.82807" lon="5.43102">
        <ele>1625.3</ele>
        <time>2024-05-11T06:53:38.000Z</time>
      </trkpt>
      <trkpt lat="44.82805" lon="5.43103">
        <ele>1625.7</ele>
        <time>2024-05-11T06:53:42.000Z</time>
      </trkpt>
      <trkpt lat="44.82805" lon="5.43105">
        <ele>1626</ele>
        <time>2024-05-11T06:53:44.000Z</time>
      </trkpt>
      <trkpt lat="44.82807" lon="5.43109">
        <ele>1626.4</ele>
        <time>2024-05-11T06:53:49.000Z</time>
      </trkpt>
      <trkpt lat="44.8281" lon="5.43111">
        <ele>1626.7</ele>
        <time>2024-05-11T06:53:55.000Z</time>
      </trkpt>
      <trkpt lat="44.8281" lon="5.43112">
        <ele>1626.9</ele>
        <time>2024-05-11T06:53:57.000Z</time>
      </trkpt>
      <trkpt lat="44.8281" lon="5.43114">
        <ele>1627.4</ele>
        <time>2024-05-11T06:54:01.000Z</time>
      </trkpt>
      <trkpt lat="44.8281" lon="5.43118">
        <ele>1628.4</ele>
        <time>2024-05-11T06:54:06.000Z</time>
      </trkpt>
      <trkpt lat="44.8281" lon="5.43119">
        <ele>1628.6</ele>
        <time>2024-05-11T06:54:07.000Z</time>
      </trkpt>
      <trkpt lat="44.82809" lon="5.43124">
        <ele>1630</ele>
        <time>2024-05-11T06:54:12.000Z</time>
      </trkpt>
      <trkpt lat="44.82807" lon="5.43125">
        <ele>1630.4</ele>
        <time>2024-05-11T06:54:14.000Z</time>
      </trkpt>
      <trkpt lat="44.82806" lon="5.43125">
        <ele>1630.4</ele>
        <time>2024-05-11T06:54:16.000Z</time>
      </trkpt>
      <trkpt lat="44.82809" lon="5.43128">
        <ele>1630.9</ele>
        <time>2024-05-11T06:54:18.000Z</time>
      </trkpt>
      <trkpt lat="44.8281" lon="5.43131">
        <ele>1631.6</ele>
        <time>2024-05-11T06:54:20.000Z</time>
      </trkpt>
      <trkpt lat="44.82811" lon="5.43133">
        <ele>1631.8</ele>
        <time>2024-05-11T06:54:21.000Z</time>
      </trkpt>
      <trkpt lat="44.82814" lon="5.43134">
        <ele>1631.9</ele>
        <time>2024-05-11T06:54:23.000Z</time>
      </trkpt>
      <trkpt lat="44.82815" lon="5.43135">
        <ele>1632.1</ele>
        <time>2024-05-11T06:54:24.000Z</time>
      </trkpt>
      <trkpt lat="44.82815" lon="5.43136">
        <ele>1632.3</ele>
        <time>2024-05-11T06:54:25.000Z</time>
      </trkpt>
      <trkpt lat="44.82816" lon="5.43138">
        <ele>1632.8</ele>
        <time>2024-05-11T06:54:28.000Z</time>
      </trkpt>
      <trkpt lat="44.82817" lon="5.43142">
        <ele>1633.2</ele>
        <time>2024-05-11T06:54:33.000Z</time>
      </trkpt>
      <trkpt lat="44.82818" lon="5.43142">
        <ele>1633.2</ele>
        <time>2024-05-11T06:54:34.000Z</time>
      </trkpt>
      <trkpt lat="44.82819" lon="5.43147">
        <ele>1633.8</ele>
        <time>2024-05-11T06:54:39.000Z</time>
      </trkpt>
      <trkpt lat="44.82819" lon="5.43148">
        <ele>1634.1</ele>
        <time>2024-05-11T06:54:41.000Z</time>
      </trkpt>
      <trkpt lat="44.82819" lon="5.43154">
        <ele>1635</ele>
        <time>2024-05-11T06:54:47.000Z</time>
      </trkpt>
      <trkpt lat="44.8282" lon="5.43156">
        <ele>1635.1</ele>
        <time>2024-05-11T06:54:49.000Z</time>
      </trkpt>
      <trkpt lat="44.82823" lon="5.43161">
        <ele>1635.7</ele>
        <time>2024-05-11T06:54:55.000Z</time>
      </trkpt>
      <trkpt lat="44.82824" lon="5.43162">
        <ele>1635.9</ele>
        <time>2024-05-11T06:54:57.000Z</time>
      </trkpt>
      <trkpt lat="44.82825" lon="5.43164">
        <ele>1636.2</ele>
        <time>2024-05-11T06:55:00.000Z</time>
      </trkpt>
      <trkpt lat="44.82825" lon="5.43166">
        <ele>1636.4</ele>
        <time>2024-05-11T06:55:02.000Z</time>
      </trkpt>
      <trkpt lat="44.82827" lon="5.43168">
        <ele>1636.7</ele>
        <time>2024-05-11T06:55:05.000Z</time>
      </trkpt>
      <trkpt lat="44.82826" lon="5.43171">
        <ele>1637.3</ele>
        <time>2024-05-11T06:55:09.000Z</time>
      </trkpt>
      <trkpt lat="44.82826" lon="5.43172">
        <ele>1637.4</ele>
        <time>2024-05-11T06:55:11.000Z</time>
      </trkpt>
      <trkpt lat="44.82828" lon="5.43173">
        <ele>1637.6</ele>
        <time>2024-05-11T06:55:14.000Z</time>
      </trkpt>
      <trkpt lat="44.8283" lon="5.43177">
        <ele>1638.3</ele>
        <time>2024-05-11T06:55:18.000Z</time>
      </trkpt>
      <trkpt lat="44.82832" lon="5.43179">
        <ele>1638.6</ele>
        <time>2024-05-11T06:55:20.000Z</time>
      </trkpt>
      <trkpt lat="44.82833" lon="5.43178">
        <ele>1638.5</ele>
        <time>2024-05-11T06:55:21.000Z</time>
      </trkpt>
      <trkpt lat="44.82833" lon="5.43179">
        <ele>1638.7</ele>
        <time>2024-05-11T06:55:22.000Z</time>
      </trkpt>
      <trkpt lat="44.82833" lon="5.43181">
        <ele>1639.1</ele>
        <time>2024-05-11T06:55:24.000Z</time>
      </trkpt>
      <trkpt lat="44.82837" lon="5.43186">
        <ele>1639.4</ele>
        <time>2024-05-11T06:55:28.000Z</time>
      </trkpt>
      <trkpt lat="44.8284" lon="5.43189">
        <ele>1639.6</ele>
        <time>2024-05-11T06:55:31.000Z</time>
      </trkpt>
      <trkpt lat="44.8284" lon="5.43189">
        <ele>1639.5</ele>
        <time>2024-05-11T06:55:32.000Z</time>
      </trkpt>
      <trkpt lat="44.8284" lon="5.43194">
        <ele>1640.4</ele>
        <time>2024-05-11T06:55:38.000Z</time>
      </trkpt>
      <trkpt lat="44.8284" lon="5.43194">
        <ele>1640.5</ele>
        <time>2024-05-11T06:55:40.000Z</time>
      </trkpt>
      <trkpt lat="44.8284" lon="5.43195">
        <ele>1640.7</ele>
        <time>2024-05-11T06:55:42.000Z</time>
      </trkpt>
      <trkpt lat="44.8284" lon="5.43196">
        <ele>1640.8</ele>
        <time>2024-05-11T06:55:43.000Z</time>
      </trkpt>
      <trkpt lat="44.82841" lon="5.43198">
        <ele>1641</ele>
        <time>2024-05-11T06:55:46.000Z</time>
      </trkpt>
      <trkpt lat="44.82841" lon="5.432">
        <ele>1641.2</ele>
        <time>2024-05-11T06:55:47.000Z</time>
      </trkpt>
      <trkpt lat="44.82841" lon="5.43201">
        <ele>1641.3</ele>
        <time>2024-05-11T06:55:48.000Z</time>
      </trkpt>
      <trkpt lat="44.82842" lon="5.43205">
        <ele>1641.7</ele>
        <time>2024-05-11T06:55:51.000Z</time>
      </trkpt>
      <trkpt lat="44.82842" lon="5.43206">
        <ele>1641.9</ele>
        <time>2024-05-11T06:55:52.000Z</time>
      </trkpt>
      <trkpt lat="44.82842" lon="5.43207">
        <ele>1642.1</ele>
        <time>2024-05-11T06:55:54.000Z</time>
      </trkpt>
      <trkpt lat="44.82842" lon="5.43209">
        <ele>1642.3</ele>
        <time>2024-05-11T06:55:55.000Z</time>
      </trkpt>
      <trkpt lat="44.82842" lon="5.4321">
        <ele>1642.4</ele>
        <time>2024-05-11T06:55:56.000Z</time>
      </trkpt>
      <trkpt lat="44.82838" lon="5.43217">
        <ele>1644.3</ele>
        <time>2024-05-11T06:56:02.000Z</time>
      </trkpt>
      <trkpt lat="44.82837" lon="5.43217">
        <ele>1644.6</ele>
        <time>2024-05-11T06:56:03.000Z</time>
      </trkpt>
      <trkpt lat="44.82837" lon="5.43219">
        <ele>1644.9</ele>
        <time>2024-05-11T06:56:05.000Z</time>
      </trkpt>
      <trkpt lat="44.82835" lon="5.4322">
        <ele>1645.3</ele>
        <time>2024-05-11T06:56:07.000Z</time>
      </trkpt>
      <trkpt lat="44.82833" lon="5.43221">
        <ele>1645.8</ele>
        <time>2024-05-11T06:56:09.000Z</time>
      </trkpt>
      <trkpt lat="44.82833" lon="5.43223">
        <ele>1645.9</ele>
        <time>2024-05-11T06:56:10.000Z</time>
      </trkpt>
      <trkpt lat="44.82836" lon="5.43226">
        <ele>1646.2</ele>
        <time>2024-05-11T06:56:12.000Z</time>
      </trkpt>
      <trkpt lat="44.8284" lon="5.43232">
        <ele>1646.3</ele>
        <time>2024-05-11T06:56:16.000Z</time>
      </trkpt>
      <trkpt lat="44.82841" lon="5.43233">
        <ele>1646.1</ele>
        <time>2024-05-11T06:56:17.000Z</time>
      </trkpt>
      <trkpt lat="44.82842" lon="5.43234">
        <ele>1646.1</ele>
        <time>2024-05-11T06:56:18.000Z</time>
      </trkpt>
      <trkpt lat="44.82844" lon="5.43236">
        <ele>1646</ele>
        <time>2024-05-11T06:56:20.000Z</time>
      </trkpt>
      <trkpt lat="44.82844" lon="5.43236">
        <ele>1646</ele>
        <time>2024-05-11T06:56:21.000Z</time>
      </trkpt>
      <trkpt lat="44.82847" lon="5.43235">
        <ele>1645.4</ele>
        <time>2024-05-11T06:56:23.000Z</time>
      </trkpt>
      <trkpt lat="44.82847" lon="5.43239">
        <ele>1645.9</ele>
        <time>2024-05-11T06:56:27.000Z</time>
      </trkpt>
      <trkpt lat="44.82847" lon="5.43239">
        <ele>1646</ele>
        <time>2024-05-11T06:56:28.000Z</time>
      </trkpt>
      <trkpt lat="44.82846" lon="5.4324">
        <ele>1646.3</ele>
        <time>2024-05-11T06:56:29.000Z</time>
      </trkpt>
      <trkpt lat="44.82847" lon="5.43243">
        <ele>1646.5</ele>
        <time>2024-05-11T06:56:31.000Z</time>
      </trkpt>
      <trkpt lat="44.82848" lon="5.43244">
        <ele>1646.6</ele>
        <time>2024-05-11T06:56:32.000Z</time>
      </trkpt>
      <trkpt lat="44.82846" lon="5.43249">
        <ele>1647.5</ele>
        <time>2024-05-11T06:56:35.000Z</time>
      </trkpt>
      <trkpt lat="44.82846" lon="5.43252">
        <ele>1647.8</ele>
        <time>2024-05-11T06:56:38.000Z</time>
      </trkpt>
      <trkpt lat="44.82846" lon="5.43255">
        <ele>1648.2</ele>
        <time>2024-05-11T06:56:41.000Z</time>
      </trkpt>
      <trkpt lat="44.82843" lon="5.43258">
        <ele>1649</ele>
        <time>2024-05-11T06:56:44.000Z</time>
      </trkpt>
      <trkpt lat="44.82842" lon="5.43258">
        <ele>1649.2</ele>
        <time>2024-05-11T06:56:45.000Z</time>
      </trkpt>
      <trkpt lat="44.82842" lon="5.43259">
        <ele>1649.3</ele>
        <time>2024-05-11T06:56:46.000Z</time>
      </trkpt>
      <trkpt lat="44.82841" lon="5.43262">
        <ele>1649.6</ele>
        <time>2024-05-11T06:56:49.000Z</time>
      </trkpt>
      <trkpt lat="44.82842" lon="5.43264">
        <ele>1649.7</ele>
        <time>2024-05-11T06:56:51.000Z</time>
      </trkpt>
      <trkpt lat="44.82843" lon="5.43267">
        <ele>1649.9</ele>
        <time>2024-05-11T06:56:52.000Z</time>
      </trkpt>
      <trkpt lat="44.82847" lon="5.43269">
        <ele>1649.7</ele>
        <time>2024-05-11T06:56:54.000Z</time>
      </trkpt>
      <trkpt lat="44.82849" lon="5.4327">
        <ele>1649.5</ele>
        <time>2024-05-11T06:56:55.000Z</time>
      </trkpt>
      <trkpt lat="44.8285" lon="5.43274">
        <ele>1649.7</ele>
        <time>2024-05-11T06:56:59.000Z</time>
      </trkpt>
      <trkpt lat="44.82851" lon="5.43276">
        <ele>1649.9</ele>
        <time>2024-05-11T06:57:00.000Z</time>
      </trkpt>
      <trkpt lat="44.82852" lon="5.43277">
        <ele>1649.9</ele>
        <time>2024-05-11T06:57:02.000Z</time>
      </trkpt>
      <trkpt lat="44.82852" lon="5.43278">
        <ele>1650</ele>
        <time>2024-05-11T06:57:03.000Z</time>
      </trkpt>
      <trkpt lat="44.82853" lon="5.43281">
        <ele>1650.2</ele>
        <time>2024-05-11T06:57:06.000Z</time>
      </trkpt>
      <trkpt lat="44.82854" lon="5.43283">
        <ele>1650.3</ele>
        <time>2024-05-11T06:57:07.000Z</time>
      </trkpt>
      <trkpt lat="44.82856" lon="5.43287">
        <ele>1650.6</ele>
        <time>2024-05-11T06:57:10.000Z</time>
      </trkpt>
      <trkpt lat="44.82856" lon="5.43287">
        <ele>1650.6</ele>
        <time>2024-05-11T06:57:11.000Z</time>
      </trkpt>
      <trkpt lat="44.82858" lon="5.4329">
        <ele>1650.8</ele>
        <time>2024-05-11T06:57:13.000Z</time>
      </trkpt>
      <trkpt lat="44.82859" lon="5.4329">
        <ele>1650.9</ele>
        <time>2024-05-11T06:57:15.000Z</time>
      </trkpt>
      <trkpt lat="44.82859" lon="5.43292">
        <ele>1651.1</ele>
        <time>2024-05-11T06:57:17.000Z</time>
      </trkpt>
      <trkpt lat="44.82858" lon="5.43296">
        <ele>1651.6</ele>
        <time>2024-05-11T06:57:22.000Z</time>
      </trkpt>
      <trkpt lat="44.82858" lon="5.43297">
        <ele>1651.7</ele>
        <time>2024-05-11T06:57:23.000Z</time>
      </trkpt>
      <trkpt lat="44.82856" lon="5.43303">
        <ele>1652.3</ele>
        <time>2024-05-11T06:57:27.000Z</time>
      </trkpt>
      <trkpt lat="44.82857" lon="5.43306">
        <ele>1652.7</ele>
        <time>2024-05-11T06:57:29.000Z</time>
      </trkpt>
      <trkpt lat="44.82857" lon="5.43308">
        <ele>1653</ele>
        <time>2024-05-11T06:57:31.000Z</time>
      </trkpt>
      <trkpt lat="44.82857" lon="5.43309">
        <ele>1653</ele>
        <time>2024-05-11T06:57:33.000Z</time>
      </trkpt>
      <trkpt lat="44.82857" lon="5.43311">
        <ele>1653.2</ele>
        <time>2024-05-11T06:57:35.000Z</time>
      </trkpt>
      <trkpt lat="44.82856" lon="5.43313">
        <ele>1653.2</ele>
        <time>2024-05-11T06:57:36.000Z</time>
      </trkpt>
      <trkpt lat="44.82855" lon="5.43318">
        <ele>1653.6</ele>
        <time>2024-05-11T06:57:40.000Z</time>
      </trkpt>
      <trkpt lat="44.82857" lon="5.43319">
        <ele>1654</ele>
        <time>2024-05-11T06:57:41.000Z</time>
      </trkpt>
      <trkpt lat="44.82858" lon="5.43321">
        <ele>1654.5</ele>
        <time>2024-05-11T06:57:44.000Z</time>
      </trkpt>
      <trkpt lat="44.82859" lon="5.43323">
        <ele>1654.9</ele>
        <time>2024-05-11T06:57:45.000Z</time>
      </trkpt>
      <trkpt lat="44.8286" lon="5.43327">
        <ele>1655.8</ele>
        <time>2024-05-11T06:57:48.000Z</time>
      </trkpt>
      <trkpt lat="44.82862" lon="5.43337">
        <ele>1657.2</ele>
        <time>2024-05-11T06:57:54.000Z</time>
      </trkpt>
      <trkpt lat="44.82862" lon="5.43338">
        <ele>1657.2</ele>
        <time>2024-05-11T06:57:56.000Z</time>
      </trkpt>
      <trkpt lat="44.82862" lon="5.43345">
        <ele>1657.9</ele>
        <time>2024-05-11T06:58:01.000Z</time>
      </trkpt>
      <trkpt lat="44.82863" lon="5.43346">
        <ele>1657.9</ele>
        <time>2024-05-11T06:58:02.000Z</time>
      </trkpt>
      <trkpt lat="44.82863" lon="5.43348">
        <ele>1658</ele>
        <time>2024-05-11T06:58:04.000Z</time>
      </trkpt>
      <trkpt lat="44.82863" lon="5.43351">
        <ele>1658.4</ele>
        <time>2024-05-11T06:58:07.000Z</time>
      </trkpt>
      <trkpt lat="44.82864" lon="5.43351">
        <ele>1658.1</ele>
        <time>2024-05-11T06:58:09.000Z</time>
      </trkpt>
      <trkpt lat="44.82865" lon="5.43354">
        <ele>1658.3</ele>
        <time>2024-05-11T06:58:12.000Z</time>
      </trkpt>
      <trkpt lat="44.82865" lon="5.43355">
        <ele>1658.4</ele>
        <time>2024-05-11T06:58:13.000Z</time>
      </trkpt>
      <trkpt lat="44.82865" lon="5.43356">
        <ele>1658.5</ele>
        <time>2024-05-11T06:58:14.000Z</time>
      </trkpt>
      <trkpt lat="44.82865" lon="5.43356">
        <ele>1658.5</ele>
        <time>2024-05-11T06:58:15.000Z</time>
      </trkpt>
      <trkpt lat="44.82865" lon="5.43359">
        <ele>1658.8</ele>
        <time>2024-05-11T06:58:17.000Z</time>
      </trkpt>
      <trkpt lat="44.82864" lon="5.43359">
        <ele>1659</ele>
        <time>2024-05-11T06:58:18.000Z</time>
      </trkpt>
      <trkpt lat="44.82863" lon="5.4336">
        <ele>1659.5</ele>
        <time>2024-05-11T06:58:20.000Z</time>
      </trkpt>
      <trkpt lat="44.82862" lon="5.43361">
        <ele>1659.7</ele>
        <time>2024-05-11T06:58:21.000Z</time>
      </trkpt>
      <trkpt lat="44.82862" lon="5.43361">
        <ele>1659.7</ele>
        <time>2024-05-11T06:58:22.000Z</time>
      </trkpt>
      <trkpt lat="44.82868" lon="5.43365">
        <ele>1658.6</ele>
        <time>2024-05-11T06:58:25.000Z</time>
      </trkpt>
      <trkpt lat="44.82873" lon="5.43373">
        <ele>1657.8</ele>
        <time>2024-05-11T06:58:29.000Z</time>
      </trkpt>
      <trkpt lat="44.82875" lon="5.43375">
        <ele>1657.6</ele>
        <time>2024-05-11T06:58:30.000Z</time>
      </trkpt>
      <trkpt lat="44.82875" lon="5.4338">
        <ele>1657.8</ele>
        <time>2024-05-11T06:58:34.000Z</time>
      </trkpt>
      <trkpt lat="44.82875" lon="5.43382">
        <ele>1658.1</ele>
        <time>2024-05-11T06:58:36.000Z</time>
      </trkpt>
      <trkpt lat="44.82874" lon="5.43384">
        <ele>1658.3</ele>
        <time>2024-05-11T06:58:39.000Z</time>
      </trkpt>
      <trkpt lat="44.82874" lon="5.43394">
        <ele>1658.7</ele>
        <time>2024-05-11T06:58:45.000Z</time>
      </trkpt>
      <trkpt lat="44.82874" lon="5.43396">
        <ele>1658.7</ele>
        <time>2024-05-11T06:58:46.000Z</time>
      </trkpt>
      <trkpt lat="44.82873" lon="5.43398">
        <ele>1658.9</ele>
        <time>2024-05-11T06:58:49.000Z</time>
      </trkpt>
      <trkpt lat="44.82872" lon="5.43401">
        <ele>1659</ele>
        <time>2024-05-11T06:58:52.000Z</time>
      </trkpt>
      <trkpt lat="44.82869" lon="5.43407">
        <ele>1659.2</ele>
        <time>2024-05-11T06:58:57.000Z</time>
      </trkpt>
      <trkpt lat="44.82869" lon="5.43415">
        <ele>1658.8</ele>
        <time>2024-05-11T06:59:04.000Z</time>
      </trkpt>
      <trkpt lat="44.8287" lon="5.43417">
        <ele>1658.7</ele>
        <time>2024-05-11T06:59:05.000Z</time>
      </trkpt>
      <trkpt lat="44.8287" lon="5.43419">
        <ele>1658.4</ele>
        <time>2024-05-11T06:59:07.000Z</time>
      </trkpt>
      <trkpt lat="44.8287" lon="5.4342">
        <ele>1658.3</ele>
        <time>2024-05-11T06:59:08.000Z</time>
      </trkpt>
      <trkpt lat="44.8287" lon="5.43421">
        <ele>1658.2</ele>
        <time>2024-05-11T06:59:09.000Z</time>
      </trkpt>
      <trkpt lat="44.82869" lon="5.43424">
        <ele>1657.8</ele>
        <time>2024-05-11T06:59:11.000Z</time>
      </trkpt>
      <trkpt lat="44.8287" lon="5.43425">
        <ele>1657.8</ele>
        <time>2024-05-11T06:59:12.000Z</time>
      </trkpt>
      <trkpt lat="44.82875" lon="5.43434">
        <ele>1657.6</ele>
        <time>2024-05-11T06:59:19.000Z</time>
      </trkpt>
      <trkpt lat="44.82877" lon="5.43436">
        <ele>1657.8</ele>
        <time>2024-05-11T06:59:20.000Z</time>
      </trkpt>
      <trkpt lat="44.82877" lon="5.43438">
        <ele>1657.7</ele>
        <time>2024-05-11T06:59:21.000Z</time>
      </trkpt>
      <trkpt lat="44.82876" lon="5.43441">
        <ele>1657.5</ele>
        <time>2024-05-11T06:59:23.000Z</time>
      </trkpt>
      <trkpt lat="44.82877" lon="5.43442">
        <ele>1657.6</ele>
        <time>2024-05-11T06:59:24.000Z</time>
      </trkpt>
      <trkpt lat="44.8288" lon="5.43448">
        <ele>1658.9</ele>
        <time>2024-05-11T06:59:28.000Z</time>
      </trkpt>
      <trkpt lat="44.82882" lon="5.43449">
        <ele>1659.4</ele>
        <time>2024-05-11T06:59:29.000Z</time>
      </trkpt>
      <trkpt lat="44.82882" lon="5.43451">
        <ele>1659.7</ele>
        <time>2024-05-11T06:59:31.000Z</time>
      </trkpt>
      <trkpt lat="44.82882" lon="5.43451">
        <ele>1659.8</ele>
        <time>2024-05-11T06:59:32.000Z</time>
      </trkpt>
      <trkpt lat="44.82882" lon="5.43453">
        <ele>1659.8</ele>
        <time>2024-05-11T06:59:34.000Z</time>
      </trkpt>
      <trkpt lat="44.82881" lon="5.43456">
        <ele>1660.1</ele>
        <time>2024-05-11T06:59:36.000Z</time>
      </trkpt>
      <trkpt lat="44.82882" lon="5.43457">
        <ele>1660.2</ele>
        <time>2024-05-11T06:59:37.000Z</time>
      </trkpt>
      <trkpt lat="44.82882" lon="5.43459">
        <ele>1660.5</ele>
        <time>2024-05-11T06:59:39.000Z</time>
      </trkpt>
      <trkpt lat="44.82882" lon="5.43462">
        <ele>1660.7</ele>
        <time>2024-05-11T06:59:41.000Z</time>
      </trkpt>
      <trkpt lat="44.82882" lon="5.43466">
        <ele>1661.3</ele>
        <time>2024-05-11T06:59:44.000Z</time>
      </trkpt>
      <trkpt lat="44.82883" lon="5.43468">
        <ele>1661.8</ele>
        <time>2024-05-11T06:59:45.000Z</time>
      </trkpt>
      <trkpt lat="44.82883" lon="5.43469">
        <ele>1661.8</ele>
        <time>2024-05-11T06:59:46.000Z</time>
      </trkpt>
      <trkpt lat="44.82884" lon="5.4347">
        <ele>1662.5</ele>
        <time>2024-05-11T06:59:48.000Z</time>
      </trkpt>
      <trkpt lat="44.82884" lon="5.43472">
        <ele>1662.8</ele>
        <time>2024-05-11T06:59:49.000Z</time>
      </trkpt>
      <trkpt lat="44.82885" lon="5.43475">
        <ele>1663.6</ele>
        <time>2024-05-11T06:59:51.000Z</time>
      </trkpt>
      <trkpt lat="44.82885" lon="5.43477">
        <ele>1663.9</ele>
        <time>2024-05-11T06:59:52.000Z</time>
      </trkpt>
      <trkpt lat="44.82886" lon="5.43479">
        <ele>1664.7</ele>
        <time>2024-05-11T06:59:54.000Z</time>
      </trkpt>
      <trkpt lat="44.82886" lon="5.4348">
        <ele>1665.2</ele>
        <time>2024-05-11T06:59:55.000Z</time>
      </trkpt>
      <trkpt lat="44.82887" lon="5.43484">
        <ele>1666.3</ele>
        <time>2024-05-11T06:59:57.000Z</time>
      </trkpt>
      <trkpt lat="44.82888" lon="5.43486">
        <ele>1666.8</ele>
        <time>2024-05-11T06:59:58.000Z</time>
      </trkpt>
      <trkpt lat="44.82888" lon="5.43491">
        <ele>1668</ele>
        <time>2024-05-11T07:00:01.000Z</time>
      </trkpt>
      <trkpt lat="44.82889" lon="5.43494">
        <ele>1668.7</ele>
        <time>2024-05-11T07:00:03.000Z</time>
      </trkpt>
      <trkpt lat="44.82889" lon="5.43496">
        <ele>1669</ele>
        <time>2024-05-11T07:00:04.000Z</time>
      </trkpt>
      <trkpt lat="44.8289" lon="5.43497">
        <ele>1669</ele>
        <time>2024-05-11T07:00:06.000Z</time>
      </trkpt>
      <trkpt lat="44.82893" lon="5.43499">
        <ele>1668.8</ele>
        <time>2024-05-11T07:00:09.000Z</time>
      </trkpt>
      <trkpt lat="44.82893" lon="5.435">
        <ele>1668.8</ele>
        <time>2024-05-11T07:00:10.000Z</time>
      </trkpt>
      <trkpt lat="44.82894" lon="5.43501">
        <ele>1668.8</ele>
        <time>2024-05-11T07:00:11.000Z</time>
      </trkpt>
      <trkpt lat="44.82896" lon="5.43503">
        <ele>1668.9</ele>
        <time>2024-05-11T07:00:13.000Z</time>
      </trkpt>
      <trkpt lat="44.82898" lon="5.43508">
        <ele>1669.3</ele>
        <time>2024-05-11T07:00:16.000Z</time>
      </trkpt>
      <trkpt lat="44.82899" lon="5.43512">
        <ele>1669.7</ele>
        <time>2024-05-11T07:00:20.000Z</time>
      </trkpt>
      <trkpt lat="44.829" lon="5.43513">
        <ele>1669.8</ele>
        <time>2024-05-11T07:00:21.000Z</time>
      </trkpt>
      <trkpt lat="44.829" lon="5.43513">
        <ele>1669.7</ele>
        <time>2024-05-11T07:00:23.000Z</time>
      </trkpt>
      <trkpt lat="44.82901" lon="5.43516">
        <ele>1670</ele>
        <time>2024-05-11T07:00:27.000Z</time>
      </trkpt>
      <trkpt lat="44.82902" lon="5.43518">
        <ele>1670.3</ele>
        <time>2024-05-11T07:00:30.000Z</time>
      </trkpt>
      <trkpt lat="44.82901" lon="5.43518">
        <ele>1670.6</ele>
        <time>2024-05-11T07:00:32.000Z</time>
      </trkpt>
      <trkpt lat="44.82901" lon="5.4352">
        <ele>1670.8</ele>
        <time>2024-05-11T07:00:35.000Z</time>
      </trkpt>
      <trkpt lat="44.82902" lon="5.43525">
        <ele>1671.6</ele>
        <time>2024-05-11T07:00:39.000Z</time>
      </trkpt>
      <trkpt lat="44.82904" lon="5.43528">
        <ele>1671.8</ele>
        <time>2024-05-11T07:00:43.000Z</time>
      </trkpt>
      <trkpt lat="44.82906" lon="5.43535">
        <ele>1672.3</ele>
        <time>2024-05-11T07:00:47.000Z</time>
      </trkpt>
      <trkpt lat="44.82907" lon="5.43538">
        <ele>1672.5</ele>
        <time>2024-05-11T07:00:50.000Z</time>
      </trkpt>
      <trkpt lat="44.82906" lon="5.43541">
        <ele>1673.4</ele>
        <time>2024-05-11T07:00:53.000Z</time>
      </trkpt>
      <trkpt lat="44.82906" lon="5.43543">
        <ele>1673.5</ele>
        <time>2024-05-11T07:00:55.000Z</time>
      </trkpt>
      <trkpt lat="44.82907" lon="5.43547">
        <ele>1673.9</ele>
        <time>2024-05-11T07:00:58.000Z</time>
      </trkpt>
      <trkpt lat="44.82907" lon="5.43553">
        <ele>1674.8</ele>
        <time>2024-05-11T07:01:01.000Z</time>
      </trkpt>
      <trkpt lat="44.82909" lon="5.43557">
        <ele>1674.9</ele>
        <time>2024-05-11T07:01:04.000Z</time>
      </trkpt>
      <trkpt lat="44.82911" lon="5.4356">
        <ele>1674.8</ele>
        <time>2024-05-11T07:01:06.000Z</time>
      </trkpt>
      <trkpt lat="44.82913" lon="5.43563">
        <ele>1674.8</ele>
        <time>2024-05-11T07:01:09.000Z</time>
      </trkpt>
      <trkpt lat="44.82914" lon="5.43564">
        <ele>1674.8</ele>
        <time>2024-05-11T07:01:10.000Z</time>
      </trkpt>
      <trkpt lat="44.82916" lon="5.43565">
        <ele>1674.6</ele>
        <time>2024-05-11T07:01:11.000Z</time>
      </trkpt>
      <trkpt lat="44.82918" lon="5.4357">
        <ele>1674.8</ele>
        <time>2024-05-11T07:01:14.000Z</time>
      </trkpt>
      <trkpt lat="44.8292" lon="5.4357">
        <ele>1674.3</ele>
        <time>2024-05-11T07:01:18.000Z</time>
      </trkpt>
      <trkpt lat="44.82921" lon="5.43572">
        <ele>1674.3</ele>
        <time>2024-05-11T07:01:19.000Z</time>
      </trkpt>
      <trkpt lat="44.82923" lon="5.43574">
        <ele>1674.1</ele>
        <time>2024-05-11T07:01:23.000Z</time>
      </trkpt>
      <trkpt lat="44.82926" lon="5.43579">
        <ele>1673.9</ele>
        <time>2024-05-11T07:01:27.000Z</time>
      </trkpt>
      <trkpt lat="44.82927" lon="5.4358">
        <ele>1673.9</ele>
        <time>2024-05-11T07:01:28.000Z</time>
      </trkpt>
      <trkpt lat="44.82929" lon="5.43583">
        <ele>1673.9</ele>
        <time>2024-05-11T07:01:30.000Z</time>
      </trkpt>
      <trkpt lat="44.82931" lon="5.43586">
        <ele>1673.9</ele>
        <time>2024-05-11T07:01:32.000Z</time>
      </trkpt>
      <trkpt lat="44.82933" lon="5.43591">
        <ele>1674.1</ele>
        <time>2024-05-11T07:01:35.000Z</time>
      </trkpt>
      <trkpt lat="44.82935" lon="5.43593">
        <ele>1674</ele>
        <time>2024-05-11T07:01:37.000Z</time>
      </trkpt>
      <trkpt lat="44.82937" lon="5.43596">
        <ele>1674</ele>
        <time>2024-05-11T07:01:40.000Z</time>
      </trkpt>
      <trkpt lat="44.82939" lon="5.43602">
        <ele>1674.6</ele>
        <time>2024-05-11T07:01:44.000Z</time>
      </trkpt>
      <trkpt lat="44.82942" lon="5.43611">
        <ele>1675.5</ele>
        <time>2024-05-11T07:01:50.000Z</time>
      </trkpt>
      <trkpt lat="44.82942" lon="5.43612">
        <ele>1675.5</ele>
        <time>2024-05-11T07:01:51.000Z</time>
      </trkpt>
      <trkpt lat="44.82946" lon="5.43617">
        <ele>1675.6</ele>
        <time>2024-05-11T07:01:55.000Z</time>
      </trkpt>
      <trkpt lat="44.82946" lon="5.4362">
        <ele>1676</ele>
        <time>2024-05-11T07:01:57.000Z</time>
      </trkpt>
      <trkpt lat="44.82946" lon="5.43621">
        <ele>1676.2</ele>
        <time>2024-05-11T07:01:58.000Z</time>
      </trkpt>
      <trkpt lat="44.82947" lon="5.43622">
        <ele>1676.2</ele>
        <time>2024-05-11T07:01:59.000Z</time>
      </trkpt>
      <trkpt lat="44.82947" lon="5.43624">
        <ele>1676.5</ele>
        <time>2024-05-11T07:02:01.000Z</time>
      </trkpt>
      <trkpt lat="44.82946" lon="5.43626">
        <ele>1676.9</ele>
        <time>2024-05-11T07:02:03.000Z</time>
      </trkpt>
      <trkpt lat="44.82945" lon="5.43627">
        <ele>1677.2</ele>
        <time>2024-05-11T07:02:04.000Z</time>
      </trkpt>
      <trkpt lat="44.82942" lon="5.4363">
        <ele>1678.3</ele>
        <time>2024-05-11T07:02:07.000Z</time>
      </trkpt>
      <trkpt lat="44.82939" lon="5.43635">
        <ele>1679.5</ele>
        <time>2024-05-11T07:02:11.000Z</time>
      </trkpt>
      <trkpt lat="44.82941" lon="5.43636">
        <ele>1679.3</ele>
        <time>2024-05-11T07:02:14.000Z</time>
      </trkpt>
      <trkpt lat="44.82942" lon="5.43637">
        <ele>1679.3</ele>
        <time>2024-05-11T07:02:15.000Z</time>
      </trkpt>
      <trkpt lat="44.82942" lon="5.43639">
        <ele>1679.7</ele>
        <time>2024-05-11T07:02:17.000Z</time>
      </trkpt>
      <trkpt lat="44.82941" lon="5.43641">
        <ele>1680</ele>
        <time>2024-05-11T07:02:18.000Z</time>
      </trkpt>
      <trkpt lat="44.82942" lon="5.43643">
        <ele>1680.2</ele>
        <time>2024-05-11T07:02:21.000Z</time>
      </trkpt>
      <trkpt lat="44.82941" lon="5.43646">
        <ele>1680.8</ele>
        <time>2024-05-11T07:02:25.000Z</time>
      </trkpt>
      <trkpt lat="44.8294" lon="5.43649">
        <ele>1681.5</ele>
        <time>2024-05-11T07:02:28.000Z</time>
      </trkpt>
      <trkpt lat="44.82937" lon="5.4365">
        <ele>1682.2</ele>
        <time>2024-05-11T07:02:32.000Z</time>
      </trkpt>
      <trkpt lat="44.82936" lon="5.43651">
        <ele>1682.4</ele>
        <time>2024-05-11T07:02:33.000Z</time>
      </trkpt>
      <trkpt lat="44.82933" lon="5.43654">
        <ele>1683.4</ele>
        <time>2024-05-11T07:02:37.000Z</time>
      </trkpt>
      <trkpt lat="44.82929" lon="5.43656">
        <ele>1684.5</ele>
        <time>2024-05-11T07:02:39.000Z</time>
      </trkpt>
      <trkpt lat="44.82928" lon="5.43658">
        <ele>1684.9</ele>
        <time>2024-05-11T07:02:41.000Z</time>
      </trkpt>
      <trkpt lat="44.82927" lon="5.43658">
        <ele>1685.1</ele>
        <time>2024-05-11T07:02:42.000Z</time>
      </trkpt>
      <trkpt lat="44.82926" lon="5.43659">
        <ele>1685.3</ele>
        <time>2024-05-11T07:02:43.000Z</time>
      </trkpt>
      <trkpt lat="44.82922" lon="5.43661">
        <ele>1686.3</ele>
        <time>2024-05-11T07:02:47.000Z</time>
      </trkpt>
      <trkpt lat="44.82921" lon="5.43667">
        <ele>1687.3</ele>
        <time>2024-05-11T07:02:51.000Z</time>
      </trkpt>
      <trkpt lat="44.82923" lon="5.43668">
        <ele>1686.9</ele>
        <time>2024-05-11T07:02:53.000Z</time>
      </trkpt>
      <trkpt lat="44.82924" lon="5.43669">
        <ele>1686.8</ele>
        <time>2024-05-11T07:02:54.000Z</time>
      </trkpt>
      <trkpt lat="44.82924" lon="5.43673">
        <ele>1687.2</ele>
        <time>2024-05-11T07:02:57.000Z</time>
      </trkpt>
      <trkpt lat="44.82924" lon="5.43675">
        <ele>1687.4</ele>
        <time>2024-05-11T07:03:00.000Z</time>
      </trkpt>
      <trkpt lat="44.82927" lon="5.43677">
        <ele>1686.9</ele>
        <time>2024-05-11T07:03:04.000Z</time>
      </trkpt>
      <trkpt lat="44.82931" lon="5.43676">
        <ele>1686.1</ele>
        <time>2024-05-11T07:03:07.000Z</time>
      </trkpt>
      <trkpt lat="44.82932" lon="5.43677">
        <ele>1686</ele>
        <time>2024-05-11T07:03:14.000Z</time>
      </trkpt>
      <trkpt lat="44.82932" lon="5.4368">
        <ele>1686.2</ele>
        <time>2024-05-11T07:03:18.000Z</time>
      </trkpt>
      <trkpt lat="44.8293" lon="5.43682">
        <ele>1686.7</ele>
        <time>2024-05-11T07:03:20.000Z</time>
      </trkpt>
      <trkpt lat="44.82929" lon="5.43684">
        <ele>1687.1</ele>
        <time>2024-05-11T07:03:22.000Z</time>
      </trkpt>
      <trkpt lat="44.82931" lon="5.43685">
        <ele>1686.8</ele>
        <time>2024-05-11T07:03:25.000Z</time>
      </trkpt>
      <trkpt lat="44.82933" lon="5.4369">
        <ele>1686.7</ele>
        <time>2024-05-11T07:03:29.000Z</time>
      </trkpt>
      <trkpt lat="44.82933" lon="5.43691">
        <ele>1686.7</ele>
        <time>2024-05-11T07:03:30.000Z</time>
      </trkpt>
      <trkpt lat="44.82934" lon="5.43693">
        <ele>1686.7</ele>
        <time>2024-05-11T07:03:33.000Z</time>
      </trkpt>
      <trkpt lat="44.82935" lon="5.43696">
        <ele>1686.7</ele>
        <time>2024-05-11T07:03:36.000Z</time>
      </trkpt>
      <trkpt lat="44.82936" lon="5.43697">
        <ele>1686.5</ele>
        <time>2024-05-11T07:03:38.000Z</time>
      </trkpt>
      <trkpt lat="44.82939" lon="5.437">
        <ele>1686.2</ele>
        <time>2024-05-11T07:03:41.000Z</time>
      </trkpt>
      <trkpt lat="44.8294" lon="5.43702">
        <ele>1686</ele>
        <time>2024-05-11T07:03:43.000Z</time>
      </trkpt>
      <trkpt lat="44.82941" lon="5.43703">
        <ele>1686</ele>
        <time>2024-05-11T07:03:45.000Z</time>
      </trkpt>
      <trkpt lat="44.82941" lon="5.43704">
        <ele>1685.9</ele>
        <time>2024-05-11T07:03:46.000Z</time>
      </trkpt>
      <trkpt lat="44.82939" lon="5.43709">
        <ele>1686.4</ele>
        <time>2024-05-11T07:03:51.000Z</time>
      </trkpt>
      <trkpt lat="44.82938" lon="5.43711">
        <ele>1686.8</ele>
        <time>2024-05-11T07:03:53.000Z</time>
      </trkpt>
      <trkpt lat="44.82938" lon="5.43714">
        <ele>1686.9</ele>
        <time>2024-05-11T07:03:55.000Z</time>
      </trkpt>
      <trkpt lat="44.82938" lon="5.43715">
        <ele>1686.9</ele>
        <time>2024-05-11T07:03:56.000Z</time>
      </trkpt>
      <trkpt lat="44.82937" lon="5.4372">
        <ele>1687.2</ele>
        <time>2024-05-11T07:04:01.000Z</time>
      </trkpt>
      <trkpt lat="44.82932" lon="5.43727">
        <ele>1688.2</ele>
        <time>2024-05-11T07:04:08.000Z</time>
      </trkpt>
      <trkpt lat="44.8293" lon="5.43727">
        <ele>1688.6</ele>
        <time>2024-05-11T07:04:12.000Z</time>
      </trkpt>
      <trkpt lat="44.82927" lon="5.43729">
        <ele>1689</ele>
        <time>2024-05-11T07:04:14.000Z</time>
      </trkpt>
      <trkpt lat="44.82925" lon="5.43731">
        <ele>1689.3</ele>
        <time>2024-05-11T07:04:16.000Z</time>
      </trkpt>
      <trkpt lat="44.82923" lon="5.43731">
        <ele>1689.6</ele>
        <time>2024-05-11T07:04:17.000Z</time>
      </trkpt>
      <trkpt lat="44.82917" lon="5.43737">
        <ele>1690.5</ele>
        <time>2024-05-11T07:04:23.000Z</time>
      </trkpt>
      <trkpt lat="44.82915" lon="5.43737">
        <ele>1690.5</ele>
        <time>2024-05-11T07:04:25.000Z</time>
      </trkpt>
      <trkpt lat="44.82912" lon="5.43739">
        <ele>1690.6</ele>
        <time>2024-05-11T07:04:31.000Z</time>
      </trkpt>
      <trkpt lat="44.8291" lon="5.43738">
        <ele>1690.7</ele>
        <time>2024-05-11T07:04:38.000Z</time>
      </trkpt>
      <trkpt lat="44.82907" lon="5.43739">
        <ele>1690.9</ele>
        <time>2024-05-11T07:04:47.000Z</time>
      </trkpt>
      <trkpt lat="44.82903" lon="5.43739">
        <ele>1691.1</ele>
        <time>2024-05-11T07:04:53.000Z</time>
      </trkpt>
      <trkpt lat="44.82902" lon="5.4374">
        <ele>1691.1</ele>
        <time>2024-05-11T07:04:56.000Z</time>
      </trkpt>
      <trkpt lat="44.82899" lon="5.43741">
        <ele>1691.2</ele>
        <time>2024-05-11T07:04:59.000Z</time>
      </trkpt>
      <trkpt lat="44.82898" lon="5.43739">
        <ele>1691.3</ele>
        <time>2024-05-11T07:05:03.000Z</time>
      </trkpt>
      <trkpt lat="44.82897" lon="5.43741">
        <ele>1691.2</ele>
        <time>2024-05-11T07:05:09.000Z</time>
      </trkpt>
      <trkpt lat="44.82897" lon="5.43741">
        <ele>1691.3</ele>
        <time>2024-05-11T07:05:15.000Z</time>
      </trkpt>
      <trkpt lat="44.82897" lon="5.43741">
        <ele>1691.3</ele>
        <time>2024-05-11T07:05:26.000Z</time>
      </trkpt>
      <trkpt lat="44.82892" lon="5.43739">
        <ele>1691.6</ele>
        <time>2024-05-11T07:05:32.000Z</time>
      </trkpt>
      <trkpt lat="44.82888" lon="5.43737">
        <ele>1692.1</ele>
        <time>2024-05-11T07:05:36.000Z</time>
      </trkpt>
      <trkpt lat="44.82886" lon="5.43736">
        <ele>1692.5</ele>
        <time>2024-05-11T07:05:38.000Z</time>
      </trkpt>
      <trkpt lat="44.82883" lon="5.43737">
        <ele>1693.1</ele>
        <time>2024-05-11T07:05:42.000Z</time>
      </trkpt>
      <trkpt lat="44.82882" lon="5.43737">
        <ele>1693.3</ele>
        <time>2024-05-11T07:05:43.000Z</time>
      </trkpt>
      <trkpt lat="44.8288" lon="5.43737">
        <ele>1693.5</ele>
        <time>2024-05-11T07:05:44.000Z</time>
      </trkpt>
      <trkpt lat="44.82879" lon="5.43736">
        <ele>1693.9</ele>
        <time>2024-05-11T07:05:49.000Z</time>
      </trkpt>
      <trkpt lat="44.82878" lon="5.43736">
        <ele>1694</ele>
        <time>2024-05-11T07:05:55.000Z</time>
      </trkpt>
      <trkpt lat="44.82874" lon="5.43736">
        <ele>1694.6</ele>
        <time>2024-05-11T07:06:05.000Z</time>
      </trkpt>
      <trkpt lat="44.82872" lon="5.43735">
        <ele>1695.1</ele>
        <time>2024-05-11T07:06:11.000Z</time>
      </trkpt>
      <trkpt lat="44.8287" lon="5.43735">
        <ele>1695.4</ele>
        <time>2024-05-11T07:06:15.000Z</time>
      </trkpt>
      <trkpt lat="44.82869" lon="5.43734">
        <ele>1695.8</ele>
        <time>2024-05-11T07:06:17.000Z</time>
      </trkpt>
      <trkpt lat="44.82864" lon="5.43733">
        <ele>1696.8</ele>
        <time>2024-05-11T07:06:24.000Z</time>
      </trkpt>
      <trkpt lat="44.82863" lon="5.43733">
        <ele>1696.9</ele>
        <time>2024-05-11T07:06:25.000Z</time>
      </trkpt>
      <trkpt lat="44.82859" lon="5.43732">
        <ele>1697.5</ele>
        <time>2024-05-11T07:06:30.000Z</time>
      </trkpt>
      <trkpt lat="44.82858" lon="5.43733">
        <ele>1697.5</ele>
        <time>2024-05-11T07:06:32.000Z</time>
      </trkpt>
      <trkpt lat="44.82856" lon="5.43733">
        <ele>1697.7</ele>
        <time>2024-05-11T07:06:35.000Z</time>
      </trkpt>
      <trkpt lat="44.82853" lon="5.43733">
        <ele>1698.1</ele>
        <time>2024-05-11T07:06:39.000Z</time>
      </trkpt>
      <trkpt lat="44.82851" lon="5.43732">
        <ele>1698.3</ele>
        <time>2024-05-11T07:06:42.000Z</time>
      </trkpt>
      <trkpt lat="44.82847" lon="5.43728">
        <ele>1699</ele>
        <time>2024-05-11T07:06:48.000Z</time>
      </trkpt>
      <trkpt lat="44.82845" lon="5.43726">
        <ele>1699.3</ele>
        <time>2024-05-11T07:06:51.000Z</time>
      </trkpt>
      <trkpt lat="44.82844" lon="5.43726">
        <ele>1699.4</ele>
        <time>2024-05-11T07:06:53.000Z</time>
      </trkpt>
      <trkpt lat="44.82844" lon="5.43725">
        <ele>1699.6</ele>
        <time>2024-05-11T07:06:57.000Z</time>
      </trkpt>
      <trkpt lat="44.82843" lon="5.43725">
        <ele>1699.7</ele>
        <time>2024-05-11T07:06:59.000Z</time>
      </trkpt>
      <trkpt lat="44.82841" lon="5.43724">
        <ele>1700.1</ele>
        <time>2024-05-11T07:07:02.000Z</time>
      </trkpt>
      <trkpt lat="44.8284" lon="5.43723">
        <ele>1700.2</ele>
        <time>2024-05-11T07:07:03.000Z</time>
      </trkpt>
      <trkpt lat="44.82839" lon="5.43723">
        <ele>1700.3</ele>
        <time>2024-05-11T07:07:04.000Z</time>
      </trkpt>
      <trkpt lat="44.82837" lon="5.43722">
        <ele>1700.6</ele>
        <time>2024-05-11T07:07:08.000Z</time>
      </trkpt>
      <trkpt lat="44.82833" lon="5.43721">
        <ele>1700.7</ele>
        <time>2024-05-11T07:07:14.000Z</time>
      </trkpt>
      <trkpt lat="44.82831" lon="5.4372">
        <ele>1699.6</ele>
        <time>2024-05-11T07:07:16.000Z</time>
      </trkpt>
      <trkpt lat="44.82828" lon="5.43719">
        <ele>1698.1</ele>
        <time>2024-05-11T07:07:19.000Z</time>
      </trkpt>
      <trkpt lat="44.82825" lon="5.43719">
        <ele>1696.7</ele>
        <time>2024-05-11T07:07:22.000Z</time>
      </trkpt>
      <trkpt lat="44.82823" lon="5.43717">
        <ele>1695</ele>
        <time>2024-05-11T07:07:26.000Z</time>
      </trkpt>
      <trkpt lat="44.8282" lon="5.43714">
        <ele>1693.1</ele>
        <time>2024-05-11T07:07:30.000Z</time>
      </trkpt>
      <trkpt lat="44.82816" lon="5.43713">
        <ele>1690.5</ele>
        <time>2024-05-11T07:07:36.000Z</time>
      </trkpt>
      <trkpt lat="44.82815" lon="5.43713">
        <ele>1690.1</ele>
        <time>2024-05-11T07:07:37.000Z</time>
      </trkpt>
      <trkpt lat="44.82815" lon="5.43714">
        <ele>1689.9</ele>
        <time>2024-05-11T07:07:42.000Z</time>
      </trkpt>
      <trkpt lat="44.82814" lon="5.43714">
        <ele>1689.4</ele>
        <time>2024-05-11T07:07:48.000Z</time>
      </trkpt>
      <trkpt lat="44.82813" lon="5.43714">
        <ele>1688.8</ele>
        <time>2024-05-11T07:07:58.000Z</time>
      </trkpt>
      <trkpt lat="44.82815" lon="5.43716">
        <ele>1690.5</ele>
        <time>2024-05-11T07:08:03.000Z</time>
      </trkpt>
      <trkpt lat="44.82814" lon="5.43719">
        <ele>1691.1</ele>
        <time>2024-05-11T07:08:13.000Z</time>
      </trkpt>
      <trkpt lat="44.82814" lon="5.43723">
        <ele>1692.1</ele>
        <time>2024-05-11T07:08:15.000Z</time>
      </trkpt>
      <trkpt lat="44.82811" lon="5.43732">
        <ele>1692.5</ele>
        <time>2024-05-11T07:08:20.000Z</time>
      </trkpt>
      <trkpt lat="44.82806" lon="5.43742">
        <ele>1693.7</ele>
        <time>2024-05-11T07:08:28.000Z</time>
      </trkpt>
      <trkpt lat="44.82801" lon="5.43753">
        <ele>1691</ele>
        <time>2024-05-11T07:08:37.000Z</time>
      </trkpt>
      <trkpt lat="44.82799" lon="5.4376">
        <ele>1689.8</ele>
        <time>2024-05-11T07:08:41.000Z</time>
      </trkpt>
      <trkpt lat="44.82799" lon="5.43761">
        <ele>1690</ele>
        <time>2024-05-11T07:08:42.000Z</time>
      </trkpt>
      <trkpt lat="44.82798" lon="5.43766">
        <ele>1690.1</ele>
        <time>2024-05-11T07:08:45.000Z</time>
      </trkpt>
      <trkpt lat="44.82796" lon="5.43772">
        <ele>1690</ele>
        <time>2024-05-11T07:08:49.000Z</time>
      </trkpt>
      <trkpt lat="44.82794" lon="5.43783">
        <ele>1690.4</ele>
        <time>2024-05-11T07:08:56.000Z</time>
      </trkpt>
      <trkpt lat="44.82794" lon="5.43784">
        <ele>1690.4</ele>
        <time>2024-05-11T07:08:57.000Z</time>
      </trkpt>
      <trkpt lat="44.82792" lon="5.43793">
        <ele>1690.4</ele>
        <time>2024-05-11T07:09:03.000Z</time>
      </trkpt>
      <trkpt lat="44.82793" lon="5.43794">
        <ele>1690.5</ele>
        <time>2024-05-11T07:09:04.000Z</time>
      </trkpt>
      <trkpt lat="44.82793" lon="5.43795">
        <ele>1690.8</ele>
        <time>2024-05-11T07:09:05.000Z</time>
      </trkpt>
      <trkpt lat="44.82794" lon="5.43798">
        <ele>1691.2</ele>
        <time>2024-05-11T07:09:07.000Z</time>
      </trkpt>
      <trkpt lat="44.82794" lon="5.438">
        <ele>1691.2</ele>
        <time>2024-05-11T07:09:08.000Z</time>
      </trkpt>
      <trkpt lat="44.82794" lon="5.43803">
        <ele>1691.5</ele>
        <time>2024-05-11T07:09:10.000Z</time>
      </trkpt>
      <trkpt lat="44.82796" lon="5.4381">
        <ele>1691.9</ele>
        <time>2024-05-11T07:09:15.000Z</time>
      </trkpt>
      <trkpt lat="44.82796" lon="5.43812">
        <ele>1691.6</ele>
        <time>2024-05-11T07:09:16.000Z</time>
      </trkpt>
      <trkpt lat="44.82795" lon="5.43813">
        <ele>1691.4</ele>
        <time>2024-05-11T07:09:17.000Z</time>
      </trkpt>
      <trkpt lat="44.82796" lon="5.4382">
        <ele>1691</ele>
        <time>2024-05-11T07:09:22.000Z</time>
      </trkpt>
      <trkpt lat="44.82796" lon="5.43823">
        <ele>1690.7</ele>
        <time>2024-05-11T07:09:24.000Z</time>
      </trkpt>
      <trkpt lat="44.82796" lon="5.43826">
        <ele>1690.7</ele>
        <time>2024-05-11T07:09:26.000Z</time>
      </trkpt>
      <trkpt lat="44.82797" lon="5.43828">
        <ele>1690.6</ele>
        <time>2024-05-11T07:09:28.000Z</time>
      </trkpt>
      <trkpt lat="44.82796" lon="5.4383">
        <ele>1690.3</ele>
        <time>2024-05-11T07:09:30.000Z</time>
      </trkpt>
      <trkpt lat="44.82795" lon="5.43835">
        <ele>1689.7</ele>
        <time>2024-05-11T07:09:34.000Z</time>
      </trkpt>
      <trkpt lat="44.82796" lon="5.43837">
        <ele>1689.8</ele>
        <time>2024-05-11T07:09:35.000Z</time>
      </trkpt>
      <trkpt lat="44.82797" lon="5.43839">
        <ele>1690.1</ele>
        <time>2024-05-11T07:09:37.000Z</time>
      </trkpt>
      <trkpt lat="44.82797" lon="5.43845">
        <ele>1690.2</ele>
        <time>2024-05-11T07:09:41.000Z</time>
      </trkpt>
      <trkpt lat="44.82797" lon="5.43847">
        <ele>1690.1</ele>
        <time>2024-05-11T07:09:42.000Z</time>
      </trkpt>
      <trkpt lat="44.82797" lon="5.43854">
        <ele>1690.1</ele>
        <time>2024-05-11T07:09:48.000Z</time>
      </trkpt>
      <trkpt lat="44.82799" lon="5.43863">
        <ele>1691.2</ele>
        <time>2024-05-11T07:09:55.000Z</time>
      </trkpt>
      <trkpt lat="44.82799" lon="5.43864">
        <ele>1691.5</ele>
        <time>2024-05-11T07:09:56.000Z</time>
      </trkpt>
      <trkpt lat="44.82801" lon="5.4387">
        <ele>1692.1</ele>
        <time>2024-05-11T07:09:59.000Z</time>
      </trkpt>
      <trkpt lat="44.82802" lon="5.43874">
        <ele>1692.8</ele>
        <time>2024-05-11T07:10:02.000Z</time>
      </trkpt>
      <trkpt lat="44.82801" lon="5.43885">
        <ele>1692.7</ele>
        <time>2024-05-11T07:10:09.000Z</time>
      </trkpt>
      <trkpt lat="44.828" lon="5.43892">
        <ele>1692.7</ele>
        <time>2024-05-11T07:10:15.000Z</time>
      </trkpt>
      <trkpt lat="44.828" lon="5.43897">
        <ele>1693.2</ele>
        <time>2024-05-11T07:10:18.000Z</time>
      </trkpt>
      <trkpt lat="44.82801" lon="5.43899">
        <ele>1693.6</ele>
        <time>2024-05-11T07:10:20.000Z</time>
      </trkpt>
      <trkpt lat="44.82801" lon="5.439">
        <ele>1693.6</ele>
        <time>2024-05-11T07:10:21.000Z</time>
      </trkpt>
      <trkpt lat="44.828" lon="5.43906">
        <ele>1693.4</ele>
        <time>2024-05-11T07:10:25.000Z</time>
      </trkpt>
      <trkpt lat="44.828" lon="5.43906">
        <ele>1693.5</ele>
        <time>2024-05-11T07:10:26.000Z</time>
      </trkpt>
      <trkpt lat="44.82799" lon="5.43912">
        <ele>1693.7</ele>
        <time>2024-05-11T07:10:30.000Z</time>
      </trkpt>
      <trkpt lat="44.82799" lon="5.43913">
        <ele>1693.8</ele>
        <time>2024-05-11T07:10:31.000Z</time>
      </trkpt>
      <trkpt lat="44.82801" lon="5.43918">
        <ele>1694.5</ele>
        <time>2024-05-11T07:10:36.000Z</time>
      </trkpt>
      <trkpt lat="44.828" lon="5.4392">
        <ele>1694.5</ele>
        <time>2024-05-11T07:10:38.000Z</time>
      </trkpt>
      <trkpt lat="44.82799" lon="5.43924">
        <ele>1694.5</ele>
        <time>2024-05-11T07:10:41.000Z</time>
      </trkpt>
      <trkpt lat="44.82798" lon="5.43928">
        <ele>1694.7</ele>
        <time>2024-05-11T07:10:44.000Z</time>
      </trkpt>
      <trkpt lat="44.82797" lon="5.43942">
        <ele>1695.6</ele>
        <time>2024-05-11T07:10:53.000Z</time>
      </trkpt>
      <trkpt lat="44.82796" lon="5.43946">
        <ele>1695.4</ele>
        <time>2024-05-11T07:10:56.000Z</time>
      </trkpt>
      <trkpt lat="44.82795" lon="5.43951">
        <ele>1695</ele>
        <time>2024-05-11T07:10:59.000Z</time>
      </trkpt>
      <trkpt lat="44.82795" lon="5.43952">
        <ele>1695</ele>
        <time>2024-05-11T07:11:01.000Z</time>
      </trkpt>
      <trkpt lat="44.82795" lon="5.43956">
        <ele>1694.8</ele>
        <time>2024-05-11T07:11:06.000Z</time>
      </trkpt>
      <trkpt lat="44.82796" lon="5.43957">
        <ele>1694.9</ele>
        <time>2024-05-11T07:11:07.000Z</time>
      </trkpt>
      <trkpt lat="44.82798" lon="5.4396">
        <ele>1695.3</ele>
        <time>2024-05-11T07:11:11.000Z</time>
      </trkpt>
      <trkpt lat="44.82798" lon="5.43962">
        <ele>1695.2</ele>
        <time>2024-05-11T07:11:12.000Z</time>
      </trkpt>
      <trkpt lat="44.82797" lon="5.43966">
        <ele>1694.8</ele>
        <time>2024-05-11T07:11:15.000Z</time>
      </trkpt>
      <trkpt lat="44.82796" lon="5.43967">
        <ele>1694.6</ele>
        <time>2024-05-11T07:11:16.000Z</time>
      </trkpt>
      <trkpt lat="44.82797" lon="5.43972">
        <ele>1694.7</ele>
        <time>2024-05-11T07:11:20.000Z</time>
      </trkpt>
      <trkpt lat="44.82798" lon="5.43976">
        <ele>1694.1</ele>
        <time>2024-05-11T07:11:24.000Z</time>
      </trkpt>
      <trkpt lat="44.82796" lon="5.43983">
        <ele>1691.5</ele>
        <time>2024-05-11T07:11:29.000Z</time>
      </trkpt>
      <trkpt lat="44.82796" lon="5.43984">
        <ele>1691.5</ele>
        <time>2024-05-11T07:11:32.000Z</time>
      </trkpt>
      <trkpt lat="44.82799" lon="5.43987">
        <ele>1692.4</ele>
        <time>2024-05-11T07:11:36.000Z</time>
      </trkpt>
      <trkpt lat="44.828" lon="5.43989">
        <ele>1692.7</ele>
        <time>2024-05-11T07:11:38.000Z</time>
      </trkpt>
      <trkpt lat="44.82805" lon="5.43997">
        <ele>1694.9</ele>
        <time>2024-05-11T07:11:45.000Z</time>
      </trkpt>
      <trkpt lat="44.82806" lon="5.43998">
        <ele>1695.2</ele>
        <time>2024-05-11T07:11:47.000Z</time>
      </trkpt>
      <trkpt lat="44.82808" lon="5.44002">
        <ele>1694.1</ele>
        <time>2024-05-11T07:11:51.000Z</time>
      </trkpt>
      <trkpt lat="44.8281" lon="5.44005">
        <ele>1693</ele>
        <time>2024-05-11T07:11:54.000Z</time>
      </trkpt>
      <trkpt lat="44.82813" lon="5.44011">
        <ele>1691.2</ele>
        <time>2024-05-11T07:11:59.000Z</time>
      </trkpt>
      <trkpt lat="44.82814" lon="5.44012">
        <ele>1690.9</ele>
        <time>2024-05-11T07:12:00.000Z</time>
      </trkpt>
      <trkpt lat="44.82815" lon="5.44013">
        <ele>1690.6</ele>
        <time>2024-05-11T07:12:01.000Z</time>
      </trkpt>
      <trkpt lat="44.82818" lon="5.44017">
        <ele>1689.9</ele>
        <time>2024-05-11T07:12:05.000Z</time>
      </trkpt>
      <trkpt lat="44.8282" lon="5.4402">
        <ele>1689.4</ele>
        <time>2024-05-11T07:12:08.000Z</time>
      </trkpt>
      <trkpt lat="44.82824" lon="5.44025">
        <ele>1689</ele>
        <time>2024-05-11T07:12:14.000Z</time>
      </trkpt>
      <trkpt lat="44.82827" lon="5.4403">
        <ele>1688.7</ele>
        <time>2024-05-11T07:12:19.000Z</time>
      </trkpt>
      <trkpt lat="44.82828" lon="5.44033">
        <ele>1688.5</ele>
        <time>2024-05-11T07:12:21.000Z</time>
      </trkpt>
      <trkpt lat="44.82829" lon="5.44034">
        <ele>1688.4</ele>
        <time>2024-05-11T07:12:22.000Z</time>
      </trkpt>
      <trkpt lat="44.82831" lon="5.44036">
        <ele>1688.6</ele>
        <time>2024-05-11T07:12:25.000Z</time>
      </trkpt>
      <trkpt lat="44.82833" lon="5.4404">
        <ele>1688.6</ele>
        <time>2024-05-11T07:12:29.000Z</time>
      </trkpt>
      <trkpt lat="44.82835" lon="5.44043">
        <ele>1688</ele>
        <time>2024-05-11T07:12:32.000Z</time>
      </trkpt>
      <trkpt lat="44.82837" lon="5.44047">
        <ele>1687.2</ele>
        <time>2024-05-11T07:12:36.000Z</time>
      </trkpt>
      <trkpt lat="44.82838" lon="5.4405">
        <ele>1686.8</ele>
        <time>2024-05-11T07:12:38.000Z</time>
      </trkpt>
      <trkpt lat="44.82839" lon="5.44053">
        <ele>1686.2</ele>
        <time>2024-05-11T07:12:41.000Z</time>
      </trkpt>
      <trkpt lat="44.82841" lon="5.4406">
        <ele>1684.8</ele>
        <time>2024-05-11T07:12:46.000Z</time>
      </trkpt>
      <trkpt lat="44.82842" lon="5.44061">
        <ele>1684.5</ele>
        <time>2024-05-11T07:12:47.000Z</time>
      </trkpt>
      <trkpt lat="44.82844" lon="5.44066">
        <ele>1683.4</ele>
        <time>2024-05-11T07:12:51.000Z</time>
      </trkpt>
      <trkpt lat="44.82847" lon="5.44072">
        <ele>1682.5</ele>
        <time>2024-05-11T07:12:57.000Z</time>
      </trkpt>
      <trkpt lat="44.82848" lon="5.44075">
        <ele>1682</ele>
        <time>2024-05-11T07:12:59.000Z</time>
      </trkpt>
      <trkpt lat="44.82849" lon="5.44078">
        <ele>1681.6</ele>
        <time>2024-05-11T07:13:01.000Z</time>
      </trkpt>
      <trkpt lat="44.82849" lon="5.44081">
        <ele>1681.2</ele>
        <time>2024-05-11T07:13:03.000Z</time>
      </trkpt>
      <trkpt lat="44.8285" lon="5.44084">
        <ele>1680.9</ele>
        <time>2024-05-11T07:13:05.000Z</time>
      </trkpt>
      <trkpt lat="44.8285" lon="5.44085">
        <ele>1680.7</ele>
        <time>2024-05-11T07:13:06.000Z</time>
      </trkpt>
      <trkpt lat="44.82851" lon="5.44087">
        <ele>1680.5</ele>
        <time>2024-05-11T07:13:08.000Z</time>
      </trkpt>
      <trkpt lat="44.82851" lon="5.44087">
        <ele>1680.4</ele>
        <time>2024-05-11T07:13:09.000Z</time>
      </trkpt>
      <trkpt lat="44.82851" lon="5.44088">
        <ele>1680.3</ele>
        <time>2024-05-11T07:13:10.000Z</time>
      </trkpt>
      <trkpt lat="44.82852" lon="5.44091">
        <ele>1680.1</ele>
        <time>2024-05-11T07:13:13.000Z</time>
      </trkpt>
      <trkpt lat="44.82854" lon="5.44096">
        <ele>1679.6</ele>
        <time>2024-05-11T07:13:17.000Z</time>
      </trkpt>
      <trkpt lat="44.82854" lon="5.441">
        <ele>1679.1</ele>
        <time>2024-05-11T07:13:20.000Z</time>
      </trkpt>
      <trkpt lat="44.82854" lon="5.44102">
        <ele>1678.7</ele>
        <time>2024-05-11T07:13:22.000Z</time>
      </trkpt>
      <trkpt lat="44.82857" lon="5.44107">
        <ele>1678.9</ele>
        <time>2024-05-11T07:13:26.000Z</time>
      </trkpt>
      <trkpt lat="44.82857" lon="5.44108">
        <ele>1678.8</ele>
        <time>2024-05-11T07:13:27.000Z</time>
      </trkpt>
      <trkpt lat="44.8286" lon="5.44114">
        <ele>1678.9</ele>
        <time>2024-05-11T07:13:31.000Z</time>
      </trkpt>
      <trkpt lat="44.82862" lon="5.44119">
        <ele>1678.1</ele>
        <time>2024-05-11T07:13:34.000Z</time>
      </trkpt>
      <trkpt lat="44.82862" lon="5.44123">
        <ele>1676.8</ele>
        <time>2024-05-11T07:13:38.000Z</time>
      </trkpt>
      <trkpt lat="44.82862" lon="5.44124">
        <ele>1676.7</ele>
        <time>2024-05-11T07:13:39.000Z</time>
      </trkpt>
      <trkpt lat="44.82863" lon="5.4413">
        <ele>1675.1</ele>
        <time>2024-05-11T07:13:44.000Z</time>
      </trkpt>
      <trkpt lat="44.82862" lon="5.44131">
        <ele>1674.9</ele>
        <time>2024-05-11T07:13:45.000Z</time>
      </trkpt>
      <trkpt lat="44.82862" lon="5.44136">
        <ele>1673.6</ele>
        <time>2024-05-11T07:13:49.000Z</time>
      </trkpt>
      <trkpt lat="44.82861" lon="5.44139">
        <ele>1673.1</ele>
        <time>2024-05-11T07:13:51.000Z</time>
      </trkpt>
      <trkpt lat="44.82862" lon="5.44143">
        <ele>1672</ele>
        <time>2024-05-11T07:13:53.000Z</time>
      </trkpt>
      <trkpt lat="44.82863" lon="5.44146">
        <ele>1671.2</ele>
        <time>2024-05-11T07:13:55.000Z</time>
      </trkpt>
      <trkpt lat="44.82863" lon="5.44147">
        <ele>1670.8</ele>
        <time>2024-05-11T07:13:56.000Z</time>
      </trkpt>
      <trkpt lat="44.82866" lon="5.44159">
        <ele>1667.8</ele>
        <time>2024-05-11T07:14:03.000Z</time>
      </trkpt>
      <trkpt lat="44.82866" lon="5.44161">
        <ele>1667.4</ele>
        <time>2024-05-11T07:14:04.000Z</time>
      </trkpt>
      <trkpt lat="44.82866" lon="5.44167">
        <ele>1666</ele>
        <time>2024-05-11T07:14:07.000Z</time>
      </trkpt>
      <trkpt lat="44.82866" lon="5.4417">
        <ele>1665.2</ele>
        <time>2024-05-11T07:14:10.000Z</time>
      </trkpt>
      <trkpt lat="44.82866" lon="5.44172">
        <ele>1664.9</ele>
        <time>2024-05-11T07:14:11.000Z</time>
      </trkpt>
      <trkpt lat="44.82866" lon="5.44175">
        <ele>1664.2</ele>
        <time>2024-05-11T07:14:13.000Z</time>
      </trkpt>
      <trkpt lat="44.82867" lon="5.4418">
        <ele>1662.9</ele>
        <time>2024-05-11T07:14:17.000Z</time>
      </trkpt>
      <trkpt lat="44.82867" lon="5.44182">
        <ele>1662.6</ele>
        <time>2024-05-11T07:14:18.000Z</time>
      </trkpt>
      <trkpt lat="44.82868" lon="5.44184">
        <ele>1662.3</ele>
        <time>2024-05-11T07:14:19.000Z</time>
      </trkpt>
      <trkpt lat="44.82869" lon="5.44186">
        <ele>1662</ele>
        <time>2024-05-11T07:14:20.000Z</time>
      </trkpt>
      <trkpt lat="44.82869" lon="5.44189">
        <ele>1661.2</ele>
        <time>2024-05-11T07:14:22.000Z</time>
      </trkpt>
      <trkpt lat="44.82871" lon="5.44196">
        <ele>1660.1</ele>
        <time>2024-05-11T07:14:26.000Z</time>
      </trkpt>
      <trkpt lat="44.82872" lon="5.44202">
        <ele>1658.9</ele>
        <time>2024-05-11T07:14:30.000Z</time>
      </trkpt>
      <trkpt lat="44.82873" lon="5.44204">
        <ele>1658.6</ele>
        <time>2024-05-11T07:14:31.000Z</time>
      </trkpt>
      <trkpt lat="44.82875" lon="5.44206">
        <ele>1658.5</ele>
        <time>2024-05-11T07:14:33.000Z</time>
      </trkpt>
      <trkpt lat="44.82877" lon="5.4421">
        <ele>1658</ele>
        <time>2024-05-11T07:14:36.000Z</time>
      </trkpt>
      <trkpt lat="44.82878" lon="5.44212">
        <ele>1657.9</ele>
        <time>2024-05-11T07:14:38.000Z</time>
      </trkpt>
      <trkpt lat="44.8288" lon="5.44219">
        <ele>1656.9</ele>
        <time>2024-05-11T07:14:43.000Z</time>
      </trkpt>
      <trkpt lat="44.8288" lon="5.4422">
        <ele>1656.9</ele>
        <time>2024-05-11T07:14:44.000Z</time>
      </trkpt>
      <trkpt lat="44.82885" lon="5.4423">
        <ele>1655.7</ele>
        <time>2024-05-11T07:14:50.000Z</time>
      </trkpt>
      <trkpt lat="44.82885" lon="5.44232">
        <ele>1655.5</ele>
        <time>2024-05-11T07:14:51.000Z</time>
      </trkpt>
      <trkpt lat="44.82889" lon="5.44241">
        <ele>1655</ele>
        <time>2024-05-11T07:14:58.000Z</time>
      </trkpt>
      <trkpt lat="44.8289" lon="5.44243">
        <ele>1654.8</ele>
        <time>2024-05-11T07:15:00.000Z</time>
      </trkpt>
      <trkpt lat="44.82891" lon="5.44247">
        <ele>1654.3</ele>
        <time>2024-05-11T07:15:03.000Z</time>
      </trkpt>
      <trkpt lat="44.82892" lon="5.44249">
        <ele>1654</ele>
        <time>2024-05-11T07:15:05.000Z</time>
      </trkpt>
      <trkpt lat="44.82893" lon="5.44253">
        <ele>1653.7</ele>
        <time>2024-05-11T07:15:08.000Z</time>
      </trkpt>
      <trkpt lat="44.82895" lon="5.44257">
        <ele>1653.5</ele>
        <time>2024-05-11T07:15:12.000Z</time>
      </trkpt>
      <trkpt lat="44.82896" lon="5.44258">
        <ele>1653.7</ele>
        <time>2024-05-11T07:15:13.000Z</time>
      </trkpt>
      <trkpt lat="44.82898" lon="5.44258">
        <ele>1654.1</ele>
        <time>2024-05-11T07:15:15.000Z</time>
      </trkpt>
      <trkpt lat="44.82898" lon="5.44259">
        <ele>1654.4</ele>
        <time>2024-05-11T07:15:17.000Z</time>
      </trkpt>
      <trkpt lat="44.829" lon="5.44265">
        <ele>1654.3</ele>
        <time>2024-05-11T07:15:22.000Z</time>
      </trkpt>
      <trkpt lat="44.82901" lon="5.44265">
        <ele>1654.5</ele>
        <time>2024-05-11T07:15:23.000Z</time>
      </trkpt>
      <trkpt lat="44.82904" lon="5.44269">
        <ele>1655.9</ele>
        <time>2024-05-11T07:15:28.000Z</time>
      </trkpt>
      <trkpt lat="44.82905" lon="5.44271">
        <ele>1656.5</ele>
        <time>2024-05-11T07:15:30.000Z</time>
      </trkpt>
      <trkpt lat="44.82908" lon="5.44274">
        <ele>1657.7</ele>
        <time>2024-05-11T07:15:34.000Z</time>
      </trkpt>
      <trkpt lat="44.82911" lon="5.4428">
        <ele>1659.6</ele>
        <time>2024-05-11T07:15:38.000Z</time>
      </trkpt>
      <trkpt lat="44.82912" lon="5.44281">
        <ele>1659.9</ele>
        <time>2024-05-11T07:15:39.000Z</time>
      </trkpt>
      <trkpt lat="44.82918" lon="5.44286">
        <ele>1663.4</ele>
        <time>2024-05-11T07:15:45.000Z</time>
      </trkpt>
      <trkpt lat="44.82919" lon="5.44289">
        <ele>1663.2</ele>
        <time>2024-05-11T07:15:47.000Z</time>
      </trkpt>
      <trkpt lat="44.8292" lon="5.44291">
        <ele>1663.2</ele>
        <time>2024-05-11T07:15:49.000Z</time>
      </trkpt>
      <trkpt lat="44.82922" lon="5.44295">
        <ele>1663.2</ele>
        <time>2024-05-11T07:15:52.000Z</time>
      </trkpt>
      <trkpt lat="44.82924" lon="5.44298">
        <ele>1663.4</ele>
        <time>2024-05-11T07:15:55.000Z</time>
      </trkpt>
      <trkpt lat="44.82924" lon="5.44299">
        <ele>1663.3</ele>
        <time>2024-05-11T07:15:57.000Z</time>
      </trkpt>
      <trkpt lat="44.82924" lon="5.44299">
        <ele>1663.2</ele>
        <time>2024-05-11T07:15:58.000Z</time>
      </trkpt>
      <trkpt lat="44.82924" lon="5.44302">
        <ele>1663.2</ele>
        <time>2024-05-11T07:16:00.000Z</time>
      </trkpt>
      <trkpt lat="44.82925" lon="5.44308">
        <ele>1662.5</ele>
        <time>2024-05-11T07:16:05.000Z</time>
      </trkpt>
      <trkpt lat="44.82924" lon="5.44312">
        <ele>1661.3</ele>
        <time>2024-05-11T07:16:08.000Z</time>
      </trkpt>
      <trkpt lat="44.82926" lon="5.44317">
        <ele>1660.4</ele>
        <time>2024-05-11T07:16:12.000Z</time>
      </trkpt>
      <trkpt lat="44.82927" lon="5.44318">
        <ele>1660.6</ele>
        <time>2024-05-11T07:16:13.000Z</time>
      </trkpt>
      <trkpt lat="44.82928" lon="5.44323">
        <ele>1660.3</ele>
        <time>2024-05-11T07:16:17.000Z</time>
      </trkpt>
      <trkpt lat="44.82931" lon="5.44331">
        <ele>1660</ele>
        <time>2024-05-11T07:16:24.000Z</time>
      </trkpt>
      <trkpt lat="44.82934" lon="5.44337">
        <ele>1660.5</ele>
        <time>2024-05-11T07:16:29.000Z</time>
      </trkpt>
      <trkpt lat="44.82934" lon="5.4434">
        <ele>1660.4</ele>
        <time>2024-05-11T07:16:31.000Z</time>
      </trkpt>
      <trkpt lat="44.82935" lon="5.44344">
        <ele>1660.3</ele>
        <time>2024-05-11T07:16:35.000Z</time>
      </trkpt>
      <trkpt lat="44.82936" lon="5.44346">
        <ele>1660.3</ele>
        <time>2024-05-11T07:16:38.000Z</time>
      </trkpt>
      <trkpt lat="44.82937" lon="5.44348">
        <ele>1660.7</ele>
        <time>2024-05-11T07:16:45.000Z</time>
      </trkpt>
      <trkpt lat="44.82937" lon="5.44347">
        <ele>1660.8</ele>
        <time>2024-05-11T07:16:54.000Z</time>
      </trkpt>
      <trkpt lat="44.82936" lon="5.44348">
        <ele>1660.4</ele>
        <time>2024-05-11T07:17:00.000Z</time>
      </trkpt>
      <trkpt lat="44.82936" lon="5.4435">
        <ele>1659.8</ele>
        <time>2024-05-11T07:17:27.000Z</time>
      </trkpt>
      <trkpt lat="44.82936" lon="5.44351">
        <ele>1659.6</ele>
        <time>2024-05-11T07:18:10.000Z</time>
      </trkpt>
      <trkpt lat="44.82938" lon="5.4435">
        <ele>1661.5</ele>
        <time>2024-05-11T07:18:39.000Z</time>
      </trkpt>
      <trkpt lat="44.82939" lon="5.44352">
        <ele>1661.9</ele>
        <time>2024-05-11T07:18:52.000Z</time>
      </trkpt>
      <trkpt lat="44.82939" lon="5.44356">
        <ele>1661.5</ele>
        <time>2024-05-11T07:18:55.000Z</time>
      </trkpt>
      <trkpt lat="44.8294" lon="5.44361">
        <ele>1661.7</ele>
        <time>2024-05-11T07:19:01.000Z</time>
      </trkpt>
      <trkpt lat="44.82942" lon="5.44364">
        <ele>1663.2</ele>
        <time>2024-05-11T07:19:03.000Z</time>
      </trkpt>
      <trkpt lat="44.82942" lon="5.44365">
        <ele>1663</ele>
        <time>2024-05-11T07:19:04.000Z</time>
      </trkpt>
      <trkpt lat="44.82943" lon="5.44369">
        <ele>1662.8</ele>
        <time>2024-05-11T07:19:07.000Z</time>
      </trkpt>
      <trkpt lat="44.82943" lon="5.4437">
        <ele>1663.2</ele>
        <time>2024-05-11T07:19:08.000Z</time>
      </trkpt>
      <trkpt lat="44.82947" lon="5.44381">
        <ele>1662.7</ele>
        <time>2024-05-11T07:19:16.000Z</time>
      </trkpt>
      <trkpt lat="44.82947" lon="5.44382">
        <ele>1662.7</ele>
        <time>2024-05-11T07:19:17.000Z</time>
      </trkpt>
      <trkpt lat="44.82949" lon="5.4439">
        <ele>1661.9</ele>
        <time>2024-05-11T07:19:21.000Z</time>
      </trkpt>
      <trkpt lat="44.8295" lon="5.44393">
        <ele>1661.5</ele>
        <time>2024-05-11T07:19:23.000Z</time>
      </trkpt>
      <trkpt lat="44.82953" lon="5.444">
        <ele>1660.9</ele>
        <time>2024-05-11T07:19:27.000Z</time>
      </trkpt>
      <trkpt lat="44.82954" lon="5.44402">
        <ele>1661</ele>
        <time>2024-05-11T07:19:28.000Z</time>
      </trkpt>
      <trkpt lat="44.82957" lon="5.44411">
        <ele>1660.5</ele>
        <time>2024-05-11T07:19:35.000Z</time>
      </trkpt>
      <trkpt lat="44.82957" lon="5.44412">
        <ele>1660.4</ele>
        <time>2024-05-11T07:19:36.000Z</time>
      </trkpt>
      <trkpt lat="44.82958" lon="5.4442">
        <ele>1659.5</ele>
        <time>2024-05-11T07:19:43.000Z</time>
      </trkpt>
      <trkpt lat="44.82958" lon="5.44421">
        <ele>1659.3</ele>
        <time>2024-05-11T07:19:44.000Z</time>
      </trkpt>
      <trkpt lat="44.82961" lon="5.4443">
        <ele>1659</ele>
        <time>2024-05-11T07:19:50.000Z</time>
      </trkpt>
      <trkpt lat="44.82961" lon="5.44433">
        <ele>1658.6</ele>
        <time>2024-05-11T07:19:52.000Z</time>
      </trkpt>
      <trkpt lat="44.82963" lon="5.44441">
        <ele>1658.4</ele>
        <time>2024-05-11T07:19:57.000Z</time>
      </trkpt>
      <trkpt lat="44.82962" lon="5.44441">
        <ele>1658.1</ele>
        <time>2024-05-11T07:19:58.000Z</time>
      </trkpt>
      <trkpt lat="44.82963" lon="5.44443">
        <ele>1657.9</ele>
        <time>2024-05-11T07:19:59.000Z</time>
      </trkpt>
      <trkpt lat="44.82963" lon="5.44443">
        <ele>1658</ele>
        <time>2024-05-11T07:20:02.000Z</time>
      </trkpt>
      <trkpt lat="44.82963" lon="5.44448">
        <ele>1657.2</ele>
        <time>2024-05-11T07:20:05.000Z</time>
      </trkpt>
      <trkpt lat="44.82963" lon="5.44453">
        <ele>1656.3</ele>
        <time>2024-05-11T07:20:09.000Z</time>
      </trkpt>
      <trkpt lat="44.82963" lon="5.44454">
        <ele>1656</ele>
        <time>2024-05-11T07:20:10.000Z</time>
      </trkpt>
      <trkpt lat="44.82964" lon="5.44457">
        <ele>1656</ele>
        <time>2024-05-11T07:20:12.000Z</time>
      </trkpt>
      <trkpt lat="44.82964" lon="5.44462">
        <ele>1655.5</ele>
        <time>2024-05-11T07:20:15.000Z</time>
      </trkpt>
      <trkpt lat="44.82965" lon="5.44463">
        <ele>1655.5</ele>
        <time>2024-05-11T07:20:16.000Z</time>
      </trkpt>
      <trkpt lat="44.82965" lon="5.44464">
        <ele>1655.8</ele>
        <time>2024-05-11T07:20:17.000Z</time>
      </trkpt>
      <trkpt lat="44.82966" lon="5.44466">
        <ele>1655.9</ele>
        <time>2024-05-11T07:20:18.000Z</time>
      </trkpt>
      <trkpt lat="44.82965" lon="5.44468">
        <ele>1655.1</ele>
        <time>2024-05-11T07:20:20.000Z</time>
      </trkpt>
      <trkpt lat="44.82965" lon="5.44472">
        <ele>1653.7</ele>
        <time>2024-05-11T07:20:23.000Z</time>
      </trkpt>
      <trkpt lat="44.82966" lon="5.44476">
        <ele>1654.5</ele>
        <time>2024-05-11T07:20:25.000Z</time>
      </trkpt>
      <trkpt lat="44.82966" lon="5.44483">
        <ele>1653.2</ele>
        <time>2024-05-11T07:20:30.000Z</time>
      </trkpt>
      <trkpt lat="44.82967" lon="5.44484">
        <ele>1653.2</ele>
        <time>2024-05-11T07:20:31.000Z</time>
      </trkpt>
      <trkpt lat="44.82968" lon="5.44492">
        <ele>1653.5</ele>
        <time>2024-05-11T07:20:36.000Z</time>
      </trkpt>
      <trkpt lat="44.82969" lon="5.44496">
        <ele>1653.6</ele>
        <time>2024-05-11T07:20:38.000Z</time>
      </trkpt>
      <trkpt lat="44.82969" lon="5.44497">
        <ele>1653.1</ele>
        <time>2024-05-11T07:20:39.000Z</time>
      </trkpt>
      <trkpt lat="44.8297" lon="5.44505">
        <ele>1652.7</ele>
        <time>2024-05-11T07:20:45.000Z</time>
      </trkpt>
      <trkpt lat="44.82971" lon="5.44508">
        <ele>1652.8</ele>
        <time>2024-05-11T07:20:47.000Z</time>
      </trkpt>
      <trkpt lat="44.82971" lon="5.4451">
        <ele>1652.7</ele>
        <time>2024-05-11T07:20:48.000Z</time>
      </trkpt>
      <trkpt lat="44.82972" lon="5.44514">
        <ele>1652.4</ele>
        <time>2024-05-11T07:20:50.000Z</time>
      </trkpt>
      <trkpt lat="44.82972" lon="5.44523">
        <ele>1650.8</ele>
        <time>2024-05-11T07:20:55.000Z</time>
      </trkpt>
      <trkpt lat="44.82973" lon="5.44525">
        <ele>1650.7</ele>
        <time>2024-05-11T07:20:56.000Z</time>
      </trkpt>
      <trkpt lat="44.82976" lon="5.44537">
        <ele>1650.3</ele>
        <time>2024-05-11T07:21:05.000Z</time>
      </trkpt>
      <trkpt lat="44.82977" lon="5.44539">
        <ele>1650.4</ele>
        <time>2024-05-11T07:21:07.000Z</time>
      </trkpt>
      <trkpt lat="44.82977" lon="5.44542">
        <ele>1650.5</ele>
        <time>2024-05-11T07:21:09.000Z</time>
      </trkpt>
      <trkpt lat="44.82977" lon="5.44543">
        <ele>1650.4</ele>
        <time>2024-05-11T07:21:10.000Z</time>
      </trkpt>
      <trkpt lat="44.82977" lon="5.44546">
        <ele>1650.4</ele>
        <time>2024-05-11T07:21:12.000Z</time>
      </trkpt>
      <trkpt lat="44.82976" lon="5.4455">
        <ele>1650.3</ele>
        <time>2024-05-11T07:21:15.000Z</time>
      </trkpt>
      <trkpt lat="44.82977" lon="5.44555">
        <ele>1650.3</ele>
        <time>2024-05-11T07:21:18.000Z</time>
      </trkpt>
      <trkpt lat="44.82979" lon="5.44558">
        <ele>1650.4</ele>
        <time>2024-05-11T07:21:19.000Z</time>
      </trkpt>
      <trkpt lat="44.8298" lon="5.44564">
        <ele>1650.4</ele>
        <time>2024-05-11T07:21:24.000Z</time>
      </trkpt>
      <trkpt lat="44.82983" lon="5.44574">
        <ele>1650.3</ele>
        <time>2024-05-11T07:21:31.000Z</time>
      </trkpt>
      <trkpt lat="44.82983" lon="5.44576">
        <ele>1650.3</ele>
        <time>2024-05-11T07:21:32.000Z</time>
      </trkpt>
      <trkpt lat="44.82984" lon="5.44585">
        <ele>1650.2</ele>
        <time>2024-05-11T07:21:38.000Z</time>
      </trkpt>
      <trkpt lat="44.82985" lon="5.44592">
        <ele>1649.9</ele>
        <time>2024-05-11T07:21:43.000Z</time>
      </trkpt>
      <trkpt lat="44.82986" lon="5.44594">
        <ele>1649.9</ele>
        <time>2024-05-11T07:21:44.000Z</time>
      </trkpt>
      <trkpt lat="44.82985" lon="5.44607">
        <ele>1649.1</ele>
        <time>2024-05-11T07:21:52.000Z</time>
      </trkpt>
      <trkpt lat="44.82983" lon="5.44615">
        <ele>1648.5</ele>
        <time>2024-05-11T07:21:57.000Z</time>
      </trkpt>
      <trkpt lat="44.82983" lon="5.44618">
        <ele>1648.4</ele>
        <time>2024-05-11T07:21:59.000Z</time>
      </trkpt>
      <trkpt lat="44.82982" lon="5.44627">
        <ele>1648</ele>
        <time>2024-05-11T07:22:03.000Z</time>
      </trkpt>
      <trkpt lat="44.82984" lon="5.4464">
        <ele>1648</ele>
        <time>2024-05-11T07:22:11.000Z</time>
      </trkpt>
      <trkpt lat="44.82984" lon="5.44642">
        <ele>1647.9</ele>
        <time>2024-05-11T07:22:12.000Z</time>
      </trkpt>
      <trkpt lat="44.82986" lon="5.44644">
        <ele>1647.9</ele>
        <time>2024-05-11T07:22:14.000Z</time>
      </trkpt>
      <trkpt lat="44.82986" lon="5.44645">
        <ele>1647.8</ele>
        <time>2024-05-11T07:22:15.000Z</time>
      </trkpt>
      <trkpt lat="44.82986" lon="5.44646">
        <ele>1647.7</ele>
        <time>2024-05-11T07:22:16.000Z</time>
      </trkpt>
      <trkpt lat="44.82986" lon="5.44651">
        <ele>1647.1</ele>
        <time>2024-05-11T07:22:20.000Z</time>
      </trkpt>
      <trkpt lat="44.82987" lon="5.44657">
        <ele>1646.7</ele>
        <time>2024-05-11T07:22:24.000Z</time>
      </trkpt>
      <trkpt lat="44.82986" lon="5.4466">
        <ele>1646.2</ele>
        <time>2024-05-11T07:22:26.000Z</time>
      </trkpt>
      <trkpt lat="44.82986" lon="5.44661">
        <ele>1646.1</ele>
        <time>2024-05-11T07:22:27.000Z</time>
      </trkpt>
      <trkpt lat="44.82986" lon="5.44671">
        <ele>1645.1</ele>
        <time>2024-05-11T07:22:32.000Z</time>
      </trkpt>
      <trkpt lat="44.82986" lon="5.44675">
        <ele>1644.7</ele>
        <time>2024-05-11T07:22:35.000Z</time>
      </trkpt>
      <trkpt lat="44.82986" lon="5.44677">
        <ele>1644.5</ele>
        <time>2024-05-11T07:22:36.000Z</time>
      </trkpt>
      <trkpt lat="44.82986" lon="5.44678">
        <ele>1644.4</ele>
        <time>2024-05-11T07:22:37.000Z</time>
      </trkpt>
      <trkpt lat="44.82986" lon="5.44684">
        <ele>1644</ele>
        <time>2024-05-11T07:22:42.000Z</time>
      </trkpt>
      <trkpt lat="44.82987" lon="5.44686">
        <ele>1643.8</ele>
        <time>2024-05-11T07:22:43.000Z</time>
      </trkpt>
      <trkpt lat="44.82987" lon="5.44688">
        <ele>1643.6</ele>
        <time>2024-05-11T07:22:45.000Z</time>
      </trkpt>
      <trkpt lat="44.82987" lon="5.44698">
        <ele>1642.9</ele>
        <time>2024-05-11T07:22:51.000Z</time>
      </trkpt>
      <trkpt lat="44.82986" lon="5.44703">
        <ele>1642.6</ele>
        <time>2024-05-11T07:22:54.000Z</time>
      </trkpt>
      <trkpt lat="44.82986" lon="5.44706">
        <ele>1642.4</ele>
        <time>2024-05-11T07:22:56.000Z</time>
      </trkpt>
      <trkpt lat="44.82986" lon="5.44708">
        <ele>1642.2</ele>
        <time>2024-05-11T07:22:57.000Z</time>
      </trkpt>
      <trkpt lat="44.82986" lon="5.44715">
        <ele>1641.9</ele>
        <time>2024-05-11T07:23:01.000Z</time>
      </trkpt>
      <trkpt lat="44.82987" lon="5.44718">
        <ele>1641.8</ele>
        <time>2024-05-11T07:23:03.000Z</time>
      </trkpt>
      <trkpt lat="44.82985" lon="5.44723">
        <ele>1641.3</ele>
        <time>2024-05-11T07:23:06.000Z</time>
      </trkpt>
      <trkpt lat="44.82984" lon="5.44727">
        <ele>1640.8</ele>
        <time>2024-05-11T07:23:09.000Z</time>
      </trkpt>
      <trkpt lat="44.82984" lon="5.44733">
        <ele>1640.3</ele>
        <time>2024-05-11T07:23:12.000Z</time>
      </trkpt>
      <trkpt lat="44.82984" lon="5.44737">
        <ele>1640</ele>
        <time>2024-05-11T07:23:14.000Z</time>
      </trkpt>
      <trkpt lat="44.82984" lon="5.44739">
        <ele>1639.7</ele>
        <time>2024-05-11T07:23:16.000Z</time>
      </trkpt>
      <trkpt lat="44.82983" lon="5.44743">
        <ele>1639.3</ele>
        <time>2024-05-11T07:23:19.000Z</time>
      </trkpt>
      <trkpt lat="44.82983" lon="5.44745">
        <ele>1638.9</ele>
        <time>2024-05-11T07:23:21.000Z</time>
      </trkpt>
      <trkpt lat="44.82982" lon="5.44751">
        <ele>1638.4</ele>
        <time>2024-05-11T07:23:25.000Z</time>
      </trkpt>
      <trkpt lat="44.82982" lon="5.44755">
        <ele>1638</ele>
        <time>2024-05-11T07:23:28.000Z</time>
      </trkpt>
      <trkpt lat="44.82981" lon="5.44758">
        <ele>1637.7</ele>
        <time>2024-05-11T07:23:30.000Z</time>
      </trkpt>
      <trkpt lat="44.82981" lon="5.44763">
        <ele>1637.1</ele>
        <time>2024-05-11T07:23:35.000Z</time>
      </trkpt>
      <trkpt lat="44.82981" lon="5.44765">
        <ele>1637</ele>
        <time>2024-05-11T07:23:36.000Z</time>
      </trkpt>
      <trkpt lat="44.82979" lon="5.44772">
        <ele>1636.2</ele>
        <time>2024-05-11T07:23:41.000Z</time>
      </trkpt>
      <trkpt lat="44.82978" lon="5.44777">
        <ele>1635.7</ele>
        <time>2024-05-11T07:23:44.000Z</time>
      </trkpt>
      <trkpt lat="44.82976" lon="5.44786">
        <ele>1635.1</ele>
        <time>2024-05-11T07:23:50.000Z</time>
      </trkpt>
      <trkpt lat="44.82976" lon="5.44789">
        <ele>1634.9</ele>
        <time>2024-05-11T07:23:52.000Z</time>
      </trkpt>
      <trkpt lat="44.82975" lon="5.44796">
        <ele>1634.5</ele>
        <time>2024-05-11T07:23:57.000Z</time>
      </trkpt>
      <trkpt lat="44.82974" lon="5.44807">
        <ele>1634.1</ele>
        <time>2024-05-11T07:24:04.000Z</time>
      </trkpt>
      <trkpt lat="44.82974" lon="5.44809">
        <ele>1634</ele>
        <time>2024-05-11T07:24:05.000Z</time>
      </trkpt>
      <trkpt lat="44.82972" lon="5.44819">
        <ele>1633.8</ele>
        <time>2024-05-11T07:24:11.000Z</time>
      </trkpt>
      <trkpt lat="44.82971" lon="5.44821">
        <ele>1633.4</ele>
        <time>2024-05-11T07:24:13.000Z</time>
      </trkpt>
      <trkpt lat="44.8297" lon="5.44824">
        <ele>1633.1</ele>
        <time>2024-05-11T07:24:15.000Z</time>
      </trkpt>
      <trkpt lat="44.82972" lon="5.44829">
        <ele>1633.7</ele>
        <time>2024-05-11T07:24:17.000Z</time>
      </trkpt>
      <trkpt lat="44.82971" lon="5.44835">
        <ele>1633.3</ele>
        <time>2024-05-11T07:24:22.000Z</time>
      </trkpt>
      <trkpt lat="44.8297" lon="5.44837">
        <ele>1633.1</ele>
        <time>2024-05-11T07:24:23.000Z</time>
      </trkpt>
      <trkpt lat="44.82969" lon="5.4485">
        <ele>1632.5</ele>
        <time>2024-05-11T07:24:31.000Z</time>
      </trkpt>
      <trkpt lat="44.82968" lon="5.44854">
        <ele>1632.4</ele>
        <time>2024-05-11T07:24:34.000Z</time>
      </trkpt>
      <trkpt lat="44.82968" lon="5.44857">
        <ele>1632.3</ele>
        <time>2024-05-11T07:24:36.000Z</time>
      </trkpt>
      <trkpt lat="44.82968" lon="5.44861">
        <ele>1632.2</ele>
        <time>2024-05-11T07:24:39.000Z</time>
      </trkpt>
      <trkpt lat="44.82969" lon="5.44865">
        <ele>1632.8</ele>
        <time>2024-05-11T07:24:42.000Z</time>
      </trkpt>
      <trkpt lat="44.82968" lon="5.44869">
        <ele>1632.9</ele>
        <time>2024-05-11T07:24:46.000Z</time>
      </trkpt>
      <trkpt lat="44.82967" lon="5.44872">
        <ele>1632.6</ele>
        <time>2024-05-11T07:24:48.000Z</time>
      </trkpt>
      <trkpt lat="44.82966" lon="5.44878">
        <ele>1632.5</ele>
        <time>2024-05-11T07:24:53.000Z</time>
      </trkpt>
      <trkpt lat="44.82965" lon="5.44881">
        <ele>1632.6</ele>
        <time>2024-05-11T07:24:55.000Z</time>
      </trkpt>
      <trkpt lat="44.82964" lon="5.44889">
        <ele>1632.8</ele>
        <time>2024-05-11T07:25:02.000Z</time>
      </trkpt>
      <trkpt lat="44.82964" lon="5.4489">
        <ele>1632.8</ele>
        <time>2024-05-11T07:25:03.000Z</time>
      </trkpt>
      <trkpt lat="44.82963" lon="5.44898">
        <ele>1632.8</ele>
        <time>2024-05-11T07:25:08.000Z</time>
      </trkpt>
      <trkpt lat="44.82962" lon="5.44901">
        <ele>1632.7</ele>
        <time>2024-05-11T07:25:10.000Z</time>
      </trkpt>
      <trkpt lat="44.8296" lon="5.44905">
        <ele>1632.5</ele>
        <time>2024-05-11T07:25:14.000Z</time>
      </trkpt>
      <trkpt lat="44.82959" lon="5.44907">
        <ele>1632.3</ele>
        <time>2024-05-11T07:25:16.000Z</time>
      </trkpt>
      <trkpt lat="44.82957" lon="5.44911">
        <ele>1632.1</ele>
        <time>2024-05-11T07:25:19.000Z</time>
      </trkpt>
      <trkpt lat="44.82956" lon="5.44914">
        <ele>1632.2</ele>
        <time>2024-05-11T07:25:22.000Z</time>
      </trkpt>
      <trkpt lat="44.82955" lon="5.44918">
        <ele>1632.1</ele>
        <time>2024-05-11T07:25:26.000Z</time>
      </trkpt>
      <trkpt lat="44.82954" lon="5.44919">
        <ele>1632</ele>
        <time>2024-05-11T07:25:27.000Z</time>
      </trkpt>
      <trkpt lat="44.82953" lon="5.44921">
        <ele>1631.8</ele>
        <time>2024-05-11T07:25:28.000Z</time>
      </trkpt>
      <trkpt lat="44.82953" lon="5.44923">
        <ele>1631.8</ele>
        <time>2024-05-11T07:25:31.000Z</time>
      </trkpt>
      <trkpt lat="44.82952" lon="5.44925">
        <ele>1631.7</ele>
        <time>2024-05-11T07:25:38.000Z</time>
      </trkpt>
      <trkpt lat="44.82952" lon="5.44925">
        <ele>1631.9</ele>
        <time>2024-05-11T07:25:47.000Z</time>
      </trkpt>
      <trkpt lat="44.82953" lon="5.4493">
        <ele>1632.2</ele>
        <time>2024-05-11T07:25:59.000Z</time>
      </trkpt>
      <trkpt lat="44.82948" lon="5.4494">
        <ele>1632.1</ele>
        <time>2024-05-11T07:26:07.000Z</time>
      </trkpt>
      <trkpt lat="44.82945" lon="5.44946">
        <ele>1632.1</ele>
        <time>2024-05-11T07:26:13.000Z</time>
      </trkpt>
      <trkpt lat="44.82941" lon="5.44953">
        <ele>1630.7</ele>
        <time>2024-05-11T07:26:17.000Z</time>
      </trkpt>
      <trkpt lat="44.82937" lon="5.44956">
        <ele>1629.4</ele>
        <time>2024-05-11T07:26:20.000Z</time>
      </trkpt>
      <trkpt lat="44.82932" lon="5.44966">
        <ele>1628.2</ele>
        <time>2024-05-11T07:26:27.000Z</time>
      </trkpt>
      <trkpt lat="44.82928" lon="5.44972">
        <ele>1627.5</ele>
        <time>2024-05-11T07:26:33.000Z</time>
      </trkpt>
      <trkpt lat="44.82926" lon="5.44975">
        <ele>1627.4</ele>
        <time>2024-05-11T07:26:37.000Z</time>
      </trkpt>
      <trkpt lat="44.82926" lon="5.4498">
        <ele>1627.6</ele>
        <time>2024-05-11T07:26:42.000Z</time>
      </trkpt>
      <trkpt lat="44.82922" lon="5.44985">
        <ele>1627.1</ele>
        <time>2024-05-11T07:26:49.000Z</time>
      </trkpt>
      <trkpt lat="44.82918" lon="5.44991">
        <ele>1627</ele>
        <time>2024-05-11T07:26:54.000Z</time>
      </trkpt>
      <trkpt lat="44.82916" lon="5.44992">
        <ele>1626.6</ele>
        <time>2024-05-11T07:26:55.000Z</time>
      </trkpt>
      <trkpt lat="44.82912" lon="5.44998">
        <ele>1625.9</ele>
        <time>2024-05-11T07:27:00.000Z</time>
      </trkpt>
      <trkpt lat="44.8291" lon="5.45">
        <ele>1625.6</ele>
        <time>2024-05-11T07:27:03.000Z</time>
      </trkpt>
      <trkpt lat="44.82909" lon="5.45002">
        <ele>1625.3</ele>
        <time>2024-05-11T07:27:07.000Z</time>
      </trkpt>
      <trkpt lat="44.82909" lon="5.45002">
        <ele>1625.4</ele>
        <time>2024-05-11T07:27:08.000Z</time>
      </trkpt>
      <trkpt lat="44.82909" lon="5.45006">
        <ele>1625.3</ele>
        <time>2024-05-11T07:27:13.000Z</time>
      </trkpt>
      <trkpt lat="44.82908" lon="5.45008">
        <ele>1625.1</ele>
        <time>2024-05-11T07:27:15.000Z</time>
      </trkpt>
      <trkpt lat="44.82905" lon="5.45012">
        <ele>1624.5</ele>
        <time>2024-05-11T07:27:20.000Z</time>
      </trkpt>
      <trkpt lat="44.82904" lon="5.45015">
        <ele>1624.4</ele>
        <time>2024-05-11T07:27:22.000Z</time>
      </trkpt>
      <trkpt lat="44.82898" lon="5.45018">
        <ele>1623.1</ele>
        <time>2024-05-11T07:27:27.000Z</time>
      </trkpt>
      <trkpt lat="44.82894" lon="5.45025">
        <ele>1622.8</ele>
        <time>2024-05-11T07:27:32.000Z</time>
      </trkpt>
      <trkpt lat="44.82893" lon="5.45026">
        <ele>1622.7</ele>
        <time>2024-05-11T07:27:33.000Z</time>
      </trkpt>
      <trkpt lat="44.82887" lon="5.45031">
        <ele>1621.3</ele>
        <time>2024-05-11T07:27:40.000Z</time>
      </trkpt>
      <trkpt lat="44.82886" lon="5.45032">
        <ele>1621</ele>
        <time>2024-05-11T07:27:42.000Z</time>
      </trkpt>
      <trkpt lat="44.82885" lon="5.45034">
        <ele>1620.8</ele>
        <time>2024-05-11T07:27:45.000Z</time>
      </trkpt>
      <trkpt lat="44.82886" lon="5.45037">
        <ele>1621</ele>
        <time>2024-05-11T07:27:51.000Z</time>
      </trkpt>
      <trkpt lat="44.82886" lon="5.45037">
        <ele>1620.9</ele>
        <time>2024-05-11T07:27:52.000Z</time>
      </trkpt>
      <trkpt lat="44.82883" lon="5.4504">
        <ele>1620.3</ele>
        <time>2024-05-11T07:27:55.000Z</time>
      </trkpt>
      <trkpt lat="44.82878" lon="5.45043">
        <ele>1618.6</ele>
        <time>2024-05-11T07:28:01.000Z</time>
      </trkpt>
      <trkpt lat="44.82876" lon="5.45045">
        <ele>1618.1</ele>
        <time>2024-05-11T07:28:06.000Z</time>
      </trkpt>
      <trkpt lat="44.8287" lon="5.45052">
        <ele>1617</ele>
        <time>2024-05-11T07:28:13.000Z</time>
      </trkpt>
      <trkpt lat="44.82867" lon="5.45057">
        <ele>1616.2</ele>
        <time>2024-05-11T07:28:20.000Z</time>
      </trkpt>
      <trkpt lat="44.82866" lon="5.45058">
        <ele>1616.1</ele>
        <time>2024-05-11T07:28:21.000Z</time>
      </trkpt>
      <trkpt lat="44.82864" lon="5.4506">
        <ele>1615.2</ele>
        <time>2024-05-11T07:28:27.000Z</time>
      </trkpt>
      <trkpt lat="44.82864" lon="5.45062">
        <ele>1614.9</ele>
        <time>2024-05-11T07:28:28.000Z</time>
      </trkpt>
      <trkpt lat="44.82861" lon="5.45066">
        <ele>1614</ele>
        <time>2024-05-11T07:28:33.000Z</time>
      </trkpt>
      <trkpt lat="44.82862" lon="5.45067">
        <ele>1614</ele>
        <time>2024-05-11T07:28:35.000Z</time>
      </trkpt>
      <trkpt lat="44.82862" lon="5.45068">
        <ele>1613.9</ele>
        <time>2024-05-11T07:28:36.000Z</time>
      </trkpt>
      <trkpt lat="44.82861" lon="5.45071">
        <ele>1613.1</ele>
        <time>2024-05-11T07:28:42.000Z</time>
      </trkpt>
      <trkpt lat="44.82861" lon="5.45072">
        <ele>1613</ele>
        <time>2024-05-11T07:28:43.000Z</time>
      </trkpt>
      <trkpt lat="44.82858" lon="5.45073">
        <ele>1611.9</ele>
        <time>2024-05-11T07:28:47.000Z</time>
      </trkpt>
      <trkpt lat="44.82859" lon="5.45077">
        <ele>1612</ele>
        <time>2024-05-11T07:28:51.000Z</time>
      </trkpt>
      <trkpt lat="44.82861" lon="5.45078">
        <ele>1612.4</ele>
        <time>2024-05-11T07:28:54.000Z</time>
      </trkpt>
      <trkpt lat="44.82863" lon="5.45078">
        <ele>1612.9</ele>
        <time>2024-05-11T07:28:58.000Z</time>
      </trkpt>
      <trkpt lat="44.82863" lon="5.45078">
        <ele>1613</ele>
        <time>2024-05-11T07:29:01.000Z</time>
      </trkpt>
      <trkpt lat="44.82863" lon="5.45077">
        <ele>1613</ele>
        <time>2024-05-11T07:29:04.000Z</time>
      </trkpt>
      <trkpt lat="44.82862" lon="5.4508">
        <ele>1612.5</ele>
        <time>2024-05-11T07:29:13.000Z</time>
      </trkpt>
      <trkpt lat="44.82862" lon="5.45082">
        <ele>1612.2</ele>
        <time>2024-05-11T07:29:15.000Z</time>
      </trkpt>
      <trkpt lat="44.82861" lon="5.45083">
        <ele>1611.8</ele>
        <time>2024-05-11T07:29:18.000Z</time>
      </trkpt>
      <trkpt lat="44.8286" lon="5.45086">
        <ele>1610.9</ele>
        <time>2024-05-11T07:29:21.000Z</time>
      </trkpt>
      <trkpt lat="44.8286" lon="5.45087">
        <ele>1610.8</ele>
        <time>2024-05-11T07:29:24.000Z</time>
      </trkpt>
      <trkpt lat="44.82861" lon="5.45088">
        <ele>1610.8</ele>
        <time>2024-05-11T07:29:27.000Z</time>
      </trkpt>
      <trkpt lat="44.82862" lon="5.4509">
        <ele>1610.4</ele>
        <time>2024-05-11T07:29:30.000Z</time>
      </trkpt>
      <trkpt lat="44.82862" lon="5.45095">
        <ele>1609.1</ele>
        <time>2024-05-11T07:29:34.000Z</time>
      </trkpt>
      <trkpt lat="44.82862" lon="5.45096">
        <ele>1608.9</ele>
        <time>2024-05-11T07:29:35.000Z</time>
      </trkpt>
      <trkpt lat="44.82862" lon="5.45099">
        <ele>1608.3</ele>
        <time>2024-05-11T07:29:39.000Z</time>
      </trkpt>
      <trkpt lat="44.82862" lon="5.45099">
        <ele>1608.2</ele>
        <time>2024-05-11T07:29:41.000Z</time>
      </trkpt>
      <trkpt lat="44.82863" lon="5.45105">
        <ele>1606.8</ele>
        <time>2024-05-11T07:29:46.000Z</time>
      </trkpt>
      <trkpt lat="44.82863" lon="5.45106">
        <ele>1606.5</ele>
        <time>2024-05-11T07:29:47.000Z</time>
      </trkpt>
      <trkpt lat="44.82861" lon="5.4511">
        <ele>1605.3</ele>
        <time>2024-05-11T07:29:51.000Z</time>
      </trkpt>
      <trkpt lat="44.82861" lon="5.4511">
        <ele>1605.2</ele>
        <time>2024-05-11T07:29:52.000Z</time>
      </trkpt>
      <trkpt lat="44.82859" lon="5.45112">
        <ele>1603.8</ele>
        <time>2024-05-11T07:29:55.000Z</time>
      </trkpt>
      <trkpt lat="44.82855" lon="5.45112">
        <ele>1602.3</ele>
        <time>2024-05-11T07:29:59.000Z</time>
      </trkpt>
      <trkpt lat="44.82854" lon="5.45112">
        <ele>1602.1</ele>
        <time>2024-05-11T07:30:02.000Z</time>
      </trkpt>
      <trkpt lat="44.82853" lon="5.45112">
        <ele>1601.5</ele>
        <time>2024-05-11T07:30:04.000Z</time>
      </trkpt>
      <trkpt lat="44.82852" lon="5.45119">
        <ele>1598.7</ele>
        <time>2024-05-11T07:30:10.000Z</time>
      </trkpt>
      <trkpt lat="44.82856" lon="5.45126">
        <ele>1597.5</ele>
        <time>2024-05-11T07:30:15.000Z</time>
      </trkpt>
      <trkpt lat="44.82856" lon="5.45131">
        <ele>1596</ele>
        <time>2024-05-11T07:30:20.000Z</time>
      </trkpt>
      <trkpt lat="44.82855" lon="5.45132">
        <ele>1595.2</ele>
        <time>2024-05-11T07:30:21.000Z</time>
      </trkpt>
      <trkpt lat="44.82855" lon="5.45136">
        <ele>1593.6</ele>
        <time>2024-05-11T07:30:26.000Z</time>
      </trkpt>
      <trkpt lat="44.82857" lon="5.45138">
        <ele>1593.7</ele>
        <time>2024-05-11T07:30:32.000Z</time>
      </trkpt>
      <trkpt lat="44.82855" lon="5.45142">
        <ele>1591.6</ele>
        <time>2024-05-11T07:30:38.000Z</time>
      </trkpt>
      <trkpt lat="44.82855" lon="5.45142">
        <ele>1591.2</ele>
        <time>2024-05-11T07:30:39.000Z</time>
      </trkpt>
      <trkpt lat="44.82854" lon="5.45147">
        <ele>1589.3</ele>
        <time>2024-05-11T07:30:44.000Z</time>
      </trkpt>
      <trkpt lat="44.82854" lon="5.45147">
        <ele>1589.2</ele>
        <time>2024-05-11T07:30:45.000Z</time>
      </trkpt>
      <trkpt lat="44.82853" lon="5.45149">
        <ele>1588</ele>
        <time>2024-05-11T07:30:49.000Z</time>
      </trkpt>
      <trkpt lat="44.82851" lon="5.45148">
        <ele>1587.9</ele>
        <time>2024-05-11T07:30:52.000Z</time>
      </trkpt>
      <trkpt lat="44.82851" lon="5.45149">
        <ele>1587.2</ele>
        <time>2024-05-11T07:30:57.000Z</time>
      </trkpt>
      <trkpt lat="44.8285" lon="5.45151">
        <ele>1586.3</ele>
        <time>2024-05-11T07:31:00.000Z</time>
      </trkpt>
      <trkpt lat="44.8285" lon="5.45154">
        <ele>1584.7</ele>
        <time>2024-05-11T07:31:05.000Z</time>
      </trkpt>
      <trkpt lat="44.8285" lon="5.45156">
        <ele>1584.2</ele>
        <time>2024-05-11T07:31:09.000Z</time>
      </trkpt>
      <trkpt lat="44.82849" lon="5.45156">
        <ele>1584</ele>
        <time>2024-05-11T07:31:11.000Z</time>
      </trkpt>
      <trkpt lat="44.82849" lon="5.45156">
        <ele>1583.9</ele>
        <time>2024-05-11T07:31:12.000Z</time>
      </trkpt>
      <trkpt lat="44.82848" lon="5.45157">
        <ele>1583</ele>
        <time>2024-05-11T07:31:20.000Z</time>
      </trkpt>
      <trkpt lat="44.82847" lon="5.45157">
        <ele>1582.7</ele>
        <time>2024-05-11T07:31:21.000Z</time>
      </trkpt>
      <trkpt lat="44.82846" lon="5.45161">
        <ele>1580.7</ele>
        <time>2024-05-11T07:31:26.000Z</time>
      </trkpt>
      <trkpt lat="44.82846" lon="5.45164">
        <ele>1579.5</ele>
        <time>2024-05-11T07:31:29.000Z</time>
      </trkpt>
      <trkpt lat="44.82847" lon="5.45166">
        <ele>1579.4</ele>
        <time>2024-05-11T07:31:33.000Z</time>
      </trkpt>
      <trkpt lat="44.82848" lon="5.45167">
        <ele>1579.4</ele>
        <time>2024-05-11T07:31:35.000Z</time>
      </trkpt>
      <trkpt lat="44.82849" lon="5.45169">
        <ele>1578.9</ele>
        <time>2024-05-11T07:31:38.000Z</time>
      </trkpt>
      <trkpt lat="44.82849" lon="5.45172">
        <ele>1578</ele>
        <time>2024-05-11T07:31:41.000Z</time>
      </trkpt>
      <trkpt lat="44.82849" lon="5.45172">
        <ele>1577.9</ele>
        <time>2024-05-11T07:31:43.000Z</time>
      </trkpt>
      <trkpt lat="44.82852" lon="5.45176">
        <ele>1577.8</ele>
        <time>2024-05-11T07:31:49.000Z</time>
      </trkpt>
      <trkpt lat="44.82853" lon="5.45178">
        <ele>1577.5</ele>
        <time>2024-05-11T07:31:54.000Z</time>
      </trkpt>
      <trkpt lat="44.82855" lon="5.45182">
        <ele>1576.8</ele>
        <time>2024-05-11T07:31:58.000Z</time>
      </trkpt>
      <trkpt lat="44.82856" lon="5.45183">
        <ele>1576.8</ele>
        <time>2024-05-11T07:32:00.000Z</time>
      </trkpt>
      <trkpt lat="44.82859" lon="5.45185">
        <ele>1577.4</ele>
        <time>2024-05-11T07:32:03.000Z</time>
      </trkpt>
      <trkpt lat="44.82858" lon="5.45185">
        <ele>1577.1</ele>
        <time>2024-05-11T07:32:06.000Z</time>
      </trkpt>
      <trkpt lat="44.82859" lon="5.45187">
        <ele>1576.7</ele>
        <time>2024-05-11T07:32:09.000Z</time>
      </trkpt>
      <trkpt lat="44.8286" lon="5.45188">
        <ele>1576.8</ele>
        <time>2024-05-11T07:32:10.000Z</time>
      </trkpt>
      <trkpt lat="44.8286" lon="5.4519">
        <ele>1576</ele>
        <time>2024-05-11T07:32:15.000Z</time>
      </trkpt>
      <trkpt lat="44.8286" lon="5.45191">
        <ele>1575.5</ele>
        <time>2024-05-11T07:32:17.000Z</time>
      </trkpt>
      <trkpt lat="44.8286" lon="5.45193">
        <ele>1575</ele>
        <time>2024-05-11T07:32:21.000Z</time>
      </trkpt>
      <trkpt lat="44.8286" lon="5.45194">
        <ele>1574.7</ele>
        <time>2024-05-11T07:32:22.000Z</time>
      </trkpt>
      <trkpt lat="44.8286" lon="5.45196">
        <ele>1574.2</ele>
        <time>2024-05-11T07:32:26.000Z</time>
      </trkpt>
      <trkpt lat="44.82861" lon="5.45196">
        <ele>1574.7</ele>
        <time>2024-05-11T07:32:29.000Z</time>
      </trkpt>
      <trkpt lat="44.82862" lon="5.45198">
        <ele>1574.3</ele>
        <time>2024-05-11T07:32:31.000Z</time>
      </trkpt>
      <trkpt lat="44.82863" lon="5.452">
        <ele>1574</ele>
        <time>2024-05-11T07:32:33.000Z</time>
      </trkpt>
      <trkpt lat="44.82865" lon="5.45206">
        <ele>1572.7</ele>
        <time>2024-05-11T07:32:37.000Z</time>
      </trkpt>
      <trkpt lat="44.82866" lon="5.45207">
        <ele>1572.4</ele>
        <time>2024-05-11T07:32:38.000Z</time>
      </trkpt>
      <trkpt lat="44.82867" lon="5.45209">
        <ele>1572</ele>
        <time>2024-05-11T07:32:42.000Z</time>
      </trkpt>
      <trkpt lat="44.82865" lon="5.45207">
        <ele>1572.4</ele>
        <time>2024-05-11T07:32:45.000Z</time>
      </trkpt>
      <trkpt lat="44.82867" lon="5.45208">
        <ele>1572.3</ele>
        <time>2024-05-11T07:32:50.000Z</time>
      </trkpt>
      <trkpt lat="44.82865" lon="5.4521">
        <ele>1571.6</ele>
        <time>2024-05-11T07:32:55.000Z</time>
      </trkpt>
      <trkpt lat="44.82864" lon="5.4521">
        <ele>1571.4</ele>
        <time>2024-05-11T07:32:56.000Z</time>
      </trkpt>
      <trkpt lat="44.82863" lon="5.45215">
        <ele>1570.1</ele>
        <time>2024-05-11T07:33:03.000Z</time>
      </trkpt>
      <trkpt lat="44.82865" lon="5.45216">
        <ele>1570</ele>
        <time>2024-05-11T07:33:05.000Z</time>
      </trkpt>
      <trkpt lat="44.82865" lon="5.45219">
        <ele>1569.3</ele>
        <time>2024-05-11T07:33:09.000Z</time>
      </trkpt>
      <trkpt lat="44.82864" lon="5.45222">
        <ele>1568.4</ele>
        <time>2024-05-11T07:33:11.000Z</time>
      </trkpt>
      <trkpt lat="44.82863" lon="5.45222">
        <ele>1568.2</ele>
        <time>2024-05-11T07:33:16.000Z</time>
      </trkpt>
      <trkpt lat="44.82863" lon="5.45223">
        <ele>1567.9</ele>
        <time>2024-05-11T07:33:17.000Z</time>
      </trkpt>
      <trkpt lat="44.82863" lon="5.45226">
        <ele>1567.3</ele>
        <time>2024-05-11T07:33:23.000Z</time>
      </trkpt>
      <trkpt lat="44.82863" lon="5.45226">
        <ele>1567.2</ele>
        <time>2024-05-11T07:33:24.000Z</time>
      </trkpt>
      <trkpt lat="44.82863" lon="5.45229">
        <ele>1566.5</ele>
        <time>2024-05-11T07:33:29.000Z</time>
      </trkpt>
      <trkpt lat="44.82863" lon="5.4523">
        <ele>1566.3</ele>
        <time>2024-05-11T07:33:31.000Z</time>
      </trkpt>
      <trkpt lat="44.82864" lon="5.45231">
        <ele>1566</ele>
        <time>2024-05-11T07:33:34.000Z</time>
      </trkpt>
      <trkpt lat="44.82866" lon="5.45234">
        <ele>1565.6</ele>
        <time>2024-05-11T07:33:37.000Z</time>
      </trkpt>
      <trkpt lat="44.82868" lon="5.45237">
        <ele>1565</ele>
        <time>2024-05-11T07:33:42.000Z</time>
      </trkpt>
      <trkpt lat="44.82868" lon="5.45238">
        <ele>1564.9</ele>
        <time>2024-05-11T07:33:43.000Z</time>
      </trkpt>
      <trkpt lat="44.82868" lon="5.45242">
        <ele>1563.9</ele>
        <time>2024-05-11T07:33:47.000Z</time>
      </trkpt>
      <trkpt lat="44.82867" lon="5.45243">
        <ele>1563.5</ele>
        <time>2024-05-11T07:33:48.000Z</time>
      </trkpt>
      <trkpt lat="44.82867" lon="5.45246">
        <ele>1562.7</ele>
        <time>2024-05-11T07:33:52.000Z</time>
      </trkpt>
      <trkpt lat="44.82869" lon="5.45252">
        <ele>1561.5</ele>
        <time>2024-05-11T07:33:55.000Z</time>
      </trkpt>
      <trkpt lat="44.82869" lon="5.45254">
        <ele>1560.9</ele>
        <time>2024-05-11T07:33:56.000Z</time>
      </trkpt>
      <trkpt lat="44.82868" lon="5.45257">
        <ele>1560.1</ele>
        <time>2024-05-11T07:33:57.000Z</time>
      </trkpt>
      <trkpt lat="44.82862" lon="5.4526">
        <ele>1558.6</ele>
        <time>2024-05-11T07:33:59.000Z</time>
      </trkpt>
      <trkpt lat="44.82863" lon="5.45259">
        <ele>1559</ele>
        <time>2024-05-11T07:34:02.000Z</time>
      </trkpt>
      <trkpt lat="44.82864" lon="5.45259">
        <ele>1559</ele>
        <time>2024-05-11T07:34:05.000Z</time>
      </trkpt>
      <trkpt lat="44.82863" lon="5.45267">
        <ele>1556.9</ele>
        <time>2024-05-11T07:34:11.000Z</time>
      </trkpt>
      <trkpt lat="44.82861" lon="5.4527">
        <ele>1555.8</ele>
        <time>2024-05-11T07:34:17.000Z</time>
      </trkpt>
      <trkpt lat="44.82861" lon="5.45273">
        <ele>1555.3</ele>
        <time>2024-05-11T07:34:20.000Z</time>
      </trkpt>
      <trkpt lat="44.82859" lon="5.45277">
        <ele>1553.3</ele>
        <time>2024-05-11T07:34:25.000Z</time>
      </trkpt>
      <trkpt lat="44.8286" lon="5.45278">
        <ele>1553.3</ele>
        <time>2024-05-11T07:34:27.000Z</time>
      </trkpt>
      <trkpt lat="44.82861" lon="5.4528">
        <ele>1553.1</ele>
        <time>2024-05-11T07:34:31.000Z</time>
      </trkpt>
      <trkpt lat="44.82863" lon="5.45284">
        <ele>1552.8</ele>
        <time>2024-05-11T07:34:35.000Z</time>
      </trkpt>
      <trkpt lat="44.82864" lon="5.45286">
        <ele>1552.3</ele>
        <time>2024-05-11T07:34:37.000Z</time>
      </trkpt>
      <trkpt lat="44.82866" lon="5.45293">
        <ele>1550.9</ele>
        <time>2024-05-11T07:34:42.000Z</time>
      </trkpt>
      <trkpt lat="44.82866" lon="5.45296">
        <ele>1550.3</ele>
        <time>2024-05-11T07:34:44.000Z</time>
      </trkpt>
      <trkpt lat="44.82866" lon="5.45299">
        <ele>1549.5</ele>
        <time>2024-05-11T07:34:46.000Z</time>
      </trkpt>
      <trkpt lat="44.82865" lon="5.45302">
        <ele>1548.7</ele>
        <time>2024-05-11T07:34:49.000Z</time>
      </trkpt>
      <trkpt lat="44.82865" lon="5.45303">
        <ele>1548.2</ele>
        <time>2024-05-11T07:34:54.000Z</time>
      </trkpt>
      <trkpt lat="44.82864" lon="5.45306">
        <ele>1547.6</ele>
        <time>2024-05-11T07:34:56.000Z</time>
      </trkpt>
      <trkpt lat="44.82864" lon="5.45309">
        <ele>1546.7</ele>
        <time>2024-05-11T07:35:00.000Z</time>
      </trkpt>
      <trkpt lat="44.82865" lon="5.45309">
        <ele>1546.7</ele>
        <time>2024-05-11T07:35:03.000Z</time>
      </trkpt>
      <trkpt lat="44.82866" lon="5.45311">
        <ele>1546.5</ele>
        <time>2024-05-11T07:35:06.000Z</time>
      </trkpt>
      <trkpt lat="44.82866" lon="5.45316">
        <ele>1545.4</ele>
        <time>2024-05-11T07:35:10.000Z</time>
      </trkpt>
      <trkpt lat="44.82867" lon="5.45319">
        <ele>1544.8</ele>
        <time>2024-05-11T07:35:15.000Z</time>
      </trkpt>
      <trkpt lat="44.82868" lon="5.4532">
        <ele>1544.6</ele>
        <time>2024-05-11T07:35:17.000Z</time>
      </trkpt>
      <trkpt lat="44.82868" lon="5.45321">
        <ele>1544.4</ele>
        <time>2024-05-11T07:35:18.000Z</time>
      </trkpt>
      <trkpt lat="44.82869" lon="5.45322">
        <ele>1544.5</ele>
        <time>2024-05-11T07:35:20.000Z</time>
      </trkpt>
      <trkpt lat="44.82872" lon="5.45322">
        <ele>1544.9</ele>
        <time>2024-05-11T07:35:24.000Z</time>
      </trkpt>
      <trkpt lat="44.82873" lon="5.45322">
        <ele>1545.2</ele>
        <time>2024-05-11T07:35:26.000Z</time>
      </trkpt>
      <trkpt lat="44.82874" lon="5.45322">
        <ele>1545.4</ele>
        <time>2024-05-11T07:35:28.000Z</time>
      </trkpt>
      <trkpt lat="44.82878" lon="5.45322">
        <ele>1546.3</ele>
        <time>2024-05-11T07:35:33.000Z</time>
      </trkpt>
      <trkpt lat="44.82886" lon="5.45323">
        <ele>1547.6</ele>
        <time>2024-05-11T07:35:40.000Z</time>
      </trkpt>
      <trkpt lat="44.82888" lon="5.45323">
        <ele>1548</ele>
        <time>2024-05-11T07:35:42.000Z</time>
      </trkpt>
      <trkpt lat="44.82891" lon="5.45324">
        <ele>1548</ele>
        <time>2024-05-11T07:35:46.000Z</time>
      </trkpt>
      <trkpt lat="44.82895" lon="5.45326">
        <ele>1547.5</ele>
        <time>2024-05-11T07:35:50.000Z</time>
      </trkpt>
      <trkpt lat="44.82896" lon="5.45326">
        <ele>1547.4</ele>
        <time>2024-05-11T07:35:51.000Z</time>
      </trkpt>
      <trkpt lat="44.82896" lon="5.45327">
        <ele>1547.4</ele>
        <time>2024-05-11T07:35:53.000Z</time>
      </trkpt>
      <trkpt lat="44.829" lon="5.45326">
        <ele>1547.5</ele>
        <time>2024-05-11T07:35:59.000Z</time>
      </trkpt>
      <trkpt lat="44.82901" lon="5.45325">
        <ele>1547.7</ele>
        <time>2024-05-11T07:36:00.000Z</time>
      </trkpt>
      <trkpt lat="44.82905" lon="5.45324">
        <ele>1547.8</ele>
        <time>2024-05-11T07:36:04.000Z</time>
      </trkpt>
      <trkpt lat="44.82906" lon="5.45324">
        <ele>1547.8</ele>
        <time>2024-05-11T07:36:05.000Z</time>
      </trkpt>
      <trkpt lat="44.82912" lon="5.45325">
        <ele>1547.5</ele>
        <time>2024-05-11T07:36:10.000Z</time>
      </trkpt>
      <trkpt lat="44.82917" lon="5.45325">
        <ele>1547.6</ele>
        <time>2024-05-11T07:36:15.000Z</time>
      </trkpt>
      <trkpt lat="44.82921" lon="5.45324">
        <ele>1547.6</ele>
        <time>2024-05-11T07:36:20.000Z</time>
      </trkpt>
      <trkpt lat="44.82927" lon="5.45323">
        <ele>1547.4</ele>
        <time>2024-05-11T07:36:26.000Z</time>
      </trkpt>
      <trkpt lat="44.82928" lon="5.45322">
        <ele>1547.4</ele>
        <time>2024-05-11T07:36:27.000Z</time>
      </trkpt>
      <trkpt lat="44.82936" lon="5.45323">
        <ele>1547</ele>
        <time>2024-05-11T07:36:36.000Z</time>
      </trkpt>
      <trkpt lat="44.82936" lon="5.45324">
        <ele>1546.8</ele>
        <time>2024-05-11T07:36:37.000Z</time>
      </trkpt>
      <trkpt lat="44.82938" lon="5.45324">
        <ele>1546.6</ele>
        <time>2024-05-11T07:36:39.000Z</time>
      </trkpt>
      <trkpt lat="44.82946" lon="5.45322">
        <ele>1546.6</ele>
        <time>2024-05-11T07:36:46.000Z</time>
      </trkpt>
      <trkpt lat="44.82947" lon="5.45322">
        <ele>1546.7</ele>
        <time>2024-05-11T07:36:48.000Z</time>
      </trkpt>
      <trkpt lat="44.82948" lon="5.45323">
        <ele>1546.5</ele>
        <time>2024-05-11T07:36:50.000Z</time>
      </trkpt>
      <trkpt lat="44.82955" lon="5.45325">
        <ele>1546.4</ele>
        <time>2024-05-11T07:36:57.000Z</time>
      </trkpt>
      <trkpt lat="44.82958" lon="5.45327">
        <ele>1546.4</ele>
        <time>2024-05-11T07:37:01.000Z</time>
      </trkpt>
      <trkpt lat="44.8296" lon="5.45328">
        <ele>1546.2</ele>
        <time>2024-05-11T07:37:04.000Z</time>
      </trkpt>
      <trkpt lat="44.82967" lon="5.45332">
        <ele>1546</ele>
        <time>2024-05-11T07:37:11.000Z</time>
      </trkpt>
      <trkpt lat="44.82974" lon="5.45334">
        <ele>1546</ele>
        <time>2024-05-11T07:37:19.000Z</time>
      </trkpt>
      <trkpt lat="44.8298" lon="5.45333">
        <ele>1546</ele>
        <time>2024-05-11T07:37:26.000Z</time>
      </trkpt>
      <trkpt lat="44.82982" lon="5.45335">
        <ele>1545.9</ele>
        <time>2024-05-11T07:37:29.000Z</time>
      </trkpt>
      <trkpt lat="44.82988" lon="5.45337">
        <ele>1545.8</ele>
        <time>2024-05-11T07:37:35.000Z</time>
      </trkpt>
      <trkpt lat="44.82989" lon="5.45337">
        <ele>1545.9</ele>
        <time>2024-05-11T07:37:37.000Z</time>
      </trkpt>
      <trkpt lat="44.82992" lon="5.45337">
        <ele>1545.9</ele>
        <time>2024-05-11T07:37:43.000Z</time>
      </trkpt>
      <trkpt lat="44.82992" lon="5.45336">
        <ele>1545.9</ele>
        <time>2024-05-11T07:37:54.000Z</time>
      </trkpt>
      <trkpt lat="44.82992" lon="5.45338">
        <ele>1545.9</ele>
        <time>2024-05-11T07:38:17.000Z</time>
      </trkpt>
      <trkpt lat="44.82994" lon="5.45344">
        <ele>1545.8</ele>
        <time>2024-05-11T07:38:20.000Z</time>
      </trkpt>
      <trkpt lat="44.82996" lon="5.45346">
        <ele>1545.8</ele>
        <time>2024-05-11T07:38:22.000Z</time>
      </trkpt>
      <trkpt lat="44.82998" lon="5.45351">
        <ele>1545.8</ele>
        <time>2024-05-11T07:38:25.000Z</time>
      </trkpt>
      <trkpt lat="44.83001" lon="5.45358">
        <ele>1545.9</ele>
        <time>2024-05-11T07:38:32.000Z</time>
      </trkpt>
      <trkpt lat="44.83005" lon="5.45366">
        <ele>1546</ele>
        <time>2024-05-11T07:38:38.000Z</time>
      </trkpt>
      <trkpt lat="44.83007" lon="5.45372">
        <ele>1546.3</ele>
        <time>2024-05-11T07:38:44.000Z</time>
      </trkpt>
      <trkpt lat="44.8301" lon="5.45378">
        <ele>1546.5</ele>
        <time>2024-05-11T07:38:49.000Z</time>
      </trkpt>
      <trkpt lat="44.83011" lon="5.4538">
        <ele>1546.6</ele>
        <time>2024-05-11T07:38:51.000Z</time>
      </trkpt>
      <trkpt lat="44.83012" lon="5.45381">
        <ele>1546.6</ele>
        <time>2024-05-11T07:38:52.000Z</time>
      </trkpt>
      <trkpt lat="44.83014" lon="5.45386">
        <ele>1546.8</ele>
        <time>2024-05-11T07:38:57.000Z</time>
      </trkpt>
      <trkpt lat="44.83016" lon="5.45393">
        <ele>1547.1</ele>
        <time>2024-05-11T07:39:04.000Z</time>
      </trkpt>
      <trkpt lat="44.83017" lon="5.45394">
        <ele>1547.1</ele>
        <time>2024-05-11T07:39:05.000Z</time>
      </trkpt>
      <trkpt lat="44.83019" lon="5.45399">
        <ele>1547.3</ele>
        <time>2024-05-11T07:39:10.000Z</time>
      </trkpt>
      <trkpt lat="44.83019" lon="5.45401">
        <ele>1547.3</ele>
        <time>2024-05-11T07:39:12.000Z</time>
      </trkpt>
      <trkpt lat="44.83022" lon="5.45409">
        <ele>1547.7</ele>
        <time>2024-05-11T07:39:18.000Z</time>
      </trkpt>
      <trkpt lat="44.83024" lon="5.45412">
        <ele>1547.8</ele>
        <time>2024-05-11T07:39:20.000Z</time>
      </trkpt>
      <trkpt lat="44.83025" lon="5.45413">
        <ele>1547.8</ele>
        <time>2024-05-11T07:39:21.000Z</time>
      </trkpt>
      <trkpt lat="44.83026" lon="5.45417">
        <ele>1548.1</ele>
        <time>2024-05-11T07:39:25.000Z</time>
      </trkpt>
      <trkpt lat="44.83027" lon="5.45418">
        <ele>1548.2</ele>
        <time>2024-05-11T07:39:26.000Z</time>
      </trkpt>
      <trkpt lat="44.83028" lon="5.45419">
        <ele>1548.3</ele>
        <time>2024-05-11T07:39:27.000Z</time>
      </trkpt>
      <trkpt lat="44.83029" lon="5.45425">
        <ele>1548.8</ele>
        <time>2024-05-11T07:39:32.000Z</time>
      </trkpt>
      <trkpt lat="44.83031" lon="5.45427">
        <ele>1548.9</ele>
        <time>2024-05-11T07:39:35.000Z</time>
      </trkpt>
      <trkpt lat="44.83035" lon="5.4543">
        <ele>1549</ele>
        <time>2024-05-11T07:39:39.000Z</time>
      </trkpt>
      <trkpt lat="44.8304" lon="5.45437">
        <ele>1549.6</ele>
        <time>2024-05-11T07:39:47.000Z</time>
      </trkpt>
      <trkpt lat="44.83044" lon="5.45443">
        <ele>1550.2</ele>
        <time>2024-05-11T07:39:54.000Z</time>
      </trkpt>
      <trkpt lat="44.83044" lon="5.45444">
        <ele>1550.3</ele>
        <time>2024-05-11T07:39:55.000Z</time>
      </trkpt>
      <trkpt lat="44.83048" lon="5.45451">
        <ele>1551.3</ele>
        <time>2024-05-11T07:40:02.000Z</time>
      </trkpt>
      <trkpt lat="44.83051" lon="5.45455">
        <ele>1551.9</ele>
        <time>2024-05-11T07:40:07.000Z</time>
      </trkpt>
      <trkpt lat="44.83051" lon="5.45455">
        <ele>1552</ele>
        <time>2024-05-11T07:40:08.000Z</time>
      </trkpt>
      <trkpt lat="44.83052" lon="5.45458">
        <ele>1552.5</ele>
        <time>2024-05-11T07:40:12.000Z</time>
      </trkpt>
      <trkpt lat="44.83055" lon="5.4546">
        <ele>1552.9</ele>
        <time>2024-05-11T07:40:15.000Z</time>
      </trkpt>
      <trkpt lat="44.83058" lon="5.45465">
        <ele>1553.6</ele>
        <time>2024-05-11T07:40:20.000Z</time>
      </trkpt>
      <trkpt lat="44.83062" lon="5.45468">
        <ele>1554</ele>
        <time>2024-05-11T07:40:24.000Z</time>
      </trkpt>
      <trkpt lat="44.83068" lon="5.45474">
        <ele>1554.8</ele>
        <time>2024-05-11T07:40:30.000Z</time>
      </trkpt>
      <trkpt lat="44.8307" lon="5.45476">
        <ele>1555.2</ele>
        <time>2024-05-11T07:40:33.000Z</time>
      </trkpt>
      <trkpt lat="44.83073" lon="5.45478">
        <ele>1555.5</ele>
        <time>2024-05-11T07:40:37.000Z</time>
      </trkpt>
      <trkpt lat="44.83078" lon="5.4548">
        <ele>1555.8</ele>
        <time>2024-05-11T07:40:43.000Z</time>
      </trkpt>
      <trkpt lat="44.83083" lon="5.45483">
        <ele>1556.4</ele>
        <time>2024-05-11T07:40:50.000Z</time>
      </trkpt>
      <trkpt lat="44.83086" lon="5.45484">
        <ele>1556.4</ele>
        <time>2024-05-11T07:40:53.000Z</time>
      </trkpt>
      <trkpt lat="44.83088" lon="5.45485">
        <ele>1556.6</ele>
        <time>2024-05-11T07:40:56.000Z</time>
      </trkpt>
      <trkpt lat="44.8309" lon="5.45487">
        <ele>1557</ele>
        <time>2024-05-11T07:40:59.000Z</time>
      </trkpt>
      <trkpt lat="44.8309" lon="5.45487">
        <ele>1557</ele>
        <time>2024-05-11T07:41:00.000Z</time>
      </trkpt>
      <trkpt lat="44.83091" lon="5.45488">
        <ele>1557</ele>
        <time>2024-05-11T07:41:01.000Z</time>
      </trkpt>
      <trkpt lat="44.83095" lon="5.45489">
        <ele>1557.3</ele>
        <time>2024-05-11T07:41:06.000Z</time>
      </trkpt>
      <trkpt lat="44.83096" lon="5.45491">
        <ele>1557.6</ele>
        <time>2024-05-11T07:41:08.000Z</time>
      </trkpt>
      <trkpt lat="44.83099" lon="5.45493">
        <ele>1557.9</ele>
        <time>2024-05-11T07:41:12.000Z</time>
      </trkpt>
      <trkpt lat="44.83103" lon="5.45496">
        <ele>1558.3</ele>
        <time>2024-05-11T07:41:19.000Z</time>
      </trkpt>
      <trkpt lat="44.83106" lon="5.45497">
        <ele>1558.6</ele>
        <time>2024-05-11T07:41:22.000Z</time>
      </trkpt>
      <trkpt lat="44.83111" lon="5.45498">
        <ele>1558.5</ele>
        <time>2024-05-11T07:41:26.000Z</time>
      </trkpt>
      <trkpt lat="44.83116" lon="5.45499">
        <ele>1558.6</ele>
        <time>2024-05-11T07:41:32.000Z</time>
      </trkpt>
      <trkpt lat="44.83123" lon="5.45503">
        <ele>1559.3</ele>
        <time>2024-05-11T07:41:40.000Z</time>
      </trkpt>
      <trkpt lat="44.83126" lon="5.45505">
        <ele>1559.8</ele>
        <time>2024-05-11T07:41:45.000Z</time>
      </trkpt>
      <trkpt lat="44.83127" lon="5.45506">
        <ele>1559.9</ele>
        <time>2024-05-11T07:41:47.000Z</time>
      </trkpt>
      <trkpt lat="44.83133" lon="5.45509">
        <ele>1560.5</ele>
        <time>2024-05-11T07:41:55.000Z</time>
      </trkpt>
      <trkpt lat="44.83134" lon="5.4551">
        <ele>1560.7</ele>
        <time>2024-05-11T07:41:57.000Z</time>
      </trkpt>
      <trkpt lat="44.83139" lon="5.45513">
        <ele>1561.1</ele>
        <time>2024-05-11T07:42:02.000Z</time>
      </trkpt>
      <trkpt lat="44.83149" lon="5.45514">
        <ele>1560.9</ele>
        <time>2024-05-11T07:42:07.000Z</time>
      </trkpt>
      <trkpt lat="44.83151" lon="5.45514">
        <ele>1560.8</ele>
        <time>2024-05-11T07:42:08.000Z</time>
      </trkpt>
      <trkpt lat="44.83154" lon="5.45513">
        <ele>1560.5</ele>
        <time>2024-05-11T07:42:14.000Z</time>
      </trkpt>
      <trkpt lat="44.83156" lon="5.45514">
        <ele>1560.6</ele>
        <time>2024-05-11T07:42:18.000Z</time>
      </trkpt>
      <trkpt lat="44.83158" lon="5.45515">
        <ele>1560.8</ele>
        <time>2024-05-11T07:42:20.000Z</time>
      </trkpt>
      <trkpt lat="44.83162" lon="5.4552">
        <ele>1561.6</ele>
        <time>2024-05-11T07:42:25.000Z</time>
      </trkpt>
      <trkpt lat="44.83166" lon="5.45523">
        <ele>1562</ele>
        <time>2024-05-11T07:42:30.000Z</time>
      </trkpt>
      <trkpt lat="44.83169" lon="5.45526">
        <ele>1562.3</ele>
        <time>2024-05-11T07:42:34.000Z</time>
      </trkpt>
      <trkpt lat="44.8317" lon="5.45527">
        <ele>1562.4</ele>
        <time>2024-05-11T07:42:35.000Z</time>
      </trkpt>
      <trkpt lat="44.83173" lon="5.45531">
        <ele>1562.9</ele>
        <time>2024-05-11T07:42:39.000Z</time>
      </trkpt>
      <trkpt lat="44.8318" lon="5.45532">
        <ele>1562.3</ele>
        <time>2024-05-11T07:42:46.000Z</time>
      </trkpt>
      <trkpt lat="44.83187" lon="5.45534">
        <ele>1561.9</ele>
        <time>2024-05-11T07:42:51.000Z</time>
      </trkpt>
      <trkpt lat="44.8319" lon="5.45534">
        <ele>1561.6</ele>
        <time>2024-05-11T07:42:53.000Z</time>
      </trkpt>
      <trkpt lat="44.83196" lon="5.45539">
        <ele>1562</ele>
        <time>2024-05-11T07:43:01.000Z</time>
      </trkpt>
      <trkpt lat="44.83198" lon="5.45545">
        <ele>1562.8</ele>
        <time>2024-05-11T07:43:05.000Z</time>
      </trkpt>
      <trkpt lat="44.83201" lon="5.45549">
        <ele>1563.1</ele>
        <time>2024-05-11T07:43:08.000Z</time>
      </trkpt>
      <trkpt lat="44.83204" lon="5.45552">
        <ele>1563.4</ele>
        <time>2024-05-11T07:43:10.000Z</time>
      </trkpt>
      <trkpt lat="44.83204" lon="5.45552">
        <ele>1563.4</ele>
        <time>2024-05-11T07:43:12.000Z</time>
      </trkpt>
      <trkpt lat="44.83208" lon="5.45554">
        <ele>1563.2</ele>
        <time>2024-05-11T07:43:16.000Z</time>
      </trkpt>
      <trkpt lat="44.83212" lon="5.45558">
        <ele>1563.4</ele>
        <time>2024-05-11T07:43:23.000Z</time>
      </trkpt>
      <trkpt lat="44.83219" lon="5.45561">
        <ele>1563</ele>
        <time>2024-05-11T07:43:30.000Z</time>
      </trkpt>
      <trkpt lat="44.8322" lon="5.45567">
        <ele>1563.5</ele>
        <time>2024-05-11T07:43:36.000Z</time>
      </trkpt>
      <trkpt lat="44.83222" lon="5.45573">
        <ele>1563.9</ele>
        <time>2024-05-11T07:43:41.000Z</time>
      </trkpt>
      <trkpt lat="44.83224" lon="5.45576">
        <ele>1564</ele>
        <time>2024-05-11T07:43:43.000Z</time>
      </trkpt>
      <trkpt lat="44.83224" lon="5.45578">
        <ele>1564.3</ele>
        <time>2024-05-11T07:43:46.000Z</time>
      </trkpt>
      <trkpt lat="44.83225" lon="5.45583">
        <ele>1564.6</ele>
        <time>2024-05-11T07:43:49.000Z</time>
      </trkpt>
      <trkpt lat="44.83226" lon="5.45586">
        <ele>1564.9</ele>
        <time>2024-05-11T07:43:51.000Z</time>
      </trkpt>
      <trkpt lat="44.83226" lon="5.45589">
        <ele>1565.2</ele>
        <time>2024-05-11T07:43:54.000Z</time>
      </trkpt>
      <trkpt lat="44.83227" lon="5.45593">
        <ele>1565.5</ele>
        <time>2024-05-11T07:43:58.000Z</time>
      </trkpt>
      <trkpt lat="44.83228" lon="5.45595">
        <ele>1565.6</ele>
        <time>2024-05-11T07:43:59.000Z</time>
      </trkpt>
      <trkpt lat="44.83229" lon="5.45596">
        <ele>1565.6</ele>
        <time>2024-05-11T07:44:00.000Z</time>
      </trkpt>
      <trkpt lat="44.83233" lon="5.45602">
        <ele>1565.9</ele>
        <time>2024-05-11T07:44:04.000Z</time>
      </trkpt>
      <trkpt lat="44.83233" lon="5.45602">
        <ele>1565.9</ele>
        <time>2024-05-11T07:44:05.000Z</time>
      </trkpt>
      <trkpt lat="44.8323" lon="5.45603">
        <ele>1566.3</ele>
        <time>2024-05-11T07:44:08.000Z</time>
      </trkpt>
      <trkpt lat="44.83231" lon="5.45605">
        <ele>1566.4</ele>
        <time>2024-05-11T07:44:11.000Z</time>
      </trkpt>
      <trkpt lat="44.83233" lon="5.4561">
        <ele>1566.8</ele>
        <time>2024-05-11T07:44:19.000Z</time>
      </trkpt>
      <trkpt lat="44.83234" lon="5.45614">
        <ele>1566.9</ele>
        <time>2024-05-11T07:44:22.000Z</time>
      </trkpt>
      <trkpt lat="44.83235" lon="5.45618">
        <ele>1566.9</ele>
        <time>2024-05-11T07:44:25.000Z</time>
      </trkpt>
      <trkpt lat="44.83235" lon="5.45622">
        <ele>1567.2</ele>
        <time>2024-05-11T07:44:28.000Z</time>
      </trkpt>
      <trkpt lat="44.83237" lon="5.45626">
        <ele>1567.2</ele>
        <time>2024-05-11T07:44:31.000Z</time>
      </trkpt>
      <trkpt lat="44.83238" lon="5.45628">
        <ele>1567.3</ele>
        <time>2024-05-11T07:44:33.000Z</time>
      </trkpt>
      <trkpt lat="44.8324" lon="5.45634">
        <ele>1567.4</ele>
        <time>2024-05-11T07:44:37.000Z</time>
      </trkpt>
      <trkpt lat="44.83242" lon="5.45637">
        <ele>1567.5</ele>
        <time>2024-05-11T07:44:40.000Z</time>
      </trkpt>
      <trkpt lat="44.83244" lon="5.45645">
        <ele>1567.5</ele>
        <time>2024-05-11T07:44:45.000Z</time>
      </trkpt>
      <trkpt lat="44.83245" lon="5.45648">
        <ele>1567.4</ele>
        <time>2024-05-11T07:44:47.000Z</time>
      </trkpt>
      <trkpt lat="44.83249" lon="5.45657">
        <ele>1567.1</ele>
        <time>2024-05-11T07:44:53.000Z</time>
      </trkpt>
      <trkpt lat="44.83255" lon="5.45668">
        <ele>1567.2</ele>
        <time>2024-05-11T07:45:01.000Z</time>
      </trkpt>
      <trkpt lat="44.83256" lon="5.4567">
        <ele>1567.4</ele>
        <time>2024-05-11T07:45:03.000Z</time>
      </trkpt>
      <trkpt lat="44.83258" lon="5.45676">
        <ele>1567.8</ele>
        <time>2024-05-11T07:45:07.000Z</time>
      </trkpt>
      <trkpt lat="44.83261" lon="5.45682">
        <ele>1568</ele>
        <time>2024-05-11T07:45:11.000Z</time>
      </trkpt>
      <trkpt lat="44.83262" lon="5.45684">
        <ele>1568.2</ele>
        <time>2024-05-11T07:45:13.000Z</time>
      </trkpt>
      <trkpt lat="44.83264" lon="5.45692">
        <ele>1568.4</ele>
        <time>2024-05-11T07:45:19.000Z</time>
      </trkpt>
      <trkpt lat="44.83264" lon="5.45693">
        <ele>1568.4</ele>
        <time>2024-05-11T07:45:20.000Z</time>
      </trkpt>
      <trkpt lat="44.83266" lon="5.45699">
        <ele>1568.6</ele>
        <time>2024-05-11T07:45:25.000Z</time>
      </trkpt>
      <trkpt lat="44.83266" lon="5.457">
        <ele>1568.6</ele>
        <time>2024-05-11T07:45:26.000Z</time>
      </trkpt>
      <trkpt lat="44.83268" lon="5.45704">
        <ele>1568.6</ele>
        <time>2024-05-11T07:45:29.000Z</time>
      </trkpt>
      <trkpt lat="44.83268" lon="5.45707">
        <ele>1568.6</ele>
        <time>2024-05-11T07:45:31.000Z</time>
      </trkpt>
      <trkpt lat="44.83268" lon="5.45709">
        <ele>1568.7</ele>
        <time>2024-05-11T07:45:33.000Z</time>
      </trkpt>
      <trkpt lat="44.83268" lon="5.45712">
        <ele>1568.8</ele>
        <time>2024-05-11T07:45:35.000Z</time>
      </trkpt>
      <trkpt lat="44.83269" lon="5.45717">
        <ele>1568.9</ele>
        <time>2024-05-11T07:45:38.000Z</time>
      </trkpt>
      <trkpt lat="44.83269" lon="5.45719">
        <ele>1568.9</ele>
        <time>2024-05-11T07:45:40.000Z</time>
      </trkpt>
      <trkpt lat="44.83269" lon="5.45722">
        <ele>1569</ele>
        <time>2024-05-11T07:45:44.000Z</time>
      </trkpt>
      <trkpt lat="44.83269" lon="5.45723">
        <ele>1569</ele>
        <time>2024-05-11T07:45:45.000Z</time>
      </trkpt>
      <trkpt lat="44.8327" lon="5.45727">
        <ele>1569.3</ele>
        <time>2024-05-11T07:45:49.000Z</time>
      </trkpt>
      <trkpt lat="44.83271" lon="5.45733">
        <ele>1569.8</ele>
        <time>2024-05-11T07:45:54.000Z</time>
      </trkpt>
      <trkpt lat="44.83271" lon="5.45738">
        <ele>1570.3</ele>
        <time>2024-05-11T07:45:57.000Z</time>
      </trkpt>
      <trkpt lat="44.83272" lon="5.45743">
        <ele>1570.7</ele>
        <time>2024-05-11T07:46:00.000Z</time>
      </trkpt>
      <trkpt lat="44.83273" lon="5.45745">
        <ele>1570.8</ele>
        <time>2024-05-11T07:46:02.000Z</time>
      </trkpt>
      <trkpt lat="44.83274" lon="5.45749">
        <ele>1571.2</ele>
        <time>2024-05-11T07:46:05.000Z</time>
      </trkpt>
      <trkpt lat="44.83273" lon="5.45751">
        <ele>1571.4</ele>
        <time>2024-05-11T07:46:06.000Z</time>
      </trkpt>
      <trkpt lat="44.83273" lon="5.45752">
        <ele>1571.4</ele>
        <time>2024-05-11T07:46:07.000Z</time>
      </trkpt>
      <trkpt lat="44.83274" lon="5.45754">
        <ele>1571.6</ele>
        <time>2024-05-11T07:46:09.000Z</time>
      </trkpt>
      <trkpt lat="44.83274" lon="5.45756">
        <ele>1571.7</ele>
        <time>2024-05-11T07:46:11.000Z</time>
      </trkpt>
      <trkpt lat="44.83274" lon="5.4576">
        <ele>1572</ele>
        <time>2024-05-11T07:46:15.000Z</time>
      </trkpt>
      <trkpt lat="44.83273" lon="5.45762">
        <ele>1572.2</ele>
        <time>2024-05-11T07:46:17.000Z</time>
      </trkpt>
      <trkpt lat="44.83273" lon="5.45769">
        <ele>1572.7</ele>
        <time>2024-05-11T07:46:23.000Z</time>
      </trkpt>
      <trkpt lat="44.83274" lon="5.45771">
        <ele>1572.8</ele>
        <time>2024-05-11T07:46:25.000Z</time>
      </trkpt>
      <trkpt lat="44.83274" lon="5.45773">
        <ele>1572.9</ele>
        <time>2024-05-11T07:46:27.000Z</time>
      </trkpt>
      <trkpt lat="44.83274" lon="5.45774">
        <ele>1573</ele>
        <time>2024-05-11T07:46:28.000Z</time>
      </trkpt>
      <trkpt lat="44.83275" lon="5.45779">
        <ele>1573.3</ele>
        <time>2024-05-11T07:46:32.000Z</time>
      </trkpt>
      <trkpt lat="44.83276" lon="5.45781">
        <ele>1573.3</ele>
        <time>2024-05-11T07:46:33.000Z</time>
      </trkpt>
      <trkpt lat="44.83276" lon="5.45782">
        <ele>1573.3</ele>
        <time>2024-05-11T07:46:34.000Z</time>
      </trkpt>
      <trkpt lat="44.83277" lon="5.45784">
        <ele>1573.3</ele>
        <time>2024-05-11T07:46:36.000Z</time>
      </trkpt>
      <trkpt lat="44.83277" lon="5.45785">
        <ele>1573.4</ele>
        <time>2024-05-11T07:46:37.000Z</time>
      </trkpt>
      <trkpt lat="44.83277" lon="5.45786">
        <ele>1573.4</ele>
        <time>2024-05-11T07:46:38.000Z</time>
      </trkpt>
      <trkpt lat="44.83277" lon="5.45791">
        <ele>1573.5</ele>
        <time>2024-05-11T07:46:44.000Z</time>
      </trkpt>
      <trkpt lat="44.83276" lon="5.45794">
        <ele>1573.7</ele>
        <time>2024-05-11T07:46:50.000Z</time>
      </trkpt>
      <trkpt lat="44.83277" lon="5.45798">
        <ele>1573.8</ele>
        <time>2024-05-11T07:46:53.000Z</time>
      </trkpt>
      <trkpt lat="44.83277" lon="5.458">
        <ele>1573.8</ele>
        <time>2024-05-11T07:46:54.000Z</time>
      </trkpt>
      <trkpt lat="44.83278" lon="5.45802">
        <ele>1573.9</ele>
        <time>2024-05-11T07:46:56.000Z</time>
      </trkpt>
      <trkpt lat="44.83278" lon="5.45806">
        <ele>1574</ele>
        <time>2024-05-11T07:46:58.000Z</time>
      </trkpt>
      <trkpt lat="44.83279" lon="5.45809">
        <ele>1574.2</ele>
        <time>2024-05-11T07:47:00.000Z</time>
      </trkpt>
      <trkpt lat="44.83279" lon="5.45813">
        <ele>1574.5</ele>
        <time>2024-05-11T07:47:03.000Z</time>
      </trkpt>
      <trkpt lat="44.83279" lon="5.45816">
        <ele>1574.7</ele>
        <time>2024-05-11T07:47:05.000Z</time>
      </trkpt>
      <trkpt lat="44.8328" lon="5.45819">
        <ele>1574.9</ele>
        <time>2024-05-11T07:47:07.000Z</time>
      </trkpt>
      <trkpt lat="44.8328" lon="5.45822">
        <ele>1575.1</ele>
        <time>2024-05-11T07:47:09.000Z</time>
      </trkpt>
      <trkpt lat="44.8328" lon="5.45825">
        <ele>1575.3</ele>
        <time>2024-05-11T07:47:11.000Z</time>
      </trkpt>
      <trkpt lat="44.83279" lon="5.4583">
        <ele>1575.7</ele>
        <time>2024-05-11T07:47:15.000Z</time>
      </trkpt>
      <trkpt lat="44.83278" lon="5.45832">
        <ele>1575.9</ele>
        <time>2024-05-11T07:47:18.000Z</time>
      </trkpt>
      <trkpt lat="44.83277" lon="5.45835">
        <ele>1576.2</ele>
        <time>2024-05-11T07:47:20.000Z</time>
      </trkpt>
      <trkpt lat="44.83276" lon="5.45839">
        <ele>1576.6</ele>
        <time>2024-05-11T07:47:24.000Z</time>
      </trkpt>
      <trkpt lat="44.83275" lon="5.45844">
        <ele>1577.1</ele>
        <time>2024-05-11T07:47:28.000Z</time>
      </trkpt>
      <trkpt lat="44.83274" lon="5.45849">
        <ele>1577.6</ele>
        <time>2024-05-11T07:47:32.000Z</time>
      </trkpt>
      <trkpt lat="44.83273" lon="5.45858">
        <ele>1578.3</ele>
        <time>2024-05-11T07:47:38.000Z</time>
      </trkpt>
      <trkpt lat="44.83273" lon="5.4586">
        <ele>1578.4</ele>
        <time>2024-05-11T07:47:39.000Z</time>
      </trkpt>
      <trkpt lat="44.83272" lon="5.45864">
        <ele>1578.7</ele>
        <time>2024-05-11T07:47:42.000Z</time>
      </trkpt>
      <trkpt lat="44.83272" lon="5.4587">
        <ele>1578.9</ele>
        <time>2024-05-11T07:47:46.000Z</time>
      </trkpt>
      <trkpt lat="44.83271" lon="5.45873">
        <ele>1579.2</ele>
        <time>2024-05-11T07:47:48.000Z</time>
      </trkpt>
      <trkpt lat="44.8327" lon="5.45876">
        <ele>1579.4</ele>
        <time>2024-05-11T07:47:50.000Z</time>
      </trkpt>
      <trkpt lat="44.8327" lon="5.4588">
        <ele>1579.5</ele>
        <time>2024-05-11T07:47:52.000Z</time>
      </trkpt>
      <trkpt lat="44.83269" lon="5.45885">
        <ele>1579.8</ele>
        <time>2024-05-11T07:47:58.000Z</time>
      </trkpt>
      <trkpt lat="44.83268" lon="5.45888">
        <ele>1580</ele>
        <time>2024-05-11T07:48:01.000Z</time>
      </trkpt>
      <trkpt lat="44.83266" lon="5.45892">
        <ele>1580.6</ele>
        <time>2024-05-11T07:48:04.000Z</time>
      </trkpt>
      <trkpt lat="44.83266" lon="5.45902">
        <ele>1581.5</ele>
        <time>2024-05-11T07:48:11.000Z</time>
      </trkpt>
      <trkpt lat="44.83266" lon="5.45906">
        <ele>1581.8</ele>
        <time>2024-05-11T07:48:14.000Z</time>
      </trkpt>
      <trkpt lat="44.83266" lon="5.4591">
        <ele>1582.2</ele>
        <time>2024-05-11T07:48:17.000Z</time>
      </trkpt>
      <trkpt lat="44.83266" lon="5.4591">
        <ele>1582.2</ele>
        <time>2024-05-11T07:48:18.000Z</time>
      </trkpt>
      <trkpt lat="44.83265" lon="5.45917">
        <ele>1583</ele>
        <time>2024-05-11T07:48:23.000Z</time>
      </trkpt>
      <trkpt lat="44.83264" lon="5.45922">
        <ele>1583.4</ele>
        <time>2024-05-11T07:48:27.000Z</time>
      </trkpt>
      <trkpt lat="44.83264" lon="5.4593">
        <ele>1584</ele>
        <time>2024-05-11T07:48:34.000Z</time>
      </trkpt>
      <trkpt lat="44.83264" lon="5.45934">
        <ele>1584.2</ele>
        <time>2024-05-11T07:48:37.000Z</time>
      </trkpt>
      <trkpt lat="44.83265" lon="5.45942">
        <ele>1584.8</ele>
        <time>2024-05-11T07:48:44.000Z</time>
      </trkpt>
      <trkpt lat="44.83265" lon="5.45944">
        <ele>1584.9</ele>
        <time>2024-05-11T07:48:46.000Z</time>
      </trkpt>
      <trkpt lat="44.83263" lon="5.4595">
        <ele>1585.1</ele>
        <time>2024-05-11T07:48:52.000Z</time>
      </trkpt>
      <trkpt lat="44.83263" lon="5.45951">
        <ele>1585.2</ele>
        <time>2024-05-11T07:48:53.000Z</time>
      </trkpt>
      <trkpt lat="44.83264" lon="5.45956">
        <ele>1585.2</ele>
        <time>2024-05-11T07:48:57.000Z</time>
      </trkpt>
      <trkpt lat="44.83264" lon="5.45958">
        <ele>1585.3</ele>
        <time>2024-05-11T07:48:59.000Z</time>
      </trkpt>
      <trkpt lat="44.83264" lon="5.45962">
        <ele>1585.3</ele>
        <time>2024-05-11T07:49:02.000Z</time>
      </trkpt>
      <trkpt lat="44.83264" lon="5.45964">
        <ele>1585.3</ele>
        <time>2024-05-11T07:49:04.000Z</time>
      </trkpt>
      <trkpt lat="44.83265" lon="5.4597">
        <ele>1585.4</ele>
        <time>2024-05-11T07:49:09.000Z</time>
      </trkpt>
      <trkpt lat="44.83264" lon="5.45973">
        <ele>1585.5</ele>
        <time>2024-05-11T07:49:12.000Z</time>
      </trkpt>
      <trkpt lat="44.83265" lon="5.45976">
        <ele>1585.6</ele>
        <time>2024-05-11T07:49:15.000Z</time>
      </trkpt>
      <trkpt lat="44.83264" lon="5.45979">
        <ele>1585.7</ele>
        <time>2024-05-11T07:49:17.000Z</time>
      </trkpt>
      <trkpt lat="44.83263" lon="5.45982">
        <ele>1585.9</ele>
        <time>2024-05-11T07:49:19.000Z</time>
      </trkpt>
      <trkpt lat="44.83264" lon="5.45983">
        <ele>1585.9</ele>
        <time>2024-05-11T07:49:20.000Z</time>
      </trkpt>
      <trkpt lat="44.83262" lon="5.45991">
        <ele>1586.2</ele>
        <time>2024-05-11T07:49:27.000Z</time>
      </trkpt>
      <trkpt lat="44.8326" lon="5.45998">
        <ele>1586.6</ele>
        <time>2024-05-11T07:49:33.000Z</time>
      </trkpt>
      <trkpt lat="44.8326" lon="5.46001">
        <ele>1586.7</ele>
        <time>2024-05-11T07:49:35.000Z</time>
      </trkpt>
      <trkpt lat="44.83258" lon="5.4601">
        <ele>1587.1</ele>
        <time>2024-05-11T07:49:43.000Z</time>
      </trkpt>
      <trkpt lat="44.83255" lon="5.4602">
        <ele>1587.5</ele>
        <time>2024-05-11T07:49:51.000Z</time>
      </trkpt>
      <trkpt lat="44.83255" lon="5.46022">
        <ele>1587.6</ele>
        <time>2024-05-11T07:49:52.000Z</time>
      </trkpt>
      <trkpt lat="44.83254" lon="5.46027">
        <ele>1587.8</ele>
        <time>2024-05-11T07:49:55.000Z</time>
      </trkpt>
      <trkpt lat="44.83254" lon="5.4603">
        <ele>1587.9</ele>
        <time>2024-05-11T07:49:57.000Z</time>
      </trkpt>
      <trkpt lat="44.83254" lon="5.46034">
        <ele>1588.1</ele>
        <time>2024-05-11T07:50:01.000Z</time>
      </trkpt>
      <trkpt lat="44.83253" lon="5.46041">
        <ele>1588.4</ele>
        <time>2024-05-11T07:50:07.000Z</time>
      </trkpt>
      <trkpt lat="44.83252" lon="5.46047">
        <ele>1588.7</ele>
        <time>2024-05-11T07:50:12.000Z</time>
      </trkpt>
      <trkpt lat="44.83251" lon="5.46048">
        <ele>1588.7</ele>
        <time>2024-05-11T07:50:13.000Z</time>
      </trkpt>
      <trkpt lat="44.83249" lon="5.46054">
        <ele>1589</ele>
        <time>2024-05-11T07:50:17.000Z</time>
      </trkpt>
      <trkpt lat="44.83249" lon="5.46058">
        <ele>1589.2</ele>
        <time>2024-05-11T07:50:20.000Z</time>
      </trkpt>
      <trkpt lat="44.83248" lon="5.46062">
        <ele>1589.4</ele>
        <time>2024-05-11T07:50:23.000Z</time>
      </trkpt>
      <trkpt lat="44.83248" lon="5.46063">
        <ele>1589.4</ele>
        <time>2024-05-11T07:50:27.000Z</time>
      </trkpt>
      <trkpt lat="44.83245" lon="5.46069">
        <ele>1589.8</ele>
        <time>2024-05-11T07:50:32.000Z</time>
      </trkpt>
      <trkpt lat="44.83245" lon="5.4607">
        <ele>1589.9</ele>
        <time>2024-05-11T07:50:33.000Z</time>
      </trkpt>
      <trkpt lat="44.83239" lon="5.46079">
        <ele>1590.6</ele>
        <time>2024-05-11T07:50:39.000Z</time>
      </trkpt>
      <trkpt lat="44.83236" lon="5.46091">
        <ele>1591.4</ele>
        <time>2024-05-11T07:50:46.000Z</time>
      </trkpt>
      <trkpt lat="44.83237" lon="5.46095">
        <ele>1591.6</ele>
        <time>2024-05-11T07:50:49.000Z</time>
      </trkpt>
      <trkpt lat="44.83236" lon="5.461">
        <ele>1591.9</ele>
        <time>2024-05-11T07:50:52.000Z</time>
      </trkpt>
      <trkpt lat="44.83236" lon="5.46107">
        <ele>1592.3</ele>
        <time>2024-05-11T07:50:58.000Z</time>
      </trkpt>
      <trkpt lat="44.83235" lon="5.46109">
        <ele>1592.4</ele>
        <time>2024-05-11T07:51:00.000Z</time>
      </trkpt>
      <trkpt lat="44.83234" lon="5.46112">
        <ele>1592.6</ele>
        <time>2024-05-11T07:51:02.000Z</time>
      </trkpt>
      <trkpt lat="44.83232" lon="5.46118">
        <ele>1593</ele>
        <time>2024-05-11T07:51:06.000Z</time>
      </trkpt>
      <trkpt lat="44.83232" lon="5.46119">
        <ele>1593</ele>
        <time>2024-05-11T07:51:07.000Z</time>
      </trkpt>
      <trkpt lat="44.8323" lon="5.46126">
        <ele>1593.4</ele>
        <time>2024-05-11T07:51:15.000Z</time>
      </trkpt>
      <trkpt lat="44.8323" lon="5.46136">
        <ele>1593.8</ele>
        <time>2024-05-11T07:51:22.000Z</time>
      </trkpt>
      <trkpt lat="44.83229" lon="5.46138">
        <ele>1594</ele>
        <time>2024-05-11T07:51:25.000Z</time>
      </trkpt>
      <trkpt lat="44.83228" lon="5.46142">
        <ele>1594.2</ele>
        <time>2024-05-11T07:51:29.000Z</time>
      </trkpt>
      <trkpt lat="44.83225" lon="5.46154">
        <ele>1594.6</ele>
        <time>2024-05-11T07:51:39.000Z</time>
      </trkpt>
      <trkpt lat="44.83225" lon="5.46156">
        <ele>1594.7</ele>
        <time>2024-05-11T07:51:41.000Z</time>
      </trkpt>
      <trkpt lat="44.83224" lon="5.46163">
        <ele>1594.9</ele>
        <time>2024-05-11T07:51:48.000Z</time>
      </trkpt>
      <trkpt lat="44.83224" lon="5.46168">
        <ele>1595.2</ele>
        <time>2024-05-11T07:51:53.000Z</time>
      </trkpt>
      <trkpt lat="44.83223" lon="5.46173">
        <ele>1595.5</ele>
        <time>2024-05-11T07:51:57.000Z</time>
      </trkpt>
      <trkpt lat="44.83223" lon="5.46174">
        <ele>1595.5</ele>
        <time>2024-05-11T07:51:58.000Z</time>
      </trkpt>
      <trkpt lat="44.83219" lon="5.4618">
        <ele>1596.2</ele>
        <time>2024-05-11T07:52:04.000Z</time>
      </trkpt>
      <trkpt lat="44.83217" lon="5.46184">
        <ele>1596.7</ele>
        <time>2024-05-11T07:52:09.000Z</time>
      </trkpt>
      <trkpt lat="44.83214" lon="5.46187">
        <ele>1597.2</ele>
        <time>2024-05-11T07:52:12.000Z</time>
      </trkpt>
      <trkpt lat="44.83213" lon="5.46191">
        <ele>1597.5</ele>
        <time>2024-05-11T07:52:14.000Z</time>
      </trkpt>
      <trkpt lat="44.83212" lon="5.46192">
        <ele>1597.6</ele>
        <time>2024-05-11T07:52:15.000Z</time>
      </trkpt>
      <trkpt lat="44.83208" lon="5.46198">
        <ele>1598.4</ele>
        <time>2024-05-11T07:52:22.000Z</time>
      </trkpt>
      <trkpt lat="44.83205" lon="5.46201">
        <ele>1598.9</ele>
        <time>2024-05-11T07:52:26.000Z</time>
      </trkpt>
      <trkpt lat="44.83203" lon="5.46204">
        <ele>1599.3</ele>
        <time>2024-05-11T07:52:29.000Z</time>
      </trkpt>
      <trkpt lat="44.83203" lon="5.46206">
        <ele>1599.5</ele>
        <time>2024-05-11T07:52:30.000Z</time>
      </trkpt>
      <trkpt lat="44.83202" lon="5.46209">
        <ele>1599.8</ele>
        <time>2024-05-11T07:52:33.000Z</time>
      </trkpt>
      <trkpt lat="44.83202" lon="5.4621">
        <ele>1599.9</ele>
        <time>2024-05-11T07:52:34.000Z</time>
      </trkpt>
      <trkpt lat="44.83202" lon="5.46211">
        <ele>1600</ele>
        <time>2024-05-11T07:52:35.000Z</time>
      </trkpt>
      <trkpt lat="44.832" lon="5.46213">
        <ele>1600.2</ele>
        <time>2024-05-11T07:52:39.000Z</time>
      </trkpt>
      <trkpt lat="44.83198" lon="5.46218">
        <ele>1600.7</ele>
        <time>2024-05-11T07:52:45.000Z</time>
      </trkpt>
      <trkpt lat="44.83198" lon="5.46219">
        <ele>1600.8</ele>
        <time>2024-05-11T07:52:47.000Z</time>
      </trkpt>
      <trkpt lat="44.83198" lon="5.46221">
        <ele>1600.9</ele>
        <time>2024-05-11T07:52:49.000Z</time>
      </trkpt>
      <trkpt lat="44.83197" lon="5.46224">
        <ele>1601.1</ele>
        <time>2024-05-11T07:52:53.000Z</time>
      </trkpt>
      <trkpt lat="44.83196" lon="5.46225">
        <ele>1601.2</ele>
        <time>2024-05-11T07:52:54.000Z</time>
      </trkpt>
      <trkpt lat="44.83194" lon="5.46229">
        <ele>1601.5</ele>
        <time>2024-05-11T07:53:00.000Z</time>
      </trkpt>
      <trkpt lat="44.83194" lon="5.46231">
        <ele>1601.7</ele>
        <time>2024-05-11T07:53:01.000Z</time>
      </trkpt>
      <trkpt lat="44.83194" lon="5.46239">
        <ele>1602.3</ele>
        <time>2024-05-11T07:53:08.000Z</time>
      </trkpt>
      <trkpt lat="44.83193" lon="5.46242">
        <ele>1602.6</ele>
        <time>2024-05-11T07:53:11.000Z</time>
      </trkpt>
      <trkpt lat="44.83192" lon="5.46245">
        <ele>1602.9</ele>
        <time>2024-05-11T07:53:14.000Z</time>
      </trkpt>
      <trkpt lat="44.83191" lon="5.46248">
        <ele>1603.2</ele>
        <time>2024-05-11T07:53:16.000Z</time>
      </trkpt>
      <trkpt lat="44.83191" lon="5.46251">
        <ele>1603.5</ele>
        <time>2024-05-11T07:53:19.000Z</time>
      </trkpt>
      <trkpt lat="44.83191" lon="5.46252">
        <ele>1603.5</ele>
        <time>2024-05-11T07:53:20.000Z</time>
      </trkpt>
      <trkpt lat="44.83191" lon="5.46256">
        <ele>1604</ele>
        <time>2024-05-11T07:53:25.000Z</time>
      </trkpt>
      <trkpt lat="44.83188" lon="5.46262">
        <ele>1604.8</ele>
        <time>2024-05-11T07:53:31.000Z</time>
      </trkpt>
      <trkpt lat="44.83188" lon="5.46263">
        <ele>1604.9</ele>
        <time>2024-05-11T07:53:32.000Z</time>
      </trkpt>
      <trkpt lat="44.83187" lon="5.46267">
        <ele>1605.3</ele>
        <time>2024-05-11T07:53:36.000Z</time>
      </trkpt>
      <trkpt lat="44.83186" lon="5.4627">
        <ele>1605.6</ele>
        <time>2024-05-11T07:53:40.000Z</time>
      </trkpt>
      <trkpt lat="44.83185" lon="5.4627">
        <ele>1605.7</ele>
        <time>2024-05-11T07:53:42.000Z</time>
      </trkpt>
      <trkpt lat="44.83186" lon="5.46268">
        <ele>1605.5</ele>
        <time>2024-05-11T07:53:48.000Z</time>
      </trkpt>
      <trkpt lat="44.83186" lon="5.46268">
        <ele>1605.5</ele>
        <time>2024-05-11T07:53:49.000Z</time>
      </trkpt>
      <trkpt lat="44.83188" lon="5.46274">
        <ele>1605.9</ele>
        <time>2024-05-11T07:54:12.000Z</time>
      </trkpt>
      <trkpt lat="44.83187" lon="5.46279">
        <ele>1606.3</ele>
        <time>2024-05-11T07:54:15.000Z</time>
      </trkpt>
      <trkpt lat="44.83187" lon="5.46281">
        <ele>1606.5</ele>
        <time>2024-05-11T07:54:17.000Z</time>
      </trkpt>
      <trkpt lat="44.83185" lon="5.46286">
        <ele>1606.9</ele>
        <time>2024-05-11T07:54:23.000Z</time>
      </trkpt>
      <trkpt lat="44.83185" lon="5.46286">
        <ele>1606.9</ele>
        <time>2024-05-11T07:54:24.000Z</time>
      </trkpt>
      <trkpt lat="44.83183" lon="5.46288">
        <ele>1607.2</ele>
        <time>2024-05-11T07:54:28.000Z</time>
      </trkpt>
      <trkpt lat="44.83182" lon="5.46289">
        <ele>1607.3</ele>
        <time>2024-05-11T07:54:30.000Z</time>
      </trkpt>
      <trkpt lat="44.83182" lon="5.46292">
        <ele>1607.4</ele>
        <time>2024-05-11T07:54:32.000Z</time>
      </trkpt>
      <trkpt lat="44.83182" lon="5.46294">
        <ele>1607.6</ele>
        <time>2024-05-11T07:54:34.000Z</time>
      </trkpt>
      <trkpt lat="44.8318" lon="5.46303">
        <ele>1608.3</ele>
        <time>2024-05-11T07:54:41.000Z</time>
      </trkpt>
      <trkpt lat="44.83178" lon="5.46306">
        <ele>1608.6</ele>
        <time>2024-05-11T07:54:46.000Z</time>
      </trkpt>
      <trkpt lat="44.83177" lon="5.4631">
        <ele>1608.9</ele>
        <time>2024-05-11T07:54:52.000Z</time>
      </trkpt>
      <trkpt lat="44.83175" lon="5.46319">
        <ele>1609.6</ele>
        <time>2024-05-11T07:54:59.000Z</time>
      </trkpt>
      <trkpt lat="44.83174" lon="5.46323">
        <ele>1610</ele>
        <time>2024-05-11T07:55:03.000Z</time>
      </trkpt>
      <trkpt lat="44.83174" lon="5.46324">
        <ele>1610</ele>
        <time>2024-05-11T07:55:04.000Z</time>
      </trkpt>
      <trkpt lat="44.83174" lon="5.4633">
        <ele>1610.5</ele>
        <time>2024-05-11T07:55:09.000Z</time>
      </trkpt>
      <trkpt lat="44.83175" lon="5.46334">
        <ele>1610.8</ele>
        <time>2024-05-11T07:55:16.000Z</time>
      </trkpt>
      <trkpt lat="44.83173" lon="5.46337">
        <ele>1611</ele>
        <time>2024-05-11T07:55:22.000Z</time>
      </trkpt>
      <trkpt lat="44.83172" lon="5.46338">
        <ele>1611.1</ele>
        <time>2024-05-11T07:55:23.000Z</time>
      </trkpt>
      <trkpt lat="44.8317" lon="5.46342">
        <ele>1611.5</ele>
        <time>2024-05-11T07:55:27.000Z</time>
      </trkpt>
      <trkpt lat="44.83168" lon="5.46349">
        <ele>1612.1</ele>
        <time>2024-05-11T07:55:34.000Z</time>
      </trkpt>
      <trkpt lat="44.83167" lon="5.46353">
        <ele>1612.4</ele>
        <time>2024-05-11T07:55:39.000Z</time>
      </trkpt>
      <trkpt lat="44.83165" lon="5.46357">
        <ele>1612.9</ele>
        <time>2024-05-11T07:55:44.000Z</time>
      </trkpt>
      <trkpt lat="44.83165" lon="5.46358">
        <ele>1612.9</ele>
        <time>2024-05-11T07:55:45.000Z</time>
      </trkpt>
      <trkpt lat="44.83166" lon="5.46357">
        <ele>1612.8</ele>
        <time>2024-05-11T07:55:50.000Z</time>
      </trkpt>
      <trkpt lat="44.83166" lon="5.46357">
        <ele>1612.8</ele>
        <time>2024-05-11T07:55:53.000Z</time>
      </trkpt>
      <trkpt lat="44.83167" lon="5.46358">
        <ele>1612.7</ele>
        <time>2024-05-11T07:55:56.000Z</time>
      </trkpt>
      <trkpt lat="44.83167" lon="5.46358">
        <ele>1612.8</ele>
        <time>2024-05-11T07:56:04.000Z</time>
      </trkpt>
      <trkpt lat="44.83167" lon="5.46358">
        <ele>1612.8</ele>
        <time>2024-05-11T07:56:13.000Z</time>
      </trkpt>
      <trkpt lat="44.83166" lon="5.46361">
        <ele>1613</ele>
        <time>2024-05-11T07:56:31.000Z</time>
      </trkpt>
      <trkpt lat="44.83164" lon="5.46364">
        <ele>1613.4</ele>
        <time>2024-05-11T07:56:33.000Z</time>
      </trkpt>
      <trkpt lat="44.83162" lon="5.4637">
        <ele>1614.2</ele>
        <time>2024-05-11T07:56:39.000Z</time>
      </trkpt>
      <trkpt lat="44.83161" lon="5.46375">
        <ele>1614.6</ele>
        <time>2024-05-11T07:56:43.000Z</time>
      </trkpt>
      <trkpt lat="44.83161" lon="5.46378">
        <ele>1614.8</ele>
        <time>2024-05-11T07:56:47.000Z</time>
      </trkpt>
      <trkpt lat="44.83159" lon="5.46382">
        <ele>1615.4</ele>
        <time>2024-05-11T07:56:52.000Z</time>
      </trkpt>
      <trkpt lat="44.83157" lon="5.46387">
        <ele>1615.8</ele>
        <time>2024-05-11T07:56:57.000Z</time>
      </trkpt>
      <trkpt lat="44.83157" lon="5.46391">
        <ele>1616.3</ele>
        <time>2024-05-11T07:57:01.000Z</time>
      </trkpt>
      <trkpt lat="44.83156" lon="5.46394">
        <ele>1616.6</ele>
        <time>2024-05-11T07:57:04.000Z</time>
      </trkpt>
      <trkpt lat="44.83154" lon="5.46399">
        <ele>1617.1</ele>
        <time>2024-05-11T07:57:07.000Z</time>
      </trkpt>
      <trkpt lat="44.83152" lon="5.46401">
        <ele>1617.4</ele>
        <time>2024-05-11T07:57:09.000Z</time>
      </trkpt>
      <trkpt lat="44.83151" lon="5.46405">
        <ele>1617.8</ele>
        <time>2024-05-11T07:57:12.000Z</time>
      </trkpt>
      <trkpt lat="44.8315" lon="5.4641">
        <ele>1618.2</ele>
        <time>2024-05-11T07:57:15.000Z</time>
      </trkpt>
      <trkpt lat="44.83146" lon="5.46416">
        <ele>1618.7</ele>
        <time>2024-05-11T07:57:20.000Z</time>
      </trkpt>
      <trkpt lat="44.83141" lon="5.46425">
        <ele>1620.1</ele>
        <time>2024-05-11T07:57:27.000Z</time>
      </trkpt>
      <trkpt lat="44.83141" lon="5.4643">
        <ele>1620.8</ele>
        <time>2024-05-11T07:57:32.000Z</time>
      </trkpt>
      <trkpt lat="44.83141" lon="5.46435">
        <ele>1621.5</ele>
        <time>2024-05-11T07:57:37.000Z</time>
      </trkpt>
      <trkpt lat="44.83139" lon="5.46441">
        <ele>1622.5</ele>
        <time>2024-05-11T07:57:43.000Z</time>
      </trkpt>
      <trkpt lat="44.83138" lon="5.46444">
        <ele>1623</ele>
        <time>2024-05-11T07:57:45.000Z</time>
      </trkpt>
      <trkpt lat="44.83135" lon="5.46448">
        <ele>1623.8</ele>
        <time>2024-05-11T07:57:51.000Z</time>
      </trkpt>
      <trkpt lat="44.83134" lon="5.46449">
        <ele>1623.9</ele>
        <time>2024-05-11T07:57:52.000Z</time>
      </trkpt>
      <trkpt lat="44.83131" lon="5.46456">
        <ele>1625.2</ele>
        <time>2024-05-11T07:57:58.000Z</time>
      </trkpt>
      <trkpt lat="44.8313" lon="5.46462">
        <ele>1626.2</ele>
        <time>2024-05-11T07:58:03.000Z</time>
      </trkpt>
      <trkpt lat="44.83131" lon="5.46471">
        <ele>1627.4</ele>
        <time>2024-05-11T07:58:11.000Z</time>
      </trkpt>
      <trkpt lat="44.83132" lon="5.46473">
        <ele>1627.6</ele>
        <time>2024-05-11T07:58:13.000Z</time>
      </trkpt>
      <trkpt lat="44.83134" lon="5.46478">
        <ele>1628</ele>
        <time>2024-05-11T07:58:18.000Z</time>
      </trkpt>
      <trkpt lat="44.83134" lon="5.46479">
        <ele>1628</ele>
        <time>2024-05-11T07:58:19.000Z</time>
      </trkpt>
      <trkpt lat="44.83133" lon="5.4648">
        <ele>1628.2</ele>
        <time>2024-05-11T07:58:22.000Z</time>
      </trkpt>
      <trkpt lat="44.83132" lon="5.46481">
        <ele>1628.5</ele>
        <time>2024-05-11T07:58:27.000Z</time>
      </trkpt>
      <trkpt lat="44.83134" lon="5.46485">
        <ele>1628.8</ele>
        <time>2024-05-11T07:58:33.000Z</time>
      </trkpt>
      <trkpt lat="44.83134" lon="5.46487">
        <ele>1629</ele>
        <time>2024-05-11T07:58:35.000Z</time>
      </trkpt>
      <trkpt lat="44.83136" lon="5.46491">
        <ele>1629.3</ele>
        <time>2024-05-11T07:58:40.000Z</time>
      </trkpt>
      <trkpt lat="44.83135" lon="5.46493">
        <ele>1629.5</ele>
        <time>2024-05-11T07:58:42.000Z</time>
      </trkpt>
      <trkpt lat="44.83133" lon="5.46497">
        <ele>1630.1</ele>
        <time>2024-05-11T07:58:48.000Z</time>
      </trkpt>
      <trkpt lat="44.83134" lon="5.46501">
        <ele>1630.5</ele>
        <time>2024-05-11T07:58:54.000Z</time>
      </trkpt>
      <trkpt lat="44.83133" lon="5.46502">
        <ele>1630.7</ele>
        <time>2024-05-11T07:58:56.000Z</time>
      </trkpt>
      <trkpt lat="44.83135" lon="5.46506">
        <ele>1630.9</ele>
        <time>2024-05-11T07:58:59.000Z</time>
      </trkpt>
      <trkpt lat="44.83136" lon="5.46509">
        <ele>1631.1</ele>
        <time>2024-05-11T07:59:02.000Z</time>
      </trkpt>
      <trkpt lat="44.83136" lon="5.46515">
        <ele>1631.8</ele>
        <time>2024-05-11T07:59:06.000Z</time>
      </trkpt>
      <trkpt lat="44.83138" lon="5.4652">
        <ele>1632.2</ele>
        <time>2024-05-11T07:59:11.000Z</time>
      </trkpt>
      <trkpt lat="44.83135" lon="5.4652">
        <ele>1632.5</ele>
        <time>2024-05-11T07:59:12.000Z</time>
      </trkpt>
      <trkpt lat="44.83132" lon="5.46525">
        <ele>1633.2</ele>
        <time>2024-05-11T07:59:19.000Z</time>
      </trkpt>
      <trkpt lat="44.83132" lon="5.46526">
        <ele>1633.3</ele>
        <time>2024-05-11T07:59:20.000Z</time>
      </trkpt>
      <trkpt lat="44.83133" lon="5.46533">
        <ele>1633.9</ele>
        <time>2024-05-11T07:59:26.000Z</time>
      </trkpt>
      <trkpt lat="44.83134" lon="5.46537">
        <ele>1634.3</ele>
        <time>2024-05-11T07:59:30.000Z</time>
      </trkpt>
      <trkpt lat="44.83134" lon="5.46538">
        <ele>1634.4</ele>
        <time>2024-05-11T07:59:31.000Z</time>
      </trkpt>
      <trkpt lat="44.83132" lon="5.46546">
        <ele>1635.2</ele>
        <time>2024-05-11T07:59:37.000Z</time>
      </trkpt>
      <trkpt lat="44.83133" lon="5.46548">
        <ele>1635.5</ele>
        <time>2024-05-11T07:59:39.000Z</time>
      </trkpt>
      <trkpt lat="44.83133" lon="5.46553">
        <ele>1635.9</ele>
        <time>2024-05-11T07:59:43.000Z</time>
      </trkpt>
      <trkpt lat="44.83134" lon="5.46556">
        <ele>1636.2</ele>
        <time>2024-05-11T07:59:46.000Z</time>
      </trkpt>
      <trkpt lat="44.83131" lon="5.46561">
        <ele>1636.7</ele>
        <time>2024-05-11T07:59:52.000Z</time>
      </trkpt>
      <trkpt lat="44.8313" lon="5.46564">
        <ele>1636.9</ele>
        <time>2024-05-11T07:59:55.000Z</time>
      </trkpt>
      <trkpt lat="44.8313" lon="5.46567">
        <ele>1637.1</ele>
        <time>2024-05-11T07:59:58.000Z</time>
      </trkpt>
      <trkpt lat="44.8313" lon="5.46569">
        <ele>1637.3</ele>
        <time>2024-05-11T08:00:00.000Z</time>
      </trkpt>
      <trkpt lat="44.8313" lon="5.46574">
        <ele>1637.6</ele>
        <time>2024-05-11T08:00:03.000Z</time>
      </trkpt>
      <trkpt lat="44.8313" lon="5.46575">
        <ele>1637.7</ele>
        <time>2024-05-11T08:00:04.000Z</time>
      </trkpt>
      <trkpt lat="44.83127" lon="5.46583">
        <ele>1638.4</ele>
        <time>2024-05-11T08:00:11.000Z</time>
      </trkpt>
      <trkpt lat="44.83127" lon="5.46588">
        <ele>1638.6</ele>
        <time>2024-05-11T08:00:15.000Z</time>
      </trkpt>
      <trkpt lat="44.83125" lon="5.46593">
        <ele>1638.8</ele>
        <time>2024-05-11T08:00:19.000Z</time>
      </trkpt>
      <trkpt lat="44.83124" lon="5.46599">
        <ele>1639.1</ele>
        <time>2024-05-11T08:00:25.000Z</time>
      </trkpt>
      <trkpt lat="44.83122" lon="5.46602">
        <ele>1639.3</ele>
        <time>2024-05-11T08:00:28.000Z</time>
      </trkpt>
      <trkpt lat="44.83119" lon="5.46606">
        <ele>1639.5</ele>
        <time>2024-05-11T08:00:33.000Z</time>
      </trkpt>
      <trkpt lat="44.83118" lon="5.46607">
        <ele>1639.6</ele>
        <time>2024-05-11T08:00:34.000Z</time>
      </trkpt>
      <trkpt lat="44.83117" lon="5.46608">
        <ele>1639.7</ele>
        <time>2024-05-11T08:00:35.000Z</time>
      </trkpt>
      <trkpt lat="44.83115" lon="5.46613">
        <ele>1639.9</ele>
        <time>2024-05-11T08:00:40.000Z</time>
      </trkpt>
      <trkpt lat="44.83114" lon="5.46618">
        <ele>1640.1</ele>
        <time>2024-05-11T08:00:44.000Z</time>
      </trkpt>
      <trkpt lat="44.83114" lon="5.4662">
        <ele>1640.2</ele>
        <time>2024-05-11T08:00:46.000Z</time>
      </trkpt>
      <trkpt lat="44.83113" lon="5.46625">
        <ele>1640.5</ele>
        <time>2024-05-11T08:00:50.000Z</time>
      </trkpt>
      <trkpt lat="44.83113" lon="5.46628">
        <ele>1640.6</ele>
        <time>2024-05-11T08:00:52.000Z</time>
      </trkpt>
      <trkpt lat="44.83112" lon="5.4663">
        <ele>1640.7</ele>
        <time>2024-05-11T08:00:53.000Z</time>
      </trkpt>
      <trkpt lat="44.83111" lon="5.46637">
        <ele>1641</ele>
        <time>2024-05-11T08:00:59.000Z</time>
      </trkpt>
      <trkpt lat="44.83111" lon="5.46639">
        <ele>1641</ele>
        <time>2024-05-11T08:01:00.000Z</time>
      </trkpt>
      <trkpt lat="44.83112" lon="5.46642">
        <ele>1641.1</ele>
        <time>2024-05-11T08:01:03.000Z</time>
      </trkpt>
      <trkpt lat="44.83113" lon="5.46644">
        <ele>1641.2</ele>
        <time>2024-05-11T08:01:04.000Z</time>
      </trkpt>
      <trkpt lat="44.83114" lon="5.46649">
        <ele>1641.4</ele>
        <time>2024-05-11T08:01:08.000Z</time>
      </trkpt>
      <trkpt lat="44.83115" lon="5.46658">
        <ele>1641.7</ele>
        <time>2024-05-11T08:01:14.000Z</time>
      </trkpt>
      <trkpt lat="44.83116" lon="5.46659">
        <ele>1641.7</ele>
        <time>2024-05-11T08:01:15.000Z</time>
      </trkpt>
      <trkpt lat="44.83119" lon="5.46667">
        <ele>1642</ele>
        <time>2024-05-11T08:01:21.000Z</time>
      </trkpt>
      <trkpt lat="44.83118" lon="5.46671">
        <ele>1642.2</ele>
        <time>2024-05-11T08:01:25.000Z</time>
      </trkpt>
      <trkpt lat="44.83118" lon="5.46675">
        <ele>1642.3</ele>
        <time>2024-05-11T08:01:28.000Z</time>
      </trkpt>
      <trkpt lat="44.83117" lon="5.46683">
        <ele>1642.6</ele>
        <time>2024-05-11T08:01:35.000Z</time>
      </trkpt>
      <trkpt lat="44.83117" lon="5.46684">
        <ele>1642.6</ele>
        <time>2024-05-11T08:01:36.000Z</time>
      </trkpt>
      <trkpt lat="44.83114" lon="5.46691">
        <ele>1642.9</ele>
        <time>2024-05-11T08:01:42.000Z</time>
      </trkpt>
      <trkpt lat="44.83113" lon="5.46694">
        <ele>1643</ele>
        <time>2024-05-11T08:01:45.000Z</time>
      </trkpt>
      <trkpt lat="44.83113" lon="5.46701">
        <ele>1643.5</ele>
        <time>2024-05-11T08:01:51.000Z</time>
      </trkpt>
      <trkpt lat="44.83113" lon="5.46703">
        <ele>1643.6</ele>
        <time>2024-05-11T08:01:52.000Z</time>
      </trkpt>
      <trkpt lat="44.83113" lon="5.46703">
        <ele>1643.6</ele>
        <time>2024-05-11T08:01:53.000Z</time>
      </trkpt>
      <trkpt lat="44.83113" lon="5.46707">
        <ele>1643.9</ele>
        <time>2024-05-11T08:01:57.000Z</time>
      </trkpt>
      <trkpt lat="44.83111" lon="5.46714">
        <ele>1644.4</ele>
        <time>2024-05-11T08:02:02.000Z</time>
      </trkpt>
      <trkpt lat="44.83111" lon="5.46718">
        <ele>1644.7</ele>
        <time>2024-05-11T08:02:05.000Z</time>
      </trkpt>
      <trkpt lat="44.83111" lon="5.46719">
        <ele>1644.8</ele>
        <time>2024-05-11T08:02:08.000Z</time>
      </trkpt>
      <trkpt lat="44.83111" lon="5.46722">
        <ele>1645</ele>
        <time>2024-05-11T08:02:10.000Z</time>
      </trkpt>
      <trkpt lat="44.83108" lon="5.46729">
        <ele>1645.6</ele>
        <time>2024-05-11T08:02:17.000Z</time>
      </trkpt>
      <trkpt lat="44.83108" lon="5.4673">
        <ele>1645.7</ele>
        <time>2024-05-11T08:02:18.000Z</time>
      </trkpt>
      <trkpt lat="44.83106" lon="5.46733">
        <ele>1646</ele>
        <time>2024-05-11T08:02:23.000Z</time>
      </trkpt>
      <trkpt lat="44.83107" lon="5.46735">
        <ele>1646.1</ele>
        <time>2024-05-11T08:02:25.000Z</time>
      </trkpt>
      <trkpt lat="44.83104" lon="5.46738">
        <ele>1646.4</ele>
        <time>2024-05-11T08:02:28.000Z</time>
      </trkpt>
      <trkpt lat="44.83102" lon="5.46743">
        <ele>1646.8</ele>
        <time>2024-05-11T08:02:33.000Z</time>
      </trkpt>
      <trkpt lat="44.83098" lon="5.46749">
        <ele>1647.4</ele>
        <time>2024-05-11T08:02:40.000Z</time>
      </trkpt>
      <trkpt lat="44.83096" lon="5.46757">
        <ele>1648.2</ele>
        <time>2024-05-11T08:02:49.000Z</time>
      </trkpt>
      <trkpt lat="44.83096" lon="5.46759">
        <ele>1648.4</ele>
        <time>2024-05-11T08:02:51.000Z</time>
      </trkpt>
      <trkpt lat="44.83096" lon="5.46764">
        <ele>1648.9</ele>
        <time>2024-05-11T08:02:57.000Z</time>
      </trkpt>
      <trkpt lat="44.83096" lon="5.46765">
        <ele>1649</ele>
        <time>2024-05-11T08:02:58.000Z</time>
      </trkpt>
      <trkpt lat="44.83095" lon="5.46771">
        <ele>1649.5</ele>
        <time>2024-05-11T08:03:03.000Z</time>
      </trkpt>
      <trkpt lat="44.83095" lon="5.46774">
        <ele>1649.9</ele>
        <time>2024-05-11T08:03:06.000Z</time>
      </trkpt>
      <trkpt lat="44.83093" lon="5.46779">
        <ele>1650.4</ele>
        <time>2024-05-11T08:03:10.000Z</time>
      </trkpt>
      <trkpt lat="44.8309" lon="5.46785">
        <ele>1651.1</ele>
        <time>2024-05-11T08:03:15.000Z</time>
      </trkpt>
      <trkpt lat="44.8309" lon="5.46787">
        <ele>1651.2</ele>
        <time>2024-05-11T08:03:16.000Z</time>
      </trkpt>
      <trkpt lat="44.83089" lon="5.46792">
        <ele>1651.6</ele>
        <time>2024-05-11T08:03:22.000Z</time>
      </trkpt>
      <trkpt lat="44.83088" lon="5.46795">
        <ele>1651.9</ele>
        <time>2024-05-11T08:03:29.000Z</time>
      </trkpt>
      <trkpt lat="44.83087" lon="5.46795">
        <ele>1652</ele>
        <time>2024-05-11T08:03:30.000Z</time>
      </trkpt>
      <trkpt lat="44.83086" lon="5.46803">
        <ele>1652.6</ele>
        <time>2024-05-11T08:03:36.000Z</time>
      </trkpt>
      <trkpt lat="44.83086" lon="5.46807">
        <ele>1652.9</ele>
        <time>2024-05-11T08:03:39.000Z</time>
      </trkpt>
      <trkpt lat="44.83086" lon="5.46812">
        <ele>1653.3</ele>
        <time>2024-05-11T08:03:43.000Z</time>
      </trkpt>
      <trkpt lat="44.83084" lon="5.46817">
        <ele>1653.8</ele>
        <time>2024-05-11T08:03:47.000Z</time>
      </trkpt>
      <trkpt lat="44.83084" lon="5.46821">
        <ele>1654.1</ele>
        <time>2024-05-11T08:03:50.000Z</time>
      </trkpt>
      <trkpt lat="44.83081" lon="5.46828">
        <ele>1654.7</ele>
        <time>2024-05-11T08:03:57.000Z</time>
      </trkpt>
      <trkpt lat="44.83078" lon="5.46834">
        <ele>1655.4</ele>
        <time>2024-05-11T08:04:04.000Z</time>
      </trkpt>
      <trkpt lat="44.83076" lon="5.4684">
        <ele>1656</ele>
        <time>2024-05-11T08:04:08.000Z</time>
      </trkpt>
      <trkpt lat="44.83076" lon="5.46841">
        <ele>1656.1</ele>
        <time>2024-05-11T08:04:09.000Z</time>
      </trkpt>
      <trkpt lat="44.83076" lon="5.46842">
        <ele>1656.2</ele>
        <time>2024-05-11T08:04:11.000Z</time>
      </trkpt>
      <trkpt lat="44.83073" lon="5.46849">
        <ele>1656.8</ele>
        <time>2024-05-11T08:04:15.000Z</time>
      </trkpt>
      <trkpt lat="44.83073" lon="5.46851">
        <ele>1657</ele>
        <time>2024-05-11T08:04:16.000Z</time>
      </trkpt>
      <trkpt lat="44.83073" lon="5.46854">
        <ele>1657.3</ele>
        <time>2024-05-11T08:04:18.000Z</time>
      </trkpt>
      <trkpt lat="44.83071" lon="5.46857">
        <ele>1657.6</ele>
        <time>2024-05-11T08:04:21.000Z</time>
      </trkpt>
      <trkpt lat="44.83069" lon="5.46866">
        <ele>1658.3</ele>
        <time>2024-05-11T08:04:28.000Z</time>
      </trkpt>
      <trkpt lat="44.83065" lon="5.46874">
        <ele>1659.1</ele>
        <time>2024-05-11T08:04:35.000Z</time>
      </trkpt>
      <trkpt lat="44.83064" lon="5.46876">
        <ele>1659.3</ele>
        <time>2024-05-11T08:04:36.000Z</time>
      </trkpt>
      <trkpt lat="44.83062" lon="5.46884">
        <ele>1660</ele>
        <time>2024-05-11T08:04:43.000Z</time>
      </trkpt>
      <trkpt lat="44.83059" lon="5.46892">
        <ele>1660.7</ele>
        <time>2024-05-11T08:04:49.000Z</time>
      </trkpt>
      <trkpt lat="44.83059" lon="5.46895">
        <ele>1660.8</ele>
        <time>2024-05-11T08:04:51.000Z</time>
      </trkpt>
      <trkpt lat="44.83057" lon="5.46906">
        <ele>1661.4</ele>
        <time>2024-05-11T08:04:57.000Z</time>
      </trkpt>
      <trkpt lat="44.83052" lon="5.46917">
        <ele>1662.4</ele>
        <time>2024-05-11T08:05:03.000Z</time>
      </trkpt>
      <trkpt lat="44.83052" lon="5.46922">
        <ele>1662.4</ele>
        <time>2024-05-11T08:05:09.000Z</time>
      </trkpt>
      <trkpt lat="44.83049" lon="5.46926">
        <ele>1662.8</ele>
        <time>2024-05-11T08:05:15.000Z</time>
      </trkpt>
      <trkpt lat="44.83048" lon="5.46932">
        <ele>1663.2</ele>
        <time>2024-05-11T08:05:20.000Z</time>
      </trkpt>
      <trkpt lat="44.83048" lon="5.46934">
        <ele>1663.2</ele>
        <time>2024-05-11T08:05:21.000Z</time>
      </trkpt>
      <trkpt lat="44.83047" lon="5.46943">
        <ele>1663.5</ele>
        <time>2024-05-11T08:05:26.000Z</time>
      </trkpt>
      <trkpt lat="44.83044" lon="5.46952">
        <ele>1664.4</ele>
        <time>2024-05-11T08:05:31.000Z</time>
      </trkpt>
      <trkpt lat="44.8304" lon="5.46964">
        <ele>1665.5</ele>
        <time>2024-05-11T08:05:37.000Z</time>
      </trkpt>
      <trkpt lat="44.8304" lon="5.46971">
        <ele>1665.8</ele>
        <time>2024-05-11T08:05:40.000Z</time>
      </trkpt>
      <trkpt lat="44.83036" lon="5.46974">
        <ele>1666.5</ele>
        <time>2024-05-11T08:05:44.000Z</time>
      </trkpt>
      <trkpt lat="44.83036" lon="5.46987">
        <ele>1666.6</ele>
        <time>2024-05-11T08:05:52.000Z</time>
      </trkpt>
      <trkpt lat="44.83035" lon="5.46989">
        <ele>1666.8</ele>
        <time>2024-05-11T08:05:54.000Z</time>
      </trkpt>
      <trkpt lat="44.83032" lon="5.46993">
        <ele>1667.3</ele>
        <time>2024-05-11T08:05:59.000Z</time>
      </trkpt>
      <trkpt lat="44.83027" lon="5.46997">
        <ele>1668.1</ele>
        <time>2024-05-11T08:06:04.000Z</time>
      </trkpt>
      <trkpt lat="44.83027" lon="5.46998">
        <ele>1668.1</ele>
        <time>2024-05-11T08:06:05.000Z</time>
      </trkpt>
      <trkpt lat="44.83025" lon="5.47003">
        <ele>1668.3</ele>
        <time>2024-05-11T08:06:11.000Z</time>
      </trkpt>
      <trkpt lat="44.83024" lon="5.47004">
        <ele>1668.4</ele>
        <time>2024-05-11T08:06:12.000Z</time>
      </trkpt>
      <trkpt lat="44.83023" lon="5.4701">
        <ele>1668.4</ele>
        <time>2024-05-11T08:06:17.000Z</time>
      </trkpt>
      <trkpt lat="44.83022" lon="5.47011">
        <ele>1668.4</ele>
        <time>2024-05-11T08:06:18.000Z</time>
      </trkpt>
      <trkpt lat="44.8302" lon="5.47014">
        <ele>1668.7</ele>
        <time>2024-05-11T08:06:22.000Z</time>
      </trkpt>
      <trkpt lat="44.83019" lon="5.47018">
        <ele>1668.6</ele>
        <time>2024-05-11T08:06:25.000Z</time>
      </trkpt>
      <trkpt lat="44.83018" lon="5.47023">
        <ele>1668.6</ele>
        <time>2024-05-11T08:06:29.000Z</time>
      </trkpt>
      <trkpt lat="44.83015" lon="5.47028">
        <ele>1668.8</ele>
        <time>2024-05-11T08:06:34.000Z</time>
      </trkpt>
      <trkpt lat="44.83015" lon="5.47031">
        <ele>1668.8</ele>
        <time>2024-05-11T08:06:37.000Z</time>
      </trkpt>
      <trkpt lat="44.83014" lon="5.47036">
        <ele>1668.9</ele>
        <time>2024-05-11T08:06:40.000Z</time>
      </trkpt>
      <trkpt lat="44.83011" lon="5.47043">
        <ele>1669.1</ele>
        <time>2024-05-11T08:06:46.000Z</time>
      </trkpt>
      <trkpt lat="44.8301" lon="5.47052">
        <ele>1669</ele>
        <time>2024-05-11T08:06:52.000Z</time>
      </trkpt>
      <trkpt lat="44.8301" lon="5.47059">
        <ele>1668.8</ele>
        <time>2024-05-11T08:06:57.000Z</time>
      </trkpt>
      <trkpt lat="44.8301" lon="5.47063">
        <ele>1668.7</ele>
        <time>2024-05-11T08:06:59.000Z</time>
      </trkpt>
      <trkpt lat="44.83011" lon="5.47068">
        <ele>1668.4</ele>
        <time>2024-05-11T08:07:03.000Z</time>
      </trkpt>
      <trkpt lat="44.8301" lon="5.47074">
        <ele>1668.2</ele>
        <time>2024-05-11T08:07:06.000Z</time>
      </trkpt>
      <trkpt lat="44.8301" lon="5.47076">
        <ele>1668.2</ele>
        <time>2024-05-11T08:07:08.000Z</time>
      </trkpt>
      <trkpt lat="44.8301" lon="5.47078">
        <ele>1668.1</ele>
        <time>2024-05-11T08:07:09.000Z</time>
      </trkpt>
      <trkpt lat="44.83009" lon="5.47086">
        <ele>1668</ele>
        <time>2024-05-11T08:07:16.000Z</time>
      </trkpt>
      <trkpt lat="44.83009" lon="5.47092">
        <ele>1667.8</ele>
        <time>2024-05-11T08:07:20.000Z</time>
      </trkpt>
      <trkpt lat="44.83009" lon="5.47094">
        <ele>1667.8</ele>
        <time>2024-05-11T08:07:23.000Z</time>
      </trkpt>
      <trkpt lat="44.83009" lon="5.47096">
        <ele>1667.7</ele>
        <time>2024-05-11T08:07:25.000Z</time>
      </trkpt>
      <trkpt lat="44.8301" lon="5.47103">
        <ele>1667.5</ele>
        <time>2024-05-11T08:07:31.000Z</time>
      </trkpt>
      <trkpt lat="44.83011" lon="5.47111">
        <ele>1667.2</ele>
        <time>2024-05-11T08:07:37.000Z</time>
      </trkpt>
      <trkpt lat="44.83012" lon="5.47114">
        <ele>1667.1</ele>
        <time>2024-05-11T08:07:39.000Z</time>
      </trkpt>
      <trkpt lat="44.83012" lon="5.47116">
        <ele>1667</ele>
        <time>2024-05-11T08:07:40.000Z</time>
      </trkpt>
      <trkpt lat="44.83013" lon="5.47119">
        <ele>1666.9</ele>
        <time>2024-05-11T08:07:42.000Z</time>
      </trkpt>
      <trkpt lat="44.83014" lon="5.47124">
        <ele>1666.8</ele>
        <time>2024-05-11T08:07:45.000Z</time>
      </trkpt>
      <trkpt lat="44.83015" lon="5.47126">
        <ele>1666.7</ele>
        <time>2024-05-11T08:07:48.000Z</time>
      </trkpt>
      <trkpt lat="44.83015" lon="5.47127">
        <ele>1666.6</ele>
        <time>2024-05-11T08:07:49.000Z</time>
      </trkpt>
      <trkpt lat="44.83017" lon="5.47136">
        <ele>1666.4</ele>
        <time>2024-05-11T08:07:56.000Z</time>
      </trkpt>
      <trkpt lat="44.83015" lon="5.47144">
        <ele>1666.3</ele>
        <time>2024-05-11T08:08:02.000Z</time>
      </trkpt>
      <trkpt lat="44.83015" lon="5.47145">
        <ele>1666.2</ele>
        <time>2024-05-11T08:08:03.000Z</time>
      </trkpt>
      <trkpt lat="44.83016" lon="5.47146">
        <ele>1666.2</ele>
        <time>2024-05-11T08:08:04.000Z</time>
      </trkpt>
      <trkpt lat="44.83016" lon="5.47145">
        <ele>1666.2</ele>
        <time>2024-05-11T08:08:07.000Z</time>
      </trkpt>
      <trkpt lat="44.83016" lon="5.47148">
        <ele>1666.1</ele>
        <time>2024-05-11T08:08:12.000Z</time>
      </trkpt>
      <trkpt lat="44.83016" lon="5.47152">
        <ele>1665.9</ele>
        <time>2024-05-11T08:08:14.000Z</time>
      </trkpt>
      <trkpt lat="44.83016" lon="5.47156">
        <ele>1665.8</ele>
        <time>2024-05-11T08:08:16.000Z</time>
      </trkpt>
      <trkpt lat="44.83014" lon="5.47164">
        <ele>1665.6</ele>
        <time>2024-05-11T08:08:21.000Z</time>
      </trkpt>
      <trkpt lat="44.83014" lon="5.47165">
        <ele>1665.6</ele>
        <time>2024-05-11T08:08:22.000Z</time>
      </trkpt>
      <trkpt lat="44.83012" lon="5.47169">
        <ele>1665.5</ele>
        <time>2024-05-11T08:08:25.000Z</time>
      </trkpt>
      <trkpt lat="44.83011" lon="5.47177">
        <ele>1665.4</ele>
        <time>2024-05-11T08:08:32.000Z</time>
      </trkpt>
      <trkpt lat="44.83009" lon="5.47186">
        <ele>1665.2</ele>
        <time>2024-05-11T08:08:39.000Z</time>
      </trkpt>
      <trkpt lat="44.83007" lon="5.4719">
        <ele>1665.1</ele>
        <time>2024-05-11T08:08:43.000Z</time>
      </trkpt>
      <trkpt lat="44.83003" lon="5.472">
        <ele>1664.8</ele>
        <time>2024-05-11T08:08:51.000Z</time>
      </trkpt>
      <trkpt lat="44.83001" lon="5.47203">
        <ele>1664.7</ele>
        <time>2024-05-11T08:08:54.000Z</time>
      </trkpt>
      <trkpt lat="44.82999" lon="5.47207">
        <ele>1664.6</ele>
        <time>2024-05-11T08:08:57.000Z</time>
      </trkpt>
      <trkpt lat="44.82999" lon="5.47208">
        <ele>1664.5</ele>
        <time>2024-05-11T08:08:58.000Z</time>
      </trkpt>
      <trkpt lat="44.82998" lon="5.47212">
        <ele>1664.4</ele>
        <time>2024-05-11T08:09:01.000Z</time>
      </trkpt>
      <trkpt lat="44.82998" lon="5.47213">
        <ele>1664.4</ele>
        <time>2024-05-11T08:09:02.000Z</time>
      </trkpt>
      <trkpt lat="44.82997" lon="5.47215">
        <ele>1664.3</ele>
        <time>2024-05-11T08:09:04.000Z</time>
      </trkpt>
      <trkpt lat="44.82991" lon="5.4723">
        <ele>1663.4</ele>
        <time>2024-05-11T08:09:14.000Z</time>
      </trkpt>
      <trkpt lat="44.82991" lon="5.47231">
        <ele>1663.4</ele>
        <time>2024-05-11T08:09:15.000Z</time>
      </trkpt>
      <trkpt lat="44.82987" lon="5.47241">
        <ele>1662.6</ele>
        <time>2024-05-11T08:09:22.000Z</time>
      </trkpt>
      <trkpt lat="44.82983" lon="5.47247">
        <ele>1662.2</ele>
        <time>2024-05-11T08:09:28.000Z</time>
      </trkpt>
      <trkpt lat="44.82984" lon="5.47248">
        <ele>1662.1</ele>
        <time>2024-05-11T08:09:31.000Z</time>
      </trkpt>
      <trkpt lat="44.82982" lon="5.47251">
        <ele>1661.9</ele>
        <time>2024-05-11T08:09:35.000Z</time>
      </trkpt>
      <trkpt lat="44.82976" lon="5.4726">
        <ele>1661.3</ele>
        <time>2024-05-11T08:09:42.000Z</time>
      </trkpt>
      <trkpt lat="44.82975" lon="5.47263">
        <ele>1661.1</ele>
        <time>2024-05-11T08:09:44.000Z</time>
      </trkpt>
      <trkpt lat="44.82971" lon="5.47272">
        <ele>1660.4</ele>
        <time>2024-05-11T08:09:51.000Z</time>
      </trkpt>
      <trkpt lat="44.82968" lon="5.47277">
        <ele>1660.1</ele>
        <time>2024-05-11T08:09:55.000Z</time>
      </trkpt>
      <trkpt lat="44.82967" lon="5.4728">
        <ele>1659.8</ele>
        <time>2024-05-11T08:09:59.000Z</time>
      </trkpt>
      <trkpt lat="44.82964" lon="5.47287">
        <ele>1659.4</ele>
        <time>2024-05-11T08:10:03.000Z</time>
      </trkpt>
      <trkpt lat="44.82963" lon="5.47289">
        <ele>1659.2</ele>
        <time>2024-05-11T08:10:05.000Z</time>
      </trkpt>
      <trkpt lat="44.82963" lon="5.4729">
        <ele>1659.1</ele>
        <time>2024-05-11T08:10:06.000Z</time>
      </trkpt>
      <trkpt lat="44.82962" lon="5.47292">
        <ele>1659</ele>
        <time>2024-05-11T08:10:08.000Z</time>
      </trkpt>
      <trkpt lat="44.82961" lon="5.47296">
        <ele>1658.7</ele>
        <time>2024-05-11T08:10:11.000Z</time>
      </trkpt>
      <trkpt lat="44.8296" lon="5.47309">
        <ele>1657.8</ele>
        <time>2024-05-11T08:10:19.000Z</time>
      </trkpt>
      <trkpt lat="44.8296" lon="5.4731">
        <ele>1657.7</ele>
        <time>2024-05-11T08:10:20.000Z</time>
      </trkpt>
      <trkpt lat="44.82957" lon="5.47325">
        <ele>1656.6</ele>
        <time>2024-05-11T08:10:29.000Z</time>
      </trkpt>
      <trkpt lat="44.82958" lon="5.47331">
        <ele>1656.2</ele>
        <time>2024-05-11T08:10:32.000Z</time>
      </trkpt>
      <trkpt lat="44.82958" lon="5.47337">
        <ele>1655.7</ele>
        <time>2024-05-11T08:10:36.000Z</time>
      </trkpt>
      <trkpt lat="44.82957" lon="5.47341">
        <ele>1655.5</ele>
        <time>2024-05-11T08:10:39.000Z</time>
      </trkpt>
      <trkpt lat="44.8296" lon="5.47356">
        <ele>1654.4</ele>
        <time>2024-05-11T08:10:48.000Z</time>
      </trkpt>
      <trkpt lat="44.82961" lon="5.47359">
        <ele>1654.2</ele>
        <time>2024-05-11T08:10:50.000Z</time>
      </trkpt>
      <trkpt lat="44.82962" lon="5.4736">
        <ele>1654.1</ele>
        <time>2024-05-11T08:10:51.000Z</time>
      </trkpt>
      <trkpt lat="44.82964" lon="5.47364">
        <ele>1653.8</ele>
        <time>2024-05-11T08:10:54.000Z</time>
      </trkpt>
      <trkpt lat="44.82964" lon="5.47366">
        <ele>1653.7</ele>
        <time>2024-05-11T08:10:55.000Z</time>
      </trkpt>
      <trkpt lat="44.82964" lon="5.47372">
        <ele>1653.2</ele>
        <time>2024-05-11T08:10:58.000Z</time>
      </trkpt>
      <trkpt lat="44.82967" lon="5.47383">
        <ele>1652.5</ele>
        <time>2024-05-11T08:11:04.000Z</time>
      </trkpt>
      <trkpt lat="44.82969" lon="5.47397">
        <ele>1651.4</ele>
        <time>2024-05-11T08:11:12.000Z</time>
      </trkpt>
      <trkpt lat="44.82968" lon="5.47403">
        <ele>1650.9</ele>
        <time>2024-05-11T08:11:15.000Z</time>
      </trkpt>
      <trkpt lat="44.82968" lon="5.47408">
        <ele>1650.6</ele>
        <time>2024-05-11T08:11:18.000Z</time>
      </trkpt>
      <trkpt lat="44.82968" lon="5.47409">
        <ele>1650.5</ele>
        <time>2024-05-11T08:11:19.000Z</time>
      </trkpt>
      <trkpt lat="44.82968" lon="5.47411">
        <ele>1650.3</ele>
        <time>2024-05-11T08:11:21.000Z</time>
      </trkpt>
      <trkpt lat="44.82969" lon="5.47414">
        <ele>1650.1</ele>
        <time>2024-05-11T08:11:23.000Z</time>
      </trkpt>
      <trkpt lat="44.8297" lon="5.47415">
        <ele>1650.1</ele>
        <time>2024-05-11T08:11:24.000Z</time>
      </trkpt>
      <trkpt lat="44.82969" lon="5.47414">
        <ele>1650.1</ele>
        <time>2024-05-11T08:11:28.000Z</time>
      </trkpt>
      <trkpt lat="44.82969" lon="5.47413">
        <ele>1650.1</ele>
        <time>2024-05-11T08:11:29.000Z</time>
      </trkpt>
      <trkpt lat="44.82969" lon="5.47417">
        <ele>1649.8</ele>
        <time>2024-05-11T08:11:36.000Z</time>
      </trkpt>
      <trkpt lat="44.82972" lon="5.47422">
        <ele>1649.4</ele>
        <time>2024-05-11T08:11:42.000Z</time>
      </trkpt>
      <trkpt lat="44.82972" lon="5.47424">
        <ele>1649.2</ele>
        <time>2024-05-11T08:11:43.000Z</time>
      </trkpt>
      <trkpt lat="44.82973" lon="5.47427">
        <ele>1648.9</ele>
        <time>2024-05-11T08:11:45.000Z</time>
      </trkpt>
      <trkpt lat="44.82972" lon="5.47429">
        <ele>1648.7</ele>
        <time>2024-05-11T08:11:47.000Z</time>
      </trkpt>
      <trkpt lat="44.82973" lon="5.47432">
        <ele>1648.4</ele>
        <time>2024-05-11T08:11:49.000Z</time>
      </trkpt>
      <trkpt lat="44.82974" lon="5.47439">
        <ele>1647.7</ele>
        <time>2024-05-11T08:11:55.000Z</time>
      </trkpt>
      <trkpt lat="44.82974" lon="5.47451">
        <ele>1646.4</ele>
        <time>2024-05-11T08:12:03.000Z</time>
      </trkpt>
      <trkpt lat="44.82975" lon="5.47457">
        <ele>1645.7</ele>
        <time>2024-05-11T08:12:09.000Z</time>
      </trkpt>
      <trkpt lat="44.82974" lon="5.47464">
        <ele>1644.9</ele>
        <time>2024-05-11T08:12:15.000Z</time>
      </trkpt>
      <trkpt lat="44.82973" lon="5.47466">
        <ele>1644.7</ele>
        <time>2024-05-11T08:12:17.000Z</time>
      </trkpt>
      <trkpt lat="44.82973" lon="5.47474">
        <ele>1643.9</ele>
        <time>2024-05-11T08:12:22.000Z</time>
      </trkpt>
      <trkpt lat="44.82972" lon="5.47475">
        <ele>1643.8</ele>
        <time>2024-05-11T08:12:23.000Z</time>
      </trkpt>
      <trkpt lat="44.82972" lon="5.47477">
        <ele>1643.7</ele>
        <time>2024-05-11T08:12:24.000Z</time>
      </trkpt>
      <trkpt lat="44.82976" lon="5.47484">
        <ele>1643.3</ele>
        <time>2024-05-11T08:12:28.000Z</time>
      </trkpt>
      <trkpt lat="44.82977" lon="5.47486">
        <ele>1643.1</ele>
        <time>2024-05-11T08:12:29.000Z</time>
      </trkpt>
      <trkpt lat="44.82977" lon="5.47489">
        <ele>1642.9</ele>
        <time>2024-05-11T08:12:31.000Z</time>
      </trkpt>
      <trkpt lat="44.82977" lon="5.47492">
        <ele>1642.6</ele>
        <time>2024-05-11T08:12:33.000Z</time>
      </trkpt>
      <trkpt lat="44.82975" lon="5.47493">
        <ele>1642.5</ele>
        <time>2024-05-11T08:12:34.000Z</time>
      </trkpt>
      <trkpt lat="44.82974" lon="5.47498">
        <ele>1642.2</ele>
        <time>2024-05-11T08:12:38.000Z</time>
      </trkpt>
      <trkpt lat="44.82974" lon="5.47501">
        <ele>1641.8</ele>
        <time>2024-05-11T08:12:41.000Z</time>
      </trkpt>
      <trkpt lat="44.82974" lon="5.47508">
        <ele>1641.2</ele>
        <time>2024-05-11T08:12:46.000Z</time>
      </trkpt>
      <trkpt lat="44.82975" lon="5.47515">
        <ele>1640.4</ele>
        <time>2024-05-11T08:12:51.000Z</time>
      </trkpt>
      <trkpt lat="44.82974" lon="5.47516">
        <ele>1640.3</ele>
        <time>2024-05-11T08:12:52.000Z</time>
      </trkpt>
      <trkpt lat="44.82974" lon="5.47516">
        <ele>1640.3</ele>
        <time>2024-05-11T08:12:53.000Z</time>
      </trkpt>
      <trkpt lat="44.82974" lon="5.47517">
        <ele>1640.2</ele>
        <time>2024-05-11T08:12:54.000Z</time>
      </trkpt>
      <trkpt lat="44.82972" lon="5.47518">
        <ele>1640.1</ele>
        <time>2024-05-11T08:12:56.000Z</time>
      </trkpt>
      <trkpt lat="44.82972" lon="5.47519">
        <ele>1640</ele>
        <time>2024-05-11T08:13:00.000Z</time>
      </trkpt>
      <trkpt lat="44.82972" lon="5.47521">
        <ele>1639.8</ele>
        <time>2024-05-11T08:13:05.000Z</time>
      </trkpt>
      <trkpt lat="44.82973" lon="5.47522">
        <ele>1639.7</ele>
        <time>2024-05-11T08:13:11.000Z</time>
      </trkpt>
      <trkpt lat="44.82973" lon="5.47522">
        <ele>1639.6</ele>
        <time>2024-05-11T08:13:12.000Z</time>
      </trkpt>
      <trkpt lat="44.82972" lon="5.47523">
        <ele>1639.6</ele>
        <time>2024-05-11T08:13:20.000Z</time>
      </trkpt>
      <trkpt lat="44.82972" lon="5.47522">
        <ele>1639.6</ele>
        <time>2024-05-11T08:13:26.000Z</time>
      </trkpt>
      <trkpt lat="44.8297" lon="5.47522">
        <ele>1639.5</ele>
        <time>2024-05-11T08:14:32.000Z</time>
      </trkpt>
      <trkpt lat="44.82969" lon="5.47528">
        <ele>1638.8</ele>
        <time>2024-05-11T08:15:05.000Z</time>
      </trkpt>
      <trkpt lat="44.82968" lon="5.47531">
        <ele>1638.4</ele>
        <time>2024-05-11T08:15:09.000Z</time>
      </trkpt>
      <trkpt lat="44.82968" lon="5.47531">
        <ele>1638.4</ele>
        <time>2024-05-11T08:15:10.000Z</time>
      </trkpt>
      <trkpt lat="44.82968" lon="5.47534">
        <ele>1637.9</ele>
        <time>2024-05-11T08:15:15.000Z</time>
      </trkpt>
      <trkpt lat="44.82968" lon="5.47539">
        <ele>1637.3</ele>
        <time>2024-05-11T08:15:19.000Z</time>
      </trkpt>
      <trkpt lat="44.82967" lon="5.47542">
        <ele>1636.9</ele>
        <time>2024-05-11T08:15:22.000Z</time>
      </trkpt>
      <trkpt lat="44.82965" lon="5.47546">
        <ele>1636.3</ele>
        <time>2024-05-11T08:15:27.000Z</time>
      </trkpt>
      <trkpt lat="44.82965" lon="5.47547">
        <ele>1636.2</ele>
        <time>2024-05-11T08:15:28.000Z</time>
      </trkpt>
      <trkpt lat="44.82965" lon="5.47553">
        <ele>1635.4</ele>
        <time>2024-05-11T08:15:34.000Z</time>
      </trkpt>
      <trkpt lat="44.82965" lon="5.47554">
        <ele>1635.2</ele>
        <time>2024-05-11T08:15:36.000Z</time>
      </trkpt>
      <trkpt lat="44.82964" lon="5.47559">
        <ele>1634.6</ele>
        <time>2024-05-11T08:15:40.000Z</time>
      </trkpt>
      <trkpt lat="44.82962" lon="5.47561">
        <ele>1634.4</ele>
        <time>2024-05-11T08:15:44.000Z</time>
      </trkpt>
      <trkpt lat="44.82962" lon="5.47562">
        <ele>1634.3</ele>
        <time>2024-05-11T08:15:45.000Z</time>
      </trkpt>
      <trkpt lat="44.82961" lon="5.47565">
        <ele>1634</ele>
        <time>2024-05-11T08:15:49.000Z</time>
      </trkpt>
      <trkpt lat="44.82959" lon="5.47564">
        <ele>1634</ele>
        <time>2024-05-11T08:15:54.000Z</time>
      </trkpt>
      <trkpt lat="44.82959" lon="5.47567">
        <ele>1633.7</ele>
        <time>2024-05-11T08:15:57.000Z</time>
      </trkpt>
      <trkpt lat="44.82958" lon="5.47572">
        <ele>1633.2</ele>
        <time>2024-05-11T08:16:02.000Z</time>
      </trkpt>
      <trkpt lat="44.82956" lon="5.47575">
        <ele>1632.9</ele>
        <time>2024-05-11T08:16:06.000Z</time>
      </trkpt>
      <trkpt lat="44.82956" lon="5.47577">
        <ele>1632.7</ele>
        <time>2024-05-11T08:16:08.000Z</time>
      </trkpt>
      <trkpt lat="44.82954" lon="5.47581">
        <ele>1632.3</ele>
        <time>2024-05-11T08:16:11.000Z</time>
      </trkpt>
      <trkpt lat="44.8295" lon="5.47585">
        <ele>1631.7</ele>
        <time>2024-05-11T08:16:15.000Z</time>
      </trkpt>
      <trkpt lat="44.8295" lon="5.47587">
        <ele>1631.5</ele>
        <time>2024-05-11T08:16:16.000Z</time>
      </trkpt>
      <trkpt lat="44.8295" lon="5.47592">
        <ele>1630.7</ele>
        <time>2024-05-11T08:16:21.000Z</time>
      </trkpt>
      <trkpt lat="44.8295" lon="5.47595">
        <ele>1630.3</ele>
        <time>2024-05-11T08:16:23.000Z</time>
      </trkpt>
      <trkpt lat="44.82949" lon="5.476">
        <ele>1629.6</ele>
        <time>2024-05-11T08:16:26.000Z</time>
      </trkpt>
      <trkpt lat="44.82948" lon="5.47604">
        <ele>1629</ele>
        <time>2024-05-11T08:16:29.000Z</time>
      </trkpt>
      <trkpt lat="44.82949" lon="5.47608">
        <ele>1628.5</ele>
        <time>2024-05-11T08:16:31.000Z</time>
      </trkpt>
      <trkpt lat="44.82949" lon="5.4761">
        <ele>1628.1</ele>
        <time>2024-05-11T08:16:33.000Z</time>
      </trkpt>
      <trkpt lat="44.82949" lon="5.47612">
        <ele>1627.9</ele>
        <time>2024-05-11T08:16:34.000Z</time>
      </trkpt>
      <trkpt lat="44.82949" lon="5.47614">
        <ele>1627.8</ele>
        <time>2024-05-11T08:16:35.000Z</time>
      </trkpt>
      <trkpt lat="44.82949" lon="5.47618">
        <ele>1627.5</ele>
        <time>2024-05-11T08:16:39.000Z</time>
      </trkpt>
      <trkpt lat="44.82949" lon="5.4762">
        <ele>1627.3</ele>
        <time>2024-05-11T08:16:41.000Z</time>
      </trkpt>
      <trkpt lat="44.82949" lon="5.47628">
        <ele>1626.7</ele>
        <time>2024-05-11T08:16:46.000Z</time>
      </trkpt>
      <trkpt lat="44.82946" lon="5.47636">
        <ele>1626.2</ele>
        <time>2024-05-11T08:16:53.000Z</time>
      </trkpt>
      <trkpt lat="44.82947" lon="5.47639">
        <ele>1625.9</ele>
        <time>2024-05-11T08:16:55.000Z</time>
      </trkpt>
      <trkpt lat="44.82946" lon="5.47641">
        <ele>1625.8</ele>
        <time>2024-05-11T08:16:56.000Z</time>
      </trkpt>
      <trkpt lat="44.82946" lon="5.4765">
        <ele>1625.2</ele>
        <time>2024-05-11T08:17:04.000Z</time>
      </trkpt>
      <trkpt lat="44.82946" lon="5.47654">
        <ele>1624.9</ele>
        <time>2024-05-11T08:17:07.000Z</time>
      </trkpt>
      <trkpt lat="44.82946" lon="5.47658">
        <ele>1624.6</ele>
        <time>2024-05-11T08:17:11.000Z</time>
      </trkpt>
      <trkpt lat="44.82944" lon="5.4767">
        <ele>1624</ele>
        <time>2024-05-11T08:17:19.000Z</time>
      </trkpt>
      <trkpt lat="44.82941" lon="5.47679">
        <ele>1623.9</ele>
        <time>2024-05-11T08:17:27.000Z</time>
      </trkpt>
      <trkpt lat="44.82939" lon="5.47685">
        <ele>1623.9</ele>
        <time>2024-05-11T08:17:32.000Z</time>
      </trkpt>
      <trkpt lat="44.82938" lon="5.47697">
        <ele>1623.7</ele>
        <time>2024-05-11T08:17:41.000Z</time>
      </trkpt>
      <trkpt lat="44.82934" lon="5.47706">
        <ele>1623.2</ele>
        <time>2024-05-11T08:17:49.000Z</time>
      </trkpt>
      <trkpt lat="44.82933" lon="5.47712">
        <ele>1623</ele>
        <time>2024-05-11T08:17:56.000Z</time>
      </trkpt>
      <trkpt lat="44.82932" lon="5.47713">
        <ele>1622.9</ele>
        <time>2024-05-11T08:17:58.000Z</time>
      </trkpt>
      <trkpt lat="44.82927" lon="5.4772">
        <ele>1622.4</ele>
        <time>2024-05-11T08:18:05.000Z</time>
      </trkpt>
      <trkpt lat="44.82925" lon="5.47726">
        <ele>1622.2</ele>
        <time>2024-05-11T08:18:09.000Z</time>
      </trkpt>
      <trkpt lat="44.82925" lon="5.47728">
        <ele>1622.2</ele>
        <time>2024-05-11T08:18:11.000Z</time>
      </trkpt>
      <trkpt lat="44.82923" lon="5.47735">
        <ele>1622</ele>
        <time>2024-05-11T08:18:16.000Z</time>
      </trkpt>
      <trkpt lat="44.82923" lon="5.47737">
        <ele>1622</ele>
        <time>2024-05-11T08:18:18.000Z</time>
      </trkpt>
      <trkpt lat="44.82922" lon="5.47738">
        <ele>1622</ele>
        <time>2024-05-11T08:18:19.000Z</time>
      </trkpt>
      <trkpt lat="44.82922" lon="5.4775">
        <ele>1621.8</ele>
        <time>2024-05-11T08:18:26.000Z</time>
      </trkpt>
      <trkpt lat="44.82923" lon="5.47764">
        <ele>1621.4</ele>
        <time>2024-05-11T08:18:35.000Z</time>
      </trkpt>
      <trkpt lat="44.82923" lon="5.47766">
        <ele>1621.3</ele>
        <time>2024-05-11T08:18:38.000Z</time>
      </trkpt>
      <trkpt lat="44.82923" lon="5.47768">
        <ele>1621.3</ele>
        <time>2024-05-11T08:18:42.000Z</time>
      </trkpt>
      <trkpt lat="44.82922" lon="5.47779">
        <ele>1621</ele>
        <time>2024-05-11T08:18:49.000Z</time>
      </trkpt>
      <trkpt lat="44.82921" lon="5.47789">
        <ele>1620.6</ele>
        <time>2024-05-11T08:18:57.000Z</time>
      </trkpt>
      <trkpt lat="44.82922" lon="5.47795">
        <ele>1620.4</ele>
        <time>2024-05-11T08:19:02.000Z</time>
      </trkpt>
      <trkpt lat="44.82921" lon="5.47797">
        <ele>1620.3</ele>
        <time>2024-05-11T08:19:04.000Z</time>
      </trkpt>
      <trkpt lat="44.8292" lon="5.478">
        <ele>1620.2</ele>
        <time>2024-05-11T08:19:06.000Z</time>
      </trkpt>
      <trkpt lat="44.8292" lon="5.47801">
        <ele>1620.2</ele>
        <time>2024-05-11T08:19:07.000Z</time>
      </trkpt>
      <trkpt lat="44.82919" lon="5.47812">
        <ele>1619.8</ele>
        <time>2024-05-11T08:19:13.000Z</time>
      </trkpt>
      <trkpt lat="44.82919" lon="5.47813">
        <ele>1619.8</ele>
        <time>2024-05-11T08:19:14.000Z</time>
      </trkpt>
      <trkpt lat="44.82918" lon="5.47817">
        <ele>1619.6</ele>
        <time>2024-05-11T08:19:18.000Z</time>
      </trkpt>
      <trkpt lat="44.82917" lon="5.47827">
        <ele>1619.2</ele>
        <time>2024-05-11T08:19:26.000Z</time>
      </trkpt>
      <trkpt lat="44.82917" lon="5.47833">
        <ele>1619</ele>
        <time>2024-05-11T08:19:32.000Z</time>
      </trkpt>
      <trkpt lat="44.82917" lon="5.47839">
        <ele>1619</ele>
        <time>2024-05-11T08:19:38.000Z</time>
      </trkpt>
      <trkpt lat="44.82918" lon="5.47845">
        <ele>1619</ele>
        <time>2024-05-11T08:19:43.000Z</time>
      </trkpt>
      <trkpt lat="44.82919" lon="5.47847">
        <ele>1619</ele>
        <time>2024-05-11T08:19:45.000Z</time>
      </trkpt>
      <trkpt lat="44.82921" lon="5.47855">
        <ele>1618.9</ele>
        <time>2024-05-11T08:19:49.000Z</time>
      </trkpt>
      <trkpt lat="44.8292" lon="5.47864">
        <ele>1618.9</ele>
        <time>2024-05-11T08:19:55.000Z</time>
      </trkpt>
      <trkpt lat="44.82919" lon="5.47866">
        <ele>1618.9</ele>
        <time>2024-05-11T08:19:56.000Z</time>
      </trkpt>
      <trkpt lat="44.82918" lon="5.47867">
        <ele>1619</ele>
        <time>2024-05-11T08:19:57.000Z</time>
      </trkpt>
      <trkpt lat="44.82917" lon="5.4787">
        <ele>1619</ele>
        <time>2024-05-11T08:19:59.000Z</time>
      </trkpt>
      <trkpt lat="44.82916" lon="5.47881">
        <ele>1619</ele>
        <time>2024-05-11T08:20:06.000Z</time>
      </trkpt>
      <trkpt lat="44.82914" lon="5.4789">
        <ele>1619.1</ele>
        <time>2024-05-11T08:20:13.000Z</time>
      </trkpt>
      <trkpt lat="44.82917" lon="5.47894">
        <ele>1618.8</ele>
        <time>2024-05-11T08:20:17.000Z</time>
      </trkpt>
      <trkpt lat="44.82916" lon="5.47901">
        <ele>1618.6</ele>
        <time>2024-05-11T08:20:22.000Z</time>
      </trkpt>
      <trkpt lat="44.82917" lon="5.47906">
        <ele>1618.4</ele>
        <time>2024-05-11T08:20:28.000Z</time>
      </trkpt>
      <trkpt lat="44.82918" lon="5.47909">
        <ele>1618.2</ele>
        <time>2024-05-11T08:20:30.000Z</time>
      </trkpt>
      <trkpt lat="44.82919" lon="5.47911">
        <ele>1618.1</ele>
        <time>2024-05-11T08:20:33.000Z</time>
      </trkpt>
      <trkpt lat="44.8292" lon="5.47916">
        <ele>1617.9</ele>
        <time>2024-05-11T08:20:39.000Z</time>
      </trkpt>
      <trkpt lat="44.82919" lon="5.47921">
        <ele>1617.8</ele>
        <time>2024-05-11T08:20:44.000Z</time>
      </trkpt>
      <trkpt lat="44.82918" lon="5.47926">
        <ele>1617.6</ele>
        <time>2024-05-11T08:20:50.000Z</time>
      </trkpt>
      <trkpt lat="44.82921" lon="5.47931">
        <ele>1617.4</ele>
        <time>2024-05-11T08:20:56.000Z</time>
      </trkpt>
      <trkpt lat="44.82923" lon="5.47938">
        <ele>1617.2</ele>
        <time>2024-05-11T08:21:02.000Z</time>
      </trkpt>
      <trkpt lat="44.82923" lon="5.47945">
        <ele>1617</ele>
        <time>2024-05-11T08:21:08.000Z</time>
      </trkpt>
      <trkpt lat="44.82926" lon="5.47952">
        <ele>1616.7</ele>
        <time>2024-05-11T08:21:15.000Z</time>
      </trkpt>
      <trkpt lat="44.8293" lon="5.47958">
        <ele>1616.5</ele>
        <time>2024-05-11T08:21:20.000Z</time>
      </trkpt>
      <trkpt lat="44.82931" lon="5.47964">
        <ele>1616.3</ele>
        <time>2024-05-11T08:21:24.000Z</time>
      </trkpt>
      <trkpt lat="44.82931" lon="5.47965">
        <ele>1616.2</ele>
        <time>2024-05-11T08:21:25.000Z</time>
      </trkpt>
      <trkpt lat="44.82931" lon="5.47966">
        <ele>1616.2</ele>
        <time>2024-05-11T08:21:26.000Z</time>
      </trkpt>
      <trkpt lat="44.8293" lon="5.47972">
        <ele>1616</ele>
        <time>2024-05-11T08:21:30.000Z</time>
      </trkpt>
      <trkpt lat="44.82928" lon="5.47975">
        <ele>1615.9</ele>
        <time>2024-05-11T08:21:33.000Z</time>
      </trkpt>
      <trkpt lat="44.82928" lon="5.47978">
        <ele>1615.9</ele>
        <time>2024-05-11T08:21:35.000Z</time>
      </trkpt>
      <trkpt lat="44.82927" lon="5.47982">
        <ele>1615.8</ele>
        <time>2024-05-11T08:21:37.000Z</time>
      </trkpt>
      <trkpt lat="44.82927" lon="5.47989">
        <ele>1615.6</ele>
        <time>2024-05-11T08:21:42.000Z</time>
      </trkpt>
      <trkpt lat="44.82925" lon="5.47992">
        <ele>1615.5</ele>
        <time>2024-05-11T08:21:45.000Z</time>
      </trkpt>
      <trkpt lat="44.82924" lon="5.47994">
        <ele>1615.4</ele>
        <time>2024-05-11T08:21:47.000Z</time>
      </trkpt>
      <trkpt lat="44.8292" lon="5.48004">
        <ele>1615</ele>
        <time>2024-05-11T08:21:53.000Z</time>
      </trkpt>
      <trkpt lat="44.82919" lon="5.48005">
        <ele>1614.9</ele>
        <time>2024-05-11T08:21:54.000Z</time>
      </trkpt>
      <trkpt lat="44.82918" lon="5.48006">
        <ele>1614.8</ele>
        <time>2024-05-11T08:21:55.000Z</time>
      </trkpt>
      <trkpt lat="44.82915" lon="5.48014">
        <ele>1614.6</ele>
        <time>2024-05-11T08:22:01.000Z</time>
      </trkpt>
      <trkpt lat="44.82913" lon="5.4802">
        <ele>1614.4</ele>
        <time>2024-05-11T08:22:05.000Z</time>
      </trkpt>
      <trkpt lat="44.82911" lon="5.48023">
        <ele>1614.4</ele>
        <time>2024-05-11T08:22:08.000Z</time>
      </trkpt>
      <trkpt lat="44.82909" lon="5.48026">
        <ele>1614.4</ele>
        <time>2024-05-11T08:22:11.000Z</time>
      </trkpt>
      <trkpt lat="44.82907" lon="5.48029">
        <ele>1614.3</ele>
        <time>2024-05-11T08:22:14.000Z</time>
      </trkpt>
      <trkpt lat="44.82907" lon="5.4803">
        <ele>1614.3</ele>
        <time>2024-05-11T08:22:15.000Z</time>
      </trkpt>
      <trkpt lat="44.82902" lon="5.48036">
        <ele>1614.4</ele>
        <time>2024-05-11T08:22:21.000Z</time>
      </trkpt>
      <trkpt lat="44.82895" lon="5.48045">
        <ele>1614.3</ele>
        <time>2024-05-11T08:22:29.000Z</time>
      </trkpt>
      <trkpt lat="44.82892" lon="5.48048">
        <ele>1614.2</ele>
        <time>2024-05-11T08:22:32.000Z</time>
      </trkpt>
      <trkpt lat="44.8289" lon="5.48052">
        <ele>1614.1</ele>
        <time>2024-05-11T08:22:35.000Z</time>
      </trkpt>
      <trkpt lat="44.82888" lon="5.48053">
        <ele>1614.2</ele>
        <time>2024-05-11T08:22:37.000Z</time>
      </trkpt>
      <trkpt lat="44.82882" lon="5.48059">
        <ele>1614.3</ele>
        <time>2024-05-11T08:22:43.000Z</time>
      </trkpt>
      <trkpt lat="44.82881" lon="5.48059">
        <ele>1614.3</ele>
        <time>2024-05-11T08:22:44.000Z</time>
      </trkpt>
      <trkpt lat="44.8288" lon="5.48061">
        <ele>1614.3</ele>
        <time>2024-05-11T08:22:46.000Z</time>
      </trkpt>
      <trkpt lat="44.82877" lon="5.48064">
        <ele>1614.2</ele>
        <time>2024-05-11T08:22:49.000Z</time>
      </trkpt>
      <trkpt lat="44.8287" lon="5.48069">
        <ele>1614.4</ele>
        <time>2024-05-11T08:22:56.000Z</time>
      </trkpt>
      <trkpt lat="44.82866" lon="5.48071">
        <ele>1614.5</ele>
        <time>2024-05-11T08:22:59.000Z</time>
      </trkpt>
      <trkpt lat="44.82864" lon="5.48072">
        <ele>1614.6</ele>
        <time>2024-05-11T08:23:02.000Z</time>
      </trkpt>
      <trkpt lat="44.8286" lon="5.48073">
        <ele>1614.9</ele>
        <time>2024-05-11T08:23:07.000Z</time>
      </trkpt>
      <trkpt lat="44.82857" lon="5.48074">
        <ele>1614.9</ele>
        <time>2024-05-11T08:23:11.000Z</time>
      </trkpt>
      <trkpt lat="44.82853" lon="5.48076">
        <ele>1615</ele>
        <time>2024-05-11T08:23:17.000Z</time>
      </trkpt>
      <trkpt lat="44.82844" lon="5.4808">
        <ele>1615.4</ele>
        <time>2024-05-11T08:23:23.000Z</time>
      </trkpt>
      <trkpt lat="44.82842" lon="5.4808">
        <ele>1615.5</ele>
        <time>2024-05-11T08:23:27.000Z</time>
      </trkpt>
      <trkpt lat="44.82842" lon="5.48081">
        <ele>1615.5</ele>
        <time>2024-05-11T08:23:28.000Z</time>
      </trkpt>
      <trkpt lat="44.8284" lon="5.48083">
        <ele>1615.5</ele>
        <time>2024-05-11T08:23:30.000Z</time>
      </trkpt>
      <trkpt lat="44.82835" lon="5.48088">
        <ele>1615.5</ele>
        <time>2024-05-11T08:23:36.000Z</time>
      </trkpt>
      <trkpt lat="44.82833" lon="5.48089">
        <ele>1615.6</ele>
        <time>2024-05-11T08:23:39.000Z</time>
      </trkpt>
      <trkpt lat="44.8283" lon="5.48089">
        <ele>1615.6</ele>
        <time>2024-05-11T08:23:41.000Z</time>
      </trkpt>
      <trkpt lat="44.82829" lon="5.48091">
        <ele>1615.5</ele>
        <time>2024-05-11T08:23:43.000Z</time>
      </trkpt>
      <trkpt lat="44.82821" lon="5.48097">
        <ele>1615.2</ele>
        <time>2024-05-11T08:23:51.000Z</time>
      </trkpt>
      <trkpt lat="44.8282" lon="5.48098">
        <ele>1615.2</ele>
        <time>2024-05-11T08:23:52.000Z</time>
      </trkpt>
      <trkpt lat="44.82818" lon="5.48101">
        <ele>1615.1</ele>
        <time>2024-05-11T08:23:55.000Z</time>
      </trkpt>
      <trkpt lat="44.8281" lon="5.48107">
        <ele>1615</ele>
        <time>2024-05-11T08:24:04.000Z</time>
      </trkpt>
      <trkpt lat="44.82809" lon="5.48107">
        <ele>1615</ele>
        <time>2024-05-11T08:24:06.000Z</time>
      </trkpt>
      <trkpt lat="44.82809" lon="5.48107">
        <ele>1615</ele>
        <time>2024-05-11T08:24:09.000Z</time>
      </trkpt>
      <trkpt lat="44.82808" lon="5.48106">
        <ele>1615.1</ele>
        <time>2024-05-11T08:24:16.000Z</time>
      </trkpt>
      <trkpt lat="44.82806" lon="5.48105">
        <ele>1615.2</ele>
        <time>2024-05-11T08:24:20.000Z</time>
      </trkpt>
      <trkpt lat="44.82804" lon="5.48103">
        <ele>1615.2</ele>
        <time>2024-05-11T08:24:22.000Z</time>
      </trkpt>
      <trkpt lat="44.828" lon="5.48102">
        <ele>1614.8</ele>
        <time>2024-05-11T08:24:28.000Z</time>
      </trkpt>
      <trkpt lat="44.82802" lon="5.48109">
        <ele>1614.7</ele>
        <time>2024-05-11T08:24:34.000Z</time>
      </trkpt>
      <trkpt lat="44.82802" lon="5.4811">
        <ele>1614.6</ele>
        <time>2024-05-11T08:24:35.000Z</time>
      </trkpt>
      <trkpt lat="44.82798" lon="5.48114">
        <ele>1614.2</ele>
        <time>2024-05-11T08:24:42.000Z</time>
      </trkpt>
      <trkpt lat="44.82794" lon="5.48112">
        <ele>1613.7</ele>
        <time>2024-05-11T08:24:48.000Z</time>
      </trkpt>
      <trkpt lat="44.82787" lon="5.48112">
        <ele>1613</ele>
        <time>2024-05-11T08:24:56.000Z</time>
      </trkpt>
      <trkpt lat="44.82784" lon="5.48113">
        <ele>1612.7</ele>
        <time>2024-05-11T08:25:00.000Z</time>
      </trkpt>
      <trkpt lat="44.82783" lon="5.48113">
        <ele>1612.6</ele>
        <time>2024-05-11T08:25:02.000Z</time>
      </trkpt>
      <trkpt lat="44.82781" lon="5.48114">
        <ele>1612.3</ele>
        <time>2024-05-11T08:25:07.000Z</time>
      </trkpt>
      <trkpt lat="44.8278" lon="5.48115">
        <ele>1612.2</ele>
        <time>2024-05-11T08:25:08.000Z</time>
      </trkpt>
      <trkpt lat="44.82777" lon="5.48121">
        <ele>1611.7</ele>
        <time>2024-05-11T08:25:15.000Z</time>
      </trkpt>
      <trkpt lat="44.82776" lon="5.48122">
        <ele>1611.6</ele>
        <time>2024-05-11T08:25:16.000Z</time>
      </trkpt>
      <trkpt lat="44.82774" lon="5.4813">
        <ele>1610.7</ele>
        <time>2024-05-11T08:25:23.000Z</time>
      </trkpt>
      <trkpt lat="44.82773" lon="5.4813">
        <ele>1610.6</ele>
        <time>2024-05-11T08:25:24.000Z</time>
      </trkpt>
      <trkpt lat="44.82772" lon="5.48134">
        <ele>1610.1</ele>
        <time>2024-05-11T08:25:27.000Z</time>
      </trkpt>
      <trkpt lat="44.82771" lon="5.48135">
        <ele>1609.9</ele>
        <time>2024-05-11T08:25:28.000Z</time>
      </trkpt>
      <trkpt lat="44.8277" lon="5.48136">
        <ele>1609.6</ele>
        <time>2024-05-11T08:25:30.000Z</time>
      </trkpt>
      <trkpt lat="44.82768" lon="5.48139">
        <ele>1608.8</ele>
        <time>2024-05-11T08:25:33.000Z</time>
      </trkpt>
      <trkpt lat="44.82767" lon="5.4814">
        <ele>1608.7</ele>
        <time>2024-05-11T08:25:34.000Z</time>
      </trkpt>
      <trkpt lat="44.82764" lon="5.48142">
        <ele>1607.7</ele>
        <time>2024-05-11T08:25:40.000Z</time>
      </trkpt>
      <trkpt lat="44.82764" lon="5.48144">
        <ele>1607.7</ele>
        <time>2024-05-11T08:25:41.000Z</time>
      </trkpt>
      <trkpt lat="44.82764" lon="5.48146">
        <ele>1607.6</ele>
        <time>2024-05-11T08:25:43.000Z</time>
      </trkpt>
      <trkpt lat="44.82763" lon="5.48146">
        <ele>1607.4</ele>
        <time>2024-05-11T08:25:45.000Z</time>
      </trkpt>
      <trkpt lat="44.82762" lon="5.48152">
        <ele>1606.9</ele>
        <time>2024-05-11T08:25:51.000Z</time>
      </trkpt>
      <trkpt lat="44.82759" lon="5.48156">
        <ele>1606.1</ele>
        <time>2024-05-11T08:25:57.000Z</time>
      </trkpt>
      <trkpt lat="44.82757" lon="5.48159">
        <ele>1605.4</ele>
        <time>2024-05-11T08:26:01.000Z</time>
      </trkpt>
      <trkpt lat="44.82756" lon="5.48163">
        <ele>1605</ele>
        <time>2024-05-11T08:26:04.000Z</time>
      </trkpt>
      <trkpt lat="44.82754" lon="5.48168">
        <ele>1604.3</ele>
        <time>2024-05-11T08:26:08.000Z</time>
      </trkpt>
      <trkpt lat="44.82753" lon="5.4817">
        <ele>1604.1</ele>
        <time>2024-05-11T08:26:10.000Z</time>
      </trkpt>
      <trkpt lat="44.82753" lon="5.48175">
        <ele>1603.9</ele>
        <time>2024-05-11T08:26:13.000Z</time>
      </trkpt>
      <trkpt lat="44.82753" lon="5.4818">
        <ele>1604</ele>
        <time>2024-05-11T08:26:16.000Z</time>
      </trkpt>
      <trkpt lat="44.82753" lon="5.48182">
        <ele>1603.8</ele>
        <time>2024-05-11T08:26:18.000Z</time>
      </trkpt>
      <trkpt lat="44.82747" lon="5.48191">
        <ele>1603</ele>
        <time>2024-05-11T08:26:25.000Z</time>
      </trkpt>
      <trkpt lat="44.82746" lon="5.48192">
        <ele>1603</ele>
        <time>2024-05-11T08:26:26.000Z</time>
      </trkpt>
      <trkpt lat="44.82745" lon="5.48193">
        <ele>1603</ele>
        <time>2024-05-11T08:26:28.000Z</time>
      </trkpt>
      <trkpt lat="44.82743" lon="5.48196">
        <ele>1603</ele>
        <time>2024-05-11T08:26:30.000Z</time>
      </trkpt>
      <trkpt lat="44.82736" lon="5.482">
        <ele>1603</ele>
        <time>2024-05-11T08:26:36.000Z</time>
      </trkpt>
      <trkpt lat="44.82734" lon="5.48205">
        <ele>1603</ele>
        <time>2024-05-11T08:26:40.000Z</time>
      </trkpt>
      <trkpt lat="44.82732" lon="5.48209">
        <ele>1603</ele>
        <time>2024-05-11T08:26:42.000Z</time>
      </trkpt>
      <trkpt lat="44.82731" lon="5.48219">
        <ele>1603</ele>
        <time>2024-05-11T08:26:49.000Z</time>
      </trkpt>
      <trkpt lat="44.82731" lon="5.48224">
        <ele>1603</ele>
        <time>2024-05-11T08:26:53.000Z</time>
      </trkpt>
      <trkpt lat="44.82731" lon="5.48232">
        <ele>1603.1</ele>
        <time>2024-05-11T08:26:58.000Z</time>
      </trkpt>
      <trkpt lat="44.82731" lon="5.48235">
        <ele>1603.1</ele>
        <time>2024-05-11T08:27:00.000Z</time>
      </trkpt>
      <trkpt lat="44.82731" lon="5.48237">
        <ele>1603.2</ele>
        <time>2024-05-11T08:27:01.000Z</time>
      </trkpt>
      <trkpt lat="44.82731" lon="5.48244">
        <ele>1603.2</ele>
        <time>2024-05-11T08:27:05.000Z</time>
      </trkpt>
      <trkpt lat="44.8273" lon="5.48252">
        <ele>1603.2</ele>
        <time>2024-05-11T08:27:11.000Z</time>
      </trkpt>
      <trkpt lat="44.8273" lon="5.48253">
        <ele>1603.1</ele>
        <time>2024-05-11T08:27:12.000Z</time>
      </trkpt>
      <trkpt lat="44.82729" lon="5.48257">
        <ele>1602.8</ele>
        <time>2024-05-11T08:27:16.000Z</time>
      </trkpt>
      <trkpt lat="44.82729" lon="5.48259">
        <ele>1602.8</ele>
        <time>2024-05-11T08:27:17.000Z</time>
      </trkpt>
      <trkpt lat="44.82726" lon="5.48266">
        <ele>1602.2</ele>
        <time>2024-05-11T08:27:23.000Z</time>
      </trkpt>
      <trkpt lat="44.82726" lon="5.48267">
        <ele>1602.1</ele>
        <time>2024-05-11T08:27:24.000Z</time>
      </trkpt>
      <trkpt lat="44.82724" lon="5.48271">
        <ele>1601.6</ele>
        <time>2024-05-11T08:27:27.000Z</time>
      </trkpt>
      <trkpt lat="44.82722" lon="5.48271">
        <ele>1601.5</ele>
        <time>2024-05-11T08:27:28.000Z</time>
      </trkpt>
      <trkpt lat="44.8272" lon="5.48273">
        <ele>1601.3</ele>
        <time>2024-05-11T08:27:30.000Z</time>
      </trkpt>
      <trkpt lat="44.82719" lon="5.48273">
        <ele>1601.2</ele>
        <time>2024-05-11T08:27:31.000Z</time>
      </trkpt>
      <trkpt lat="44.82717" lon="5.48274">
        <ele>1601.1</ele>
        <time>2024-05-11T08:27:33.000Z</time>
      </trkpt>
      <trkpt lat="44.82716" lon="5.48276">
        <ele>1600.9</ele>
        <time>2024-05-11T08:27:35.000Z</time>
      </trkpt>
      <trkpt lat="44.82715" lon="5.48277">
        <ele>1600.8</ele>
        <time>2024-05-11T08:27:36.000Z</time>
      </trkpt>
      <trkpt lat="44.82713" lon="5.48279">
        <ele>1600.7</ele>
        <time>2024-05-11T08:27:38.000Z</time>
      </trkpt>
      <trkpt lat="44.82711" lon="5.48283">
        <ele>1600.7</ele>
        <time>2024-05-11T08:27:42.000Z</time>
      </trkpt>
      <trkpt lat="44.8271" lon="5.48285">
        <ele>1600.7</ele>
        <time>2024-05-11T08:27:43.000Z</time>
      </trkpt>
      <trkpt lat="44.82709" lon="5.48289">
        <ele>1600.7</ele>
        <time>2024-05-11T08:27:45.000Z</time>
      </trkpt>
      <trkpt lat="44.82705" lon="5.48291">
        <ele>1600.7</ele>
        <time>2024-05-11T08:27:48.000Z</time>
      </trkpt>
      <trkpt lat="44.82702" lon="5.48294">
        <ele>1600.7</ele>
        <time>2024-05-11T08:27:54.000Z</time>
      </trkpt>
      <trkpt lat="44.827" lon="5.48294">
        <ele>1600.7</ele>
        <time>2024-05-11T08:27:56.000Z</time>
      </trkpt>
      <trkpt lat="44.82695" lon="5.48294">
        <ele>1600.6</ele>
        <time>2024-05-11T08:28:01.000Z</time>
      </trkpt>
      <trkpt lat="44.82695" lon="5.48289">
        <ele>1600.4</ele>
        <time>2024-05-11T08:28:06.000Z</time>
      </trkpt>
      <trkpt lat="44.82698" lon="5.48288">
        <ele>1600.5</ele>
        <time>2024-05-11T08:28:11.000Z</time>
      </trkpt>
      <trkpt lat="44.82689" lon="5.48278">
        <ele>1600.2</ele>
        <time>2024-05-11T08:29:09.000Z</time>
      </trkpt>
      <trkpt lat="44.82695" lon="5.4829">
        <ele>1600.4</ele>
        <time>2024-05-11T08:29:26.000Z</time>
      </trkpt>
      <trkpt lat="44.82695" lon="5.48289">
        <ele>1600.4</ele>
        <time>2024-05-11T08:29:33.000Z</time>
      </trkpt>
      <trkpt lat="44.82691" lon="5.48284">
        <ele>1600.4</ele>
        <time>2024-05-11T08:29:40.000Z</time>
      </trkpt>
      <trkpt lat="44.82687" lon="5.48281">
        <ele>1600.5</ele>
        <time>2024-05-11T08:29:46.000Z</time>
      </trkpt>
      <trkpt lat="44.82686" lon="5.48281">
        <ele>1600.5</ele>
        <time>2024-05-11T08:29:48.000Z</time>
      </trkpt>
      <trkpt lat="44.82681" lon="5.48279">
        <ele>1600.6</ele>
        <time>2024-05-11T08:29:53.000Z</time>
      </trkpt>
      <trkpt lat="44.8268" lon="5.48279">
        <ele>1600.6</ele>
        <time>2024-05-11T08:29:54.000Z</time>
      </trkpt>
      <trkpt lat="44.82677" lon="5.48278">
        <ele>1600.6</ele>
        <time>2024-05-11T08:29:57.000Z</time>
      </trkpt>
      <trkpt lat="44.82674" lon="5.48276">
        <ele>1600.7</ele>
        <time>2024-05-11T08:30:00.000Z</time>
      </trkpt>
      <trkpt lat="44.82667" lon="5.48271">
        <ele>1600.7</ele>
        <time>2024-05-11T08:30:06.000Z</time>
      </trkpt>
      <trkpt lat="44.82666" lon="5.4827">
        <ele>1600.7</ele>
        <time>2024-05-11T08:30:07.000Z</time>
      </trkpt>
      <trkpt lat="44.82665" lon="5.48268">
        <ele>1600.7</ele>
        <time>2024-05-11T08:30:09.000Z</time>
      </trkpt>
      <trkpt lat="44.82662" lon="5.48266">
        <ele>1600.7</ele>
        <time>2024-05-11T08:30:12.000Z</time>
      </trkpt>
      <trkpt lat="44.82662" lon="5.48266">
        <ele>1600.7</ele>
        <time>2024-05-11T08:30:13.000Z</time>
      </trkpt>
      <trkpt lat="44.82661" lon="5.48265">
        <ele>1600.7</ele>
        <time>2024-05-11T08:30:14.000Z</time>
      </trkpt>
      <trkpt lat="44.82654" lon="5.48258">
        <ele>1600.2</ele>
        <time>2024-05-11T08:30:21.000Z</time>
      </trkpt>
      <trkpt lat="44.8265" lon="5.48253">
        <ele>1599.7</ele>
        <time>2024-05-11T08:30:28.000Z</time>
      </trkpt>
      <trkpt lat="44.82649" lon="5.48252">
        <ele>1599.5</ele>
        <time>2024-05-11T08:30:30.000Z</time>
      </trkpt>
      <trkpt lat="44.82646" lon="5.48249">
        <ele>1599.3</ele>
        <time>2024-05-11T08:30:33.000Z</time>
      </trkpt>
      <trkpt lat="44.82643" lon="5.48248">
        <ele>1599.2</ele>
        <time>2024-05-11T08:30:36.000Z</time>
      </trkpt>
      <trkpt lat="44.82638" lon="5.48245">
        <ele>1599</ele>
        <time>2024-05-11T08:30:42.000Z</time>
      </trkpt>
      <trkpt lat="44.82638" lon="5.48245">
        <ele>1599</ele>
        <time>2024-05-11T08:30:43.000Z</time>
      </trkpt>
      <trkpt lat="44.8263" lon="5.48241">
        <ele>1599.1</ele>
        <time>2024-05-11T08:30:51.000Z</time>
      </trkpt>
      <trkpt lat="44.82625" lon="5.48241">
        <ele>1599.2</ele>
        <time>2024-05-11T08:30:56.000Z</time>
      </trkpt>
      <trkpt lat="44.82619" lon="5.4824">
        <ele>1599.2</ele>
        <time>2024-05-11T08:31:02.000Z</time>
      </trkpt>
      <trkpt lat="44.82614" lon="5.4824">
        <ele>1599.2</ele>
        <time>2024-05-11T08:31:06.000Z</time>
      </trkpt>
      <trkpt lat="44.82613" lon="5.48239">
        <ele>1599.2</ele>
        <time>2024-05-11T08:31:08.000Z</time>
      </trkpt>
      <trkpt lat="44.8261" lon="5.48238">
        <ele>1599.2</ele>
        <time>2024-05-11T08:31:11.000Z</time>
      </trkpt>
      <trkpt lat="44.82608" lon="5.48238">
        <ele>1599.3</ele>
        <time>2024-05-11T08:31:13.000Z</time>
      </trkpt>
      <trkpt lat="44.82605" lon="5.48238">
        <ele>1599.4</ele>
        <time>2024-05-11T08:31:16.000Z</time>
      </trkpt>
      <trkpt lat="44.82603" lon="5.48236">
        <ele>1599.3</ele>
        <time>2024-05-11T08:31:19.000Z</time>
      </trkpt>
      <trkpt lat="44.82601" lon="5.48234">
        <ele>1599.1</ele>
        <time>2024-05-11T08:31:22.000Z</time>
      </trkpt>
      <trkpt lat="44.82598" lon="5.48232">
        <ele>1598.8</ele>
        <time>2024-05-11T08:31:28.000Z</time>
      </trkpt>
      <trkpt lat="44.82597" lon="5.48232">
        <ele>1598.9</ele>
        <time>2024-05-11T08:31:29.000Z</time>
      </trkpt>
      <trkpt lat="44.82595" lon="5.48231">
        <ele>1598.7</ele>
        <time>2024-05-11T08:31:31.000Z</time>
      </trkpt>
      <trkpt lat="44.82593" lon="5.48229">
        <ele>1598.4</ele>
        <time>2024-05-11T08:31:34.000Z</time>
      </trkpt>
      <trkpt lat="44.82591" lon="5.48225">
        <ele>1597.7</ele>
        <time>2024-05-11T08:31:39.000Z</time>
      </trkpt>
      <trkpt lat="44.82587" lon="5.48224">
        <ele>1597.5</ele>
        <time>2024-05-11T08:31:44.000Z</time>
      </trkpt>
      <trkpt lat="44.82585" lon="5.48226">
        <ele>1597.8</ele>
        <time>2024-05-11T08:31:46.000Z</time>
      </trkpt>
      <trkpt lat="44.82581" lon="5.48225">
        <ele>1597.4</ele>
        <time>2024-05-11T08:31:51.000Z</time>
      </trkpt>
      <trkpt lat="44.8258" lon="5.48224">
        <ele>1597.3</ele>
        <time>2024-05-11T08:31:52.000Z</time>
      </trkpt>
      <trkpt lat="44.82574" lon="5.48223">
        <ele>1596.7</ele>
        <time>2024-05-11T08:31:58.000Z</time>
      </trkpt>
      <trkpt lat="44.82571" lon="5.4822">
        <ele>1596.5</ele>
        <time>2024-05-11T08:32:03.000Z</time>
      </trkpt>
      <trkpt lat="44.8257" lon="5.48218">
        <ele>1596.4</ele>
        <time>2024-05-11T08:32:05.000Z</time>
      </trkpt>
      <trkpt lat="44.82569" lon="5.48217">
        <ele>1596.4</ele>
        <time>2024-05-11T08:35:19.568Z</time>
        <extensions>
          <visugpx:TrkExtension xmlns:visugpx="https://www.visugpx.com/editgpx/">
            <visugpx:node>1</visugpx:node>
            </visugpx:TrkExtension>
        </extensions>
      </trkpt>
      <trkpt lat="44.82568" lon="5.4822">
        <ele>1596.4</ele>
        <time>2024-05-11T08:41:56.076Z</time>
      </trkpt>
      <trkpt lat="44.82566" lon="5.48219">
        <ele>1596.3</ele>
        <time>2024-05-11T08:47:35.696Z</time>
      </trkpt>
      <trkpt lat="44.82567" lon="5.48219">
        <ele>1596.3</ele>
        <time>2024-05-11T08:50:15.740Z</time>
      </trkpt>
      <trkpt lat="44.82567" lon="5.48219">
        <ele>1596.3</ele>
        <time>2024-05-11T08:51:16.792Z</time>
        <extensions>
          <visugpx:TrkExtension xmlns:visugpx="https://www.visugpx.com/editgpx/">
            <visugpx:node>2</visugpx:node>
            </visugpx:TrkExtension>
        </extensions>
      </trkpt>
      <trkpt lat="44.82568" lon="5.4822">
        <ele>1596.4</ele>
        <time>2024-05-11T08:55:11.000Z</time>
      </trkpt>
      <trkpt lat="44.82571" lon="5.48223">
        <ele>1596.8</ele>
        <time>2024-05-11T08:55:15.000Z</time>
      </trkpt>
      <trkpt lat="44.82578" lon="5.48225">
        <ele>1597.3</ele>
        <time>2024-05-11T08:55:21.000Z</time>
      </trkpt>
      <trkpt lat="44.82582" lon="5.48226">
        <ele>1597.7</ele>
        <time>2024-05-11T08:55:24.000Z</time>
      </trkpt>
      <trkpt lat="44.82586" lon="5.48227">
        <ele>1598.1</ele>
        <time>2024-05-11T08:55:28.000Z</time>
      </trkpt>
      <trkpt lat="44.82589" lon="5.48229">
        <ele>1598.4</ele>
        <time>2024-05-11T08:55:31.000Z</time>
      </trkpt>
      <trkpt lat="44.82594" lon="5.4823">
        <ele>1598.7</ele>
        <time>2024-05-11T08:55:35.000Z</time>
      </trkpt>
      <trkpt lat="44.82595" lon="5.48232">
        <ele>1598.9</ele>
        <time>2024-05-11T08:55:37.000Z</time>
      </trkpt>
      <trkpt lat="44.826" lon="5.48239">
        <ele>1599.7</ele>
        <time>2024-05-11T08:55:44.000Z</time>
      </trkpt>
      <trkpt lat="44.82606" lon="5.48238">
        <ele>1599.4</ele>
        <time>2024-05-11T08:55:50.000Z</time>
      </trkpt>
      <trkpt lat="44.82608" lon="5.48238">
        <ele>1599.3</ele>
        <time>2024-05-11T08:55:52.000Z</time>
      </trkpt>
      <trkpt lat="44.82609" lon="5.48238">
        <ele>1599.2</ele>
        <time>2024-05-11T08:55:53.000Z</time>
      </trkpt>
      <trkpt lat="44.82614" lon="5.48238">
        <ele>1599.1</ele>
        <time>2024-05-11T08:55:59.000Z</time>
      </trkpt>
      <trkpt lat="44.82619" lon="5.48239">
        <ele>1599.2</ele>
        <time>2024-05-11T08:56:04.000Z</time>
      </trkpt>
      <trkpt lat="44.8262" lon="5.48239">
        <ele>1599.2</ele>
        <time>2024-05-11T08:56:05.000Z</time>
      </trkpt>
      <trkpt lat="44.82628" lon="5.48241">
        <ele>1599.1</ele>
        <time>2024-05-11T08:56:12.000Z</time>
      </trkpt>
      <trkpt lat="44.82629" lon="5.48242">
        <ele>1599.1</ele>
        <time>2024-05-11T08:56:13.000Z</time>
      </trkpt>
      <trkpt lat="44.82635" lon="5.48243">
        <ele>1599.1</ele>
        <time>2024-05-11T08:56:18.000Z</time>
      </trkpt>
      <trkpt lat="44.82636" lon="5.48244">
        <ele>1599.1</ele>
        <time>2024-05-11T08:56:20.000Z</time>
      </trkpt>
      <trkpt lat="44.8264" lon="5.48246">
        <ele>1599</ele>
        <time>2024-05-11T08:56:23.000Z</time>
      </trkpt>
      <trkpt lat="44.82641" lon="5.48247">
        <ele>1599.1</ele>
        <time>2024-05-11T08:56:24.000Z</time>
      </trkpt>
      <trkpt lat="44.82641" lon="5.48249">
        <ele>1599.1</ele>
        <time>2024-05-11T08:56:26.000Z</time>
      </trkpt>
      <trkpt lat="44.82643" lon="5.48252">
        <ele>1599.4</ele>
        <time>2024-05-11T08:56:30.000Z</time>
      </trkpt>
      <trkpt lat="44.82645" lon="5.48254">
        <ele>1599.7</ele>
        <time>2024-05-11T08:56:32.000Z</time>
      </trkpt>
      <trkpt lat="44.82646" lon="5.48256">
        <ele>1600</ele>
        <time>2024-05-11T08:56:34.000Z</time>
      </trkpt>
      <trkpt lat="44.82647" lon="5.48257">
        <ele>1600.1</ele>
        <time>2024-05-11T08:56:35.000Z</time>
      </trkpt>
      <trkpt lat="44.82648" lon="5.48257">
        <ele>1600.1</ele>
        <time>2024-05-11T08:56:36.000Z</time>
      </trkpt>
      <trkpt lat="44.82651" lon="5.48259">
        <ele>1600.3</ele>
        <time>2024-05-11T08:56:38.000Z</time>
      </trkpt>
      <trkpt lat="44.82653" lon="5.4826">
        <ele>1600.4</ele>
        <time>2024-05-11T08:56:40.000Z</time>
      </trkpt>
      <trkpt lat="44.82654" lon="5.48261">
        <ele>1600.5</ele>
        <time>2024-05-11T08:56:41.000Z</time>
      </trkpt>
      <trkpt lat="44.82655" lon="5.48262">
        <ele>1600.5</ele>
        <time>2024-05-11T08:56:42.000Z</time>
      </trkpt>
      <trkpt lat="44.82661" lon="5.48265">
        <ele>1600.6</ele>
        <time>2024-05-11T08:56:47.000Z</time>
      </trkpt>
      <trkpt lat="44.82669" lon="5.4827">
        <ele>1600.7</ele>
        <time>2024-05-11T08:56:55.000Z</time>
      </trkpt>
      <trkpt lat="44.8267" lon="5.48271">
        <ele>1600.7</ele>
        <time>2024-05-11T08:56:56.000Z</time>
      </trkpt>
      <trkpt lat="44.82674" lon="5.48273">
        <ele>1600.7</ele>
        <time>2024-05-11T08:57:00.000Z</time>
      </trkpt>
      <trkpt lat="44.82675" lon="5.48273">
        <ele>1600.7</ele>
        <time>2024-05-11T08:57:01.000Z</time>
      </trkpt>
      <trkpt lat="44.82676" lon="5.48274">
        <ele>1600.7</ele>
        <time>2024-05-11T08:57:02.000Z</time>
      </trkpt>
      <trkpt lat="44.82678" lon="5.48275">
        <ele>1600.6</ele>
        <time>2024-05-11T08:57:04.000Z</time>
      </trkpt>
      <trkpt lat="44.82682" lon="5.48279">
        <ele>1600.6</ele>
        <time>2024-05-11T08:57:08.000Z</time>
      </trkpt>
      <trkpt lat="44.82683" lon="5.48281">
        <ele>1600.6</ele>
        <time>2024-05-11T08:57:10.000Z</time>
      </trkpt>
      <trkpt lat="44.82686" lon="5.48284">
        <ele>1600.7</ele>
        <time>2024-05-11T08:57:13.000Z</time>
      </trkpt>
      <trkpt lat="44.82687" lon="5.48287">
        <ele>1600.7</ele>
        <time>2024-05-11T08:57:15.000Z</time>
      </trkpt>
      <trkpt lat="44.82688" lon="5.48288">
        <ele>1600.8</ele>
        <time>2024-05-11T08:57:16.000Z</time>
      </trkpt>
      <trkpt lat="44.82691" lon="5.48292">
        <ele>1600.8</ele>
        <time>2024-05-11T08:57:19.000Z</time>
      </trkpt>
      <trkpt lat="44.82692" lon="5.48295">
        <ele>1600.8</ele>
        <time>2024-05-11T08:57:22.000Z</time>
      </trkpt>
      <trkpt lat="44.82695" lon="5.48296">
        <ele>1600.7</ele>
        <time>2024-05-11T08:57:24.000Z</time>
      </trkpt>
      <trkpt lat="44.82699" lon="5.48306">
        <ele>1601</ele>
        <time>2024-05-11T08:57:32.000Z</time>
      </trkpt>
      <trkpt lat="44.82699" lon="5.48307">
        <ele>1601.1</ele>
        <time>2024-05-11T08:57:33.000Z</time>
      </trkpt>
      <trkpt lat="44.82701" lon="5.48319">
        <ele>1601.5</ele>
        <time>2024-05-11T08:57:40.000Z</time>
      </trkpt>
      <trkpt lat="44.82702" lon="5.48323">
        <ele>1601.6</ele>
        <time>2024-05-11T08:57:43.000Z</time>
      </trkpt>
      <trkpt lat="44.82703" lon="5.48329">
        <ele>1601.8</ele>
        <time>2024-05-11T08:57:47.000Z</time>
      </trkpt>
      <trkpt lat="44.82705" lon="5.48338">
        <ele>1602.4</ele>
        <time>2024-05-11T08:57:53.000Z</time>
      </trkpt>
      <trkpt lat="44.82706" lon="5.48341">
        <ele>1602.7</ele>
        <time>2024-05-11T08:57:55.000Z</time>
      </trkpt>
      <trkpt lat="44.82706" lon="5.48343">
        <ele>1602.8</ele>
        <time>2024-05-11T08:57:56.000Z</time>
      </trkpt>
      <trkpt lat="44.82706" lon="5.48347">
        <ele>1603.2</ele>
        <time>2024-05-11T08:57:58.000Z</time>
      </trkpt>
      <trkpt lat="44.82707" lon="5.48349">
        <ele>1603.4</ele>
        <time>2024-05-11T08:57:59.000Z</time>
      </trkpt>
      <trkpt lat="44.82708" lon="5.48353">
        <ele>1603.8</ele>
        <time>2024-05-11T08:58:02.000Z</time>
      </trkpt>
      <trkpt lat="44.82709" lon="5.48357">
        <ele>1604.2</ele>
        <time>2024-05-11T08:58:05.000Z</time>
      </trkpt>
      <trkpt lat="44.82709" lon="5.48359">
        <ele>1604.3</ele>
        <time>2024-05-11T08:58:06.000Z</time>
      </trkpt>
      <trkpt lat="44.82709" lon="5.48361">
        <ele>1604.5</ele>
        <time>2024-05-11T08:58:08.000Z</time>
      </trkpt>
      <trkpt lat="44.8271" lon="5.48364">
        <ele>1604.7</ele>
        <time>2024-05-11T08:58:10.000Z</time>
      </trkpt>
      <trkpt lat="44.82711" lon="5.48368">
        <ele>1605</ele>
        <time>2024-05-11T08:58:13.000Z</time>
      </trkpt>
      <trkpt lat="44.82712" lon="5.48375">
        <ele>1605.3</ele>
        <time>2024-05-11T08:58:17.000Z</time>
      </trkpt>
      <trkpt lat="44.82713" lon="5.48376">
        <ele>1605.4</ele>
        <time>2024-05-11T08:58:18.000Z</time>
      </trkpt>
      <trkpt lat="44.82713" lon="5.48382">
        <ele>1605.7</ele>
        <time>2024-05-11T08:58:22.000Z</time>
      </trkpt>
      <trkpt lat="44.82714" lon="5.48385">
        <ele>1605.8</ele>
        <time>2024-05-11T08:58:24.000Z</time>
      </trkpt>
      <trkpt lat="44.82715" lon="5.48389">
        <ele>1606</ele>
        <time>2024-05-11T08:58:26.000Z</time>
      </trkpt>
      <trkpt lat="44.82716" lon="5.48395">
        <ele>1605.9</ele>
        <time>2024-05-11T08:58:31.000Z</time>
      </trkpt>
      <trkpt lat="44.82716" lon="5.48397">
        <ele>1605.9</ele>
        <time>2024-05-11T08:58:32.000Z</time>
      </trkpt>
      <trkpt lat="44.82716" lon="5.48398">
        <ele>1605.9</ele>
        <time>2024-05-11T08:58:33.000Z</time>
      </trkpt>
      <trkpt lat="44.82718" lon="5.48404">
        <ele>1605.7</ele>
        <time>2024-05-11T08:58:37.000Z</time>
      </trkpt>
      <trkpt lat="44.8272" lon="5.48418">
        <ele>1605.2</ele>
        <time>2024-05-11T08:58:46.000Z</time>
      </trkpt>
      <trkpt lat="44.82721" lon="5.48421">
        <ele>1605.2</ele>
        <time>2024-05-11T08:58:48.000Z</time>
      </trkpt>
      <trkpt lat="44.82721" lon="5.48423">
        <ele>1605.4</ele>
        <time>2024-05-11T08:58:50.000Z</time>
      </trkpt>
      <trkpt lat="44.82721" lon="5.48424">
        <ele>1605.4</ele>
        <time>2024-05-11T08:58:51.000Z</time>
      </trkpt>
      <trkpt lat="44.82722" lon="5.48427">
        <ele>1605.4</ele>
        <time>2024-05-11T08:58:53.000Z</time>
      </trkpt>
      <trkpt lat="44.82722" lon="5.48429">
        <ele>1605.4</ele>
        <time>2024-05-11T08:58:55.000Z</time>
      </trkpt>
      <trkpt lat="44.82722" lon="5.4843">
        <ele>1605.5</ele>
        <time>2024-05-11T08:58:56.000Z</time>
      </trkpt>
      <trkpt lat="44.82725" lon="5.4844">
        <ele>1606.4</ele>
        <time>2024-05-11T08:59:03.000Z</time>
      </trkpt>
      <trkpt lat="44.82725" lon="5.48444">
        <ele>1606.7</ele>
        <time>2024-05-11T08:59:06.000Z</time>
      </trkpt>
      <trkpt lat="44.82727" lon="5.48452">
        <ele>1607.2</ele>
        <time>2024-05-11T08:59:10.000Z</time>
      </trkpt>
      <trkpt lat="44.82728" lon="5.48453">
        <ele>1607.3</ele>
        <time>2024-05-11T08:59:11.000Z</time>
      </trkpt>
      <trkpt lat="44.82728" lon="5.48461">
        <ele>1607.3</ele>
        <time>2024-05-11T08:59:16.000Z</time>
      </trkpt>
      <trkpt lat="44.82728" lon="5.48472">
        <ele>1607.2</ele>
        <time>2024-05-11T08:59:23.000Z</time>
      </trkpt>
      <trkpt lat="44.82729" lon="5.48478">
        <ele>1607.5</ele>
        <time>2024-05-11T08:59:27.000Z</time>
      </trkpt>
      <trkpt lat="44.82729" lon="5.48487">
        <ele>1607.9</ele>
        <time>2024-05-11T08:59:32.000Z</time>
      </trkpt>
      <trkpt lat="44.82728" lon="5.48493">
        <ele>1608.1</ele>
        <time>2024-05-11T08:59:37.000Z</time>
      </trkpt>
      <trkpt lat="44.82728" lon="5.48496">
        <ele>1608.2</ele>
        <time>2024-05-11T08:59:39.000Z</time>
      </trkpt>
      <trkpt lat="44.82726" lon="5.48501">
        <ele>1608.3</ele>
        <time>2024-05-11T08:59:43.000Z</time>
      </trkpt>
      <trkpt lat="44.82726" lon="5.48503">
        <ele>1608.4</ele>
        <time>2024-05-11T08:59:45.000Z</time>
      </trkpt>
      <trkpt lat="44.82728" lon="5.4851">
        <ele>1609</ele>
        <time>2024-05-11T08:59:50.000Z</time>
      </trkpt>
      <trkpt lat="44.82729" lon="5.48512">
        <ele>1609.1</ele>
        <time>2024-05-11T08:59:51.000Z</time>
      </trkpt>
      <trkpt lat="44.82729" lon="5.48515">
        <ele>1609.3</ele>
        <time>2024-05-11T08:59:53.000Z</time>
      </trkpt>
      <trkpt lat="44.82728" lon="5.48519">
        <ele>1609.5</ele>
        <time>2024-05-11T08:59:56.000Z</time>
      </trkpt>
      <trkpt lat="44.82728" lon="5.48523">
        <ele>1609.7</ele>
        <time>2024-05-11T08:59:59.000Z</time>
      </trkpt>
      <trkpt lat="44.82728" lon="5.48529">
        <ele>1610</ele>
        <time>2024-05-11T09:00:03.000Z</time>
      </trkpt>
      <trkpt lat="44.82733" lon="5.48537">
        <ele>1610.2</ele>
        <time>2024-05-11T09:00:09.000Z</time>
      </trkpt>
      <trkpt lat="44.82734" lon="5.48542">
        <ele>1610.3</ele>
        <time>2024-05-11T09:00:12.000Z</time>
      </trkpt>
      <trkpt lat="44.82734" lon="5.48544">
        <ele>1610.3</ele>
        <time>2024-05-11T09:00:14.000Z</time>
      </trkpt>
      <trkpt lat="44.82734" lon="5.48546">
        <ele>1610.4</ele>
        <time>2024-05-11T09:00:15.000Z</time>
      </trkpt>
      <trkpt lat="44.82731" lon="5.48549">
        <ele>1610.5</ele>
        <time>2024-05-11T09:00:19.000Z</time>
      </trkpt>
      <trkpt lat="44.82731" lon="5.48551">
        <ele>1610.6</ele>
        <time>2024-05-11T09:00:22.000Z</time>
      </trkpt>
      <trkpt lat="44.82732" lon="5.48557">
        <ele>1610.7</ele>
        <time>2024-05-11T09:00:27.000Z</time>
      </trkpt>
      <trkpt lat="44.82733" lon="5.48557">
        <ele>1610.6</ele>
        <time>2024-05-11T09:00:28.000Z</time>
      </trkpt>
      <trkpt lat="44.82734" lon="5.48558">
        <ele>1610.6</ele>
        <time>2024-05-11T09:00:29.000Z</time>
      </trkpt>
      <trkpt lat="44.82737" lon="5.48561">
        <ele>1610.6</ele>
        <time>2024-05-11T09:00:33.000Z</time>
      </trkpt>
      <trkpt lat="44.82739" lon="5.48564">
        <ele>1610.5</ele>
        <time>2024-05-11T09:00:36.000Z</time>
      </trkpt>
      <trkpt lat="44.82741" lon="5.48567">
        <ele>1610.5</ele>
        <time>2024-05-11T09:00:39.000Z</time>
      </trkpt>
      <trkpt lat="44.82741" lon="5.48569">
        <ele>1610.5</ele>
        <time>2024-05-11T09:00:40.000Z</time>
      </trkpt>
      <trkpt lat="44.82745" lon="5.4858">
        <ele>1610.4</ele>
        <time>2024-05-11T09:00:48.000Z</time>
      </trkpt>
      <trkpt lat="44.82747" lon="5.48584">
        <ele>1610.3</ele>
        <time>2024-05-11T09:00:51.000Z</time>
      </trkpt>
      <trkpt lat="44.82749" lon="5.4859">
        <ele>1610.3</ele>
        <time>2024-05-11T09:00:55.000Z</time>
      </trkpt>
      <trkpt lat="44.82749" lon="5.48594">
        <ele>1610.4</ele>
        <time>2024-05-11T09:00:58.000Z</time>
      </trkpt>
      <trkpt lat="44.82749" lon="5.48597">
        <ele>1610.5</ele>
        <time>2024-05-11T09:01:01.000Z</time>
      </trkpt>
      <trkpt lat="44.8275" lon="5.48604">
        <ele>1610.7</ele>
        <time>2024-05-11T09:01:07.000Z</time>
      </trkpt>
      <trkpt lat="44.82751" lon="5.48604">
        <ele>1610.7</ele>
        <time>2024-05-11T09:01:13.000Z</time>
      </trkpt>
      <trkpt lat="44.82752" lon="5.48605">
        <ele>1610.7</ele>
        <time>2024-05-11T09:01:22.000Z</time>
      </trkpt>
      <trkpt lat="44.82753" lon="5.48607">
        <ele>1610.8</ele>
        <time>2024-05-11T09:01:24.000Z</time>
      </trkpt>
      <trkpt lat="44.82753" lon="5.48615">
        <ele>1611.2</ele>
        <time>2024-05-11T09:01:29.000Z</time>
      </trkpt>
      <trkpt lat="44.82753" lon="5.48617">
        <ele>1611.3</ele>
        <time>2024-05-11T09:01:30.000Z</time>
      </trkpt>
      <trkpt lat="44.82752" lon="5.48625">
        <ele>1611.8</ele>
        <time>2024-05-11T09:01:36.000Z</time>
      </trkpt>
      <trkpt lat="44.82751" lon="5.48626">
        <ele>1612</ele>
        <time>2024-05-11T09:01:37.000Z</time>
      </trkpt>
      <trkpt lat="44.82751" lon="5.48627">
        <ele>1612.1</ele>
        <time>2024-05-11T09:01:38.000Z</time>
      </trkpt>
      <trkpt lat="44.82751" lon="5.48629">
        <ele>1612.2</ele>
        <time>2024-05-11T09:01:39.000Z</time>
      </trkpt>
      <trkpt lat="44.82751" lon="5.48632">
        <ele>1612.4</ele>
        <time>2024-05-11T09:01:41.000Z</time>
      </trkpt>
      <trkpt lat="44.82752" lon="5.48645">
        <ele>1613.1</ele>
        <time>2024-05-11T09:01:49.000Z</time>
      </trkpt>
      <trkpt lat="44.82751" lon="5.48648">
        <ele>1613.3</ele>
        <time>2024-05-11T09:01:51.000Z</time>
      </trkpt>
      <trkpt lat="44.82751" lon="5.48652">
        <ele>1613.4</ele>
        <time>2024-05-11T09:01:53.000Z</time>
      </trkpt>
      <trkpt lat="44.82751" lon="5.48655">
        <ele>1613.5</ele>
        <time>2024-05-11T09:01:55.000Z</time>
      </trkpt>
      <trkpt lat="44.82751" lon="5.48658">
        <ele>1613.6</ele>
        <time>2024-05-11T09:01:56.000Z</time>
      </trkpt>
      <trkpt lat="44.82751" lon="5.4866">
        <ele>1613.7</ele>
        <time>2024-05-11T09:01:58.000Z</time>
      </trkpt>
      <trkpt lat="44.82751" lon="5.48664">
        <ele>1613.9</ele>
        <time>2024-05-11T09:02:01.000Z</time>
      </trkpt>
      <trkpt lat="44.8275" lon="5.48667">
        <ele>1614.1</ele>
        <time>2024-05-11T09:02:03.000Z</time>
      </trkpt>
      <trkpt lat="44.8275" lon="5.48671">
        <ele>1614.5</ele>
        <time>2024-05-11T09:02:05.000Z</time>
      </trkpt>
      <trkpt lat="44.8275" lon="5.48674">
        <ele>1614.8</ele>
        <time>2024-05-11T09:02:07.000Z</time>
      </trkpt>
      <trkpt lat="44.8275" lon="5.48678">
        <ele>1615.2</ele>
        <time>2024-05-11T09:02:10.000Z</time>
      </trkpt>
      <trkpt lat="44.8275" lon="5.48679">
        <ele>1615.4</ele>
        <time>2024-05-11T09:02:11.000Z</time>
      </trkpt>
      <trkpt lat="44.82751" lon="5.48684">
        <ele>1616</ele>
        <time>2024-05-11T09:02:15.000Z</time>
      </trkpt>
      <trkpt lat="44.82752" lon="5.48685">
        <ele>1616.1</ele>
        <time>2024-05-11T09:02:16.000Z</time>
      </trkpt>
      <trkpt lat="44.82753" lon="5.48691">
        <ele>1617.1</ele>
        <time>2024-05-11T09:02:23.000Z</time>
      </trkpt>
      <trkpt lat="44.82754" lon="5.48693">
        <ele>1617.3</ele>
        <time>2024-05-11T09:02:25.000Z</time>
      </trkpt>
      <trkpt lat="44.82755" lon="5.48697">
        <ele>1618.3</ele>
        <time>2024-05-11T09:02:30.000Z</time>
      </trkpt>
      <trkpt lat="44.82755" lon="5.48698">
        <ele>1618.6</ele>
        <time>2024-05-11T09:02:32.000Z</time>
      </trkpt>
      <trkpt lat="44.82755" lon="5.48698">
        <ele>1618.6</ele>
        <time>2024-05-11T09:02:33.000Z</time>
      </trkpt>
      <trkpt lat="44.82755" lon="5.48698">
        <ele>1618.4</ele>
        <time>2024-05-11T09:02:35.000Z</time>
      </trkpt>
      <trkpt lat="44.82754" lon="5.48696">
        <ele>1618</ele>
        <time>2024-05-11T09:02:40.000Z</time>
      </trkpt>
      <trkpt lat="44.82754" lon="5.487">
        <ele>1618.7</ele>
        <time>2024-05-11T09:02:49.000Z</time>
      </trkpt>
      <trkpt lat="44.82754" lon="5.48699">
        <ele>1618.7</ele>
        <time>2024-05-11T09:02:58.000Z</time>
      </trkpt>
      <trkpt lat="44.82754" lon="5.48699">
        <ele>1618.5</ele>
        <time>2024-05-11T09:03:06.000Z</time>
      </trkpt>
      <trkpt lat="44.82752" lon="5.48699">
        <ele>1618.3</ele>
        <time>2024-05-11T09:03:50.000Z</time>
      </trkpt>
      <trkpt lat="44.82753" lon="5.48698">
        <ele>1618.2</ele>
        <time>2024-05-11T09:04:10.000Z</time>
      </trkpt>
      <trkpt lat="44.82754" lon="5.48699">
        <ele>1618.6</ele>
        <time>2024-05-11T09:04:54.000Z</time>
      </trkpt>
      <trkpt lat="44.82754" lon="5.48696">
        <ele>1618</ele>
        <time>2024-05-11T09:05:26.000Z</time>
      </trkpt>
      <trkpt lat="44.82753" lon="5.48698">
        <ele>1618.3</ele>
        <time>2024-05-11T09:05:29.000Z</time>
      </trkpt>
      <trkpt lat="44.82754" lon="5.48703">
        <ele>1619.4</ele>
        <time>2024-05-11T09:05:33.000Z</time>
      </trkpt>
      <trkpt lat="44.82755" lon="5.48707">
        <ele>1620.4</ele>
        <time>2024-05-11T09:05:38.000Z</time>
      </trkpt>
      <trkpt lat="44.82755" lon="5.48708">
        <ele>1620.6</ele>
        <time>2024-05-11T09:05:39.000Z</time>
      </trkpt>
      <trkpt lat="44.82755" lon="5.48712">
        <ele>1621.6</ele>
        <time>2024-05-11T09:05:44.000Z</time>
      </trkpt>
      <trkpt lat="44.82755" lon="5.48715">
        <ele>1622.4</ele>
        <time>2024-05-11T09:05:48.000Z</time>
      </trkpt>
      <trkpt lat="44.82755" lon="5.48718">
        <ele>1623.1</ele>
        <time>2024-05-11T09:05:52.000Z</time>
      </trkpt>
      <trkpt lat="44.82757" lon="5.48724">
        <ele>1624.6</ele>
        <time>2024-05-11T09:05:58.000Z</time>
      </trkpt>
      <trkpt lat="44.82758" lon="5.48725">
        <ele>1624.8</ele>
        <time>2024-05-11T09:05:59.000Z</time>
      </trkpt>
      <trkpt lat="44.8276" lon="5.48725">
        <ele>1625.3</ele>
        <time>2024-05-11T09:06:03.000Z</time>
      </trkpt>
      <trkpt lat="44.82764" lon="5.48726">
        <ele>1626.1</ele>
        <time>2024-05-11T09:06:08.000Z</time>
      </trkpt>
      <trkpt lat="44.82764" lon="5.48727">
        <ele>1626.3</ele>
        <time>2024-05-11T09:06:09.000Z</time>
      </trkpt>
      <trkpt lat="44.82765" lon="5.48731">
        <ele>1627.2</ele>
        <time>2024-05-11T09:06:13.000Z</time>
      </trkpt>
      <trkpt lat="44.82765" lon="5.48732">
        <ele>1627.4</ele>
        <time>2024-05-11T09:06:15.000Z</time>
      </trkpt>
      <trkpt lat="44.82766" lon="5.48734">
        <ele>1627.7</ele>
        <time>2024-05-11T09:06:19.000Z</time>
      </trkpt>
      <trkpt lat="44.82766" lon="5.48735">
        <ele>1627.9</ele>
        <time>2024-05-11T09:06:25.000Z</time>
      </trkpt>
      <trkpt lat="44.82767" lon="5.48736">
        <ele>1628.1</ele>
        <time>2024-05-11T09:06:26.000Z</time>
      </trkpt>
      <trkpt lat="44.8277" lon="5.48739">
        <ele>1629.2</ele>
        <time>2024-05-11T09:06:31.000Z</time>
      </trkpt>
      <trkpt lat="44.82772" lon="5.48743">
        <ele>1630.1</ele>
        <time>2024-05-11T09:06:36.000Z</time>
      </trkpt>
      <trkpt lat="44.82771" lon="5.48743">
        <ele>1630</ele>
        <time>2024-05-11T09:06:38.000Z</time>
      </trkpt>
      <trkpt lat="44.82769" lon="5.48744">
        <ele>1629.9</ele>
        <time>2024-05-11T09:06:43.000Z</time>
      </trkpt>
      <trkpt lat="44.82768" lon="5.48745">
        <ele>1629.8</ele>
        <time>2024-05-11T09:06:45.000Z</time>
      </trkpt>
      <trkpt lat="44.82767" lon="5.48746">
        <ele>1629.8</ele>
        <time>2024-05-11T09:06:55.000Z</time>
      </trkpt>
      <trkpt lat="44.82767" lon="5.48752">
        <ele>1630.7</ele>
        <time>2024-05-11T09:07:08.000Z</time>
      </trkpt>
      <trkpt lat="44.82769" lon="5.48759">
        <ele>1631.8</ele>
        <time>2024-05-11T09:07:15.000Z</time>
      </trkpt>
      <trkpt lat="44.82772" lon="5.48764">
        <ele>1632.8</ele>
        <time>2024-05-11T09:07:21.000Z</time>
      </trkpt>
      <trkpt lat="44.82772" lon="5.48764">
        <ele>1632.9</ele>
        <time>2024-05-11T09:07:22.000Z</time>
      </trkpt>
      <trkpt lat="44.82777" lon="5.48768">
        <ele>1633.8</ele>
        <time>2024-05-11T09:07:28.000Z</time>
      </trkpt>
      <trkpt lat="44.82777" lon="5.48768">
        <ele>1633.9</ele>
        <time>2024-05-11T09:07:29.000Z</time>
      </trkpt>
      <trkpt lat="44.8278" lon="5.4877">
        <ele>1634.3</ele>
        <time>2024-05-11T09:07:34.000Z</time>
      </trkpt>
      <trkpt lat="44.82783" lon="5.48771">
        <ele>1634.5</ele>
        <time>2024-05-11T09:07:38.000Z</time>
      </trkpt>
      <trkpt lat="44.82784" lon="5.48774">
        <ele>1634.9</ele>
        <time>2024-05-11T09:07:43.000Z</time>
      </trkpt>
      <trkpt lat="44.82784" lon="5.48775">
        <ele>1635</ele>
        <time>2024-05-11T09:07:45.000Z</time>
      </trkpt>
      <trkpt lat="44.82787" lon="5.48778">
        <ele>1635.3</ele>
        <time>2024-05-11T09:07:50.000Z</time>
      </trkpt>
      <trkpt lat="44.82787" lon="5.48778">
        <ele>1635.4</ele>
        <time>2024-05-11T09:07:51.000Z</time>
      </trkpt>
      <trkpt lat="44.82789" lon="5.48779">
        <ele>1635.6</ele>
        <time>2024-05-11T09:07:53.000Z</time>
      </trkpt>
      <trkpt lat="44.82792" lon="5.48781">
        <ele>1635.9</ele>
        <time>2024-05-11T09:07:56.000Z</time>
      </trkpt>
      <trkpt lat="44.82794" lon="5.48783">
        <ele>1636.2</ele>
        <time>2024-05-11T09:07:59.000Z</time>
      </trkpt>
      <trkpt lat="44.82794" lon="5.48784">
        <ele>1636.4</ele>
        <time>2024-05-11T09:08:01.000Z</time>
      </trkpt>
      <trkpt lat="44.82795" lon="5.48786">
        <ele>1636.5</ele>
        <time>2024-05-11T09:08:03.000Z</time>
      </trkpt>
      <trkpt lat="44.82798" lon="5.48788">
        <ele>1636.8</ele>
        <time>2024-05-11T09:08:06.000Z</time>
      </trkpt>
      <trkpt lat="44.82799" lon="5.48789">
        <ele>1636.9</ele>
        <time>2024-05-11T09:08:08.000Z</time>
      </trkpt>
      <trkpt lat="44.828" lon="5.48791">
        <ele>1637</ele>
        <time>2024-05-11T09:08:09.000Z</time>
      </trkpt>
      <trkpt lat="44.82802" lon="5.48792">
        <ele>1637.1</ele>
        <time>2024-05-11T09:08:11.000Z</time>
      </trkpt>
      <trkpt lat="44.82802" lon="5.48793">
        <ele>1637.2</ele>
        <time>2024-05-11T09:08:13.000Z</time>
      </trkpt>
      <trkpt lat="44.82807" lon="5.48799">
        <ele>1637.3</ele>
        <time>2024-05-11T09:08:20.000Z</time>
      </trkpt>
      <trkpt lat="44.82809" lon="5.488">
        <ele>1637</ele>
        <time>2024-05-11T09:08:22.000Z</time>
      </trkpt>
      <trkpt lat="44.8281" lon="5.48802">
        <ele>1636.9</ele>
        <time>2024-05-11T09:08:25.000Z</time>
      </trkpt>
      <trkpt lat="44.8281" lon="5.48806">
        <ele>1637.2</ele>
        <time>2024-05-11T09:08:28.000Z</time>
      </trkpt>
      <trkpt lat="44.82808" lon="5.48812">
        <ele>1638.9</ele>
        <time>2024-05-11T09:08:35.000Z</time>
      </trkpt>
      <trkpt lat="44.8281" lon="5.48818">
        <ele>1639.8</ele>
        <time>2024-05-11T09:08:42.000Z</time>
      </trkpt>
      <trkpt lat="44.82809" lon="5.48822">
        <ele>1640.8</ele>
        <time>2024-05-11T09:08:46.000Z</time>
      </trkpt>
      <trkpt lat="44.8281" lon="5.48823">
        <ele>1640.8</ele>
        <time>2024-05-11T09:08:50.000Z</time>
      </trkpt>
      <trkpt lat="44.82812" lon="5.48828">
        <ele>1641.6</ele>
        <time>2024-05-11T09:08:57.000Z</time>
      </trkpt>
      <trkpt lat="44.82812" lon="5.48829">
        <ele>1641.7</ele>
        <time>2024-05-11T09:08:59.000Z</time>
      </trkpt>
      <trkpt lat="44.82814" lon="5.4883">
        <ele>1641.6</ele>
        <time>2024-05-11T09:09:01.000Z</time>
      </trkpt>
      <trkpt lat="44.82814" lon="5.48832">
        <ele>1641.8</ele>
        <time>2024-05-11T09:09:03.000Z</time>
      </trkpt>
      <trkpt lat="44.82815" lon="5.48834">
        <ele>1642</ele>
        <time>2024-05-11T09:09:06.000Z</time>
      </trkpt>
      <trkpt lat="44.82815" lon="5.48835">
        <ele>1642.3</ele>
        <time>2024-05-11T09:09:08.000Z</time>
      </trkpt>
      <trkpt lat="44.82815" lon="5.4884">
        <ele>1643.2</ele>
        <time>2024-05-11T09:09:13.000Z</time>
      </trkpt>
      <trkpt lat="44.82816" lon="5.4884">
        <ele>1643</ele>
        <time>2024-05-11T09:09:14.000Z</time>
      </trkpt>
      <trkpt lat="44.82819" lon="5.48842">
        <ele>1642.9</ele>
        <time>2024-05-11T09:09:19.000Z</time>
      </trkpt>
      <trkpt lat="44.82818" lon="5.48843">
        <ele>1643.1</ele>
        <time>2024-05-11T09:09:20.000Z</time>
      </trkpt>
      <trkpt lat="44.82817" lon="5.48849">
        <ele>1644.6</ele>
        <time>2024-05-11T09:09:27.000Z</time>
      </trkpt>
      <trkpt lat="44.82817" lon="5.4885">
        <ele>1644.9</ele>
        <time>2024-05-11T09:09:28.000Z</time>
      </trkpt>
      <trkpt lat="44.82818" lon="5.48858">
        <ele>1646.2</ele>
        <time>2024-05-11T09:09:35.000Z</time>
      </trkpt>
      <trkpt lat="44.82818" lon="5.48859">
        <ele>1646.4</ele>
        <time>2024-05-11T09:09:36.000Z</time>
      </trkpt>
      <trkpt lat="44.82822" lon="5.48865">
        <ele>1646.6</ele>
        <time>2024-05-11T09:09:44.000Z</time>
      </trkpt>
      <trkpt lat="44.82825" lon="5.48866">
        <ele>1646.4</ele>
        <time>2024-05-11T09:09:47.000Z</time>
      </trkpt>
      <trkpt lat="44.82828" lon="5.48869">
        <ele>1646.4</ele>
        <time>2024-05-11T09:09:52.000Z</time>
      </trkpt>
      <trkpt lat="44.82829" lon="5.48869">
        <ele>1646.3</ele>
        <time>2024-05-11T09:09:53.000Z</time>
      </trkpt>
      <trkpt lat="44.8283" lon="5.48871">
        <ele>1646.6</ele>
        <time>2024-05-11T09:09:55.000Z</time>
      </trkpt>
      <trkpt lat="44.8283" lon="5.48873">
        <ele>1647</ele>
        <time>2024-05-11T09:09:57.000Z</time>
      </trkpt>
      <trkpt lat="44.82832" lon="5.48876">
        <ele>1647.5</ele>
        <time>2024-05-11T09:10:02.000Z</time>
      </trkpt>
      <trkpt lat="44.82833" lon="5.4888">
        <ele>1648.3</ele>
        <time>2024-05-11T09:10:05.000Z</time>
      </trkpt>
      <trkpt lat="44.82834" lon="5.48881">
        <ele>1648.7</ele>
        <time>2024-05-11T09:10:06.000Z</time>
      </trkpt>
      <trkpt lat="44.82834" lon="5.48884">
        <ele>1649.6</ele>
        <time>2024-05-11T09:10:09.000Z</time>
      </trkpt>
      <trkpt lat="44.82832" lon="5.48887">
        <ele>1650.7</ele>
        <time>2024-05-11T09:10:15.000Z</time>
      </trkpt>
      <trkpt lat="44.82832" lon="5.4889">
        <ele>1651.4</ele>
        <time>2024-05-11T09:10:18.000Z</time>
      </trkpt>
      <trkpt lat="44.82832" lon="5.48892">
        <ele>1651.7</ele>
        <time>2024-05-11T09:10:21.000Z</time>
      </trkpt>
      <trkpt lat="44.82834" lon="5.48896">
        <ele>1652.6</ele>
        <time>2024-05-11T09:10:27.000Z</time>
      </trkpt>
      <trkpt lat="44.82834" lon="5.48898">
        <ele>1653.1</ele>
        <time>2024-05-11T09:10:29.000Z</time>
      </trkpt>
      <trkpt lat="44.82833" lon="5.48905">
        <ele>1654.4</ele>
        <time>2024-05-11T09:10:35.000Z</time>
      </trkpt>
      <trkpt lat="44.82834" lon="5.48905">
        <ele>1654.4</ele>
        <time>2024-05-11T09:10:36.000Z</time>
      </trkpt>
      <trkpt lat="44.82835" lon="5.48905">
        <ele>1654.5</ele>
        <time>2024-05-11T09:10:37.000Z</time>
      </trkpt>
      <trkpt lat="44.82838" lon="5.48909">
        <ele>1655.8</ele>
        <time>2024-05-11T09:10:42.000Z</time>
      </trkpt>
      <trkpt lat="44.82838" lon="5.48913">
        <ele>1656.7</ele>
        <time>2024-05-11T09:10:46.000Z</time>
      </trkpt>
      <trkpt lat="44.82839" lon="5.48915">
        <ele>1657.1</ele>
        <time>2024-05-11T09:10:49.000Z</time>
      </trkpt>
      <trkpt lat="44.82838" lon="5.4892">
        <ele>1658</ele>
        <time>2024-05-11T09:10:56.000Z</time>
      </trkpt>
      <trkpt lat="44.82838" lon="5.4892">
        <ele>1658.1</ele>
        <time>2024-05-11T09:10:57.000Z</time>
      </trkpt>
      <trkpt lat="44.82839" lon="5.48926">
        <ele>1659.3</ele>
        <time>2024-05-11T09:11:05.000Z</time>
      </trkpt>
      <trkpt lat="44.8284" lon="5.48926">
        <ele>1659.4</ele>
        <time>2024-05-11T09:11:06.000Z</time>
      </trkpt>
      <trkpt lat="44.8284" lon="5.48932">
        <ele>1660.4</ele>
        <time>2024-05-11T09:11:10.000Z</time>
      </trkpt>
      <trkpt lat="44.82839" lon="5.48934">
        <ele>1660.5</ele>
        <time>2024-05-11T09:11:13.000Z</time>
      </trkpt>
      <trkpt lat="44.82839" lon="5.48936">
        <ele>1661</ele>
        <time>2024-05-11T09:11:16.000Z</time>
      </trkpt>
      <trkpt lat="44.82839" lon="5.48939">
        <ele>1661.5</ele>
        <time>2024-05-11T09:11:22.000Z</time>
      </trkpt>
      <trkpt lat="44.82841" lon="5.48945">
        <ele>1663.1</ele>
        <time>2024-05-11T09:11:29.000Z</time>
      </trkpt>
      <trkpt lat="44.82842" lon="5.48945">
        <ele>1663.2</ele>
        <time>2024-05-11T09:11:30.000Z</time>
      </trkpt>
      <trkpt lat="44.82841" lon="5.4895">
        <ele>1663.7</ele>
        <time>2024-05-11T09:11:36.000Z</time>
      </trkpt>
      <trkpt lat="44.82839" lon="5.48953">
        <ele>1663.6</ele>
        <time>2024-05-11T09:11:42.000Z</time>
      </trkpt>
      <trkpt lat="44.82839" lon="5.48954">
        <ele>1663.5</ele>
        <time>2024-05-11T09:11:43.000Z</time>
      </trkpt>
      <trkpt lat="44.82835" lon="5.48958">
        <ele>1662.9</ele>
        <time>2024-05-11T09:11:50.000Z</time>
      </trkpt>
      <trkpt lat="44.82834" lon="5.48966">
        <ele>1663.4</ele>
        <time>2024-05-11T09:11:57.000Z</time>
      </trkpt>
      <trkpt lat="44.82836" lon="5.48976">
        <ele>1665</ele>
        <time>2024-05-11T09:12:04.000Z</time>
      </trkpt>
      <trkpt lat="44.82835" lon="5.4898">
        <ele>1664.9</ele>
        <time>2024-05-11T09:12:08.000Z</time>
      </trkpt>
      <trkpt lat="44.82836" lon="5.48982">
        <ele>1665.3</ele>
        <time>2024-05-11T09:12:12.000Z</time>
      </trkpt>
      <trkpt lat="44.82839" lon="5.48988">
        <ele>1666.5</ele>
        <time>2024-05-11T09:12:19.000Z</time>
      </trkpt>
      <trkpt lat="44.8284" lon="5.48996">
        <ele>1667.2</ele>
        <time>2024-05-11T09:12:26.000Z</time>
      </trkpt>
      <trkpt lat="44.82841" lon="5.49006">
        <ele>1668.4</ele>
        <time>2024-05-11T09:12:33.000Z</time>
      </trkpt>
      <trkpt lat="44.82841" lon="5.49008">
        <ele>1668.6</ele>
        <time>2024-05-11T09:12:35.000Z</time>
      </trkpt>
      <trkpt lat="44.82841" lon="5.4901">
        <ele>1668.9</ele>
        <time>2024-05-11T09:12:38.000Z</time>
      </trkpt>
      <trkpt lat="44.82841" lon="5.49016">
        <ele>1669.6</ele>
        <time>2024-05-11T09:12:45.000Z</time>
      </trkpt>
      <trkpt lat="44.82842" lon="5.49018">
        <ele>1670.1</ele>
        <time>2024-05-11T09:12:47.000Z</time>
      </trkpt>
      <trkpt lat="44.82843" lon="5.49021">
        <ele>1670.8</ele>
        <time>2024-05-11T09:12:50.000Z</time>
      </trkpt>
      <trkpt lat="44.82845" lon="5.49023">
        <ele>1671.4</ele>
        <time>2024-05-11T09:12:53.000Z</time>
      </trkpt>
      <trkpt lat="44.82846" lon="5.49025">
        <ele>1672</ele>
        <time>2024-05-11T09:12:56.000Z</time>
      </trkpt>
      <trkpt lat="44.82849" lon="5.49027">
        <ele>1672.9</ele>
        <time>2024-05-11T09:13:00.000Z</time>
      </trkpt>
      <trkpt lat="44.82849" lon="5.4903">
        <ele>1673.2</ele>
        <time>2024-05-11T09:13:04.000Z</time>
      </trkpt>
      <trkpt lat="44.8285" lon="5.49032">
        <ele>1673.6</ele>
        <time>2024-05-11T09:13:08.000Z</time>
      </trkpt>
      <trkpt lat="44.8285" lon="5.49033">
        <ele>1673.7</ele>
        <time>2024-05-11T09:13:10.000Z</time>
      </trkpt>
      <trkpt lat="44.82851" lon="5.49038">
        <ele>1674.3</ele>
        <time>2024-05-11T09:13:16.000Z</time>
      </trkpt>
      <trkpt lat="44.82849" lon="5.49043">
        <ele>1674.5</ele>
        <time>2024-05-11T09:13:22.000Z</time>
      </trkpt>
      <trkpt lat="44.82847" lon="5.49045">
        <ele>1674.3</ele>
        <time>2024-05-11T09:13:25.000Z</time>
      </trkpt>
      <trkpt lat="44.82846" lon="5.49046">
        <ele>1674.3</ele>
        <time>2024-05-11T09:13:28.000Z</time>
      </trkpt>
      <trkpt lat="44.82845" lon="5.49049">
        <ele>1674.5</ele>
        <time>2024-05-11T09:13:32.000Z</time>
      </trkpt>
      <trkpt lat="44.82847" lon="5.49053">
        <ele>1675.1</ele>
        <time>2024-05-11T09:13:36.000Z</time>
      </trkpt>
      <trkpt lat="44.82846" lon="5.49055">
        <ele>1675.3</ele>
        <time>2024-05-11T09:13:40.000Z</time>
      </trkpt>
      <trkpt lat="44.82846" lon="5.49055">
        <ele>1675.2</ele>
        <time>2024-05-11T09:13:42.000Z</time>
      </trkpt>
      <trkpt lat="44.82848" lon="5.49056">
        <ele>1675.6</ele>
        <time>2024-05-11T09:13:48.000Z</time>
      </trkpt>
      <trkpt lat="44.8285" lon="5.49057">
        <ele>1675.9</ele>
        <time>2024-05-11T09:13:51.000Z</time>
      </trkpt>
      <trkpt lat="44.82851" lon="5.49059">
        <ele>1676.3</ele>
        <time>2024-05-11T09:13:55.000Z</time>
      </trkpt>
      <trkpt lat="44.82851" lon="5.49062">
        <ele>1676.6</ele>
        <time>2024-05-11T09:13:59.000Z</time>
      </trkpt>
      <trkpt lat="44.8285" lon="5.49064">
        <ele>1676.6</ele>
        <time>2024-05-11T09:14:03.000Z</time>
      </trkpt>
      <trkpt lat="44.82852" lon="5.49069">
        <ele>1677.4</ele>
        <time>2024-05-11T09:14:09.000Z</time>
      </trkpt>
      <trkpt lat="44.82852" lon="5.4907">
        <ele>1677.5</ele>
        <time>2024-05-11T09:14:11.000Z</time>
      </trkpt>
      <trkpt lat="44.82852" lon="5.49075">
        <ele>1678</ele>
        <time>2024-05-11T09:14:16.000Z</time>
      </trkpt>
      <trkpt lat="44.82851" lon="5.49077">
        <ele>1678.2</ele>
        <time>2024-05-11T09:14:18.000Z</time>
      </trkpt>
      <trkpt lat="44.82851" lon="5.4908">
        <ele>1678.6</ele>
        <time>2024-05-11T09:14:24.000Z</time>
      </trkpt>
      <trkpt lat="44.82852" lon="5.49081">
        <ele>1678.7</ele>
        <time>2024-05-11T09:14:25.000Z</time>
      </trkpt>
      <trkpt lat="44.82852" lon="5.49082">
        <ele>1679</ele>
        <time>2024-05-11T09:14:29.000Z</time>
      </trkpt>
      <trkpt lat="44.82853" lon="5.49086">
        <ele>1679.3</ele>
        <time>2024-05-11T09:14:33.000Z</time>
      </trkpt>
      <trkpt lat="44.82852" lon="5.49089">
        <ele>1679.4</ele>
        <time>2024-05-11T09:14:38.000Z</time>
      </trkpt>
      <trkpt lat="44.82852" lon="5.49092">
        <ele>1679.6</ele>
        <time>2024-05-11T09:14:43.000Z</time>
      </trkpt>
      <trkpt lat="44.82853" lon="5.49092">
        <ele>1679.6</ele>
        <time>2024-05-11T09:14:44.000Z</time>
      </trkpt>
      <trkpt lat="44.82855" lon="5.49097">
        <ele>1680.4</ele>
        <time>2024-05-11T09:14:50.000Z</time>
      </trkpt>
      <trkpt lat="44.82858" lon="5.49102">
        <ele>1681.6</ele>
        <time>2024-05-11T09:14:56.000Z</time>
      </trkpt>
      <trkpt lat="44.8286" lon="5.49104">
        <ele>1682.1</ele>
        <time>2024-05-11T09:14:58.000Z</time>
      </trkpt>
      <trkpt lat="44.82861" lon="5.49108">
        <ele>1682.7</ele>
        <time>2024-05-11T09:15:01.000Z</time>
      </trkpt>
      <trkpt lat="44.82864" lon="5.4912">
        <ele>1683.8</ele>
        <time>2024-05-11T09:15:10.000Z</time>
      </trkpt>
      <trkpt lat="44.82866" lon="5.49128">
        <ele>1684.3</ele>
        <time>2024-05-11T09:15:16.000Z</time>
      </trkpt>
      <trkpt lat="44.82866" lon="5.4913">
        <ele>1684.2</ele>
        <time>2024-05-11T09:15:21.000Z</time>
      </trkpt>
      <trkpt lat="44.82865" lon="5.49131">
        <ele>1683.8</ele>
        <time>2024-05-11T09:15:24.000Z</time>
      </trkpt>
      <trkpt lat="44.82866" lon="5.49132">
        <ele>1683.8</ele>
        <time>2024-05-11T09:15:25.000Z</time>
      </trkpt>
      <trkpt lat="44.82866" lon="5.49133">
        <ele>1684.1</ele>
        <time>2024-05-11T09:15:26.000Z</time>
      </trkpt>
      <trkpt lat="44.82868" lon="5.49133">
        <ele>1684.5</ele>
        <time>2024-05-11T09:15:27.000Z</time>
      </trkpt>
      <trkpt lat="44.82871" lon="5.49139">
        <ele>1685.4</ele>
        <time>2024-05-11T09:15:31.000Z</time>
      </trkpt>
      <trkpt lat="44.82872" lon="5.49141">
        <ele>1685.8</ele>
        <time>2024-05-11T09:15:33.000Z</time>
      </trkpt>
      <trkpt lat="44.82878" lon="5.49147">
        <ele>1687.2</ele>
        <time>2024-05-11T09:15:41.000Z</time>
      </trkpt>
      <trkpt lat="44.8288" lon="5.49147">
        <ele>1688.1</ele>
        <time>2024-05-11T09:15:43.000Z</time>
      </trkpt>
      <trkpt lat="44.82881" lon="5.49147">
        <ele>1688.4</ele>
        <time>2024-05-11T09:15:45.000Z</time>
      </trkpt>
      <trkpt lat="44.82883" lon="5.49149">
        <ele>1688.9</ele>
        <time>2024-05-11T09:15:49.000Z</time>
      </trkpt>
      <trkpt lat="44.82884" lon="5.49152">
        <ele>1688.9</ele>
        <time>2024-05-11T09:15:52.000Z</time>
      </trkpt>
      <trkpt lat="44.82887" lon="5.4915">
        <ele>1690</ele>
        <time>2024-05-11T09:15:55.000Z</time>
      </trkpt>
      <trkpt lat="44.82893" lon="5.49143">
        <ele>1693.3</ele>
        <time>2024-05-11T09:15:57.000Z</time>
      </trkpt>
      <trkpt lat="44.82899" lon="5.49143">
        <ele>1696.6</ele>
        <time>2024-05-11T09:15:59.000Z</time>
      </trkpt>
      <trkpt lat="44.82904" lon="5.49142">
        <ele>1699.4</ele>
        <time>2024-05-11T09:16:01.000Z</time>
      </trkpt>
      <trkpt lat="44.82901" lon="5.49149">
        <ele>1696.7</ele>
        <time>2024-05-11T09:16:03.000Z</time>
      </trkpt>
      <trkpt lat="44.829" lon="5.49151">
        <ele>1696.1</ele>
        <time>2024-05-11T09:16:04.000Z</time>
      </trkpt>
      <trkpt lat="44.82899" lon="5.49154">
        <ele>1695.3</ele>
        <time>2024-05-11T09:16:06.000Z</time>
      </trkpt>
      <trkpt lat="44.829" lon="5.49164">
        <ele>1694</ele>
        <time>2024-05-11T09:16:12.000Z</time>
      </trkpt>
      <trkpt lat="44.82902" lon="5.49168">
        <ele>1694.3</ele>
        <time>2024-05-11T09:16:16.000Z</time>
      </trkpt>
      <trkpt lat="44.82902" lon="5.49169">
        <ele>1694.4</ele>
        <time>2024-05-11T09:16:18.000Z</time>
      </trkpt>
      <trkpt lat="44.82902" lon="5.49174">
        <ele>1693.4</ele>
        <time>2024-05-11T09:16:23.000Z</time>
      </trkpt>
      <trkpt lat="44.82903" lon="5.49179">
        <ele>1692.8</ele>
        <time>2024-05-11T09:16:28.000Z</time>
      </trkpt>
      <trkpt lat="44.82904" lon="5.49184">
        <ele>1692.6</ele>
        <time>2024-05-11T09:16:33.000Z</time>
      </trkpt>
      <trkpt lat="44.82907" lon="5.49185">
        <ele>1693.5</ele>
        <time>2024-05-11T09:16:37.000Z</time>
      </trkpt>
      <trkpt lat="44.82907" lon="5.49185">
        <ele>1693.4</ele>
        <time>2024-05-11T09:16:38.000Z</time>
      </trkpt>
      <trkpt lat="44.82908" lon="5.49187">
        <ele>1693.3</ele>
        <time>2024-05-11T09:16:40.000Z</time>
      </trkpt>
      <trkpt lat="44.82909" lon="5.4919">
        <ele>1693.3</ele>
        <time>2024-05-11T09:16:44.000Z</time>
      </trkpt>
      <trkpt lat="44.82912" lon="5.49196">
        <ele>1693.2</ele>
        <time>2024-05-11T09:16:50.000Z</time>
      </trkpt>
      <trkpt lat="44.82914" lon="5.492">
        <ele>1693.2</ele>
        <time>2024-05-11T09:16:55.000Z</time>
      </trkpt>
      <trkpt lat="44.82919" lon="5.49199">
        <ele>1695.4</ele>
        <time>2024-05-11T09:17:00.000Z</time>
      </trkpt>
      <trkpt lat="44.82919" lon="5.492">
        <ele>1695.3</ele>
        <time>2024-05-11T09:17:01.000Z</time>
      </trkpt>
      <trkpt lat="44.82919" lon="5.49201">
        <ele>1695.2</ele>
        <time>2024-05-11T09:17:02.000Z</time>
      </trkpt>
      <trkpt lat="44.82922" lon="5.49202">
        <ele>1696.6</ele>
        <time>2024-05-11T09:17:06.000Z</time>
      </trkpt>
      <trkpt lat="44.82921" lon="5.49204">
        <ele>1695.8</ele>
        <time>2024-05-11T09:17:07.000Z</time>
      </trkpt>
      <trkpt lat="44.82923" lon="5.49204">
        <ele>1696.6</ele>
        <time>2024-05-11T09:17:10.000Z</time>
      </trkpt>
      <trkpt lat="44.82924" lon="5.49205">
        <ele>1696.8</ele>
        <time>2024-05-11T09:17:12.000Z</time>
      </trkpt>
      <trkpt lat="44.82924" lon="5.49206">
        <ele>1696.9</ele>
        <time>2024-05-11T09:17:13.000Z</time>
      </trkpt>
      <trkpt lat="44.82925" lon="5.49209">
        <ele>1696.9</ele>
        <time>2024-05-11T09:17:17.000Z</time>
      </trkpt>
      <trkpt lat="44.82927" lon="5.49213">
        <ele>1697.1</ele>
        <time>2024-05-11T09:17:21.000Z</time>
      </trkpt>
      <trkpt lat="44.82929" lon="5.49214">
        <ele>1697.5</ele>
        <time>2024-05-11T09:17:24.000Z</time>
      </trkpt>
      <trkpt lat="44.82931" lon="5.49219">
        <ele>1697.3</ele>
        <time>2024-05-11T09:17:28.000Z</time>
      </trkpt>
      <trkpt lat="44.82933" lon="5.49221">
        <ele>1697.7</ele>
        <time>2024-05-11T09:17:31.000Z</time>
      </trkpt>
      <trkpt lat="44.82934" lon="5.49223">
        <ele>1697.7</ele>
        <time>2024-05-11T09:17:33.000Z</time>
      </trkpt>
      <trkpt lat="44.82934" lon="5.49224">
        <ele>1697.3</ele>
        <time>2024-05-11T09:17:34.000Z</time>
      </trkpt>
      <trkpt lat="44.82938" lon="5.49227">
        <ele>1698.6</ele>
        <time>2024-05-11T09:17:40.000Z</time>
      </trkpt>
      <trkpt lat="44.8294" lon="5.49235">
        <ele>1697.4</ele>
        <time>2024-05-11T09:17:46.000Z</time>
      </trkpt>
      <trkpt lat="44.82943" lon="5.49242">
        <ele>1696.9</ele>
        <time>2024-05-11T09:17:52.000Z</time>
      </trkpt>
      <trkpt lat="44.82945" lon="5.49247">
        <ele>1696.9</ele>
        <time>2024-05-11T09:17:57.000Z</time>
      </trkpt>
      <trkpt lat="44.82949" lon="5.49258">
        <ele>1696</ele>
        <time>2024-05-11T09:18:06.000Z</time>
      </trkpt>
      <trkpt lat="44.82953" lon="5.49263">
        <ele>1695.9</ele>
        <time>2024-05-11T09:18:11.000Z</time>
      </trkpt>
      <trkpt lat="44.82954" lon="5.49263">
        <ele>1696.3</ele>
        <time>2024-05-11T09:18:12.000Z</time>
      </trkpt>
      <trkpt lat="44.82956" lon="5.49267">
        <ele>1696</ele>
        <time>2024-05-11T09:18:15.000Z</time>
      </trkpt>
      <trkpt lat="44.82957" lon="5.49268">
        <ele>1696.2</ele>
        <time>2024-05-11T09:18:16.000Z</time>
      </trkpt>
      <trkpt lat="44.82956" lon="5.49271">
        <ele>1695.2</ele>
        <time>2024-05-11T09:18:19.000Z</time>
      </trkpt>
      <trkpt lat="44.82949" lon="5.49283">
        <ele>1689.3</ele>
        <time>2024-05-11T09:18:24.000Z</time>
      </trkpt>
      <trkpt lat="44.8295" lon="5.49284">
        <ele>1689.6</ele>
        <time>2024-05-11T09:18:25.000Z</time>
      </trkpt>
      <trkpt lat="44.82952" lon="5.49285">
        <ele>1690.2</ele>
        <time>2024-05-11T09:18:27.000Z</time>
      </trkpt>
      <trkpt lat="44.82956" lon="5.49288">
        <ele>1690.4</ele>
        <time>2024-05-11T09:18:30.000Z</time>
      </trkpt>
      <trkpt lat="44.82958" lon="5.4929">
        <ele>1690.8</ele>
        <time>2024-05-11T09:18:32.000Z</time>
      </trkpt>
      <trkpt lat="44.82959" lon="5.49291">
        <ele>1691</ele>
        <time>2024-05-11T09:18:33.000Z</time>
      </trkpt>
      <trkpt lat="44.82965" lon="5.49294">
        <ele>1692</ele>
        <time>2024-05-11T09:18:37.000Z</time>
      </trkpt>
      <trkpt lat="44.82967" lon="5.49294">
        <ele>1692.7</ele>
        <time>2024-05-11T09:18:39.000Z</time>
      </trkpt>
      <trkpt lat="44.8297" lon="5.49296">
        <ele>1693</ele>
        <time>2024-05-11T09:18:41.000Z</time>
      </trkpt>
      <trkpt lat="44.82972" lon="5.49296">
        <ele>1693.7</ele>
        <time>2024-05-11T09:18:43.000Z</time>
      </trkpt>
      <trkpt lat="44.82976" lon="5.49299">
        <ele>1694</ele>
        <time>2024-05-11T09:18:46.000Z</time>
      </trkpt>
      <trkpt lat="44.82982" lon="5.49307">
        <ele>1693.2</ele>
        <time>2024-05-11T09:18:53.000Z</time>
      </trkpt>
      <trkpt lat="44.82988" lon="5.49314">
        <ele>1693.2</ele>
        <time>2024-05-11T09:19:01.000Z</time>
      </trkpt>
      <trkpt lat="44.82989" lon="5.49314">
        <ele>1693.7</ele>
        <time>2024-05-11T09:19:02.000Z</time>
      </trkpt>
      <trkpt lat="44.82993" lon="5.49316">
        <ele>1694.1</ele>
        <time>2024-05-11T09:19:06.000Z</time>
      </trkpt>
      <trkpt lat="44.82994" lon="5.49318">
        <ele>1693.8</ele>
        <time>2024-05-11T09:19:07.000Z</time>
      </trkpt>
      <trkpt lat="44.82996" lon="5.49322">
        <ele>1693.3</ele>
        <time>2024-05-11T09:19:11.000Z</time>
      </trkpt>
      <trkpt lat="44.82998" lon="5.49325">
        <ele>1692.9</ele>
        <time>2024-05-11T09:19:13.000Z</time>
      </trkpt>
      <trkpt lat="44.82999" lon="5.49327">
        <ele>1692.6</ele>
        <time>2024-05-11T09:19:15.000Z</time>
      </trkpt>
      <trkpt lat="44.82998" lon="5.49331">
        <ele>1691.4</ele>
        <time>2024-05-11T09:19:16.000Z</time>
      </trkpt>
      <trkpt lat="44.83" lon="5.49332">
        <ele>1691.4</ele>
        <time>2024-05-11T09:19:19.000Z</time>
      </trkpt>
      <trkpt lat="44.83002" lon="5.49336">
        <ele>1691.1</ele>
        <time>2024-05-11T09:19:23.000Z</time>
      </trkpt>
      <trkpt lat="44.83003" lon="5.49339">
        <ele>1691</ele>
        <time>2024-05-11T09:19:25.000Z</time>
      </trkpt>
      <trkpt lat="44.83006" lon="5.4934">
        <ele>1691.4</ele>
        <time>2024-05-11T09:19:28.000Z</time>
      </trkpt>
      <trkpt lat="44.83008" lon="5.49343">
        <ele>1691.4</ele>
        <time>2024-05-11T09:19:31.000Z</time>
      </trkpt>
      <trkpt lat="44.83015" lon="5.49353">
        <ele>1691.3</ele>
        <time>2024-05-11T09:19:39.000Z</time>
      </trkpt>
      <trkpt lat="44.83017" lon="5.49357">
        <ele>1691.1</ele>
        <time>2024-05-11T09:19:42.000Z</time>
      </trkpt>
      <trkpt lat="44.83021" lon="5.49358">
        <ele>1691.9</ele>
        <time>2024-05-11T09:19:45.000Z</time>
      </trkpt>
      <trkpt lat="44.83025" lon="5.49359">
        <ele>1692.7</ele>
        <time>2024-05-11T09:19:48.000Z</time>
      </trkpt>
      <trkpt lat="44.83025" lon="5.4936">
        <ele>1692.5</ele>
        <time>2024-05-11T09:19:49.000Z</time>
      </trkpt>
      <trkpt lat="44.83026" lon="5.49361">
        <ele>1692.5</ele>
        <time>2024-05-11T09:19:50.000Z</time>
      </trkpt>
      <trkpt lat="44.83028" lon="5.49365">
        <ele>1692.5</ele>
        <time>2024-05-11T09:19:53.000Z</time>
      </trkpt>
      <trkpt lat="44.8303" lon="5.49367">
        <ele>1692.8</ele>
        <time>2024-05-11T09:19:56.000Z</time>
      </trkpt>
      <trkpt lat="44.83031" lon="5.4937">
        <ele>1692.6</ele>
        <time>2024-05-11T09:19:59.000Z</time>
      </trkpt>
      <trkpt lat="44.83035" lon="5.49377">
        <ele>1692.8</ele>
        <time>2024-05-11T09:20:05.000Z</time>
      </trkpt>
      <trkpt lat="44.83036" lon="5.49379">
        <ele>1692.7</ele>
        <time>2024-05-11T09:20:06.000Z</time>
      </trkpt>
      <trkpt lat="44.83038" lon="5.49392">
        <ele>1691.7</ele>
        <time>2024-05-11T09:20:11.000Z</time>
      </trkpt>
      <trkpt lat="44.8304" lon="5.49397">
        <ele>1691.9</ele>
        <time>2024-05-11T09:20:15.000Z</time>
      </trkpt>
      <trkpt lat="44.8304" lon="5.49398">
        <ele>1692</ele>
        <time>2024-05-11T09:20:16.000Z</time>
      </trkpt>
      <trkpt lat="44.83041" lon="5.49399">
        <ele>1692.1</ele>
        <time>2024-05-11T09:20:17.000Z</time>
      </trkpt>
      <trkpt lat="44.83045" lon="5.4941">
        <ele>1692.4</ele>
        <time>2024-05-11T09:20:23.000Z</time>
      </trkpt>
      <trkpt lat="44.83046" lon="5.49411">
        <ele>1692.7</ele>
        <time>2024-05-11T09:20:24.000Z</time>
      </trkpt>
      <trkpt lat="44.83048" lon="5.49413">
        <ele>1693.2</ele>
        <time>2024-05-11T09:20:26.000Z</time>
      </trkpt>
      <trkpt lat="44.83049" lon="5.49419">
        <ele>1693</ele>
        <time>2024-05-11T09:20:29.000Z</time>
      </trkpt>
      <trkpt lat="44.83049" lon="5.49434">
        <ele>1692.2</ele>
        <time>2024-05-11T09:20:36.000Z</time>
      </trkpt>
      <trkpt lat="44.83051" lon="5.49437">
        <ele>1692.4</ele>
        <time>2024-05-11T09:20:38.000Z</time>
      </trkpt>
      <trkpt lat="44.83052" lon="5.49439">
        <ele>1692.5</ele>
        <time>2024-05-11T09:20:40.000Z</time>
      </trkpt>
      <trkpt lat="44.83052" lon="5.49441">
        <ele>1692.5</ele>
        <time>2024-05-11T09:20:41.000Z</time>
      </trkpt>
      <trkpt lat="44.83052" lon="5.49443">
        <ele>1692.4</ele>
        <time>2024-05-11T09:20:42.000Z</time>
      </trkpt>
      <trkpt lat="44.83053" lon="5.49446">
        <ele>1692.3</ele>
        <time>2024-05-11T09:20:44.000Z</time>
      </trkpt>
      <trkpt lat="44.83053" lon="5.49453">
        <ele>1692.2</ele>
        <time>2024-05-11T09:20:47.000Z</time>
      </trkpt>
      <trkpt lat="44.83054" lon="5.49454">
        <ele>1692.4</ele>
        <time>2024-05-11T09:20:49.000Z</time>
      </trkpt>
      <trkpt lat="44.83057" lon="5.49458">
        <ele>1692.7</ele>
        <time>2024-05-11T09:20:52.000Z</time>
      </trkpt>
      <trkpt lat="44.83057" lon="5.49459">
        <ele>1692.7</ele>
        <time>2024-05-11T09:20:53.000Z</time>
      </trkpt>
      <trkpt lat="44.83057" lon="5.49462">
        <ele>1692.7</ele>
        <time>2024-05-11T09:20:55.000Z</time>
      </trkpt>
      <trkpt lat="44.83059" lon="5.49467">
        <ele>1692.9</ele>
        <time>2024-05-11T09:20:58.000Z</time>
      </trkpt>
      <trkpt lat="44.83063" lon="5.49473">
        <ele>1693.3</ele>
        <time>2024-05-11T09:21:02.000Z</time>
      </trkpt>
      <trkpt lat="44.83064" lon="5.49475">
        <ele>1693.4</ele>
        <time>2024-05-11T09:21:04.000Z</time>
      </trkpt>
      <trkpt lat="44.83066" lon="5.49479">
        <ele>1693.6</ele>
        <time>2024-05-11T09:21:06.000Z</time>
      </trkpt>
      <trkpt lat="44.83068" lon="5.49482">
        <ele>1693.9</ele>
        <time>2024-05-11T09:21:09.000Z</time>
      </trkpt>
      <trkpt lat="44.83076" lon="5.49489">
        <ele>1695</ele>
        <time>2024-05-11T09:21:16.000Z</time>
      </trkpt>
      <trkpt lat="44.83076" lon="5.4949">
        <ele>1695</ele>
        <time>2024-05-11T09:21:17.000Z</time>
      </trkpt>
      <trkpt lat="44.83078" lon="5.49494">
        <ele>1695.3</ele>
        <time>2024-05-11T09:21:20.000Z</time>
      </trkpt>
      <trkpt lat="44.83079" lon="5.49496">
        <ele>1695.4</ele>
        <time>2024-05-11T09:21:22.000Z</time>
      </trkpt>
      <trkpt lat="44.83081" lon="5.49499">
        <ele>1695.7</ele>
        <time>2024-05-11T09:21:26.000Z</time>
      </trkpt>
      <trkpt lat="44.83084" lon="5.495">
        <ele>1696</ele>
        <time>2024-05-11T09:21:28.000Z</time>
      </trkpt>
      <trkpt lat="44.83087" lon="5.49502">
        <ele>1696.4</ele>
        <time>2024-05-11T09:21:30.000Z</time>
      </trkpt>
      <trkpt lat="44.83092" lon="5.49503">
        <ele>1697.1</ele>
        <time>2024-05-11T09:21:32.000Z</time>
      </trkpt>
      <trkpt lat="44.83094" lon="5.49506">
        <ele>1697.4</ele>
        <time>2024-05-11T09:21:34.000Z</time>
      </trkpt>
      <trkpt lat="44.83091" lon="5.49515">
        <ele>1696.7</ele>
        <time>2024-05-11T09:21:38.000Z</time>
      </trkpt>
      <trkpt lat="44.83089" lon="5.49519">
        <ele>1696.3</ele>
        <time>2024-05-11T09:21:40.000Z</time>
      </trkpt>
      <trkpt lat="44.8309" lon="5.49521">
        <ele>1696.4</ele>
        <time>2024-05-11T09:21:42.000Z</time>
      </trkpt>
      <trkpt lat="44.83092" lon="5.49524">
        <ele>1696.6</ele>
        <time>2024-05-11T09:21:45.000Z</time>
      </trkpt>
      <trkpt lat="44.83093" lon="5.49524">
        <ele>1696.9</ele>
        <time>2024-05-11T09:21:46.000Z</time>
      </trkpt>
      <trkpt lat="44.83094" lon="5.49526">
        <ele>1697</ele>
        <time>2024-05-11T09:21:48.000Z</time>
      </trkpt>
      <trkpt lat="44.83096" lon="5.49527">
        <ele>1697.2</ele>
        <time>2024-05-11T09:21:50.000Z</time>
      </trkpt>
      <trkpt lat="44.83097" lon="5.49528">
        <ele>1697.4</ele>
        <time>2024-05-11T09:21:51.000Z</time>
      </trkpt>
      <trkpt lat="44.83098" lon="5.49531">
        <ele>1697.5</ele>
        <time>2024-05-11T09:21:53.000Z</time>
      </trkpt>
      <trkpt lat="44.83102" lon="5.49534">
        <ele>1698</ele>
        <time>2024-05-11T09:21:56.000Z</time>
      </trkpt>
      <trkpt lat="44.83103" lon="5.49534">
        <ele>1698.2</ele>
        <time>2024-05-11T09:21:57.000Z</time>
      </trkpt>
      <trkpt lat="44.83105" lon="5.49536">
        <ele>1698.4</ele>
        <time>2024-05-11T09:21:59.000Z</time>
      </trkpt>
      <trkpt lat="44.83108" lon="5.4954">
        <ele>1698.6</ele>
        <time>2024-05-11T09:22:03.000Z</time>
      </trkpt>
      <trkpt lat="44.83109" lon="5.49541">
        <ele>1698.7</ele>
        <time>2024-05-11T09:22:04.000Z</time>
      </trkpt>
      <trkpt lat="44.83112" lon="5.49542">
        <ele>1699.1</ele>
        <time>2024-05-11T09:22:07.000Z</time>
      </trkpt>
      <trkpt lat="44.83114" lon="5.49542">
        <ele>1699.3</ele>
        <time>2024-05-11T09:22:09.000Z</time>
      </trkpt>
      <trkpt lat="44.83114" lon="5.49543">
        <ele>1699.3</ele>
        <time>2024-05-11T09:22:10.000Z</time>
      </trkpt>
      <trkpt lat="44.83118" lon="5.49547">
        <ele>1699.5</ele>
        <time>2024-05-11T09:22:15.000Z</time>
      </trkpt>
      <trkpt lat="44.8312" lon="5.49548">
        <ele>1699.7</ele>
        <time>2024-05-11T09:22:17.000Z</time>
      </trkpt>
      <trkpt lat="44.8313" lon="5.49554">
        <ele>1700.8</ele>
        <time>2024-05-11T09:22:24.000Z</time>
      </trkpt>
      <trkpt lat="44.83136" lon="5.49557">
        <ele>1701.5</ele>
        <time>2024-05-11T09:22:27.000Z</time>
      </trkpt>
      <trkpt lat="44.83136" lon="5.4956">
        <ele>1701.6</ele>
        <time>2024-05-11T09:22:29.000Z</time>
      </trkpt>
      <trkpt lat="44.8314" lon="5.49562">
        <ele>1702.1</ele>
        <time>2024-05-11T09:22:33.000Z</time>
      </trkpt>
      <trkpt lat="44.8314" lon="5.49563">
        <ele>1702.1</ele>
        <time>2024-05-11T09:22:34.000Z</time>
      </trkpt>
      <trkpt lat="44.8314" lon="5.49564">
        <ele>1702.1</ele>
        <time>2024-05-11T09:22:36.000Z</time>
      </trkpt>
      <trkpt lat="44.83138" lon="5.49566">
        <ele>1701.9</ele>
        <time>2024-05-11T09:22:38.000Z</time>
      </trkpt>
      <trkpt lat="44.8314" lon="5.49568">
        <ele>1702.2</ele>
        <time>2024-05-11T09:22:41.000Z</time>
      </trkpt>
      <trkpt lat="44.83143" lon="5.49569">
        <ele>1702.5</ele>
        <time>2024-05-11T09:22:44.000Z</time>
      </trkpt>
      <trkpt lat="44.83146" lon="5.49571">
        <ele>1702.9</ele>
        <time>2024-05-11T09:22:48.000Z</time>
      </trkpt>
      <trkpt lat="44.8315" lon="5.49576">
        <ele>1703.3</ele>
        <time>2024-05-11T09:22:55.000Z</time>
      </trkpt>
      <trkpt lat="44.8315" lon="5.49577">
        <ele>1703.3</ele>
        <time>2024-05-11T09:22:56.000Z</time>
      </trkpt>
      <trkpt lat="44.83149" lon="5.4958">
        <ele>1703.2</ele>
        <time>2024-05-11T09:22:59.000Z</time>
      </trkpt>
      <trkpt lat="44.83151" lon="5.49582">
        <ele>1703.3</ele>
        <time>2024-05-11T09:23:02.000Z</time>
      </trkpt>
      <trkpt lat="44.83152" lon="5.49582">
        <ele>1703.5</ele>
        <time>2024-05-11T09:23:04.000Z</time>
      </trkpt>
      <trkpt lat="44.83159" lon="5.49584">
        <ele>1704.2</ele>
        <time>2024-05-11T09:23:10.000Z</time>
      </trkpt>
      <trkpt lat="44.83162" lon="5.49588">
        <ele>1704.5</ele>
        <time>2024-05-11T09:23:14.000Z</time>
      </trkpt>
      <trkpt lat="44.83163" lon="5.49589">
        <ele>1704.6</ele>
        <time>2024-05-11T09:23:15.000Z</time>
      </trkpt>
      <trkpt lat="44.83166" lon="5.49592">
        <ele>1704.9</ele>
        <time>2024-05-11T09:23:19.000Z</time>
      </trkpt>
      <trkpt lat="44.83166" lon="5.49596">
        <ele>1705</ele>
        <time>2024-05-11T09:23:22.000Z</time>
      </trkpt>
      <trkpt lat="44.83167" lon="5.49601">
        <ele>1705.1</ele>
        <time>2024-05-11T09:23:25.000Z</time>
      </trkpt>
      <trkpt lat="44.83167" lon="5.49602">
        <ele>1705.1</ele>
        <time>2024-05-11T09:23:26.000Z</time>
      </trkpt>
      <trkpt lat="44.83166" lon="5.49605">
        <ele>1704.9</ele>
        <time>2024-05-11T09:23:28.000Z</time>
      </trkpt>
      <trkpt lat="44.83165" lon="5.49608">
        <ele>1704.9</ele>
        <time>2024-05-11T09:23:30.000Z</time>
      </trkpt>
      <trkpt lat="44.83166" lon="5.49614">
        <ele>1705.1</ele>
        <time>2024-05-11T09:23:34.000Z</time>
      </trkpt>
      <trkpt lat="44.83167" lon="5.49619">
        <ele>1705.3</ele>
        <time>2024-05-11T09:23:38.000Z</time>
      </trkpt>
      <trkpt lat="44.83169" lon="5.49626">
        <ele>1706.2</ele>
        <time>2024-05-11T09:23:43.000Z</time>
      </trkpt>
      <trkpt lat="44.8317" lon="5.49628">
        <ele>1706.6</ele>
        <time>2024-05-11T09:23:45.000Z</time>
      </trkpt>
      <trkpt lat="44.83171" lon="5.4963">
        <ele>1706.9</ele>
        <time>2024-05-11T09:23:47.000Z</time>
      </trkpt>
      <trkpt lat="44.83172" lon="5.49631">
        <ele>1707.1</ele>
        <time>2024-05-11T09:23:48.000Z</time>
      </trkpt>
      <trkpt lat="44.83172" lon="5.49632">
        <ele>1707.2</ele>
        <time>2024-05-11T09:23:49.000Z</time>
      </trkpt>
      <trkpt lat="44.83175" lon="5.49635">
        <ele>1708</ele>
        <time>2024-05-11T09:23:52.000Z</time>
      </trkpt>
      <trkpt lat="44.83181" lon="5.49633">
        <ele>1709.5</ele>
        <time>2024-05-11T09:23:54.000Z</time>
      </trkpt>
      <trkpt lat="44.83186" lon="5.4963">
        <ele>1710.9</ele>
        <time>2024-05-11T09:23:57.000Z</time>
      </trkpt>
      <trkpt lat="44.83186" lon="5.49631">
        <ele>1710.8</ele>
        <time>2024-05-11T09:23:58.000Z</time>
      </trkpt>
      <trkpt lat="44.83184" lon="5.4964">
        <ele>1710.3</ele>
        <time>2024-05-11T09:24:01.000Z</time>
      </trkpt>
      <trkpt lat="44.83182" lon="5.4965">
        <ele>1710.1</ele>
        <time>2024-05-11T09:24:06.000Z</time>
      </trkpt>
      <trkpt lat="44.83183" lon="5.49649">
        <ele>1710.4</ele>
        <time>2024-05-11T09:24:07.000Z</time>
      </trkpt>
      <trkpt lat="44.83184" lon="5.49653">
        <ele>1710.6</ele>
        <time>2024-05-11T09:24:14.000Z</time>
      </trkpt>
      <trkpt lat="44.83184" lon="5.49654">
        <ele>1710.7</ele>
        <time>2024-05-11T09:24:15.000Z</time>
      </trkpt>
      <trkpt lat="44.83185" lon="5.49655">
        <ele>1710.8</ele>
        <time>2024-05-11T09:24:18.000Z</time>
      </trkpt>
      <trkpt lat="44.83187" lon="5.49659">
        <ele>1711.2</ele>
        <time>2024-05-11T09:24:23.000Z</time>
      </trkpt>
      <trkpt lat="44.83187" lon="5.4966">
        <ele>1711.1</ele>
        <time>2024-05-11T09:24:24.000Z</time>
      </trkpt>
      <trkpt lat="44.83189" lon="5.49663">
        <ele>1711.5</ele>
        <time>2024-05-11T09:24:29.000Z</time>
      </trkpt>
      <trkpt lat="44.83191" lon="5.49664">
        <ele>1711.7</ele>
        <time>2024-05-11T09:24:30.000Z</time>
      </trkpt>
      <trkpt lat="44.83193" lon="5.49664">
        <ele>1711.9</ele>
        <time>2024-05-11T09:24:32.000Z</time>
      </trkpt>
      <trkpt lat="44.83194" lon="5.49665">
        <ele>1711.9</ele>
        <time>2024-05-11T09:24:33.000Z</time>
      </trkpt>
      <trkpt lat="44.83194" lon="5.49668">
        <ele>1711.9</ele>
        <time>2024-05-11T09:24:35.000Z</time>
      </trkpt>
      <trkpt lat="44.83195" lon="5.49669">
        <ele>1711.9</ele>
        <time>2024-05-11T09:24:36.000Z</time>
      </trkpt>
      <trkpt lat="44.83202" lon="5.49669">
        <ele>1713.1</ele>
        <time>2024-05-11T09:24:40.000Z</time>
      </trkpt>
      <trkpt lat="44.83209" lon="5.49673">
        <ele>1714</ele>
        <time>2024-05-11T09:24:42.000Z</time>
      </trkpt>
      <trkpt lat="44.83211" lon="5.49672">
        <ele>1714.4</ele>
        <time>2024-05-11T09:24:43.000Z</time>
      </trkpt>
      <trkpt lat="44.83212" lon="5.49672">
        <ele>1714.4</ele>
        <time>2024-05-11T09:24:44.000Z</time>
      </trkpt>
      <trkpt lat="44.83213" lon="5.4967">
        <ele>1714.6</ele>
        <time>2024-05-11T09:24:45.000Z</time>
      </trkpt>
      <trkpt lat="44.83211" lon="5.49674">
        <ele>1714.2</ele>
        <time>2024-05-11T09:24:47.000Z</time>
      </trkpt>
      <trkpt lat="44.83208" lon="5.49678">
        <ele>1713.8</ele>
        <time>2024-05-11T09:24:48.000Z</time>
      </trkpt>
      <trkpt lat="44.83207" lon="5.49684">
        <ele>1713.4</ele>
        <time>2024-05-11T09:24:50.000Z</time>
      </trkpt>
      <trkpt lat="44.83207" lon="5.49689">
        <ele>1713.3</ele>
        <time>2024-05-11T09:24:52.000Z</time>
      </trkpt>
      <trkpt lat="44.83206" lon="5.49693">
        <ele>1713.1</ele>
        <time>2024-05-11T09:24:55.000Z</time>
      </trkpt>
      <trkpt lat="44.83204" lon="5.497">
        <ele>1713.1</ele>
        <time>2024-05-11T09:25:00.000Z</time>
      </trkpt>
      <trkpt lat="44.83198" lon="5.49703">
        <ele>1712.5</ele>
        <time>2024-05-11T09:25:02.000Z</time>
      </trkpt>
      <trkpt lat="44.83199" lon="5.49704">
        <ele>1712.7</ele>
        <time>2024-05-11T09:25:04.000Z</time>
      </trkpt>
      <trkpt lat="44.832" lon="5.49704">
        <ele>1713</ele>
        <time>2024-05-11T09:25:05.000Z</time>
      </trkpt>
      <trkpt lat="44.83203" lon="5.49706">
        <ele>1713.4</ele>
        <time>2024-05-11T09:25:07.000Z</time>
      </trkpt>
      <trkpt lat="44.83208" lon="5.49708">
        <ele>1714.5</ele>
        <time>2024-05-11T09:25:11.000Z</time>
      </trkpt>
      <trkpt lat="44.83209" lon="5.49709">
        <ele>1714.7</ele>
        <time>2024-05-11T09:25:12.000Z</time>
      </trkpt>
      <trkpt lat="44.83209" lon="5.49711">
        <ele>1714.8</ele>
        <time>2024-05-11T09:25:13.000Z</time>
      </trkpt>
      <trkpt lat="44.8321" lon="5.49711">
        <ele>1714.9</ele>
        <time>2024-05-11T09:25:14.000Z</time>
      </trkpt>
      <trkpt lat="44.8321" lon="5.49712">
        <ele>1715</ele>
        <time>2024-05-11T09:25:15.000Z</time>
      </trkpt>
      <trkpt lat="44.83208" lon="5.49716">
        <ele>1715</ele>
        <time>2024-05-11T09:25:19.000Z</time>
      </trkpt>
      <trkpt lat="44.83208" lon="5.49717">
        <ele>1715.1</ele>
        <time>2024-05-11T09:25:21.000Z</time>
      </trkpt>
      <trkpt lat="44.8321" lon="5.4972">
        <ele>1715.5</ele>
        <time>2024-05-11T09:25:26.000Z</time>
      </trkpt>
      <trkpt lat="44.83212" lon="5.49723">
        <ele>1716</ele>
        <time>2024-05-11T09:25:32.000Z</time>
      </trkpt>
      <trkpt lat="44.83212" lon="5.49724">
        <ele>1716.2</ele>
        <time>2024-05-11T09:25:33.000Z</time>
      </trkpt>
      <trkpt lat="44.83213" lon="5.4973">
        <ele>1717</ele>
        <time>2024-05-11T09:25:39.000Z</time>
      </trkpt>
      <trkpt lat="44.83214" lon="5.49732">
        <ele>1717.4</ele>
        <time>2024-05-11T09:25:43.000Z</time>
      </trkpt>
      <trkpt lat="44.83214" lon="5.49733">
        <ele>1717.5</ele>
        <time>2024-05-11T09:25:44.000Z</time>
      </trkpt>
      <trkpt lat="44.83217" lon="5.49736">
        <ele>1718.3</ele>
        <time>2024-05-11T09:25:49.000Z</time>
      </trkpt>
      <trkpt lat="44.83217" lon="5.49737">
        <ele>1718.4</ele>
        <time>2024-05-11T09:25:50.000Z</time>
      </trkpt>
      <trkpt lat="44.83218" lon="5.49738">
        <ele>1718.7</ele>
        <time>2024-05-11T09:25:52.000Z</time>
      </trkpt>
      <trkpt lat="44.83219" lon="5.4974">
        <ele>1719</ele>
        <time>2024-05-11T09:25:54.000Z</time>
      </trkpt>
      <trkpt lat="44.83223" lon="5.49743">
        <ele>1720.1</ele>
        <time>2024-05-11T09:25:58.000Z</time>
      </trkpt>
      <trkpt lat="44.83224" lon="5.49744">
        <ele>1720.4</ele>
        <time>2024-05-11T09:26:00.000Z</time>
      </trkpt>
      <trkpt lat="44.83224" lon="5.49745">
        <ele>1720.5</ele>
        <time>2024-05-11T09:26:01.000Z</time>
      </trkpt>
      <trkpt lat="44.83225" lon="5.49745">
        <ele>1720.7</ele>
        <time>2024-05-11T09:26:02.000Z</time>
      </trkpt>
      <trkpt lat="44.83226" lon="5.49747">
        <ele>1721.4</ele>
        <time>2024-05-11T09:26:06.000Z</time>
      </trkpt>
      <trkpt lat="44.83227" lon="5.49749">
        <ele>1721.8</ele>
        <time>2024-05-11T09:26:08.000Z</time>
      </trkpt>
      <trkpt lat="44.83226" lon="5.49751">
        <ele>1721.8</ele>
        <time>2024-05-11T09:26:11.000Z</time>
      </trkpt>
      <trkpt lat="44.83228" lon="5.49751">
        <ele>1722.3</ele>
        <time>2024-05-11T09:26:13.000Z</time>
      </trkpt>
      <trkpt lat="44.83231" lon="5.49754">
        <ele>1723</ele>
        <time>2024-05-11T09:26:15.000Z</time>
      </trkpt>
      <trkpt lat="44.83231" lon="5.49756">
        <ele>1723.3</ele>
        <time>2024-05-11T09:26:16.000Z</time>
      </trkpt>
      <trkpt lat="44.83234" lon="5.49758">
        <ele>1724</ele>
        <time>2024-05-11T09:26:18.000Z</time>
      </trkpt>
      <trkpt lat="44.83235" lon="5.49761">
        <ele>1724.5</ele>
        <time>2024-05-11T09:26:20.000Z</time>
      </trkpt>
      <trkpt lat="44.83236" lon="5.49763">
        <ele>1725</ele>
        <time>2024-05-11T09:26:22.000Z</time>
      </trkpt>
      <trkpt lat="44.83234" lon="5.49768">
        <ele>1724.7</ele>
        <time>2024-05-11T09:26:28.000Z</time>
      </trkpt>
      <trkpt lat="44.83236" lon="5.49769">
        <ele>1725.3</ele>
        <time>2024-05-11T09:26:30.000Z</time>
      </trkpt>
      <trkpt lat="44.83236" lon="5.49775">
        <ele>1725.9</ele>
        <time>2024-05-11T09:26:36.000Z</time>
      </trkpt>
      <trkpt lat="44.83235" lon="5.49777">
        <ele>1725.5</ele>
        <time>2024-05-11T09:26:39.000Z</time>
      </trkpt>
      <trkpt lat="44.83235" lon="5.49779">
        <ele>1725.6</ele>
        <time>2024-05-11T09:26:42.000Z</time>
      </trkpt>
      <trkpt lat="44.83237" lon="5.49781">
        <ele>1726.1</ele>
        <time>2024-05-11T09:26:44.000Z</time>
      </trkpt>
      <trkpt lat="44.83238" lon="5.49782">
        <ele>1726.5</ele>
        <time>2024-05-11T09:26:46.000Z</time>
      </trkpt>
      <trkpt lat="44.83239" lon="5.49783">
        <ele>1726.8</ele>
        <time>2024-05-11T09:26:47.000Z</time>
      </trkpt>
      <trkpt lat="44.8324" lon="5.49784">
        <ele>1727</ele>
        <time>2024-05-11T09:26:48.000Z</time>
      </trkpt>
      <trkpt lat="44.83242" lon="5.49786">
        <ele>1727.5</ele>
        <time>2024-05-11T09:26:51.000Z</time>
      </trkpt>
      <trkpt lat="44.83244" lon="5.49792">
        <ele>1728.1</ele>
        <time>2024-05-11T09:26:56.000Z</time>
      </trkpt>
      <trkpt lat="44.83244" lon="5.49792">
        <ele>1728.2</ele>
        <time>2024-05-11T09:26:57.000Z</time>
      </trkpt>
      <trkpt lat="44.83247" lon="5.49797">
        <ele>1728.9</ele>
        <time>2024-05-11T09:27:03.000Z</time>
      </trkpt>
      <trkpt lat="44.83247" lon="5.49801">
        <ele>1729.1</ele>
        <time>2024-05-11T09:27:06.000Z</time>
      </trkpt>
      <trkpt lat="44.83248" lon="5.49801">
        <ele>1729.4</ele>
        <time>2024-05-11T09:27:08.000Z</time>
      </trkpt>
      <trkpt lat="44.8325" lon="5.49804">
        <ele>1730</ele>
        <time>2024-05-11T09:27:13.000Z</time>
      </trkpt>
      <trkpt lat="44.83252" lon="5.49808">
        <ele>1730.8</ele>
        <time>2024-05-11T09:27:18.000Z</time>
      </trkpt>
      <trkpt lat="44.83252" lon="5.49808">
        <ele>1730.9</ele>
        <time>2024-05-11T09:27:19.000Z</time>
      </trkpt>
      <trkpt lat="44.83253" lon="5.49811">
        <ele>1731.2</ele>
        <time>2024-05-11T09:27:23.000Z</time>
      </trkpt>
      <trkpt lat="44.83253" lon="5.49814">
        <ele>1731.5</ele>
        <time>2024-05-11T09:27:29.000Z</time>
      </trkpt>
      <trkpt lat="44.83254" lon="5.49814">
        <ele>1731.9</ele>
        <time>2024-05-11T09:27:30.000Z</time>
      </trkpt>
      <trkpt lat="44.83256" lon="5.49817">
        <ele>1732.7</ele>
        <time>2024-05-11T09:27:35.000Z</time>
      </trkpt>
      <trkpt lat="44.83255" lon="5.49821">
        <ele>1732.4</ele>
        <time>2024-05-11T09:27:40.000Z</time>
      </trkpt>
      <trkpt lat="44.83256" lon="5.49821">
        <ele>1732.7</ele>
        <time>2024-05-11T09:27:42.000Z</time>
      </trkpt>
      <trkpt lat="44.83257" lon="5.49824">
        <ele>1733.5</ele>
        <time>2024-05-11T09:27:48.000Z</time>
      </trkpt>
      <trkpt lat="44.83261" lon="5.49825">
        <ele>1734.9</ele>
        <time>2024-05-11T09:27:54.000Z</time>
      </trkpt>
      <trkpt lat="44.83263" lon="5.49828">
        <ele>1735.6</ele>
        <time>2024-05-11T09:27:58.000Z</time>
      </trkpt>
      <trkpt lat="44.83263" lon="5.49829">
        <ele>1735.5</ele>
        <time>2024-05-11T09:27:59.000Z</time>
      </trkpt>
      <trkpt lat="44.83262" lon="5.49832">
        <ele>1735.3</ele>
        <time>2024-05-11T09:28:03.000Z</time>
      </trkpt>
      <trkpt lat="44.83263" lon="5.49833">
        <ele>1735.6</ele>
        <time>2024-05-11T09:28:05.000Z</time>
      </trkpt>
      <trkpt lat="44.83264" lon="5.49835">
        <ele>1736.1</ele>
        <time>2024-05-11T09:28:10.000Z</time>
      </trkpt>
      <trkpt lat="44.83265" lon="5.49837">
        <ele>1736.4</ele>
        <time>2024-05-11T09:28:13.000Z</time>
      </trkpt>
      <trkpt lat="44.83265" lon="5.4984">
        <ele>1736.6</ele>
        <time>2024-05-11T09:28:17.000Z</time>
      </trkpt>
      <trkpt lat="44.83266" lon="5.49841">
        <ele>1736.7</ele>
        <time>2024-05-11T09:28:18.000Z</time>
      </trkpt>
      <trkpt lat="44.83268" lon="5.49841">
        <ele>1737.4</ele>
        <time>2024-05-11T09:28:23.000Z</time>
      </trkpt>
      <trkpt lat="44.83269" lon="5.49844">
        <ele>1737.7</ele>
        <time>2024-05-11T09:28:27.000Z</time>
      </trkpt>
      <trkpt lat="44.83269" lon="5.49845">
        <ele>1737.7</ele>
        <time>2024-05-11T09:28:28.000Z</time>
      </trkpt>
      <trkpt lat="44.83269" lon="5.49852">
        <ele>1737.8</ele>
        <time>2024-05-11T09:28:34.000Z</time>
      </trkpt>
      <trkpt lat="44.83271" lon="5.49854">
        <ele>1738.4</ele>
        <time>2024-05-11T09:28:38.000Z</time>
      </trkpt>
      <trkpt lat="44.83273" lon="5.49856">
        <ele>1738.8</ele>
        <time>2024-05-11T09:28:40.000Z</time>
      </trkpt>
      <trkpt lat="44.83273" lon="5.49858">
        <ele>1738.8</ele>
        <time>2024-05-11T09:28:42.000Z</time>
      </trkpt>
      <trkpt lat="44.83273" lon="5.4986">
        <ele>1738.8</ele>
        <time>2024-05-11T09:28:43.000Z</time>
      </trkpt>
      <trkpt lat="44.83275" lon="5.49865">
        <ele>1739.1</ele>
        <time>2024-05-11T09:28:49.000Z</time>
      </trkpt>
      <trkpt lat="44.83278" lon="5.4987">
        <ele>1739.3</ele>
        <time>2024-05-11T09:28:55.000Z</time>
      </trkpt>
      <trkpt lat="44.8328" lon="5.49876">
        <ele>1739.6</ele>
        <time>2024-05-11T09:29:01.000Z</time>
      </trkpt>
      <trkpt lat="44.83283" lon="5.49882">
        <ele>1740.3</ele>
        <time>2024-05-11T09:29:07.000Z</time>
      </trkpt>
      <trkpt lat="44.83283" lon="5.49887">
        <ele>1740</ele>
        <time>2024-05-11T09:29:11.000Z</time>
      </trkpt>
      <trkpt lat="44.83283" lon="5.4989">
        <ele>1739.7</ele>
        <time>2024-05-11T09:29:13.000Z</time>
      </trkpt>
      <trkpt lat="44.83285" lon="5.49896">
        <ele>1739.8</ele>
        <time>2024-05-11T09:29:19.000Z</time>
      </trkpt>
      <trkpt lat="44.83287" lon="5.49902">
        <ele>1739.5</ele>
        <time>2024-05-11T09:29:23.000Z</time>
      </trkpt>
      <trkpt lat="44.83288" lon="5.49905">
        <ele>1739.4</ele>
        <time>2024-05-11T09:29:25.000Z</time>
      </trkpt>
      <trkpt lat="44.83289" lon="5.49909">
        <ele>1739.5</ele>
        <time>2024-05-11T09:29:28.000Z</time>
      </trkpt>
      <trkpt lat="44.83291" lon="5.49915">
        <ele>1739.5</ele>
        <time>2024-05-11T09:29:33.000Z</time>
      </trkpt>
      <trkpt lat="44.83294" lon="5.49922">
        <ele>1739.9</ele>
        <time>2024-05-11T09:29:40.000Z</time>
      </trkpt>
      <trkpt lat="44.83296" lon="5.49925">
        <ele>1740.3</ele>
        <time>2024-05-11T09:29:43.000Z</time>
      </trkpt>
      <trkpt lat="44.83299" lon="5.4993">
        <ele>1741.1</ele>
        <time>2024-05-11T09:29:48.000Z</time>
      </trkpt>
      <trkpt lat="44.83304" lon="5.49934">
        <ele>1742.7</ele>
        <time>2024-05-11T09:29:54.000Z</time>
      </trkpt>
      <trkpt lat="44.83305" lon="5.49937">
        <ele>1742.7</ele>
        <time>2024-05-11T09:29:58.000Z</time>
      </trkpt>
      <trkpt lat="44.83308" lon="5.49941">
        <ele>1743.3</ele>
        <time>2024-05-11T09:30:03.000Z</time>
      </trkpt>
      <trkpt lat="44.8331" lon="5.49943">
        <ele>1744.2</ele>
        <time>2024-05-11T09:30:07.000Z</time>
      </trkpt>
      <trkpt lat="44.83313" lon="5.49948">
        <ele>1744.9</ele>
        <time>2024-05-11T09:30:12.000Z</time>
      </trkpt>
      <trkpt lat="44.83315" lon="5.49949">
        <ele>1745.5</ele>
        <time>2024-05-11T09:30:14.000Z</time>
      </trkpt>
      <trkpt lat="44.83316" lon="5.4995">
        <ele>1745.6</ele>
        <time>2024-05-11T09:30:15.000Z</time>
      </trkpt>
      <trkpt lat="44.83316" lon="5.49952">
        <ele>1745.6</ele>
        <time>2024-05-11T09:30:16.000Z</time>
      </trkpt>
      <trkpt lat="44.83315" lon="5.49955">
        <ele>1744.9</ele>
        <time>2024-05-11T09:30:19.000Z</time>
      </trkpt>
      <trkpt lat="44.83318" lon="5.49962">
        <ele>1745.1</ele>
        <time>2024-05-11T09:30:25.000Z</time>
      </trkpt>
      <trkpt lat="44.83319" lon="5.49965">
        <ele>1745.3</ele>
        <time>2024-05-11T09:30:30.000Z</time>
      </trkpt>
      <trkpt lat="44.83319" lon="5.49967">
        <ele>1744.8</ele>
        <time>2024-05-11T09:30:31.000Z</time>
      </trkpt>
      <trkpt lat="44.83319" lon="5.49968">
        <ele>1744.8</ele>
        <time>2024-05-11T09:30:32.000Z</time>
      </trkpt>
      <trkpt lat="44.8332" lon="5.49969">
        <ele>1744.9</ele>
        <time>2024-05-11T09:30:34.000Z</time>
      </trkpt>
      <trkpt lat="44.8332" lon="5.49971">
        <ele>1745</ele>
        <time>2024-05-11T09:30:35.000Z</time>
      </trkpt>
      <trkpt lat="44.8332" lon="5.49972">
        <ele>1744.9</ele>
        <time>2024-05-11T09:30:36.000Z</time>
      </trkpt>
      <trkpt lat="44.83322" lon="5.49978">
        <ele>1744.7</ele>
        <time>2024-05-11T09:30:41.000Z</time>
      </trkpt>
      <trkpt lat="44.83324" lon="5.49979">
        <ele>1745</ele>
        <time>2024-05-11T09:30:44.000Z</time>
      </trkpt>
      <trkpt lat="44.83324" lon="5.49979">
        <ele>1745.2</ele>
        <time>2024-05-11T09:30:45.000Z</time>
      </trkpt>
      <trkpt lat="44.83325" lon="5.4998">
        <ele>1745.2</ele>
        <time>2024-05-11T09:30:46.000Z</time>
      </trkpt>
      <trkpt lat="44.83327" lon="5.49983">
        <ele>1745.6</ele>
        <time>2024-05-11T09:30:49.000Z</time>
      </trkpt>
      <trkpt lat="44.8333" lon="5.49983">
        <ele>1746.5</ele>
        <time>2024-05-11T09:30:52.000Z</time>
      </trkpt>
      <trkpt lat="44.83332" lon="5.49986">
        <ele>1746.8</ele>
        <time>2024-05-11T09:30:55.000Z</time>
      </trkpt>
      <trkpt lat="44.83332" lon="5.49988">
        <ele>1746.8</ele>
        <time>2024-05-11T09:30:57.000Z</time>
      </trkpt>
      <trkpt lat="44.83334" lon="5.49991">
        <ele>1746.8</ele>
        <time>2024-05-11T09:31:00.000Z</time>
      </trkpt>
      <trkpt lat="44.83336" lon="5.49997">
        <ele>1746.7</ele>
        <time>2024-05-11T09:31:05.000Z</time>
      </trkpt>
      <trkpt lat="44.83337" lon="5.49999">
        <ele>1746.6</ele>
        <time>2024-05-11T09:31:07.000Z</time>
      </trkpt>
      <trkpt lat="44.83339" lon="5.50003">
        <ele>1747.2</ele>
        <time>2024-05-11T09:31:11.000Z</time>
      </trkpt>
      <trkpt lat="44.8334" lon="5.50006">
        <ele>1747.1</ele>
        <time>2024-05-11T09:31:13.000Z</time>
      </trkpt>
      <trkpt lat="44.83341" lon="5.50011">
        <ele>1746.9</ele>
        <time>2024-05-11T09:31:17.000Z</time>
      </trkpt>
      <trkpt lat="44.83341" lon="5.50013">
        <ele>1746.6</ele>
        <time>2024-05-11T09:31:19.000Z</time>
      </trkpt>
      <trkpt lat="44.83341" lon="5.50017">
        <ele>1746.4</ele>
        <time>2024-05-11T09:31:21.000Z</time>
      </trkpt>
      <trkpt lat="44.83342" lon="5.50021">
        <ele>1746.2</ele>
        <time>2024-05-11T09:31:24.000Z</time>
      </trkpt>
      <trkpt lat="44.83341" lon="5.50027">
        <ele>1745.1</ele>
        <time>2024-05-11T09:31:29.000Z</time>
      </trkpt>
      <trkpt lat="44.83341" lon="5.50028">
        <ele>1745</ele>
        <time>2024-05-11T09:31:30.000Z</time>
      </trkpt>
      <trkpt lat="44.83341" lon="5.50029">
        <ele>1744.8</ele>
        <time>2024-05-11T09:31:31.000Z</time>
      </trkpt>
      <trkpt lat="44.83342" lon="5.50032">
        <ele>1744.8</ele>
        <time>2024-05-11T09:31:34.000Z</time>
      </trkpt>
      <trkpt lat="44.83345" lon="5.50035">
        <ele>1745.4</ele>
        <time>2024-05-11T09:31:38.000Z</time>
      </trkpt>
      <trkpt lat="44.83346" lon="5.50036">
        <ele>1745.5</ele>
        <time>2024-05-11T09:31:39.000Z</time>
      </trkpt>
      <trkpt lat="44.83349" lon="5.50037">
        <ele>1746.6</ele>
        <time>2024-05-11T09:31:43.000Z</time>
      </trkpt>
      <trkpt lat="44.83353" lon="5.5004">
        <ele>1747.8</ele>
        <time>2024-05-11T09:31:49.000Z</time>
      </trkpt>
      <trkpt lat="44.83354" lon="5.5004">
        <ele>1748.3</ele>
        <time>2024-05-11T09:31:50.000Z</time>
      </trkpt>
      <trkpt lat="44.83358" lon="5.50039">
        <ele>1750.3</ele>
        <time>2024-05-11T09:31:53.000Z</time>
      </trkpt>
      <trkpt lat="44.83361" lon="5.50039">
        <ele>1751.5</ele>
        <time>2024-05-11T09:31:56.000Z</time>
      </trkpt>
      <trkpt lat="44.83363" lon="5.50041">
        <ele>1752.1</ele>
        <time>2024-05-11T09:31:58.000Z</time>
      </trkpt>
      <trkpt lat="44.83364" lon="5.50042">
        <ele>1752.3</ele>
        <time>2024-05-11T09:31:59.000Z</time>
      </trkpt>
      <trkpt lat="44.83365" lon="5.50045">
        <ele>1752.1</ele>
        <time>2024-05-11T09:32:02.000Z</time>
      </trkpt>
      <trkpt lat="44.83365" lon="5.50046">
        <ele>1752</ele>
        <time>2024-05-11T09:32:03.000Z</time>
      </trkpt>
      <trkpt lat="44.83365" lon="5.50048">
        <ele>1751.8</ele>
        <time>2024-05-11T09:32:04.000Z</time>
      </trkpt>
      <trkpt lat="44.83369" lon="5.50055">
        <ele>1752.2</ele>
        <time>2024-05-11T09:32:10.000Z</time>
      </trkpt>
      <trkpt lat="44.83371" lon="5.50061">
        <ele>1751.9</ele>
        <time>2024-05-11T09:32:16.000Z</time>
      </trkpt>
      <trkpt lat="44.83372" lon="5.50065">
        <ele>1752</ele>
        <time>2024-05-11T09:32:20.000Z</time>
      </trkpt>
      <trkpt lat="44.83373" lon="5.50069">
        <ele>1751.7</ele>
        <time>2024-05-11T09:32:24.000Z</time>
      </trkpt>
      <trkpt lat="44.83374" lon="5.50069">
        <ele>1751.9</ele>
        <time>2024-05-11T09:32:26.000Z</time>
      </trkpt>
      <trkpt lat="44.83374" lon="5.50076">
        <ele>1751.2</ele>
        <time>2024-05-11T09:32:32.000Z</time>
      </trkpt>
      <trkpt lat="44.83375" lon="5.50078">
        <ele>1751.1</ele>
        <time>2024-05-11T09:32:34.000Z</time>
      </trkpt>
      <trkpt lat="44.83375" lon="5.50078">
        <ele>1751.2</ele>
        <time>2024-05-11T09:32:35.000Z</time>
      </trkpt>
      <trkpt lat="44.83378" lon="5.50082">
        <ele>1752.1</ele>
        <time>2024-05-11T09:32:39.000Z</time>
      </trkpt>
      <trkpt lat="44.8338" lon="5.50084">
        <ele>1752.1</ele>
        <time>2024-05-11T09:32:41.000Z</time>
      </trkpt>
      <trkpt lat="44.83383" lon="5.50087">
        <ele>1752.9</ele>
        <time>2024-05-11T09:32:44.000Z</time>
      </trkpt>
      <trkpt lat="44.83385" lon="5.50091">
        <ele>1753.3</ele>
        <time>2024-05-11T09:32:47.000Z</time>
      </trkpt>
      <trkpt lat="44.83387" lon="5.50093">
        <ele>1753.6</ele>
        <time>2024-05-11T09:32:48.000Z</time>
      </trkpt>
      <trkpt lat="44.83388" lon="5.50093">
        <ele>1754</ele>
        <time>2024-05-11T09:32:49.000Z</time>
      </trkpt>
      <trkpt lat="44.83389" lon="5.50096">
        <ele>1753.8</ele>
        <time>2024-05-11T09:32:51.000Z</time>
      </trkpt>
      <trkpt lat="44.8339" lon="5.50099">
        <ele>1753.8</ele>
        <time>2024-05-11T09:32:53.000Z</time>
      </trkpt>
      <trkpt lat="44.83393" lon="5.50104">
        <ele>1753.9</ele>
        <time>2024-05-11T09:32:58.000Z</time>
      </trkpt>
      <trkpt lat="44.83401" lon="5.50105">
        <ele>1757.2</ele>
        <time>2024-05-11T09:33:03.000Z</time>
      </trkpt>
      <trkpt lat="44.83403" lon="5.5011">
        <ele>1756.9</ele>
        <time>2024-05-11T09:33:07.000Z</time>
      </trkpt>
      <trkpt lat="44.83405" lon="5.50111">
        <ele>1757.3</ele>
        <time>2024-05-11T09:33:08.000Z</time>
      </trkpt>
      <trkpt lat="44.83408" lon="5.50114">
        <ele>1757.7</ele>
        <time>2024-05-11T09:33:13.000Z</time>
      </trkpt>
      <trkpt lat="44.83411" lon="5.50121">
        <ele>1757.4</ele>
        <time>2024-05-11T09:33:17.000Z</time>
      </trkpt>
      <trkpt lat="44.83412" lon="5.50122">
        <ele>1757.7</ele>
        <time>2024-05-11T09:33:18.000Z</time>
      </trkpt>
      <trkpt lat="44.83413" lon="5.50123">
        <ele>1757.8</ele>
        <time>2024-05-11T09:33:20.000Z</time>
      </trkpt>
      <trkpt lat="44.83411" lon="5.50125">
        <ele>1756.8</ele>
        <time>2024-05-11T09:33:21.000Z</time>
      </trkpt>
      <trkpt lat="44.83414" lon="5.50127">
        <ele>1757.3</ele>
        <time>2024-05-11T09:33:26.000Z</time>
      </trkpt>
      <trkpt lat="44.83415" lon="5.50132">
        <ele>1757.1</ele>
        <time>2024-05-11T09:33:32.000Z</time>
      </trkpt>
      <trkpt lat="44.83416" lon="5.50133">
        <ele>1757.2</ele>
        <time>2024-05-11T09:33:33.000Z</time>
      </trkpt>
      <trkpt lat="44.83421" lon="5.50136">
        <ele>1758.7</ele>
        <time>2024-05-11T09:33:36.000Z</time>
      </trkpt>
      <trkpt lat="44.83423" lon="5.50139">
        <ele>1759</ele>
        <time>2024-05-11T09:33:38.000Z</time>
      </trkpt>
      <trkpt lat="44.83424" lon="5.5014">
        <ele>1759.4</ele>
        <time>2024-05-11T09:33:39.000Z</time>
      </trkpt>
      <trkpt lat="44.83425" lon="5.50141">
        <ele>1759.7</ele>
        <time>2024-05-11T09:33:41.000Z</time>
      </trkpt>
      <trkpt lat="44.83425" lon="5.50142">
        <ele>1759.5</ele>
        <time>2024-05-11T09:33:43.000Z</time>
      </trkpt>
      <trkpt lat="44.83426" lon="5.50146">
        <ele>1759.2</ele>
        <time>2024-05-11T09:33:48.000Z</time>
      </trkpt>
      <trkpt lat="44.83424" lon="5.50147">
        <ele>1758.4</ele>
        <time>2024-05-11T09:33:50.000Z</time>
      </trkpt>
      <trkpt lat="44.83424" lon="5.50145">
        <ele>1758.5</ele>
        <time>2024-05-11T09:33:53.000Z</time>
      </trkpt>
      <trkpt lat="44.83422" lon="5.50145">
        <ele>1757.6</ele>
        <time>2024-05-11T09:33:55.000Z</time>
      </trkpt>
      <trkpt lat="44.83421" lon="5.50145">
        <ele>1756.9</ele>
        <time>2024-05-11T09:33:56.000Z</time>
      </trkpt>
      <trkpt lat="44.83417" lon="5.50147">
        <ele>1754.5</ele>
        <time>2024-05-11T09:34:02.000Z</time>
      </trkpt>
      <trkpt lat="44.83417" lon="5.50143">
        <ele>1755.3</ele>
        <time>2024-05-11T09:34:08.000Z</time>
      </trkpt>
      <trkpt lat="44.83415" lon="5.5015">
        <ele>1753.7</ele>
        <time>2024-05-11T09:34:16.000Z</time>
      </trkpt>
      <trkpt lat="44.83422" lon="5.50152">
        <ele>1756.1</ele>
        <time>2024-05-11T09:34:38.000Z</time>
      </trkpt>
      <trkpt lat="44.83422" lon="5.50156">
        <ele>1755.5</ele>
        <time>2024-05-11T09:34:41.000Z</time>
      </trkpt>
      <trkpt lat="44.83422" lon="5.50157">
        <ele>1755.5</ele>
        <time>2024-05-11T09:34:42.000Z</time>
      </trkpt>
      <trkpt lat="44.83422" lon="5.50157">
        <ele>1755.4</ele>
        <time>2024-05-11T09:34:44.000Z</time>
      </trkpt>
      <trkpt lat="44.83425" lon="5.50162">
        <ele>1755.7</ele>
        <time>2024-05-11T09:34:50.000Z</time>
      </trkpt>
      <trkpt lat="44.83427" lon="5.50163">
        <ele>1756.7</ele>
        <time>2024-05-11T09:34:53.000Z</time>
      </trkpt>
      <trkpt lat="44.83429" lon="5.50166">
        <ele>1756.7</ele>
        <time>2024-05-11T09:34:55.000Z</time>
      </trkpt>
      <trkpt lat="44.83429" lon="5.50171">
        <ele>1756.3</ele>
        <time>2024-05-11T09:34:59.000Z</time>
      </trkpt>
      <trkpt lat="44.83431" lon="5.50171">
        <ele>1757.3</ele>
        <time>2024-05-11T09:35:01.000Z</time>
      </trkpt>
      <trkpt lat="44.83439" lon="5.50167">
        <ele>1761.1</ele>
        <time>2024-05-11T09:35:08.000Z</time>
      </trkpt>
      <trkpt lat="44.83439" lon="5.5017">
        <ele>1761</ele>
        <time>2024-05-11T09:35:11.000Z</time>
      </trkpt>
      <trkpt lat="44.8344" lon="5.50171">
        <ele>1761.3</ele>
        <time>2024-05-11T09:35:12.000Z</time>
      </trkpt>
      <trkpt lat="44.83442" lon="5.50171">
        <ele>1762</ele>
        <time>2024-05-11T09:35:13.000Z</time>
      </trkpt>
      <trkpt lat="44.83445" lon="5.50172">
        <ele>1763.3</ele>
        <time>2024-05-11T09:35:15.000Z</time>
      </trkpt>
      <trkpt lat="44.83445" lon="5.50173">
        <ele>1763.1</ele>
        <time>2024-05-11T09:35:16.000Z</time>
      </trkpt>
      <trkpt lat="44.83446" lon="5.50175">
        <ele>1763.3</ele>
        <time>2024-05-11T09:35:19.000Z</time>
      </trkpt>
      <trkpt lat="44.83447" lon="5.50175">
        <ele>1763.7</ele>
        <time>2024-05-11T09:35:20.000Z</time>
      </trkpt>
      <trkpt lat="44.8345" lon="5.50179">
        <ele>1764.3</ele>
        <time>2024-05-11T09:35:23.000Z</time>
      </trkpt>
      <trkpt lat="44.83451" lon="5.50182">
        <ele>1764.6</ele>
        <time>2024-05-11T09:35:25.000Z</time>
      </trkpt>
      <trkpt lat="44.83451" lon="5.50183">
        <ele>1764.5</ele>
        <time>2024-05-11T09:35:26.000Z</time>
      </trkpt>
      <trkpt lat="44.83451" lon="5.50186">
        <ele>1763.9</ele>
        <time>2024-05-11T09:35:28.000Z</time>
      </trkpt>
      <trkpt lat="44.83456" lon="5.50189">
        <ele>1765.5</ele>
        <time>2024-05-11T09:35:32.000Z</time>
      </trkpt>
      <trkpt lat="44.83456" lon="5.5019">
        <ele>1765.5</ele>
        <time>2024-05-11T09:35:33.000Z</time>
      </trkpt>
      <trkpt lat="44.83457" lon="5.50194">
        <ele>1765.3</ele>
        <time>2024-05-11T09:35:38.000Z</time>
      </trkpt>
      <trkpt lat="44.83457" lon="5.50196">
        <ele>1765.3</ele>
        <time>2024-05-11T09:35:39.000Z</time>
      </trkpt>
      <trkpt lat="44.83459" lon="5.50198">
        <ele>1765.8</ele>
        <time>2024-05-11T09:35:43.000Z</time>
      </trkpt>
      <trkpt lat="44.8346" lon="5.50203">
        <ele>1766.5</ele>
        <time>2024-05-11T09:35:49.000Z</time>
      </trkpt>
      <trkpt lat="44.83461" lon="5.50204">
        <ele>1766.6</ele>
        <time>2024-05-11T09:35:50.000Z</time>
      </trkpt>
      <trkpt lat="44.83463" lon="5.50204">
        <ele>1767.9</ele>
        <time>2024-05-11T09:35:56.000Z</time>
      </trkpt>
      <trkpt lat="44.83464" lon="5.50204">
        <ele>1768.1</ele>
        <time>2024-05-11T09:35:57.000Z</time>
      </trkpt>
      <trkpt lat="44.83467" lon="5.50206">
        <ele>1769.7</ele>
        <time>2024-05-11T09:36:03.000Z</time>
      </trkpt>
      <trkpt lat="44.83467" lon="5.50206">
        <ele>1769.6</ele>
        <time>2024-05-11T09:36:04.000Z</time>
      </trkpt>
      <trkpt lat="44.83469" lon="5.50207">
        <ele>1770.8</ele>
        <time>2024-05-11T09:36:07.000Z</time>
      </trkpt>
      <trkpt lat="44.83471" lon="5.50206">
        <ele>1772</ele>
        <time>2024-05-11T09:36:09.000Z</time>
      </trkpt>
      <trkpt lat="44.83472" lon="5.50207">
        <ele>1772.3</ele>
        <time>2024-05-11T09:36:10.000Z</time>
      </trkpt>
      <trkpt lat="44.83472" lon="5.50208">
        <ele>1772.4</ele>
        <time>2024-05-11T09:36:13.000Z</time>
      </trkpt>
      <trkpt lat="44.83474" lon="5.50211">
        <ele>1772.9</ele>
        <time>2024-05-11T09:36:17.000Z</time>
      </trkpt>
      <trkpt lat="44.83475" lon="5.50212">
        <ele>1773.2</ele>
        <time>2024-05-11T09:36:20.000Z</time>
      </trkpt>
      <trkpt lat="44.83475" lon="5.50213">
        <ele>1773.3</ele>
        <time>2024-05-11T09:36:21.000Z</time>
      </trkpt>
      <trkpt lat="44.83476" lon="5.50218">
        <ele>1773.5</ele>
        <time>2024-05-11T09:36:26.000Z</time>
      </trkpt>
      <trkpt lat="44.83477" lon="5.50219">
        <ele>1773.7</ele>
        <time>2024-05-11T09:36:28.000Z</time>
      </trkpt>
      <trkpt lat="44.83477" lon="5.50223">
        <ele>1773.6</ele>
        <time>2024-05-11T09:36:32.000Z</time>
      </trkpt>
      <trkpt lat="44.83477" lon="5.50226">
        <ele>1773.2</ele>
        <time>2024-05-11T09:36:37.000Z</time>
      </trkpt>
      <trkpt lat="44.83477" lon="5.50226">
        <ele>1773.1</ele>
        <time>2024-05-11T09:36:38.000Z</time>
      </trkpt>
      <trkpt lat="44.83476" lon="5.5023">
        <ele>1772.4</ele>
        <time>2024-05-11T09:36:44.000Z</time>
      </trkpt>
      <trkpt lat="44.83475" lon="5.50234">
        <ele>1771.5</ele>
        <time>2024-05-11T09:36:47.000Z</time>
      </trkpt>
      <trkpt lat="44.83475" lon="5.50238">
        <ele>1771.2</ele>
        <time>2024-05-11T09:36:51.000Z</time>
      </trkpt>
      <trkpt lat="44.83478" lon="5.50242">
        <ele>1771.6</ele>
        <time>2024-05-11T09:36:57.000Z</time>
      </trkpt>
      <trkpt lat="44.83478" lon="5.50243">
        <ele>1771.7</ele>
        <time>2024-05-11T09:36:58.000Z</time>
      </trkpt>
      <trkpt lat="44.83481" lon="5.50249">
        <ele>1771.9</ele>
        <time>2024-05-11T09:37:04.000Z</time>
      </trkpt>
      <trkpt lat="44.83484" lon="5.50251">
        <ele>1772.7</ele>
        <time>2024-05-11T09:37:11.000Z</time>
      </trkpt>
      <trkpt lat="44.83487" lon="5.50253">
        <ele>1773.5</ele>
        <time>2024-05-11T09:37:16.000Z</time>
      </trkpt>
      <trkpt lat="44.83487" lon="5.50253">
        <ele>1773.6</ele>
        <time>2024-05-11T09:37:17.000Z</time>
      </trkpt>
      <trkpt lat="44.83489" lon="5.50257">
        <ele>1774.1</ele>
        <time>2024-05-11T09:37:21.000Z</time>
      </trkpt>
      <trkpt lat="44.83489" lon="5.50257">
        <ele>1774.3</ele>
        <time>2024-05-11T09:37:22.000Z</time>
      </trkpt>
      <trkpt lat="44.8349" lon="5.50257">
        <ele>1774.5</ele>
        <time>2024-05-11T09:37:23.000Z</time>
      </trkpt>
      <trkpt lat="44.83489" lon="5.50257">
        <ele>1774.2</ele>
        <time>2024-05-11T09:37:29.000Z</time>
      </trkpt>
      <trkpt lat="44.8349" lon="5.50258">
        <ele>1774.6</ele>
        <time>2024-05-11T09:37:33.000Z</time>
      </trkpt>
      <trkpt lat="44.83491" lon="5.50259">
        <ele>1774.8</ele>
        <time>2024-05-11T09:37:35.000Z</time>
      </trkpt>
      <trkpt lat="44.83493" lon="5.50262">
        <ele>1775.5</ele>
        <time>2024-05-11T09:37:40.000Z</time>
      </trkpt>
      <trkpt lat="44.83497" lon="5.50266">
        <ele>1776.9</ele>
        <time>2024-05-11T09:37:48.000Z</time>
      </trkpt>
      <trkpt lat="44.83498" lon="5.50268">
        <ele>1777.1</ele>
        <time>2024-05-11T09:37:50.000Z</time>
      </trkpt>
      <trkpt lat="44.835" lon="5.50269">
        <ele>1777.9</ele>
        <time>2024-05-11T09:37:53.000Z</time>
      </trkpt>
      <trkpt lat="44.83502" lon="5.50273">
        <ele>1778.4</ele>
        <time>2024-05-11T09:37:59.000Z</time>
      </trkpt>
      <trkpt lat="44.83505" lon="5.50281">
        <ele>1779.2</ele>
        <time>2024-05-11T09:38:07.000Z</time>
      </trkpt>
      <trkpt lat="44.83507" lon="5.50282">
        <ele>1779.7</ele>
        <time>2024-05-11T09:38:10.000Z</time>
      </trkpt>
      <trkpt lat="44.83508" lon="5.50283">
        <ele>1779.8</ele>
        <time>2024-05-11T09:38:11.000Z</time>
      </trkpt>
      <trkpt lat="44.83508" lon="5.50284">
        <ele>1779.9</ele>
        <time>2024-05-11T09:38:12.000Z</time>
      </trkpt>
      <trkpt lat="44.83511" lon="5.5029">
        <ele>1780.7</ele>
        <time>2024-05-11T09:38:18.000Z</time>
      </trkpt>
      <trkpt lat="44.83513" lon="5.50292">
        <ele>1781.1</ele>
        <time>2024-05-11T09:38:21.000Z</time>
      </trkpt>
      <trkpt lat="44.83515" lon="5.50293">
        <ele>1781.4</ele>
        <time>2024-05-11T09:38:23.000Z</time>
      </trkpt>
      <trkpt lat="44.83518" lon="5.50297">
        <ele>1782</ele>
        <time>2024-05-11T09:38:29.000Z</time>
      </trkpt>
      <trkpt lat="44.83519" lon="5.50299">
        <ele>1782.3</ele>
        <time>2024-05-11T09:38:34.000Z</time>
      </trkpt>
      <trkpt lat="44.83521" lon="5.50306">
        <ele>1782.9</ele>
        <time>2024-05-11T09:38:40.000Z</time>
      </trkpt>
      <trkpt lat="44.83524" lon="5.50311">
        <ele>1783.3</ele>
        <time>2024-05-11T09:38:45.000Z</time>
      </trkpt>
      <trkpt lat="44.83526" lon="5.50313">
        <ele>1783.7</ele>
        <time>2024-05-11T09:38:48.000Z</time>
      </trkpt>
      <trkpt lat="44.83528" lon="5.50316">
        <ele>1784</ele>
        <time>2024-05-11T09:38:51.000Z</time>
      </trkpt>
      <trkpt lat="44.83528" lon="5.50317">
        <ele>1784.1</ele>
        <time>2024-05-11T09:38:52.000Z</time>
      </trkpt>
      <trkpt lat="44.83529" lon="5.50319">
        <ele>1784.2</ele>
        <time>2024-05-11T09:38:54.000Z</time>
      </trkpt>
      <trkpt lat="44.83531" lon="5.5032">
        <ele>1784.4</ele>
        <time>2024-05-11T09:38:56.000Z</time>
      </trkpt>
      <trkpt lat="44.83532" lon="5.50322">
        <ele>1784.6</ele>
        <time>2024-05-11T09:38:58.000Z</time>
      </trkpt>
      <trkpt lat="44.83534" lon="5.50325">
        <ele>1784.9</ele>
        <time>2024-05-11T09:39:01.000Z</time>
      </trkpt>
      <trkpt lat="44.83536" lon="5.50327">
        <ele>1785.1</ele>
        <time>2024-05-11T09:39:03.000Z</time>
      </trkpt>
      <trkpt lat="44.83537" lon="5.50329">
        <ele>1785.3</ele>
        <time>2024-05-11T09:39:05.000Z</time>
      </trkpt>
      <trkpt lat="44.8354" lon="5.50336">
        <ele>1785.8</ele>
        <time>2024-05-11T09:39:12.000Z</time>
      </trkpt>
      <trkpt lat="44.83541" lon="5.50338">
        <ele>1785.9</ele>
        <time>2024-05-11T09:39:14.000Z</time>
      </trkpt>
      <trkpt lat="44.83543" lon="5.5034">
        <ele>1786</ele>
        <time>2024-05-11T09:39:16.000Z</time>
      </trkpt>
      <trkpt lat="44.83543" lon="5.50341">
        <ele>1786</ele>
        <time>2024-05-11T09:39:17.000Z</time>
      </trkpt>
      <trkpt lat="44.83545" lon="5.50344">
        <ele>1786.1</ele>
        <time>2024-05-11T09:39:20.000Z</time>
      </trkpt>
      <trkpt lat="44.83545" lon="5.50346">
        <ele>1786.1</ele>
        <time>2024-05-11T09:39:22.000Z</time>
      </trkpt>
      <trkpt lat="44.83545" lon="5.50348">
        <ele>1786.1</ele>
        <time>2024-05-11T09:39:23.000Z</time>
      </trkpt>
      <trkpt lat="44.83546" lon="5.50349">
        <ele>1786.1</ele>
        <time>2024-05-11T09:39:24.000Z</time>
      </trkpt>
      <trkpt lat="44.83548" lon="5.50352">
        <ele>1786.2</ele>
        <time>2024-05-11T09:39:27.000Z</time>
      </trkpt>
      <trkpt lat="44.83551" lon="5.50356">
        <ele>1786.1</ele>
        <time>2024-05-11T09:39:31.000Z</time>
      </trkpt>
      <trkpt lat="44.83552" lon="5.50358">
        <ele>1786.1</ele>
        <time>2024-05-11T09:39:33.000Z</time>
      </trkpt>
      <trkpt lat="44.83554" lon="5.5036">
        <ele>1786</ele>
        <time>2024-05-11T09:39:35.000Z</time>
      </trkpt>
      <trkpt lat="44.83556" lon="5.50363">
        <ele>1786</ele>
        <time>2024-05-11T09:39:38.000Z</time>
      </trkpt>
      <trkpt lat="44.83564" lon="5.50365">
        <ele>1785.7</ele>
        <time>2024-05-11T09:39:46.000Z</time>
      </trkpt>
      <trkpt lat="44.83568" lon="5.50366">
        <ele>1785.5</ele>
        <time>2024-05-11T09:39:50.000Z</time>
      </trkpt>
      <trkpt lat="44.83569" lon="5.50366">
        <ele>1785.4</ele>
        <time>2024-05-11T09:39:51.000Z</time>
      </trkpt>
      <trkpt lat="44.83569" lon="5.50367">
        <ele>1785.4</ele>
        <time>2024-05-11T09:39:52.000Z</time>
      </trkpt>
      <trkpt lat="44.83573" lon="5.50369">
        <ele>1785.2</ele>
        <time>2024-05-11T09:39:56.000Z</time>
      </trkpt>
      <trkpt lat="44.83574" lon="5.50369">
        <ele>1785.1</ele>
        <time>2024-05-11T09:39:58.000Z</time>
      </trkpt>
      <trkpt lat="44.83575" lon="5.50369">
        <ele>1785.1</ele>
        <time>2024-05-11T09:39:59.000Z</time>
      </trkpt>
      <trkpt lat="44.8358" lon="5.50371">
        <ele>1784.8</ele>
        <time>2024-05-11T09:40:04.000Z</time>
      </trkpt>
      <trkpt lat="44.83585" lon="5.50374">
        <ele>1784.5</ele>
        <time>2024-05-11T09:40:09.000Z</time>
      </trkpt>
      <trkpt lat="44.83587" lon="5.50377">
        <ele>1784.3</ele>
        <time>2024-05-11T09:40:14.000Z</time>
      </trkpt>
      <trkpt lat="44.83587" lon="5.50378">
        <ele>1784.2</ele>
        <time>2024-05-11T09:40:15.000Z</time>
      </trkpt>
      <trkpt lat="44.83589" lon="5.50379">
        <ele>1784.1</ele>
        <time>2024-05-11T09:40:17.000Z</time>
      </trkpt>
      <trkpt lat="44.83591" lon="5.50379">
        <ele>1784</ele>
        <time>2024-05-11T09:40:19.000Z</time>
      </trkpt>
      <trkpt lat="44.83593" lon="5.50382">
        <ele>1783.8</ele>
        <time>2024-05-11T09:40:25.000Z</time>
      </trkpt>
      <trkpt lat="44.83594" lon="5.50387">
        <ele>1783.4</ele>
        <time>2024-05-11T09:40:30.000Z</time>
      </trkpt>
      <trkpt lat="44.83593" lon="5.50388">
        <ele>1783.3</ele>
        <time>2024-05-11T09:40:36.000Z</time>
      </trkpt>
      <trkpt lat="44.83594" lon="5.50388">
        <ele>1783.3</ele>
        <time>2024-05-11T09:40:38.000Z</time>
      </trkpt>
      <trkpt lat="44.83594" lon="5.5039">
        <ele>1783.2</ele>
        <time>2024-05-11T09:40:47.000Z</time>
      </trkpt>
      <trkpt lat="44.83597" lon="5.50391">
        <ele>1783</ele>
        <time>2024-05-11T09:41:34.000Z</time>
      </trkpt>
      <trkpt lat="44.83599" lon="5.50395">
        <ele>1782.7</ele>
        <time>2024-05-11T09:41:41.000Z</time>
      </trkpt>
      <trkpt lat="44.83598" lon="5.50393">
        <ele>1782.8</ele>
        <time>2024-05-11T09:42:09.000Z</time>
      </trkpt>
      <trkpt lat="44.83594" lon="5.5039">
        <ele>1783.2</ele>
        <time>2024-05-11T09:42:52.000Z</time>
      </trkpt>
      <trkpt lat="44.83597" lon="5.50395">
        <ele>1782.8</ele>
        <time>2024-05-11T09:42:57.000Z</time>
      </trkpt>
      <trkpt lat="44.836" lon="5.50398">
        <ele>1782.5</ele>
        <time>2024-05-11T09:43:01.000Z</time>
      </trkpt>
      <trkpt lat="44.83602" lon="5.504">
        <ele>1782.3</ele>
        <time>2024-05-11T09:43:03.000Z</time>
      </trkpt>
      <trkpt lat="44.83606" lon="5.50405">
        <ele>1781.8</ele>
        <time>2024-05-11T09:43:09.000Z</time>
      </trkpt>
      <trkpt lat="44.8361" lon="5.50409">
        <ele>1781.3</ele>
        <time>2024-05-11T09:43:14.000Z</time>
      </trkpt>
      <trkpt lat="44.83612" lon="5.50411">
        <ele>1781.1</ele>
        <time>2024-05-11T09:43:16.000Z</time>
      </trkpt>
      <trkpt lat="44.83613" lon="5.50412">
        <ele>1781</ele>
        <time>2024-05-11T09:43:17.000Z</time>
      </trkpt>
      <trkpt lat="44.83614" lon="5.50413">
        <ele>1780.9</ele>
        <time>2024-05-11T09:43:18.000Z</time>
      </trkpt>
      <trkpt lat="44.83616" lon="5.50418">
        <ele>1780.6</ele>
        <time>2024-05-11T09:43:23.000Z</time>
      </trkpt>
      <trkpt lat="44.8362" lon="5.50423">
        <ele>1780.1</ele>
        <time>2024-05-11T09:43:29.000Z</time>
      </trkpt>
      <trkpt lat="44.83623" lon="5.50426">
        <ele>1779.8</ele>
        <time>2024-05-11T09:43:34.000Z</time>
      </trkpt>
      <trkpt lat="44.83625" lon="5.50427">
        <ele>1779.6</ele>
        <time>2024-05-11T09:43:36.000Z</time>
      </trkpt>
      <trkpt lat="44.83627" lon="5.50429">
        <ele>1779.5</ele>
        <time>2024-05-11T09:43:38.000Z</time>
      </trkpt>
      <trkpt lat="44.83627" lon="5.5043">
        <ele>1779.4</ele>
        <time>2024-05-11T09:43:40.000Z</time>
      </trkpt>
      <trkpt lat="44.83627" lon="5.50432">
        <ele>1779.4</ele>
        <time>2024-05-11T09:43:41.000Z</time>
      </trkpt>
      <trkpt lat="44.83628" lon="5.50432">
        <ele>1779.3</ele>
        <time>2024-05-11T09:43:42.000Z</time>
      </trkpt>
      <trkpt lat="44.8363" lon="5.50436">
        <ele>1779.2</ele>
        <time>2024-05-11T09:43:46.000Z</time>
      </trkpt>
      <trkpt lat="44.83634" lon="5.50439">
        <ele>1779.1</ele>
        <time>2024-05-11T09:43:49.000Z</time>
      </trkpt>
      <trkpt lat="44.83637" lon="5.50442">
        <ele>1779</ele>
        <time>2024-05-11T09:43:53.000Z</time>
      </trkpt>
      <trkpt lat="44.83641" lon="5.50445">
        <ele>1779.1</ele>
        <time>2024-05-11T09:43:57.000Z</time>
      </trkpt>
      <trkpt lat="44.83643" lon="5.50446">
        <ele>1779.1</ele>
        <time>2024-05-11T09:43:59.000Z</time>
      </trkpt>
      <trkpt lat="44.83648" lon="5.50446">
        <ele>1779.3</ele>
        <time>2024-05-11T09:44:03.000Z</time>
      </trkpt>
      <trkpt lat="44.83651" lon="5.50448">
        <ele>1779.3</ele>
        <time>2024-05-11T09:44:05.000Z</time>
      </trkpt>
      <trkpt lat="44.83658" lon="5.50451">
        <ele>1779.4</ele>
        <time>2024-05-11T09:44:12.000Z</time>
      </trkpt>
      <trkpt lat="44.83661" lon="5.50451">
        <ele>1779.4</ele>
        <time>2024-05-11T09:44:14.000Z</time>
      </trkpt>
      <trkpt lat="44.83665" lon="5.50452">
        <ele>1779.4</ele>
        <time>2024-05-11T09:44:18.000Z</time>
      </trkpt>
      <trkpt lat="44.83668" lon="5.50454">
        <ele>1779.4</ele>
        <time>2024-05-11T09:44:21.000Z</time>
      </trkpt>
      <trkpt lat="44.8367" lon="5.50453">
        <ele>1779.6</ele>
        <time>2024-05-11T09:44:24.000Z</time>
      </trkpt>
      <trkpt lat="44.8367" lon="5.50453">
        <ele>1779.7</ele>
        <time>2024-05-11T09:44:27.000Z</time>
      </trkpt>
      <trkpt lat="44.83674" lon="5.50454">
        <ele>1779.9</ele>
        <time>2024-05-11T09:44:34.000Z</time>
      </trkpt>
      <trkpt lat="44.83675" lon="5.50456">
        <ele>1779.8</ele>
        <time>2024-05-11T09:44:42.000Z</time>
      </trkpt>
      <trkpt lat="44.83675" lon="5.50456">
        <ele>1779.8</ele>
        <time>2024-05-11T09:44:45.000Z</time>
      </trkpt>
      <trkpt lat="44.83674" lon="5.50459">
        <ele>1779.5</ele>
        <time>2024-05-11T09:44:54.000Z</time>
      </trkpt>
      <trkpt lat="44.83675" lon="5.50459">
        <ele>1779.6</ele>
        <time>2024-05-11T09:45:09.000Z</time>
      </trkpt>
      <trkpt lat="44.8368" lon="5.5046">
        <ele>1779.7</ele>
        <time>2024-05-11T09:45:16.000Z</time>
      </trkpt>
      <trkpt lat="44.83686" lon="5.50465">
        <ele>1779.6</ele>
        <time>2024-05-11T09:45:23.000Z</time>
      </trkpt>
      <trkpt lat="44.83693" lon="5.5047">
        <ele>1779.3</ele>
        <time>2024-05-11T09:45:29.000Z</time>
      </trkpt>
      <trkpt lat="44.83697" lon="5.50476">
        <ele>1778.9</ele>
        <time>2024-05-11T09:45:34.000Z</time>
      </trkpt>
      <trkpt lat="44.83699" lon="5.50482">
        <ele>1778.7</ele>
        <time>2024-05-11T09:45:38.000Z</time>
      </trkpt>
      <trkpt lat="44.83702" lon="5.50486">
        <ele>1778.7</ele>
        <time>2024-05-11T09:45:42.000Z</time>
      </trkpt>
      <trkpt lat="44.83705" lon="5.50489">
        <ele>1778.7</ele>
        <time>2024-05-11T09:45:45.000Z</time>
      </trkpt>
      <trkpt lat="44.83709" lon="5.50492">
        <ele>1778.8</ele>
        <time>2024-05-11T09:45:49.000Z</time>
      </trkpt>
      <trkpt lat="44.83711" lon="5.50495">
        <ele>1778.7</ele>
        <time>2024-05-11T09:45:52.000Z</time>
      </trkpt>
      <trkpt lat="44.83713" lon="5.50498">
        <ele>1778.5</ele>
        <time>2024-05-11T09:45:54.000Z</time>
      </trkpt>
      <trkpt lat="44.83715" lon="5.50501">
        <ele>1778.5</ele>
        <time>2024-05-11T09:45:56.000Z</time>
      </trkpt>
      <trkpt lat="44.83717" lon="5.50503">
        <ele>1778.6</ele>
        <time>2024-05-11T09:45:58.000Z</time>
      </trkpt>
      <trkpt lat="44.83717" lon="5.50504">
        <ele>1778.6</ele>
        <time>2024-05-11T09:45:59.000Z</time>
      </trkpt>
      <trkpt lat="44.83717" lon="5.50506">
        <ele>1778.6</ele>
        <time>2024-05-11T09:46:01.000Z</time>
      </trkpt>
      <trkpt lat="44.83719" lon="5.50508">
        <ele>1778.8</ele>
        <time>2024-05-11T09:46:03.000Z</time>
      </trkpt>
      <trkpt lat="44.83722" lon="5.50514">
        <ele>1779</ele>
        <time>2024-05-11T09:46:09.000Z</time>
      </trkpt>
      <trkpt lat="44.83724" lon="5.50516">
        <ele>1779.2</ele>
        <time>2024-05-11T09:46:11.000Z</time>
      </trkpt>
      <trkpt lat="44.83726" lon="5.5052">
        <ele>1779.5</ele>
        <time>2024-05-11T09:46:14.000Z</time>
      </trkpt>
      <trkpt lat="44.83729" lon="5.50526">
        <ele>1779.7</ele>
        <time>2024-05-11T09:46:18.000Z</time>
      </trkpt>
      <trkpt lat="44.83731" lon="5.50529">
        <ele>1779.8</ele>
        <time>2024-05-11T09:46:21.000Z</time>
      </trkpt>
      <trkpt lat="44.83733" lon="5.50532">
        <ele>1780</ele>
        <time>2024-05-11T09:46:24.000Z</time>
      </trkpt>
      <trkpt lat="44.8374" lon="5.50538">
        <ele>1780.3</ele>
        <time>2024-05-11T09:46:32.000Z</time>
      </trkpt>
      <trkpt lat="44.83741" lon="5.50539">
        <ele>1780.3</ele>
        <time>2024-05-11T09:46:33.000Z</time>
      </trkpt>
      <trkpt lat="44.83742" lon="5.5054">
        <ele>1780.3</ele>
        <time>2024-05-11T09:46:34.000Z</time>
      </trkpt>
      <trkpt lat="44.83746" lon="5.50543">
        <ele>1780.5</ele>
        <time>2024-05-11T09:46:38.000Z</time>
      </trkpt>
      <trkpt lat="44.83747" lon="5.50544">
        <ele>1780.6</ele>
        <time>2024-05-11T09:46:39.000Z</time>
      </trkpt>
      <trkpt lat="44.83749" lon="5.50545">
        <ele>1780.7</ele>
        <time>2024-05-11T09:46:41.000Z</time>
      </trkpt>
      <trkpt lat="44.8375" lon="5.50546">
        <ele>1780.7</ele>
        <time>2024-05-11T09:46:42.000Z</time>
      </trkpt>
      <trkpt lat="44.83752" lon="5.50549">
        <ele>1780.7</ele>
        <time>2024-05-11T09:46:45.000Z</time>
      </trkpt>
      <trkpt lat="44.83753" lon="5.50551">
        <ele>1780.7</ele>
        <time>2024-05-11T09:46:47.000Z</time>
      </trkpt>
      <trkpt lat="44.83753" lon="5.50552">
        <ele>1780.7</ele>
        <time>2024-05-11T09:46:48.000Z</time>
      </trkpt>
      <trkpt lat="44.83756" lon="5.50554">
        <ele>1781</ele>
        <time>2024-05-11T09:46:52.000Z</time>
      </trkpt>
      <trkpt lat="44.83757" lon="5.50556">
        <ele>1781.1</ele>
        <time>2024-05-11T09:46:54.000Z</time>
      </trkpt>
      <trkpt lat="44.83759" lon="5.50559">
        <ele>1781.2</ele>
        <time>2024-05-11T09:46:56.000Z</time>
      </trkpt>
      <trkpt lat="44.83759" lon="5.50561">
        <ele>1781.3</ele>
        <time>2024-05-11T09:46:58.000Z</time>
      </trkpt>
      <trkpt lat="44.8376" lon="5.50563">
        <ele>1781.5</ele>
        <time>2024-05-11T09:47:00.000Z</time>
      </trkpt>
      <trkpt lat="44.83762" lon="5.50565">
        <ele>1781.8</ele>
        <time>2024-05-11T09:47:03.000Z</time>
      </trkpt>
      <trkpt lat="44.83763" lon="5.50566">
        <ele>1781.9</ele>
        <time>2024-05-11T09:47:04.000Z</time>
      </trkpt>
      <trkpt lat="44.83765" lon="5.50573">
        <ele>1782.1</ele>
        <time>2024-05-11T09:47:10.000Z</time>
      </trkpt>
      <trkpt lat="44.83767" lon="5.50579">
        <ele>1782.4</ele>
        <time>2024-05-11T09:47:15.000Z</time>
      </trkpt>
      <trkpt lat="44.83768" lon="5.50581">
        <ele>1782.6</ele>
        <time>2024-05-11T09:47:17.000Z</time>
      </trkpt>
      <trkpt lat="44.8377" lon="5.50585">
        <ele>1782.9</ele>
        <time>2024-05-11T09:47:22.000Z</time>
      </trkpt>
      <trkpt lat="44.83771" lon="5.50588">
        <ele>1782.9</ele>
        <time>2024-05-11T09:47:27.000Z</time>
      </trkpt>
      <trkpt lat="44.83773" lon="5.50594">
        <ele>1782.9</ele>
        <time>2024-05-11T09:47:34.000Z</time>
      </trkpt>
      <trkpt lat="44.83774" lon="5.50597">
        <ele>1782.9</ele>
        <time>2024-05-11T09:47:36.000Z</time>
      </trkpt>
      <trkpt lat="44.83775" lon="5.506">
        <ele>1783</ele>
        <time>2024-05-11T09:47:39.000Z</time>
      </trkpt>
      <trkpt lat="44.83775" lon="5.50601">
        <ele>1783</ele>
        <time>2024-05-11T09:47:40.000Z</time>
      </trkpt>
      <trkpt lat="44.83777" lon="5.50606">
        <ele>1783</ele>
        <time>2024-05-11T09:47:44.000Z</time>
      </trkpt>
      <trkpt lat="44.83779" lon="5.50611">
        <ele>1783.1</ele>
        <time>2024-05-11T09:47:49.000Z</time>
      </trkpt>
      <trkpt lat="44.83782" lon="5.50616">
        <ele>1782.8</ele>
        <time>2024-05-11T09:47:54.000Z</time>
      </trkpt>
      <trkpt lat="44.83783" lon="5.50617">
        <ele>1782.8</ele>
        <time>2024-05-11T09:47:55.000Z</time>
      </trkpt>
      <trkpt lat="44.83787" lon="5.5062">
        <ele>1782.6</ele>
        <time>2024-05-11T09:48:01.000Z</time>
      </trkpt>
      <trkpt lat="44.83795" lon="5.5063">
        <ele>1782.2</ele>
        <time>2024-05-11T09:48:11.000Z</time>
      </trkpt>
      <trkpt lat="44.83797" lon="5.50633">
        <ele>1782.2</ele>
        <time>2024-05-11T09:48:15.000Z</time>
      </trkpt>
      <trkpt lat="44.83801" lon="5.50635">
        <ele>1782.2</ele>
        <time>2024-05-11T09:48:19.000Z</time>
      </trkpt>
      <trkpt lat="44.83805" lon="5.50636">
        <ele>1782.2</ele>
        <time>2024-05-11T09:48:22.000Z</time>
      </trkpt>
      <trkpt lat="44.83806" lon="5.50637">
        <ele>1782.1</ele>
        <time>2024-05-11T09:48:24.000Z</time>
      </trkpt>
      <trkpt lat="44.83807" lon="5.50638">
        <ele>1782.2</ele>
        <time>2024-05-11T09:48:25.000Z</time>
      </trkpt>
      <trkpt lat="44.83809" lon="5.50639">
        <ele>1782.4</ele>
        <time>2024-05-11T09:48:28.000Z</time>
      </trkpt>
      <trkpt lat="44.8381" lon="5.5064">
        <ele>1782.5</ele>
        <time>2024-05-11T09:48:29.000Z</time>
      </trkpt>
      <trkpt lat="44.83811" lon="5.50641">
        <ele>1782.6</ele>
        <time>2024-05-11T09:48:31.000Z</time>
      </trkpt>
      <trkpt lat="44.83813" lon="5.50642">
        <ele>1782.8</ele>
        <time>2024-05-11T09:48:33.000Z</time>
      </trkpt>
      <trkpt lat="44.83815" lon="5.50644">
        <ele>1783</ele>
        <time>2024-05-11T09:48:35.000Z</time>
      </trkpt>
      <trkpt lat="44.83821" lon="5.50648">
        <ele>1783.7</ele>
        <time>2024-05-11T09:48:43.000Z</time>
      </trkpt>
      <trkpt lat="44.83825" lon="5.50654">
        <ele>1784.1</ele>
        <time>2024-05-11T09:48:49.000Z</time>
      </trkpt>
      <trkpt lat="44.8383" lon="5.5066">
        <ele>1784.7</ele>
        <time>2024-05-11T09:48:56.000Z</time>
      </trkpt>
      <trkpt lat="44.83831" lon="5.50661">
        <ele>1784.8</ele>
        <time>2024-05-11T09:48:57.000Z</time>
      </trkpt>
      <trkpt lat="44.83835" lon="5.50665">
        <ele>1785.1</ele>
        <time>2024-05-11T09:49:01.000Z</time>
      </trkpt>
      <trkpt lat="44.83836" lon="5.50665">
        <ele>1785.2</ele>
        <time>2024-05-11T09:49:02.000Z</time>
      </trkpt>
      <trkpt lat="44.83836" lon="5.50667">
        <ele>1785.2</ele>
        <time>2024-05-11T09:49:03.000Z</time>
      </trkpt>
      <trkpt lat="44.83837" lon="5.50669">
        <ele>1785.3</ele>
        <time>2024-05-11T09:49:05.000Z</time>
      </trkpt>
      <trkpt lat="44.83838" lon="5.50672">
        <ele>1785.3</ele>
        <time>2024-05-11T09:49:07.000Z</time>
      </trkpt>
      <trkpt lat="44.83838" lon="5.50673">
        <ele>1785.3</ele>
        <time>2024-05-11T09:49:09.000Z</time>
      </trkpt>
      <trkpt lat="44.83838" lon="5.50677">
        <ele>1785.4</ele>
        <time>2024-05-11T09:49:12.000Z</time>
      </trkpt>
      <trkpt lat="44.8384" lon="5.50678">
        <ele>1785.5</ele>
        <time>2024-05-11T09:49:14.000Z</time>
      </trkpt>
      <trkpt lat="44.83841" lon="5.50679">
        <ele>1785.5</ele>
        <time>2024-05-11T09:49:15.000Z</time>
      </trkpt>
      <trkpt lat="44.83843" lon="5.50684">
        <ele>1785.7</ele>
        <time>2024-05-11T09:49:19.000Z</time>
      </trkpt>
      <trkpt lat="44.83844" lon="5.50684">
        <ele>1785.7</ele>
        <time>2024-05-11T09:49:20.000Z</time>
      </trkpt>
      <trkpt lat="44.83845" lon="5.50688">
        <ele>1785.9</ele>
        <time>2024-05-11T09:49:23.000Z</time>
      </trkpt>
      <trkpt lat="44.83847" lon="5.50689">
        <ele>1785.9</ele>
        <time>2024-05-11T09:49:25.000Z</time>
      </trkpt>
      <trkpt lat="44.83848" lon="5.50692">
        <ele>1786</ele>
        <time>2024-05-11T09:49:27.000Z</time>
      </trkpt>
      <trkpt lat="44.83849" lon="5.50693">
        <ele>1786.1</ele>
        <time>2024-05-11T09:49:28.000Z</time>
      </trkpt>
      <trkpt lat="44.8385" lon="5.50694">
        <ele>1786.2</ele>
        <time>2024-05-11T09:49:29.000Z</time>
      </trkpt>
      <trkpt lat="44.83852" lon="5.50696">
        <ele>1786.3</ele>
        <time>2024-05-11T09:49:31.000Z</time>
      </trkpt>
      <trkpt lat="44.83853" lon="5.50696">
        <ele>1786.4</ele>
        <time>2024-05-11T09:49:33.000Z</time>
      </trkpt>
      <trkpt lat="44.83856" lon="5.50696">
        <ele>1786.6</ele>
        <time>2024-05-11T09:49:41.000Z</time>
      </trkpt>
      <trkpt lat="44.83854" lon="5.50696">
        <ele>1786.5</ele>
        <time>2024-05-11T09:49:47.000Z</time>
      </trkpt>
      <trkpt lat="44.83855" lon="5.50698">
        <ele>1786.6</ele>
        <time>2024-05-11T09:49:52.000Z</time>
      </trkpt>
      <trkpt lat="44.83855" lon="5.50699">
        <ele>1786.6</ele>
        <time>2024-05-11T09:49:53.000Z</time>
      </trkpt>
      <trkpt lat="44.83857" lon="5.50701">
        <ele>1786.7</ele>
        <time>2024-05-11T09:49:55.000Z</time>
      </trkpt>
      <trkpt lat="44.83858" lon="5.50703">
        <ele>1786.8</ele>
        <time>2024-05-11T09:49:57.000Z</time>
      </trkpt>
      <trkpt lat="44.83862" lon="5.50706">
        <ele>1787.1</ele>
        <time>2024-05-11T09:50:03.000Z</time>
      </trkpt>
      <trkpt lat="44.83865" lon="5.50712">
        <ele>1787.3</ele>
        <time>2024-05-11T09:50:09.000Z</time>
      </trkpt>
      <trkpt lat="44.83868" lon="5.50715">
        <ele>1787.6</ele>
        <time>2024-05-11T09:50:13.000Z</time>
      </trkpt>
      <trkpt lat="44.83871" lon="5.50718">
        <ele>1787.9</ele>
        <time>2024-05-11T09:50:17.000Z</time>
      </trkpt>
      <trkpt lat="44.83873" lon="5.50719">
        <ele>1788.2</ele>
        <time>2024-05-11T09:50:19.000Z</time>
      </trkpt>
      <trkpt lat="44.83874" lon="5.50721">
        <ele>1788.4</ele>
        <time>2024-05-11T09:50:22.000Z</time>
      </trkpt>
      <trkpt lat="44.83877" lon="5.50725">
        <ele>1788.7</ele>
        <time>2024-05-11T09:50:27.000Z</time>
      </trkpt>
      <trkpt lat="44.83878" lon="5.50726">
        <ele>1788.8</ele>
        <time>2024-05-11T09:50:28.000Z</time>
      </trkpt>
      <trkpt lat="44.83882" lon="5.50733">
        <ele>1789.1</ele>
        <time>2024-05-11T09:50:36.000Z</time>
      </trkpt>
      <trkpt lat="44.83883" lon="5.50733">
        <ele>1789.2</ele>
        <time>2024-05-11T09:50:40.000Z</time>
      </trkpt>
      <trkpt lat="44.83887" lon="5.50739">
        <ele>1789.3</ele>
        <time>2024-05-11T09:50:48.000Z</time>
      </trkpt>
      <trkpt lat="44.8389" lon="5.50744">
        <ele>1789.2</ele>
        <time>2024-05-11T09:50:55.000Z</time>
      </trkpt>
      <trkpt lat="44.83895" lon="5.50752">
        <ele>1789.2</ele>
        <time>2024-05-11T09:51:02.000Z</time>
      </trkpt>
      <trkpt lat="44.83901" lon="5.50758">
        <ele>1789.4</ele>
        <time>2024-05-11T09:51:09.000Z</time>
      </trkpt>
      <trkpt lat="44.83902" lon="5.50758">
        <ele>1789.4</ele>
        <time>2024-05-11T09:51:10.000Z</time>
      </trkpt>
      <trkpt lat="44.83905" lon="5.50761">
        <ele>1789.7</ele>
        <time>2024-05-11T09:51:14.000Z</time>
      </trkpt>
      <trkpt lat="44.83906" lon="5.50762">
        <ele>1789.7</ele>
        <time>2024-05-11T09:51:15.000Z</time>
      </trkpt>
      <trkpt lat="44.83909" lon="5.50765">
        <ele>1790</ele>
        <time>2024-05-11T09:51:19.000Z</time>
      </trkpt>
      <trkpt lat="44.83911" lon="5.50767">
        <ele>1790.1</ele>
        <time>2024-05-11T09:51:21.000Z</time>
      </trkpt>
      <trkpt lat="44.83913" lon="5.50768">
        <ele>1790.3</ele>
        <time>2024-05-11T09:51:23.000Z</time>
      </trkpt>
      <trkpt lat="44.83914" lon="5.50769">
        <ele>1790.5</ele>
        <time>2024-05-11T09:51:25.000Z</time>
      </trkpt>
      <trkpt lat="44.83915" lon="5.5077">
        <ele>1790.5</ele>
        <time>2024-05-11T09:51:26.000Z</time>
      </trkpt>
      <trkpt lat="44.83919" lon="5.50777">
        <ele>1791.3</ele>
        <time>2024-05-11T09:51:33.000Z</time>
      </trkpt>
      <trkpt lat="44.83923" lon="5.50783">
        <ele>1791.7</ele>
        <time>2024-05-11T09:51:40.000Z</time>
      </trkpt>
      <trkpt lat="44.83925" lon="5.50789">
        <ele>1791.8</ele>
        <time>2024-05-11T09:51:46.000Z</time>
      </trkpt>
      <trkpt lat="44.83929" lon="5.50794">
        <ele>1792.1</ele>
        <time>2024-05-11T09:51:51.000Z</time>
      </trkpt>
      <trkpt lat="44.83929" lon="5.50794">
        <ele>1792.2</ele>
        <time>2024-05-11T09:51:52.000Z</time>
      </trkpt>
      <trkpt lat="44.83931" lon="5.50796">
        <ele>1792.4</ele>
        <time>2024-05-11T09:51:55.000Z</time>
      </trkpt>
      <trkpt lat="44.83932" lon="5.50799">
        <ele>1792.5</ele>
        <time>2024-05-11T09:51:57.000Z</time>
      </trkpt>
      <trkpt lat="44.83934" lon="5.50801">
        <ele>1792.7</ele>
        <time>2024-05-11T09:51:59.000Z</time>
      </trkpt>
      <trkpt lat="44.83936" lon="5.50802">
        <ele>1792.9</ele>
        <time>2024-05-11T09:52:01.000Z</time>
      </trkpt>
      <trkpt lat="44.83937" lon="5.50808">
        <ele>1792.8</ele>
        <time>2024-05-11T09:52:05.000Z</time>
      </trkpt>
      <trkpt lat="44.83941" lon="5.50816">
        <ele>1792.7</ele>
        <time>2024-05-11T09:52:12.000Z</time>
      </trkpt>
      <trkpt lat="44.83944" lon="5.50824">
        <ele>1792.6</ele>
        <time>2024-05-11T09:52:19.000Z</time>
      </trkpt>
      <trkpt lat="44.83951" lon="5.50832">
        <ele>1793.7</ele>
        <time>2024-05-11T09:52:28.000Z</time>
      </trkpt>
      <trkpt lat="44.83954" lon="5.50834">
        <ele>1794.3</ele>
        <time>2024-05-11T09:52:32.000Z</time>
      </trkpt>
      <trkpt lat="44.83956" lon="5.50837">
        <ele>1794.8</ele>
        <time>2024-05-11T09:52:35.000Z</time>
      </trkpt>
      <trkpt lat="44.83959" lon="5.50839">
        <ele>1795.5</ele>
        <time>2024-05-11T09:52:38.000Z</time>
      </trkpt>
      <trkpt lat="44.83961" lon="5.50842">
        <ele>1795.8</ele>
        <time>2024-05-11T09:52:41.000Z</time>
      </trkpt>
      <trkpt lat="44.83961" lon="5.50842">
        <ele>1795.9</ele>
        <time>2024-05-11T09:52:42.000Z</time>
      </trkpt>
      <trkpt lat="44.83963" lon="5.50847">
        <ele>1796.1</ele>
        <time>2024-05-11T09:52:47.000Z</time>
      </trkpt>
      <trkpt lat="44.83967" lon="5.50852">
        <ele>1796.6</ele>
        <time>2024-05-11T09:52:53.000Z</time>
      </trkpt>
      <trkpt lat="44.83967" lon="5.50853">
        <ele>1796.6</ele>
        <time>2024-05-11T09:52:54.000Z</time>
      </trkpt>
      <trkpt lat="44.8397" lon="5.50855">
        <ele>1797</ele>
        <time>2024-05-11T09:52:59.000Z</time>
      </trkpt>
      <trkpt lat="44.83971" lon="5.50856">
        <ele>1797.1</ele>
        <time>2024-05-11T09:53:00.000Z</time>
      </trkpt>
      <trkpt lat="44.83976" lon="5.50857">
        <ele>1798.2</ele>
        <time>2024-05-11T09:53:07.000Z</time>
      </trkpt>
      <trkpt lat="44.83977" lon="5.5086">
        <ele>1798.1</ele>
        <time>2024-05-11T09:53:10.000Z</time>
      </trkpt>
      <trkpt lat="44.83977" lon="5.50862">
        <ele>1798.1</ele>
        <time>2024-05-11T09:53:12.000Z</time>
      </trkpt>
      <trkpt lat="44.83979" lon="5.50864">
        <ele>1798.6</ele>
        <time>2024-05-11T09:53:15.000Z</time>
      </trkpt>
      <trkpt lat="44.8398" lon="5.50865">
        <ele>1798.9</ele>
        <time>2024-05-11T09:53:17.000Z</time>
      </trkpt>
      <trkpt lat="44.83981" lon="5.50873">
        <ele>1799.5</ele>
        <time>2024-05-11T09:53:24.000Z</time>
      </trkpt>
      <trkpt lat="44.83982" lon="5.50875">
        <ele>1799.7</ele>
        <time>2024-05-11T09:53:27.000Z</time>
      </trkpt>
      <trkpt lat="44.83981" lon="5.50876">
        <ele>1799.7</ele>
        <time>2024-05-11T09:53:29.000Z</time>
      </trkpt>
      <trkpt lat="44.83985" lon="5.50878">
        <ele>1800.3</ele>
        <time>2024-05-11T09:53:33.000Z</time>
      </trkpt>
      <trkpt lat="44.83987" lon="5.50878">
        <ele>1800.7</ele>
        <time>2024-05-11T09:53:35.000Z</time>
      </trkpt>
      <trkpt lat="44.83987" lon="5.50878">
        <ele>1800.8</ele>
        <time>2024-05-11T09:53:36.000Z</time>
      </trkpt>
      <trkpt lat="44.83988" lon="5.50881">
        <ele>1801.1</ele>
        <time>2024-05-11T09:53:40.000Z</time>
      </trkpt>
      <trkpt lat="44.83989" lon="5.50883">
        <ele>1801.2</ele>
        <time>2024-05-11T09:53:43.000Z</time>
      </trkpt>
      <trkpt lat="44.8399" lon="5.50886">
        <ele>1801.5</ele>
        <time>2024-05-11T09:53:46.000Z</time>
      </trkpt>
      <trkpt lat="44.83992" lon="5.50891">
        <ele>1802</ele>
        <time>2024-05-11T09:53:52.000Z</time>
      </trkpt>
      <trkpt lat="44.83993" lon="5.50893">
        <ele>1802.3</ele>
        <time>2024-05-11T09:53:54.000Z</time>
      </trkpt>
      <trkpt lat="44.83996" lon="5.50896">
        <ele>1802.9</ele>
        <time>2024-05-11T09:53:59.000Z</time>
      </trkpt>
      <trkpt lat="44.83999" lon="5.50898">
        <ele>1803.6</ele>
        <time>2024-05-11T09:54:04.000Z</time>
      </trkpt>
      <trkpt lat="44.84001" lon="5.50899">
        <ele>1803.9</ele>
        <time>2024-05-11T09:54:07.000Z</time>
      </trkpt>
      <trkpt lat="44.84003" lon="5.50899">
        <ele>1804.3</ele>
        <time>2024-05-11T09:54:13.000Z</time>
      </trkpt>
      <trkpt lat="44.84005" lon="5.50901">
        <ele>1804.6</ele>
        <time>2024-05-11T09:54:16.000Z</time>
      </trkpt>
      <trkpt lat="44.84006" lon="5.50902">
        <ele>1804.8</ele>
        <time>2024-05-11T09:54:18.000Z</time>
      </trkpt>
      <trkpt lat="44.8401" lon="5.50906">
        <ele>1805.4</ele>
        <time>2024-05-11T09:54:23.000Z</time>
      </trkpt>
      <trkpt lat="44.84013" lon="5.50912">
        <ele>1805.9</ele>
        <time>2024-05-11T09:54:29.000Z</time>
      </trkpt>
      <trkpt lat="44.84014" lon="5.50914">
        <ele>1806</ele>
        <time>2024-05-11T09:54:31.000Z</time>
      </trkpt>
      <trkpt lat="44.84018" lon="5.50921">
        <ele>1806.5</ele>
        <time>2024-05-11T09:54:37.000Z</time>
      </trkpt>
      <trkpt lat="44.84021" lon="5.50924">
        <ele>1806.8</ele>
        <time>2024-05-11T09:54:40.000Z</time>
      </trkpt>
      <trkpt lat="44.84026" lon="5.50927">
        <ele>1807.2</ele>
        <time>2024-05-11T09:54:46.000Z</time>
      </trkpt>
      <trkpt lat="44.84027" lon="5.50928">
        <ele>1807.4</ele>
        <time>2024-05-11T09:54:48.000Z</time>
      </trkpt>
      <trkpt lat="44.84028" lon="5.50929">
        <ele>1807.4</ele>
        <time>2024-05-11T09:54:49.000Z</time>
      </trkpt>
      <trkpt lat="44.84028" lon="5.5093">
        <ele>1807.5</ele>
        <time>2024-05-11T09:54:50.000Z</time>
      </trkpt>
      <trkpt lat="44.8403" lon="5.50932">
        <ele>1807.8</ele>
        <time>2024-05-11T09:54:54.000Z</time>
      </trkpt>
      <trkpt lat="44.84035" lon="5.50938">
        <ele>1808.3</ele>
        <time>2024-05-11T09:55:02.000Z</time>
      </trkpt>
      <trkpt lat="44.84035" lon="5.50939">
        <ele>1808.3</ele>
        <time>2024-05-11T09:55:03.000Z</time>
      </trkpt>
      <trkpt lat="44.84036" lon="5.5094">
        <ele>1808.4</ele>
        <time>2024-05-11T09:55:04.000Z</time>
      </trkpt>
      <trkpt lat="44.84038" lon="5.50941">
        <ele>1808.5</ele>
        <time>2024-05-11T09:55:06.000Z</time>
      </trkpt>
      <trkpt lat="44.8404" lon="5.50942">
        <ele>1808.5</ele>
        <time>2024-05-11T09:55:08.000Z</time>
      </trkpt>
      <trkpt lat="44.84042" lon="5.50945">
        <ele>1808.5</ele>
        <time>2024-05-11T09:55:11.000Z</time>
      </trkpt>
      <trkpt lat="44.84045" lon="5.50946">
        <ele>1808.8</ele>
        <time>2024-05-11T09:55:14.000Z</time>
      </trkpt>
      <trkpt lat="44.84046" lon="5.5095">
        <ele>1809.1</ele>
        <time>2024-05-11T09:55:18.000Z</time>
      </trkpt>
      <trkpt lat="44.84047" lon="5.50951">
        <ele>1809.2</ele>
        <time>2024-05-11T09:55:20.000Z</time>
      </trkpt>
      <trkpt lat="44.84048" lon="5.50951">
        <ele>1809.3</ele>
        <time>2024-05-11T09:55:21.000Z</time>
      </trkpt>
      <trkpt lat="44.8405" lon="5.50954">
        <ele>1809.6</ele>
        <time>2024-05-11T09:55:25.000Z</time>
      </trkpt>
      <trkpt lat="44.84054" lon="5.50958">
        <ele>1810</ele>
        <time>2024-05-11T09:55:31.000Z</time>
      </trkpt>
      <trkpt lat="44.84057" lon="5.50964">
        <ele>1810.7</ele>
        <time>2024-05-11T09:55:37.000Z</time>
      </trkpt>
      <trkpt lat="44.84058" lon="5.50965">
        <ele>1810.8</ele>
        <time>2024-05-11T09:55:38.000Z</time>
      </trkpt>
      <trkpt lat="44.84062" lon="5.50967">
        <ele>1811.5</ele>
        <time>2024-05-11T09:55:44.000Z</time>
      </trkpt>
      <trkpt lat="44.84064" lon="5.5097">
        <ele>1811.9</ele>
        <time>2024-05-11T09:55:49.000Z</time>
      </trkpt>
      <trkpt lat="44.84067" lon="5.50972">
        <ele>1812.3</ele>
        <time>2024-05-11T09:55:54.000Z</time>
      </trkpt>
      <trkpt lat="44.84071" lon="5.50977">
        <ele>1813.1</ele>
        <time>2024-05-11T09:56:00.000Z</time>
      </trkpt>
      <trkpt lat="44.84073" lon="5.50982">
        <ele>1813.7</ele>
        <time>2024-05-11T09:56:06.000Z</time>
      </trkpt>
      <trkpt lat="44.84075" lon="5.50982">
        <ele>1813.9</ele>
        <time>2024-05-11T09:56:08.000Z</time>
      </trkpt>
      <trkpt lat="44.84077" lon="5.50983">
        <ele>1814</ele>
        <time>2024-05-11T09:56:10.000Z</time>
      </trkpt>
      <trkpt lat="44.84079" lon="5.50988">
        <ele>1814.5</ele>
        <time>2024-05-11T09:56:16.000Z</time>
      </trkpt>
      <trkpt lat="44.84082" lon="5.50994">
        <ele>1814.8</ele>
        <time>2024-05-11T09:56:21.000Z</time>
      </trkpt>
      <trkpt lat="44.84084" lon="5.50998">
        <ele>1814.9</ele>
        <time>2024-05-11T09:56:26.000Z</time>
      </trkpt>
      <trkpt lat="44.84086" lon="5.51001">
        <ele>1815.3</ele>
        <time>2024-05-11T09:56:31.000Z</time>
      </trkpt>
      <trkpt lat="44.84089" lon="5.51006">
        <ele>1816.1</ele>
        <time>2024-05-11T09:56:37.000Z</time>
      </trkpt>
      <trkpt lat="44.8409" lon="5.51007">
        <ele>1816.2</ele>
        <time>2024-05-11T09:56:38.000Z</time>
      </trkpt>
      <trkpt lat="44.84095" lon="5.5101">
        <ele>1816.7</ele>
        <time>2024-05-11T09:56:45.000Z</time>
      </trkpt>
      <trkpt lat="44.84099" lon="5.51014">
        <ele>1817</ele>
        <time>2024-05-11T09:56:51.000Z</time>
      </trkpt>
      <trkpt lat="44.841" lon="5.51015">
        <ele>1817.1</ele>
        <time>2024-05-11T09:56:53.000Z</time>
      </trkpt>
      <trkpt lat="44.84101" lon="5.51016">
        <ele>1817.2</ele>
        <time>2024-05-11T09:56:56.000Z</time>
      </trkpt>
      <trkpt lat="44.84105" lon="5.51022">
        <ele>1817.2</ele>
        <time>2024-05-11T09:57:04.000Z</time>
      </trkpt>
      <trkpt lat="44.84107" lon="5.51026">
        <ele>1817.2</ele>
        <time>2024-05-11T09:57:08.000Z</time>
      </trkpt>
      <trkpt lat="44.84108" lon="5.51027">
        <ele>1817.1</ele>
        <time>2024-05-11T09:57:10.000Z</time>
      </trkpt>
      <trkpt lat="44.8411" lon="5.51031">
        <ele>1817.3</ele>
        <time>2024-05-11T09:57:14.000Z</time>
      </trkpt>
      <trkpt lat="44.84111" lon="5.51033">
        <ele>1817.4</ele>
        <time>2024-05-11T09:57:16.000Z</time>
      </trkpt>
      <trkpt lat="44.84113" lon="5.51037">
        <ele>1817.9</ele>
        <time>2024-05-11T09:57:21.000Z</time>
      </trkpt>
      <trkpt lat="44.84114" lon="5.51038">
        <ele>1818</ele>
        <time>2024-05-11T09:57:22.000Z</time>
      </trkpt>
      <trkpt lat="44.84115" lon="5.51044">
        <ele>1818.7</ele>
        <time>2024-05-11T09:57:28.000Z</time>
      </trkpt>
      <trkpt lat="44.84117" lon="5.51046">
        <ele>1819.1</ele>
        <time>2024-05-11T09:57:31.000Z</time>
      </trkpt>
      <trkpt lat="44.84118" lon="5.51047">
        <ele>1819.4</ele>
        <time>2024-05-11T09:57:33.000Z</time>
      </trkpt>
      <trkpt lat="44.84121" lon="5.51051">
        <ele>1820.1</ele>
        <time>2024-05-11T09:57:38.000Z</time>
      </trkpt>
      <trkpt lat="44.84121" lon="5.51052">
        <ele>1820.1</ele>
        <time>2024-05-11T09:57:39.000Z</time>
      </trkpt>
      <trkpt lat="44.84122" lon="5.51054">
        <ele>1820.5</ele>
        <time>2024-05-11T09:57:43.000Z</time>
      </trkpt>
      <trkpt lat="44.84125" lon="5.51061">
        <ele>1821</ele>
        <time>2024-05-11T09:57:49.000Z</time>
      </trkpt>
      <trkpt lat="44.84127" lon="5.51067">
        <ele>1821.2</ele>
        <time>2024-05-11T09:57:55.000Z</time>
      </trkpt>
      <trkpt lat="44.8413" lon="5.51071">
        <ele>1821.5</ele>
        <time>2024-05-11T09:58:00.000Z</time>
      </trkpt>
      <trkpt lat="44.84131" lon="5.51075">
        <ele>1821.7</ele>
        <time>2024-05-11T09:58:03.000Z</time>
      </trkpt>
      <trkpt lat="44.84135" lon="5.51082">
        <ele>1822.3</ele>
        <time>2024-05-11T09:58:11.000Z</time>
      </trkpt>
      <trkpt lat="44.84137" lon="5.51089">
        <ele>1822.5</ele>
        <time>2024-05-11T09:58:18.000Z</time>
      </trkpt>
      <trkpt lat="44.84138" lon="5.51094">
        <ele>1822.5</ele>
        <time>2024-05-11T09:58:23.000Z</time>
      </trkpt>
      <trkpt lat="44.8414" lon="5.51097">
        <ele>1822.8</ele>
        <time>2024-05-11T09:58:27.000Z</time>
      </trkpt>
      <trkpt lat="44.84142" lon="5.51103">
        <ele>1823.3</ele>
        <time>2024-05-11T09:58:32.000Z</time>
      </trkpt>
      <trkpt lat="44.84144" lon="5.51104">
        <ele>1824</ele>
        <time>2024-05-11T09:58:36.000Z</time>
      </trkpt>
      <trkpt lat="44.84145" lon="5.51104">
        <ele>1824.2</ele>
        <time>2024-05-11T09:58:37.000Z</time>
      </trkpt>
      <trkpt lat="44.84149" lon="5.51111">
        <ele>1825.4</ele>
        <time>2024-05-11T09:58:45.000Z</time>
      </trkpt>
      <trkpt lat="44.8415" lon="5.51111">
        <ele>1825.6</ele>
        <time>2024-05-11T09:58:46.000Z</time>
      </trkpt>
      <trkpt lat="44.84154" lon="5.51115">
        <ele>1826.2</ele>
        <time>2024-05-11T09:58:51.000Z</time>
      </trkpt>
      <trkpt lat="44.84154" lon="5.51117">
        <ele>1826.2</ele>
        <time>2024-05-11T09:58:52.000Z</time>
      </trkpt>
      <trkpt lat="44.84155" lon="5.51118">
        <ele>1826.4</ele>
        <time>2024-05-11T09:58:54.000Z</time>
      </trkpt>
      <trkpt lat="44.84157" lon="5.51119">
        <ele>1826.8</ele>
        <time>2024-05-11T09:58:56.000Z</time>
      </trkpt>
      <trkpt lat="44.84159" lon="5.51121">
        <ele>1827.2</ele>
        <time>2024-05-11T09:58:58.000Z</time>
      </trkpt>
      <trkpt lat="44.84161" lon="5.51123">
        <ele>1827.6</ele>
        <time>2024-05-11T09:59:01.000Z</time>
      </trkpt>
      <trkpt lat="44.84165" lon="5.51129">
        <ele>1827.8</ele>
        <time>2024-05-11T09:59:07.000Z</time>
      </trkpt>
      <trkpt lat="44.84165" lon="5.5113">
        <ele>1827.8</ele>
        <time>2024-05-11T09:59:08.000Z</time>
      </trkpt>
      <trkpt lat="44.84166" lon="5.51132">
        <ele>1827.6</ele>
        <time>2024-05-11T09:59:11.000Z</time>
      </trkpt>
      <trkpt lat="44.84167" lon="5.51137">
        <ele>1827.3</ele>
        <time>2024-05-11T09:59:15.000Z</time>
      </trkpt>
      <trkpt lat="44.84169" lon="5.51145">
        <ele>1828</ele>
        <time>2024-05-11T09:59:22.000Z</time>
      </trkpt>
      <trkpt lat="44.8417" lon="5.51146">
        <ele>1828.2</ele>
        <time>2024-05-11T09:59:24.000Z</time>
      </trkpt>
      <trkpt lat="44.84171" lon="5.51147">
        <ele>1828.7</ele>
        <time>2024-05-11T09:59:29.000Z</time>
      </trkpt>
      <trkpt lat="44.84172" lon="5.51149">
        <ele>1829.1</ele>
        <time>2024-05-11T09:59:32.000Z</time>
      </trkpt>
      <trkpt lat="44.84173" lon="5.51152">
        <ele>1829.2</ele>
        <time>2024-05-11T09:59:35.000Z</time>
      </trkpt>
      <trkpt lat="44.84174" lon="5.51157">
        <ele>1829.4</ele>
        <time>2024-05-11T09:59:40.000Z</time>
      </trkpt>
      <trkpt lat="44.84175" lon="5.51162">
        <ele>1829.7</ele>
        <time>2024-05-11T09:59:45.000Z</time>
      </trkpt>
      <trkpt lat="44.84176" lon="5.51164">
        <ele>1829.7</ele>
        <time>2024-05-11T09:59:47.000Z</time>
      </trkpt>
      <trkpt lat="44.84176" lon="5.51166">
        <ele>1829.8</ele>
        <time>2024-05-11T09:59:49.000Z</time>
      </trkpt>
      <trkpt lat="44.84178" lon="5.51173">
        <ele>1830</ele>
        <time>2024-05-11T09:59:55.000Z</time>
      </trkpt>
      <trkpt lat="44.84178" lon="5.51174">
        <ele>1830.1</ele>
        <time>2024-05-11T09:59:56.000Z</time>
      </trkpt>
      <trkpt lat="44.8418" lon="5.51176">
        <ele>1830.7</ele>
        <time>2024-05-11T10:00:00.000Z</time>
      </trkpt>
      <trkpt lat="44.84183" lon="5.51179">
        <ele>1831.5</ele>
        <time>2024-05-11T10:00:05.000Z</time>
      </trkpt>
      <trkpt lat="44.84184" lon="5.5118">
        <ele>1831.7</ele>
        <time>2024-05-11T10:00:06.000Z</time>
      </trkpt>
      <trkpt lat="44.84185" lon="5.51182">
        <ele>1831.8</ele>
        <time>2024-05-11T10:00:08.000Z</time>
      </trkpt>
      <trkpt lat="44.84187" lon="5.51186">
        <ele>1832.2</ele>
        <time>2024-05-11T10:00:12.000Z</time>
      </trkpt>
      <trkpt lat="44.84187" lon="5.51188">
        <ele>1832.3</ele>
        <time>2024-05-11T10:00:14.000Z</time>
      </trkpt>
      <trkpt lat="44.84188" lon="5.51188">
        <ele>1832.4</ele>
        <time>2024-05-11T10:00:15.000Z</time>
      </trkpt>
      <trkpt lat="44.84187" lon="5.51188">
        <ele>1832.2</ele>
        <time>2024-05-11T10:00:17.000Z</time>
      </trkpt>
      <trkpt lat="44.84188" lon="5.5119">
        <ele>1832.4</ele>
        <time>2024-05-11T10:00:27.000Z</time>
      </trkpt>
      <trkpt lat="44.84191" lon="5.51193">
        <ele>1833</ele>
        <time>2024-05-11T10:00:34.000Z</time>
      </trkpt>
      <trkpt lat="44.84192" lon="5.51193">
        <ele>1833.2</ele>
        <time>2024-05-11T10:00:35.000Z</time>
      </trkpt>
      <trkpt lat="44.84195" lon="5.51192">
        <ele>1834.4</ele>
        <time>2024-05-11T10:00:40.000Z</time>
      </trkpt>
      <trkpt lat="44.84198" lon="5.51193">
        <ele>1835.1</ele>
        <time>2024-05-11T10:00:44.000Z</time>
      </trkpt>
      <trkpt lat="44.842" lon="5.51193">
        <ele>1835.6</ele>
        <time>2024-05-11T10:00:46.000Z</time>
      </trkpt>
      <trkpt lat="44.84201" lon="5.51194">
        <ele>1836.1</ele>
        <time>2024-05-11T10:00:48.000Z</time>
      </trkpt>
      <trkpt lat="44.84202" lon="5.51194">
        <ele>1836.2</ele>
        <time>2024-05-11T10:00:49.000Z</time>
      </trkpt>
      <trkpt lat="44.84202" lon="5.51195">
        <ele>1836.2</ele>
        <time>2024-05-11T10:00:50.000Z</time>
      </trkpt>
      <trkpt lat="44.84205" lon="5.51195">
        <ele>1837</ele>
        <time>2024-05-11T10:00:54.000Z</time>
      </trkpt>
      <trkpt lat="44.84208" lon="5.51197">
        <ele>1837.9</ele>
        <time>2024-05-11T10:01:00.000Z</time>
      </trkpt>
      <trkpt lat="44.84209" lon="5.51198">
        <ele>1838.1</ele>
        <time>2024-05-11T10:01:02.000Z</time>
      </trkpt>
      <trkpt lat="44.8421" lon="5.51202">
        <ele>1838.4</ele>
        <time>2024-05-11T10:01:08.000Z</time>
      </trkpt>
      <trkpt lat="44.8421" lon="5.51204">
        <ele>1838.5</ele>
        <time>2024-05-11T10:01:10.000Z</time>
      </trkpt>
      <trkpt lat="44.84209" lon="5.51209">
        <ele>1838.2</ele>
        <time>2024-05-11T10:01:15.000Z</time>
      </trkpt>
      <trkpt lat="44.84211" lon="5.51212">
        <ele>1838.8</ele>
        <time>2024-05-11T10:01:18.000Z</time>
      </trkpt>
      <trkpt lat="44.84211" lon="5.51212">
        <ele>1839</ele>
        <time>2024-05-11T10:01:20.000Z</time>
      </trkpt>
      <trkpt lat="44.84212" lon="5.51212">
        <ele>1839.3</ele>
        <time>2024-05-11T10:01:27.000Z</time>
      </trkpt>
      <trkpt lat="44.84212" lon="5.51212">
        <ele>1839.3</ele>
        <time>2024-05-11T10:01:29.000Z</time>
      </trkpt>
      <trkpt lat="44.84213" lon="5.51211">
        <ele>1839.5</ele>
        <time>2024-05-11T10:01:36.000Z</time>
      </trkpt>
      <trkpt lat="44.84214" lon="5.51212">
        <ele>1840</ele>
        <time>2024-05-11T10:01:45.000Z</time>
      </trkpt>
      <trkpt lat="44.84215" lon="5.51212">
        <ele>1840.1</ele>
        <time>2024-05-11T10:01:48.000Z</time>
      </trkpt>
      <trkpt lat="44.84215" lon="5.51212">
        <ele>1840.2</ele>
        <time>2024-05-11T10:01:55.000Z</time>
      </trkpt>
      <trkpt lat="44.84215" lon="5.51216">
        <ele>1840.1</ele>
        <time>2024-05-11T10:02:09.000Z</time>
      </trkpt>
      <trkpt lat="44.84215" lon="5.5122">
        <ele>1840.4</ele>
        <time>2024-05-11T10:02:14.000Z</time>
      </trkpt>
      <trkpt lat="44.84215" lon="5.51225">
        <ele>1840.5</ele>
        <time>2024-05-11T10:02:17.000Z</time>
      </trkpt>
      <trkpt lat="44.84216" lon="5.5123">
        <ele>1841</ele>
        <time>2024-05-11T10:02:21.000Z</time>
      </trkpt>
      <trkpt lat="44.84216" lon="5.51232">
        <ele>1841</ele>
        <time>2024-05-11T10:02:22.000Z</time>
      </trkpt>
      <trkpt lat="44.84217" lon="5.51234">
        <ele>1841.5</ele>
        <time>2024-05-11T10:02:25.000Z</time>
      </trkpt>
      <trkpt lat="44.84218" lon="5.51239">
        <ele>1842.2</ele>
        <time>2024-05-11T10:02:31.000Z</time>
      </trkpt>
      <trkpt lat="44.84219" lon="5.51241">
        <ele>1842.5</ele>
        <time>2024-05-11T10:02:33.000Z</time>
      </trkpt>
      <trkpt lat="44.84221" lon="5.51247">
        <ele>1843.5</ele>
        <time>2024-05-11T10:02:40.000Z</time>
      </trkpt>
      <trkpt lat="44.84222" lon="5.51248">
        <ele>1843.9</ele>
        <time>2024-05-11T10:02:43.000Z</time>
      </trkpt>
      <trkpt lat="44.84223" lon="5.51249">
        <ele>1844</ele>
        <time>2024-05-11T10:02:45.000Z</time>
      </trkpt>
      <trkpt lat="44.84225" lon="5.5125">
        <ele>1844.4</ele>
        <time>2024-05-11T10:02:50.000Z</time>
      </trkpt>
      <trkpt lat="44.84225" lon="5.51252">
        <ele>1844.5</ele>
        <time>2024-05-11T10:02:52.000Z</time>
      </trkpt>
      <trkpt lat="44.84226" lon="5.51252">
        <ele>1844.7</ele>
        <time>2024-05-11T10:02:55.000Z</time>
      </trkpt>
      <trkpt lat="44.84228" lon="5.51254">
        <ele>1845.1</ele>
        <time>2024-05-11T10:02:58.000Z</time>
      </trkpt>
      <trkpt lat="44.84229" lon="5.51254">
        <ele>1845.2</ele>
        <time>2024-05-11T10:03:00.000Z</time>
      </trkpt>
      <trkpt lat="44.84229" lon="5.51255">
        <ele>1845.2</ele>
        <time>2024-05-11T10:03:01.000Z</time>
      </trkpt>
      <trkpt lat="44.84229" lon="5.51257">
        <ele>1845.1</ele>
        <time>2024-05-11T10:03:06.000Z</time>
      </trkpt>
      <trkpt lat="44.84228" lon="5.51258">
        <ele>1845</ele>
        <time>2024-05-11T10:03:09.000Z</time>
      </trkpt>
      <trkpt lat="44.84229" lon="5.51259">
        <ele>1845.2</ele>
        <time>2024-05-11T10:03:14.000Z</time>
      </trkpt>
      <trkpt lat="44.84231" lon="5.51259">
        <ele>1845.5</ele>
        <time>2024-05-11T10:03:22.000Z</time>
      </trkpt>
      <trkpt lat="44.84235" lon="5.51262">
        <ele>1846.4</ele>
        <time>2024-05-11T10:03:28.000Z</time>
      </trkpt>
      <trkpt lat="44.84236" lon="5.51265">
        <ele>1846.8</ele>
        <time>2024-05-11T10:03:32.000Z</time>
      </trkpt>
      <trkpt lat="44.84237" lon="5.51266">
        <ele>1846.9</ele>
        <time>2024-05-11T10:03:33.000Z</time>
      </trkpt>
      <trkpt lat="44.8424" lon="5.51269">
        <ele>1847.8</ele>
        <time>2024-05-11T10:03:40.000Z</time>
      </trkpt>
      <trkpt lat="44.84245" lon="5.51271">
        <ele>1849.1</ele>
        <time>2024-05-11T10:03:47.000Z</time>
      </trkpt>
      <trkpt lat="44.84245" lon="5.51271">
        <ele>1849.2</ele>
        <time>2024-05-11T10:03:48.000Z</time>
      </trkpt>
      <trkpt lat="44.84248" lon="5.51272">
        <ele>1850</ele>
        <time>2024-05-11T10:03:51.000Z</time>
      </trkpt>
      <trkpt lat="44.84249" lon="5.51273">
        <ele>1850.4</ele>
        <time>2024-05-11T10:03:53.000Z</time>
      </trkpt>
      <trkpt lat="44.84252" lon="5.51275">
        <ele>1851.2</ele>
        <time>2024-05-11T10:03:57.000Z</time>
      </trkpt>
      <trkpt lat="44.84254" lon="5.51276">
        <ele>1851.7</ele>
        <time>2024-05-11T10:03:59.000Z</time>
      </trkpt>
      <trkpt lat="44.84255" lon="5.51278">
        <ele>1852</ele>
        <time>2024-05-11T10:04:01.000Z</time>
      </trkpt>
      <trkpt lat="44.84256" lon="5.51279">
        <ele>1852.3</ele>
        <time>2024-05-11T10:04:03.000Z</time>
      </trkpt>
      <trkpt lat="44.8426" lon="5.51279">
        <ele>1853.2</ele>
        <time>2024-05-11T10:04:09.000Z</time>
      </trkpt>
      <trkpt lat="44.84261" lon="5.51279">
        <ele>1853.6</ele>
        <time>2024-05-11T10:04:11.000Z</time>
      </trkpt>
      <trkpt lat="44.84264" lon="5.5128">
        <ele>1854.2</ele>
        <time>2024-05-11T10:04:17.000Z</time>
      </trkpt>
      <trkpt lat="44.84266" lon="5.51282">
        <ele>1854.8</ele>
        <time>2024-05-11T10:04:22.000Z</time>
      </trkpt>
      <trkpt lat="44.84268" lon="5.51284">
        <ele>1855.3</ele>
        <time>2024-05-11T10:04:26.000Z</time>
      </trkpt>
      <trkpt lat="44.84268" lon="5.51284">
        <ele>1855.4</ele>
        <time>2024-05-11T10:04:27.000Z</time>
      </trkpt>
      <trkpt lat="44.84272" lon="5.51287">
        <ele>1856.4</ele>
        <time>2024-05-11T10:04:33.000Z</time>
      </trkpt>
      <trkpt lat="44.84273" lon="5.51287">
        <ele>1856.7</ele>
        <time>2024-05-11T10:04:36.000Z</time>
      </trkpt>
      <trkpt lat="44.84273" lon="5.51288">
        <ele>1856.9</ele>
        <time>2024-05-11T10:04:38.000Z</time>
      </trkpt>
      <trkpt lat="44.84275" lon="5.51292">
        <ele>1857.5</ele>
        <time>2024-05-11T10:04:45.000Z</time>
      </trkpt>
      <trkpt lat="44.84276" lon="5.51292">
        <ele>1857.6</ele>
        <time>2024-05-11T10:04:47.000Z</time>
      </trkpt>
      <trkpt lat="44.84278" lon="5.51296">
        <ele>1858.3</ele>
        <time>2024-05-11T10:04:53.000Z</time>
      </trkpt>
      <trkpt lat="44.84279" lon="5.51298">
        <ele>1858.7</ele>
        <time>2024-05-11T10:04:56.000Z</time>
      </trkpt>
      <trkpt lat="44.8428" lon="5.513">
        <ele>1859.4</ele>
        <time>2024-05-11T10:05:01.000Z</time>
      </trkpt>
      <trkpt lat="44.84281" lon="5.51301">
        <ele>1859.6</ele>
        <time>2024-05-11T10:05:04.000Z</time>
      </trkpt>
      <trkpt lat="44.84282" lon="5.51304">
        <ele>1860.2</ele>
        <time>2024-05-11T10:05:11.000Z</time>
      </trkpt>
      <trkpt lat="44.84282" lon="5.51305">
        <ele>1860.4</ele>
        <time>2024-05-11T10:05:13.000Z</time>
      </trkpt>
      <trkpt lat="44.84282" lon="5.51307">
        <ele>1860.6</ele>
        <time>2024-05-11T10:05:18.000Z</time>
      </trkpt>
      <trkpt lat="44.84285" lon="5.5131">
        <ele>1861.7</ele>
        <time>2024-05-11T10:05:27.000Z</time>
      </trkpt>
      <trkpt lat="44.84286" lon="5.51311">
        <ele>1862.2</ele>
        <time>2024-05-11T10:05:29.000Z</time>
      </trkpt>
      <trkpt lat="44.8429" lon="5.51316">
        <ele>1863.6</ele>
        <time>2024-05-11T10:05:36.000Z</time>
      </trkpt>
      <trkpt lat="44.8429" lon="5.51317">
        <ele>1863.8</ele>
        <time>2024-05-11T10:05:37.000Z</time>
      </trkpt>
      <trkpt lat="44.84292" lon="5.5132">
        <ele>1864.5</ele>
        <time>2024-05-11T10:05:46.000Z</time>
      </trkpt>
      <trkpt lat="44.84293" lon="5.51323">
        <ele>1865.1</ele>
        <time>2024-05-11T10:05:51.000Z</time>
      </trkpt>
      <trkpt lat="44.84295" lon="5.51325">
        <ele>1865.9</ele>
        <time>2024-05-11T10:05:56.000Z</time>
      </trkpt>
      <trkpt lat="44.84296" lon="5.51325">
        <ele>1866.1</ele>
        <time>2024-05-11T10:05:58.000Z</time>
      </trkpt>
      <trkpt lat="44.84299" lon="5.51328">
        <ele>1867</ele>
        <time>2024-05-11T10:06:04.000Z</time>
      </trkpt>
      <trkpt lat="44.84299" lon="5.51329">
        <ele>1867.1</ele>
        <time>2024-05-11T10:06:05.000Z</time>
      </trkpt>
      <trkpt lat="44.843" lon="5.51329">
        <ele>1867.5</ele>
        <time>2024-05-11T10:06:10.000Z</time>
      </trkpt>
      <trkpt lat="44.84302" lon="5.5133">
        <ele>1867.9</ele>
        <time>2024-05-11T10:06:13.000Z</time>
      </trkpt>
      <trkpt lat="44.84305" lon="5.51333">
        <ele>1868.7</ele>
        <time>2024-05-11T10:06:17.000Z</time>
      </trkpt>
      <trkpt lat="44.84306" lon="5.51338">
        <ele>1869.1</ele>
        <time>2024-05-11T10:06:24.000Z</time>
      </trkpt>
      <trkpt lat="44.84309" lon="5.5134">
        <ele>1869.9</ele>
        <time>2024-05-11T10:06:30.000Z</time>
      </trkpt>
      <trkpt lat="44.8431" lon="5.51341">
        <ele>1870</ele>
        <time>2024-05-11T10:06:31.000Z</time>
      </trkpt>
      <trkpt lat="44.84311" lon="5.51342">
        <ele>1870.3</ele>
        <time>2024-05-11T10:06:36.000Z</time>
      </trkpt>
      <trkpt lat="44.84312" lon="5.51342">
        <ele>1870.4</ele>
        <time>2024-05-11T10:06:38.000Z</time>
      </trkpt>
      <trkpt lat="44.84312" lon="5.51342">
        <ele>1870.4</ele>
        <time>2024-05-11T10:06:46.000Z</time>
      </trkpt>
      <trkpt lat="44.84314" lon="5.51343">
        <ele>1870.9</ele>
        <time>2024-05-11T10:06:56.000Z</time>
      </trkpt>
      <trkpt lat="44.84314" lon="5.51344">
        <ele>1870.9</ele>
        <time>2024-05-11T10:06:58.000Z</time>
      </trkpt>
      <trkpt lat="44.84319" lon="5.51348">
        <ele>1872.1</ele>
        <time>2024-05-11T10:07:06.000Z</time>
      </trkpt>
      <trkpt lat="44.8432" lon="5.51349">
        <ele>1872.3</ele>
        <time>2024-05-11T10:07:08.000Z</time>
      </trkpt>
      <trkpt lat="44.84323" lon="5.51352">
        <ele>1873.2</ele>
        <time>2024-05-11T10:07:15.000Z</time>
      </trkpt>
      <trkpt lat="44.84324" lon="5.51353">
        <ele>1873.4</ele>
        <time>2024-05-11T10:07:17.000Z</time>
      </trkpt>
      <trkpt lat="44.84328" lon="5.51356">
        <ele>1874.6</ele>
        <time>2024-05-11T10:07:25.000Z</time>
      </trkpt>
      <trkpt lat="44.84333" lon="5.5136">
        <ele>1875.9</ele>
        <time>2024-05-11T10:07:33.000Z</time>
      </trkpt>
      <trkpt lat="44.84334" lon="5.51362">
        <ele>1876.1</ele>
        <time>2024-05-11T10:07:35.000Z</time>
      </trkpt>
      <trkpt lat="44.84338" lon="5.51364">
        <ele>1876.6</ele>
        <time>2024-05-11T10:07:42.000Z</time>
      </trkpt>
      <trkpt lat="44.84339" lon="5.51365">
        <ele>1876.8</ele>
        <time>2024-05-11T10:07:47.000Z</time>
      </trkpt>
      <trkpt lat="44.84342" lon="5.51365">
        <ele>1877.2</ele>
        <time>2024-05-11T10:07:52.000Z</time>
      </trkpt>
      <trkpt lat="44.84344" lon="5.51367">
        <ele>1877.5</ele>
        <time>2024-05-11T10:07:57.000Z</time>
      </trkpt>
      <trkpt lat="44.84347" lon="5.51369">
        <ele>1878</ele>
        <time>2024-05-11T10:08:01.000Z</time>
      </trkpt>
      <trkpt lat="44.84352" lon="5.5137">
        <ele>1878.8</ele>
        <time>2024-05-11T10:08:08.000Z</time>
      </trkpt>
      <trkpt lat="44.84356" lon="5.51371">
        <ele>1879.3</ele>
        <time>2024-05-11T10:08:13.000Z</time>
      </trkpt>
      <trkpt lat="44.84358" lon="5.51371">
        <ele>1879.7</ele>
        <time>2024-05-11T10:08:17.000Z</time>
      </trkpt>
      <trkpt lat="44.84364" lon="5.51372">
        <ele>1880.5</ele>
        <time>2024-05-11T10:08:23.000Z</time>
      </trkpt>
      <trkpt lat="44.84368" lon="5.51373">
        <ele>1881.2</ele>
        <time>2024-05-11T10:08:28.000Z</time>
      </trkpt>
      <trkpt lat="44.84369" lon="5.51373">
        <ele>1881.3</ele>
        <time>2024-05-11T10:08:30.000Z</time>
      </trkpt>
      <trkpt lat="44.8437" lon="5.51374">
        <ele>1881.5</ele>
        <time>2024-05-11T10:08:31.000Z</time>
      </trkpt>
      <trkpt lat="44.84371" lon="5.51377">
        <ele>1881.9</ele>
        <time>2024-05-11T10:08:35.000Z</time>
      </trkpt>
      <trkpt lat="44.84373" lon="5.51378">
        <ele>1882.2</ele>
        <time>2024-05-11T10:08:38.000Z</time>
      </trkpt>
      <trkpt lat="44.84374" lon="5.5138">
        <ele>1882.5</ele>
        <time>2024-05-11T10:08:41.000Z</time>
      </trkpt>
      <trkpt lat="44.84375" lon="5.51383">
        <ele>1883</ele>
        <time>2024-05-11T10:08:45.000Z</time>
      </trkpt>
      <trkpt lat="44.84375" lon="5.51386">
        <ele>1883.3</ele>
        <time>2024-05-11T10:08:48.000Z</time>
      </trkpt>
      <trkpt lat="44.84378" lon="5.5139">
        <ele>1883.9</ele>
        <time>2024-05-11T10:08:55.000Z</time>
      </trkpt>
      <trkpt lat="44.84379" lon="5.51392">
        <ele>1884.3</ele>
        <time>2024-05-11T10:08:58.000Z</time>
      </trkpt>
      <trkpt lat="44.84382" lon="5.51394">
        <ele>1884.8</ele>
        <time>2024-05-11T10:09:03.000Z</time>
      </trkpt>
      <trkpt lat="44.84385" lon="5.51397">
        <ele>1885.5</ele>
        <time>2024-05-11T10:09:08.000Z</time>
      </trkpt>
      <trkpt lat="44.84386" lon="5.51398">
        <ele>1885.8</ele>
        <time>2024-05-11T10:09:11.000Z</time>
      </trkpt>
      <trkpt lat="44.84388" lon="5.51401">
        <ele>1886.2</ele>
        <time>2024-05-11T10:09:15.000Z</time>
      </trkpt>
      <trkpt lat="44.84388" lon="5.51403">
        <ele>1886.4</ele>
        <time>2024-05-11T10:09:17.000Z</time>
      </trkpt>
      <trkpt lat="44.84391" lon="5.51407">
        <ele>1887.4</ele>
        <time>2024-05-11T10:09:24.000Z</time>
      </trkpt>
      <trkpt lat="44.84392" lon="5.51407">
        <ele>1887.5</ele>
        <time>2024-05-11T10:09:25.000Z</time>
      </trkpt>
      <trkpt lat="44.84395" lon="5.51409">
        <ele>1888.3</ele>
        <time>2024-05-11T10:09:31.000Z</time>
      </trkpt>
      <trkpt lat="44.84398" lon="5.5141">
        <ele>1888.7</ele>
        <time>2024-05-11T10:09:38.000Z</time>
      </trkpt>
      <trkpt lat="44.844" lon="5.5141">
        <ele>1889</ele>
        <time>2024-05-11T10:09:41.000Z</time>
      </trkpt>
      <trkpt lat="44.84402" lon="5.51411">
        <ele>1889.4</ele>
        <time>2024-05-11T10:09:45.000Z</time>
      </trkpt>
      <trkpt lat="44.84404" lon="5.51415">
        <ele>1890</ele>
        <time>2024-05-11T10:09:51.000Z</time>
      </trkpt>
      <trkpt lat="44.84405" lon="5.51416">
        <ele>1890.3</ele>
        <time>2024-05-11T10:09:55.000Z</time>
      </trkpt>
      <trkpt lat="44.84407" lon="5.51418">
        <ele>1890.8</ele>
        <time>2024-05-11T10:10:01.000Z</time>
      </trkpt>
      <trkpt lat="44.84408" lon="5.51418">
        <ele>1890.9</ele>
        <time>2024-05-11T10:10:02.000Z</time>
      </trkpt>
      <trkpt lat="44.84413" lon="5.5142">
        <ele>1891.7</ele>
        <time>2024-05-11T10:10:09.000Z</time>
      </trkpt>
      <trkpt lat="44.84415" lon="5.51422">
        <ele>1892</ele>
        <time>2024-05-11T10:10:12.000Z</time>
      </trkpt>
      <trkpt lat="44.84416" lon="5.51424">
        <ele>1892.2</ele>
        <time>2024-05-11T10:10:16.000Z</time>
      </trkpt>
      <trkpt lat="44.8442" lon="5.51427">
        <ele>1892.7</ele>
        <time>2024-05-11T10:10:23.000Z</time>
      </trkpt>
      <trkpt lat="44.8442" lon="5.51428">
        <ele>1892.9</ele>
        <time>2024-05-11T10:10:25.000Z</time>
      </trkpt>
      <trkpt lat="44.84423" lon="5.51428">
        <ele>1893.2</ele>
        <time>2024-05-11T10:10:31.000Z</time>
      </trkpt>
      <trkpt lat="44.84426" lon="5.51429">
        <ele>1893.6</ele>
        <time>2024-05-11T10:10:34.000Z</time>
      </trkpt>
      <trkpt lat="44.84428" lon="5.5143">
        <ele>1893.9</ele>
        <time>2024-05-11T10:10:36.000Z</time>
      </trkpt>
      <trkpt lat="44.84432" lon="5.51434">
        <ele>1894.6</ele>
        <time>2024-05-11T10:10:43.000Z</time>
      </trkpt>
      <trkpt lat="44.84437" lon="5.51438">
        <ele>1895.5</ele>
        <time>2024-05-11T10:10:51.000Z</time>
      </trkpt>
      <trkpt lat="44.84439" lon="5.51441">
        <ele>1896</ele>
        <time>2024-05-11T10:10:56.000Z</time>
      </trkpt>
      <trkpt lat="44.8444" lon="5.51441">
        <ele>1896.1</ele>
        <time>2024-05-11T10:10:57.000Z</time>
      </trkpt>
      <trkpt lat="44.84444" lon="5.51443">
        <ele>1896.8</ele>
        <time>2024-05-11T10:11:04.000Z</time>
      </trkpt>
      <trkpt lat="44.84445" lon="5.51442">
        <ele>1896.9</ele>
        <time>2024-05-11T10:11:06.000Z</time>
      </trkpt>
      <trkpt lat="44.84447" lon="5.51443">
        <ele>1897</ele>
        <time>2024-05-11T10:11:10.000Z</time>
      </trkpt>
      <trkpt lat="44.8445" lon="5.51444">
        <ele>1897.2</ele>
        <time>2024-05-11T10:11:14.000Z</time>
      </trkpt>
      <trkpt lat="44.84452" lon="5.51446">
        <ele>1897.4</ele>
        <time>2024-05-11T10:11:17.000Z</time>
      </trkpt>
      <trkpt lat="44.84457" lon="5.51448">
        <ele>1897.8</ele>
        <time>2024-05-11T10:11:24.000Z</time>
      </trkpt>
      <trkpt lat="44.8446" lon="5.51449">
        <ele>1898</ele>
        <time>2024-05-11T10:11:29.000Z</time>
      </trkpt>
      <trkpt lat="44.84463" lon="5.51454">
        <ele>1898.3</ele>
        <time>2024-05-11T10:11:36.000Z</time>
      </trkpt>
      <trkpt lat="44.84464" lon="5.51456">
        <ele>1898.5</ele>
        <time>2024-05-11T10:11:39.000Z</time>
      </trkpt>
      <trkpt lat="44.84464" lon="5.51457">
        <ele>1898.5</ele>
        <time>2024-05-11T10:11:40.000Z</time>
      </trkpt>
      <trkpt lat="44.84466" lon="5.51463">
        <ele>1898.9</ele>
        <time>2024-05-11T10:11:48.000Z</time>
      </trkpt>
      <trkpt lat="44.84466" lon="5.51465">
        <ele>1899</ele>
        <time>2024-05-11T10:11:50.000Z</time>
      </trkpt>
      <trkpt lat="44.84466" lon="5.51471">
        <ele>1899.3</ele>
        <time>2024-05-11T10:11:55.000Z</time>
      </trkpt>
      <trkpt lat="44.84466" lon="5.51475">
        <ele>1899.8</ele>
        <time>2024-05-11T10:12:00.000Z</time>
      </trkpt>
      <trkpt lat="44.84466" lon="5.5148">
        <ele>1900.6</ele>
        <time>2024-05-11T10:12:07.000Z</time>
      </trkpt>
      <trkpt lat="44.84467" lon="5.51484">
        <ele>1901.1</ele>
        <time>2024-05-11T10:12:12.000Z</time>
      </trkpt>
      <trkpt lat="44.84467" lon="5.51491">
        <ele>1902.1</ele>
        <time>2024-05-11T10:12:19.000Z</time>
      </trkpt>
      <trkpt lat="44.84467" lon="5.51492">
        <ele>1902.2</ele>
        <time>2024-05-11T10:12:20.000Z</time>
      </trkpt>
      <trkpt lat="44.84469" lon="5.51497">
        <ele>1902.7</ele>
        <time>2024-05-11T10:12:26.000Z</time>
      </trkpt>
      <trkpt lat="44.8447" lon="5.51501">
        <ele>1903.3</ele>
        <time>2024-05-11T10:12:30.000Z</time>
      </trkpt>
      <trkpt lat="44.8447" lon="5.51501">
        <ele>1903.4</ele>
        <time>2024-05-11T10:12:31.000Z</time>
      </trkpt>
      <trkpt lat="44.8447" lon="5.51502">
        <ele>1903.4</ele>
        <time>2024-05-11T10:12:32.000Z</time>
      </trkpt>
      <trkpt lat="44.84473" lon="5.51507">
        <ele>1904</ele>
        <time>2024-05-11T10:12:37.000Z</time>
      </trkpt>
      <trkpt lat="44.84477" lon="5.51513">
        <ele>1904.7</ele>
        <time>2024-05-11T10:12:44.000Z</time>
      </trkpt>
      <trkpt lat="44.84479" lon="5.51517">
        <ele>1905.1</ele>
        <time>2024-05-11T10:12:50.000Z</time>
      </trkpt>
      <trkpt lat="44.84479" lon="5.51518">
        <ele>1905.3</ele>
        <time>2024-05-11T10:12:54.000Z</time>
      </trkpt>
      <trkpt lat="44.84479" lon="5.51518">
        <ele>1905.3</ele>
        <time>2024-05-11T10:12:55.000Z</time>
      </trkpt>
      <trkpt lat="44.84478" lon="5.51517">
        <ele>1905.2</ele>
        <time>2024-05-11T10:13:02.000Z</time>
      </trkpt>
      <trkpt lat="44.84482" lon="5.51519">
        <ele>1905.3</ele>
        <time>2024-05-11T10:13:09.000Z</time>
      </trkpt>
      <trkpt lat="44.84486" lon="5.51525">
        <ele>1906</ele>
        <time>2024-05-11T10:13:15.000Z</time>
      </trkpt>
      <trkpt lat="44.84491" lon="5.5153">
        <ele>1906.6</ele>
        <time>2024-05-11T10:13:21.000Z</time>
      </trkpt>
      <trkpt lat="44.84491" lon="5.51531">
        <ele>1906.6</ele>
        <time>2024-05-11T10:13:22.000Z</time>
      </trkpt>
      <trkpt lat="44.84494" lon="5.51533">
        <ele>1906.8</ele>
        <time>2024-05-11T10:13:27.000Z</time>
      </trkpt>
      <trkpt lat="44.84496" lon="5.51537">
        <ele>1907.1</ele>
        <time>2024-05-11T10:13:31.000Z</time>
      </trkpt>
      <trkpt lat="44.84498" lon="5.5154">
        <ele>1907.3</ele>
        <time>2024-05-11T10:13:37.000Z</time>
      </trkpt>
      <trkpt lat="44.84501" lon="5.51541">
        <ele>1907.5</ele>
        <time>2024-05-11T10:13:41.000Z</time>
      </trkpt>
      <trkpt lat="44.84501" lon="5.51542">
        <ele>1907.5</ele>
        <time>2024-05-11T10:13:42.000Z</time>
      </trkpt>
      <trkpt lat="44.84505" lon="5.51544">
        <ele>1907.9</ele>
        <time>2024-05-11T10:13:48.000Z</time>
      </trkpt>
      <trkpt lat="44.84506" lon="5.51545">
        <ele>1908.1</ele>
        <time>2024-05-11T10:13:50.000Z</time>
      </trkpt>
      <trkpt lat="44.84508" lon="5.51547">
        <ele>1908.4</ele>
        <time>2024-05-11T10:13:54.000Z</time>
      </trkpt>
      <trkpt lat="44.84508" lon="5.51552">
        <ele>1909.2</ele>
        <time>2024-05-11T10:13:59.000Z</time>
      </trkpt>
      <trkpt lat="44.84508" lon="5.51555">
        <ele>1909.6</ele>
        <time>2024-05-11T10:14:04.000Z</time>
      </trkpt>
      <trkpt lat="44.8451" lon="5.51559">
        <ele>1909.9</ele>
        <time>2024-05-11T10:14:09.000Z</time>
      </trkpt>
      <trkpt lat="44.84511" lon="5.51562">
        <ele>1910.2</ele>
        <time>2024-05-11T10:14:12.000Z</time>
      </trkpt>
      <trkpt lat="44.84512" lon="5.51563">
        <ele>1910.4</ele>
        <time>2024-05-11T10:14:14.000Z</time>
      </trkpt>
      <trkpt lat="44.84514" lon="5.51569">
        <ele>1910.9</ele>
        <time>2024-05-11T10:14:20.000Z</time>
      </trkpt>
      <trkpt lat="44.84514" lon="5.51571">
        <ele>1911.2</ele>
        <time>2024-05-11T10:14:22.000Z</time>
      </trkpt>
      <trkpt lat="44.84515" lon="5.51574">
        <ele>1911.4</ele>
        <time>2024-05-11T10:14:24.000Z</time>
      </trkpt>
      <trkpt lat="44.84516" lon="5.5158">
        <ele>1911.9</ele>
        <time>2024-05-11T10:14:29.000Z</time>
      </trkpt>
      <trkpt lat="44.8452" lon="5.51585">
        <ele>1912.6</ele>
        <time>2024-05-11T10:14:36.000Z</time>
      </trkpt>
      <trkpt lat="44.84521" lon="5.51586">
        <ele>1912.8</ele>
        <time>2024-05-11T10:14:38.000Z</time>
      </trkpt>
      <trkpt lat="44.84523" lon="5.51587">
        <ele>1913.1</ele>
        <time>2024-05-11T10:14:43.000Z</time>
      </trkpt>
      <trkpt lat="44.84525" lon="5.51589">
        <ele>1913.7</ele>
        <time>2024-05-11T10:14:47.000Z</time>
      </trkpt>
      <trkpt lat="44.84526" lon="5.51591">
        <ele>1914</ele>
        <time>2024-05-11T10:14:50.000Z</time>
      </trkpt>
      <trkpt lat="44.84529" lon="5.51594">
        <ele>1914.5</ele>
        <time>2024-05-11T10:14:57.000Z</time>
      </trkpt>
      <trkpt lat="44.84529" lon="5.51594">
        <ele>1914.5</ele>
        <time>2024-05-11T10:14:59.000Z</time>
      </trkpt>
      <trkpt lat="44.8453" lon="5.51595">
        <ele>1914.6</ele>
        <time>2024-05-11T10:15:04.000Z</time>
      </trkpt>
      <trkpt lat="44.84529" lon="5.51594">
        <ele>1914.6</ele>
        <time>2024-05-11T10:15:06.000Z</time>
      </trkpt>
      <trkpt lat="44.8453" lon="5.51595">
        <ele>1914.7</ele>
        <time>2024-05-11T10:15:09.000Z</time>
      </trkpt>
      <trkpt lat="44.84532" lon="5.51598">
        <ele>1915</ele>
        <time>2024-05-11T10:15:13.000Z</time>
      </trkpt>
      <trkpt lat="44.84533" lon="5.51599">
        <ele>1915.3</ele>
        <time>2024-05-11T10:15:15.000Z</time>
      </trkpt>
      <trkpt lat="44.84535" lon="5.51604">
        <ele>1915.9</ele>
        <time>2024-05-11T10:15:21.000Z</time>
      </trkpt>
      <trkpt lat="44.84537" lon="5.51605">
        <ele>1916.1</ele>
        <time>2024-05-11T10:15:24.000Z</time>
      </trkpt>
      <trkpt lat="44.84538" lon="5.51606">
        <ele>1916.3</ele>
        <time>2024-05-11T10:15:25.000Z</time>
      </trkpt>
      <trkpt lat="44.84539" lon="5.51608">
        <ele>1916.5</ele>
        <time>2024-05-11T10:15:27.000Z</time>
      </trkpt>
      <trkpt lat="44.84539" lon="5.51608">
        <ele>1916.6</ele>
        <time>2024-05-11T10:15:28.000Z</time>
      </trkpt>
      <trkpt lat="44.8454" lon="5.51609">
        <ele>1916.7</ele>
        <time>2024-05-11T10:15:30.000Z</time>
      </trkpt>
      <trkpt lat="44.84541" lon="5.51611">
        <ele>1917</ele>
        <time>2024-05-11T10:15:33.000Z</time>
      </trkpt>
      <trkpt lat="44.84543" lon="5.51615">
        <ele>1917.5</ele>
        <time>2024-05-11T10:15:39.000Z</time>
      </trkpt>
      <trkpt lat="44.84543" lon="5.51615">
        <ele>1917.5</ele>
        <time>2024-05-11T10:15:40.000Z</time>
      </trkpt>
      <trkpt lat="44.84545" lon="5.51621">
        <ele>1918.3</ele>
        <time>2024-05-11T10:15:46.000Z</time>
      </trkpt>
      <trkpt lat="44.84547" lon="5.51626">
        <ele>1918.9</ele>
        <time>2024-05-11T10:15:51.000Z</time>
      </trkpt>
      <trkpt lat="44.84548" lon="5.51627">
        <ele>1919.1</ele>
        <time>2024-05-11T10:15:54.000Z</time>
      </trkpt>
      <trkpt lat="44.84549" lon="5.51631">
        <ele>1919.7</ele>
        <time>2024-05-11T10:16:00.000Z</time>
      </trkpt>
      <trkpt lat="44.84552" lon="5.51636">
        <ele>1920.5</ele>
        <time>2024-05-11T10:16:06.000Z</time>
      </trkpt>
      <trkpt lat="44.84553" lon="5.51639">
        <ele>1920.9</ele>
        <time>2024-05-11T10:16:09.000Z</time>
      </trkpt>
      <trkpt lat="44.84557" lon="5.51648">
        <ele>1921.3</ele>
        <time>2024-05-11T10:16:18.000Z</time>
      </trkpt>
      <trkpt lat="44.84558" lon="5.51651">
        <ele>1921.4</ele>
        <time>2024-05-11T10:16:21.000Z</time>
      </trkpt>
      <trkpt lat="44.84561" lon="5.51654">
        <ele>1921.5</ele>
        <time>2024-05-11T10:16:25.000Z</time>
      </trkpt>
      <trkpt lat="44.84566" lon="5.51659">
        <ele>1921.6</ele>
        <time>2024-05-11T10:16:32.000Z</time>
      </trkpt>
      <trkpt lat="44.84566" lon="5.5166">
        <ele>1921.7</ele>
        <time>2024-05-11T10:16:34.000Z</time>
      </trkpt>
      <trkpt lat="44.8457" lon="5.51665">
        <ele>1921.9</ele>
        <time>2024-05-11T10:16:41.000Z</time>
      </trkpt>
      <trkpt lat="44.84572" lon="5.51665">
        <ele>1921.9</ele>
        <time>2024-05-11T10:16:43.000Z</time>
      </trkpt>
      <trkpt lat="44.84575" lon="5.51668">
        <ele>1922</ele>
        <time>2024-05-11T10:16:48.000Z</time>
      </trkpt>
      <trkpt lat="44.84576" lon="5.51669">
        <ele>1922</ele>
        <time>2024-05-11T10:16:49.000Z</time>
      </trkpt>
      <trkpt lat="44.84579" lon="5.51672">
        <ele>1921.9</ele>
        <time>2024-05-11T10:16:54.000Z</time>
      </trkpt>
      <trkpt lat="44.84582" lon="5.51678">
        <ele>1922</ele>
        <time>2024-05-11T10:17:00.000Z</time>
      </trkpt>
      <trkpt lat="44.84583" lon="5.51681">
        <ele>1922</ele>
        <time>2024-05-11T10:17:03.000Z</time>
      </trkpt>
      <trkpt lat="44.84587" lon="5.51685">
        <ele>1921.6</ele>
        <time>2024-05-11T10:17:09.000Z</time>
      </trkpt>
      <trkpt lat="44.8459" lon="5.5169">
        <ele>1921.3</ele>
        <time>2024-05-11T10:17:15.000Z</time>
      </trkpt>
      <trkpt lat="44.84591" lon="5.51693">
        <ele>1921.2</ele>
        <time>2024-05-11T10:17:18.000Z</time>
      </trkpt>
      <trkpt lat="44.84592" lon="5.51694">
        <ele>1921.1</ele>
        <time>2024-05-11T10:17:20.000Z</time>
      </trkpt>
      <trkpt lat="44.84592" lon="5.51698">
        <ele>1920.8</ele>
        <time>2024-05-11T10:17:25.000Z</time>
      </trkpt>
      <trkpt lat="44.84592" lon="5.51699">
        <ele>1920.7</ele>
        <time>2024-05-11T10:17:26.000Z</time>
      </trkpt>
      <trkpt lat="44.84594" lon="5.517">
        <ele>1920.5</ele>
        <time>2024-05-11T10:17:29.000Z</time>
      </trkpt>
      <trkpt lat="44.84596" lon="5.51705">
        <ele>1920</ele>
        <time>2024-05-11T10:17:35.000Z</time>
      </trkpt>
      <trkpt lat="44.84596" lon="5.51706">
        <ele>1919.9</ele>
        <time>2024-05-11T10:17:36.000Z</time>
      </trkpt>
      <trkpt lat="44.84599" lon="5.51712">
        <ele>1919.5</ele>
        <time>2024-05-11T10:17:40.000Z</time>
      </trkpt>
      <trkpt lat="44.84599" lon="5.51714">
        <ele>1919.4</ele>
        <time>2024-05-11T10:17:41.000Z</time>
      </trkpt>
      <trkpt lat="44.846" lon="5.51718">
        <ele>1919.2</ele>
        <time>2024-05-11T10:17:45.000Z</time>
      </trkpt>
      <trkpt lat="44.84601" lon="5.51721">
        <ele>1919</ele>
        <time>2024-05-11T10:17:48.000Z</time>
      </trkpt>
      <trkpt lat="44.84604" lon="5.51726">
        <ele>1918.7</ele>
        <time>2024-05-11T10:17:56.000Z</time>
      </trkpt>
      <trkpt lat="44.84606" lon="5.51729">
        <ele>1918.5</ele>
        <time>2024-05-11T10:18:05.000Z</time>
      </trkpt>
      <trkpt lat="44.84609" lon="5.51734">
        <ele>1918.4</ele>
        <time>2024-05-11T10:18:13.000Z</time>
      </trkpt>
      <trkpt lat="44.84611" lon="5.51736">
        <ele>1918.5</ele>
        <time>2024-05-11T10:18:18.000Z</time>
      </trkpt>
      <trkpt lat="44.84612" lon="5.51736">
        <ele>1918.5</ele>
        <time>2024-05-11T10:18:22.000Z</time>
      </trkpt>
      <trkpt lat="44.84615" lon="5.51742">
        <ele>1918</ele>
        <time>2024-05-11T10:18:30.000Z</time>
      </trkpt>
      <trkpt lat="44.84618" lon="5.51748">
        <ele>1917.8</ele>
        <time>2024-05-11T10:18:38.000Z</time>
      </trkpt>
      <trkpt lat="44.84622" lon="5.51753">
        <ele>1917.2</ele>
        <time>2024-05-11T10:18:45.000Z</time>
      </trkpt>
      <trkpt lat="44.84623" lon="5.51756">
        <ele>1916.9</ele>
        <time>2024-05-11T10:18:48.000Z</time>
      </trkpt>
      <trkpt lat="44.84624" lon="5.51758">
        <ele>1916.6</ele>
        <time>2024-05-11T10:18:52.000Z</time>
      </trkpt>
      <trkpt lat="44.84627" lon="5.51761">
        <ele>1916.4</ele>
        <time>2024-05-11T10:18:59.000Z</time>
      </trkpt>
      <trkpt lat="44.8463" lon="5.51763">
        <ele>1916.4</ele>
        <time>2024-05-11T10:19:04.000Z</time>
      </trkpt>
      <trkpt lat="44.84631" lon="5.51764">
        <ele>1916.4</ele>
        <time>2024-05-11T10:19:06.000Z</time>
      </trkpt>
      <trkpt lat="44.84634" lon="5.51766">
        <ele>1916.6</ele>
        <time>2024-05-11T10:19:09.000Z</time>
      </trkpt>
      <trkpt lat="44.84636" lon="5.51769">
        <ele>1916.7</ele>
        <time>2024-05-11T10:19:13.000Z</time>
      </trkpt>
      <trkpt lat="44.84637" lon="5.5177">
        <ele>1916.7</ele>
        <time>2024-05-11T10:19:14.000Z</time>
      </trkpt>
      <trkpt lat="44.8464" lon="5.51775">
        <ele>1917</ele>
        <time>2024-05-11T10:19:20.000Z</time>
      </trkpt>
      <trkpt lat="44.84642" lon="5.51777">
        <ele>1917.1</ele>
        <time>2024-05-11T10:19:22.000Z</time>
      </trkpt>
      <trkpt lat="44.84644" lon="5.51777">
        <ele>1917.2</ele>
        <time>2024-05-11T10:19:25.000Z</time>
      </trkpt>
      <trkpt lat="44.84645" lon="5.51778">
        <ele>1917.2</ele>
        <time>2024-05-11T10:19:27.000Z</time>
      </trkpt>
      <trkpt lat="44.84648" lon="5.5178">
        <ele>1917.1</ele>
        <time>2024-05-11T10:19:30.000Z</time>
      </trkpt>
      <trkpt lat="44.84649" lon="5.51782">
        <ele>1916.9</ele>
        <time>2024-05-11T10:19:32.000Z</time>
      </trkpt>
      <trkpt lat="44.84651" lon="5.51783">
        <ele>1916.9</ele>
        <time>2024-05-11T10:19:34.000Z</time>
      </trkpt>
      <trkpt lat="44.84652" lon="5.51784">
        <ele>1916.8</ele>
        <time>2024-05-11T10:19:35.000Z</time>
      </trkpt>
      <trkpt lat="44.84656" lon="5.51786">
        <ele>1917</ele>
        <time>2024-05-11T10:19:40.000Z</time>
      </trkpt>
      <trkpt lat="44.84659" lon="5.51791">
        <ele>1916.9</ele>
        <time>2024-05-11T10:19:45.000Z</time>
      </trkpt>
      <trkpt lat="44.84664" lon="5.51801">
        <ele>1916.8</ele>
        <time>2024-05-11T10:19:53.000Z</time>
      </trkpt>
      <trkpt lat="44.84664" lon="5.51802">
        <ele>1916.8</ele>
        <time>2024-05-11T10:19:54.000Z</time>
      </trkpt>
      <trkpt lat="44.84666" lon="5.51806">
        <ele>1916.8</ele>
        <time>2024-05-11T10:19:58.000Z</time>
      </trkpt>
      <trkpt lat="44.84666" lon="5.51807">
        <ele>1916.7</ele>
        <time>2024-05-11T10:19:59.000Z</time>
      </trkpt>
      <trkpt lat="44.84666" lon="5.51807">
        <ele>1916.8</ele>
        <time>2024-05-11T10:20:02.000Z</time>
      </trkpt>
      <trkpt lat="44.84667" lon="5.51808">
        <ele>1916.6</ele>
        <time>2024-05-11T10:20:09.000Z</time>
      </trkpt>
      <trkpt lat="44.84668" lon="5.5181">
        <ele>1916.3</ele>
        <time>2024-05-11T10:20:15.000Z</time>
      </trkpt>
      <trkpt lat="44.8467" lon="5.51811">
        <ele>1916.3</ele>
        <time>2024-05-11T10:20:25.000Z</time>
      </trkpt>
      <trkpt lat="44.84671" lon="5.51814">
        <ele>1915.9</ele>
        <time>2024-05-11T10:20:31.000Z</time>
      </trkpt>
      <trkpt lat="44.84671" lon="5.51816">
        <ele>1915.6</ele>
        <time>2024-05-11T10:20:41.000Z</time>
      </trkpt>
      <trkpt lat="44.84671" lon="5.51817">
        <ele>1915.5</ele>
        <time>2024-05-11T10:20:49.000Z</time>
      </trkpt>
      <trkpt lat="44.84666" lon="5.51813">
        <ele>1915.8</ele>
        <time>2024-05-11T10:22:22.000Z</time>
      </trkpt>
      <trkpt lat="44.84663" lon="5.51811">
        <ele>1915.5</ele>
        <time>2024-05-11T10:24:19.000Z</time>
      </trkpt>
      <trkpt lat="44.84669" lon="5.51816">
        <ele>1915.6</ele>
        <time>2024-05-11T10:24:35.000Z</time>
      </trkpt>
      <trkpt lat="44.84675" lon="5.51821">
        <ele>1915.3</ele>
        <time>2024-05-11T10:24:42.000Z</time>
      </trkpt>
      <trkpt lat="44.84675" lon="5.51822">
        <ele>1915.3</ele>
        <time>2024-05-11T10:24:43.000Z</time>
      </trkpt>
      <trkpt lat="44.84677" lon="5.51824">
        <ele>1915.2</ele>
        <time>2024-05-11T10:24:47.000Z</time>
      </trkpt>
      <trkpt lat="44.84683" lon="5.51828">
        <ele>1915.6</ele>
        <time>2024-05-11T10:24:56.000Z</time>
      </trkpt>
      <trkpt lat="44.84691" lon="5.51832">
        <ele>1916.4</ele>
        <time>2024-05-11T10:25:05.000Z</time>
      </trkpt>
      <trkpt lat="44.84694" lon="5.51834">
        <ele>1916.8</ele>
        <time>2024-05-11T10:25:11.000Z</time>
      </trkpt>
      <trkpt lat="44.84699" lon="5.51835">
        <ele>1917.3</ele>
        <time>2024-05-11T10:25:17.000Z</time>
      </trkpt>
      <trkpt lat="44.84706" lon="5.51831">
        <ele>1918.1</ele>
        <time>2024-05-11T10:25:26.000Z</time>
      </trkpt>
      <trkpt lat="44.84712" lon="5.51832">
        <ele>1918.7</ele>
        <time>2024-05-11T10:25:33.000Z</time>
      </trkpt>
      <trkpt lat="44.84714" lon="5.51834">
        <ele>1919.1</ele>
        <time>2024-05-11T10:25:37.000Z</time>
      </trkpt>
      <trkpt lat="44.84716" lon="5.51835">
        <ele>1919.2</ele>
        <time>2024-05-11T10:25:39.000Z</time>
      </trkpt>
      <trkpt lat="44.84718" lon="5.51836">
        <ele>1919.4</ele>
        <time>2024-05-11T10:25:42.000Z</time>
      </trkpt>
      <trkpt lat="44.84719" lon="5.51837">
        <ele>1919.4</ele>
        <time>2024-05-11T10:25:43.000Z</time>
      </trkpt>
      <trkpt lat="44.84722" lon="5.5184">
        <ele>1919.8</ele>
        <time>2024-05-11T10:25:49.000Z</time>
      </trkpt>
      <trkpt lat="44.84726" lon="5.51844">
        <ele>1920</ele>
        <time>2024-05-11T10:25:54.000Z</time>
      </trkpt>
      <trkpt lat="44.84728" lon="5.51846">
        <ele>1920.1</ele>
        <time>2024-05-11T10:25:56.000Z</time>
      </trkpt>
      <trkpt lat="44.84731" lon="5.51849">
        <ele>1920.5</ele>
        <time>2024-05-11T10:26:01.000Z</time>
      </trkpt>
      <trkpt lat="44.84733" lon="5.51849">
        <ele>1920.7</ele>
        <time>2024-05-11T10:26:04.000Z</time>
      </trkpt>
      <trkpt lat="44.84739" lon="5.51851">
        <ele>1921.5</ele>
        <time>2024-05-11T10:26:13.000Z</time>
      </trkpt>
      <trkpt lat="44.84743" lon="5.51854">
        <ele>1922.2</ele>
        <time>2024-05-11T10:26:18.000Z</time>
      </trkpt>
      <trkpt lat="44.84745" lon="5.51857">
        <ele>1922.8</ele>
        <time>2024-05-11T10:26:22.000Z</time>
      </trkpt>
      <trkpt lat="44.84749" lon="5.51859">
        <ele>1923.6</ele>
        <time>2024-05-11T10:26:25.000Z</time>
      </trkpt>
      <trkpt lat="44.8475" lon="5.5186">
        <ele>1923.9</ele>
        <time>2024-05-11T10:26:27.000Z</time>
      </trkpt>
      <trkpt lat="44.84753" lon="5.51863">
        <ele>1923.8</ele>
        <time>2024-05-11T10:26:31.000Z</time>
      </trkpt>
      <trkpt lat="44.84754" lon="5.51867">
        <ele>1923.5</ele>
        <time>2024-05-11T10:26:37.000Z</time>
      </trkpt>
      <trkpt lat="44.84757" lon="5.51869">
        <ele>1923.4</ele>
        <time>2024-05-11T10:26:42.000Z</time>
      </trkpt>
      <trkpt lat="44.84757" lon="5.5187">
        <ele>1923.4</ele>
        <time>2024-05-11T10:26:43.000Z</time>
      </trkpt>
      <trkpt lat="44.84758" lon="5.51871">
        <ele>1923.4</ele>
        <time>2024-05-11T10:26:46.000Z</time>
      </trkpt>
      <trkpt lat="44.84761" lon="5.51872">
        <ele>1923.5</ele>
        <time>2024-05-11T10:26:51.000Z</time>
      </trkpt>
      <trkpt lat="44.84762" lon="5.51873">
        <ele>1923.5</ele>
        <time>2024-05-11T10:26:52.000Z</time>
      </trkpt>
      <trkpt lat="44.84764" lon="5.51874">
        <ele>1923.6</ele>
        <time>2024-05-11T10:26:54.000Z</time>
      </trkpt>
      <trkpt lat="44.84765" lon="5.51874">
        <ele>1923.6</ele>
        <time>2024-05-11T10:26:55.000Z</time>
      </trkpt>
      <trkpt lat="44.84766" lon="5.51875">
        <ele>1923.6</ele>
        <time>2024-05-11T10:26:56.000Z</time>
      </trkpt>
      <trkpt lat="44.84769" lon="5.51878">
        <ele>1923.8</ele>
        <time>2024-05-11T10:27:00.000Z</time>
      </trkpt>
      <trkpt lat="44.84773" lon="5.51881">
        <ele>1924.2</ele>
        <time>2024-05-11T10:27:06.000Z</time>
      </trkpt>
      <trkpt lat="44.84778" lon="5.51886">
        <ele>1924.9</ele>
        <time>2024-05-11T10:27:13.000Z</time>
      </trkpt>
      <trkpt lat="44.8478" lon="5.51888">
        <ele>1925.2</ele>
        <time>2024-05-11T10:27:18.000Z</time>
      </trkpt>
      <trkpt lat="44.84785" lon="5.51893">
        <ele>1925.2</ele>
        <time>2024-05-11T10:27:25.000Z</time>
      </trkpt>
      <trkpt lat="44.8479" lon="5.51897">
        <ele>1925.4</ele>
        <time>2024-05-11T10:27:32.000Z</time>
      </trkpt>
      <trkpt lat="44.84794" lon="5.51902">
        <ele>1925.6</ele>
        <time>2024-05-11T10:27:39.000Z</time>
      </trkpt>
      <trkpt lat="44.84796" lon="5.51904">
        <ele>1925.8</ele>
        <time>2024-05-11T10:27:42.000Z</time>
      </trkpt>
      <trkpt lat="44.84798" lon="5.51907">
        <ele>1925.9</ele>
        <time>2024-05-11T10:27:45.000Z</time>
      </trkpt>
      <trkpt lat="44.848" lon="5.51908">
        <ele>1926.1</ele>
        <time>2024-05-11T10:27:48.000Z</time>
      </trkpt>
      <trkpt lat="44.84802" lon="5.5191">
        <ele>1926.4</ele>
        <time>2024-05-11T10:27:51.000Z</time>
      </trkpt>
      <trkpt lat="44.84805" lon="5.51913">
        <ele>1926.9</ele>
        <time>2024-05-11T10:27:56.000Z</time>
      </trkpt>
      <trkpt lat="44.84808" lon="5.51916">
        <ele>1927.2</ele>
        <time>2024-05-11T10:28:01.000Z</time>
      </trkpt>
      <trkpt lat="44.8481" lon="5.51919">
        <ele>1927.3</ele>
        <time>2024-05-11T10:28:05.000Z</time>
      </trkpt>
      <trkpt lat="44.84813" lon="5.51924">
        <ele>1927.3</ele>
        <time>2024-05-11T10:28:12.000Z</time>
      </trkpt>
      <trkpt lat="44.84816" lon="5.51926">
        <ele>1927.5</ele>
        <time>2024-05-11T10:28:19.000Z</time>
      </trkpt>
      <trkpt lat="44.84824" lon="5.51929">
        <ele>1928.5</ele>
        <time>2024-05-11T10:28:28.000Z</time>
      </trkpt>
      <trkpt lat="44.84827" lon="5.51932">
        <ele>1929</ele>
        <time>2024-05-11T10:28:34.000Z</time>
      </trkpt>
      <trkpt lat="44.84829" lon="5.51935">
        <ele>1929.2</ele>
        <time>2024-05-11T10:28:38.000Z</time>
      </trkpt>
      <trkpt lat="44.84831" lon="5.51937">
        <ele>1929.5</ele>
        <time>2024-05-11T10:28:40.000Z</time>
      </trkpt>
      <trkpt lat="44.84832" lon="5.51938">
        <ele>1929.7</ele>
        <time>2024-05-11T10:28:42.000Z</time>
      </trkpt>
      <trkpt lat="44.84833" lon="5.51939">
        <ele>1930</ele>
        <time>2024-05-11T10:28:43.000Z</time>
      </trkpt>
      <trkpt lat="44.84834" lon="5.5194">
        <ele>1930.1</ele>
        <time>2024-05-11T10:28:44.000Z</time>
      </trkpt>
      <trkpt lat="44.84835" lon="5.51941">
        <ele>1930.1</ele>
        <time>2024-05-11T10:28:45.000Z</time>
      </trkpt>
      <trkpt lat="44.84837" lon="5.51944">
        <ele>1930.3</ele>
        <time>2024-05-11T10:28:47.000Z</time>
      </trkpt>
      <trkpt lat="44.8484" lon="5.51946">
        <ele>1930.2</ele>
        <time>2024-05-11T10:28:49.000Z</time>
      </trkpt>
      <trkpt lat="44.84843" lon="5.51949">
        <ele>1930</ele>
        <time>2024-05-11T10:28:52.000Z</time>
      </trkpt>
      <trkpt lat="44.84844" lon="5.5195">
        <ele>1929.9</ele>
        <time>2024-05-11T10:28:54.000Z</time>
      </trkpt>
      <trkpt lat="44.84845" lon="5.51952">
        <ele>1929.8</ele>
        <time>2024-05-11T10:28:55.000Z</time>
      </trkpt>
      <trkpt lat="44.84846" lon="5.51952">
        <ele>1929.8</ele>
        <time>2024-05-11T10:28:56.000Z</time>
      </trkpt>
      <trkpt lat="44.84849" lon="5.51955">
        <ele>1929.9</ele>
        <time>2024-05-11T10:29:00.000Z</time>
      </trkpt>
      <trkpt lat="44.8485" lon="5.51955">
        <ele>1930</ele>
        <time>2024-05-11T10:29:01.000Z</time>
      </trkpt>
      <trkpt lat="44.84851" lon="5.51956">
        <ele>1930.1</ele>
        <time>2024-05-11T10:29:03.000Z</time>
      </trkpt>
      <trkpt lat="44.84853" lon="5.51959">
        <ele>1930.1</ele>
        <time>2024-05-11T10:29:06.000Z</time>
      </trkpt>
      <trkpt lat="44.84853" lon="5.5196">
        <ele>1930.1</ele>
        <time>2024-05-11T10:29:07.000Z</time>
      </trkpt>
      <trkpt lat="44.84854" lon="5.51962">
        <ele>1930.1</ele>
        <time>2024-05-11T10:29:10.000Z</time>
      </trkpt>
      <trkpt lat="44.84855" lon="5.51967">
        <ele>1929.8</ele>
        <time>2024-05-11T10:29:16.000Z</time>
      </trkpt>
      <trkpt lat="44.84854" lon="5.51969">
        <ele>1929.6</ele>
        <time>2024-05-11T10:29:21.000Z</time>
      </trkpt>
      <trkpt lat="44.84855" lon="5.51968">
        <ele>1929.7</ele>
        <time>2024-05-11T10:29:23.000Z</time>
      </trkpt>
      <trkpt lat="44.84855" lon="5.51967">
        <ele>1929.9</ele>
        <time>2024-05-11T10:29:29.000Z</time>
      </trkpt>
      <trkpt lat="44.84857" lon="5.51967">
        <ele>1930.2</ele>
        <time>2024-05-11T10:29:37.000Z</time>
      </trkpt>
      <trkpt lat="44.84857" lon="5.51967">
        <ele>1930.2</ele>
        <time>2024-05-11T10:29:42.000Z</time>
      </trkpt>
      <trkpt lat="44.84857" lon="5.51967">
        <ele>1930.4</ele>
        <time>2024-05-11T10:29:49.000Z</time>
      </trkpt>
      <trkpt lat="44.84859" lon="5.51967">
        <ele>1930.8</ele>
        <time>2024-05-11T10:29:52.000Z</time>
      </trkpt>
      <trkpt lat="44.84866" lon="5.5197">
        <ele>1931.2</ele>
        <time>2024-05-11T10:29:58.000Z</time>
      </trkpt>
      <trkpt lat="44.84867" lon="5.51971">
        <ele>1931.3</ele>
        <time>2024-05-11T10:29:59.000Z</time>
      </trkpt>
      <trkpt lat="44.84872" lon="5.51972">
        <ele>1931.4</ele>
        <time>2024-05-11T10:30:05.000Z</time>
      </trkpt>
      <trkpt lat="44.84876" lon="5.51975">
        <ele>1931.1</ele>
        <time>2024-05-11T10:30:11.000Z</time>
      </trkpt>
      <trkpt lat="44.8488" lon="5.51977">
        <ele>1931.1</ele>
        <time>2024-05-11T10:30:15.000Z</time>
      </trkpt>
      <trkpt lat="44.84883" lon="5.51979">
        <ele>1931.2</ele>
        <time>2024-05-11T10:30:18.000Z</time>
      </trkpt>
      <trkpt lat="44.84888" lon="5.51984">
        <ele>1931.4</ele>
        <time>2024-05-11T10:30:25.000Z</time>
      </trkpt>
      <trkpt lat="44.84892" lon="5.51988">
        <ele>1931.5</ele>
        <time>2024-05-11T10:30:31.000Z</time>
      </trkpt>
      <trkpt lat="44.84893" lon="5.51988">
        <ele>1931.5</ele>
        <time>2024-05-11T10:30:32.000Z</time>
      </trkpt>
      <trkpt lat="44.84895" lon="5.51989">
        <ele>1931.6</ele>
        <time>2024-05-11T10:30:36.000Z</time>
      </trkpt>
      <trkpt lat="44.84897" lon="5.51992">
        <ele>1931.6</ele>
        <time>2024-05-11T10:30:39.000Z</time>
      </trkpt>
      <trkpt lat="44.849" lon="5.51993">
        <ele>1931.7</ele>
        <time>2024-05-11T10:30:42.000Z</time>
      </trkpt>
      <trkpt lat="44.84905" lon="5.51999">
        <ele>1932.1</ele>
        <time>2024-05-11T10:30:48.000Z</time>
      </trkpt>
      <trkpt lat="44.84906" lon="5.52">
        <ele>1932.2</ele>
        <time>2024-05-11T10:30:51.000Z</time>
      </trkpt>
      <trkpt lat="44.84911" lon="5.52003">
        <ele>1932.3</ele>
        <time>2024-05-11T10:30:57.000Z</time>
      </trkpt>
      <trkpt lat="44.84914" lon="5.52009">
        <ele>1932</ele>
        <time>2024-05-11T10:31:02.000Z</time>
      </trkpt>
      <trkpt lat="44.84915" lon="5.52011">
        <ele>1931.9</ele>
        <time>2024-05-11T10:31:04.000Z</time>
      </trkpt>
      <trkpt lat="44.84917" lon="5.52014">
        <ele>1932</ele>
        <time>2024-05-11T10:31:07.000Z</time>
      </trkpt>
      <trkpt lat="44.84918" lon="5.52016">
        <ele>1931.8</ele>
        <time>2024-05-11T10:31:09.000Z</time>
      </trkpt>
      <trkpt lat="44.84922" lon="5.52019">
        <ele>1931.7</ele>
        <time>2024-05-11T10:31:13.000Z</time>
      </trkpt>
      <trkpt lat="44.84926" lon="5.52023">
        <ele>1931.8</ele>
        <time>2024-05-11T10:31:19.000Z</time>
      </trkpt>
      <trkpt lat="44.84928" lon="5.52024">
        <ele>1931.8</ele>
        <time>2024-05-11T10:31:21.000Z</time>
      </trkpt>
      <trkpt lat="44.8493" lon="5.52025">
        <ele>1932</ele>
        <time>2024-05-11T10:31:24.000Z</time>
      </trkpt>
      <trkpt lat="44.84931" lon="5.52027">
        <ele>1932</ele>
        <time>2024-05-11T10:31:29.000Z</time>
      </trkpt>
      <trkpt lat="44.84936" lon="5.52029">
        <ele>1932.1</ele>
        <time>2024-05-11T10:31:35.000Z</time>
      </trkpt>
      <trkpt lat="44.84938" lon="5.5203">
        <ele>1932.2</ele>
        <time>2024-05-11T10:31:37.000Z</time>
      </trkpt>
      <trkpt lat="44.8494" lon="5.52031">
        <ele>1932.3</ele>
        <time>2024-05-11T10:31:39.000Z</time>
      </trkpt>
      <trkpt lat="44.84943" lon="5.52033">
        <ele>1932.2</ele>
        <time>2024-05-11T10:31:42.000Z</time>
      </trkpt>
      <trkpt lat="44.84948" lon="5.52036">
        <ele>1931.8</ele>
        <time>2024-05-11T10:31:50.000Z</time>
      </trkpt>
      <trkpt lat="44.84953" lon="5.5204">
        <ele>1931.3</ele>
        <time>2024-05-11T10:31:55.000Z</time>
      </trkpt>
      <trkpt lat="44.84955" lon="5.52041">
        <ele>1931.2</ele>
        <time>2024-05-11T10:31:58.000Z</time>
      </trkpt>
      <trkpt lat="44.84958" lon="5.52044">
        <ele>1930.9</ele>
        <time>2024-05-11T10:32:05.000Z</time>
      </trkpt>
      <trkpt lat="44.84963" lon="5.52047">
        <ele>1930.8</ele>
        <time>2024-05-11T10:32:11.000Z</time>
      </trkpt>
      <trkpt lat="44.84964" lon="5.52049">
        <ele>1930.7</ele>
        <time>2024-05-11T10:32:13.000Z</time>
      </trkpt>
      <trkpt lat="44.84966" lon="5.52052">
        <ele>1930.8</ele>
        <time>2024-05-11T10:32:16.000Z</time>
      </trkpt>
      <trkpt lat="44.84973" lon="5.52057">
        <ele>1930.4</ele>
        <time>2024-05-11T10:32:25.000Z</time>
      </trkpt>
      <trkpt lat="44.84979" lon="5.52063">
        <ele>1928.2</ele>
        <time>2024-05-11T10:32:34.000Z</time>
      </trkpt>
      <trkpt lat="44.84983" lon="5.52065">
        <ele>1927.5</ele>
        <time>2024-05-11T10:32:40.000Z</time>
      </trkpt>
      <trkpt lat="44.84988" lon="5.52068">
        <ele>1926.5</ele>
        <time>2024-05-11T10:32:47.000Z</time>
      </trkpt>
      <trkpt lat="44.8499" lon="5.52069">
        <ele>1926.3</ele>
        <time>2024-05-11T10:32:50.000Z</time>
      </trkpt>
      <trkpt lat="44.84993" lon="5.5207">
        <ele>1925.9</ele>
        <time>2024-05-11T10:32:54.000Z</time>
      </trkpt>
      <trkpt lat="44.84994" lon="5.5207">
        <ele>1925.9</ele>
        <time>2024-05-11T10:32:56.000Z</time>
      </trkpt>
      <trkpt lat="44.84998" lon="5.52073">
        <ele>1925.5</ele>
        <time>2024-05-11T10:33:00.000Z</time>
      </trkpt>
      <trkpt lat="44.85003" lon="5.52075">
        <ele>1925.2</ele>
        <time>2024-05-11T10:33:07.000Z</time>
      </trkpt>
      <trkpt lat="44.85007" lon="5.5208">
        <ele>1924.9</ele>
        <time>2024-05-11T10:33:14.000Z</time>
      </trkpt>
      <trkpt lat="44.8501" lon="5.52082">
        <ele>1924.7</ele>
        <time>2024-05-11T10:33:21.000Z</time>
      </trkpt>
      <trkpt lat="44.85013" lon="5.52084">
        <ele>1924.5</ele>
        <time>2024-05-11T10:33:28.000Z</time>
      </trkpt>
      <trkpt lat="44.85016" lon="5.52086">
        <ele>1924.1</ele>
        <time>2024-05-11T10:33:35.000Z</time>
      </trkpt>
      <trkpt lat="44.85017" lon="5.52087">
        <ele>1923.9</ele>
        <time>2024-05-11T10:33:38.000Z</time>
      </trkpt>
      <trkpt lat="44.8502" lon="5.52089">
        <ele>1923.7</ele>
        <time>2024-05-11T10:33:43.000Z</time>
      </trkpt>
      <trkpt lat="44.85025" lon="5.52089">
        <ele>1923.6</ele>
        <time>2024-05-11T10:33:50.000Z</time>
      </trkpt>
      <trkpt lat="44.85025" lon="5.5209">
        <ele>1923.6</ele>
        <time>2024-05-11T10:33:51.000Z</time>
      </trkpt>
      <trkpt lat="44.85029" lon="5.52091">
        <ele>1923.6</ele>
        <time>2024-05-11T10:33:58.000Z</time>
      </trkpt>
      <trkpt lat="44.85033" lon="5.52089">
        <ele>1924</ele>
        <time>2024-05-11T10:34:02.000Z</time>
      </trkpt>
      <trkpt lat="44.85034" lon="5.52088">
        <ele>1924.1</ele>
        <time>2024-05-11T10:34:03.000Z</time>
      </trkpt>
      <trkpt lat="44.85035" lon="5.52087">
        <ele>1924.2</ele>
        <time>2024-05-11T10:34:05.000Z</time>
      </trkpt>
      <trkpt lat="44.8504" lon="5.52086">
        <ele>1924.7</ele>
        <time>2024-05-11T10:34:12.000Z</time>
      </trkpt>
      <trkpt lat="44.85046" lon="5.52084">
        <ele>1925.2</ele>
        <time>2024-05-11T10:34:19.000Z</time>
      </trkpt>
      <trkpt lat="44.85048" lon="5.52084">
        <ele>1925.4</ele>
        <time>2024-05-11T10:34:21.000Z</time>
      </trkpt>
      <trkpt lat="44.85053" lon="5.52082">
        <ele>1925.8</ele>
        <time>2024-05-11T10:34:26.000Z</time>
      </trkpt>
      <trkpt lat="44.85054" lon="5.52083">
        <ele>1925.8</ele>
        <time>2024-05-11T10:34:27.000Z</time>
      </trkpt>
      <trkpt lat="44.85058" lon="5.52082">
        <ele>1925.7</ele>
        <time>2024-05-11T10:34:33.000Z</time>
      </trkpt>
      <trkpt lat="44.85063" lon="5.52081">
        <ele>1924.9</ele>
        <time>2024-05-11T10:34:41.000Z</time>
      </trkpt>
      <trkpt lat="44.85066" lon="5.52078">
        <ele>1924.3</ele>
        <time>2024-05-11T10:34:46.000Z</time>
      </trkpt>
      <trkpt lat="44.85069" lon="5.52078">
        <ele>1923.9</ele>
        <time>2024-05-11T10:34:49.000Z</time>
      </trkpt>
      <trkpt lat="44.85071" lon="5.52079">
        <ele>1923.8</ele>
        <time>2024-05-11T10:34:52.000Z</time>
      </trkpt>
      <trkpt lat="44.85074" lon="5.5208">
        <ele>1923.6</ele>
        <time>2024-05-11T10:34:56.000Z</time>
      </trkpt>
      <trkpt lat="44.85077" lon="5.52085">
        <ele>1923.7</ele>
        <time>2024-05-11T10:35:02.000Z</time>
      </trkpt>
      <trkpt lat="44.8508" lon="5.52087">
        <ele>1923.6</ele>
        <time>2024-05-11T10:35:08.000Z</time>
      </trkpt>
      <trkpt lat="44.85083" lon="5.5209">
        <ele>1923.5</ele>
        <time>2024-05-11T10:35:14.000Z</time>
      </trkpt>
      <trkpt lat="44.85085" lon="5.52093">
        <ele>1923.5</ele>
        <time>2024-05-11T10:35:20.000Z</time>
      </trkpt>
      <trkpt lat="44.85086" lon="5.52094">
        <ele>1923.4</ele>
        <time>2024-05-11T10:35:21.000Z</time>
      </trkpt>
      <trkpt lat="44.85089" lon="5.52095">
        <ele>1923.2</ele>
        <time>2024-05-11T10:35:24.000Z</time>
      </trkpt>
      <trkpt lat="44.8509" lon="5.52096">
        <ele>1923.1</ele>
        <time>2024-05-11T10:35:25.000Z</time>
      </trkpt>
      <trkpt lat="44.85095" lon="5.52098">
        <ele>1922.8</ele>
        <time>2024-05-11T10:35:31.000Z</time>
      </trkpt>
      <trkpt lat="44.85098" lon="5.52097">
        <ele>1922.4</ele>
        <time>2024-05-11T10:35:33.000Z</time>
      </trkpt>
      <trkpt lat="44.85107" lon="5.52097">
        <ele>1921.4</ele>
        <time>2024-05-11T10:35:40.000Z</time>
      </trkpt>
      <trkpt lat="44.85109" lon="5.52096">
        <ele>1921.1</ele>
        <time>2024-05-11T10:35:42.000Z</time>
      </trkpt>
      <trkpt lat="44.85121" lon="5.52095">
        <ele>1919.9</ele>
        <time>2024-05-11T10:35:51.000Z</time>
      </trkpt>
      <trkpt lat="44.85121" lon="5.52095">
        <ele>1920</ele>
        <time>2024-05-11T10:35:52.000Z</time>
      </trkpt>
      <trkpt lat="44.85122" lon="5.52096">
        <ele>1920</ele>
        <time>2024-05-11T10:35:53.000Z</time>
      </trkpt>
      <trkpt lat="44.85122" lon="5.52096">
        <ele>1920</ele>
        <time>2024-05-11T10:35:55.000Z</time>
      </trkpt>
      <trkpt lat="44.85127" lon="5.521">
        <ele>1920.3</ele>
        <time>2024-05-11T10:36:03.000Z</time>
      </trkpt>
      <trkpt lat="44.85132" lon="5.52102">
        <ele>1920.5</ele>
        <time>2024-05-11T10:36:09.000Z</time>
      </trkpt>
      <trkpt lat="44.85134" lon="5.521">
        <ele>1919.9</ele>
        <time>2024-05-11T10:36:13.000Z</time>
      </trkpt>
      <trkpt lat="44.85133" lon="5.52097">
        <ele>1919.4</ele>
        <time>2024-05-11T10:36:18.000Z</time>
      </trkpt>
      <trkpt lat="44.85132" lon="5.52098">
        <ele>1919.6</ele>
        <time>2024-05-11T10:36:27.000Z</time>
      </trkpt>
      <trkpt lat="44.85133" lon="5.52101">
        <ele>1920.2</ele>
        <time>2024-05-11T10:36:35.000Z</time>
      </trkpt>
      <trkpt lat="44.85133" lon="5.52096">
        <ele>1919.1</ele>
        <time>2024-05-11T10:36:41.000Z</time>
      </trkpt>
      <trkpt lat="44.85132" lon="5.52099">
        <ele>1919.8</ele>
        <time>2024-05-11T10:36:49.000Z</time>
      </trkpt>
      <trkpt lat="44.85133" lon="5.52099">
        <ele>1919.9</ele>
        <time>2024-05-11T10:36:59.000Z</time>
      </trkpt>
      <trkpt lat="44.85133" lon="5.52099">
        <ele>1919.9</ele>
        <time>2024-05-11T10:37:03.000Z</time>
      </trkpt>
      <trkpt lat="44.8513" lon="5.521">
        <ele>1920.2</ele>
        <time>2024-05-11T10:38:02.000Z</time>
      </trkpt>
      <trkpt lat="44.85129" lon="5.52102">
        <ele>1920.7</ele>
        <time>2024-05-11T10:39:05.000Z</time>
      </trkpt>
      <trkpt lat="44.8513" lon="5.52101">
        <ele>1920.3</ele>
        <time>2024-05-11T10:39:12.000Z</time>
      </trkpt>
      <trkpt lat="44.8513" lon="5.521">
        <ele>1920.2</ele>
        <time>2024-05-11T10:39:14.000Z</time>
      </trkpt>
      <trkpt lat="44.8513" lon="5.521">
        <ele>1920.2</ele>
        <time>2024-05-11T10:39:21.000Z</time>
      </trkpt>
      <trkpt lat="44.8513" lon="5.521">
        <ele>1920.2</ele>
        <time>2024-05-11T10:39:29.000Z</time>
      </trkpt>
      <trkpt lat="44.8513" lon="5.52101">
        <ele>1920.3</ele>
        <time>2024-05-11T10:39:34.000Z</time>
      </trkpt>
      <trkpt lat="44.85129" lon="5.52102">
        <ele>1920.6</ele>
        <time>2024-05-11T10:40:07.000Z</time>
      </trkpt>
      <trkpt lat="44.85132" lon="5.52103">
        <ele>1920.6</ele>
        <time>2024-05-11T10:40:15.000Z</time>
      </trkpt>
      <trkpt lat="44.85138" lon="5.52106">
        <ele>1920.9</ele>
        <time>2024-05-11T10:40:23.000Z</time>
      </trkpt>
      <trkpt lat="44.85143" lon="5.52108">
        <ele>1920.9</ele>
        <time>2024-05-11T10:40:30.000Z</time>
      </trkpt>
      <trkpt lat="44.85145" lon="5.52109">
        <ele>1920.9</ele>
        <time>2024-05-11T10:40:33.000Z</time>
      </trkpt>
      <trkpt lat="44.85149" lon="5.52111">
        <ele>1920.9</ele>
        <time>2024-05-11T10:40:38.000Z</time>
      </trkpt>
      <trkpt lat="44.85154" lon="5.52115">
        <ele>1920.7</ele>
        <time>2024-05-11T10:40:44.000Z</time>
      </trkpt>
      <trkpt lat="44.85156" lon="5.52115">
        <ele>1920.6</ele>
        <time>2024-05-11T10:40:45.000Z</time>
      </trkpt>
      <trkpt lat="44.85163" lon="5.52113">
        <ele>1919.6</ele>
        <time>2024-05-11T10:40:52.000Z</time>
      </trkpt>
      <trkpt lat="44.85166" lon="5.52115">
        <ele>1919.6</ele>
        <time>2024-05-11T10:40:55.000Z</time>
      </trkpt>
      <trkpt lat="44.8517" lon="5.52111">
        <ele>1918.3</ele>
        <time>2024-05-11T10:41:00.000Z</time>
      </trkpt>
      <trkpt lat="44.85172" lon="5.5211">
        <ele>1917.8</ele>
        <time>2024-05-11T10:41:02.000Z</time>
      </trkpt>
      <trkpt lat="44.85176" lon="5.5211">
        <ele>1917.1</ele>
        <time>2024-05-11T10:41:08.000Z</time>
      </trkpt>
      <trkpt lat="44.85176" lon="5.5211">
        <ele>1917</ele>
        <time>2024-05-11T10:41:09.000Z</time>
      </trkpt>
      <trkpt lat="44.85178" lon="5.5211">
        <ele>1916.6</ele>
        <time>2024-05-11T10:41:12.000Z</time>
      </trkpt>
      <trkpt lat="44.8518" lon="5.5211">
        <ele>1916.3</ele>
        <time>2024-05-11T10:41:14.000Z</time>
      </trkpt>
      <trkpt lat="44.85181" lon="5.5211">
        <ele>1916.1</ele>
        <time>2024-05-11T10:41:17.000Z</time>
      </trkpt>
      <trkpt lat="44.85182" lon="5.52111">
        <ele>1916</ele>
        <time>2024-05-11T10:41:18.000Z</time>
      </trkpt>
      <trkpt lat="44.85185" lon="5.5211">
        <ele>1915.4</ele>
        <time>2024-05-11T10:41:24.000Z</time>
      </trkpt>
      <trkpt lat="44.85188" lon="5.52111">
        <ele>1915.1</ele>
        <time>2024-05-11T10:41:28.000Z</time>
      </trkpt>
      <trkpt lat="44.85191" lon="5.52111">
        <ele>1914.6</ele>
        <time>2024-05-11T10:41:31.000Z</time>
      </trkpt>
      <trkpt lat="44.85196" lon="5.52113">
        <ele>1914.2</ele>
        <time>2024-05-11T10:41:35.000Z</time>
      </trkpt>
      <trkpt lat="44.85199" lon="5.52116">
        <ele>1913.9</ele>
        <time>2024-05-11T10:41:38.000Z</time>
      </trkpt>
      <trkpt lat="44.85201" lon="5.52118">
        <ele>1913.9</ele>
        <time>2024-05-11T10:41:42.000Z</time>
      </trkpt>
      <trkpt lat="44.85202" lon="5.52119">
        <ele>1914.2</ele>
        <time>2024-05-11T10:41:46.000Z</time>
      </trkpt>
      <trkpt lat="44.85202" lon="5.5212">
        <ele>1914.3</ele>
        <time>2024-05-11T10:41:48.000Z</time>
      </trkpt>
      <trkpt lat="44.85202" lon="5.5212">
        <ele>1914.4</ele>
        <time>2024-05-11T10:41:49.000Z</time>
      </trkpt>
      <trkpt lat="44.85207" lon="5.52123">
        <ele>1913.8</ele>
        <time>2024-05-11T10:41:55.000Z</time>
      </trkpt>
      <trkpt lat="44.85207" lon="5.52123">
        <ele>1914</ele>
        <time>2024-05-11T10:41:56.000Z</time>
      </trkpt>
      <trkpt lat="44.85212" lon="5.52122">
        <ele>1912.6</ele>
        <time>2024-05-11T10:42:01.000Z</time>
      </trkpt>
      <trkpt lat="44.85212" lon="5.52121">
        <ele>1912.4</ele>
        <time>2024-05-11T10:42:03.000Z</time>
      </trkpt>
      <trkpt lat="44.85214" lon="5.52122">
        <ele>1912</ele>
        <time>2024-05-11T10:42:05.000Z</time>
      </trkpt>
      <trkpt lat="44.85211" lon="5.52121">
        <ele>1912.6</ele>
        <time>2024-05-11T10:42:12.000Z</time>
      </trkpt>
      <trkpt lat="44.85211" lon="5.52111">
        <ele>1910.3</ele>
        <time>2024-05-11T10:42:20.000Z</time>
      </trkpt>
      <trkpt lat="44.85209" lon="5.52112">
        <ele>1911.1</ele>
        <time>2024-05-11T10:42:28.000Z</time>
      </trkpt>
      <trkpt lat="44.85214" lon="5.52112">
        <ele>1910.1</ele>
        <time>2024-05-11T10:42:36.000Z</time>
      </trkpt>
      <trkpt lat="44.85218" lon="5.52114">
        <ele>1909.4</ele>
        <time>2024-05-11T10:42:42.000Z</time>
      </trkpt>
      <trkpt lat="44.85219" lon="5.52114">
        <ele>1909.3</ele>
        <time>2024-05-11T10:42:43.000Z</time>
      </trkpt>
      <trkpt lat="44.85223" lon="5.52113">
        <ele>1908.1</ele>
        <time>2024-05-11T10:42:50.000Z</time>
      </trkpt>
      <trkpt lat="44.85224" lon="5.52113">
        <ele>1908</ele>
        <time>2024-05-11T10:42:51.000Z</time>
      </trkpt>
      <trkpt lat="44.85228" lon="5.52113">
        <ele>1906.7</ele>
        <time>2024-05-11T10:42:57.000Z</time>
      </trkpt>
      <trkpt lat="44.85228" lon="5.52113">
        <ele>1906.7</ele>
        <time>2024-05-11T10:42:58.000Z</time>
      </trkpt>
      <trkpt lat="44.85234" lon="5.52116">
        <ele>1905.6</ele>
        <time>2024-05-11T10:43:04.000Z</time>
      </trkpt>
      <trkpt lat="44.85244" lon="5.52117">
        <ele>1903</ele>
        <time>2024-05-11T10:43:11.000Z</time>
      </trkpt>
      <trkpt lat="44.85246" lon="5.52116">
        <ele>1902.1</ele>
        <time>2024-05-11T10:43:15.000Z</time>
      </trkpt>
      <trkpt lat="44.85248" lon="5.52116">
        <ele>1901.5</ele>
        <time>2024-05-11T10:43:18.000Z</time>
      </trkpt>
      <trkpt lat="44.8525" lon="5.52115">
        <ele>1900.8</ele>
        <time>2024-05-11T10:43:21.000Z</time>
      </trkpt>
      <trkpt lat="44.85251" lon="5.52115">
        <ele>1900.5</ele>
        <time>2024-05-11T10:43:23.000Z</time>
      </trkpt>
      <trkpt lat="44.8525" lon="5.52118">
        <ele>1901.3</ele>
        <time>2024-05-11T10:43:31.000Z</time>
      </trkpt>
      <trkpt lat="44.85251" lon="5.52118">
        <ele>1901</ele>
        <time>2024-05-11T10:43:32.000Z</time>
      </trkpt>
      <trkpt lat="44.85257" lon="5.52117">
        <ele>1898</ele>
        <time>2024-05-11T10:43:38.000Z</time>
      </trkpt>
      <trkpt lat="44.85265" lon="5.52119">
        <ele>1894.8</ele>
        <time>2024-05-11T10:43:44.000Z</time>
      </trkpt>
      <trkpt lat="44.85266" lon="5.5212">
        <ele>1894.7</ele>
        <time>2024-05-11T10:43:46.000Z</time>
      </trkpt>
      <trkpt lat="44.85267" lon="5.52121">
        <ele>1894.4</ele>
        <time>2024-05-11T10:43:47.000Z</time>
      </trkpt>
      <trkpt lat="44.8527" lon="5.52121">
        <ele>1893.2</ele>
        <time>2024-05-11T10:43:50.000Z</time>
      </trkpt>
      <trkpt lat="44.8527" lon="5.52121">
        <ele>1892.8</ele>
        <time>2024-05-11T10:43:51.000Z</time>
      </trkpt>
      <trkpt lat="44.85273" lon="5.5212">
        <ele>1891.4</ele>
        <time>2024-05-11T10:43:54.000Z</time>
      </trkpt>
      <trkpt lat="44.85275" lon="5.52121">
        <ele>1890.6</ele>
        <time>2024-05-11T10:43:59.000Z</time>
      </trkpt>
      <trkpt lat="44.85282" lon="5.5212">
        <ele>1887.6</ele>
        <time>2024-05-11T10:44:03.000Z</time>
      </trkpt>
      <trkpt lat="44.85283" lon="5.5212">
        <ele>1887.1</ele>
        <time>2024-05-11T10:44:05.000Z</time>
      </trkpt>
      <trkpt lat="44.85287" lon="5.52117">
        <ele>1885.3</ele>
        <time>2024-05-11T10:44:09.000Z</time>
      </trkpt>
      <trkpt lat="44.85285" lon="5.52117">
        <ele>1885.9</ele>
        <time>2024-05-11T10:44:11.000Z</time>
      </trkpt>
      <trkpt lat="44.85284" lon="5.52117">
        <ele>1886.3</ele>
        <time>2024-05-11T10:44:12.000Z</time>
      </trkpt>
      <trkpt lat="44.85285" lon="5.52116">
        <ele>1885.7</ele>
        <time>2024-05-11T10:44:15.000Z</time>
      </trkpt>
      <trkpt lat="44.85291" lon="5.52114">
        <ele>1883.2</ele>
        <time>2024-05-11T10:44:21.000Z</time>
      </trkpt>
      <trkpt lat="44.85291" lon="5.52113">
        <ele>1882.8</ele>
        <time>2024-05-11T10:44:22.000Z</time>
      </trkpt>
      <trkpt lat="44.85293" lon="5.52111">
        <ele>1882.1</ele>
        <time>2024-05-11T10:44:26.000Z</time>
      </trkpt>
      <trkpt lat="44.85293" lon="5.5211">
        <ele>1881.8</ele>
        <time>2024-05-11T10:44:28.000Z</time>
      </trkpt>
      <trkpt lat="44.85295" lon="5.52109">
        <ele>1881.1</ele>
        <time>2024-05-11T10:44:33.000Z</time>
      </trkpt>
      <trkpt lat="44.85298" lon="5.52108">
        <ele>1880.1</ele>
        <time>2024-05-11T10:44:36.000Z</time>
      </trkpt>
      <trkpt lat="44.853" lon="5.52107">
        <ele>1879.5</ele>
        <time>2024-05-11T10:44:38.000Z</time>
      </trkpt>
      <trkpt lat="44.85305" lon="5.52105">
        <ele>1877.5</ele>
        <time>2024-05-11T10:44:45.000Z</time>
      </trkpt>
      <trkpt lat="44.85309" lon="5.52106">
        <ele>1876.8</ele>
        <time>2024-05-11T10:44:49.000Z</time>
      </trkpt>
      <trkpt lat="44.85313" lon="5.52104">
        <ele>1876.3</ele>
        <time>2024-05-11T10:44:53.000Z</time>
      </trkpt>
      <trkpt lat="44.85322" lon="5.52103">
        <ele>1875</ele>
        <time>2024-05-11T10:45:00.000Z</time>
      </trkpt>
      <trkpt lat="44.85323" lon="5.52102">
        <ele>1874.9</ele>
        <time>2024-05-11T10:45:01.000Z</time>
      </trkpt>
      <trkpt lat="44.85325" lon="5.52104">
        <ele>1874.4</ele>
        <time>2024-05-11T10:45:07.000Z</time>
      </trkpt>
      <trkpt lat="44.85326" lon="5.52104">
        <ele>1874.2</ele>
        <time>2024-05-11T10:45:09.000Z</time>
      </trkpt>
      <trkpt lat="44.85329" lon="5.52105">
        <ele>1873.6</ele>
        <time>2024-05-11T10:45:13.000Z</time>
      </trkpt>
      <trkpt lat="44.85333" lon="5.52106">
        <ele>1872.8</ele>
        <time>2024-05-11T10:45:16.000Z</time>
      </trkpt>
      <trkpt lat="44.85339" lon="5.52108">
        <ele>1871.9</ele>
        <time>2024-05-11T10:45:20.000Z</time>
      </trkpt>
      <trkpt lat="44.85343" lon="5.5211">
        <ele>1871.2</ele>
        <time>2024-05-11T10:45:25.000Z</time>
      </trkpt>
      <trkpt lat="44.85345" lon="5.52111">
        <ele>1870.8</ele>
        <time>2024-05-11T10:45:27.000Z</time>
      </trkpt>
      <trkpt lat="44.85346" lon="5.52111">
        <ele>1870.6</ele>
        <time>2024-05-11T10:45:28.000Z</time>
      </trkpt>
      <trkpt lat="44.8535" lon="5.52111">
        <ele>1870.3</ele>
        <time>2024-05-11T10:45:34.000Z</time>
      </trkpt>
      <trkpt lat="44.85357" lon="5.52111">
        <ele>1869.5</ele>
        <time>2024-05-11T10:45:39.000Z</time>
      </trkpt>
      <trkpt lat="44.85358" lon="5.52111">
        <ele>1869.3</ele>
        <time>2024-05-11T10:45:40.000Z</time>
      </trkpt>
      <trkpt lat="44.85361" lon="5.52112">
        <ele>1868.9</ele>
        <time>2024-05-11T10:45:44.000Z</time>
      </trkpt>
      <trkpt lat="44.85363" lon="5.52112">
        <ele>1868.9</ele>
        <time>2024-05-11T10:45:46.000Z</time>
      </trkpt>
      <trkpt lat="44.85364" lon="5.52111">
        <ele>1868.9</ele>
        <time>2024-05-11T10:45:47.000Z</time>
      </trkpt>
      <trkpt lat="44.8537" lon="5.52112">
        <ele>1868.6</ele>
        <time>2024-05-11T10:45:54.000Z</time>
      </trkpt>
      <trkpt lat="44.8537" lon="5.52111">
        <ele>1868.7</ele>
        <time>2024-05-11T10:45:55.000Z</time>
      </trkpt>
      <trkpt lat="44.85378" lon="5.52111">
        <ele>1868.5</ele>
        <time>2024-05-11T10:46:03.000Z</time>
      </trkpt>
      <trkpt lat="44.85386" lon="5.52108">
        <ele>1868.7</ele>
        <time>2024-05-11T10:46:11.000Z</time>
      </trkpt>
      <trkpt lat="44.85391" lon="5.52108">
        <ele>1868.8</ele>
        <time>2024-05-11T10:46:15.000Z</time>
      </trkpt>
      <trkpt lat="44.85392" lon="5.52108">
        <ele>1868.7</ele>
        <time>2024-05-11T10:46:17.000Z</time>
      </trkpt>
      <trkpt lat="44.85393" lon="5.52109">
        <ele>1868.5</ele>
        <time>2024-05-11T10:46:18.000Z</time>
      </trkpt>
      <trkpt lat="44.85396" lon="5.5211">
        <ele>1868.3</ele>
        <time>2024-05-11T10:46:22.000Z</time>
      </trkpt>
      <trkpt lat="44.85397" lon="5.5211">
        <ele>1868.3</ele>
        <time>2024-05-11T10:46:23.000Z</time>
      </trkpt>
      <trkpt lat="44.85401" lon="5.52109">
        <ele>1868.4</ele>
        <time>2024-05-11T10:46:27.000Z</time>
      </trkpt>
      <trkpt lat="44.854" lon="5.52109">
        <ele>1868.4</ele>
        <time>2024-05-11T10:46:30.000Z</time>
      </trkpt>
      <trkpt lat="44.85402" lon="5.52111">
        <ele>1868</ele>
        <time>2024-05-11T10:46:37.000Z</time>
      </trkpt>
      <trkpt lat="44.85405" lon="5.52113">
        <ele>1867.7</ele>
        <time>2024-05-11T10:46:42.000Z</time>
      </trkpt>
      <trkpt lat="44.85411" lon="5.52115">
        <ele>1867.4</ele>
        <time>2024-05-11T10:46:48.000Z</time>
      </trkpt>
      <trkpt lat="44.85416" lon="5.52117">
        <ele>1867.2</ele>
        <time>2024-05-11T10:46:53.000Z</time>
      </trkpt>
      <trkpt lat="44.85417" lon="5.52116">
        <ele>1867.3</ele>
        <time>2024-05-11T10:46:54.000Z</time>
      </trkpt>
      <trkpt lat="44.85424" lon="5.52119">
        <ele>1867.1</ele>
        <time>2024-05-11T10:47:03.000Z</time>
      </trkpt>
      <trkpt lat="44.85428" lon="5.52121">
        <ele>1866.8</ele>
        <time>2024-05-11T10:49:03.203Z</time>
        <extensions>
          <visugpx:TrkExtension xmlns:visugpx="https://www.visugpx.com/editgpx/">
            <visugpx:node>3</visugpx:node>
            </visugpx:TrkExtension>
        </extensions>
      </trkpt>
      <trkpt lat="44.85428" lon="5.5212">
        <ele>1867</ele>
        <time>2024-05-11T10:49:25.293Z</time>
      </trkpt>
      <trkpt lat="44.8543" lon="5.5212">
        <ele>1867</ele>
        <time>2024-05-11T10:50:19.811Z</time>
      </trkpt>
      <trkpt lat="44.85438" lon="5.52121">
        <ele>1867.1</ele>
        <time>2024-05-11T10:53:58.741Z</time>
      </trkpt>
      <trkpt lat="44.8544" lon="5.52122">
        <ele>1866.9</ele>
        <time>2024-05-11T10:54:56.583Z</time>
        <extensions>
          <visugpx:TrkExtension xmlns:visugpx="https://www.visugpx.com/editgpx/">
            <visugpx:node>4</visugpx:node>
            </visugpx:TrkExtension>
        </extensions>
      </trkpt>
      <trkpt lat="44.85447" lon="5.52124">
        <ele>1866.9</ele>
        <time>2024-05-11T10:58:11.274Z</time>
      </trkpt>
      <trkpt lat="44.85447" lon="5.52124">
        <ele>1866.8</ele>
        <time>2024-05-11T10:58:23.923Z</time>
        <extensions>
          <visugpx:TrkExtension xmlns:visugpx="https://www.visugpx.com/editgpx/">
            <visugpx:node>5</visugpx:node>
            </visugpx:TrkExtension>
        </extensions>
      </trkpt>
      <trkpt lat="44.85507" lon="5.52183">
        <ele>1861.6</ele>
        <time>2024-05-11T11:31:44.000Z</time>
      </trkpt>
      <trkpt lat="44.8551" lon="5.52184">
        <ele>1861.6</ele>
        <time>2024-05-11T11:31:48.000Z</time>
      </trkpt>
      <trkpt lat="44.85513" lon="5.52185">
        <ele>1861.6</ele>
        <time>2024-05-11T11:31:50.000Z</time>
      </trkpt>
      <trkpt lat="44.85518" lon="5.52186">
        <ele>1861.8</ele>
        <time>2024-05-11T11:31:55.000Z</time>
      </trkpt>
      <trkpt lat="44.8552" lon="5.52187">
        <ele>1861.9</ele>
        <time>2024-05-11T11:31:57.000Z</time>
      </trkpt>
      <trkpt lat="44.85525" lon="5.52191">
        <ele>1861.9</ele>
        <time>2024-05-11T11:32:02.000Z</time>
      </trkpt>
      <trkpt lat="44.85527" lon="5.52194">
        <ele>1861.9</ele>
        <time>2024-05-11T11:32:06.000Z</time>
      </trkpt>
      <trkpt lat="44.85529" lon="5.52197">
        <ele>1862</ele>
        <time>2024-05-11T11:32:09.000Z</time>
      </trkpt>
      <trkpt lat="44.85534" lon="5.52202">
        <ele>1862</ele>
        <time>2024-05-11T11:32:17.000Z</time>
      </trkpt>
      <trkpt lat="44.85534" lon="5.52203">
        <ele>1862</ele>
        <time>2024-05-11T11:32:25.000Z</time>
      </trkpt>
      <trkpt lat="44.85536" lon="5.52205">
        <ele>1862</ele>
        <time>2024-05-11T11:32:30.000Z</time>
      </trkpt>
      <trkpt lat="44.8554" lon="5.52207">
        <ele>1862.2</ele>
        <time>2024-05-11T11:32:35.000Z</time>
      </trkpt>
      <trkpt lat="44.85546" lon="5.5221">
        <ele>1862.4</ele>
        <time>2024-05-11T11:32:41.000Z</time>
      </trkpt>
      <trkpt lat="44.85548" lon="5.52212">
        <ele>1862.5</ele>
        <time>2024-05-11T11:32:44.000Z</time>
      </trkpt>
      <trkpt lat="44.85553" lon="5.52213">
        <ele>1862.8</ele>
        <time>2024-05-11T11:32:50.000Z</time>
      </trkpt>
      <trkpt lat="44.85553" lon="5.52214">
        <ele>1862.9</ele>
        <time>2024-05-11T11:32:51.000Z</time>
      </trkpt>
      <trkpt lat="44.85561" lon="5.52216">
        <ele>1863.6</ele>
        <time>2024-05-11T11:33:00.000Z</time>
      </trkpt>
      <trkpt lat="44.85563" lon="5.52217">
        <ele>1863.8</ele>
        <time>2024-05-11T11:33:03.000Z</time>
      </trkpt>
      <trkpt lat="44.85566" lon="5.52218">
        <ele>1864.1</ele>
        <time>2024-05-11T11:33:08.000Z</time>
      </trkpt>
      <trkpt lat="44.85569" lon="5.52219">
        <ele>1864.4</ele>
        <time>2024-05-11T11:33:13.000Z</time>
      </trkpt>
      <trkpt lat="44.85569" lon="5.52219">
        <ele>1864.5</ele>
        <time>2024-05-11T11:33:14.000Z</time>
      </trkpt>
      <trkpt lat="44.85573" lon="5.5222">
        <ele>1864.9</ele>
        <time>2024-05-11T11:33:18.000Z</time>
      </trkpt>
      <trkpt lat="44.85579" lon="5.5222">
        <ele>1865.5</ele>
        <time>2024-05-11T11:33:25.000Z</time>
      </trkpt>
      <trkpt lat="44.8558" lon="5.5222">
        <ele>1865.6</ele>
        <time>2024-05-11T11:33:26.000Z</time>
      </trkpt>
      <trkpt lat="44.85584" lon="5.52219">
        <ele>1866.1</ele>
        <time>2024-05-11T11:33:31.000Z</time>
      </trkpt>
      <trkpt lat="44.8559" lon="5.5222">
        <ele>1866.7</ele>
        <time>2024-05-11T11:33:37.000Z</time>
      </trkpt>
      <trkpt lat="44.85593" lon="5.5222">
        <ele>1867</ele>
        <time>2024-05-11T11:33:40.000Z</time>
      </trkpt>
      <trkpt lat="44.85595" lon="5.5222">
        <ele>1867.3</ele>
        <time>2024-05-11T11:33:48.000Z</time>
      </trkpt>
      <trkpt lat="44.85596" lon="5.5222">
        <ele>1867.3</ele>
        <time>2024-05-11T11:33:49.000Z</time>
      </trkpt>
      <trkpt lat="44.85596" lon="5.5222">
        <ele>1867.3</ele>
        <time>2024-05-11T11:33:55.000Z</time>
      </trkpt>
      <trkpt lat="44.85596" lon="5.5222">
        <ele>1867.3</ele>
        <time>2024-05-11T11:33:59.000Z</time>
      </trkpt>
      <trkpt lat="44.85595" lon="5.5222">
        <ele>1867.2</ele>
        <time>2024-05-11T11:34:02.000Z</time>
      </trkpt>
      <trkpt lat="44.85596" lon="5.52219">
        <ele>1867.3</ele>
        <time>2024-05-11T11:34:22.000Z</time>
      </trkpt>
      <trkpt lat="44.85597" lon="5.52219">
        <ele>1867.4</ele>
        <time>2024-05-11T11:34:23.000Z</time>
      </trkpt>
      <trkpt lat="44.856" lon="5.52218">
        <ele>1867.7</ele>
        <time>2024-05-11T11:34:26.000Z</time>
      </trkpt>
      <trkpt lat="44.85606" lon="5.52215">
        <ele>1868.2</ele>
        <time>2024-05-11T11:34:32.000Z</time>
      </trkpt>
      <trkpt lat="44.85606" lon="5.52216">
        <ele>1868.3</ele>
        <time>2024-05-11T11:34:40.000Z</time>
      </trkpt>
      <trkpt lat="44.85612" lon="5.52216">
        <ele>1868.8</ele>
        <time>2024-05-11T11:34:51.000Z</time>
      </trkpt>
      <trkpt lat="44.85613" lon="5.52216">
        <ele>1868.9</ele>
        <time>2024-05-11T11:34:52.000Z</time>
      </trkpt>
      <trkpt lat="44.85619" lon="5.52217">
        <ele>1869.2</ele>
        <time>2024-05-11T11:34:58.000Z</time>
      </trkpt>
      <trkpt lat="44.8562" lon="5.52217">
        <ele>1869.2</ele>
        <time>2024-05-11T11:34:59.000Z</time>
      </trkpt>
      <trkpt lat="44.85623" lon="5.52217">
        <ele>1869.3</ele>
        <time>2024-05-11T11:35:03.000Z</time>
      </trkpt>
      <trkpt lat="44.85624" lon="5.52216">
        <ele>1869.3</ele>
        <time>2024-05-11T11:35:04.000Z</time>
      </trkpt>
      <trkpt lat="44.85628" lon="5.52215">
        <ele>1869.4</ele>
        <time>2024-05-11T11:35:10.000Z</time>
      </trkpt>
      <trkpt lat="44.85632" lon="5.52216">
        <ele>1869.6</ele>
        <time>2024-05-11T11:35:17.000Z</time>
      </trkpt>
      <trkpt lat="44.85633" lon="5.52219">
        <ele>1870</ele>
        <time>2024-05-11T11:35:22.000Z</time>
      </trkpt>
      <trkpt lat="44.85637" lon="5.52221">
        <ele>1870.7</ele>
        <time>2024-05-11T11:35:28.000Z</time>
      </trkpt>
      <trkpt lat="44.85641" lon="5.52223">
        <ele>1871.1</ele>
        <time>2024-05-11T11:35:34.000Z</time>
      </trkpt>
      <trkpt lat="44.85645" lon="5.52224">
        <ele>1871.2</ele>
        <time>2024-05-11T11:35:39.000Z</time>
      </trkpt>
      <trkpt lat="44.8565" lon="5.52226">
        <ele>1871.6</ele>
        <time>2024-05-11T11:35:48.000Z</time>
      </trkpt>
      <trkpt lat="44.85652" lon="5.52227">
        <ele>1871.7</ele>
        <time>2024-05-11T11:35:50.000Z</time>
      </trkpt>
      <trkpt lat="44.85658" lon="5.5223">
        <ele>1872.2</ele>
        <time>2024-05-11T11:35:58.000Z</time>
      </trkpt>
      <trkpt lat="44.85663" lon="5.52233">
        <ele>1872.8</ele>
        <time>2024-05-11T11:36:05.000Z</time>
      </trkpt>
      <trkpt lat="44.85664" lon="5.52233">
        <ele>1872.8</ele>
        <time>2024-05-11T11:36:06.000Z</time>
      </trkpt>
      <trkpt lat="44.85668" lon="5.52236">
        <ele>1873.5</ele>
        <time>2024-05-11T11:36:12.000Z</time>
      </trkpt>
      <trkpt lat="44.8567" lon="5.52235">
        <ele>1873.6</ele>
        <time>2024-05-11T11:36:17.000Z</time>
      </trkpt>
      <trkpt lat="44.8567" lon="5.52235">
        <ele>1873.4</ele>
        <time>2024-05-11T11:36:18.000Z</time>
      </trkpt>
      <trkpt lat="44.85674" lon="5.52237">
        <ele>1874.1</ele>
        <time>2024-05-11T11:36:24.000Z</time>
      </trkpt>
      <trkpt lat="44.85678" lon="5.52239">
        <ele>1874.6</ele>
        <time>2024-05-11T11:36:30.000Z</time>
      </trkpt>
      <trkpt lat="44.8568" lon="5.52241">
        <ele>1875.2</ele>
        <time>2024-05-11T11:36:36.000Z</time>
      </trkpt>
      <trkpt lat="44.85682" lon="5.52242">
        <ele>1875.6</ele>
        <time>2024-05-11T11:36:41.000Z</time>
      </trkpt>
      <trkpt lat="44.85685" lon="5.52247">
        <ele>1876.6</ele>
        <time>2024-05-11T11:36:48.000Z</time>
      </trkpt>
      <trkpt lat="44.85686" lon="5.52248">
        <ele>1876.9</ele>
        <time>2024-05-11T11:36:50.000Z</time>
      </trkpt>
      <trkpt lat="44.85692" lon="5.52249">
        <ele>1877.6</ele>
        <time>2024-05-11T11:36:56.000Z</time>
      </trkpt>
      <trkpt lat="44.85694" lon="5.5225">
        <ele>1878</ele>
        <time>2024-05-11T11:36:58.000Z</time>
      </trkpt>
      <trkpt lat="44.85695" lon="5.52249">
        <ele>1877.9</ele>
        <time>2024-05-11T11:36:59.000Z</time>
      </trkpt>
      <trkpt lat="44.85698" lon="5.52249">
        <ele>1877.9</ele>
        <time>2024-05-11T11:37:02.000Z</time>
      </trkpt>
      <trkpt lat="44.85701" lon="5.52251">
        <ele>1878</ele>
        <time>2024-05-11T11:37:07.000Z</time>
      </trkpt>
      <trkpt lat="44.85701" lon="5.52252">
        <ele>1878.1</ele>
        <time>2024-05-11T11:37:08.000Z</time>
      </trkpt>
      <trkpt lat="44.85704" lon="5.52254">
        <ele>1878.2</ele>
        <time>2024-05-11T11:37:14.000Z</time>
      </trkpt>
      <trkpt lat="44.85708" lon="5.52253">
        <ele>1878.2</ele>
        <time>2024-05-11T11:37:18.000Z</time>
      </trkpt>
      <trkpt lat="44.85712" lon="5.52254">
        <ele>1878.3</ele>
        <time>2024-05-11T11:37:23.000Z</time>
      </trkpt>
      <trkpt lat="44.85714" lon="5.52254">
        <ele>1878.4</ele>
        <time>2024-05-11T11:37:25.000Z</time>
      </trkpt>
      <trkpt lat="44.85715" lon="5.52256">
        <ele>1878.6</ele>
        <time>2024-05-11T11:37:29.000Z</time>
      </trkpt>
      <trkpt lat="44.85716" lon="5.52258">
        <ele>1878.9</ele>
        <time>2024-05-11T11:37:33.000Z</time>
      </trkpt>
      <trkpt lat="44.85716" lon="5.52259">
        <ele>1879</ele>
        <time>2024-05-11T11:37:42.000Z</time>
      </trkpt>
      <trkpt lat="44.85717" lon="5.52259">
        <ele>1879.1</ele>
        <time>2024-05-11T11:38:06.000Z</time>
      </trkpt>
      <trkpt lat="44.85723" lon="5.5226">
        <ele>1879.5</ele>
        <time>2024-05-11T11:38:15.000Z</time>
      </trkpt>
      <trkpt lat="44.85726" lon="5.5226">
        <ele>1880.2</ele>
        <time>2024-05-11T11:38:21.000Z</time>
      </trkpt>
      <trkpt lat="44.85728" lon="5.52261">
        <ele>1880.8</ele>
        <time>2024-05-11T11:38:26.000Z</time>
      </trkpt>
      <trkpt lat="44.85729" lon="5.52261">
        <ele>1881</ele>
        <time>2024-05-11T11:38:28.000Z</time>
      </trkpt>
      <trkpt lat="44.85731" lon="5.52263">
        <ele>1881.7</ele>
        <time>2024-05-11T11:38:33.000Z</time>
      </trkpt>
      <trkpt lat="44.85733" lon="5.52262">
        <ele>1881.9</ele>
        <time>2024-05-11T11:38:37.000Z</time>
      </trkpt>
      <trkpt lat="44.85734" lon="5.52263">
        <ele>1882.3</ele>
        <time>2024-05-11T11:38:41.000Z</time>
      </trkpt>
      <trkpt lat="44.85737" lon="5.52263">
        <ele>1882.8</ele>
        <time>2024-05-11T11:38:44.000Z</time>
      </trkpt>
      <trkpt lat="44.85739" lon="5.52264">
        <ele>1883.3</ele>
        <time>2024-05-11T11:38:46.000Z</time>
      </trkpt>
      <trkpt lat="44.85741" lon="5.52266">
        <ele>1883.9</ele>
        <time>2024-05-11T11:38:50.000Z</time>
      </trkpt>
      <trkpt lat="44.85743" lon="5.52269">
        <ele>1884.4</ele>
        <time>2024-05-11T11:38:55.000Z</time>
      </trkpt>
      <trkpt lat="44.85743" lon="5.52273">
        <ele>1884.6</ele>
        <time>2024-05-11T11:39:04.000Z</time>
      </trkpt>
      <trkpt lat="44.85743" lon="5.52273">
        <ele>1884.7</ele>
        <time>2024-05-11T11:39:05.000Z</time>
      </trkpt>
      <trkpt lat="44.85747" lon="5.52274">
        <ele>1885.4</ele>
        <time>2024-05-11T11:39:10.000Z</time>
      </trkpt>
      <trkpt lat="44.85748" lon="5.52275">
        <ele>1885.5</ele>
        <time>2024-05-11T11:39:11.000Z</time>
      </trkpt>
      <trkpt lat="44.85749" lon="5.52275">
        <ele>1885.7</ele>
        <time>2024-05-11T11:39:12.000Z</time>
      </trkpt>
      <trkpt lat="44.85752" lon="5.52279">
        <ele>1886.3</ele>
        <time>2024-05-11T11:39:18.000Z</time>
      </trkpt>
      <trkpt lat="44.85752" lon="5.52277">
        <ele>1886.4</ele>
        <time>2024-05-11T11:39:26.000Z</time>
      </trkpt>
      <trkpt lat="44.85754" lon="5.52277">
        <ele>1886.9</ele>
        <time>2024-05-11T11:39:32.000Z</time>
      </trkpt>
      <trkpt lat="44.85755" lon="5.52278">
        <ele>1887</ele>
        <time>2024-05-11T11:39:34.000Z</time>
      </trkpt>
      <trkpt lat="44.85759" lon="5.52281">
        <ele>1887.8</ele>
        <time>2024-05-11T11:39:41.000Z</time>
      </trkpt>
      <trkpt lat="44.85762" lon="5.52285">
        <ele>1888.2</ele>
        <time>2024-05-11T11:39:47.000Z</time>
      </trkpt>
      <trkpt lat="44.85764" lon="5.52286">
        <ele>1888.6</ele>
        <time>2024-05-11T11:39:51.000Z</time>
      </trkpt>
      <trkpt lat="44.85765" lon="5.52288">
        <ele>1888.6</ele>
        <time>2024-05-11T11:39:54.000Z</time>
      </trkpt>
      <trkpt lat="44.85769" lon="5.5229">
        <ele>1889.2</ele>
        <time>2024-05-11T11:40:02.000Z</time>
      </trkpt>
      <trkpt lat="44.8577" lon="5.52291">
        <ele>1889.3</ele>
        <time>2024-05-11T11:40:04.000Z</time>
      </trkpt>
      <trkpt lat="44.85773" lon="5.52294">
        <ele>1889.5</ele>
        <time>2024-05-11T11:40:10.000Z</time>
      </trkpt>
      <trkpt lat="44.85773" lon="5.52294">
        <ele>1889.5</ele>
        <time>2024-05-11T11:40:11.000Z</time>
      </trkpt>
      <trkpt lat="44.85771" lon="5.52294">
        <ele>1889.3</ele>
        <time>2024-05-11T11:40:16.000Z</time>
      </trkpt>
      <trkpt lat="44.85771" lon="5.52294">
        <ele>1889.3</ele>
        <time>2024-05-11T11:40:17.000Z</time>
      </trkpt>
      <trkpt lat="44.85771" lon="5.52294">
        <ele>1889.2</ele>
        <time>2024-05-11T11:40:28.000Z</time>
      </trkpt>
      <trkpt lat="44.85771" lon="5.52296">
        <ele>1889.1</ele>
        <time>2024-05-11T11:41:42.000Z</time>
      </trkpt>
      <trkpt lat="44.85769" lon="5.523">
        <ele>1888.5</ele>
        <time>2024-05-11T11:41:46.000Z</time>
      </trkpt>
      <trkpt lat="44.85769" lon="5.52301">
        <ele>1888.4</ele>
        <time>2024-05-11T11:41:47.000Z</time>
      </trkpt>
      <trkpt lat="44.85768" lon="5.52303">
        <ele>1888.1</ele>
        <time>2024-05-11T11:41:52.000Z</time>
      </trkpt>
      <trkpt lat="44.85768" lon="5.52307">
        <ele>1887.7</ele>
        <time>2024-05-11T11:41:57.000Z</time>
      </trkpt>
      <trkpt lat="44.85768" lon="5.52308">
        <ele>1887.6</ele>
        <time>2024-05-11T11:41:58.000Z</time>
      </trkpt>
      <trkpt lat="44.85767" lon="5.52314">
        <ele>1886.8</ele>
        <time>2024-05-11T11:42:04.000Z</time>
      </trkpt>
      <trkpt lat="44.85767" lon="5.52317">
        <ele>1886.5</ele>
        <time>2024-05-11T11:42:06.000Z</time>
      </trkpt>
      <trkpt lat="44.85767" lon="5.52321">
        <ele>1885.9</ele>
        <time>2024-05-11T11:42:10.000Z</time>
      </trkpt>
      <trkpt lat="44.85767" lon="5.52326">
        <ele>1885.2</ele>
        <time>2024-05-11T11:42:15.000Z</time>
      </trkpt>
      <trkpt lat="44.85767" lon="5.52328">
        <ele>1885.1</ele>
        <time>2024-05-11T11:42:16.000Z</time>
      </trkpt>
      <trkpt lat="44.85767" lon="5.52334">
        <ele>1884.3</ele>
        <time>2024-05-11T11:42:22.000Z</time>
      </trkpt>
      <trkpt lat="44.85767" lon="5.52335">
        <ele>1884.2</ele>
        <time>2024-05-11T11:42:23.000Z</time>
      </trkpt>
      <trkpt lat="44.85767" lon="5.52336">
        <ele>1884.2</ele>
        <time>2024-05-11T11:42:24.000Z</time>
      </trkpt>
      <trkpt lat="44.85768" lon="5.52341">
        <ele>1883.8</ele>
        <time>2024-05-11T11:42:29.000Z</time>
      </trkpt>
      <trkpt lat="44.85768" lon="5.52342">
        <ele>1883.7</ele>
        <time>2024-05-11T11:42:30.000Z</time>
      </trkpt>
      <trkpt lat="44.8577" lon="5.52348">
        <ele>1883.1</ele>
        <time>2024-05-11T11:42:36.000Z</time>
      </trkpt>
      <trkpt lat="44.85771" lon="5.52357">
        <ele>1882.3</ele>
        <time>2024-05-11T11:42:42.000Z</time>
      </trkpt>
      <trkpt lat="44.85771" lon="5.5236">
        <ele>1882</ele>
        <time>2024-05-11T11:42:44.000Z</time>
      </trkpt>
      <trkpt lat="44.85772" lon="5.52365">
        <ele>1881.8</ele>
        <time>2024-05-11T11:42:47.000Z</time>
      </trkpt>
      <trkpt lat="44.85774" lon="5.52371">
        <ele>1881.5</ele>
        <time>2024-05-11T11:42:51.000Z</time>
      </trkpt>
      <trkpt lat="44.85775" lon="5.52376">
        <ele>1881.3</ele>
        <time>2024-05-11T11:42:55.000Z</time>
      </trkpt>
      <trkpt lat="44.85777" lon="5.52382">
        <ele>1881.1</ele>
        <time>2024-05-11T11:42:59.000Z</time>
      </trkpt>
      <trkpt lat="44.8578" lon="5.52395">
        <ele>1881</ele>
        <time>2024-05-11T11:43:08.000Z</time>
      </trkpt>
      <trkpt lat="44.8578" lon="5.52396">
        <ele>1881</ele>
        <time>2024-05-11T11:43:09.000Z</time>
      </trkpt>
      <trkpt lat="44.85781" lon="5.52406">
        <ele>1881</ele>
        <time>2024-05-11T11:43:17.000Z</time>
      </trkpt>
      <trkpt lat="44.85782" lon="5.52412">
        <ele>1880.9</ele>
        <time>2024-05-11T11:43:23.000Z</time>
      </trkpt>
      <trkpt lat="44.85783" lon="5.52421">
        <ele>1880.8</ele>
        <time>2024-05-11T11:43:29.000Z</time>
      </trkpt>
      <trkpt lat="44.85783" lon="5.5243">
        <ele>1880.8</ele>
        <time>2024-05-11T11:43:37.000Z</time>
      </trkpt>
      <trkpt lat="44.85783" lon="5.52431">
        <ele>1880.8</ele>
        <time>2024-05-11T11:43:38.000Z</time>
      </trkpt>
      <trkpt lat="44.85782" lon="5.52436">
        <ele>1880.8</ele>
        <time>2024-05-11T11:43:41.000Z</time>
      </trkpt>
      <trkpt lat="44.85783" lon="5.52441">
        <ele>1880.8</ele>
        <time>2024-05-11T11:43:45.000Z</time>
      </trkpt>
      <trkpt lat="44.85784" lon="5.52447">
        <ele>1881</ele>
        <time>2024-05-11T11:43:51.000Z</time>
      </trkpt>
      <trkpt lat="44.85783" lon="5.52449">
        <ele>1881.1</ele>
        <time>2024-05-11T11:43:53.000Z</time>
      </trkpt>
      <trkpt lat="44.85782" lon="5.52451">
        <ele>1881.3</ele>
        <time>2024-05-11T11:43:56.000Z</time>
      </trkpt>
      <trkpt lat="44.85782" lon="5.52452">
        <ele>1881.3</ele>
        <time>2024-05-11T11:43:57.000Z</time>
      </trkpt>
      <trkpt lat="44.85781" lon="5.52454">
        <ele>1881.5</ele>
        <time>2024-05-11T11:43:59.000Z</time>
      </trkpt>
      <trkpt lat="44.85781" lon="5.52456">
        <ele>1881.7</ele>
        <time>2024-05-11T11:44:04.000Z</time>
      </trkpt>
      <trkpt lat="44.8578" lon="5.52457">
        <ele>1881.7</ele>
        <time>2024-05-11T11:44:12.000Z</time>
      </trkpt>
      <trkpt lat="44.85779" lon="5.52457">
        <ele>1881.9</ele>
        <time>2024-05-11T11:44:17.000Z</time>
      </trkpt>
      <trkpt lat="44.85778" lon="5.52457">
        <ele>1881.9</ele>
        <time>2024-05-11T11:44:19.000Z</time>
      </trkpt>
      <trkpt lat="44.85775" lon="5.52456">
        <ele>1882</ele>
        <time>2024-05-11T11:44:22.000Z</time>
      </trkpt>
      <trkpt lat="44.85774" lon="5.52456">
        <ele>1882.1</ele>
        <time>2024-05-11T11:44:23.000Z</time>
      </trkpt>
      <trkpt lat="44.85772" lon="5.52456">
        <ele>1882.2</ele>
        <time>2024-05-11T11:44:26.000Z</time>
      </trkpt>
      <trkpt lat="44.85771" lon="5.52456">
        <ele>1882.3</ele>
        <time>2024-05-11T11:44:28.000Z</time>
      </trkpt>
      <trkpt lat="44.85766" lon="5.52454">
        <ele>1882.6</ele>
        <time>2024-05-11T11:44:35.000Z</time>
      </trkpt>
      <trkpt lat="44.85761" lon="5.52452">
        <ele>1882.8</ele>
        <time>2024-05-11T11:44:41.000Z</time>
      </trkpt>
      <trkpt lat="44.85755" lon="5.52453">
        <ele>1883.3</ele>
        <time>2024-05-11T11:44:47.000Z</time>
      </trkpt>
      <trkpt lat="44.85751" lon="5.52456">
        <ele>1883.7</ele>
        <time>2024-05-11T11:44:54.000Z</time>
      </trkpt>
      <trkpt lat="44.85746" lon="5.52456">
        <ele>1884.3</ele>
        <time>2024-05-11T11:45:00.000Z</time>
      </trkpt>
      <trkpt lat="44.85744" lon="5.52458">
        <ele>1884.7</ele>
        <time>2024-05-11T11:45:03.000Z</time>
      </trkpt>
      <trkpt lat="44.85743" lon="5.5246">
        <ele>1885</ele>
        <time>2024-05-11T11:45:06.000Z</time>
      </trkpt>
      <trkpt lat="44.85742" lon="5.52463">
        <ele>1885.4</ele>
        <time>2024-05-11T11:45:10.000Z</time>
      </trkpt>
      <trkpt lat="44.85739" lon="5.52471">
        <ele>1886.5</ele>
        <time>2024-05-11T11:45:18.000Z</time>
      </trkpt>
      <trkpt lat="44.85736" lon="5.52479">
        <ele>1887.9</ele>
        <time>2024-05-11T11:45:26.000Z</time>
      </trkpt>
      <trkpt lat="44.85733" lon="5.52485">
        <ele>1889</ele>
        <time>2024-05-11T11:45:32.000Z</time>
      </trkpt>
      <trkpt lat="44.8573" lon="5.52488">
        <ele>1889.7</ele>
        <time>2024-05-11T11:45:37.000Z</time>
      </trkpt>
      <trkpt lat="44.85727" lon="5.52492">
        <ele>1890.5</ele>
        <time>2024-05-11T11:45:43.000Z</time>
      </trkpt>
      <trkpt lat="44.85727" lon="5.52492">
        <ele>1890.5</ele>
        <time>2024-05-11T11:45:44.000Z</time>
      </trkpt>
      <trkpt lat="44.85726" lon="5.52495">
        <ele>1891</ele>
        <time>2024-05-11T11:45:47.000Z</time>
      </trkpt>
      <trkpt lat="44.85725" lon="5.52496">
        <ele>1891.2</ele>
        <time>2024-05-11T11:45:48.000Z</time>
      </trkpt>
      <trkpt lat="44.85724" lon="5.52499">
        <ele>1891.8</ele>
        <time>2024-05-11T11:45:53.000Z</time>
      </trkpt>
      <trkpt lat="44.85724" lon="5.525">
        <ele>1891.8</ele>
        <time>2024-05-11T11:45:54.000Z</time>
      </trkpt>
      <trkpt lat="44.85721" lon="5.52502">
        <ele>1892</ele>
        <time>2024-05-11T11:45:59.000Z</time>
      </trkpt>
      <trkpt lat="44.8572" lon="5.52503">
        <ele>1892</ele>
        <time>2024-05-11T11:46:01.000Z</time>
      </trkpt>
      <trkpt lat="44.85717" lon="5.52505">
        <ele>1891.9</ele>
        <time>2024-05-11T11:46:06.000Z</time>
      </trkpt>
      <trkpt lat="44.85716" lon="5.52505">
        <ele>1891.8</ele>
        <time>2024-05-11T11:46:08.000Z</time>
      </trkpt>
      <trkpt lat="44.85713" lon="5.52509">
        <ele>1891.6</ele>
        <time>2024-05-11T11:46:12.000Z</time>
      </trkpt>
      <trkpt lat="44.85713" lon="5.5251">
        <ele>1891.5</ele>
        <time>2024-05-11T11:46:13.000Z</time>
      </trkpt>
      <trkpt lat="44.85711" lon="5.52512">
        <ele>1891.3</ele>
        <time>2024-05-11T11:46:18.000Z</time>
      </trkpt>
      <trkpt lat="44.8571" lon="5.52513">
        <ele>1891.2</ele>
        <time>2024-05-11T11:46:20.000Z</time>
      </trkpt>
      <trkpt lat="44.85708" lon="5.52513">
        <ele>1891.1</ele>
        <time>2024-05-11T11:46:24.000Z</time>
      </trkpt>
      <trkpt lat="44.85706" lon="5.52514">
        <ele>1890.8</ele>
        <time>2024-05-11T11:46:27.000Z</time>
      </trkpt>
      <trkpt lat="44.85703" lon="5.52516">
        <ele>1890.5</ele>
        <time>2024-05-11T11:46:31.000Z</time>
      </trkpt>
      <trkpt lat="44.85698" lon="5.5252">
        <ele>1889.5</ele>
        <time>2024-05-11T11:46:38.000Z</time>
      </trkpt>
      <trkpt lat="44.85697" lon="5.5252">
        <ele>1889.4</ele>
        <time>2024-05-11T11:46:39.000Z</time>
      </trkpt>
      <trkpt lat="44.85691" lon="5.52522">
        <ele>1887.8</ele>
        <time>2024-05-11T11:46:46.000Z</time>
      </trkpt>
      <trkpt lat="44.85688" lon="5.52523">
        <ele>1886.4</ele>
        <time>2024-05-11T11:46:51.000Z</time>
      </trkpt>
      <trkpt lat="44.85683" lon="5.52524">
        <ele>1884.8</ele>
        <time>2024-05-11T11:47:00.000Z</time>
      </trkpt>
      <trkpt lat="44.85683" lon="5.52525">
        <ele>1884.5</ele>
        <time>2024-05-11T11:47:01.000Z</time>
      </trkpt>
      <trkpt lat="44.8568" lon="5.52527">
        <ele>1883.2</ele>
        <time>2024-05-11T11:47:05.000Z</time>
      </trkpt>
      <trkpt lat="44.85678" lon="5.52528">
        <ele>1881.7</ele>
        <time>2024-05-11T11:47:10.000Z</time>
      </trkpt>
      <trkpt lat="44.85675" lon="5.52533">
        <ele>1877.9</ele>
        <time>2024-05-11T11:47:17.000Z</time>
      </trkpt>
      <trkpt lat="44.85674" lon="5.52536">
        <ele>1875.5</ele>
        <time>2024-05-11T11:47:23.000Z</time>
      </trkpt>
      <trkpt lat="44.85673" lon="5.52536">
        <ele>1875</ele>
        <time>2024-05-11T11:47:28.000Z</time>
      </trkpt>
      <trkpt lat="44.85673" lon="5.52536">
        <ele>1875.2</ele>
        <time>2024-05-11T11:47:30.000Z</time>
      </trkpt>
      <trkpt lat="44.85674" lon="5.52536">
        <ele>1875.7</ele>
        <time>2024-05-11T11:47:42.000Z</time>
      </trkpt>
      <trkpt lat="44.85668" lon="5.52535">
        <ele>1873.6</ele>
        <time>2024-05-11T11:48:07.000Z</time>
      </trkpt>
      <trkpt lat="44.85666" lon="5.52534">
        <ele>1873.3</ele>
        <time>2024-05-11T11:48:14.000Z</time>
      </trkpt>
      <trkpt lat="44.85668" lon="5.52535">
        <ele>1873.8</ele>
        <time>2024-05-11T11:48:42.000Z</time>
      </trkpt>
      <trkpt lat="44.85667" lon="5.52536">
        <ele>1872.7</ele>
        <time>2024-05-11T11:48:53.000Z</time>
      </trkpt>
      <trkpt lat="44.85667" lon="5.52536">
        <ele>1872.4</ele>
        <time>2024-05-11T11:48:59.000Z</time>
      </trkpt>
      <trkpt lat="44.85665" lon="5.52534">
        <ele>1873</ele>
        <time>2024-05-11T11:49:19.000Z</time>
      </trkpt>
      <trkpt lat="44.85661" lon="5.52527">
        <ele>1875.5</ele>
        <time>2024-05-11T11:49:27.000Z</time>
      </trkpt>
      <trkpt lat="44.85659" lon="5.52523">
        <ele>1876</ele>
        <time>2024-05-11T11:49:31.000Z</time>
      </trkpt>
      <trkpt lat="44.85656" lon="5.52518">
        <ele>1876.6</ele>
        <time>2024-05-11T11:49:36.000Z</time>
      </trkpt>
      <trkpt lat="44.85651" lon="5.52514">
        <ele>1876.2</ele>
        <time>2024-05-11T11:49:41.000Z</time>
      </trkpt>
      <trkpt lat="44.8565" lon="5.52512">
        <ele>1876.6</ele>
        <time>2024-05-11T11:49:43.000Z</time>
      </trkpt>
      <trkpt lat="44.85647" lon="5.52508">
        <ele>1877.7</ele>
        <time>2024-05-11T11:49:49.000Z</time>
      </trkpt>
      <trkpt lat="44.85642" lon="5.52505">
        <ele>1878.1</ele>
        <time>2024-05-11T11:49:55.000Z</time>
      </trkpt>
      <trkpt lat="44.85635" lon="5.52496">
        <ele>1879.6</ele>
        <time>2024-05-11T11:50:06.000Z</time>
      </trkpt>
      <trkpt lat="44.85634" lon="5.52495">
        <ele>1879.7</ele>
        <time>2024-05-11T11:50:08.000Z</time>
      </trkpt>
      <trkpt lat="44.8563" lon="5.52492">
        <ele>1879.5</ele>
        <time>2024-05-11T11:50:12.000Z</time>
      </trkpt>
      <trkpt lat="44.85624" lon="5.52486">
        <ele>1879.5</ele>
        <time>2024-05-11T11:50:20.000Z</time>
      </trkpt>
      <trkpt lat="44.85623" lon="5.52485">
        <ele>1879.7</ele>
        <time>2024-05-11T11:50:21.000Z</time>
      </trkpt>
      <trkpt lat="44.8562" lon="5.52481">
        <ele>1880.3</ele>
        <time>2024-05-11T11:50:27.000Z</time>
      </trkpt>
      <trkpt lat="44.85617" lon="5.52473">
        <ele>1883.1</ele>
        <time>2024-05-11T11:50:35.000Z</time>
      </trkpt>
      <trkpt lat="44.85615" lon="5.52462">
        <ele>1884.8</ele>
        <time>2024-05-11T11:50:45.000Z</time>
      </trkpt>
      <trkpt lat="44.85612" lon="5.52458">
        <ele>1885.3</ele>
        <time>2024-05-11T11:50:48.000Z</time>
      </trkpt>
      <trkpt lat="44.85612" lon="5.52452">
        <ele>1886.4</ele>
        <time>2024-05-11T11:50:52.000Z</time>
      </trkpt>
      <trkpt lat="44.85611" lon="5.5245">
        <ele>1886.8</ele>
        <time>2024-05-11T11:50:54.000Z</time>
      </trkpt>
      <trkpt lat="44.85607" lon="5.52441">
        <ele>1886.9</ele>
        <time>2024-05-11T11:51:02.000Z</time>
      </trkpt>
      <trkpt lat="44.85605" lon="5.5243">
        <ele>1887</ele>
        <time>2024-05-11T11:51:12.000Z</time>
      </trkpt>
      <trkpt lat="44.85606" lon="5.52425">
        <ele>1887.7</ele>
        <time>2024-05-11T11:51:17.000Z</time>
      </trkpt>
      <trkpt lat="44.85607" lon="5.52423">
        <ele>1887.9</ele>
        <time>2024-05-11T11:51:19.000Z</time>
      </trkpt>
      <trkpt lat="44.85608" lon="5.52416">
        <ele>1888.3</ele>
        <time>2024-05-11T11:51:24.000Z</time>
      </trkpt>
      <trkpt lat="44.85608" lon="5.52415">
        <ele>1888.3</ele>
        <time>2024-05-11T11:51:26.000Z</time>
      </trkpt>
      <trkpt lat="44.85607" lon="5.52408">
        <ele>1887.8</ele>
        <time>2024-05-11T11:51:32.000Z</time>
      </trkpt>
      <trkpt lat="44.85607" lon="5.52406">
        <ele>1887.5</ele>
        <time>2024-05-11T11:51:34.000Z</time>
      </trkpt>
      <trkpt lat="44.85607" lon="5.52403">
        <ele>1887.4</ele>
        <time>2024-05-11T11:51:37.000Z</time>
      </trkpt>
      <trkpt lat="44.85607" lon="5.52398">
        <ele>1887</ele>
        <time>2024-05-11T11:51:43.000Z</time>
      </trkpt>
      <trkpt lat="44.85606" lon="5.52395">
        <ele>1886.6</ele>
        <time>2024-05-11T11:51:46.000Z</time>
      </trkpt>
      <trkpt lat="44.85604" lon="5.52391">
        <ele>1886.1</ele>
        <time>2024-05-11T11:51:52.000Z</time>
      </trkpt>
      <trkpt lat="44.85605" lon="5.52391">
        <ele>1886.2</ele>
        <time>2024-05-11T11:51:55.000Z</time>
      </trkpt>
      <trkpt lat="44.85603" lon="5.52388">
        <ele>1885.7</ele>
        <time>2024-05-11T11:51:59.000Z</time>
      </trkpt>
      <trkpt lat="44.85602" lon="5.52387">
        <ele>1885.4</ele>
        <time>2024-05-11T11:52:00.000Z</time>
      </trkpt>
      <trkpt lat="44.85599" lon="5.52382">
        <ele>1884.3</ele>
        <time>2024-05-11T11:52:07.000Z</time>
      </trkpt>
      <trkpt lat="44.85597" lon="5.5238">
        <ele>1883.7</ele>
        <time>2024-05-11T11:52:11.000Z</time>
      </trkpt>
      <trkpt lat="44.85595" lon="5.52376">
        <ele>1882.8</ele>
        <time>2024-05-11T11:52:17.000Z</time>
      </trkpt>
      <trkpt lat="44.85593" lon="5.52373">
        <ele>1882.1</ele>
        <time>2024-05-11T11:52:20.000Z</time>
      </trkpt>
      <trkpt lat="44.8559" lon="5.52368">
        <ele>1880.9</ele>
        <time>2024-05-11T11:52:25.000Z</time>
      </trkpt>
      <trkpt lat="44.85588" lon="5.52363">
        <ele>1880</ele>
        <time>2024-05-11T11:52:29.000Z</time>
      </trkpt>
      <trkpt lat="44.85586" lon="5.52359">
        <ele>1879</ele>
        <time>2024-05-11T11:52:34.000Z</time>
      </trkpt>
      <trkpt lat="44.85583" lon="5.52353">
        <ele>1877.7</ele>
        <time>2024-05-11T11:52:40.000Z</time>
      </trkpt>
      <trkpt lat="44.85581" lon="5.5235">
        <ele>1877.1</ele>
        <time>2024-05-11T11:52:43.000Z</time>
      </trkpt>
      <trkpt lat="44.8558" lon="5.52348">
        <ele>1876.5</ele>
        <time>2024-05-11T11:52:46.000Z</time>
      </trkpt>
      <trkpt lat="44.85575" lon="5.52342">
        <ele>1874.9</ele>
        <time>2024-05-11T11:52:55.000Z</time>
      </trkpt>
      <trkpt lat="44.85571" lon="5.52337">
        <ele>1873.6</ele>
        <time>2024-05-11T11:53:03.000Z</time>
      </trkpt>
      <trkpt lat="44.8557" lon="5.52336">
        <ele>1873.4</ele>
        <time>2024-05-11T11:53:04.000Z</time>
      </trkpt>
      <trkpt lat="44.85566" lon="5.52329">
        <ele>1872</ele>
        <time>2024-05-11T11:53:11.000Z</time>
      </trkpt>
      <trkpt lat="44.85563" lon="5.52323">
        <ele>1871</ele>
        <time>2024-05-11T11:53:17.000Z</time>
      </trkpt>
      <trkpt lat="44.85563" lon="5.52322">
        <ele>1870.8</ele>
        <time>2024-05-11T11:53:18.000Z</time>
      </trkpt>
      <trkpt lat="44.85561" lon="5.5232">
        <ele>1870.3</ele>
        <time>2024-05-11T11:53:21.000Z</time>
      </trkpt>
      <trkpt lat="44.85559" lon="5.52315">
        <ele>1869.5</ele>
        <time>2024-05-11T11:53:26.000Z</time>
      </trkpt>
      <trkpt lat="44.85555" lon="5.52308">
        <ele>1868.3</ele>
        <time>2024-05-11T11:53:32.000Z</time>
      </trkpt>
      <trkpt lat="44.85553" lon="5.52305">
        <ele>1868</ele>
        <time>2024-05-11T11:53:35.000Z</time>
      </trkpt>
      <trkpt lat="44.85547" lon="5.52299">
        <ele>1867.5</ele>
        <time>2024-05-11T11:53:44.000Z</time>
      </trkpt>
      <trkpt lat="44.85546" lon="5.52298">
        <ele>1867.3</ele>
        <time>2024-05-11T11:53:46.000Z</time>
      </trkpt>
      <trkpt lat="44.85541" lon="5.52294">
        <ele>1867</ele>
        <time>2024-05-11T11:53:51.000Z</time>
      </trkpt>
      <trkpt lat="44.85538" lon="5.52291">
        <ele>1866.7</ele>
        <time>2024-05-11T11:53:55.000Z</time>
      </trkpt>
      <trkpt lat="44.85532" lon="5.52284">
        <ele>1865.8</ele>
        <time>2024-05-11T11:54:02.000Z</time>
      </trkpt>
      <trkpt lat="44.85532" lon="5.52283">
        <ele>1865.7</ele>
        <time>2024-05-11T11:54:03.000Z</time>
      </trkpt>
      <trkpt lat="44.85526" lon="5.52277">
        <ele>1865</ele>
        <time>2024-05-11T11:54:10.000Z</time>
      </trkpt>
      <trkpt lat="44.85523" lon="5.52274">
        <ele>1864.9</ele>
        <time>2024-05-11T11:54:14.000Z</time>
      </trkpt>
      <trkpt lat="44.85519" lon="5.52271">
        <ele>1864.6</ele>
        <time>2024-05-11T11:54:18.000Z</time>
      </trkpt>
      <trkpt lat="44.85515" lon="5.52262">
        <ele>1863.8</ele>
        <time>2024-05-11T11:54:25.000Z</time>
      </trkpt>
      <trkpt lat="44.85512" lon="5.52257">
        <ele>1863.2</ele>
        <time>2024-05-11T11:54:29.000Z</time>
      </trkpt>
      <trkpt lat="44.85511" lon="5.52256">
        <ele>1863</ele>
        <time>2024-05-11T11:54:31.000Z</time>
      </trkpt>
      <trkpt lat="44.85508" lon="5.52254">
        <ele>1862.7</ele>
        <time>2024-05-11T11:54:34.000Z</time>
      </trkpt>
      <trkpt lat="44.85503" lon="5.52251">
        <ele>1862.2</ele>
        <time>2024-05-11T11:54:40.000Z</time>
      </trkpt>
      <trkpt lat="44.85501" lon="5.52251">
        <ele>1862.2</ele>
        <time>2024-05-11T11:54:42.000Z</time>
      </trkpt>
      <trkpt lat="44.85495" lon="5.52252">
        <ele>1862.3</ele>
        <time>2024-05-11T11:54:49.000Z</time>
      </trkpt>
      <trkpt lat="44.85487" lon="5.52252">
        <ele>1862.2</ele>
        <time>2024-05-11T11:54:56.000Z</time>
      </trkpt>
      <trkpt lat="44.85483" lon="5.52251">
        <ele>1862.1</ele>
        <time>2024-05-11T11:55:01.000Z</time>
      </trkpt>
      <trkpt lat="44.8548" lon="5.52249">
        <ele>1861.9</ele>
        <time>2024-05-11T11:55:05.000Z</time>
      </trkpt>
      <trkpt lat="44.85474" lon="5.52248">
        <ele>1861.8</ele>
        <time>2024-05-11T11:55:11.000Z</time>
      </trkpt>
      <trkpt lat="44.8547" lon="5.52247">
        <ele>1861.4</ele>
        <time>2024-05-11T11:55:15.000Z</time>
      </trkpt>
      <trkpt lat="44.85466" lon="5.52245">
        <ele>1861.1</ele>
        <time>2024-05-11T11:55:19.000Z</time>
      </trkpt>
      <trkpt lat="44.85462" lon="5.52245">
        <ele>1860.8</ele>
        <time>2024-05-11T11:55:24.000Z</time>
      </trkpt>
      <trkpt lat="44.85459" lon="5.52244">
        <ele>1860.5</ele>
        <time>2024-05-11T11:55:29.000Z</time>
      </trkpt>
      <trkpt lat="44.8545" lon="5.52241">
        <ele>1859.7</ele>
        <time>2024-05-11T11:55:38.000Z</time>
      </trkpt>
      <trkpt lat="44.85443" lon="5.52239">
        <ele>1859.1</ele>
        <time>2024-05-11T11:55:45.000Z</time>
      </trkpt>
      <trkpt lat="44.85437" lon="5.52236">
        <ele>1858.6</ele>
        <time>2024-05-11T11:55:51.000Z</time>
      </trkpt>
      <trkpt lat="44.85434" lon="5.52235">
        <ele>1858.4</ele>
        <time>2024-05-11T11:55:53.000Z</time>
      </trkpt>
      <trkpt lat="44.85426" lon="5.52235">
        <ele>1858</ele>
        <time>2024-05-11T11:56:01.000Z</time>
      </trkpt>
      <trkpt lat="44.85423" lon="5.52234">
        <ele>1857.9</ele>
        <time>2024-05-11T11:56:05.000Z</time>
      </trkpt>
      <trkpt lat="44.85422" lon="5.52234">
        <ele>1857.8</ele>
        <time>2024-05-11T11:56:07.000Z</time>
      </trkpt>
      <trkpt lat="44.8542" lon="5.52234">
        <ele>1857.7</ele>
        <time>2024-05-11T11:56:09.000Z</time>
      </trkpt>
      <trkpt lat="44.85418" lon="5.52234">
        <ele>1857.6</ele>
        <time>2024-05-11T11:56:11.000Z</time>
      </trkpt>
      <trkpt lat="44.85413" lon="5.52235">
        <ele>1857.3</ele>
        <time>2024-05-11T11:56:17.000Z</time>
      </trkpt>
      <trkpt lat="44.8541" lon="5.52235">
        <ele>1857</ele>
        <time>2024-05-11T11:56:20.000Z</time>
      </trkpt>
      <trkpt lat="44.85409" lon="5.52235">
        <ele>1856.9</ele>
        <time>2024-05-11T11:56:22.000Z</time>
      </trkpt>
      <trkpt lat="44.85404" lon="5.52232">
        <ele>1856.9</ele>
        <time>2024-05-11T11:56:29.000Z</time>
      </trkpt>
      <trkpt lat="44.854" lon="5.52231">
        <ele>1856.8</ele>
        <time>2024-05-11T11:56:35.000Z</time>
      </trkpt>
      <trkpt lat="44.85399" lon="5.52231">
        <ele>1856.7</ele>
        <time>2024-05-11T11:56:36.000Z</time>
      </trkpt>
      <trkpt lat="44.85395" lon="5.5223">
        <ele>1856.7</ele>
        <time>2024-05-11T11:56:40.000Z</time>
      </trkpt>
      <trkpt lat="44.8539" lon="5.52228">
        <ele>1856.8</ele>
        <time>2024-05-11T11:56:46.000Z</time>
      </trkpt>
      <trkpt lat="44.85385" lon="5.52228">
        <ele>1856.9</ele>
        <time>2024-05-11T11:56:51.000Z</time>
      </trkpt>
      <trkpt lat="44.85384" lon="5.52227">
        <ele>1857</ele>
        <time>2024-05-11T11:56:52.000Z</time>
      </trkpt>
      <trkpt lat="44.85379" lon="5.52225">
        <ele>1857.8</ele>
        <time>2024-05-11T11:56:59.000Z</time>
      </trkpt>
      <trkpt lat="44.85378" lon="5.52225">
        <ele>1857.9</ele>
        <time>2024-05-11T11:57:00.000Z</time>
      </trkpt>
      <trkpt lat="44.85375" lon="5.52225">
        <ele>1858.2</ele>
        <time>2024-05-11T11:57:05.000Z</time>
      </trkpt>
      <trkpt lat="44.85371" lon="5.52224">
        <ele>1858.7</ele>
        <time>2024-05-11T11:57:11.000Z</time>
      </trkpt>
      <trkpt lat="44.85368" lon="5.52222">
        <ele>1859.5</ele>
        <time>2024-05-11T11:57:16.000Z</time>
      </trkpt>
      <trkpt lat="44.85367" lon="5.52221">
        <ele>1859.8</ele>
        <time>2024-05-11T11:57:18.000Z</time>
      </trkpt>
      <trkpt lat="44.85363" lon="5.52218">
        <ele>1860.8</ele>
        <time>2024-05-11T11:57:25.000Z</time>
      </trkpt>
      <trkpt lat="44.85362" lon="5.52217">
        <ele>1861.1</ele>
        <time>2024-05-11T11:57:27.000Z</time>
      </trkpt>
      <trkpt lat="44.85358" lon="5.52212">
        <ele>1862.4</ele>
        <time>2024-05-11T11:57:35.000Z</time>
      </trkpt>
      <trkpt lat="44.85355" lon="5.52211">
        <ele>1862.8</ele>
        <time>2024-05-11T11:57:41.000Z</time>
      </trkpt>
      <trkpt lat="44.85355" lon="5.52212">
        <ele>1862.7</ele>
        <time>2024-05-11T11:57:46.000Z</time>
      </trkpt>
      <trkpt lat="44.85355" lon="5.52211">
        <ele>1862.8</ele>
        <time>2024-05-11T11:57:49.000Z</time>
      </trkpt>
      <trkpt lat="44.85356" lon="5.5221">
        <ele>1863</ele>
        <time>2024-05-11T11:58:00.000Z</time>
      </trkpt>
      <trkpt lat="44.85356" lon="5.52207">
        <ele>1863.8</ele>
        <time>2024-05-11T11:58:18.000Z</time>
      </trkpt>
      <trkpt lat="44.85355" lon="5.52207">
        <ele>1863.8</ele>
        <time>2024-05-11T11:58:20.000Z</time>
      </trkpt>
      <trkpt lat="44.85353" lon="5.52208">
        <ele>1863.8</ele>
        <time>2024-05-11T11:58:22.000Z</time>
      </trkpt>
      <trkpt lat="44.85348" lon="5.52212">
        <ele>1863.2</ele>
        <time>2024-05-11T11:58:28.000Z</time>
      </trkpt>
      <trkpt lat="44.85348" lon="5.52213">
        <ele>1862.9</ele>
        <time>2024-05-11T11:58:29.000Z</time>
      </trkpt>
      <trkpt lat="44.85345" lon="5.52215">
        <ele>1862.5</ele>
        <time>2024-05-11T11:58:34.000Z</time>
      </trkpt>
      <trkpt lat="44.85341" lon="5.52217">
        <ele>1862.2</ele>
        <time>2024-05-11T11:58:41.000Z</time>
      </trkpt>
      <trkpt lat="44.85337" lon="5.52221">
        <ele>1861.3</ele>
        <time>2024-05-11T11:58:47.000Z</time>
      </trkpt>
      <trkpt lat="44.85339" lon="5.52219">
        <ele>1861.7</ele>
        <time>2024-05-11T11:58:49.000Z</time>
      </trkpt>
      <trkpt lat="44.85337" lon="5.52223">
        <ele>1860.1</ele>
        <time>2024-05-11T11:58:53.000Z</time>
      </trkpt>
      <trkpt lat="44.85336" lon="5.52226">
        <ele>1858.8</ele>
        <time>2024-05-11T11:58:56.000Z</time>
      </trkpt>
      <trkpt lat="44.85339" lon="5.52224">
        <ele>1859.5</ele>
        <time>2024-05-11T11:59:00.000Z</time>
      </trkpt>
      <trkpt lat="44.85339" lon="5.52222">
        <ele>1860.8</ele>
        <time>2024-05-11T11:59:11.000Z</time>
      </trkpt>
      <trkpt lat="44.85338" lon="5.52224">
        <ele>1860</ele>
        <time>2024-05-11T11:59:45.000Z</time>
      </trkpt>
      <trkpt lat="44.85337" lon="5.52219">
        <ele>1861.8</ele>
        <time>2024-05-11T12:00:28.000Z</time>
      </trkpt>
      <trkpt lat="44.85335" lon="5.52221">
        <ele>1861.5</ele>
        <time>2024-05-11T12:00:34.000Z</time>
      </trkpt>
      <trkpt lat="44.85335" lon="5.52221">
        <ele>1861.3</ele>
        <time>2024-05-11T12:00:41.000Z</time>
      </trkpt>
      <trkpt lat="44.85335" lon="5.52223">
        <ele>1860.6</ele>
        <time>2024-05-11T12:01:05.000Z</time>
      </trkpt>
      <trkpt lat="44.8534" lon="5.52221">
        <ele>1861.1</ele>
        <time>2024-05-11T12:01:17.000Z</time>
      </trkpt>
      <trkpt lat="44.85343" lon="5.52218">
        <ele>1862</ele>
        <time>2024-05-11T12:01:24.000Z</time>
      </trkpt>
      <trkpt lat="44.85343" lon="5.52219">
        <ele>1861.7</ele>
        <time>2024-05-11T12:01:30.000Z</time>
      </trkpt>
      <trkpt lat="44.85344" lon="5.52217">
        <ele>1862.1</ele>
        <time>2024-05-11T12:01:36.000Z</time>
      </trkpt>
      <trkpt lat="44.85345" lon="5.52215">
        <ele>1862.7</ele>
        <time>2024-05-11T12:01:42.000Z</time>
      </trkpt>
      <trkpt lat="44.85344" lon="5.52209">
        <ele>1864.3</ele>
        <time>2024-05-11T12:01:49.000Z</time>
      </trkpt>
      <trkpt lat="44.85344" lon="5.52202">
        <ele>1866.4</ele>
        <time>2024-05-11T12:01:55.000Z</time>
      </trkpt>
      <trkpt lat="44.85343" lon="5.52201">
        <ele>1866.8</ele>
        <time>2024-05-11T12:01:56.000Z</time>
      </trkpt>
      <trkpt lat="44.85342" lon="5.52197">
        <ele>1868.1</ele>
        <time>2024-05-11T12:02:01.000Z</time>
      </trkpt>
      <trkpt lat="44.8534" lon="5.52191">
        <ele>1869.1</ele>
        <time>2024-05-11T12:02:07.000Z</time>
      </trkpt>
      <trkpt lat="44.85339" lon="5.52188">
        <ele>1869.3</ele>
        <time>2024-05-11T12:02:10.000Z</time>
      </trkpt>
      <trkpt lat="44.85338" lon="5.52184">
        <ele>1869.7</ele>
        <time>2024-05-11T12:02:13.000Z</time>
      </trkpt>
      <trkpt lat="44.85335" lon="5.52174">
        <ele>1870.4</ele>
        <time>2024-05-11T12:02:21.000Z</time>
      </trkpt>
      <trkpt lat="44.85334" lon="5.52169">
        <ele>1870.8</ele>
        <time>2024-05-11T12:02:26.000Z</time>
      </trkpt>
      <trkpt lat="44.85334" lon="5.52168">
        <ele>1870.8</ele>
        <time>2024-05-11T12:02:27.000Z</time>
      </trkpt>
      <trkpt lat="44.85335" lon="5.52168">
        <ele>1870.6</ele>
        <time>2024-05-11T12:02:37.000Z</time>
      </trkpt>
      <trkpt lat="44.85335" lon="5.52169">
        <ele>1870.6</ele>
        <time>2024-05-11T12:02:44.000Z</time>
      </trkpt>
      <trkpt lat="44.85336" lon="5.52167">
        <ele>1870.5</ele>
        <time>2024-05-11T12:02:50.000Z</time>
      </trkpt>
      <trkpt lat="44.85335" lon="5.52163">
        <ele>1870.6</ele>
        <time>2024-05-11T12:02:57.000Z</time>
      </trkpt>
      <trkpt lat="44.85335" lon="5.52163">
        <ele>1870.7</ele>
        <time>2024-05-11T12:03:06.000Z</time>
      </trkpt>
      <trkpt lat="44.85334" lon="5.52161">
        <ele>1870.6</ele>
        <time>2024-05-11T12:03:07.000Z</time>
      </trkpt>
      <trkpt lat="44.85332" lon="5.52151">
        <ele>1870.9</ele>
        <time>2024-05-11T12:03:14.000Z</time>
      </trkpt>
      <trkpt lat="44.85328" lon="5.52143">
        <ele>1872</ele>
        <time>2024-05-11T12:03:21.000Z</time>
      </trkpt>
      <trkpt lat="44.85326" lon="5.52141">
        <ele>1872.4</ele>
        <time>2024-05-11T12:03:23.000Z</time>
      </trkpt>
      <trkpt lat="44.85322" lon="5.52134">
        <ele>1873.8</ele>
        <time>2024-05-11T12:03:31.000Z</time>
      </trkpt>
      <trkpt lat="44.85319" lon="5.52128">
        <ele>1874.7</ele>
        <time>2024-05-11T12:03:39.000Z</time>
      </trkpt>
      <trkpt lat="44.85315" lon="5.52122">
        <ele>1875.6</ele>
        <time>2024-05-11T12:03:45.000Z</time>
      </trkpt>
      <trkpt lat="44.8531" lon="5.52117">
        <ele>1876.4</ele>
        <time>2024-05-11T12:03:52.000Z</time>
      </trkpt>
      <trkpt lat="44.85306" lon="5.52106">
        <ele>1877.2</ele>
        <time>2024-05-11T12:03:59.000Z</time>
      </trkpt>
      <trkpt lat="44.85305" lon="5.52104">
        <ele>1877.8</ele>
        <time>2024-05-11T12:04:01.000Z</time>
      </trkpt>
      <trkpt lat="44.85303" lon="5.52101">
        <ele>1878.7</ele>
        <time>2024-05-11T12:04:05.000Z</time>
      </trkpt>
      <trkpt lat="44.85302" lon="5.52101">
        <ele>1878.9</ele>
        <time>2024-05-11T12:04:06.000Z</time>
      </trkpt>
      <trkpt lat="44.85299" lon="5.521">
        <ele>1880</ele>
        <time>2024-05-11T12:04:10.000Z</time>
      </trkpt>
      <trkpt lat="44.85298" lon="5.52099">
        <ele>1880.4</ele>
        <time>2024-05-11T12:04:16.000Z</time>
      </trkpt>
      <trkpt lat="44.85297" lon="5.52098">
        <ele>1880.6</ele>
        <time>2024-05-11T12:04:17.000Z</time>
      </trkpt>
      <trkpt lat="44.85296" lon="5.52096">
        <ele>1881</ele>
        <time>2024-05-11T12:04:19.000Z</time>
      </trkpt>
      <trkpt lat="44.85295" lon="5.52093">
        <ele>1881.3</ele>
        <time>2024-05-11T12:04:22.000Z</time>
      </trkpt>
      <trkpt lat="44.8529" lon="5.52091">
        <ele>1882.5</ele>
        <time>2024-05-11T12:04:29.000Z</time>
      </trkpt>
      <trkpt lat="44.85287" lon="5.52091">
        <ele>1883.3</ele>
        <time>2024-05-11T12:04:32.000Z</time>
      </trkpt>
      <trkpt lat="44.85284" lon="5.52088">
        <ele>1884</ele>
        <time>2024-05-11T12:04:39.000Z</time>
      </trkpt>
      <trkpt lat="44.85283" lon="5.52088">
        <ele>1884.3</ele>
        <time>2024-05-11T12:04:40.000Z</time>
      </trkpt>
      <trkpt lat="44.85278" lon="5.52085">
        <ele>1885.2</ele>
        <time>2024-05-11T12:04:47.000Z</time>
      </trkpt>
      <trkpt lat="44.85277" lon="5.52085">
        <ele>1885.4</ele>
        <time>2024-05-11T12:04:48.000Z</time>
      </trkpt>
      <trkpt lat="44.85272" lon="5.52083">
        <ele>1886.9</ele>
        <time>2024-05-11T12:04:56.000Z</time>
      </trkpt>
      <trkpt lat="44.85269" lon="5.52081">
        <ele>1887.6</ele>
        <time>2024-05-11T12:05:04.000Z</time>
      </trkpt>
      <trkpt lat="44.85269" lon="5.52081">
        <ele>1887.6</ele>
        <time>2024-05-11T12:05:05.000Z</time>
      </trkpt>
      <trkpt lat="44.85269" lon="5.52081">
        <ele>1887.5</ele>
        <time>2024-05-11T12:05:07.000Z</time>
      </trkpt>
      <trkpt lat="44.85269" lon="5.52081">
        <ele>1887.6</ele>
        <time>2024-05-11T12:05:12.000Z</time>
      </trkpt>
      <trkpt lat="44.85262" lon="5.5208">
        <ele>1889.6</ele>
        <time>2024-05-11T12:05:24.000Z</time>
      </trkpt>
      <trkpt lat="44.85255" lon="5.52077">
        <ele>1891.4</ele>
        <time>2024-05-11T12:05:33.000Z</time>
      </trkpt>
      <trkpt lat="44.85253" lon="5.52076">
        <ele>1891.9</ele>
        <time>2024-05-11T12:05:36.000Z</time>
      </trkpt>
      <trkpt lat="44.85251" lon="5.52074">
        <ele>1892.2</ele>
        <time>2024-05-11T12:05:39.000Z</time>
      </trkpt>
      <trkpt lat="44.85245" lon="5.52074">
        <ele>1893.5</ele>
        <time>2024-05-11T12:05:46.000Z</time>
      </trkpt>
      <trkpt lat="44.85243" lon="5.52075">
        <ele>1894.1</ele>
        <time>2024-05-11T12:05:50.000Z</time>
      </trkpt>
      <trkpt lat="44.85243" lon="5.52076">
        <ele>1894.5</ele>
        <time>2024-05-11T12:05:52.000Z</time>
      </trkpt>
      <trkpt lat="44.85241" lon="5.52078">
        <ele>1895.3</ele>
        <time>2024-05-11T12:05:57.000Z</time>
      </trkpt>
      <trkpt lat="44.85239" lon="5.5208">
        <ele>1896</ele>
        <time>2024-05-11T12:06:02.000Z</time>
      </trkpt>
      <trkpt lat="44.85239" lon="5.5208">
        <ele>1896.1</ele>
        <time>2024-05-11T12:06:03.000Z</time>
      </trkpt>
      <trkpt lat="44.85236" lon="5.5208">
        <ele>1896.8</ele>
        <time>2024-05-11T12:06:09.000Z</time>
      </trkpt>
      <trkpt lat="44.85234" lon="5.5208">
        <ele>1897.1</ele>
        <time>2024-05-11T12:06:11.000Z</time>
      </trkpt>
      <trkpt lat="44.85232" lon="5.5208">
        <ele>1897.7</ele>
        <time>2024-05-11T12:06:16.000Z</time>
      </trkpt>
      <trkpt lat="44.85231" lon="5.5208">
        <ele>1898</ele>
        <time>2024-05-11T12:06:19.000Z</time>
      </trkpt>
      <trkpt lat="44.85229" lon="5.5208">
        <ele>1898.6</ele>
        <time>2024-05-11T12:06:26.000Z</time>
      </trkpt>
      <trkpt lat="44.85227" lon="5.5208">
        <ele>1899.1</ele>
        <time>2024-05-11T12:06:29.000Z</time>
      </trkpt>
      <trkpt lat="44.85224" lon="5.5208">
        <ele>1899.6</ele>
        <time>2024-05-11T12:06:34.000Z</time>
      </trkpt>
      <trkpt lat="44.85222" lon="5.5208">
        <ele>1900.2</ele>
        <time>2024-05-11T12:06:38.000Z</time>
      </trkpt>
      <trkpt lat="44.85221" lon="5.52079">
        <ele>1900.2</ele>
        <time>2024-05-11T12:06:41.000Z</time>
      </trkpt>
      <trkpt lat="44.85218" lon="5.52079">
        <ele>1900.6</ele>
        <time>2024-05-11T12:06:48.000Z</time>
      </trkpt>
      <trkpt lat="44.85214" lon="5.52077">
        <ele>1901.3</ele>
        <time>2024-05-11T12:06:55.000Z</time>
      </trkpt>
      <trkpt lat="44.85211" lon="5.52077">
        <ele>1901.7</ele>
        <time>2024-05-11T12:06:58.000Z</time>
      </trkpt>
      <trkpt lat="44.85207" lon="5.52077">
        <ele>1902.5</ele>
        <time>2024-05-11T12:07:06.000Z</time>
      </trkpt>
      <trkpt lat="44.85205" lon="5.52077">
        <ele>1903</ele>
        <time>2024-05-11T12:07:09.000Z</time>
      </trkpt>
      <trkpt lat="44.85201" lon="5.52077">
        <ele>1904</ele>
        <time>2024-05-11T12:07:14.000Z</time>
      </trkpt>
      <trkpt lat="44.85199" lon="5.52077">
        <ele>1904.3</ele>
        <time>2024-05-11T12:07:17.000Z</time>
      </trkpt>
      <trkpt lat="44.85196" lon="5.52076">
        <ele>1904.5</ele>
        <time>2024-05-11T12:07:21.000Z</time>
      </trkpt>
      <trkpt lat="44.85193" lon="5.52075">
        <ele>1904.9</ele>
        <time>2024-05-11T12:07:25.000Z</time>
      </trkpt>
      <trkpt lat="44.8519" lon="5.52073">
        <ele>1904.7</ele>
        <time>2024-05-11T12:07:30.000Z</time>
      </trkpt>
      <trkpt lat="44.85185" lon="5.52069">
        <ele>1904.2</ele>
        <time>2024-05-11T12:07:38.000Z</time>
      </trkpt>
      <trkpt lat="44.85179" lon="5.52066">
        <ele>1904</ele>
        <time>2024-05-11T12:07:45.000Z</time>
      </trkpt>
      <trkpt lat="44.85175" lon="5.52063">
        <ele>1903.8</ele>
        <time>2024-05-11T12:07:51.000Z</time>
      </trkpt>
      <trkpt lat="44.85169" lon="5.52061">
        <ele>1904.1</ele>
        <time>2024-05-11T12:08:01.000Z</time>
      </trkpt>
      <trkpt lat="44.85169" lon="5.52061">
        <ele>1904.3</ele>
        <time>2024-05-11T12:08:06.000Z</time>
      </trkpt>
      <trkpt lat="44.85168" lon="5.52061">
        <ele>1904.4</ele>
        <time>2024-05-11T12:08:14.000Z</time>
      </trkpt>
      <trkpt lat="44.85164" lon="5.52058">
        <ele>1904</ele>
        <time>2024-05-11T12:08:24.000Z</time>
      </trkpt>
      <trkpt lat="44.85157" lon="5.52054">
        <ele>1903.7</ele>
        <time>2024-05-11T12:08:31.000Z</time>
      </trkpt>
      <trkpt lat="44.85152" lon="5.52051">
        <ele>1903.3</ele>
        <time>2024-05-11T12:08:38.000Z</time>
      </trkpt>
      <trkpt lat="44.8515" lon="5.5205">
        <ele>1903.4</ele>
        <time>2024-05-11T12:08:41.000Z</time>
      </trkpt>
      <trkpt lat="44.85146" lon="5.52048">
        <ele>1903.3</ele>
        <time>2024-05-11T12:08:46.000Z</time>
      </trkpt>
      <trkpt lat="44.85143" lon="5.52047">
        <ele>1903.3</ele>
        <time>2024-05-11T12:08:49.000Z</time>
      </trkpt>
      <trkpt lat="44.85141" lon="5.52044">
        <ele>1902.6</ele>
        <time>2024-05-11T12:08:54.000Z</time>
      </trkpt>
      <trkpt lat="44.85138" lon="5.52043">
        <ele>1902.5</ele>
        <time>2024-05-11T12:08:58.000Z</time>
      </trkpt>
      <trkpt lat="44.85136" lon="5.52042">
        <ele>1902.6</ele>
        <time>2024-05-11T12:09:02.000Z</time>
      </trkpt>
      <trkpt lat="44.85132" lon="5.52041">
        <ele>1903</ele>
        <time>2024-05-11T12:09:09.000Z</time>
      </trkpt>
      <trkpt lat="44.85128" lon="5.52041">
        <ele>1903.6</ele>
        <time>2024-05-11T12:09:14.000Z</time>
      </trkpt>
      <trkpt lat="44.85127" lon="5.52041">
        <ele>1903.7</ele>
        <time>2024-05-11T12:09:15.000Z</time>
      </trkpt>
      <trkpt lat="44.85121" lon="5.5204">
        <ele>1904.5</ele>
        <time>2024-05-11T12:09:23.000Z</time>
      </trkpt>
      <trkpt lat="44.8512" lon="5.5204">
        <ele>1904.6</ele>
        <time>2024-05-11T12:09:24.000Z</time>
      </trkpt>
      <trkpt lat="44.85113" lon="5.5204">
        <ele>1906.2</ele>
        <time>2024-05-11T12:09:34.000Z</time>
      </trkpt>
      <trkpt lat="44.8511" lon="5.5204">
        <ele>1906.6</ele>
        <time>2024-05-11T12:09:39.000Z</time>
      </trkpt>
      <trkpt lat="44.85105" lon="5.52039">
        <ele>1907.2</ele>
        <time>2024-05-11T12:09:44.000Z</time>
      </trkpt>
      <trkpt lat="44.851" lon="5.52038">
        <ele>1908.1</ele>
        <time>2024-05-11T12:09:51.000Z</time>
      </trkpt>
      <trkpt lat="44.851" lon="5.52038">
        <ele>1908.3</ele>
        <time>2024-05-11T12:09:53.000Z</time>
      </trkpt>
      <trkpt lat="44.85098" lon="5.52038">
        <ele>1908.7</ele>
        <time>2024-05-11T12:09:56.000Z</time>
      </trkpt>
      <trkpt lat="44.85095" lon="5.52037">
        <ele>1909.3</ele>
        <time>2024-05-11T12:10:01.000Z</time>
      </trkpt>
      <trkpt lat="44.85094" lon="5.52037">
        <ele>1909.3</ele>
        <time>2024-05-11T12:10:02.000Z</time>
      </trkpt>
      <trkpt lat="44.85091" lon="5.52035">
        <ele>1909.6</ele>
        <time>2024-05-11T12:10:08.000Z</time>
      </trkpt>
      <trkpt lat="44.85086" lon="5.52033">
        <ele>1909.9</ele>
        <time>2024-05-11T12:10:16.000Z</time>
      </trkpt>
      <trkpt lat="44.85082" lon="5.5203">
        <ele>1910.1</ele>
        <time>2024-05-11T12:10:23.000Z</time>
      </trkpt>
      <trkpt lat="44.85082" lon="5.52031">
        <ele>1910.2</ele>
        <time>2024-05-11T12:10:24.000Z</time>
      </trkpt>
      <trkpt lat="44.85082" lon="5.52032">
        <ele>1910.7</ele>
        <time>2024-05-11T12:10:30.000Z</time>
      </trkpt>
      <trkpt lat="44.85079" lon="5.52032">
        <ele>1911.5</ele>
        <time>2024-05-11T12:10:36.000Z</time>
      </trkpt>
      <trkpt lat="44.85075" lon="5.52031">
        <ele>1912</ele>
        <time>2024-05-11T12:10:42.000Z</time>
      </trkpt>
      <trkpt lat="44.85073" lon="5.5203">
        <ele>1912.2</ele>
        <time>2024-05-11T12:10:45.000Z</time>
      </trkpt>
      <trkpt lat="44.85069" lon="5.52029">
        <ele>1912.4</ele>
        <time>2024-05-11T12:10:49.000Z</time>
      </trkpt>
      <trkpt lat="44.85067" lon="5.52029">
        <ele>1912.8</ele>
        <time>2024-05-11T12:10:53.000Z</time>
      </trkpt>
      <trkpt lat="44.85065" lon="5.52029">
        <ele>1913.2</ele>
        <time>2024-05-11T12:10:56.000Z</time>
      </trkpt>
      <trkpt lat="44.8506" lon="5.52028">
        <ele>1914</ele>
        <time>2024-05-11T12:11:03.000Z</time>
      </trkpt>
      <trkpt lat="44.8506" lon="5.52028">
        <ele>1914.1</ele>
        <time>2024-05-11T12:11:04.000Z</time>
      </trkpt>
      <trkpt lat="44.85055" lon="5.52028">
        <ele>1915</ele>
        <time>2024-05-11T12:11:10.000Z</time>
      </trkpt>
      <trkpt lat="44.85054" lon="5.52027">
        <ele>1915</ele>
        <time>2024-05-11T12:11:11.000Z</time>
      </trkpt>
      <trkpt lat="44.85054" lon="5.52028">
        <ele>1915.1</ele>
        <time>2024-05-11T12:11:12.000Z</time>
      </trkpt>
      <trkpt lat="44.85051" lon="5.52027">
        <ele>1915.3</ele>
        <time>2024-05-11T12:11:16.000Z</time>
      </trkpt>
      <trkpt lat="44.85049" lon="5.52026">
        <ele>1915.1</ele>
        <time>2024-05-11T12:11:18.000Z</time>
      </trkpt>
      <trkpt lat="44.85046" lon="5.52022">
        <ele>1914.7</ele>
        <time>2024-05-11T12:11:25.000Z</time>
      </trkpt>
      <trkpt lat="44.85043" lon="5.5202">
        <ele>1914.7</ele>
        <time>2024-05-11T12:11:30.000Z</time>
      </trkpt>
      <trkpt lat="44.85041" lon="5.52018">
        <ele>1914.6</ele>
        <time>2024-05-11T12:11:33.000Z</time>
      </trkpt>
      <trkpt lat="44.8504" lon="5.52017">
        <ele>1914.5</ele>
        <time>2024-05-11T12:11:39.000Z</time>
      </trkpt>
      <trkpt lat="44.85038" lon="5.52015">
        <ele>1914.5</ele>
        <time>2024-05-11T12:11:42.000Z</time>
      </trkpt>
      <trkpt lat="44.85036" lon="5.52014">
        <ele>1914.8</ele>
        <time>2024-05-11T12:11:45.000Z</time>
      </trkpt>
      <trkpt lat="44.85033" lon="5.52013">
        <ele>1915.1</ele>
        <time>2024-05-11T12:11:48.000Z</time>
      </trkpt>
      <trkpt lat="44.85028" lon="5.52008">
        <ele>1915.9</ele>
        <time>2024-05-11T12:11:55.000Z</time>
      </trkpt>
      <trkpt lat="44.85025" lon="5.52006">
        <ele>1916.3</ele>
        <time>2024-05-11T12:12:00.000Z</time>
      </trkpt>
      <trkpt lat="44.85024" lon="5.52005">
        <ele>1916.6</ele>
        <time>2024-05-11T12:12:02.000Z</time>
      </trkpt>
      <trkpt lat="44.85019" lon="5.52004">
        <ele>1917.6</ele>
        <time>2024-05-11T12:12:09.000Z</time>
      </trkpt>
      <trkpt lat="44.85016" lon="5.52003">
        <ele>1918.2</ele>
        <time>2024-05-11T12:12:13.000Z</time>
      </trkpt>
      <trkpt lat="44.85012" lon="5.52001">
        <ele>1919.1</ele>
        <time>2024-05-11T12:12:18.000Z</time>
      </trkpt>
      <trkpt lat="44.85011" lon="5.52001">
        <ele>1919.4</ele>
        <time>2024-05-11T12:12:22.000Z</time>
      </trkpt>
      <trkpt lat="44.85011" lon="5.52001">
        <ele>1919.4</ele>
        <time>2024-05-11T12:12:24.000Z</time>
      </trkpt>
      <trkpt lat="44.85008" lon="5.52002">
        <ele>1920.2</ele>
        <time>2024-05-11T12:12:32.000Z</time>
      </trkpt>
      <trkpt lat="44.85003" lon="5.52001">
        <ele>1921.3</ele>
        <time>2024-05-11T12:12:39.000Z</time>
      </trkpt>
      <trkpt lat="44.84999" lon="5.51998">
        <ele>1921.8</ele>
        <time>2024-05-11T12:12:44.000Z</time>
      </trkpt>
      <trkpt lat="44.84999" lon="5.51998">
        <ele>1921.8</ele>
        <time>2024-05-11T12:12:45.000Z</time>
      </trkpt>
      <trkpt lat="44.84994" lon="5.51993">
        <ele>1921.9</ele>
        <time>2024-05-11T12:12:52.000Z</time>
      </trkpt>
      <trkpt lat="44.84993" lon="5.51993">
        <ele>1922</ele>
        <time>2024-05-11T12:12:53.000Z</time>
      </trkpt>
      <trkpt lat="44.84988" lon="5.51992">
        <ele>1922.9</ele>
        <time>2024-05-11T12:13:00.000Z</time>
      </trkpt>
      <trkpt lat="44.84986" lon="5.51992">
        <ele>1923.2</ele>
        <time>2024-05-11T12:13:03.000Z</time>
      </trkpt>
      <trkpt lat="44.84982" lon="5.51989">
        <ele>1923.4</ele>
        <time>2024-05-11T12:13:08.000Z</time>
      </trkpt>
      <trkpt lat="44.84978" lon="5.51989">
        <ele>1923.9</ele>
        <time>2024-05-11T12:13:12.000Z</time>
      </trkpt>
      <trkpt lat="44.84975" lon="5.51987">
        <ele>1924.2</ele>
        <time>2024-05-11T12:13:16.000Z</time>
      </trkpt>
      <trkpt lat="44.8497" lon="5.51985">
        <ele>1924.8</ele>
        <time>2024-05-11T12:13:23.000Z</time>
      </trkpt>
      <trkpt lat="44.84969" lon="5.51985">
        <ele>1924.9</ele>
        <time>2024-05-11T12:13:24.000Z</time>
      </trkpt>
      <trkpt lat="44.84964" lon="5.51986">
        <ele>1926</ele>
        <time>2024-05-11T12:13:32.000Z</time>
      </trkpt>
      <trkpt lat="44.84958" lon="5.51983">
        <ele>1926.6</ele>
        <time>2024-05-11T12:13:40.000Z</time>
      </trkpt>
      <trkpt lat="44.84955" lon="5.51978">
        <ele>1926.6</ele>
        <time>2024-05-11T12:13:45.000Z</time>
      </trkpt>
      <trkpt lat="44.84953" lon="5.51976">
        <ele>1926.6</ele>
        <time>2024-05-11T12:13:49.000Z</time>
      </trkpt>
      <trkpt lat="44.84952" lon="5.51974">
        <ele>1926.6</ele>
        <time>2024-05-11T12:13:51.000Z</time>
      </trkpt>
      <trkpt lat="44.84947" lon="5.51971">
        <ele>1927.4</ele>
        <time>2024-05-11T12:13:58.000Z</time>
      </trkpt>
      <trkpt lat="44.84944" lon="5.51971">
        <ele>1927.9</ele>
        <time>2024-05-11T12:14:01.000Z</time>
      </trkpt>
      <trkpt lat="44.84942" lon="5.5197">
        <ele>1928</ele>
        <time>2024-05-11T12:14:03.000Z</time>
      </trkpt>
      <trkpt lat="44.8494" lon="5.51969">
        <ele>1928.2</ele>
        <time>2024-05-11T12:14:06.000Z</time>
      </trkpt>
      <trkpt lat="44.84937" lon="5.51967">
        <ele>1928.4</ele>
        <time>2024-05-11T12:14:13.000Z</time>
      </trkpt>
      <trkpt lat="44.84936" lon="5.51968">
        <ele>1928.4</ele>
        <time>2024-05-11T12:14:14.000Z</time>
      </trkpt>
      <trkpt lat="44.84932" lon="5.51966">
        <ele>1928.7</ele>
        <time>2024-05-11T12:14:19.000Z</time>
      </trkpt>
      <trkpt lat="44.84931" lon="5.51965">
        <ele>1928.8</ele>
        <time>2024-05-11T12:14:20.000Z</time>
      </trkpt>
      <trkpt lat="44.84927" lon="5.51965">
        <ele>1929.2</ele>
        <time>2024-05-11T12:14:24.000Z</time>
      </trkpt>
      <trkpt lat="44.84926" lon="5.51966">
        <ele>1929.5</ele>
        <time>2024-05-11T12:14:26.000Z</time>
      </trkpt>
      <trkpt lat="44.84922" lon="5.51968">
        <ele>1930.1</ele>
        <time>2024-05-11T12:14:30.000Z</time>
      </trkpt>
      <trkpt lat="44.84915" lon="5.5197">
        <ele>1930.9</ele>
        <time>2024-05-11T12:14:41.000Z</time>
      </trkpt>
      <trkpt lat="44.84908" lon="5.5197">
        <ele>1931.2</ele>
        <time>2024-05-11T12:14:48.000Z</time>
      </trkpt>
      <trkpt lat="44.84907" lon="5.51969">
        <ele>1931.2</ele>
        <time>2024-05-11T12:14:49.000Z</time>
      </trkpt>
      <trkpt lat="44.849" lon="5.51968">
        <ele>1931.4</ele>
        <time>2024-05-11T12:14:56.000Z</time>
      </trkpt>
      <trkpt lat="44.84897" lon="5.51967">
        <ele>1931.5</ele>
        <time>2024-05-11T12:15:00.000Z</time>
      </trkpt>
      <trkpt lat="44.84894" lon="5.51964">
        <ele>1931.5</ele>
        <time>2024-05-11T12:15:05.000Z</time>
      </trkpt>
      <trkpt lat="44.84889" lon="5.51963">
        <ele>1931.7</ele>
        <time>2024-05-11T12:15:10.000Z</time>
      </trkpt>
      <trkpt lat="44.84887" lon="5.51962">
        <ele>1931.6</ele>
        <time>2024-05-11T12:15:12.000Z</time>
      </trkpt>
      <trkpt lat="44.8488" lon="5.51958">
        <ele>1931.5</ele>
        <time>2024-05-11T12:15:21.000Z</time>
      </trkpt>
      <trkpt lat="44.84878" lon="5.51954">
        <ele>1931.5</ele>
        <time>2024-05-11T12:15:26.000Z</time>
      </trkpt>
      <trkpt lat="44.84876" lon="5.51954">
        <ele>1931.5</ele>
        <time>2024-05-11T12:15:28.000Z</time>
      </trkpt>
      <trkpt lat="44.84867" lon="5.51953">
        <ele>1931.6</ele>
        <time>2024-05-11T12:15:37.000Z</time>
      </trkpt>
      <trkpt lat="44.84858" lon="5.5195">
        <ele>1931.5</ele>
        <time>2024-05-11T12:15:48.000Z</time>
      </trkpt>
      <trkpt lat="44.84851" lon="5.51945">
        <ele>1931.2</ele>
        <time>2024-05-11T12:15:57.000Z</time>
      </trkpt>
      <trkpt lat="44.84846" lon="5.51941">
        <ele>1930.8</ele>
        <time>2024-05-11T12:16:05.000Z</time>
      </trkpt>
      <trkpt lat="44.84843" lon="5.51941">
        <ele>1930.6</ele>
        <time>2024-05-11T12:16:08.000Z</time>
      </trkpt>
      <trkpt lat="44.8484" lon="5.51938">
        <ele>1930.4</ele>
        <time>2024-05-11T12:16:12.000Z</time>
      </trkpt>
      <trkpt lat="44.84839" lon="5.51938">
        <ele>1930.3</ele>
        <time>2024-05-11T12:16:13.000Z</time>
      </trkpt>
      <trkpt lat="44.84835" lon="5.51936">
        <ele>1930.1</ele>
        <time>2024-05-11T12:16:18.000Z</time>
      </trkpt>
      <trkpt lat="44.84825" lon="5.5193">
        <ele>1928.7</ele>
        <time>2024-05-11T12:16:28.000Z</time>
      </trkpt>
      <trkpt lat="44.84818" lon="5.51924">
        <ele>1927.9</ele>
        <time>2024-05-11T12:16:36.000Z</time>
      </trkpt>
      <trkpt lat="44.84815" lon="5.51922">
        <ele>1927.7</ele>
        <time>2024-05-11T12:16:39.000Z</time>
      </trkpt>
      <trkpt lat="44.84812" lon="5.5192">
        <ele>1927.5</ele>
        <time>2024-05-11T12:16:42.000Z</time>
      </trkpt>
      <trkpt lat="44.8481" lon="5.51919">
        <ele>1927.3</ele>
        <time>2024-05-11T12:16:46.000Z</time>
      </trkpt>
      <trkpt lat="44.84803" lon="5.51913">
        <ele>1926.6</ele>
        <time>2024-05-11T12:16:55.000Z</time>
      </trkpt>
      <trkpt lat="44.84802" lon="5.51913">
        <ele>1926.5</ele>
        <time>2024-05-11T12:16:56.000Z</time>
      </trkpt>
      <trkpt lat="44.84795" lon="5.51905">
        <ele>1925.6</ele>
        <time>2024-05-11T12:17:04.000Z</time>
      </trkpt>
      <trkpt lat="44.84794" lon="5.51904">
        <ele>1925.5</ele>
        <time>2024-05-11T12:17:05.000Z</time>
      </trkpt>
      <trkpt lat="44.84789" lon="5.51898">
        <ele>1925.2</ele>
        <time>2024-05-11T12:17:13.000Z</time>
      </trkpt>
      <trkpt lat="44.84785" lon="5.51893">
        <ele>1925.2</ele>
        <time>2024-05-11T12:17:18.000Z</time>
      </trkpt>
      <trkpt lat="44.84782" lon="5.5189">
        <ele>1925.2</ele>
        <time>2024-05-11T12:17:21.000Z</time>
      </trkpt>
      <trkpt lat="44.84776" lon="5.51884">
        <ele>1924.7</ele>
        <time>2024-05-11T12:17:28.000Z</time>
      </trkpt>
      <trkpt lat="44.84769" lon="5.51877">
        <ele>1923.8</ele>
        <time>2024-05-11T12:17:37.000Z</time>
      </trkpt>
      <trkpt lat="44.84766" lon="5.51874">
        <ele>1923.7</ele>
        <time>2024-05-11T12:17:42.000Z</time>
      </trkpt>
      <trkpt lat="44.8476" lon="5.5187">
        <ele>1923.5</ele>
        <time>2024-05-11T12:17:48.000Z</time>
      </trkpt>
      <trkpt lat="44.84758" lon="5.51869">
        <ele>1923.5</ele>
        <time>2024-05-11T12:17:50.000Z</time>
      </trkpt>
      <trkpt lat="44.84753" lon="5.51865">
        <ele>1923.6</ele>
        <time>2024-05-11T12:17:54.000Z</time>
      </trkpt>
      <trkpt lat="44.84751" lon="5.51862">
        <ele>1923.9</ele>
        <time>2024-05-11T12:17:57.000Z</time>
      </trkpt>
      <trkpt lat="44.84749" lon="5.5186">
        <ele>1923.7</ele>
        <time>2024-05-11T12:17:59.000Z</time>
      </trkpt>
      <trkpt lat="44.8474" lon="5.51855">
        <ele>1921.8</ele>
        <time>2024-05-11T12:18:08.000Z</time>
      </trkpt>
      <trkpt lat="44.84739" lon="5.51855">
        <ele>1921.6</ele>
        <time>2024-05-11T12:18:09.000Z</time>
      </trkpt>
      <trkpt lat="44.84737" lon="5.51853">
        <ele>1921.3</ele>
        <time>2024-05-11T12:18:12.000Z</time>
      </trkpt>
      <trkpt lat="44.84736" lon="5.51853">
        <ele>1921.1</ele>
        <time>2024-05-11T12:18:13.000Z</time>
      </trkpt>
      <trkpt lat="44.84729" lon="5.51847">
        <ele>1920.2</ele>
        <time>2024-05-11T12:18:19.000Z</time>
      </trkpt>
      <trkpt lat="44.84727" lon="5.51844">
        <ele>1920.1</ele>
        <time>2024-05-11T12:18:21.000Z</time>
      </trkpt>
      <trkpt lat="44.84724" lon="5.51842">
        <ele>1919.9</ele>
        <time>2024-05-11T12:18:24.000Z</time>
      </trkpt>
      <trkpt lat="44.84717" lon="5.51839">
        <ele>1919.1</ele>
        <time>2024-05-11T12:18:30.000Z</time>
      </trkpt>
      <trkpt lat="44.8471" lon="5.51838">
        <ele>1918.3</ele>
        <time>2024-05-11T12:18:38.000Z</time>
      </trkpt>
      <trkpt lat="44.84702" lon="5.51839">
        <ele>1917.3</ele>
        <time>2024-05-11T12:18:47.000Z</time>
      </trkpt>
      <trkpt lat="44.84699" lon="5.51838">
        <ele>1917</ele>
        <time>2024-05-11T12:18:50.000Z</time>
      </trkpt>
      <trkpt lat="44.84698" lon="5.51836">
        <ele>1917.1</ele>
        <time>2024-05-11T12:18:53.000Z</time>
      </trkpt>
      <trkpt lat="44.84696" lon="5.51835">
        <ele>1917.1</ele>
        <time>2024-05-11T12:18:54.000Z</time>
      </trkpt>
      <trkpt lat="44.84694" lon="5.51832">
        <ele>1916.8</ele>
        <time>2024-05-11T12:18:57.000Z</time>
      </trkpt>
      <trkpt lat="44.84692" lon="5.5183">
        <ele>1916.5</ele>
        <time>2024-05-11T12:18:59.000Z</time>
      </trkpt>
      <trkpt lat="44.8469" lon="5.51829">
        <ele>1916.4</ele>
        <time>2024-05-11T12:19:00.000Z</time>
      </trkpt>
      <trkpt lat="44.84681" lon="5.51824">
        <ele>1915.5</ele>
        <time>2024-05-11T12:19:08.000Z</time>
      </trkpt>
      <trkpt lat="44.8468" lon="5.51824">
        <ele>1915.4</ele>
        <time>2024-05-11T12:19:09.000Z</time>
      </trkpt>
      <trkpt lat="44.84673" lon="5.51819">
        <ele>1915.4</ele>
        <time>2024-05-11T12:19:16.000Z</time>
      </trkpt>
      <trkpt lat="44.84669" lon="5.51817">
        <ele>1915.5</ele>
        <time>2024-05-11T12:19:21.000Z</time>
      </trkpt>
      <trkpt lat="44.84668" lon="5.51819">
        <ele>1915.1</ele>
        <time>2024-05-11T12:19:27.000Z</time>
      </trkpt>
      <trkpt lat="44.84664" lon="5.51821">
        <ele>1914.2</ele>
        <time>2024-05-11T12:19:33.000Z</time>
      </trkpt>
      <trkpt lat="44.84663" lon="5.51821">
        <ele>1913.7</ele>
        <time>2024-05-11T12:19:35.000Z</time>
      </trkpt>
      <trkpt lat="44.84659" lon="5.5182">
        <ele>1913</ele>
        <time>2024-05-11T12:19:40.000Z</time>
      </trkpt>
      <trkpt lat="44.84658" lon="5.5182">
        <ele>1912.8</ele>
        <time>2024-05-11T12:19:41.000Z</time>
      </trkpt>
      <trkpt lat="44.84654" lon="5.51817">
        <ele>1912.4</ele>
        <time>2024-05-11T12:19:46.000Z</time>
      </trkpt>
      <trkpt lat="44.84652" lon="5.51816">
        <ele>1912.3</ele>
        <time>2024-05-11T12:19:48.000Z</time>
      </trkpt>
      <trkpt lat="44.84646" lon="5.51812">
        <ele>1912</ele>
        <time>2024-05-11T12:19:55.000Z</time>
      </trkpt>
      <trkpt lat="44.84646" lon="5.51812">
        <ele>1911.9</ele>
        <time>2024-05-11T12:19:56.000Z</time>
      </trkpt>
      <trkpt lat="44.84642" lon="5.5181">
        <ele>1911.9</ele>
        <time>2024-05-11T12:20:02.000Z</time>
      </trkpt>
      <trkpt lat="44.84641" lon="5.51809">
        <ele>1912</ele>
        <time>2024-05-11T12:20:04.000Z</time>
      </trkpt>
      <trkpt lat="44.84634" lon="5.51805">
        <ele>1911.8</ele>
        <time>2024-05-11T12:20:11.000Z</time>
      </trkpt>
      <trkpt lat="44.84633" lon="5.51804">
        <ele>1911.6</ele>
        <time>2024-05-11T12:20:12.000Z</time>
      </trkpt>
      <trkpt lat="44.84629" lon="5.51803">
        <ele>1910.9</ele>
        <time>2024-05-11T12:20:17.000Z</time>
      </trkpt>
      <trkpt lat="44.84629" lon="5.51803">
        <ele>1910.8</ele>
        <time>2024-05-11T12:20:18.000Z</time>
      </trkpt>
      <trkpt lat="44.84627" lon="5.51801">
        <ele>1910.7</ele>
        <time>2024-05-11T12:20:24.000Z</time>
      </trkpt>
      <trkpt lat="44.84626" lon="5.51801">
        <ele>1910.5</ele>
        <time>2024-05-11T12:20:26.000Z</time>
      </trkpt>
      <trkpt lat="44.84622" lon="5.51799">
        <ele>1909.8</ele>
        <time>2024-05-11T12:20:32.000Z</time>
      </trkpt>
      <trkpt lat="44.84622" lon="5.51802">
        <ele>1909.5</ele>
        <time>2024-05-11T12:20:37.000Z</time>
      </trkpt>
      <trkpt lat="44.84621" lon="5.51805">
        <ele>1908.7</ele>
        <time>2024-05-11T12:20:42.000Z</time>
      </trkpt>
      <trkpt lat="44.84621" lon="5.51805">
        <ele>1908.6</ele>
        <time>2024-05-11T12:20:47.000Z</time>
      </trkpt>
      <trkpt lat="44.84622" lon="5.51809">
        <ele>1908.2</ele>
        <time>2024-05-11T12:20:52.000Z</time>
      </trkpt>
      <trkpt lat="44.84621" lon="5.5181">
        <ele>1908.1</ele>
        <time>2024-05-11T12:20:53.000Z</time>
      </trkpt>
      <trkpt lat="44.84622" lon="5.51813">
        <ele>1907.9</ele>
        <time>2024-05-11T12:20:59.000Z</time>
      </trkpt>
      <trkpt lat="44.84622" lon="5.51814">
        <ele>1907.7</ele>
        <time>2024-05-11T12:21:00.000Z</time>
      </trkpt>
      <trkpt lat="44.84622" lon="5.5182">
        <ele>1907.1</ele>
        <time>2024-05-11T12:21:05.000Z</time>
      </trkpt>
      <trkpt lat="44.84622" lon="5.51821">
        <ele>1906.9</ele>
        <time>2024-05-11T12:21:07.000Z</time>
      </trkpt>
      <trkpt lat="44.84623" lon="5.51824">
        <ele>1906.5</ele>
        <time>2024-05-11T12:21:11.000Z</time>
      </trkpt>
      <trkpt lat="44.84624" lon="5.51825">
        <ele>1906.4</ele>
        <time>2024-05-11T12:21:12.000Z</time>
      </trkpt>
      <trkpt lat="44.84623" lon="5.5183">
        <ele>1905.8</ele>
        <time>2024-05-11T12:21:16.000Z</time>
      </trkpt>
      <trkpt lat="44.84622" lon="5.51831">
        <ele>1905.7</ele>
        <time>2024-05-11T12:21:23.000Z</time>
      </trkpt>
      <trkpt lat="44.84622" lon="5.51832">
        <ele>1905.6</ele>
        <time>2024-05-11T12:21:30.000Z</time>
      </trkpt>
      <trkpt lat="44.84622" lon="5.51832">
        <ele>1905.5</ele>
        <time>2024-05-11T12:21:43.000Z</time>
      </trkpt>
      <trkpt lat="44.84623" lon="5.51836">
        <ele>1905.1</ele>
        <time>2024-05-11T12:22:46.000Z</time>
      </trkpt>
      <trkpt lat="44.84619" lon="5.51834">
        <ele>1905.9</ele>
        <time>2024-05-11T12:22:51.000Z</time>
      </trkpt>
      <trkpt lat="44.84619" lon="5.51834">
        <ele>1905.9</ele>
        <time>2024-05-11T12:23:06.000Z</time>
      </trkpt>
      <trkpt lat="44.84622" lon="5.51836">
        <ele>1905.2</ele>
        <time>2024-05-11T12:23:28.000Z</time>
      </trkpt>
      <trkpt lat="44.84624" lon="5.51836">
        <ele>1905</ele>
        <time>2024-05-11T12:23:33.000Z</time>
      </trkpt>
      <trkpt lat="44.84625" lon="5.51835">
        <ele>1904.9</ele>
        <time>2024-05-11T12:23:59.000Z</time>
      </trkpt>
      <trkpt lat="44.84626" lon="5.51836">
        <ele>1904.6</ele>
        <time>2024-05-11T12:24:32.000Z</time>
      </trkpt>
      <trkpt lat="44.84627" lon="5.51836">
        <ele>1904.5</ele>
        <time>2024-05-11T12:24:37.000Z</time>
      </trkpt>
      <trkpt lat="44.84627" lon="5.51836">
        <ele>1904.5</ele>
        <time>2024-05-11T12:24:44.000Z</time>
      </trkpt>
      <trkpt lat="44.84626" lon="5.51836">
        <ele>1904.6</ele>
        <time>2024-05-11T12:24:57.000Z</time>
      </trkpt>
      <trkpt lat="44.84628" lon="5.51833">
        <ele>1904.7</ele>
        <time>2024-05-11T12:25:30.000Z</time>
      </trkpt>
      <trkpt lat="44.84625" lon="5.51837">
        <ele>1904.6</ele>
        <time>2024-05-11T12:26:12.000Z</time>
      </trkpt>
      <trkpt lat="44.84624" lon="5.51836">
        <ele>1904.9</ele>
        <time>2024-05-11T12:26:58.000Z</time>
      </trkpt>
      <trkpt lat="44.84624" lon="5.51836">
        <ele>1904.9</ele>
        <time>2024-05-11T12:27:04.000Z</time>
      </trkpt>
      <trkpt lat="44.84624" lon="5.51836">
        <ele>1905</ele>
        <time>2024-05-11T12:29:34.000Z</time>
      </trkpt>
      <trkpt lat="44.84625" lon="5.51837">
        <ele>1904.7</ele>
        <time>2024-05-11T12:29:40.000Z</time>
      </trkpt>
      <trkpt lat="44.84625" lon="5.51839">
        <ele>1904.5</ele>
        <time>2024-05-11T12:29:47.000Z</time>
      </trkpt>
      <trkpt lat="44.84625" lon="5.51838">
        <ele>1904.5</ele>
        <time>2024-05-11T12:29:52.000Z</time>
      </trkpt>
      <trkpt lat="44.84625" lon="5.51839">
        <ele>1904.5</ele>
        <time>2024-05-11T12:29:57.000Z</time>
      </trkpt>
      <trkpt lat="44.84624" lon="5.5184">
        <ele>1904.6</ele>
        <time>2024-05-11T12:30:00.000Z</time>
      </trkpt>
      <trkpt lat="44.84625" lon="5.5184">
        <ele>1904.4</ele>
        <time>2024-05-11T12:30:06.000Z</time>
      </trkpt>
      <trkpt lat="44.84628" lon="5.51842">
        <ele>1903.7</ele>
        <time>2024-05-11T12:30:12.000Z</time>
      </trkpt>
      <trkpt lat="44.84629" lon="5.51845">
        <ele>1903.2</ele>
        <time>2024-05-11T12:30:18.000Z</time>
      </trkpt>
      <trkpt lat="44.8463" lon="5.51847">
        <ele>1902.8</ele>
        <time>2024-05-11T12:30:26.000Z</time>
      </trkpt>
      <trkpt lat="44.84633" lon="5.51849">
        <ele>1901.9</ele>
        <time>2024-05-11T12:30:29.000Z</time>
      </trkpt>
      <trkpt lat="44.84637" lon="5.51856">
        <ele>1900.3</ele>
        <time>2024-05-11T12:30:34.000Z</time>
      </trkpt>
      <trkpt lat="44.84637" lon="5.5186">
        <ele>1899.6</ele>
        <time>2024-05-11T12:30:38.000Z</time>
      </trkpt>
      <trkpt lat="44.84638" lon="5.51865">
        <ele>1899.5</ele>
        <time>2024-05-11T12:30:42.000Z</time>
      </trkpt>
      <trkpt lat="44.84638" lon="5.51865">
        <ele>1899.5</ele>
        <time>2024-05-11T12:30:43.000Z</time>
      </trkpt>
      <trkpt lat="44.84638" lon="5.51865">
        <ele>1899.5</ele>
        <time>2024-05-11T12:30:44.000Z</time>
      </trkpt>
      <trkpt lat="44.84639" lon="5.51867">
        <ele>1899.5</ele>
        <time>2024-05-11T12:30:48.000Z</time>
      </trkpt>
      <trkpt lat="44.84639" lon="5.51868">
        <ele>1899.5</ele>
        <time>2024-05-11T12:30:50.000Z</time>
      </trkpt>
      <trkpt lat="44.84638" lon="5.51867">
        <ele>1899.7</ele>
        <time>2024-05-11T12:30:54.000Z</time>
      </trkpt>
      <trkpt lat="44.84638" lon="5.51867">
        <ele>1899.7</ele>
        <time>2024-05-11T12:30:58.000Z</time>
      </trkpt>
      <trkpt lat="44.84636" lon="5.51868">
        <ele>1900.3</ele>
        <time>2024-05-11T12:31:05.000Z</time>
      </trkpt>
      <trkpt lat="44.8464" lon="5.51873">
        <ele>1899.9</ele>
        <time>2024-05-11T12:31:19.000Z</time>
      </trkpt>
      <trkpt lat="44.84647" lon="5.51881">
        <ele>1899.9</ele>
        <time>2024-05-11T12:31:24.000Z</time>
      </trkpt>
      <trkpt lat="44.84649" lon="5.51882">
        <ele>1899.7</ele>
        <time>2024-05-11T12:31:28.000Z</time>
      </trkpt>
      <trkpt lat="44.8465" lon="5.51883">
        <ele>1899.6</ele>
        <time>2024-05-11T12:31:29.000Z</time>
      </trkpt>
      <trkpt lat="44.84655" lon="5.51887">
        <ele>1898.4</ele>
        <time>2024-05-11T12:31:36.000Z</time>
      </trkpt>
      <trkpt lat="44.84657" lon="5.51889">
        <ele>1897.8</ele>
        <time>2024-05-11T12:31:38.000Z</time>
      </trkpt>
      <trkpt lat="44.84658" lon="5.51894">
        <ele>1897.9</ele>
        <time>2024-05-11T12:31:42.000Z</time>
      </trkpt>
      <trkpt lat="44.84659" lon="5.51895">
        <ele>1897.7</ele>
        <time>2024-05-11T12:31:47.000Z</time>
      </trkpt>
      <trkpt lat="44.84659" lon="5.51896">
        <ele>1897.8</ele>
        <time>2024-05-11T12:31:54.000Z</time>
      </trkpt>
      <trkpt lat="44.84663" lon="5.51901">
        <ele>1896.9</ele>
        <time>2024-05-11T12:32:01.000Z</time>
      </trkpt>
      <trkpt lat="44.84664" lon="5.51903">
        <ele>1896.8</ele>
        <time>2024-05-11T12:32:02.000Z</time>
      </trkpt>
      <trkpt lat="44.84665" lon="5.51906">
        <ele>1896.4</ele>
        <time>2024-05-11T12:32:08.000Z</time>
      </trkpt>
      <trkpt lat="44.84672" lon="5.51908">
        <ele>1896.3</ele>
        <time>2024-05-11T12:32:16.000Z</time>
      </trkpt>
      <trkpt lat="44.84675" lon="5.51907">
        <ele>1896.5</ele>
        <time>2024-05-11T12:32:19.000Z</time>
      </trkpt>
      <trkpt lat="44.84675" lon="5.5191">
        <ele>1896.2</ele>
        <time>2024-05-11T12:32:23.000Z</time>
      </trkpt>
      <trkpt lat="44.84674" lon="5.51911">
        <ele>1896.1</ele>
        <time>2024-05-11T12:32:28.000Z</time>
      </trkpt>
      <trkpt lat="44.84677" lon="5.51914">
        <ele>1895.7</ele>
        <time>2024-05-11T12:32:34.000Z</time>
      </trkpt>
      <trkpt lat="44.84683" lon="5.51917">
        <ele>1894.9</ele>
        <time>2024-05-11T12:32:41.000Z</time>
      </trkpt>
      <trkpt lat="44.84687" lon="5.51919">
        <ele>1894.7</ele>
        <time>2024-05-11T12:32:47.000Z</time>
      </trkpt>
      <trkpt lat="44.84689" lon="5.51919">
        <ele>1894.5</ele>
        <time>2024-05-11T12:32:51.000Z</time>
      </trkpt>
      <trkpt lat="44.84695" lon="5.51922">
        <ele>1894.1</ele>
        <time>2024-05-11T12:32:58.000Z</time>
      </trkpt>
      <trkpt lat="44.84695" lon="5.51922">
        <ele>1894.2</ele>
        <time>2024-05-11T12:32:59.000Z</time>
      </trkpt>
      <trkpt lat="44.84699" lon="5.51926">
        <ele>1894.7</ele>
        <time>2024-05-11T12:33:06.000Z</time>
      </trkpt>
      <trkpt lat="44.84702" lon="5.51926">
        <ele>1895.3</ele>
        <time>2024-05-11T12:33:11.000Z</time>
      </trkpt>
      <trkpt lat="44.84701" lon="5.51929">
        <ele>1894.9</ele>
        <time>2024-05-11T12:33:16.000Z</time>
      </trkpt>
      <trkpt lat="44.84702" lon="5.51932">
        <ele>1894.7</ele>
        <time>2024-05-11T12:33:22.000Z</time>
      </trkpt>
      <trkpt lat="44.84705" lon="5.51937">
        <ele>1894.2</ele>
        <time>2024-05-11T12:33:28.000Z</time>
      </trkpt>
      <trkpt lat="44.84708" lon="5.5194">
        <ele>1893.5</ele>
        <time>2024-05-11T12:33:34.000Z</time>
      </trkpt>
      <trkpt lat="44.84709" lon="5.51943">
        <ele>1892.9</ele>
        <time>2024-05-11T12:33:38.000Z</time>
      </trkpt>
      <trkpt lat="44.8471" lon="5.51945">
        <ele>1892.3</ele>
        <time>2024-05-11T12:33:42.000Z</time>
      </trkpt>
      <trkpt lat="44.84712" lon="5.51947">
        <ele>1892.1</ele>
        <time>2024-05-11T12:33:48.000Z</time>
      </trkpt>
      <trkpt lat="44.84712" lon="5.51949">
        <ele>1892.1</ele>
        <time>2024-05-11T12:33:53.000Z</time>
      </trkpt>
      <trkpt lat="44.84716" lon="5.51951">
        <ele>1891.2</ele>
        <time>2024-05-11T12:34:00.000Z</time>
      </trkpt>
      <trkpt lat="44.84719" lon="5.51956">
        <ele>1890</ele>
        <time>2024-05-11T12:34:06.000Z</time>
      </trkpt>
      <trkpt lat="44.84723" lon="5.51961">
        <ele>1888.4</ele>
        <time>2024-05-11T12:34:12.000Z</time>
      </trkpt>
      <trkpt lat="44.84725" lon="5.51961">
        <ele>1889</ele>
        <time>2024-05-11T12:34:19.000Z</time>
      </trkpt>
      <trkpt lat="44.84725" lon="5.51961">
        <ele>1888.9</ele>
        <time>2024-05-11T12:34:22.000Z</time>
      </trkpt>
      <trkpt lat="44.84723" lon="5.51962">
        <ele>1888.2</ele>
        <time>2024-05-11T12:34:25.000Z</time>
      </trkpt>
      <trkpt lat="44.84724" lon="5.51963">
        <ele>1888.2</ele>
        <time>2024-05-11T12:34:31.000Z</time>
      </trkpt>
      <trkpt lat="44.84725" lon="5.51968">
        <ele>1887.8</ele>
        <time>2024-05-11T12:34:36.000Z</time>
      </trkpt>
      <trkpt lat="44.84729" lon="5.51973">
        <ele>1888</ele>
        <time>2024-05-11T12:34:42.000Z</time>
      </trkpt>
      <trkpt lat="44.84733" lon="5.51978">
        <ele>1889.1</ele>
        <time>2024-05-11T12:34:49.000Z</time>
      </trkpt>
      <trkpt lat="44.84733" lon="5.51979">
        <ele>1889.2</ele>
        <time>2024-05-11T12:34:50.000Z</time>
      </trkpt>
      <trkpt lat="44.84735" lon="5.51984">
        <ele>1889.3</ele>
        <time>2024-05-11T12:34:54.000Z</time>
      </trkpt>
      <trkpt lat="44.84736" lon="5.51987">
        <ele>1889.2</ele>
        <time>2024-05-11T12:34:56.000Z</time>
      </trkpt>
      <trkpt lat="44.84738" lon="5.51987">
        <ele>1889.1</ele>
        <time>2024-05-11T12:34:58.000Z</time>
      </trkpt>
      <trkpt lat="44.84739" lon="5.51989">
        <ele>1888.8</ele>
        <time>2024-05-11T12:35:01.000Z</time>
      </trkpt>
      <trkpt lat="44.84738" lon="5.5199">
        <ele>1888.9</ele>
        <time>2024-05-11T12:35:07.000Z</time>
      </trkpt>
      <trkpt lat="44.84738" lon="5.51992">
        <ele>1888.6</ele>
        <time>2024-05-11T12:35:13.000Z</time>
      </trkpt>
      <trkpt lat="44.84741" lon="5.51995">
        <ele>1887.7</ele>
        <time>2024-05-11T12:35:17.000Z</time>
      </trkpt>
      <trkpt lat="44.84742" lon="5.51996">
        <ele>1887.4</ele>
        <time>2024-05-11T12:35:18.000Z</time>
      </trkpt>
      <trkpt lat="44.84745" lon="5.52">
        <ele>1885.7</ele>
        <time>2024-05-11T12:35:22.000Z</time>
      </trkpt>
      <trkpt lat="44.84747" lon="5.52003">
        <ele>1884.9</ele>
        <time>2024-05-11T12:35:26.000Z</time>
      </trkpt>
      <trkpt lat="44.84747" lon="5.52004">
        <ele>1884.9</ele>
        <time>2024-05-11T12:35:27.000Z</time>
      </trkpt>
      <trkpt lat="44.84746" lon="5.52004">
        <ele>1885</ele>
        <time>2024-05-11T12:35:32.000Z</time>
      </trkpt>
      <trkpt lat="44.84748" lon="5.52008">
        <ele>1884.1</ele>
        <time>2024-05-11T12:35:38.000Z</time>
      </trkpt>
      <trkpt lat="44.8475" lon="5.52012">
        <ele>1883.3</ele>
        <time>2024-05-11T12:35:42.000Z</time>
      </trkpt>
      <trkpt lat="44.8475" lon="5.52013">
        <ele>1883.2</ele>
        <time>2024-05-11T12:35:43.000Z</time>
      </trkpt>
      <trkpt lat="44.84753" lon="5.52017">
        <ele>1883.5</ele>
        <time>2024-05-11T12:35:49.000Z</time>
      </trkpt>
      <trkpt lat="44.84755" lon="5.52019">
        <ele>1883.7</ele>
        <time>2024-05-11T12:35:51.000Z</time>
      </trkpt>
      <trkpt lat="44.84757" lon="5.52022">
        <ele>1883.5</ele>
        <time>2024-05-11T12:35:54.000Z</time>
      </trkpt>
      <trkpt lat="44.84759" lon="5.52026">
        <ele>1882.9</ele>
        <time>2024-05-11T12:35:59.000Z</time>
      </trkpt>
      <trkpt lat="44.84759" lon="5.52027">
        <ele>1882.9</ele>
        <time>2024-05-11T12:36:00.000Z</time>
      </trkpt>
      <trkpt lat="44.8476" lon="5.52029">
        <ele>1882.8</ele>
        <time>2024-05-11T12:36:06.000Z</time>
      </trkpt>
      <trkpt lat="44.8476" lon="5.52028">
        <ele>1882.7</ele>
        <time>2024-05-11T12:36:10.000Z</time>
      </trkpt>
      <trkpt lat="44.84761" lon="5.52031">
        <ele>1883.2</ele>
        <time>2024-05-11T12:36:15.000Z</time>
      </trkpt>
      <trkpt lat="44.84764" lon="5.52035">
        <ele>1883.5</ele>
        <time>2024-05-11T12:36:21.000Z</time>
      </trkpt>
      <trkpt lat="44.84764" lon="5.5204">
        <ele>1883.9</ele>
        <time>2024-05-11T12:36:24.000Z</time>
      </trkpt>
      <trkpt lat="44.84765" lon="5.52043">
        <ele>1883.7</ele>
        <time>2024-05-11T12:36:27.000Z</time>
      </trkpt>
      <trkpt lat="44.84767" lon="5.52045">
        <ele>1883.1</ele>
        <time>2024-05-11T12:36:33.000Z</time>
      </trkpt>
      <trkpt lat="44.8477" lon="5.52044">
        <ele>1882.3</ele>
        <time>2024-05-11T12:36:41.000Z</time>
      </trkpt>
      <trkpt lat="44.84772" lon="5.52047">
        <ele>1881.5</ele>
        <time>2024-05-11T12:36:45.000Z</time>
      </trkpt>
      <trkpt lat="44.84772" lon="5.52049">
        <ele>1881.4</ele>
        <time>2024-05-11T12:36:46.000Z</time>
      </trkpt>
      <trkpt lat="44.84773" lon="5.52054">
        <ele>1880.1</ele>
        <time>2024-05-11T12:36:52.000Z</time>
      </trkpt>
      <trkpt lat="44.84777" lon="5.52057">
        <ele>1878.3</ele>
        <time>2024-05-11T12:36:57.000Z</time>
      </trkpt>
      <trkpt lat="44.84781" lon="5.5206">
        <ele>1878.6</ele>
        <time>2024-05-11T12:37:02.000Z</time>
      </trkpt>
      <trkpt lat="44.84787" lon="5.52063">
        <ele>1878.7</ele>
        <time>2024-05-11T12:37:09.000Z</time>
      </trkpt>
      <trkpt lat="44.84787" lon="5.52064">
        <ele>1878.9</ele>
        <time>2024-05-11T12:37:12.000Z</time>
      </trkpt>
      <trkpt lat="44.84788" lon="5.52064">
        <ele>1878.9</ele>
        <time>2024-05-11T12:37:14.000Z</time>
      </trkpt>
      <trkpt lat="44.84789" lon="5.52065">
        <ele>1878.8</ele>
        <time>2024-05-11T12:37:19.000Z</time>
      </trkpt>
      <trkpt lat="44.84791" lon="5.52066">
        <ele>1878.5</ele>
        <time>2024-05-11T12:37:24.000Z</time>
      </trkpt>
      <trkpt lat="44.84792" lon="5.52066">
        <ele>1878.3</ele>
        <time>2024-05-11T12:37:35.000Z</time>
      </trkpt>
      <trkpt lat="44.84796" lon="5.52067">
        <ele>1877.7</ele>
        <time>2024-05-11T12:37:38.000Z</time>
      </trkpt>
      <trkpt lat="44.84799" lon="5.52068">
        <ele>1876.9</ele>
        <time>2024-05-11T12:37:42.000Z</time>
      </trkpt>
      <trkpt lat="44.84798" lon="5.52069">
        <ele>1877</ele>
        <time>2024-05-11T12:37:45.000Z</time>
      </trkpt>
      <trkpt lat="44.84798" lon="5.52069">
        <ele>1877</ele>
        <time>2024-05-11T12:37:46.000Z</time>
      </trkpt>
      <trkpt lat="44.84795" lon="5.52073">
        <ele>1877.9</ele>
        <time>2024-05-11T12:37:51.000Z</time>
      </trkpt>
      <trkpt lat="44.84798" lon="5.52077">
        <ele>1876.8</ele>
        <time>2024-05-11T12:37:55.000Z</time>
      </trkpt>
      <trkpt lat="44.848" lon="5.52079">
        <ele>1875.7</ele>
        <time>2024-05-11T12:37:57.000Z</time>
      </trkpt>
      <trkpt lat="44.84804" lon="5.52083">
        <ele>1873.1</ele>
        <time>2024-05-11T12:38:00.000Z</time>
      </trkpt>
      <trkpt lat="44.84809" lon="5.5209">
        <ele>1874.6</ele>
        <time>2024-05-11T12:38:06.000Z</time>
      </trkpt>
      <trkpt lat="44.84809" lon="5.52091">
        <ele>1874.8</ele>
        <time>2024-05-11T12:38:07.000Z</time>
      </trkpt>
      <trkpt lat="44.84814" lon="5.52097">
        <ele>1876</ele>
        <time>2024-05-11T12:38:14.000Z</time>
      </trkpt>
      <trkpt lat="44.84816" lon="5.52099">
        <ele>1876</ele>
        <time>2024-05-11T12:38:17.000Z</time>
      </trkpt>
      <trkpt lat="44.84817" lon="5.52101">
        <ele>1876</ele>
        <time>2024-05-11T12:38:19.000Z</time>
      </trkpt>
      <trkpt lat="44.84819" lon="5.52104">
        <ele>1875.7</ele>
        <time>2024-05-11T12:38:24.000Z</time>
      </trkpt>
      <trkpt lat="44.8482" lon="5.52108">
        <ele>1875.3</ele>
        <time>2024-05-11T12:38:27.000Z</time>
      </trkpt>
      <trkpt lat="44.84822" lon="5.52112">
        <ele>1874.7</ele>
        <time>2024-05-11T12:38:30.000Z</time>
      </trkpt>
      <trkpt lat="44.84825" lon="5.52114">
        <ele>1873.5</ele>
        <time>2024-05-11T12:38:33.000Z</time>
      </trkpt>
      <trkpt lat="44.84826" lon="5.52117">
        <ele>1872.9</ele>
        <time>2024-05-11T12:38:35.000Z</time>
      </trkpt>
      <trkpt lat="44.84826" lon="5.5212">
        <ele>1872.8</ele>
        <time>2024-05-11T12:38:37.000Z</time>
      </trkpt>
      <trkpt lat="44.84829" lon="5.52124">
        <ele>1870.8</ele>
        <time>2024-05-11T12:38:42.000Z</time>
      </trkpt>
      <trkpt lat="44.8483" lon="5.52126">
        <ele>1870.4</ele>
        <time>2024-05-11T12:38:44.000Z</time>
      </trkpt>
      <trkpt lat="44.8483" lon="5.52129">
        <ele>1869.8</ele>
        <time>2024-05-11T12:38:47.000Z</time>
      </trkpt>
      <trkpt lat="44.84833" lon="5.52132">
        <ele>1867.4</ele>
        <time>2024-05-11T12:38:51.000Z</time>
      </trkpt>
      <trkpt lat="44.84833" lon="5.52133">
        <ele>1866.9</ele>
        <time>2024-05-11T12:38:52.000Z</time>
      </trkpt>
      <trkpt lat="44.84838" lon="5.5214">
        <ele>1866.8</ele>
        <time>2024-05-11T12:38:59.000Z</time>
      </trkpt>
      <trkpt lat="44.84839" lon="5.5214">
        <ele>1867</ele>
        <time>2024-05-11T12:39:00.000Z</time>
      </trkpt>
      <trkpt lat="44.84843" lon="5.52146">
        <ele>1868.2</ele>
        <time>2024-05-11T12:39:07.000Z</time>
      </trkpt>
      <trkpt lat="44.84844" lon="5.52147">
        <ele>1868.2</ele>
        <time>2024-05-11T12:39:08.000Z</time>
      </trkpt>
      <trkpt lat="44.84847" lon="5.5215">
        <ele>1868.2</ele>
        <time>2024-05-11T12:39:12.000Z</time>
      </trkpt>
      <trkpt lat="44.84848" lon="5.5215">
        <ele>1868.1</ele>
        <time>2024-05-11T12:39:13.000Z</time>
      </trkpt>
      <trkpt lat="44.84851" lon="5.52153">
        <ele>1867.3</ele>
        <time>2024-05-11T12:39:18.000Z</time>
      </trkpt>
      <trkpt lat="44.84852" lon="5.52154">
        <ele>1867.1</ele>
        <time>2024-05-11T12:39:19.000Z</time>
      </trkpt>
      <trkpt lat="44.84854" lon="5.52156">
        <ele>1866.3</ele>
        <time>2024-05-11T12:39:22.000Z</time>
      </trkpt>
      <trkpt lat="44.84857" lon="5.52159">
        <ele>1864.9</ele>
        <time>2024-05-11T12:39:26.000Z</time>
      </trkpt>
      <trkpt lat="44.84857" lon="5.5216">
        <ele>1864.6</ele>
        <time>2024-05-11T12:39:27.000Z</time>
      </trkpt>
      <trkpt lat="44.84861" lon="5.52159">
        <ele>1863.3</ele>
        <time>2024-05-11T12:39:32.000Z</time>
      </trkpt>
      <trkpt lat="44.84864" lon="5.52155">
        <ele>1865</ele>
        <time>2024-05-11T12:39:36.000Z</time>
      </trkpt>
      <trkpt lat="44.84861" lon="5.52157">
        <ele>1863.7</ele>
        <time>2024-05-11T12:39:39.000Z</time>
      </trkpt>
      <trkpt lat="44.84864" lon="5.52164">
        <ele>1862.5</ele>
        <time>2024-05-11T12:39:44.000Z</time>
      </trkpt>
      <trkpt lat="44.84867" lon="5.52168">
        <ele>1862.5</ele>
        <time>2024-05-11T12:39:50.000Z</time>
      </trkpt>
      <trkpt lat="44.84871" lon="5.52173">
        <ele>1863.6</ele>
        <time>2024-05-11T12:39:56.000Z</time>
      </trkpt>
      <trkpt lat="44.84876" lon="5.52176">
        <ele>1863.8</ele>
        <time>2024-05-11T12:40:02.000Z</time>
      </trkpt>
      <trkpt lat="44.84878" lon="5.52177">
        <ele>1863.8</ele>
        <time>2024-05-11T12:40:04.000Z</time>
      </trkpt>
      <trkpt lat="44.8488" lon="5.52181">
        <ele>1863.3</ele>
        <time>2024-05-11T12:40:09.000Z</time>
      </trkpt>
      <trkpt lat="44.84881" lon="5.52182">
        <ele>1862.9</ele>
        <time>2024-05-11T12:40:11.000Z</time>
      </trkpt>
      <trkpt lat="44.84883" lon="5.52187">
        <ele>1861.8</ele>
        <time>2024-05-11T12:40:15.000Z</time>
      </trkpt>
      <trkpt lat="44.84884" lon="5.52188">
        <ele>1861.5</ele>
        <time>2024-05-11T12:40:16.000Z</time>
      </trkpt>
      <trkpt lat="44.84887" lon="5.52192">
        <ele>1859.4</ele>
        <time>2024-05-11T12:40:22.000Z</time>
      </trkpt>
      <trkpt lat="44.84888" lon="5.52195">
        <ele>1858.3</ele>
        <time>2024-05-11T12:40:26.000Z</time>
      </trkpt>
      <trkpt lat="44.84888" lon="5.52195">
        <ele>1858.3</ele>
        <time>2024-05-11T12:40:28.000Z</time>
      </trkpt>
      <trkpt lat="44.84889" lon="5.52195">
        <ele>1858.3</ele>
        <time>2024-05-11T12:40:31.000Z</time>
      </trkpt>
      <trkpt lat="44.84892" lon="5.52199">
        <ele>1859</ele>
        <time>2024-05-11T12:40:37.000Z</time>
      </trkpt>
      <trkpt lat="44.84893" lon="5.52199">
        <ele>1859.1</ele>
        <time>2024-05-11T12:40:39.000Z</time>
      </trkpt>
      <trkpt lat="44.84895" lon="5.52199">
        <ele>1859.1</ele>
        <time>2024-05-11T12:40:42.000Z</time>
      </trkpt>
      <trkpt lat="44.84896" lon="5.52199">
        <ele>1859.1</ele>
        <time>2024-05-11T12:40:45.000Z</time>
      </trkpt>
      <trkpt lat="44.84897" lon="5.52201">
        <ele>1859.3</ele>
        <time>2024-05-11T12:40:48.000Z</time>
      </trkpt>
      <trkpt lat="44.84899" lon="5.52203">
        <ele>1859.3</ele>
        <time>2024-05-11T12:40:50.000Z</time>
      </trkpt>
      <trkpt lat="44.84901" lon="5.52205">
        <ele>1859.1</ele>
        <time>2024-05-11T12:40:52.000Z</time>
      </trkpt>
      <trkpt lat="44.84901" lon="5.52205">
        <ele>1859.1</ele>
        <time>2024-05-11T12:40:53.000Z</time>
      </trkpt>
      <trkpt lat="44.84904" lon="5.52207">
        <ele>1858.7</ele>
        <time>2024-05-11T12:40:57.000Z</time>
      </trkpt>
      <trkpt lat="44.84909" lon="5.52209">
        <ele>1857.7</ele>
        <time>2024-05-11T12:41:05.000Z</time>
      </trkpt>
      <trkpt lat="44.84908" lon="5.52214">
        <ele>1857</ele>
        <time>2024-05-11T12:41:11.000Z</time>
      </trkpt>
      <trkpt lat="44.84912" lon="5.52216">
        <ele>1855.4</ele>
        <time>2024-05-11T12:41:16.000Z</time>
      </trkpt>
      <trkpt lat="44.84916" lon="5.52223">
        <ele>1852.2</ele>
        <time>2024-05-11T12:41:22.000Z</time>
      </trkpt>
      <trkpt lat="44.84917" lon="5.52224">
        <ele>1852.1</ele>
        <time>2024-05-11T12:41:23.000Z</time>
      </trkpt>
      <trkpt lat="44.84923" lon="5.52229">
        <ele>1853.1</ele>
        <time>2024-05-11T12:41:29.000Z</time>
      </trkpt>
      <trkpt lat="44.84921" lon="5.52234">
        <ele>1852.4</ele>
        <time>2024-05-11T12:41:33.000Z</time>
      </trkpt>
      <trkpt lat="44.84921" lon="5.52234">
        <ele>1852.3</ele>
        <time>2024-05-11T12:41:34.000Z</time>
      </trkpt>
      <trkpt lat="44.84923" lon="5.52238">
        <ele>1852</ele>
        <time>2024-05-11T12:41:40.000Z</time>
      </trkpt>
      <trkpt lat="44.84924" lon="5.52237">
        <ele>1852.1</ele>
        <time>2024-05-11T12:41:41.000Z</time>
      </trkpt>
      <trkpt lat="44.84925" lon="5.52236">
        <ele>1852.4</ele>
        <time>2024-05-11T12:41:46.000Z</time>
      </trkpt>
      <trkpt lat="44.84925" lon="5.52236">
        <ele>1852.4</ele>
        <time>2024-05-11T12:41:49.000Z</time>
      </trkpt>
      <trkpt lat="44.84925" lon="5.52236">
        <ele>1852.3</ele>
        <time>2024-05-11T12:41:51.000Z</time>
      </trkpt>
      <trkpt lat="44.84923" lon="5.52239">
        <ele>1851.8</ele>
        <time>2024-05-11T12:41:56.000Z</time>
      </trkpt>
      <trkpt lat="44.84923" lon="5.5224">
        <ele>1851.8</ele>
        <time>2024-05-11T12:41:58.000Z</time>
      </trkpt>
      <trkpt lat="44.84923" lon="5.52243">
        <ele>1851.5</ele>
        <time>2024-05-11T12:42:03.000Z</time>
      </trkpt>
      <trkpt lat="44.84925" lon="5.5225">
        <ele>1850.3</ele>
        <time>2024-05-11T12:42:22.883Z</time>
        <extensions>
          <visugpx:TrkExtension xmlns:visugpx="https://www.visugpx.com/editgpx/">
            <visugpx:node>6</visugpx:node>
            </visugpx:TrkExtension>
        </extensions>
      </trkpt>
      <trkpt lat="44.84926" lon="5.5225">
        <ele>1850</ele>
        <time>2024-05-11T12:42:27.291Z</time>
      </trkpt>
      <trkpt lat="44.84926" lon="5.52254">
        <ele>1850.9</ele>
        <time>2024-05-11T12:42:37.397Z</time>
      </trkpt>
      <trkpt lat="44.84933" lon="5.52261">
        <ele>1849.9</ele>
        <time>2024-05-11T12:43:07.977Z</time>
      </trkpt>
      <trkpt lat="44.84938" lon="5.52264">
        <ele>1848.2</ele>
        <time>2024-05-11T12:43:27.341Z</time>
      </trkpt>
      <trkpt lat="44.84941" lon="5.52263">
        <ele>1846.9</ele>
        <time>2024-05-11T12:43:38.327Z</time>
      </trkpt>
      <trkpt lat="44.84944" lon="5.52265">
        <ele>1845.7</ele>
        <time>2024-05-11T12:43:50.152Z</time>
      </trkpt>
      <trkpt lat="44.84946" lon="5.52267">
        <ele>1845</ele>
        <time>2024-05-11T12:43:58.889Z</time>
      </trkpt>
      <trkpt lat="44.84949" lon="5.52272">
        <ele>1843.6</ele>
        <time>2024-05-11T12:44:15.439Z</time>
      </trkpt>
      <trkpt lat="44.84953" lon="5.5228">
        <ele>1841.8</ele>
        <time>2024-05-11T12:44:40.173Z</time>
      </trkpt>
      <trkpt lat="44.84959" lon="5.52287">
        <ele>1840.3</ele>
        <time>2024-05-11T12:45:07.922Z</time>
      </trkpt>
      <trkpt lat="44.84965" lon="5.52293">
        <ele>1838.1</ele>
        <time>2024-05-11T12:45:34.133Z</time>
      </trkpt>
      <trkpt lat="44.84968" lon="5.52295">
        <ele>1836.6</ele>
        <time>2024-05-11T12:45:45.958Z</time>
      </trkpt>
      <trkpt lat="44.8497" lon="5.52297">
        <ele>1835.7</ele>
        <time>2024-05-11T12:45:54.695Z</time>
      </trkpt>
      <trkpt lat="44.84971" lon="5.52296">
        <ele>1835</ele>
        <time>2024-05-11T12:45:59.063Z</time>
      </trkpt>
      <trkpt lat="44.84972" lon="5.52294">
        <ele>1834.3</ele>
        <time>2024-05-11T12:46:05.246Z</time>
      </trkpt>
      <trkpt lat="44.84972" lon="5.5229">
        <ele>1834</ele>
        <time>2024-05-11T12:46:15.352Z</time>
      </trkpt>
      <trkpt lat="44.84972" lon="5.52288">
        <ele>1833.8</ele>
        <time>2024-05-11T12:46:20.405Z</time>
      </trkpt>
      <trkpt lat="44.84974" lon="5.52287">
        <ele>1832.8</ele>
        <time>2024-05-11T12:46:27.967Z</time>
      </trkpt>
      <trkpt lat="44.84976" lon="5.5229">
        <ele>1831.9</ele>
        <time>2024-05-11T12:46:38.371Z</time>
      </trkpt>
      <trkpt lat="44.84977" lon="5.5229">
        <ele>1831.4</ele>
        <time>2024-05-11T12:46:41.934Z</time>
      </trkpt>
      <trkpt lat="44.84977" lon="5.52288">
        <ele>1831.3</ele>
        <time>2024-05-11T12:46:46.987Z</time>
      </trkpt>
      <trkpt lat="44.84977" lon="5.52287">
        <ele>1831.3</ele>
        <time>2024-05-11T12:46:49.513Z</time>
      </trkpt>
      <trkpt lat="44.84979" lon="5.52286">
        <ele>1830.2</ele>
        <time>2024-05-11T12:46:57.075Z</time>
      </trkpt>
      <trkpt lat="44.84981" lon="5.52288">
        <ele>1829.2</ele>
        <time>2024-05-11T12:47:05.812Z</time>
      </trkpt>
      <trkpt lat="44.84984" lon="5.52291">
        <ele>1827.7</ele>
        <time>2024-05-11T12:47:18.918Z</time>
      </trkpt>
      <trkpt lat="44.84987" lon="5.52293">
        <ele>1826</ele>
        <time>2024-05-11T12:47:30.743Z</time>
      </trkpt>
      <trkpt lat="44.84991" lon="5.52293">
        <ele>1823.8</ele>
        <time>2024-05-11T12:47:44.998Z</time>
      </trkpt>
      <trkpt lat="44.84994" lon="5.52295">
        <ele>1821.9</ele>
        <time>2024-05-11T12:47:56.823Z</time>
      </trkpt>
      <trkpt lat="44.84997" lon="5.52297">
        <ele>1820</ele>
        <time>2024-05-11T12:48:08.648Z</time>
      </trkpt>
      <trkpt lat="44.85002" lon="5.52305">
        <ele>1816.2</ele>
        <time>2024-05-11T12:48:35.594Z</time>
      </trkpt>
      <trkpt lat="44.8501" lon="5.52314">
        <ele>1813.1</ele>
        <time>2024-05-11T12:49:12.063Z</time>
      </trkpt>
      <trkpt lat="44.85016" lon="5.52322">
        <ele>1810.5</ele>
        <time>2024-05-11T12:49:41.488Z</time>
      </trkpt>
      <trkpt lat="44.85018" lon="5.52307">
        <ele>1808.6</ele>
        <time>2024-05-11T12:50:20.052Z</time>
      </trkpt>
      <trkpt lat="44.85019" lon="5.52305">
        <ele>1808.3</ele>
        <time>2024-05-11T12:50:26.235Z</time>
      </trkpt>
      <trkpt lat="44.85021" lon="5.52305">
        <ele>1807.3</ele>
        <time>2024-05-11T12:50:33.362Z</time>
      </trkpt>
      <trkpt lat="44.85024" lon="5.52306">
        <ele>1805.8</ele>
        <time>2024-05-11T12:50:44.348Z</time>
      </trkpt>
      <trkpt lat="44.85025" lon="5.52308">
        <ele>1805.3</ele>
        <time>2024-05-11T12:50:50.531Z</time>
        <extensions>
          <visugpx:TrkExtension xmlns:visugpx="https://www.visugpx.com/editgpx/">
            <visugpx:node>7</visugpx:node>
            </visugpx:TrkExtension>
        </extensions>
      </trkpt>
      <trkpt lat="44.85028" lon="5.52317">
        <ele>1803.9</ele>
        <time>2024-05-11T12:51:15.659Z</time>
      </trkpt>
      <trkpt lat="44.8503" lon="5.52312">
        <ele>1803.3</ele>
        <time>2024-05-11T12:51:30.164Z</time>
      </trkpt>
      <trkpt lat="44.85031" lon="5.52312">
        <ele>1802.9</ele>
        <time>2024-05-11T12:51:33.727Z</time>
      </trkpt>
      <trkpt lat="44.85033" lon="5.52309">
        <ele>1802.5</ele>
        <time>2024-05-11T12:51:44.132Z</time>
      </trkpt>
      <trkpt lat="44.85034" lon="5.5231">
        <ele>1802.1</ele>
        <time>2024-05-11T12:51:48.500Z</time>
      </trkpt>
      <trkpt lat="44.85035" lon="5.52312">
        <ele>1801.6</ele>
        <time>2024-05-11T12:51:54.683Z</time>
      </trkpt>
      <trkpt lat="44.85036" lon="5.52314">
        <ele>1801</ele>
        <time>2024-05-11T12:52:00.866Z</time>
      </trkpt>
      <trkpt lat="44.85037" lon="5.52316">
        <ele>1800.4</ele>
        <time>2024-05-11T12:52:07.049Z</time>
      </trkpt>
      <trkpt lat="44.85039" lon="5.52317">
        <ele>1799.5</ele>
        <time>2024-05-11T12:52:14.611Z</time>
      </trkpt>
      <trkpt lat="44.8504" lon="5.52318">
        <ele>1798.9</ele>
        <time>2024-05-11T12:52:18.979Z</time>
      </trkpt>
      <trkpt lat="44.8504" lon="5.5232">
        <ele>1798.6</ele>
        <time>2024-05-11T12:52:24.032Z</time>
      </trkpt>
      <trkpt lat="44.8504" lon="5.52322">
        <ele>1798.3</ele>
        <time>2024-05-11T12:52:29.085Z</time>
      </trkpt>
      <trkpt lat="44.85042" lon="5.52327">
        <ele>1796.5</ele>
        <time>2024-05-11T12:52:43.590Z</time>
      </trkpt>
      <trkpt lat="44.85044" lon="5.52328">
        <ele>1795.2</ele>
        <time>2024-05-11T12:52:51.152Z</time>
      </trkpt>
      <trkpt lat="44.85046" lon="5.52328">
        <ele>1794.1</ele>
        <time>2024-05-11T12:52:58.280Z</time>
      </trkpt>
      <trkpt lat="44.85049" lon="5.52328">
        <ele>1792.5</ele>
        <time>2024-05-11T12:53:08.972Z</time>
      </trkpt>
      <trkpt lat="44.8505" lon="5.52328">
        <ele>1791.9</ele>
        <time>2024-05-11T12:53:12.536Z</time>
      </trkpt>
      <trkpt lat="44.85051" lon="5.52327">
        <ele>1791.7</ele>
        <time>2024-05-11T12:53:16.904Z</time>
      </trkpt>
      <trkpt lat="44.85053" lon="5.52328">
        <ele>1790.3</ele>
        <time>2024-05-11T12:53:24.466Z</time>
      </trkpt>
      <trkpt lat="44.85054" lon="5.52331">
        <ele>1788.7</ele>
        <time>2024-05-11T12:53:32.842Z</time>
      </trkpt>
      <trkpt lat="44.85055" lon="5.52333">
        <ele>1787.5</ele>
        <time>2024-05-11T12:53:39.025Z</time>
      </trkpt>
      <trkpt lat="44.85056" lon="5.52334">
        <ele>1786.9</ele>
        <time>2024-05-11T12:53:43.393Z</time>
      </trkpt>
      <trkpt lat="44.85057" lon="5.52334">
        <ele>1786.8</ele>
        <time>2024-05-11T12:53:46.957Z</time>
      </trkpt>
      <trkpt lat="44.85059" lon="5.52333">
        <ele>1786.9</ele>
        <time>2024-05-11T12:53:54.519Z</time>
      </trkpt>
      <trkpt lat="44.8506" lon="5.52333">
        <ele>1786.8</ele>
        <time>2024-05-11T12:53:58.083Z</time>
      </trkpt>
      <trkpt lat="44.85061" lon="5.52335">
        <ele>1786.4</ele>
        <time>2024-05-11T12:54:04.266Z</time>
      </trkpt>
      <trkpt lat="44.85061" lon="5.5234">
        <ele>1785.7</ele>
        <time>2024-05-11T12:54:16.899Z</time>
      </trkpt>
      <trkpt lat="44.85064" lon="5.52345">
        <ele>1784.3</ele>
        <time>2024-05-11T12:54:33.450Z</time>
      </trkpt>
      <trkpt lat="44.85065" lon="5.52352">
        <ele>1782.7</ele>
        <time>2024-05-11T12:54:51.492Z</time>
      </trkpt>
      <trkpt lat="44.85066" lon="5.52361">
        <ele>1780.5</ele>
        <time>2024-05-11T12:55:14.510Z</time>
      </trkpt>
      <trkpt lat="44.85069" lon="5.52366">
        <ele>1779.1</ele>
        <time>2024-05-11T12:55:31.061Z</time>
      </trkpt>
      <trkpt lat="44.85075" lon="5.52375">
        <ele>1775.3</ele>
        <time>2024-05-11T12:56:02.277Z</time>
      </trkpt>
      <trkpt lat="44.8508" lon="5.52383">
        <ele>1770.8</ele>
        <time>2024-05-11T12:56:29.224Z</time>
      </trkpt>
      <trkpt lat="44.85087" lon="5.52394">
        <ele>1766.9</ele>
        <time>2024-05-11T12:57:06.573Z</time>
      </trkpt>
      <trkpt lat="44.85105" lon="5.52398">
        <ele>1761.6</ele>
        <time>2024-05-11T12:58:11.519Z</time>
      </trkpt>
      <trkpt lat="44.85109" lon="5.52394">
        <ele>1761.7</ele>
        <time>2024-05-11T12:58:28.995Z</time>
      </trkpt>
      <trkpt lat="44.85108" lon="5.52392">
        <ele>1762.6</ele>
        <time>2024-05-11T12:58:35.631Z</time>
        <extensions>
          <visugpx:TrkExtension xmlns:visugpx="https://www.visugpx.com/editgpx/">
            <visugpx:node>8</visugpx:node>
            </visugpx:TrkExtension>
        </extensions>
      </trkpt>
      <trkpt lat="44.85109" lon="5.52393">
        <ele>1762.1</ele>
        <time>2024-05-11T12:58:39.000Z</time>
      </trkpt>
      <trkpt lat="44.85109" lon="5.52394">
        <ele>1761.5</ele>
        <time>2024-05-11T12:58:40.000Z</time>
      </trkpt>
      <trkpt lat="44.85123" lon="5.52406">
        <ele>1755.9</ele>
        <time>2024-05-11T12:59:07.105Z</time>
        <extensions>
          <visugpx:TrkExtension xmlns:visugpx="https://www.visugpx.com/editgpx/">
            <visugpx:node>9</visugpx:node>
            </visugpx:TrkExtension>
        </extensions>
      </trkpt>
      <trkpt lat="44.85122" lon="5.52408">
        <ele>1755.3</ele>
        <time>2024-05-11T12:59:09.582Z</time>
      </trkpt>
      <trkpt lat="44.85122" lon="5.52408">
        <ele>1755.3</ele>
        <time>2024-05-11T12:59:09.582Z</time>
      </trkpt>
      <trkpt lat="44.85128" lon="5.52411">
        <ele>1753.6</ele>
        <time>2024-05-11T12:59:20.364Z</time>
        <extensions>
          <visugpx:TrkExtension xmlns:visugpx="https://www.visugpx.com/editgpx/">
            <visugpx:node>10</visugpx:node>
            </visugpx:TrkExtension>
        </extensions>
      </trkpt>
      <trkpt lat="44.8513" lon="5.52412">
        <ele>1753</ele>
        <time>2024-05-11T12:59:23.958Z</time>
      </trkpt>
      <trkpt lat="44.85134" lon="5.52415">
        <ele>1751.3</ele>
        <time>2024-05-11T12:59:31.632Z</time>
      </trkpt>
      <trkpt lat="44.85134" lon="5.52415">
        <ele>1751.1</ele>
        <time>2024-05-11T12:59:32.113Z</time>
        <extensions>
          <visugpx:TrkExtension xmlns:visugpx="https://www.visugpx.com/editgpx/">
            <visugpx:node>11</visugpx:node>
            </visugpx:TrkExtension>
        </extensions>
      </trkpt>
      <trkpt lat="44.85134" lon="5.52417">
        <ele>1750.4</ele>
        <time>2024-05-11T12:59:34.000Z</time>
      </trkpt>
      <trkpt lat="44.85136" lon="5.52419">
        <ele>1749.5</ele>
        <time>2024-05-11T12:59:38.000Z</time>
      </trkpt>
      <trkpt lat="44.85136" lon="5.52417">
        <ele>1750.1</ele>
        <time>2024-05-11T12:59:39.000Z</time>
      </trkpt>
      <trkpt lat="44.85138" lon="5.52418">
        <ele>1749.7</ele>
        <time>2024-05-11T12:59:42.000Z</time>
      </trkpt>
      <trkpt lat="44.85139" lon="5.52419">
        <ele>1748.9</ele>
        <time>2024-05-11T12:59:44.000Z</time>
      </trkpt>
      <trkpt lat="44.85142" lon="5.5242">
        <ele>1748.1</ele>
        <time>2024-05-11T12:59:46.000Z</time>
      </trkpt>
      <trkpt lat="44.85144" lon="5.52423">
        <ele>1747</ele>
        <time>2024-05-11T12:59:48.000Z</time>
      </trkpt>
      <trkpt lat="44.85146" lon="5.52423">
        <ele>1746.6</ele>
        <time>2024-05-11T12:59:49.000Z</time>
      </trkpt>
      <trkpt lat="44.85147" lon="5.52425">
        <ele>1745.9</ele>
        <time>2024-05-11T12:59:50.000Z</time>
      </trkpt>
      <trkpt lat="44.85148" lon="5.52431">
        <ele>1743.2</ele>
        <time>2024-05-11T12:59:53.000Z</time>
      </trkpt>
      <trkpt lat="44.85154" lon="5.52427">
        <ele>1744.7</ele>
        <time>2024-05-11T12:59:59.000Z</time>
      </trkpt>
      <trkpt lat="44.85156" lon="5.52428">
        <ele>1744.3</ele>
        <time>2024-05-11T13:00:01.000Z</time>
      </trkpt>
      <trkpt lat="44.85156" lon="5.52428">
        <ele>1744.1</ele>
        <time>2024-05-11T13:00:05.000Z</time>
      </trkpt>
      <trkpt lat="44.85158" lon="5.52428">
        <ele>1743.8</ele>
        <time>2024-05-11T13:00:07.000Z</time>
      </trkpt>
      <trkpt lat="44.85159" lon="5.5243">
        <ele>1742.9</ele>
        <time>2024-05-11T13:00:09.000Z</time>
      </trkpt>
      <trkpt lat="44.85159" lon="5.52432">
        <ele>1742.1</ele>
        <time>2024-05-11T13:00:13.000Z</time>
      </trkpt>
      <trkpt lat="44.85158" lon="5.52433">
        <ele>1741.6</ele>
        <time>2024-05-11T13:00:16.000Z</time>
      </trkpt>
      <trkpt lat="44.85159" lon="5.52435">
        <ele>1740.9</ele>
        <time>2024-05-11T13:00:19.000Z</time>
      </trkpt>
      <trkpt lat="44.85161" lon="5.52436">
        <ele>1740.1</ele>
        <time>2024-05-11T13:00:20.000Z</time>
      </trkpt>
      <trkpt lat="44.85162" lon="5.52439">
        <ele>1738.8</ele>
        <time>2024-05-11T13:00:25.000Z</time>
      </trkpt>
      <trkpt lat="44.8516" lon="5.52441">
        <ele>1738</ele>
        <time>2024-05-11T13:00:29.000Z</time>
      </trkpt>
      <trkpt lat="44.8516" lon="5.52441">
        <ele>1738.1</ele>
        <time>2024-05-11T13:00:30.000Z</time>
      </trkpt>
      <trkpt lat="44.85165" lon="5.52441">
        <ele>1737.6</ele>
        <time>2024-05-11T13:00:35.000Z</time>
      </trkpt>
      <trkpt lat="44.85167" lon="5.52439">
        <ele>1738.6</ele>
        <time>2024-05-11T13:00:36.000Z</time>
      </trkpt>
      <trkpt lat="44.85169" lon="5.52439">
        <ele>1738.2</ele>
        <time>2024-05-11T13:00:38.000Z</time>
      </trkpt>
      <trkpt lat="44.8517" lon="5.52439">
        <ele>1738.2</ele>
        <time>2024-05-11T13:00:40.000Z</time>
      </trkpt>
      <trkpt lat="44.85171" lon="5.52434">
        <ele>1740.3</ele>
        <time>2024-05-11T13:00:42.000Z</time>
      </trkpt>
      <trkpt lat="44.85171" lon="5.52436">
        <ele>1739.6</ele>
        <time>2024-05-11T13:00:43.000Z</time>
      </trkpt>
      <trkpt lat="44.85169" lon="5.52439">
        <ele>1738.4</ele>
        <time>2024-05-11T13:00:45.000Z</time>
      </trkpt>
      <trkpt lat="44.85171" lon="5.5244">
        <ele>1737.7</ele>
        <time>2024-05-11T13:00:50.000Z</time>
      </trkpt>
      <trkpt lat="44.85173" lon="5.5244">
        <ele>1737.4</ele>
        <time>2024-05-11T13:00:51.000Z</time>
      </trkpt>
      <trkpt lat="44.85174" lon="5.5244">
        <ele>1737.2</ele>
        <time>2024-05-11T13:00:52.000Z</time>
      </trkpt>
      <trkpt lat="44.85176" lon="5.5244">
        <ele>1737.3</ele>
        <time>2024-05-11T13:00:54.000Z</time>
      </trkpt>
      <trkpt lat="44.85174" lon="5.52444">
        <ele>1735.2</ele>
        <time>2024-05-11T13:00:58.000Z</time>
      </trkpt>
      <trkpt lat="44.85173" lon="5.52445">
        <ele>1735.3</ele>
        <time>2024-05-11T13:01:03.000Z</time>
      </trkpt>
      <trkpt lat="44.85174" lon="5.52445">
        <ele>1734.8</ele>
        <time>2024-05-11T13:01:05.000Z</time>
      </trkpt>
      <trkpt lat="44.85175" lon="5.52445">
        <ele>1734.8</ele>
        <time>2024-05-11T13:01:06.868Z</time>
        <extensions>
          <visugpx:TrkExtension xmlns:visugpx="https://www.visugpx.com/editgpx/">
            <visugpx:node>12</visugpx:node>
            </visugpx:TrkExtension>
        </extensions>
      </trkpt>
      <trkpt lat="44.85175" lon="5.52444">
        <ele>1735.3</ele>
        <time>2024-05-11T13:01:09.130Z</time>
      </trkpt>
      <trkpt lat="44.85179" lon="5.52447">
        <ele>1733.5</ele>
        <time>2024-05-11T13:01:21.459Z</time>
      </trkpt>
      <trkpt lat="44.85187" lon="5.52452">
        <ele>1730.3</ele>
        <time>2024-05-11T13:01:45.273Z</time>
      </trkpt>
      <trkpt lat="44.85195" lon="5.52457">
        <ele>1727.1</ele>
        <time>2024-05-11T13:02:09.087Z</time>
      </trkpt>
      <trkpt lat="44.85196" lon="5.52458">
        <ele>1726.7</ele>
        <time>2024-05-11T13:02:11.473Z</time>
        <extensions>
          <visugpx:TrkExtension xmlns:visugpx="https://www.visugpx.com/editgpx/">
            <visugpx:node>13</visugpx:node>
            </visugpx:TrkExtension>
        </extensions>
      </trkpt>
      <trkpt lat="44.85196" lon="5.52457">
        <ele>1727</ele>
        <time>2024-05-11T13:02:12.952Z</time>
      </trkpt>
      <trkpt lat="44.85197" lon="5.52459">
        <ele>1725.9</ele>
        <time>2024-05-11T13:02:17.674Z</time>
      </trkpt>
      <trkpt lat="44.85199" lon="5.52462">
        <ele>1724.3</ele>
        <time>2024-05-11T13:02:25.619Z</time>
        <extensions>
          <visugpx:TrkExtension xmlns:visugpx="https://www.visugpx.com/editgpx/">
            <visugpx:node>14</visugpx:node>
            </visugpx:TrkExtension>
        </extensions>
      </trkpt>
      <trkpt lat="44.85199" lon="5.52462">
        <ele>1724.3</ele>
        <time>2024-05-11T13:02:25.619Z</time>
      </trkpt>
      <trkpt lat="44.85201" lon="5.52463">
        <ele>1723.6</ele>
        <time>2024-05-11T13:02:31.394Z</time>
      </trkpt>
      <trkpt lat="44.85206" lon="5.52467">
        <ele>1721.2</ele>
        <time>2024-05-11T13:02:47.038Z</time>
      </trkpt>
      <trkpt lat="44.85206" lon="5.52471">
        <ele>1719.3</ele>
        <time>2024-05-11T13:02:54.755Z</time>
      </trkpt>
      <trkpt lat="44.85206" lon="5.52474">
        <ele>1718</ele>
        <time>2024-05-11T13:03:00.543Z</time>
      </trkpt>
      <trkpt lat="44.85207" lon="5.52477">
        <ele>1716.5</ele>
        <time>2024-05-11T13:03:06.939Z</time>
      </trkpt>
      <trkpt lat="44.85207" lon="5.52477">
        <ele>1716.5</ele>
        <time>2024-05-11T13:03:06.939Z</time>
        <extensions>
          <visugpx:TrkExtension xmlns:visugpx="https://www.visugpx.com/editgpx/">
            <visugpx:node>15</visugpx:node>
            </visugpx:TrkExtension>
        </extensions>
      </trkpt>
      <trkpt lat="44.85207" lon="5.52477">
        <ele>1716.5</ele>
        <time>2024-05-11T13:03:06.939Z</time>
      </trkpt>
      <trkpt lat="44.85211" lon="5.52484">
        <ele>1712.9</ele>
        <time>2024-05-11T13:03:24.286Z</time>
      </trkpt>
      <trkpt lat="44.85218" lon="5.5249">
        <ele>1709.2</ele>
        <time>2024-05-11T13:03:46.579Z</time>
      </trkpt>
      <trkpt lat="44.85223" lon="5.52492">
        <ele>1707.6</ele>
        <time>2024-05-11T13:04:00.724Z</time>
      </trkpt>
      <trkpt lat="44.85228" lon="5.52494">
        <ele>1705.8</ele>
        <time>2024-05-11T13:04:14.869Z</time>
      </trkpt>
      <trkpt lat="44.8523" lon="5.52494">
        <ele>1705.4</ele>
        <time>2024-05-11T13:04:20.312Z</time>
      </trkpt>
      <trkpt lat="44.85232" lon="5.52496">
        <ele>1704.1</ele>
        <time>2024-05-11T13:04:26.984Z</time>
      </trkpt>
      <trkpt lat="44.85232" lon="5.52498">
        <ele>1703.2</ele>
        <time>2024-05-11T13:04:30.843Z</time>
      </trkpt>
      <trkpt lat="44.8523" lon="5.52501">
        <ele>1702.1</ele>
        <time>2024-05-11T13:04:38.789Z</time>
      </trkpt>
      <trkpt lat="44.85228" lon="5.52504">
        <ele>1701.1</ele>
        <time>2024-05-11T13:04:46.735Z</time>
      </trkpt>
      <trkpt lat="44.85227" lon="5.52506">
        <ele>1700.4</ele>
        <time>2024-05-11T13:04:51.457Z</time>
      </trkpt>
      <trkpt lat="44.85227" lon="5.52507">
        <ele>1699.9</ele>
        <time>2024-05-11T13:04:53.386Z</time>
      </trkpt>
      <trkpt lat="44.85228" lon="5.52508">
        <ele>1699.3</ele>
        <time>2024-05-11T13:04:56.722Z</time>
      </trkpt>
      <trkpt lat="44.85232" lon="5.5251">
        <ele>1697.7</ele>
        <time>2024-05-11T13:05:08.273Z</time>
      </trkpt>
      <trkpt lat="44.85241" lon="5.52513">
        <ele>1694.9</ele>
        <time>2024-05-11T13:05:33.444Z</time>
      </trkpt>
      <trkpt lat="44.85246" lon="5.52513">
        <ele>1694</ele>
        <time>2024-05-11T13:05:47.053Z</time>
      </trkpt>
      <trkpt lat="44.85248" lon="5.52514">
        <ele>1693.3</ele>
        <time>2024-05-11T13:05:52.828Z</time>
      </trkpt>
      <trkpt lat="44.85247" lon="5.52515">
        <ele>1692.8</ele>
        <time>2024-05-11T13:05:56.056Z</time>
        <extensions>
          <visugpx:TrkExtension xmlns:visugpx="https://www.visugpx.com/editgpx/">
            <visugpx:node>16</visugpx:node>
            </visugpx:TrkExtension>
        </extensions>
      </trkpt>
      <trkpt lat="44.85252" lon="5.52515">
        <ele>1692.1</ele>
        <time>2024-05-11T13:06:09.000Z</time>
      </trkpt>
      <trkpt lat="44.85254" lon="5.52515">
        <ele>1691.4</ele>
        <time>2024-05-11T13:06:10.000Z</time>
      </trkpt>
      <trkpt lat="44.85256" lon="5.52516">
        <ele>1690.7</ele>
        <time>2024-05-11T13:06:11.000Z</time>
      </trkpt>
      <trkpt lat="44.85258" lon="5.52519">
        <ele>1689</ele>
        <time>2024-05-11T13:06:13.000Z</time>
      </trkpt>
      <trkpt lat="44.85258" lon="5.52522">
        <ele>1687.9</ele>
        <time>2024-05-11T13:06:15.000Z</time>
      </trkpt>
      <trkpt lat="44.85262" lon="5.52525">
        <ele>1685.7</ele>
        <time>2024-05-11T13:06:17.000Z</time>
      </trkpt>
      <trkpt lat="44.85257" lon="5.52529">
        <ele>1685.2</ele>
        <time>2024-05-11T13:06:21.000Z</time>
      </trkpt>
      <trkpt lat="44.85256" lon="5.52529">
        <ele>1685.4</ele>
        <time>2024-05-11T13:06:23.000Z</time>
      </trkpt>
      <trkpt lat="44.8526" lon="5.52529">
        <ele>1684.4</ele>
        <time>2024-05-11T13:06:27.000Z</time>
      </trkpt>
      <trkpt lat="44.85262" lon="5.52529">
        <ele>1684</ele>
        <time>2024-05-11T13:06:28.000Z</time>
      </trkpt>
      <trkpt lat="44.85263" lon="5.5253">
        <ele>1683.5</ele>
        <time>2024-05-11T13:06:29.000Z</time>
      </trkpt>
      <trkpt lat="44.85262" lon="5.52532">
        <ele>1682.9</ele>
        <time>2024-05-11T13:06:32.000Z</time>
      </trkpt>
      <trkpt lat="44.85264" lon="5.52532">
        <ele>1682.5</ele>
        <time>2024-05-11T13:06:33.000Z</time>
      </trkpt>
      <trkpt lat="44.85265" lon="5.52535">
        <ele>1681.1</ele>
        <time>2024-05-11T13:06:35.000Z</time>
      </trkpt>
      <trkpt lat="44.85266" lon="5.52535">
        <ele>1680.9</ele>
        <time>2024-05-11T13:06:36.000Z</time>
      </trkpt>
      <trkpt lat="44.85268" lon="5.5253">
        <ele>1682.3</ele>
        <time>2024-05-11T13:06:37.000Z</time>
      </trkpt>
      <trkpt lat="44.85272" lon="5.52528">
        <ele>1682.1</ele>
        <time>2024-05-11T13:06:40.000Z</time>
      </trkpt>
      <trkpt lat="44.85269" lon="5.52531">
        <ele>1681.9</ele>
        <time>2024-05-11T13:06:42.000Z</time>
      </trkpt>
      <trkpt lat="44.85266" lon="5.52533">
        <ele>1681.6</ele>
        <time>2024-05-11T13:06:44.000Z</time>
      </trkpt>
      <trkpt lat="44.85268" lon="5.52533">
        <ele>1681.1</ele>
        <time>2024-05-11T13:06:45.000Z</time>
      </trkpt>
      <trkpt lat="44.85271" lon="5.52533">
        <ele>1680.6</ele>
        <time>2024-05-11T13:06:46.000Z</time>
      </trkpt>
      <trkpt lat="44.85271" lon="5.52542">
        <ele>1677.3</ele>
        <time>2024-05-11T13:06:50.000Z</time>
      </trkpt>
      <trkpt lat="44.85271" lon="5.52543">
        <ele>1676.7</ele>
        <time>2024-05-11T13:06:52.000Z</time>
      </trkpt>
      <trkpt lat="44.8528" lon="5.52542">
        <ele>1674.9</ele>
        <time>2024-05-11T13:06:56.000Z</time>
      </trkpt>
      <trkpt lat="44.8528" lon="5.52542">
        <ele>1675</ele>
        <time>2024-05-11T13:06:57.000Z</time>
      </trkpt>
      <trkpt lat="44.85282" lon="5.52541">
        <ele>1674.6</ele>
        <time>2024-05-11T13:07:01.000Z</time>
      </trkpt>
      <trkpt lat="44.85282" lon="5.5254">
        <ele>1674.6</ele>
        <time>2024-05-11T13:07:02.000Z</time>
      </trkpt>
      <trkpt lat="44.85285" lon="5.52538">
        <ele>1674.4</ele>
        <time>2024-05-11T13:07:07.000Z</time>
      </trkpt>
      <trkpt lat="44.85285" lon="5.52538">
        <ele>1674.4</ele>
        <time>2024-05-11T13:07:08.000Z</time>
      </trkpt>
      <trkpt lat="44.85286" lon="5.52539">
        <ele>1673.8</ele>
        <time>2024-05-11T13:07:12.000Z</time>
      </trkpt>
      <trkpt lat="44.85284" lon="5.52539">
        <ele>1674.4</ele>
        <time>2024-05-11T13:07:16.000Z</time>
      </trkpt>
      <trkpt lat="44.85284" lon="5.5254">
        <ele>1674</ele>
        <time>2024-05-11T13:07:21.000Z</time>
      </trkpt>
      <trkpt lat="44.85284" lon="5.5254">
        <ele>1674</ele>
        <time>2024-05-11T13:07:26.000Z</time>
      </trkpt>
      <trkpt lat="44.85286" lon="5.52543">
        <ele>1672.2</ele>
        <time>2024-05-11T13:07:31.000Z</time>
      </trkpt>
      <trkpt lat="44.85288" lon="5.52544">
        <ele>1671.1</ele>
        <time>2024-05-11T13:07:33.000Z</time>
      </trkpt>
      <trkpt lat="44.8529" lon="5.52545">
        <ele>1669.9</ele>
        <time>2024-05-11T13:07:35.000Z</time>
      </trkpt>
      <trkpt lat="44.8529" lon="5.52547">
        <ele>1669.4</ele>
        <time>2024-05-11T13:07:39.000Z</time>
      </trkpt>
      <trkpt lat="44.85289" lon="5.52549">
        <ele>1668.9</ele>
        <time>2024-05-11T13:07:40.000Z</time>
      </trkpt>
      <trkpt lat="44.85285" lon="5.52553">
        <ele>1669</ele>
        <time>2024-05-11T13:07:45.000Z</time>
      </trkpt>
      <trkpt lat="44.85282" lon="5.52557">
        <ele>1669</ele>
        <time>2024-05-11T13:07:49.000Z</time>
      </trkpt>
      <trkpt lat="44.85281" lon="5.52557">
        <ele>1669.1</ele>
        <time>2024-05-11T13:07:50.000Z</time>
      </trkpt>
      <trkpt lat="44.85281" lon="5.52557">
        <ele>1668.9</ele>
        <time>2024-05-11T13:07:51.589Z</time>
        <extensions>
          <visugpx:TrkExtension xmlns:visugpx="https://www.visugpx.com/editgpx/">
            <visugpx:node>17</visugpx:node>
            </visugpx:TrkExtension>
        </extensions>
      </trkpt>
      <trkpt lat="44.85277" lon="5.52551">
        <ele>1672.8</ele>
        <time>2024-05-11T13:08:20.308Z</time>
      </trkpt>
      <trkpt lat="44.85274" lon="5.52555">
        <ele>1671.9</ele>
        <time>2024-05-11T13:08:39.073Z</time>
      </trkpt>
      <trkpt lat="44.85272" lon="5.52558">
        <ele>1671.1</ele>
        <time>2024-05-11T13:08:52.344Z</time>
      </trkpt>
      <trkpt lat="44.8527" lon="5.52561">
        <ele>1670.4</ele>
        <time>2024-05-11T13:09:05.615Z</time>
      </trkpt>
      <trkpt lat="44.8527" lon="5.52565">
        <ele>1668.9</ele>
        <time>2024-05-11T13:09:18.505Z</time>
      </trkpt>
      <trkpt lat="44.85273" lon="5.52568">
        <ele>1667.2</ele>
        <time>2024-05-11T13:09:35.221Z</time>
      </trkpt>
      <trkpt lat="44.85276" lon="5.5257">
        <ele>1665.7</ele>
        <time>2024-05-11T13:09:50.304Z</time>
      </trkpt>
      <trkpt lat="44.85279" lon="5.52572">
        <ele>1664.1</ele>
        <time>2024-05-11T13:10:05.388Z</time>
      </trkpt>
      <trkpt lat="44.85279" lon="5.52573">
        <ele>1663.7</ele>
        <time>2024-05-11T13:10:08.610Z</time>
        <extensions>
          <visugpx:TrkExtension xmlns:visugpx="https://www.visugpx.com/editgpx/">
            <visugpx:node>18</visugpx:node>
            </visugpx:TrkExtension>
        </extensions>
      </trkpt>
      <trkpt lat="44.8528" lon="5.52575">
        <ele>1662.5</ele>
        <time>2024-05-11T13:10:16.497Z</time>
      </trkpt>
      <trkpt lat="44.85283" lon="5.52576">
        <ele>1661.1</ele>
        <time>2024-05-11T13:10:30.510Z</time>
      </trkpt>
      <trkpt lat="44.85289" lon="5.52576">
        <ele>1659.1</ele>
        <time>2024-05-11T13:10:57.786Z</time>
      </trkpt>
      <trkpt lat="44.85294" lon="5.52575">
        <ele>1657.7</ele>
        <time>2024-05-11T13:11:20.743Z</time>
      </trkpt>
      <trkpt lat="44.85296" lon="5.52576">
        <ele>1656.7</ele>
        <time>2024-05-11T13:11:30.389Z</time>
      </trkpt>
      <trkpt lat="44.85296" lon="5.52576">
        <ele>1656.7</ele>
        <time>2024-05-11T13:11:30.389Z</time>
      </trkpt>
      <trkpt lat="44.85296" lon="5.52576">
        <ele>1656.5</ele>
        <time>2024-05-11T13:11:31.283Z</time>
        <extensions>
          <visugpx:TrkExtension xmlns:visugpx="https://www.visugpx.com/editgpx/">
            <visugpx:node>19</visugpx:node>
            </visugpx:TrkExtension>
        </extensions>
      </trkpt>
      <trkpt lat="44.85297" lon="5.52577">
        <ele>1656</ele>
        <time>2024-05-11T13:11:37.000Z</time>
      </trkpt>
      <trkpt lat="44.85299" lon="5.52577">
        <ele>1655.6</ele>
        <time>2024-05-11T13:11:40.000Z</time>
      </trkpt>
      <trkpt lat="44.85299" lon="5.52578">
        <ele>1655.1</ele>
        <time>2024-05-11T13:11:44.000Z</time>
      </trkpt>
      <trkpt lat="44.85302" lon="5.52578">
        <ele>1654</ele>
        <time>2024-05-11T13:11:49.000Z</time>
      </trkpt>
      <trkpt lat="44.85302" lon="5.52578">
        <ele>1653.9</ele>
        <time>2024-05-11T13:11:50.000Z</time>
      </trkpt>
      <trkpt lat="44.85303" lon="5.52581">
        <ele>1652.4</ele>
        <time>2024-05-11T13:11:55.000Z</time>
      </trkpt>
      <trkpt lat="44.85303" lon="5.52586">
        <ele>1651</ele>
        <time>2024-05-11T13:11:59.000Z</time>
      </trkpt>
      <trkpt lat="44.85302" lon="5.52588">
        <ele>1650.9</ele>
        <time>2024-05-11T13:12:03.000Z</time>
      </trkpt>
      <trkpt lat="44.85301" lon="5.52589">
        <ele>1650.8</ele>
        <time>2024-05-11T13:12:07.000Z</time>
      </trkpt>
      <trkpt lat="44.85301" lon="5.52589">
        <ele>1650.7</ele>
        <time>2024-05-11T13:12:08.000Z</time>
      </trkpt>
      <trkpt lat="44.85301" lon="5.52589">
        <ele>1650.7</ele>
        <time>2024-05-11T13:12:09.000Z</time>
      </trkpt>
      <trkpt lat="44.85298" lon="5.5259">
        <ele>1651.4</ele>
        <time>2024-05-11T13:12:13.000Z</time>
      </trkpt>
      <trkpt lat="44.85298" lon="5.52591">
        <ele>1651.3</ele>
        <time>2024-05-11T13:12:15.000Z</time>
      </trkpt>
      <trkpt lat="44.85297" lon="5.52591">
        <ele>1651.3</ele>
        <time>2024-05-11T13:12:16.000Z</time>
      </trkpt>
      <trkpt lat="44.85299" lon="5.52593">
        <ele>1650.5</ele>
        <time>2024-05-11T13:12:22.000Z</time>
      </trkpt>
      <trkpt lat="44.853" lon="5.52594">
        <ele>1649.5</ele>
        <time>2024-05-11T13:12:26.000Z</time>
      </trkpt>
      <trkpt lat="44.85301" lon="5.52594">
        <ele>1649.3</ele>
        <time>2024-05-11T13:12:27.000Z</time>
      </trkpt>
      <trkpt lat="44.85302" lon="5.52594">
        <ele>1648.9</ele>
        <time>2024-05-11T13:12:32.000Z</time>
      </trkpt>
      <trkpt lat="44.853" lon="5.52595">
        <ele>1649.1</ele>
        <time>2024-05-11T13:12:34.000Z</time>
      </trkpt>
      <trkpt lat="44.85301" lon="5.52596">
        <ele>1648.7</ele>
        <time>2024-05-11T13:12:38.000Z</time>
      </trkpt>
      <trkpt lat="44.853" lon="5.52599">
        <ele>1648.1</ele>
        <time>2024-05-11T13:12:41.000Z</time>
      </trkpt>
      <trkpt lat="44.85299" lon="5.52599">
        <ele>1648.1</ele>
        <time>2024-05-11T13:12:43.000Z</time>
      </trkpt>
      <trkpt lat="44.85299" lon="5.52599">
        <ele>1648.3</ele>
        <time>2024-05-11T13:12:44.000Z</time>
      </trkpt>
      <trkpt lat="44.85297" lon="5.526">
        <ele>1648.8</ele>
        <time>2024-05-11T13:12:50.000Z</time>
      </trkpt>
      <trkpt lat="44.85298" lon="5.52601">
        <ele>1648</ele>
        <time>2024-05-11T13:12:54.000Z</time>
      </trkpt>
      <trkpt lat="44.85299" lon="5.52601">
        <ele>1647.7</ele>
        <time>2024-05-11T13:12:58.000Z</time>
      </trkpt>
      <trkpt lat="44.85298" lon="5.52602">
        <ele>1647.7</ele>
        <time>2024-05-11T13:13:03.000Z</time>
      </trkpt>
      <trkpt lat="44.85299" lon="5.52603">
        <ele>1647.1</ele>
        <time>2024-05-11T13:13:05.000Z</time>
      </trkpt>
      <trkpt lat="44.85299" lon="5.52605">
        <ele>1646.4</ele>
        <time>2024-05-11T13:13:08.000Z</time>
      </trkpt>
      <trkpt lat="44.853" lon="5.52605">
        <ele>1646</ele>
        <time>2024-05-11T13:13:14.000Z</time>
      </trkpt>
      <trkpt lat="44.853" lon="5.52605">
        <ele>1645.8</ele>
        <time>2024-05-11T13:13:15.000Z</time>
      </trkpt>
      <trkpt lat="44.85304" lon="5.52605">
        <ele>1644.7</ele>
        <time>2024-05-11T13:13:21.000Z</time>
      </trkpt>
      <trkpt lat="44.85306" lon="5.52607">
        <ele>1643.4</ele>
        <time>2024-05-11T13:13:27.000Z</time>
      </trkpt>
      <trkpt lat="44.85306" lon="5.52607">
        <ele>1643.3</ele>
        <time>2024-05-11T13:13:28.000Z</time>
      </trkpt>
      <trkpt lat="44.85307" lon="5.52607">
        <ele>1642.9</ele>
        <time>2024-05-11T13:13:33.000Z</time>
      </trkpt>
      <trkpt lat="44.85307" lon="5.52607">
        <ele>1642.7</ele>
        <time>2024-05-11T13:13:34.000Z</time>
      </trkpt>
      <trkpt lat="44.8531" lon="5.5261">
        <ele>1641.3</ele>
        <time>2024-05-11T13:13:40.000Z</time>
      </trkpt>
      <trkpt lat="44.85312" lon="5.5261">
        <ele>1640.7</ele>
        <time>2024-05-11T13:13:43.000Z</time>
      </trkpt>
      <trkpt lat="44.85312" lon="5.5261">
        <ele>1640.6</ele>
        <time>2024-05-11T13:13:45.000Z</time>
      </trkpt>
      <trkpt lat="44.85312" lon="5.52611">
        <ele>1640</ele>
        <time>2024-05-11T13:13:49.000Z</time>
      </trkpt>
      <trkpt lat="44.85315" lon="5.52611">
        <ele>1639.4</ele>
        <time>2024-05-11T13:13:51.000Z</time>
      </trkpt>
      <trkpt lat="44.85318" lon="5.52612">
        <ele>1638.5</ele>
        <time>2024-05-11T13:13:55.000Z</time>
      </trkpt>
      <trkpt lat="44.85318" lon="5.52612">
        <ele>1638.1</ele>
        <time>2024-05-11T13:13:58.000Z</time>
      </trkpt>
      <trkpt lat="44.85321" lon="5.5261">
        <ele>1637.9</ele>
        <time>2024-05-11T13:14:02.000Z</time>
      </trkpt>
      <trkpt lat="44.85322" lon="5.5261">
        <ele>1637.8</ele>
        <time>2024-05-11T13:14:03.000Z</time>
      </trkpt>
      <trkpt lat="44.85323" lon="5.52608">
        <ele>1638.3</ele>
        <time>2024-05-11T13:14:07.000Z</time>
      </trkpt>
      <trkpt lat="44.85323" lon="5.52608">
        <ele>1638.2</ele>
        <time>2024-05-11T13:14:09.000Z</time>
      </trkpt>
      <trkpt lat="44.85326" lon="5.52608">
        <ele>1637.4</ele>
        <time>2024-05-11T13:14:12.000Z</time>
      </trkpt>
      <trkpt lat="44.85326" lon="5.52608">
        <ele>1637.3</ele>
        <time>2024-05-11T13:14:15.000Z</time>
      </trkpt>
      <trkpt lat="44.85328" lon="5.52608">
        <ele>1637.1</ele>
        <time>2024-05-11T13:14:19.000Z</time>
      </trkpt>
      <trkpt lat="44.85328" lon="5.52609">
        <ele>1636.4</ele>
        <time>2024-05-11T13:14:24.000Z</time>
      </trkpt>
      <trkpt lat="44.85332" lon="5.52613">
        <ele>1634</ele>
        <time>2024-05-11T13:14:31.000Z</time>
      </trkpt>
      <trkpt lat="44.85334" lon="5.52614">
        <ele>1633.2</ele>
        <time>2024-05-11T13:14:34.000Z</time>
      </trkpt>
      <trkpt lat="44.85335" lon="5.52616">
        <ele>1633.1</ele>
        <time>2024-05-11T13:14:37.000Z</time>
      </trkpt>
      <trkpt lat="44.85337" lon="5.52617">
        <ele>1633.2</ele>
        <time>2024-05-11T13:14:39.000Z</time>
      </trkpt>
      <trkpt lat="44.85339" lon="5.52617">
        <ele>1633.7</ele>
        <time>2024-05-11T13:14:41.000Z</time>
      </trkpt>
      <trkpt lat="44.85341" lon="5.52616">
        <ele>1634.6</ele>
        <time>2024-05-11T13:14:43.000Z</time>
      </trkpt>
      <trkpt lat="44.85342" lon="5.52617">
        <ele>1634.7</ele>
        <time>2024-05-11T13:14:49.000Z</time>
      </trkpt>
      <trkpt lat="44.85343" lon="5.52618">
        <ele>1634.5</ele>
        <time>2024-05-11T13:14:52.000Z</time>
      </trkpt>
      <trkpt lat="44.85342" lon="5.52619">
        <ele>1633.8</ele>
        <time>2024-05-11T13:14:55.000Z</time>
      </trkpt>
      <trkpt lat="44.85343" lon="5.52622">
        <ele>1633.1</ele>
        <time>2024-05-11T13:14:59.000Z</time>
      </trkpt>
      <trkpt lat="44.85344" lon="5.52622">
        <ele>1633</ele>
        <time>2024-05-11T13:15:02.000Z</time>
      </trkpt>
      <trkpt lat="44.85344" lon="5.52622">
        <ele>1633.2</ele>
        <time>2024-05-11T13:15:03.000Z</time>
      </trkpt>
      <trkpt lat="44.85343" lon="5.52625">
        <ele>1631.6</ele>
        <time>2024-05-11T13:15:09.000Z</time>
      </trkpt>
      <trkpt lat="44.85343" lon="5.52627">
        <ele>1631.1</ele>
        <time>2024-05-11T13:15:10.000Z</time>
      </trkpt>
      <trkpt lat="44.85348" lon="5.52624">
        <ele>1633.2</ele>
        <time>2024-05-11T13:15:15.000Z</time>
      </trkpt>
      <trkpt lat="44.8535" lon="5.52632">
        <ele>1630.3</ele>
        <time>2024-05-11T13:15:20.000Z</time>
      </trkpt>
      <trkpt lat="44.85352" lon="5.52634">
        <ele>1629.6</ele>
        <time>2024-05-11T13:15:23.000Z</time>
      </trkpt>
      <trkpt lat="44.85354" lon="5.52637">
        <ele>1628.9</ele>
        <time>2024-05-11T13:15:26.000Z</time>
      </trkpt>
      <trkpt lat="44.85355" lon="5.52639">
        <ele>1628</ele>
        <time>2024-05-11T13:15:29.000Z</time>
      </trkpt>
      <trkpt lat="44.85356" lon="5.5264">
        <ele>1627.6</ele>
        <time>2024-05-11T13:15:31.000Z</time>
      </trkpt>
      <trkpt lat="44.85357" lon="5.52645">
        <ele>1625.9</ele>
        <time>2024-05-11T13:15:35.000Z</time>
      </trkpt>
      <trkpt lat="44.85359" lon="5.52649">
        <ele>1624.2</ele>
        <time>2024-05-11T13:15:38.000Z</time>
      </trkpt>
      <trkpt lat="44.8536" lon="5.5265">
        <ele>1623.8</ele>
        <time>2024-05-11T13:15:40.000Z</time>
      </trkpt>
      <trkpt lat="44.85361" lon="5.52652">
        <ele>1623</ele>
        <time>2024-05-11T13:15:44.000Z</time>
      </trkpt>
      <trkpt lat="44.85362" lon="5.52653">
        <ele>1622.8</ele>
        <time>2024-05-11T13:15:45.000Z</time>
      </trkpt>
      <trkpt lat="44.85364" lon="5.52655">
        <ele>1622.1</ele>
        <time>2024-05-11T13:15:49.000Z</time>
      </trkpt>
      <trkpt lat="44.85366" lon="5.5266">
        <ele>1620.1</ele>
        <time>2024-05-11T13:15:55.000Z</time>
      </trkpt>
      <trkpt lat="44.85369" lon="5.52662">
        <ele>1620.5</ele>
        <time>2024-05-11T13:16:02.000Z</time>
      </trkpt>
      <trkpt lat="44.85371" lon="5.52662">
        <ele>1620.7</ele>
        <time>2024-05-11T13:16:04.000Z</time>
      </trkpt>
      <trkpt lat="44.8537" lon="5.52664">
        <ele>1619.8</ele>
        <time>2024-05-11T13:16:10.000Z</time>
      </trkpt>
      <trkpt lat="44.8537" lon="5.52664">
        <ele>1619.4</ele>
        <time>2024-05-11T13:16:11.000Z</time>
      </trkpt>
      <trkpt lat="44.85371" lon="5.52667">
        <ele>1618.5</ele>
        <time>2024-05-11T13:16:16.000Z</time>
      </trkpt>
      <trkpt lat="44.85371" lon="5.52665">
        <ele>1619.5</ele>
        <time>2024-05-11T13:16:19.000Z</time>
      </trkpt>
      <trkpt lat="44.85372" lon="5.52665">
        <ele>1619.4</ele>
        <time>2024-05-11T13:16:22.000Z</time>
      </trkpt>
      <trkpt lat="44.85373" lon="5.52669">
        <ele>1618.2</ele>
        <time>2024-05-11T13:16:28.000Z</time>
      </trkpt>
      <trkpt lat="44.85373" lon="5.52669">
        <ele>1617.9</ele>
        <time>2024-05-11T13:16:29.000Z</time>
      </trkpt>
      <trkpt lat="44.85373" lon="5.52669">
        <ele>1618</ele>
        <time>2024-05-11T13:16:33.000Z</time>
      </trkpt>
      <trkpt lat="44.85374" lon="5.5267">
        <ele>1617.7</ele>
        <time>2024-05-11T13:16:34.000Z</time>
      </trkpt>
      <trkpt lat="44.85375" lon="5.52673">
        <ele>1616.9</ele>
        <time>2024-05-11T13:16:40.000Z</time>
      </trkpt>
      <trkpt lat="44.85376" lon="5.52674">
        <ele>1616.7</ele>
        <time>2024-05-11T13:16:43.000Z</time>
      </trkpt>
      <trkpt lat="44.85378" lon="5.52675">
        <ele>1616.4</ele>
        <time>2024-05-11T13:16:48.000Z</time>
      </trkpt>
      <trkpt lat="44.85378" lon="5.52677">
        <ele>1615.9</ele>
        <time>2024-05-11T13:16:49.000Z</time>
      </trkpt>
      <trkpt lat="44.85378" lon="5.52678">
        <ele>1615.2</ele>
        <time>2024-05-11T13:16:55.000Z</time>
      </trkpt>
      <trkpt lat="44.85377" lon="5.52677">
        <ele>1615.6</ele>
        <time>2024-05-11T13:17:01.000Z</time>
      </trkpt>
      <trkpt lat="44.85376" lon="5.52677">
        <ele>1615.4</ele>
        <time>2024-05-11T13:17:03.000Z</time>
      </trkpt>
      <trkpt lat="44.85375" lon="5.52678">
        <ele>1614.8</ele>
        <time>2024-05-11T13:17:07.000Z</time>
      </trkpt>
      <trkpt lat="44.85372" lon="5.52677">
        <ele>1614.3</ele>
        <time>2024-05-11T13:17:10.000Z</time>
      </trkpt>
      <trkpt lat="44.85369" lon="5.52678">
        <ele>1613.4</ele>
        <time>2024-05-11T13:17:14.000Z</time>
      </trkpt>
      <trkpt lat="44.85367" lon="5.5268">
        <ele>1612.1</ele>
        <time>2024-05-11T13:17:19.000Z</time>
      </trkpt>
      <trkpt lat="44.85367" lon="5.5268">
        <ele>1612.1</ele>
        <time>2024-05-11T13:17:24.000Z</time>
      </trkpt>
      <trkpt lat="44.85368" lon="5.52682">
        <ele>1611.7</ele>
        <time>2024-05-11T13:17:26.000Z</time>
      </trkpt>
      <trkpt lat="44.85369" lon="5.52686">
        <ele>1610.3</ele>
        <time>2024-05-11T13:17:34.000Z</time>
      </trkpt>
      <trkpt lat="44.85369" lon="5.52686">
        <ele>1610.3</ele>
        <time>2024-05-11T13:17:35.000Z</time>
      </trkpt>
      <trkpt lat="44.85369" lon="5.52686">
        <ele>1610.3</ele>
        <time>2024-05-11T13:17:45.000Z</time>
      </trkpt>
      <trkpt lat="44.85369" lon="5.52686">
        <ele>1610.3</ele>
        <time>2024-05-11T13:17:46.000Z</time>
      </trkpt>
      <trkpt lat="44.85369" lon="5.52686">
        <ele>1610.4</ele>
        <time>2024-05-11T13:17:52.000Z</time>
      </trkpt>
      <trkpt lat="44.85371" lon="5.52692">
        <ele>1608.1</ele>
        <time>2024-05-11T13:18:02.000Z</time>
      </trkpt>
      <trkpt lat="44.85372" lon="5.52694">
        <ele>1607.3</ele>
        <time>2024-05-11T13:18:06.000Z</time>
      </trkpt>
      <trkpt lat="44.85374" lon="5.52697">
        <ele>1606.7</ele>
        <time>2024-05-11T13:18:08.000Z</time>
      </trkpt>
      <trkpt lat="44.85376" lon="5.527">
        <ele>1606</ele>
        <time>2024-05-11T13:18:13.000Z</time>
      </trkpt>
      <trkpt lat="44.85376" lon="5.527">
        <ele>1606</ele>
        <time>2024-05-11T13:18:15.000Z</time>
      </trkpt>
      <trkpt lat="44.85376" lon="5.527">
        <ele>1605.9</ele>
        <time>2024-05-11T13:18:24.000Z</time>
      </trkpt>
      <trkpt lat="44.85373" lon="5.52694">
        <ele>1607.5</ele>
        <time>2024-05-11T13:18:46.000Z</time>
      </trkpt>
      <trkpt lat="44.85372" lon="5.52695">
        <ele>1607.2</ele>
        <time>2024-05-11T13:18:52.000Z</time>
      </trkpt>
      <trkpt lat="44.85372" lon="5.52696">
        <ele>1606.8</ele>
        <time>2024-05-11T13:18:57.000Z</time>
      </trkpt>
      <trkpt lat="44.85371" lon="5.52703">
        <ele>1604.9</ele>
        <time>2024-05-11T13:19:04.000Z</time>
      </trkpt>
      <trkpt lat="44.85371" lon="5.52711">
        <ele>1603.1</ele>
        <time>2024-05-11T13:19:14.000Z</time>
      </trkpt>
      <trkpt lat="44.85371" lon="5.5271">
        <ele>1603.2</ele>
        <time>2024-05-11T13:19:15.000Z</time>
      </trkpt>
      <trkpt lat="44.85372" lon="5.52713">
        <ele>1602.5</ele>
        <time>2024-05-11T13:19:19.000Z</time>
      </trkpt>
      <trkpt lat="44.85374" lon="5.52711">
        <ele>1602.9</ele>
        <time>2024-05-11T13:19:24.000Z</time>
      </trkpt>
      <trkpt lat="44.85377" lon="5.52715">
        <ele>1601.3</ele>
        <time>2024-05-11T13:19:32.000Z</time>
      </trkpt>
      <trkpt lat="44.85379" lon="5.52715">
        <ele>1601.1</ele>
        <time>2024-05-11T13:19:36.000Z</time>
      </trkpt>
      <trkpt lat="44.85381" lon="5.52715">
        <ele>1600.8</ele>
        <time>2024-05-11T13:19:39.000Z</time>
      </trkpt>
      <trkpt lat="44.85387" lon="5.52718">
        <ele>1599.1</ele>
        <time>2024-05-11T13:19:46.000Z</time>
      </trkpt>
      <trkpt lat="44.85387" lon="5.52719">
        <ele>1598.8</ele>
        <time>2024-05-11T13:19:47.000Z</time>
      </trkpt>
      <trkpt lat="44.85389" lon="5.5272">
        <ele>1598.1</ele>
        <time>2024-05-11T13:19:52.000Z</time>
      </trkpt>
      <trkpt lat="44.85388" lon="5.52722">
        <ele>1597.5</ele>
        <time>2024-05-11T13:19:56.000Z</time>
      </trkpt>
      <trkpt lat="44.85386" lon="5.52723">
        <ele>1597.3</ele>
        <time>2024-05-11T13:19:59.000Z</time>
      </trkpt>
      <trkpt lat="44.85388" lon="5.52727">
        <ele>1595.7</ele>
        <time>2024-05-11T13:20:04.000Z</time>
      </trkpt>
      <trkpt lat="44.85387" lon="5.52731">
        <ele>1594.7</ele>
        <time>2024-05-11T13:20:07.000Z</time>
      </trkpt>
      <trkpt lat="44.85388" lon="5.52735">
        <ele>1593.2</ele>
        <time>2024-05-11T13:20:11.000Z</time>
      </trkpt>
      <trkpt lat="44.85389" lon="5.52733">
        <ele>1593.5</ele>
        <time>2024-05-11T13:20:14.000Z</time>
      </trkpt>
      <trkpt lat="44.8539" lon="5.52733">
        <ele>1593.8</ele>
        <time>2024-05-11T13:20:16.000Z</time>
      </trkpt>
      <trkpt lat="44.85393" lon="5.52734">
        <ele>1593.9</ele>
        <time>2024-05-11T13:20:20.000Z</time>
      </trkpt>
      <trkpt lat="44.85394" lon="5.52735">
        <ele>1593.7</ele>
        <time>2024-05-11T13:20:22.000Z</time>
      </trkpt>
      <trkpt lat="44.85394" lon="5.52737">
        <ele>1592.9</ele>
        <time>2024-05-11T13:20:26.000Z</time>
      </trkpt>
      <trkpt lat="44.85393" lon="5.52738">
        <ele>1592.5</ele>
        <time>2024-05-11T13:20:31.000Z</time>
      </trkpt>
      <trkpt lat="44.85394" lon="5.52738">
        <ele>1592.6</ele>
        <time>2024-05-11T13:20:34.000Z</time>
      </trkpt>
      <trkpt lat="44.85394" lon="5.52739">
        <ele>1592.2</ele>
        <time>2024-05-11T13:20:38.000Z</time>
      </trkpt>
      <trkpt lat="44.85395" lon="5.52741">
        <ele>1591.7</ele>
        <time>2024-05-11T13:20:40.000Z</time>
      </trkpt>
      <trkpt lat="44.85395" lon="5.52744">
        <ele>1590.8</ele>
        <time>2024-05-11T13:20:46.000Z</time>
      </trkpt>
      <trkpt lat="44.85394" lon="5.52744">
        <ele>1590.7</ele>
        <time>2024-05-11T13:20:47.000Z</time>
      </trkpt>
      <trkpt lat="44.85396" lon="5.52747">
        <ele>1589.7</ele>
        <time>2024-05-11T13:20:54.000Z</time>
      </trkpt>
      <trkpt lat="44.85395" lon="5.5275">
        <ele>1588.4</ele>
        <time>2024-05-11T13:20:58.000Z</time>
      </trkpt>
      <trkpt lat="44.85396" lon="5.52753">
        <ele>1587.8</ele>
        <time>2024-05-11T13:21:01.000Z</time>
      </trkpt>
      <trkpt lat="44.85398" lon="5.52755">
        <ele>1587.5</ele>
        <time>2024-05-11T13:21:05.000Z</time>
      </trkpt>
      <trkpt lat="44.85399" lon="5.52758">
        <ele>1586.9</ele>
        <time>2024-05-11T13:21:09.000Z</time>
      </trkpt>
      <trkpt lat="44.854" lon="5.52758">
        <ele>1586.7</ele>
        <time>2024-05-11T13:21:11.000Z</time>
      </trkpt>
      <trkpt lat="44.85401" lon="5.52759">
        <ele>1586.4</ele>
        <time>2024-05-11T13:21:14.000Z</time>
      </trkpt>
      <trkpt lat="44.85402" lon="5.52762">
        <ele>1585.5</ele>
        <time>2024-05-11T13:21:19.000Z</time>
      </trkpt>
      <trkpt lat="44.85403" lon="5.52766">
        <ele>1584.4</ele>
        <time>2024-05-11T13:21:23.000Z</time>
      </trkpt>
      <trkpt lat="44.85404" lon="5.52768">
        <ele>1583.8</ele>
        <time>2024-05-11T13:21:25.000Z</time>
      </trkpt>
      <trkpt lat="44.85405" lon="5.52764">
        <ele>1584.8</ele>
        <time>2024-05-11T13:21:30.000Z</time>
      </trkpt>
      <trkpt lat="44.85405" lon="5.52762">
        <ele>1585.3</ele>
        <time>2024-05-11T13:21:32.000Z</time>
      </trkpt>
      <trkpt lat="44.85408" lon="5.52762">
        <ele>1585.2</ele>
        <time>2024-05-11T13:21:38.000Z</time>
      </trkpt>
      <trkpt lat="44.85408" lon="5.52765">
        <ele>1584.4</ele>
        <time>2024-05-11T13:21:41.000Z</time>
      </trkpt>
      <trkpt lat="44.85409" lon="5.52766">
        <ele>1583.8</ele>
        <time>2024-05-11T13:21:44.000Z</time>
      </trkpt>
      <trkpt lat="44.8541" lon="5.52768">
        <ele>1583</ele>
        <time>2024-05-11T13:21:50.000Z</time>
      </trkpt>
      <trkpt lat="44.85412" lon="5.52768">
        <ele>1582.7</ele>
        <time>2024-05-11T13:21:56.000Z</time>
      </trkpt>
      <trkpt lat="44.85413" lon="5.52769">
        <ele>1582.2</ele>
        <time>2024-05-11T13:21:58.000Z</time>
      </trkpt>
      <trkpt lat="44.85414" lon="5.52772">
        <ele>1581.1</ele>
        <time>2024-05-11T13:22:04.000Z</time>
      </trkpt>
      <trkpt lat="44.85414" lon="5.52772">
        <ele>1580.8</ele>
        <time>2024-05-11T13:22:05.000Z</time>
      </trkpt>
      <trkpt lat="44.85416" lon="5.52775">
        <ele>1579.5</ele>
        <time>2024-05-11T13:22:12.000Z</time>
      </trkpt>
      <trkpt lat="44.85419" lon="5.52778">
        <ele>1578.4</ele>
        <time>2024-05-11T13:22:19.000Z</time>
      </trkpt>
      <trkpt lat="44.85419" lon="5.52779">
        <ele>1578.3</ele>
        <time>2024-05-11T13:22:20.000Z</time>
      </trkpt>
      <trkpt lat="44.85422" lon="5.52783">
        <ele>1577.3</ele>
        <time>2024-05-11T13:22:26.000Z</time>
      </trkpt>
      <trkpt lat="44.85422" lon="5.52784">
        <ele>1577</ele>
        <time>2024-05-11T13:22:28.000Z</time>
      </trkpt>
      <trkpt lat="44.85424" lon="5.52785">
        <ele>1576.9</ele>
        <time>2024-05-11T13:22:33.000Z</time>
      </trkpt>
      <trkpt lat="44.85424" lon="5.52783">
        <ele>1577.5</ele>
        <time>2024-05-11T13:22:35.000Z</time>
      </trkpt>
      <trkpt lat="44.85426" lon="5.52783">
        <ele>1577.8</ele>
        <time>2024-05-11T13:22:43.000Z</time>
      </trkpt>
      <trkpt lat="44.85428" lon="5.52787">
        <ele>1576.7</ele>
        <time>2024-05-11T13:22:49.000Z</time>
      </trkpt>
      <trkpt lat="44.85428" lon="5.52788">
        <ele>1576.5</ele>
        <time>2024-05-11T13:22:50.000Z</time>
      </trkpt>
      <trkpt lat="44.85429" lon="5.52793">
        <ele>1574.8</ele>
        <time>2024-05-11T13:22:56.000Z</time>
      </trkpt>
      <trkpt lat="44.8543" lon="5.52794">
        <ele>1574.3</ele>
        <time>2024-05-11T13:22:59.000Z</time>
      </trkpt>
      <trkpt lat="44.85431" lon="5.52795">
        <ele>1574.1</ele>
        <time>2024-05-11T13:23:02.000Z</time>
      </trkpt>
      <trkpt lat="44.85432" lon="5.52795">
        <ele>1574</ele>
        <time>2024-05-11T13:23:05.000Z</time>
      </trkpt>
      <trkpt lat="44.85432" lon="5.52795">
        <ele>1573.9</ele>
        <time>2024-05-11T13:23:07.000Z</time>
      </trkpt>
      <trkpt lat="44.85433" lon="5.52797">
        <ele>1573.5</ele>
        <time>2024-05-11T13:23:10.000Z</time>
      </trkpt>
      <trkpt lat="44.85433" lon="5.52797">
        <ele>1573.3</ele>
        <time>2024-05-11T13:23:16.000Z</time>
      </trkpt>
      <trkpt lat="44.85435" lon="5.52802">
        <ele>1571.4</ele>
        <time>2024-05-11T13:23:19.000Z</time>
      </trkpt>
      <trkpt lat="44.85436" lon="5.52806">
        <ele>1569.9</ele>
        <time>2024-05-11T13:23:23.000Z</time>
      </trkpt>
      <trkpt lat="44.85437" lon="5.52808">
        <ele>1569.2</ele>
        <time>2024-05-11T13:23:25.000Z</time>
      </trkpt>
      <trkpt lat="44.85436" lon="5.5281">
        <ele>1568.6</ele>
        <time>2024-05-11T13:23:29.000Z</time>
      </trkpt>
      <trkpt lat="44.85437" lon="5.52813">
        <ele>1567.7</ele>
        <time>2024-05-11T13:23:32.000Z</time>
      </trkpt>
      <trkpt lat="44.85436" lon="5.52815">
        <ele>1566.9</ele>
        <time>2024-05-11T13:23:38.000Z</time>
      </trkpt>
      <trkpt lat="44.85436" lon="5.52816">
        <ele>1566.9</ele>
        <time>2024-05-11T13:23:39.000Z</time>
      </trkpt>
      <trkpt lat="44.85439" lon="5.52818">
        <ele>1566</ele>
        <time>2024-05-11T13:23:45.000Z</time>
      </trkpt>
      <trkpt lat="44.85441" lon="5.52819">
        <ele>1565.3</ele>
        <time>2024-05-11T13:23:51.000Z</time>
      </trkpt>
      <trkpt lat="44.85442" lon="5.5282">
        <ele>1564.9</ele>
        <time>2024-05-11T13:23:52.000Z</time>
      </trkpt>
      <trkpt lat="44.85443" lon="5.52824">
        <ele>1563.6</ele>
        <time>2024-05-11T13:23:57.000Z</time>
      </trkpt>
      <trkpt lat="44.85443" lon="5.52826">
        <ele>1562.7</ele>
        <time>2024-05-11T13:23:59.000Z</time>
      </trkpt>
      <trkpt lat="44.85445" lon="5.52829">
        <ele>1561.7</ele>
        <time>2024-05-11T13:24:04.000Z</time>
      </trkpt>
      <trkpt lat="44.85446" lon="5.52829">
        <ele>1561.8</ele>
        <time>2024-05-11T13:24:08.000Z</time>
      </trkpt>
      <trkpt lat="44.85446" lon="5.5283">
        <ele>1561.5</ele>
        <time>2024-05-11T13:24:10.000Z</time>
      </trkpt>
      <trkpt lat="44.85448" lon="5.52833">
        <ele>1560.6</ele>
        <time>2024-05-11T13:24:16.000Z</time>
      </trkpt>
      <trkpt lat="44.8545" lon="5.52836">
        <ele>1560.1</ele>
        <time>2024-05-11T13:24:19.000Z</time>
      </trkpt>
      <trkpt lat="44.85451" lon="5.52838">
        <ele>1559.5</ele>
        <time>2024-05-11T13:24:23.000Z</time>
      </trkpt>
      <trkpt lat="44.85451" lon="5.52838">
        <ele>1559.6</ele>
        <time>2024-05-11T13:24:24.000Z</time>
      </trkpt>
      <trkpt lat="44.85453" lon="5.5284">
        <ele>1559</ele>
        <time>2024-05-11T13:24:31.000Z</time>
      </trkpt>
      <trkpt lat="44.85453" lon="5.52841">
        <ele>1559</ele>
        <time>2024-05-11T13:24:32.000Z</time>
      </trkpt>
      <trkpt lat="44.85456" lon="5.52843">
        <ele>1558.5</ele>
        <time>2024-05-11T13:24:38.000Z</time>
      </trkpt>
      <trkpt lat="44.85457" lon="5.52849">
        <ele>1556.7</ele>
        <time>2024-05-11T13:24:44.000Z</time>
      </trkpt>
      <trkpt lat="44.85457" lon="5.5285">
        <ele>1556.4</ele>
        <time>2024-05-11T13:24:46.000Z</time>
      </trkpt>
      <trkpt lat="44.85458" lon="5.52854">
        <ele>1555</ele>
        <time>2024-05-11T13:24:51.000Z</time>
      </trkpt>
      <trkpt lat="44.85459" lon="5.52854">
        <ele>1554.9</ele>
        <time>2024-05-11T13:24:54.000Z</time>
      </trkpt>
      <trkpt lat="44.85462" lon="5.52856">
        <ele>1554.4</ele>
        <time>2024-05-11T13:25:00.000Z</time>
      </trkpt>
      <trkpt lat="44.85463" lon="5.52861">
        <ele>1552.6</ele>
        <time>2024-05-11T13:25:07.000Z</time>
      </trkpt>
      <trkpt lat="44.85463" lon="5.52861">
        <ele>1552.5</ele>
        <time>2024-05-11T13:25:08.000Z</time>
      </trkpt>
      <trkpt lat="44.85462" lon="5.52863">
        <ele>1551.8</ele>
        <time>2024-05-11T13:25:11.000Z</time>
      </trkpt>
      <trkpt lat="44.85464" lon="5.52863">
        <ele>1551.8</ele>
        <time>2024-05-11T13:25:15.000Z</time>
      </trkpt>
      <trkpt lat="44.85465" lon="5.52862">
        <ele>1552.1</ele>
        <time>2024-05-11T13:25:16.000Z</time>
      </trkpt>
      <trkpt lat="44.85466" lon="5.52859">
        <ele>1553</ele>
        <time>2024-05-11T13:25:20.000Z</time>
      </trkpt>
      <trkpt lat="44.85467" lon="5.52858">
        <ele>1553.3</ele>
        <time>2024-05-11T13:25:24.000Z</time>
      </trkpt>
      <trkpt lat="44.85468" lon="5.52858">
        <ele>1553.5</ele>
        <time>2024-05-11T13:25:26.000Z</time>
      </trkpt>
      <trkpt lat="44.85468" lon="5.5286">
        <ele>1552.7</ele>
        <time>2024-05-11T13:25:30.000Z</time>
      </trkpt>
      <trkpt lat="44.85469" lon="5.52862">
        <ele>1551.8</ele>
        <time>2024-05-11T13:25:32.000Z</time>
      </trkpt>
      <trkpt lat="44.8547" lon="5.52868">
        <ele>1550</ele>
        <time>2024-05-11T13:25:37.000Z</time>
      </trkpt>
      <trkpt lat="44.8547" lon="5.52871">
        <ele>1549</ele>
        <time>2024-05-11T13:25:40.000Z</time>
      </trkpt>
      <trkpt lat="44.8547" lon="5.52874">
        <ele>1547.9</ele>
        <time>2024-05-11T13:25:44.000Z</time>
      </trkpt>
      <trkpt lat="44.85472" lon="5.52876">
        <ele>1547.1</ele>
        <time>2024-05-11T13:25:48.000Z</time>
      </trkpt>
      <trkpt lat="44.85472" lon="5.52876">
        <ele>1547.1</ele>
        <time>2024-05-11T13:25:50.000Z</time>
      </trkpt>
      <trkpt lat="44.85473" lon="5.52877">
        <ele>1546.8</ele>
        <time>2024-05-11T13:25:53.000Z</time>
      </trkpt>
      <trkpt lat="44.85474" lon="5.52878">
        <ele>1546.7</ele>
        <time>2024-05-11T13:25:57.000Z</time>
      </trkpt>
      <trkpt lat="44.85474" lon="5.52881">
        <ele>1545.8</ele>
        <time>2024-05-11T13:26:01.000Z</time>
      </trkpt>
      <trkpt lat="44.85475" lon="5.52882">
        <ele>1545.5</ele>
        <time>2024-05-11T13:26:03.000Z</time>
      </trkpt>
      <trkpt lat="44.85475" lon="5.52883">
        <ele>1545.3</ele>
        <time>2024-05-11T13:26:04.000Z</time>
      </trkpt>
      <trkpt lat="44.85475" lon="5.52886">
        <ele>1544.4</ele>
        <time>2024-05-11T13:26:09.000Z</time>
      </trkpt>
      <trkpt lat="44.85475" lon="5.52887">
        <ele>1544.1</ele>
        <time>2024-05-11T13:26:11.000Z</time>
      </trkpt>
      <trkpt lat="44.85476" lon="5.52888">
        <ele>1543.6</ele>
        <time>2024-05-11T13:26:15.000Z</time>
      </trkpt>
      <trkpt lat="44.85479" lon="5.52889">
        <ele>1543.7</ele>
        <time>2024-05-11T13:26:19.000Z</time>
      </trkpt>
      <trkpt lat="44.85479" lon="5.52891">
        <ele>1543.2</ele>
        <time>2024-05-11T13:26:21.000Z</time>
      </trkpt>
      <trkpt lat="44.85481" lon="5.52896">
        <ele>1542</ele>
        <time>2024-05-11T13:26:27.000Z</time>
      </trkpt>
      <trkpt lat="44.85482" lon="5.52898">
        <ele>1541.5</ele>
        <time>2024-05-11T13:26:29.000Z</time>
      </trkpt>
      <trkpt lat="44.85484" lon="5.52905">
        <ele>1539.6</ele>
        <time>2024-05-11T13:26:34.000Z</time>
      </trkpt>
      <trkpt lat="44.85484" lon="5.52905">
        <ele>1539.7</ele>
        <time>2024-05-11T13:26:35.000Z</time>
      </trkpt>
      <trkpt lat="44.85485" lon="5.52911">
        <ele>1538.1</ele>
        <time>2024-05-11T13:26:41.000Z</time>
      </trkpt>
      <trkpt lat="44.85485" lon="5.52913">
        <ele>1537.6</ele>
        <time>2024-05-11T13:26:43.000Z</time>
      </trkpt>
      <trkpt lat="44.85485" lon="5.52914">
        <ele>1537.2</ele>
        <time>2024-05-11T13:26:46.000Z</time>
      </trkpt>
      <trkpt lat="44.85487" lon="5.52918">
        <ele>1536.1</ele>
        <time>2024-05-11T13:26:50.000Z</time>
      </trkpt>
      <trkpt lat="44.8549" lon="5.52921">
        <ele>1535.4</ele>
        <time>2024-05-11T13:26:52.000Z</time>
      </trkpt>
      <trkpt lat="44.8549" lon="5.52922">
        <ele>1535.1</ele>
        <time>2024-05-11T13:26:55.000Z</time>
      </trkpt>
      <trkpt lat="44.8549" lon="5.52923">
        <ele>1534.8</ele>
        <time>2024-05-11T13:26:56.000Z</time>
      </trkpt>
      <trkpt lat="44.85491" lon="5.52927">
        <ele>1533.6</ele>
        <time>2024-05-11T13:27:02.000Z</time>
      </trkpt>
      <trkpt lat="44.8549" lon="5.52926">
        <ele>1534</ele>
        <time>2024-05-11T13:27:07.000Z</time>
      </trkpt>
      <trkpt lat="44.8549" lon="5.52927">
        <ele>1533.8</ele>
        <time>2024-05-11T13:27:08.000Z</time>
      </trkpt>
      <trkpt lat="44.8549" lon="5.52929">
        <ele>1533</ele>
        <time>2024-05-11T13:27:13.000Z</time>
      </trkpt>
      <trkpt lat="44.8549" lon="5.52931">
        <ele>1532.4</ele>
        <time>2024-05-11T13:27:18.000Z</time>
      </trkpt>
      <trkpt lat="44.85491" lon="5.52934">
        <ele>1531.6</ele>
        <time>2024-05-11T13:27:20.000Z</time>
      </trkpt>
      <trkpt lat="44.85492" lon="5.52938">
        <ele>1530.6</ele>
        <time>2024-05-11T13:27:25.000Z</time>
      </trkpt>
      <trkpt lat="44.85495" lon="5.52943">
        <ele>1529.2</ele>
        <time>2024-05-11T13:27:30.000Z</time>
      </trkpt>
      <trkpt lat="44.85497" lon="5.5295">
        <ele>1527.4</ele>
        <time>2024-05-11T13:27:36.000Z</time>
      </trkpt>
      <trkpt lat="44.85497" lon="5.52952">
        <ele>1526.8</ele>
        <time>2024-05-11T13:27:37.000Z</time>
      </trkpt>
      <trkpt lat="44.85499" lon="5.52956">
        <ele>1525.5</ele>
        <time>2024-05-11T13:27:42.000Z</time>
      </trkpt>
      <trkpt lat="44.85499" lon="5.5296">
        <ele>1524.6</ele>
        <time>2024-05-11T13:27:45.000Z</time>
      </trkpt>
      <trkpt lat="44.855" lon="5.5296">
        <ele>1524.5</ele>
        <time>2024-05-11T13:27:49.000Z</time>
      </trkpt>
      <trkpt lat="44.85502" lon="5.52961">
        <ele>1524.5</ele>
        <time>2024-05-11T13:27:51.000Z</time>
      </trkpt>
      <trkpt lat="44.85504" lon="5.52961">
        <ele>1524.7</ele>
        <time>2024-05-11T13:27:54.000Z</time>
      </trkpt>
      <trkpt lat="44.85504" lon="5.52962">
        <ele>1524.5</ele>
        <time>2024-05-11T13:27:58.000Z</time>
      </trkpt>
      <trkpt lat="44.85504" lon="5.52963">
        <ele>1524.4</ele>
        <time>2024-05-11T13:27:59.000Z</time>
      </trkpt>
      <trkpt lat="44.85504" lon="5.52966">
        <ele>1523.4</ele>
        <time>2024-05-11T13:28:02.000Z</time>
      </trkpt>
      <trkpt lat="44.85506" lon="5.52969">
        <ele>1522.9</ele>
        <time>2024-05-11T13:28:04.000Z</time>
      </trkpt>
      <trkpt lat="44.85509" lon="5.52971">
        <ele>1522.6</ele>
        <time>2024-05-11T13:28:09.000Z</time>
      </trkpt>
      <trkpt lat="44.85511" lon="5.52973">
        <ele>1522.4</ele>
        <time>2024-05-11T13:28:13.000Z</time>
      </trkpt>
      <trkpt lat="44.85512" lon="5.52973">
        <ele>1522.4</ele>
        <time>2024-05-11T13:28:14.000Z</time>
      </trkpt>
      <trkpt lat="44.85509" lon="5.5298">
        <ele>1519.8</ele>
        <time>2024-05-11T13:28:20.000Z</time>
      </trkpt>
      <trkpt lat="44.85513" lon="5.52979">
        <ele>1520.6</ele>
        <time>2024-05-11T13:28:24.000Z</time>
      </trkpt>
      <trkpt lat="44.85515" lon="5.5298">
        <ele>1520.8</ele>
        <time>2024-05-11T13:28:26.000Z</time>
      </trkpt>
      <trkpt lat="44.85522" lon="5.52979">
        <ele>1521.9</ele>
        <time>2024-05-11T13:28:32.000Z</time>
      </trkpt>
      <trkpt lat="44.85523" lon="5.52982">
        <ele>1521.5</ele>
        <time>2024-05-11T13:28:34.000Z</time>
      </trkpt>
      <trkpt lat="44.85525" lon="5.52982">
        <ele>1521.8</ele>
        <time>2024-05-11T13:28:41.000Z</time>
      </trkpt>
      <trkpt lat="44.85526" lon="5.52985">
        <ele>1521.1</ele>
        <time>2024-05-11T13:28:45.000Z</time>
      </trkpt>
      <trkpt lat="44.85526" lon="5.52986">
        <ele>1520.7</ele>
        <time>2024-05-11T13:28:47.000Z</time>
      </trkpt>
      <trkpt lat="44.85528" lon="5.52993">
        <ele>1519.1</ele>
        <time>2024-05-11T13:28:55.000Z</time>
      </trkpt>
      <trkpt lat="44.85529" lon="5.52995">
        <ele>1518.5</ele>
        <time>2024-05-11T13:28:57.000Z</time>
      </trkpt>
      <trkpt lat="44.85526" lon="5.52999">
        <ele>1517</ele>
        <time>2024-05-11T13:28:59.000Z</time>
      </trkpt>
      <trkpt lat="44.85523" lon="5.52999">
        <ele>1516.3</ele>
        <time>2024-05-11T13:29:00.000Z</time>
      </trkpt>
      <trkpt lat="44.85529" lon="5.53">
        <ele>1517.2</ele>
        <time>2024-05-11T13:29:02.000Z</time>
      </trkpt>
      <trkpt lat="44.85526" lon="5.52998">
        <ele>1517.3</ele>
        <time>2024-05-11T13:29:06.000Z</time>
      </trkpt>
      <trkpt lat="44.8553" lon="5.53003">
        <ele>1516.6</ele>
        <time>2024-05-11T13:29:11.000Z</time>
      </trkpt>
      <trkpt lat="44.8553" lon="5.53002">
        <ele>1516.6</ele>
        <time>2024-05-11T13:29:15.000Z</time>
      </trkpt>
      <trkpt lat="44.8553" lon="5.53004">
        <ele>1516.1</ele>
        <time>2024-05-11T13:29:17.000Z</time>
      </trkpt>
      <trkpt lat="44.85529" lon="5.53004">
        <ele>1516.1</ele>
        <time>2024-05-11T13:29:21.000Z</time>
      </trkpt>
      <trkpt lat="44.85528" lon="5.53004">
        <ele>1516.1</ele>
        <time>2024-05-11T13:29:22.000Z</time>
      </trkpt>
      <trkpt lat="44.85525" lon="5.53005">
        <ele>1515</ele>
        <time>2024-05-11T13:29:37.000Z</time>
      </trkpt>
      <trkpt lat="44.85522" lon="5.53007">
        <ele>1513.9</ele>
        <time>2024-05-11T13:29:48.000Z</time>
      </trkpt>
      <trkpt lat="44.85523" lon="5.53008">
        <ele>1513.6</ele>
        <time>2024-05-11T13:29:59.000Z</time>
      </trkpt>
      <trkpt lat="44.85523" lon="5.5301">
        <ele>1513.1</ele>
        <time>2024-05-11T13:30:11.000Z</time>
      </trkpt>
      <trkpt lat="44.85523" lon="5.53012">
        <ele>1512.6</ele>
        <time>2024-05-11T13:30:18.000Z</time>
      </trkpt>
      <trkpt lat="44.85523" lon="5.53014">
        <ele>1511.9</ele>
        <time>2024-05-11T13:30:26.000Z</time>
      </trkpt>
      <trkpt lat="44.8552" lon="5.53013">
        <ele>1511.5</ele>
        <time>2024-05-11T13:30:32.000Z</time>
      </trkpt>
      <trkpt lat="44.8552" lon="5.53012">
        <ele>1511.7</ele>
        <time>2024-05-11T13:30:34.000Z</time>
      </trkpt>
      <trkpt lat="44.85516" lon="5.53015">
        <ele>1509.7</ele>
        <time>2024-05-11T13:30:39.000Z</time>
      </trkpt>
      <trkpt lat="44.85514" lon="5.53015">
        <ele>1509</ele>
        <time>2024-05-11T13:30:41.000Z</time>
      </trkpt>
      <trkpt lat="44.85512" lon="5.53017">
        <ele>1508</ele>
        <time>2024-05-11T13:30:45.000Z</time>
      </trkpt>
      <trkpt lat="44.85514" lon="5.53021">
        <ele>1507.1</ele>
        <time>2024-05-11T13:30:47.000Z</time>
      </trkpt>
      <trkpt lat="44.85512" lon="5.53024">
        <ele>1505.7</ele>
        <time>2024-05-11T13:30:52.000Z</time>
      </trkpt>
      <trkpt lat="44.85515" lon="5.53027">
        <ele>1505.8</ele>
        <time>2024-05-11T13:30:55.000Z</time>
      </trkpt>
      <trkpt lat="44.85515" lon="5.53029">
        <ele>1505.1</ele>
        <time>2024-05-11T13:30:58.000Z</time>
      </trkpt>
      <trkpt lat="44.85515" lon="5.53029">
        <ele>1505.1</ele>
        <time>2024-05-11T13:31:02.000Z</time>
      </trkpt>
      <trkpt lat="44.85516" lon="5.53032">
        <ele>1503.9</ele>
        <time>2024-05-11T13:31:07.000Z</time>
      </trkpt>
      <trkpt lat="44.85516" lon="5.53033">
        <ele>1503.7</ele>
        <time>2024-05-11T13:31:09.000Z</time>
      </trkpt>
      <trkpt lat="44.85516" lon="5.53038">
        <ele>1502</ele>
        <time>2024-05-11T13:31:14.000Z</time>
      </trkpt>
      <trkpt lat="44.85515" lon="5.53038">
        <ele>1501.8</ele>
        <time>2024-05-11T13:31:15.000Z</time>
      </trkpt>
      <trkpt lat="44.85515" lon="5.53041">
        <ele>1500.4</ele>
        <time>2024-05-11T13:31:19.000Z</time>
      </trkpt>
      <trkpt lat="44.85516" lon="5.53044">
        <ele>1499.9</ele>
        <time>2024-05-11T13:31:21.000Z</time>
      </trkpt>
      <trkpt lat="44.85519" lon="5.53047">
        <ele>1499.5</ele>
        <time>2024-05-11T13:31:25.000Z</time>
      </trkpt>
      <trkpt lat="44.85519" lon="5.53052">
        <ele>1497.9</ele>
        <time>2024-05-11T13:31:29.000Z</time>
      </trkpt>
      <trkpt lat="44.8552" lon="5.53052">
        <ele>1498.3</ele>
        <time>2024-05-11T13:31:31.000Z</time>
      </trkpt>
      <trkpt lat="44.85525" lon="5.53052">
        <ele>1499.5</ele>
        <time>2024-05-11T13:31:36.000Z</time>
      </trkpt>
      <trkpt lat="44.85525" lon="5.53054">
        <ele>1499</ele>
        <time>2024-05-11T13:31:37.000Z</time>
      </trkpt>
      <trkpt lat="44.85523" lon="5.53062">
        <ele>1494.9</ele>
        <time>2024-05-11T13:31:43.000Z</time>
      </trkpt>
      <trkpt lat="44.85523" lon="5.53064">
        <ele>1494.4</ele>
        <time>2024-05-11T13:31:44.000Z</time>
      </trkpt>
      <trkpt lat="44.85527" lon="5.53068">
        <ele>1493.4</ele>
        <time>2024-05-11T13:31:48.000Z</time>
      </trkpt>
      <trkpt lat="44.85528" lon="5.53069">
        <ele>1493</ele>
        <time>2024-05-11T13:31:49.000Z</time>
      </trkpt>
      <trkpt lat="44.85527" lon="5.53073">
        <ele>1491.5</ele>
        <time>2024-05-11T13:31:53.000Z</time>
      </trkpt>
      <trkpt lat="44.85528" lon="5.53073">
        <ele>1491.2</ele>
        <time>2024-05-11T13:31:54.000Z</time>
      </trkpt>
      <trkpt lat="44.85528" lon="5.53075">
        <ele>1490.9</ele>
        <time>2024-05-11T13:31:56.000Z</time>
      </trkpt>
      <trkpt lat="44.8553" lon="5.53077">
        <ele>1490.3</ele>
        <time>2024-05-11T13:32:00.000Z</time>
      </trkpt>
      <trkpt lat="44.85532" lon="5.5308">
        <ele>1489.1</ele>
        <time>2024-05-11T13:32:06.000Z</time>
      </trkpt>
      <trkpt lat="44.85532" lon="5.5308">
        <ele>1489.1</ele>
        <time>2024-05-11T13:32:07.000Z</time>
      </trkpt>
      <trkpt lat="44.85535" lon="5.53081">
        <ele>1489.3</ele>
        <time>2024-05-11T13:32:12.000Z</time>
      </trkpt>
      <trkpt lat="44.85537" lon="5.53083">
        <ele>1488.8</ele>
        <time>2024-05-11T13:32:14.000Z</time>
      </trkpt>
      <trkpt lat="44.85539" lon="5.53084">
        <ele>1488.8</ele>
        <time>2024-05-11T13:32:18.000Z</time>
      </trkpt>
      <trkpt lat="44.8554" lon="5.53084">
        <ele>1489</ele>
        <time>2024-05-11T13:32:19.000Z</time>
      </trkpt>
      <trkpt lat="44.85544" lon="5.53085">
        <ele>1489.4</ele>
        <time>2024-05-11T13:32:23.000Z</time>
      </trkpt>
      <trkpt lat="44.85544" lon="5.53084">
        <ele>1489.9</ele>
        <time>2024-05-11T13:32:24.000Z</time>
      </trkpt>
      <trkpt lat="44.85545" lon="5.53081">
        <ele>1490.9</ele>
        <time>2024-05-11T13:32:25.000Z</time>
      </trkpt>
      <trkpt lat="44.85547" lon="5.53083">
        <ele>1490.6</ele>
        <time>2024-05-11T13:32:28.000Z</time>
      </trkpt>
      <trkpt lat="44.85551" lon="5.53083">
        <ele>1491.3</ele>
        <time>2024-05-11T13:32:32.000Z</time>
      </trkpt>
      <trkpt lat="44.85552" lon="5.53085">
        <ele>1491</ele>
        <time>2024-05-11T13:32:34.000Z</time>
      </trkpt>
      <trkpt lat="44.85556" lon="5.53086">
        <ele>1491.3</ele>
        <time>2024-05-11T13:32:38.000Z</time>
      </trkpt>
      <trkpt lat="44.85556" lon="5.5309">
        <ele>1490.4</ele>
        <time>2024-05-11T13:32:42.000Z</time>
      </trkpt>
      <trkpt lat="44.85557" lon="5.53089">
        <ele>1490.5</ele>
        <time>2024-05-11T13:32:43.000Z</time>
      </trkpt>
      <trkpt lat="44.85558" lon="5.5309">
        <ele>1490.3</ele>
        <time>2024-05-11T13:32:47.000Z</time>
      </trkpt>
      <trkpt lat="44.85558" lon="5.53092">
        <ele>1490</ele>
        <time>2024-05-11T13:32:49.000Z</time>
      </trkpt>
      <trkpt lat="44.8556" lon="5.53094">
        <ele>1489.6</ele>
        <time>2024-05-11T13:32:52.000Z</time>
      </trkpt>
      <trkpt lat="44.85561" lon="5.53096">
        <ele>1489.2</ele>
        <time>2024-05-11T13:32:54.000Z</time>
      </trkpt>
      <trkpt lat="44.85563" lon="5.53101">
        <ele>1488.1</ele>
        <time>2024-05-11T13:32:59.000Z</time>
      </trkpt>
      <trkpt lat="44.85564" lon="5.53104">
        <ele>1487.5</ele>
        <time>2024-05-11T13:33:01.000Z</time>
      </trkpt>
      <trkpt lat="44.85566" lon="5.53108">
        <ele>1486.9</ele>
        <time>2024-05-11T13:33:04.000Z</time>
      </trkpt>
      <trkpt lat="44.85569" lon="5.53113">
        <ele>1486</ele>
        <time>2024-05-11T13:33:08.000Z</time>
      </trkpt>
      <trkpt lat="44.85569" lon="5.53114">
        <ele>1485.9</ele>
        <time>2024-05-11T13:33:10.000Z</time>
      </trkpt>
      <trkpt lat="44.85572" lon="5.53119">
        <ele>1484.9</ele>
        <time>2024-05-11T13:33:14.000Z</time>
      </trkpt>
      <trkpt lat="44.85573" lon="5.53122">
        <ele>1484.4</ele>
        <time>2024-05-11T13:33:16.000Z</time>
      </trkpt>
      <trkpt lat="44.85578" lon="5.53129">
        <ele>1483.4</ele>
        <time>2024-05-11T13:33:21.000Z</time>
      </trkpt>
      <trkpt lat="44.85577" lon="5.5313">
        <ele>1483.1</ele>
        <time>2024-05-11T13:33:23.000Z</time>
      </trkpt>
      <trkpt lat="44.85578" lon="5.53132">
        <ele>1482.8</ele>
        <time>2024-05-11T13:33:24.000Z</time>
      </trkpt>
      <trkpt lat="44.85578" lon="5.53138">
        <ele>1481.4</ele>
        <time>2024-05-11T13:33:29.000Z</time>
      </trkpt>
      <trkpt lat="44.85582" lon="5.53141">
        <ele>1481.4</ele>
        <time>2024-05-11T13:33:31.000Z</time>
      </trkpt>
      <trkpt lat="44.85584" lon="5.53145">
        <ele>1480.7</ele>
        <time>2024-05-11T13:33:35.000Z</time>
      </trkpt>
      <trkpt lat="44.85585" lon="5.53147">
        <ele>1480.5</ele>
        <time>2024-05-11T13:33:36.000Z</time>
      </trkpt>
      <trkpt lat="44.85589" lon="5.53153">
        <ele>1479.3</ele>
        <time>2024-05-11T13:33:40.000Z</time>
      </trkpt>
      <trkpt lat="44.8559" lon="5.53155">
        <ele>1479</ele>
        <time>2024-05-11T13:33:42.000Z</time>
      </trkpt>
      <trkpt lat="44.85593" lon="5.53155">
        <ele>1479.2</ele>
        <time>2024-05-11T13:33:45.000Z</time>
      </trkpt>
      <trkpt lat="44.85593" lon="5.53155">
        <ele>1479.2</ele>
        <time>2024-05-11T13:33:46.000Z</time>
      </trkpt>
      <trkpt lat="44.85597" lon="5.53156">
        <ele>1479.4</ele>
        <time>2024-05-11T13:33:50.000Z</time>
      </trkpt>
      <trkpt lat="44.85599" lon="5.53155">
        <ele>1479.7</ele>
        <time>2024-05-11T13:33:51.000Z</time>
      </trkpt>
      <trkpt lat="44.85603" lon="5.53162">
        <ele>1478.4</ele>
        <time>2024-05-11T13:33:57.000Z</time>
      </trkpt>
      <trkpt lat="44.85605" lon="5.53167">
        <ele>1477.5</ele>
        <time>2024-05-11T13:34:03.000Z</time>
      </trkpt>
      <trkpt lat="44.85607" lon="5.53171">
        <ele>1476.7</ele>
        <time>2024-05-11T13:34:08.000Z</time>
      </trkpt>
      <trkpt lat="44.85609" lon="5.53171">
        <ele>1476.9</ele>
        <time>2024-05-11T13:34:11.000Z</time>
      </trkpt>
      <trkpt lat="44.85611" lon="5.53172">
        <ele>1476.8</ele>
        <time>2024-05-11T13:34:14.000Z</time>
      </trkpt>
      <trkpt lat="44.85613" lon="5.53175">
        <ele>1476.6</ele>
        <time>2024-05-11T13:34:18.000Z</time>
      </trkpt>
      <trkpt lat="44.85614" lon="5.53177">
        <ele>1476.4</ele>
        <time>2024-05-11T13:34:20.000Z</time>
      </trkpt>
      <trkpt lat="44.85616" lon="5.53181">
        <ele>1475.8</ele>
        <time>2024-05-11T13:34:25.000Z</time>
      </trkpt>
      <trkpt lat="44.85618" lon="5.53184">
        <ele>1475.3</ele>
        <time>2024-05-11T13:34:27.000Z</time>
      </trkpt>
      <trkpt lat="44.85618" lon="5.53191">
        <ele>1473.9</ele>
        <time>2024-05-11T13:34:32.000Z</time>
      </trkpt>
      <trkpt lat="44.85618" lon="5.53192">
        <ele>1473.6</ele>
        <time>2024-05-11T13:34:34.000Z</time>
      </trkpt>
      <trkpt lat="44.85619" lon="5.53198">
        <ele>1472.7</ele>
        <time>2024-05-11T13:34:37.000Z</time>
      </trkpt>
      <trkpt lat="44.85621" lon="5.53201">
        <ele>1472.4</ele>
        <time>2024-05-11T13:34:38.000Z</time>
      </trkpt>
      <trkpt lat="44.8562" lon="5.53206">
        <ele>1471.2</ele>
        <time>2024-05-11T13:34:41.000Z</time>
      </trkpt>
      <trkpt lat="44.8562" lon="5.53206">
        <ele>1471.1</ele>
        <time>2024-05-11T13:34:42.000Z</time>
      </trkpt>
      <trkpt lat="44.85626" lon="5.53209">
        <ele>1471.5</ele>
        <time>2024-05-11T13:34:46.000Z</time>
      </trkpt>
      <trkpt lat="44.85628" lon="5.5321">
        <ele>1471.6</ele>
        <time>2024-05-11T13:34:47.000Z</time>
      </trkpt>
      <trkpt lat="44.85628" lon="5.5321">
        <ele>1471.8</ele>
        <time>2024-05-11T13:34:48.000Z</time>
      </trkpt>
      <trkpt lat="44.85631" lon="5.53211">
        <ele>1471.8</ele>
        <time>2024-05-11T13:34:51.000Z</time>
      </trkpt>
      <trkpt lat="44.85625" lon="5.53222">
        <ele>1468.7</ele>
        <time>2024-05-11T13:34:57.000Z</time>
      </trkpt>
      <trkpt lat="44.85624" lon="5.53223">
        <ele>1468</ele>
        <time>2024-05-11T13:34:58.000Z</time>
      </trkpt>
      <trkpt lat="44.85627" lon="5.53229">
        <ele>1466.8</ele>
        <time>2024-05-11T13:35:01.000Z</time>
      </trkpt>
      <trkpt lat="44.85628" lon="5.5323">
        <ele>1466.8</ele>
        <time>2024-05-11T13:35:03.000Z</time>
      </trkpt>
      <trkpt lat="44.85632" lon="5.53231">
        <ele>1467.2</ele>
        <time>2024-05-11T13:35:06.000Z</time>
      </trkpt>
      <trkpt lat="44.85634" lon="5.53235">
        <ele>1466.4</ele>
        <time>2024-05-11T13:35:08.000Z</time>
      </trkpt>
      <trkpt lat="44.85632" lon="5.53238">
        <ele>1465</ele>
        <time>2024-05-11T13:35:10.000Z</time>
      </trkpt>
      <trkpt lat="44.85637" lon="5.53245">
        <ele>1464</ele>
        <time>2024-05-11T13:35:15.000Z</time>
      </trkpt>
      <trkpt lat="44.85639" lon="5.53247">
        <ele>1463.9</ele>
        <time>2024-05-11T13:35:18.000Z</time>
      </trkpt>
      <trkpt lat="44.85639" lon="5.53247">
        <ele>1464</ele>
        <time>2024-05-11T13:35:19.000Z</time>
      </trkpt>
      <trkpt lat="44.85642" lon="5.5325">
        <ele>1463.7</ele>
        <time>2024-05-11T13:35:23.000Z</time>
      </trkpt>
      <trkpt lat="44.85643" lon="5.53252">
        <ele>1463.4</ele>
        <time>2024-05-11T13:35:25.000Z</time>
      </trkpt>
      <trkpt lat="44.85644" lon="5.53253">
        <ele>1462.9</ele>
        <time>2024-05-11T13:35:29.000Z</time>
      </trkpt>
      <trkpt lat="44.85644" lon="5.53259">
        <ele>1461</ele>
        <time>2024-05-11T13:35:33.000Z</time>
      </trkpt>
      <trkpt lat="44.85645" lon="5.53261">
        <ele>1460.4</ele>
        <time>2024-05-11T13:35:35.000Z</time>
      </trkpt>
      <trkpt lat="44.85644" lon="5.53265">
        <ele>1458.9</ele>
        <time>2024-05-11T13:35:39.000Z</time>
      </trkpt>
      <trkpt lat="44.85645" lon="5.53265">
        <ele>1459.1</ele>
        <time>2024-05-11T13:35:40.000Z</time>
      </trkpt>
      <trkpt lat="44.85649" lon="5.53269">
        <ele>1458.7</ele>
        <time>2024-05-11T13:35:45.000Z</time>
      </trkpt>
      <trkpt lat="44.85647" lon="5.5327">
        <ele>1457.8</ele>
        <time>2024-05-11T13:35:46.000Z</time>
      </trkpt>
      <trkpt lat="44.8564" lon="5.53277">
        <ele>1453.5</ele>
        <time>2024-05-11T13:35:51.000Z</time>
      </trkpt>
      <trkpt lat="44.85645" lon="5.53284">
        <ele>1452.1</ele>
        <time>2024-05-11T13:35:54.000Z</time>
      </trkpt>
      <trkpt lat="44.85646" lon="5.53286">
        <ele>1451.3</ele>
        <time>2024-05-11T13:35:56.000Z</time>
      </trkpt>
      <trkpt lat="44.85646" lon="5.53283">
        <ele>1452.7</ele>
        <time>2024-05-11T13:35:59.000Z</time>
      </trkpt>
      <trkpt lat="44.85647" lon="5.53281">
        <ele>1453.8</ele>
        <time>2024-05-11T13:36:00.000Z</time>
      </trkpt>
      <trkpt lat="44.85655" lon="5.53279">
        <ele>1456.5</ele>
        <time>2024-05-11T13:36:06.000Z</time>
      </trkpt>
      <trkpt lat="44.85656" lon="5.53284">
        <ele>1454.6</ele>
        <time>2024-05-11T13:36:09.000Z</time>
      </trkpt>
      <trkpt lat="44.85656" lon="5.53289">
        <ele>1452.9</ele>
        <time>2024-05-11T13:36:12.000Z</time>
      </trkpt>
      <trkpt lat="44.8566" lon="5.53296">
        <ele>1451</ele>
        <time>2024-05-11T13:36:17.000Z</time>
      </trkpt>
      <trkpt lat="44.85661" lon="5.53299">
        <ele>1449.9</ele>
        <time>2024-05-11T13:36:19.000Z</time>
      </trkpt>
      <trkpt lat="44.85663" lon="5.533">
        <ele>1450.3</ele>
        <time>2024-05-11T13:36:23.000Z</time>
      </trkpt>
      <trkpt lat="44.85664" lon="5.533">
        <ele>1450.4</ele>
        <time>2024-05-11T13:36:24.000Z</time>
      </trkpt>
      <trkpt lat="44.85665" lon="5.53301">
        <ele>1450.6</ele>
        <time>2024-05-11T13:36:27.000Z</time>
      </trkpt>
      <trkpt lat="44.85666" lon="5.53301">
        <ele>1450.8</ele>
        <time>2024-05-11T13:36:29.000Z</time>
      </trkpt>
      <trkpt lat="44.85668" lon="5.53302">
        <ele>1450.7</ele>
        <time>2024-05-11T13:36:32.000Z</time>
      </trkpt>
      <trkpt lat="44.8567" lon="5.53303">
        <ele>1450.4</ele>
        <time>2024-05-11T13:36:35.000Z</time>
      </trkpt>
      <trkpt lat="44.85671" lon="5.53304">
        <ele>1450.2</ele>
        <time>2024-05-11T13:36:36.000Z</time>
      </trkpt>
      <trkpt lat="44.85672" lon="5.53305">
        <ele>1450.2</ele>
        <time>2024-05-11T13:36:38.000Z</time>
      </trkpt>
      <trkpt lat="44.85676" lon="5.53306">
        <ele>1450.4</ele>
        <time>2024-05-11T13:36:40.000Z</time>
      </trkpt>
      <trkpt lat="44.85679" lon="5.53309">
        <ele>1449.8</ele>
        <time>2024-05-11T13:36:44.000Z</time>
      </trkpt>
      <trkpt lat="44.85682" lon="5.53313">
        <ele>1448.7</ele>
        <time>2024-05-11T13:36:47.000Z</time>
      </trkpt>
      <trkpt lat="44.85684" lon="5.53314">
        <ele>1448.4</ele>
        <time>2024-05-11T13:36:48.000Z</time>
      </trkpt>
      <trkpt lat="44.85687" lon="5.53316">
        <ele>1448.4</ele>
        <time>2024-05-11T13:36:50.000Z</time>
      </trkpt>
      <trkpt lat="44.85687" lon="5.53317">
        <ele>1448</ele>
        <time>2024-05-11T13:36:51.000Z</time>
      </trkpt>
      <trkpt lat="44.85691" lon="5.5332">
        <ele>1447.9</ele>
        <time>2024-05-11T13:36:53.000Z</time>
      </trkpt>
      <trkpt lat="44.85694" lon="5.53328">
        <ele>1445.7</ele>
        <time>2024-05-11T13:36:58.000Z</time>
      </trkpt>
      <trkpt lat="44.85696" lon="5.53338">
        <ele>1442.7</ele>
        <time>2024-05-11T13:37:04.000Z</time>
      </trkpt>
      <trkpt lat="44.857" lon="5.53342">
        <ele>1442.6</ele>
        <time>2024-05-11T13:37:08.000Z</time>
      </trkpt>
      <trkpt lat="44.85703" lon="5.53347">
        <ele>1442</ele>
        <time>2024-05-11T13:37:11.000Z</time>
      </trkpt>
      <trkpt lat="44.85703" lon="5.53347">
        <ele>1441.9</ele>
        <time>2024-05-11T13:37:14.000Z</time>
      </trkpt>
      <trkpt lat="44.85703" lon="5.53348">
        <ele>1441.5</ele>
        <time>2024-05-11T13:37:24.000Z</time>
      </trkpt>
      <trkpt lat="44.857" lon="5.53343">
        <ele>1442.4</ele>
        <time>2024-05-11T13:37:29.000Z</time>
      </trkpt>
      <trkpt lat="44.857" lon="5.53343">
        <ele>1442.4</ele>
        <time>2024-05-11T13:37:32.000Z</time>
      </trkpt>
      <trkpt lat="44.857" lon="5.53343">
        <ele>1442.5</ele>
        <time>2024-05-11T13:37:43.000Z</time>
      </trkpt>
      <trkpt lat="44.85702" lon="5.53349">
        <ele>1441</ele>
        <time>2024-05-11T13:37:50.000Z</time>
      </trkpt>
      <trkpt lat="44.85703" lon="5.53354">
        <ele>1439.3</ele>
        <time>2024-05-11T13:37:52.000Z</time>
      </trkpt>
      <trkpt lat="44.85704" lon="5.53357">
        <ele>1438.8</ele>
        <time>2024-05-11T13:37:53.000Z</time>
      </trkpt>
      <trkpt lat="44.85706" lon="5.53361">
        <ele>1437.7</ele>
        <time>2024-05-11T13:37:55.000Z</time>
      </trkpt>
      <trkpt lat="44.85708" lon="5.53367">
        <ele>1436.8</ele>
        <time>2024-05-11T13:38:00.000Z</time>
      </trkpt>
      <trkpt lat="44.85711" lon="5.53371">
        <ele>1436.7</ele>
        <time>2024-05-11T13:38:05.000Z</time>
      </trkpt>
      <trkpt lat="44.85711" lon="5.53374">
        <ele>1435.9</ele>
        <time>2024-05-11T13:38:07.000Z</time>
      </trkpt>
      <trkpt lat="44.85713" lon="5.53378">
        <ele>1435</ele>
        <time>2024-05-11T13:38:10.000Z</time>
      </trkpt>
      <trkpt lat="44.85718" lon="5.53384">
        <ele>1435.3</ele>
        <time>2024-05-11T13:38:13.000Z</time>
      </trkpt>
      <trkpt lat="44.85721" lon="5.53385">
        <ele>1436.4</ele>
        <time>2024-05-11T13:38:15.000Z</time>
      </trkpt>
      <trkpt lat="44.85724" lon="5.53392">
        <ele>1435.5</ele>
        <time>2024-05-11T13:38:20.000Z</time>
      </trkpt>
      <trkpt lat="44.85724" lon="5.53392">
        <ele>1435.4</ele>
        <time>2024-05-11T13:38:21.000Z</time>
      </trkpt>
      <trkpt lat="44.85725" lon="5.53392">
        <ele>1436.1</ele>
        <time>2024-05-11T13:38:24.000Z</time>
      </trkpt>
      <trkpt lat="44.85729" lon="5.53391">
        <ele>1438.2</ele>
        <time>2024-05-11T13:38:31.000Z</time>
      </trkpt>
      <trkpt lat="44.85729" lon="5.5339">
        <ele>1438.6</ele>
        <time>2024-05-11T13:38:32.000Z</time>
      </trkpt>
      <trkpt lat="44.85731" lon="5.53392">
        <ele>1438.9</ele>
        <time>2024-05-11T13:38:36.000Z</time>
      </trkpt>
      <trkpt lat="44.85735" lon="5.53393">
        <ele>1440.2</ele>
        <time>2024-05-11T13:38:40.000Z</time>
      </trkpt>
      <trkpt lat="44.85737" lon="5.53396">
        <ele>1439.7</ele>
        <time>2024-05-11T13:38:43.000Z</time>
      </trkpt>
      <trkpt lat="44.85738" lon="5.53399">
        <ele>1439.5</ele>
        <time>2024-05-11T13:38:45.000Z</time>
      </trkpt>
      <trkpt lat="44.8574" lon="5.5341">
        <ele>1436.3</ele>
        <time>2024-05-11T13:38:51.000Z</time>
      </trkpt>
      <trkpt lat="44.85742" lon="5.53415">
        <ele>1435.8</ele>
        <time>2024-05-11T13:38:56.000Z</time>
      </trkpt>
      <trkpt lat="44.85746" lon="5.53421">
        <ele>1435.2</ele>
        <time>2024-05-11T13:38:59.000Z</time>
      </trkpt>
      <trkpt lat="44.85744" lon="5.53422">
        <ele>1434.4</ele>
        <time>2024-05-11T13:39:00.000Z</time>
      </trkpt>
      <trkpt lat="44.85747" lon="5.53424">
        <ele>1434.6</ele>
        <time>2024-05-11T13:39:03.000Z</time>
      </trkpt>
      <trkpt lat="44.85748" lon="5.53426">
        <ele>1434.4</ele>
        <time>2024-05-11T13:39:05.000Z</time>
      </trkpt>
      <trkpt lat="44.85749" lon="5.53433">
        <ele>1432.7</ele>
        <time>2024-05-11T13:39:08.000Z</time>
      </trkpt>
      <trkpt lat="44.8575" lon="5.53439">
        <ele>1430.6</ele>
        <time>2024-05-11T13:39:12.000Z</time>
      </trkpt>
      <trkpt lat="44.85751" lon="5.53442">
        <ele>1430.2</ele>
        <time>2024-05-11T13:39:15.000Z</time>
      </trkpt>
      <trkpt lat="44.85753" lon="5.53443">
        <ele>1429.9</ele>
        <time>2024-05-11T13:39:20.000Z</time>
      </trkpt>
      <trkpt lat="44.85753" lon="5.53445">
        <ele>1429.2</ele>
        <time>2024-05-11T13:39:22.000Z</time>
      </trkpt>
      <trkpt lat="44.85753" lon="5.53447">
        <ele>1428.4</ele>
        <time>2024-05-11T13:39:26.000Z</time>
      </trkpt>
      <trkpt lat="44.85753" lon="5.53448">
        <ele>1428.1</ele>
        <time>2024-05-11T13:39:27.000Z</time>
      </trkpt>
      <trkpt lat="44.85756" lon="5.53456">
        <ele>1425.2</ele>
        <time>2024-05-11T13:39:33.000Z</time>
      </trkpt>
      <trkpt lat="44.85756" lon="5.53457">
        <ele>1425</ele>
        <time>2024-05-11T13:39:34.000Z</time>
      </trkpt>
      <trkpt lat="44.85757" lon="5.5346">
        <ele>1424</ele>
        <time>2024-05-11T13:39:38.000Z</time>
      </trkpt>
      <trkpt lat="44.85757" lon="5.53463">
        <ele>1422.7</ele>
        <time>2024-05-11T13:39:41.000Z</time>
      </trkpt>
      <trkpt lat="44.85758" lon="5.53465">
        <ele>1422</ele>
        <time>2024-05-11T13:39:43.000Z</time>
      </trkpt>
      <trkpt lat="44.85759" lon="5.5347">
        <ele>1420.3</ele>
        <time>2024-05-11T13:39:48.000Z</time>
      </trkpt>
      <trkpt lat="44.85759" lon="5.53471">
        <ele>1419.7</ele>
        <time>2024-05-11T13:39:50.000Z</time>
      </trkpt>
      <trkpt lat="44.8576" lon="5.53488">
        <ele>1414.7</ele>
        <time>2024-05-11T13:39:54.000Z</time>
      </trkpt>
      <trkpt lat="44.8576" lon="5.53493">
        <ele>1413.1</ele>
        <time>2024-05-11T13:39:57.000Z</time>
      </trkpt>
      <trkpt lat="44.85759" lon="5.53496">
        <ele>1412.2</ele>
        <time>2024-05-11T13:40:00.000Z</time>
      </trkpt>
      <trkpt lat="44.85759" lon="5.53498">
        <ele>1411.6</ele>
        <time>2024-05-11T13:40:02.000Z</time>
      </trkpt>
      <trkpt lat="44.85758" lon="5.53502">
        <ele>1410.3</ele>
        <time>2024-05-11T13:40:09.000Z</time>
      </trkpt>
      <trkpt lat="44.85758" lon="5.53505">
        <ele>1409.8</ele>
        <time>2024-05-11T13:40:14.000Z</time>
      </trkpt>
      <trkpt lat="44.85758" lon="5.53505">
        <ele>1409.7</ele>
        <time>2024-05-11T13:40:15.000Z</time>
      </trkpt>
      <trkpt lat="44.8576" lon="5.53506">
        <ele>1409.5</ele>
        <time>2024-05-11T13:40:19.000Z</time>
      </trkpt>
      <trkpt lat="44.85761" lon="5.53507">
        <ele>1409.6</ele>
        <time>2024-05-11T13:40:21.000Z</time>
      </trkpt>
      <trkpt lat="44.85763" lon="5.53507">
        <ele>1409.7</ele>
        <time>2024-05-11T13:40:24.000Z</time>
      </trkpt>
      <trkpt lat="44.85765" lon="5.53511">
        <ele>1408.8</ele>
        <time>2024-05-11T13:40:29.000Z</time>
      </trkpt>
      <trkpt lat="44.85765" lon="5.53512">
        <ele>1408.5</ele>
        <time>2024-05-11T13:40:31.000Z</time>
      </trkpt>
      <trkpt lat="44.85767" lon="5.53517">
        <ele>1407.4</ele>
        <time>2024-05-11T13:40:36.000Z</time>
      </trkpt>
      <trkpt lat="44.85768" lon="5.53518">
        <ele>1407.2</ele>
        <time>2024-05-11T13:40:37.000Z</time>
      </trkpt>
      <trkpt lat="44.8577" lon="5.53524">
        <ele>1405.9</ele>
        <time>2024-05-11T13:40:42.000Z</time>
      </trkpt>
      <trkpt lat="44.85768" lon="5.53528">
        <ele>1404.6</ele>
        <time>2024-05-11T13:40:45.000Z</time>
      </trkpt>
      <trkpt lat="44.85769" lon="5.53535">
        <ele>1403.5</ele>
        <time>2024-05-11T13:40:49.000Z</time>
      </trkpt>
      <trkpt lat="44.85771" lon="5.53538">
        <ele>1403.1</ele>
        <time>2024-05-11T13:40:51.000Z</time>
      </trkpt>
      <trkpt lat="44.85771" lon="5.53543">
        <ele>1402.3</ele>
        <time>2024-05-11T13:40:55.000Z</time>
      </trkpt>
      <trkpt lat="44.85771" lon="5.53546">
        <ele>1401.8</ele>
        <time>2024-05-11T13:40:57.000Z</time>
      </trkpt>
      <trkpt lat="44.85774" lon="5.53549">
        <ele>1401.3</ele>
        <time>2024-05-11T13:41:01.000Z</time>
      </trkpt>
      <trkpt lat="44.85771" lon="5.53552">
        <ele>1400.9</ele>
        <time>2024-05-11T13:41:03.000Z</time>
      </trkpt>
      <trkpt lat="44.85771" lon="5.53558">
        <ele>1400</ele>
        <time>2024-05-11T13:41:08.000Z</time>
      </trkpt>
      <trkpt lat="44.85774" lon="5.53559">
        <ele>1399.7</ele>
        <time>2024-05-11T13:41:12.000Z</time>
      </trkpt>
      <trkpt lat="44.85774" lon="5.53559">
        <ele>1399.8</ele>
        <time>2024-05-11T13:41:14.000Z</time>
      </trkpt>
      <trkpt lat="44.85773" lon="5.5356">
        <ele>1399.7</ele>
        <time>2024-05-11T13:41:19.000Z</time>
      </trkpt>
      <trkpt lat="44.85769" lon="5.53563">
        <ele>1399.5</ele>
        <time>2024-05-11T13:41:24.000Z</time>
      </trkpt>
      <trkpt lat="44.85769" lon="5.53564">
        <ele>1399.4</ele>
        <time>2024-05-11T13:41:26.000Z</time>
      </trkpt>
      <trkpt lat="44.85769" lon="5.53565">
        <ele>1399.4</ele>
        <time>2024-05-11T13:41:30.000Z</time>
      </trkpt>
      <trkpt lat="44.85769" lon="5.53566">
        <ele>1399.2</ele>
        <time>2024-05-11T13:41:32.000Z</time>
      </trkpt>
      <trkpt lat="44.8577" lon="5.53571">
        <ele>1398.6</ele>
        <time>2024-05-11T13:41:37.000Z</time>
      </trkpt>
      <trkpt lat="44.8577" lon="5.53572">
        <ele>1398.5</ele>
        <time>2024-05-11T13:41:39.000Z</time>
      </trkpt>
      <trkpt lat="44.85771" lon="5.53576">
        <ele>1398.1</ele>
        <time>2024-05-11T13:41:44.000Z</time>
      </trkpt>
      <trkpt lat="44.85771" lon="5.53576">
        <ele>1398</ele>
        <time>2024-05-11T13:41:45.000Z</time>
      </trkpt>
      <trkpt lat="44.85772" lon="5.53581">
        <ele>1397.5</ele>
        <time>2024-05-11T13:41:49.000Z</time>
      </trkpt>
      <trkpt lat="44.85772" lon="5.53582">
        <ele>1397.3</ele>
        <time>2024-05-11T13:41:50.000Z</time>
      </trkpt>
      <trkpt lat="44.85772" lon="5.53589">
        <ele>1396.7</ele>
        <time>2024-05-11T13:41:56.000Z</time>
      </trkpt>
      <trkpt lat="44.85772" lon="5.53589">
        <ele>1396.6</ele>
        <time>2024-05-11T13:41:57.000Z</time>
      </trkpt>
      <trkpt lat="44.85774" lon="5.53595">
        <ele>1396</ele>
        <time>2024-05-11T13:42:01.000Z</time>
      </trkpt>
      <trkpt lat="44.85774" lon="5.53598">
        <ele>1395.6</ele>
        <time>2024-05-11T13:42:05.000Z</time>
      </trkpt>
      <trkpt lat="44.85771" lon="5.53601">
        <ele>1395.5</ele>
        <time>2024-05-11T13:42:09.000Z</time>
      </trkpt>
      <trkpt lat="44.8577" lon="5.53601">
        <ele>1395.5</ele>
        <time>2024-05-11T13:42:10.000Z</time>
      </trkpt>
      <trkpt lat="44.8577" lon="5.53603">
        <ele>1395.4</ele>
        <time>2024-05-11T13:42:14.000Z</time>
      </trkpt>
      <trkpt lat="44.85771" lon="5.53603">
        <ele>1395.3</ele>
        <time>2024-05-11T13:42:16.000Z</time>
      </trkpt>
      <trkpt lat="44.85771" lon="5.53607">
        <ele>1394.9</ele>
        <time>2024-05-11T13:42:21.000Z</time>
      </trkpt>
      <trkpt lat="44.85771" lon="5.5361">
        <ele>1394.6</ele>
        <time>2024-05-11T13:42:26.000Z</time>
      </trkpt>
      <trkpt lat="44.85771" lon="5.53611">
        <ele>1394.4</ele>
        <time>2024-05-11T13:42:27.000Z</time>
      </trkpt>
      <trkpt lat="44.85772" lon="5.53615">
        <ele>1393.7</ele>
        <time>2024-05-11T13:42:33.000Z</time>
      </trkpt>
      <trkpt lat="44.85772" lon="5.53616">
        <ele>1393.6</ele>
        <time>2024-05-11T13:42:36.000Z</time>
      </trkpt>
      <trkpt lat="44.85773" lon="5.53616">
        <ele>1393.4</ele>
        <time>2024-05-11T13:42:39.000Z</time>
      </trkpt>
      <trkpt lat="44.85772" lon="5.5362">
        <ele>1392.9</ele>
        <time>2024-05-11T13:42:44.000Z</time>
      </trkpt>
      <trkpt lat="44.85772" lon="5.53622">
        <ele>1392.6</ele>
        <time>2024-05-11T13:42:45.000Z</time>
      </trkpt>
      <trkpt lat="44.85771" lon="5.53623">
        <ele>1392.4</ele>
        <time>2024-05-11T13:42:49.000Z</time>
      </trkpt>
      <trkpt lat="44.85771" lon="5.53626">
        <ele>1392</ele>
        <time>2024-05-11T13:42:53.000Z</time>
      </trkpt>
      <trkpt lat="44.85771" lon="5.53627">
        <ele>1391.9</ele>
        <time>2024-05-11T13:42:55.000Z</time>
      </trkpt>
      <trkpt lat="44.8577" lon="5.5363">
        <ele>1391.4</ele>
        <time>2024-05-11T13:43:00.000Z</time>
      </trkpt>
      <trkpt lat="44.85769" lon="5.53631">
        <ele>1391.3</ele>
        <time>2024-05-11T13:43:01.000Z</time>
      </trkpt>
      <trkpt lat="44.85768" lon="5.53635">
        <ele>1390.7</ele>
        <time>2024-05-11T13:43:07.000Z</time>
      </trkpt>
      <trkpt lat="44.85772" lon="5.5364">
        <ele>1389.5</ele>
        <time>2024-05-11T13:43:11.000Z</time>
      </trkpt>
      <trkpt lat="44.85773" lon="5.53643">
        <ele>1388.7</ele>
        <time>2024-05-11T13:43:14.000Z</time>
      </trkpt>
      <trkpt lat="44.85773" lon="5.5365">
        <ele>1387.3</ele>
        <time>2024-05-11T13:43:19.000Z</time>
      </trkpt>
      <trkpt lat="44.85772" lon="5.53651">
        <ele>1387.1</ele>
        <time>2024-05-11T13:43:20.000Z</time>
      </trkpt>
      <trkpt lat="44.85772" lon="5.53653">
        <ele>1386.7</ele>
        <time>2024-05-11T13:43:25.000Z</time>
      </trkpt>
      <trkpt lat="44.85773" lon="5.53654">
        <ele>1386.4</ele>
        <time>2024-05-11T13:43:26.000Z</time>
      </trkpt>
      <trkpt lat="44.85772" lon="5.53656">
        <ele>1386.1</ele>
        <time>2024-05-11T13:43:32.000Z</time>
      </trkpt>
      <trkpt lat="44.85771" lon="5.53656">
        <ele>1386.2</ele>
        <time>2024-05-11T13:43:36.000Z</time>
      </trkpt>
      <trkpt lat="44.85771" lon="5.53658">
        <ele>1385.8</ele>
        <time>2024-05-11T13:43:38.000Z</time>
      </trkpt>
      <trkpt lat="44.85772" lon="5.5366">
        <ele>1385.2</ele>
        <time>2024-05-11T13:43:40.000Z</time>
      </trkpt>
      <trkpt lat="44.85773" lon="5.53662">
        <ele>1384.6</ele>
        <time>2024-05-11T13:43:43.000Z</time>
      </trkpt>
      <trkpt lat="44.85772" lon="5.53665">
        <ele>1384.1</ele>
        <time>2024-05-11T13:43:46.000Z</time>
      </trkpt>
      <trkpt lat="44.85773" lon="5.53668">
        <ele>1383.5</ele>
        <time>2024-05-11T13:43:49.000Z</time>
      </trkpt>
      <trkpt lat="44.85775" lon="5.53671">
        <ele>1382.3</ele>
        <time>2024-05-11T13:43:53.000Z</time>
      </trkpt>
      <trkpt lat="44.85775" lon="5.53673">
        <ele>1381.8</ele>
        <time>2024-05-11T13:43:55.000Z</time>
      </trkpt>
      <trkpt lat="44.85782" lon="5.53674">
        <ele>1379.9</ele>
        <time>2024-05-11T13:44:03.000Z</time>
      </trkpt>
      <trkpt lat="44.85784" lon="5.53676">
        <ele>1378.9</ele>
        <time>2024-05-11T13:44:06.000Z</time>
      </trkpt>
      <trkpt lat="44.85786" lon="5.53678">
        <ele>1377.7</ele>
        <time>2024-05-11T13:44:10.000Z</time>
      </trkpt>
      <trkpt lat="44.85789" lon="5.53675">
        <ele>1377.7</ele>
        <time>2024-05-11T13:44:16.000Z</time>
      </trkpt>
      <trkpt lat="44.85789" lon="5.53677">
        <ele>1377.3</ele>
        <time>2024-05-11T13:44:23.000Z</time>
      </trkpt>
      <trkpt lat="44.85784" lon="5.5368">
        <ele>1377.9</ele>
        <time>2024-05-11T13:44:28.000Z</time>
      </trkpt>
      <trkpt lat="44.85784" lon="5.53682">
        <ele>1377.6</ele>
        <time>2024-05-11T13:44:32.000Z</time>
      </trkpt>
      <trkpt lat="44.8578" lon="5.53678">
        <ele>1379.6</ele>
        <time>2024-05-11T13:44:38.000Z</time>
      </trkpt>
      <trkpt lat="44.85777" lon="5.53676">
        <ele>1380.8</ele>
        <time>2024-05-11T13:44:44.000Z</time>
      </trkpt>
      <trkpt lat="44.85776" lon="5.53673">
        <ele>1381.7</ele>
        <time>2024-05-11T13:44:49.000Z</time>
      </trkpt>
      <trkpt lat="44.85776" lon="5.53665">
        <ele>1383.6</ele>
        <time>2024-05-11T13:44:55.000Z</time>
      </trkpt>
      <trkpt lat="44.85769" lon="5.5366">
        <ele>1385.6</ele>
        <time>2024-05-11T13:45:01.000Z</time>
      </trkpt>
      <trkpt lat="44.8576" lon="5.53659">
        <ele>1386.9</ele>
        <time>2024-05-11T13:45:07.000Z</time>
      </trkpt>
      <trkpt lat="44.85755" lon="5.53658">
        <ele>1388</ele>
        <time>2024-05-11T13:45:13.000Z</time>
      </trkpt>
      <trkpt lat="44.85752" lon="5.53656">
        <ele>1388.7</ele>
        <time>2024-05-11T13:45:17.000Z</time>
      </trkpt>
      <trkpt lat="44.85747" lon="5.53654">
        <ele>1388.7</ele>
        <time>2024-05-11T13:45:22.000Z</time>
      </trkpt>
      <trkpt lat="44.85746" lon="5.53655">
        <ele>1388.4</ele>
        <time>2024-05-11T13:45:23.000Z</time>
      </trkpt>
      <trkpt lat="44.85744" lon="5.53657">
        <ele>1387.7</ele>
        <time>2024-05-11T13:45:28.000Z</time>
      </trkpt>
      <trkpt lat="44.8574" lon="5.53658">
        <ele>1386.8</ele>
        <time>2024-05-11T13:45:31.000Z</time>
      </trkpt>
      <trkpt lat="44.85737" lon="5.53662">
        <ele>1385.8</ele>
        <time>2024-05-11T13:45:33.000Z</time>
      </trkpt>
      <trkpt lat="44.85734" lon="5.53664">
        <ele>1385</ele>
        <time>2024-05-11T13:45:34.000Z</time>
      </trkpt>
      <trkpt lat="44.8573" lon="5.53665">
        <ele>1384.4</ele>
        <time>2024-05-11T13:45:37.000Z</time>
      </trkpt>
      <trkpt lat="44.8573" lon="5.53666">
        <ele>1384.2</ele>
        <time>2024-05-11T13:45:38.000Z</time>
      </trkpt>
      <trkpt lat="44.8573" lon="5.5367">
        <ele>1383.3</ele>
        <time>2024-05-11T13:45:43.000Z</time>
      </trkpt>
      <trkpt lat="44.85727" lon="5.53673">
        <ele>1382.5</ele>
        <time>2024-05-11T13:45:47.000Z</time>
      </trkpt>
      <trkpt lat="44.85725" lon="5.53673">
        <ele>1382.2</ele>
        <time>2024-05-11T13:45:49.000Z</time>
      </trkpt>
      <trkpt lat="44.85724" lon="5.53674">
        <ele>1381.8</ele>
        <time>2024-05-11T13:45:51.000Z</time>
      </trkpt>
      <trkpt lat="44.85723" lon="5.53678">
        <ele>1381</ele>
        <time>2024-05-11T13:45:55.000Z</time>
      </trkpt>
      <trkpt lat="44.85723" lon="5.53681">
        <ele>1380.6</ele>
        <time>2024-05-11T13:45:57.000Z</time>
      </trkpt>
      <trkpt lat="44.85724" lon="5.53681">
        <ele>1380.6</ele>
        <time>2024-05-11T13:46:00.000Z</time>
      </trkpt>
      <trkpt lat="44.85729" lon="5.53685">
        <ele>1380.5</ele>
        <time>2024-05-11T13:46:03.000Z</time>
      </trkpt>
      <trkpt lat="44.85731" lon="5.53686">
        <ele>1380.3</ele>
        <time>2024-05-11T13:46:04.000Z</time>
      </trkpt>
      <trkpt lat="44.85733" lon="5.53687">
        <ele>1380.2</ele>
        <time>2024-05-11T13:46:05.000Z</time>
      </trkpt>
      <trkpt lat="44.85736" lon="5.53698">
        <ele>1378.3</ele>
        <time>2024-05-11T13:46:11.000Z</time>
      </trkpt>
      <trkpt lat="44.85738" lon="5.53699">
        <ele>1378</ele>
        <time>2024-05-11T13:46:12.000Z</time>
      </trkpt>
      <trkpt lat="44.85739" lon="5.53704">
        <ele>1377.1</ele>
        <time>2024-05-11T13:46:17.000Z</time>
      </trkpt>
      <trkpt lat="44.85742" lon="5.53707">
        <ele>1376.4</ele>
        <time>2024-05-11T13:46:20.000Z</time>
      </trkpt>
      <trkpt lat="44.85746" lon="5.5371">
        <ele>1376</ele>
        <time>2024-05-11T13:46:25.000Z</time>
      </trkpt>
      <trkpt lat="44.85746" lon="5.53714">
        <ele>1374.9</ele>
        <time>2024-05-11T13:46:29.000Z</time>
      </trkpt>
      <trkpt lat="44.85747" lon="5.53715">
        <ele>1374.7</ele>
        <time>2024-05-11T13:46:30.000Z</time>
      </trkpt>
      <trkpt lat="44.85749" lon="5.53722">
        <ele>1373.2</ele>
        <time>2024-05-11T13:46:35.000Z</time>
      </trkpt>
      <trkpt lat="44.85749" lon="5.53725">
        <ele>1372.5</ele>
        <time>2024-05-11T13:46:37.000Z</time>
      </trkpt>
      <trkpt lat="44.85747" lon="5.5373">
        <ele>1371.3</ele>
        <time>2024-05-11T13:46:40.000Z</time>
      </trkpt>
      <trkpt lat="44.85742" lon="5.53739">
        <ele>1369.4</ele>
        <time>2024-05-11T13:46:46.000Z</time>
      </trkpt>
      <trkpt lat="44.85739" lon="5.53741">
        <ele>1368.9</ele>
        <time>2024-05-11T13:46:48.000Z</time>
      </trkpt>
      <trkpt lat="44.85738" lon="5.53743">
        <ele>1368.4</ele>
        <time>2024-05-11T13:46:51.000Z</time>
      </trkpt>
      <trkpt lat="44.85734" lon="5.53744">
        <ele>1368.2</ele>
        <time>2024-05-11T13:46:55.000Z</time>
      </trkpt>
      <trkpt lat="44.85733" lon="5.53746">
        <ele>1367.8</ele>
        <time>2024-05-11T13:46:57.000Z</time>
      </trkpt>
      <trkpt lat="44.85733" lon="5.53748">
        <ele>1367.5</ele>
        <time>2024-05-11T13:46:59.000Z</time>
      </trkpt>
      <trkpt lat="44.85726" lon="5.5375">
        <ele>1367</ele>
        <time>2024-05-11T13:47:04.000Z</time>
      </trkpt>
      <trkpt lat="44.85723" lon="5.53753">
        <ele>1366.2</ele>
        <time>2024-05-11T13:47:07.000Z</time>
      </trkpt>
      <trkpt lat="44.8572" lon="5.53754">
        <ele>1365.7</ele>
        <time>2024-05-11T13:47:12.000Z</time>
      </trkpt>
      <trkpt lat="44.85719" lon="5.53754">
        <ele>1365.5</ele>
        <time>2024-05-11T13:47:13.000Z</time>
      </trkpt>
      <trkpt lat="44.85725" lon="5.53758">
        <ele>1365.1</ele>
        <time>2024-05-11T13:47:20.000Z</time>
      </trkpt>
      <trkpt lat="44.85728" lon="5.53762">
        <ele>1363.9</ele>
        <time>2024-05-11T13:47:25.000Z</time>
      </trkpt>
      <trkpt lat="44.85727" lon="5.53769">
        <ele>1362.3</ele>
        <time>2024-05-11T13:47:30.000Z</time>
      </trkpt>
      <trkpt lat="44.85726" lon="5.5377">
        <ele>1361.9</ele>
        <time>2024-05-11T13:47:32.000Z</time>
      </trkpt>
      <trkpt lat="44.85726" lon="5.53774">
        <ele>1361</ele>
        <time>2024-05-11T13:47:38.000Z</time>
      </trkpt>
      <trkpt lat="44.85725" lon="5.53775">
        <ele>1360.7</ele>
        <time>2024-05-11T13:47:39.000Z</time>
      </trkpt>
      <trkpt lat="44.85725" lon="5.53777">
        <ele>1360.1</ele>
        <time>2024-05-11T13:47:44.000Z</time>
      </trkpt>
      <trkpt lat="44.85725" lon="5.53779">
        <ele>1359.7</ele>
        <time>2024-05-11T13:47:47.000Z</time>
      </trkpt>
      <trkpt lat="44.85724" lon="5.53782">
        <ele>1358.8</ele>
        <time>2024-05-11T13:47:50.000Z</time>
      </trkpt>
      <trkpt lat="44.85724" lon="5.53788">
        <ele>1357</ele>
        <time>2024-05-11T13:47:56.000Z</time>
      </trkpt>
      <trkpt lat="44.85722" lon="5.53794">
        <ele>1355.3</ele>
        <time>2024-05-11T13:48:03.000Z</time>
      </trkpt>
      <trkpt lat="44.85722" lon="5.53796">
        <ele>1354.7</ele>
        <time>2024-05-11T13:48:05.000Z</time>
      </trkpt>
      <trkpt lat="44.85721" lon="5.53802">
        <ele>1352.8</ele>
        <time>2024-05-11T13:48:09.000Z</time>
      </trkpt>
      <trkpt lat="44.85724" lon="5.53808">
        <ele>1351.3</ele>
        <time>2024-05-11T13:48:13.000Z</time>
      </trkpt>
      <trkpt lat="44.85725" lon="5.53811">
        <ele>1350.5</ele>
        <time>2024-05-11T13:48:17.000Z</time>
      </trkpt>
      <trkpt lat="44.85727" lon="5.53817">
        <ele>1348.6</ele>
        <time>2024-05-11T13:48:21.000Z</time>
      </trkpt>
      <trkpt lat="44.85731" lon="5.5382">
        <ele>1348</ele>
        <time>2024-05-11T13:48:24.000Z</time>
      </trkpt>
      <trkpt lat="44.85734" lon="5.53818">
        <ele>1348.4</ele>
        <time>2024-05-11T13:48:27.000Z</time>
      </trkpt>
      <trkpt lat="44.85735" lon="5.5382">
        <ele>1347.9</ele>
        <time>2024-05-11T13:48:30.000Z</time>
      </trkpt>
      <trkpt lat="44.8574" lon="5.53822">
        <ele>1347.3</ele>
        <time>2024-05-11T13:48:35.000Z</time>
      </trkpt>
      <trkpt lat="44.85742" lon="5.53825">
        <ele>1346.4</ele>
        <time>2024-05-11T13:48:40.000Z</time>
      </trkpt>
      <trkpt lat="44.85742" lon="5.53826">
        <ele>1346.2</ele>
        <time>2024-05-11T13:48:43.000Z</time>
      </trkpt>
      <trkpt lat="44.85742" lon="5.53825">
        <ele>1346.3</ele>
        <time>2024-05-11T13:48:45.000Z</time>
      </trkpt>
      <trkpt lat="44.85741" lon="5.53827">
        <ele>1345.9</ele>
        <time>2024-05-11T13:48:50.000Z</time>
      </trkpt>
      <trkpt lat="44.85737" lon="5.53827">
        <ele>1346</ele>
        <time>2024-05-11T13:48:55.000Z</time>
      </trkpt>
      <trkpt lat="44.85736" lon="5.53826">
        <ele>1346.2</ele>
        <time>2024-05-11T13:48:56.000Z</time>
      </trkpt>
      <trkpt lat="44.85733" lon="5.53823">
        <ele>1347</ele>
        <time>2024-05-11T13:49:01.000Z</time>
      </trkpt>
      <trkpt lat="44.85727" lon="5.53824">
        <ele>1346.7</ele>
        <time>2024-05-11T13:49:07.000Z</time>
      </trkpt>
      <trkpt lat="44.85726" lon="5.53823">
        <ele>1346.9</ele>
        <time>2024-05-11T13:49:08.000Z</time>
      </trkpt>
      <trkpt lat="44.85723" lon="5.53823">
        <ele>1347.1</ele>
        <time>2024-05-11T13:49:12.000Z</time>
      </trkpt>
      <trkpt lat="44.85715" lon="5.53823">
        <ele>1345.8</ele>
        <time>2024-05-11T13:49:15.000Z</time>
      </trkpt>
      <trkpt lat="44.85713" lon="5.53823">
        <ele>1345.7</ele>
        <time>2024-05-11T13:49:17.000Z</time>
      </trkpt>
      <trkpt lat="44.85712" lon="5.53817">
        <ele>1347.2</ele>
        <time>2024-05-11T13:49:22.000Z</time>
      </trkpt>
      <trkpt lat="44.85711" lon="5.53817">
        <ele>1347.1</ele>
        <time>2024-05-11T13:49:23.000Z</time>
      </trkpt>
      <trkpt lat="44.85712" lon="5.53817">
        <ele>1347.1</ele>
        <time>2024-05-11T13:49:28.000Z</time>
      </trkpt>
      <trkpt lat="44.85711" lon="5.53817">
        <ele>1347.1</ele>
        <time>2024-05-11T13:49:33.000Z</time>
      </trkpt>
      <trkpt lat="44.85712" lon="5.53816">
        <ele>1347.4</ele>
        <time>2024-05-11T13:49:36.000Z</time>
      </trkpt>
      <trkpt lat="44.85712" lon="5.53814">
        <ele>1348</ele>
        <time>2024-05-11T13:49:38.000Z</time>
      </trkpt>
      <trkpt lat="44.85711" lon="5.5381">
        <ele>1349</ele>
        <time>2024-05-11T13:49:41.000Z</time>
      </trkpt>
      <trkpt lat="44.85709" lon="5.53809">
        <ele>1349.1</ele>
        <time>2024-05-11T13:49:43.000Z</time>
      </trkpt>
      <trkpt lat="44.85709" lon="5.53809">
        <ele>1349.1</ele>
        <time>2024-05-11T13:49:49.000Z</time>
      </trkpt>
      <trkpt lat="44.85709" lon="5.53811">
        <ele>1348.6</ele>
        <time>2024-05-11T13:49:57.000Z</time>
      </trkpt>
      <trkpt lat="44.85709" lon="5.53819">
        <ele>1346.2</ele>
        <time>2024-05-11T13:50:02.000Z</time>
      </trkpt>
      <trkpt lat="44.85709" lon="5.53821">
        <ele>1345.6</ele>
        <time>2024-05-11T13:50:03.000Z</time>
      </trkpt>
      <trkpt lat="44.85709" lon="5.53824">
        <ele>1344.9</ele>
        <time>2024-05-11T13:50:05.000Z</time>
      </trkpt>
      <trkpt lat="44.8571" lon="5.53828">
        <ele>1343.9</ele>
        <time>2024-05-11T13:50:08.000Z</time>
      </trkpt>
      <trkpt lat="44.85711" lon="5.53829">
        <ele>1343.7</ele>
        <time>2024-05-11T13:50:09.000Z</time>
      </trkpt>
      <trkpt lat="44.85713" lon="5.53831">
        <ele>1343.5</ele>
        <time>2024-05-11T13:50:12.000Z</time>
      </trkpt>
      <trkpt lat="44.85715" lon="5.53835">
        <ele>1342.4</ele>
        <time>2024-05-11T13:50:16.000Z</time>
      </trkpt>
      <trkpt lat="44.85715" lon="5.53837">
        <ele>1342</ele>
        <time>2024-05-11T13:50:17.000Z</time>
      </trkpt>
      <trkpt lat="44.85716" lon="5.53843">
        <ele>1340.2</ele>
        <time>2024-05-11T13:50:22.000Z</time>
      </trkpt>
      <trkpt lat="44.85715" lon="5.53845">
        <ele>1339.5</ele>
        <time>2024-05-11T13:50:24.000Z</time>
      </trkpt>
      <trkpt lat="44.85716" lon="5.53846">
        <ele>1339.4</ele>
        <time>2024-05-11T13:50:29.000Z</time>
      </trkpt>
      <trkpt lat="44.85717" lon="5.53846">
        <ele>1339.4</ele>
        <time>2024-05-11T13:50:31.000Z</time>
      </trkpt>
      <trkpt lat="44.85719" lon="5.53847">
        <ele>1339.3</ele>
        <time>2024-05-11T13:50:36.000Z</time>
      </trkpt>
      <trkpt lat="44.8572" lon="5.53847">
        <ele>1339.4</ele>
        <time>2024-05-11T13:50:38.000Z</time>
      </trkpt>
      <trkpt lat="44.85723" lon="5.53848">
        <ele>1339.4</ele>
        <time>2024-05-11T13:50:41.000Z</time>
      </trkpt>
      <trkpt lat="44.85724" lon="5.53848">
        <ele>1339.2</ele>
        <time>2024-05-11T13:50:44.000Z</time>
      </trkpt>
      <trkpt lat="44.85724" lon="5.53849">
        <ele>1339</ele>
        <time>2024-05-11T13:50:45.000Z</time>
      </trkpt>
      <trkpt lat="44.85727" lon="5.53851">
        <ele>1338.3</ele>
        <time>2024-05-11T13:50:49.000Z</time>
      </trkpt>
      <trkpt lat="44.8573" lon="5.53855">
        <ele>1337.3</ele>
        <time>2024-05-11T13:50:53.000Z</time>
      </trkpt>
      <trkpt lat="44.85728" lon="5.53858">
        <ele>1336.3</ele>
        <time>2024-05-11T13:50:55.000Z</time>
      </trkpt>
      <trkpt lat="44.8573" lon="5.53862">
        <ele>1335</ele>
        <time>2024-05-11T13:51:01.000Z</time>
      </trkpt>
      <trkpt lat="44.85729" lon="5.53861">
        <ele>1335.3</ele>
        <time>2024-05-11T13:51:04.000Z</time>
      </trkpt>
      <trkpt lat="44.85729" lon="5.5386">
        <ele>1335.7</ele>
        <time>2024-05-11T13:51:05.000Z</time>
      </trkpt>
      <trkpt lat="44.85728" lon="5.5386">
        <ele>1335.7</ele>
        <time>2024-05-11T13:51:09.000Z</time>
      </trkpt>
      <trkpt lat="44.85726" lon="5.53863">
        <ele>1334.8</ele>
        <time>2024-05-11T13:51:11.000Z</time>
      </trkpt>
      <trkpt lat="44.85724" lon="5.53868">
        <ele>1333.4</ele>
        <time>2024-05-11T13:51:15.000Z</time>
      </trkpt>
      <trkpt lat="44.85722" lon="5.53865">
        <ele>1334</ele>
        <time>2024-05-11T13:51:19.000Z</time>
      </trkpt>
      <trkpt lat="44.8572" lon="5.53863">
        <ele>1334.3</ele>
        <time>2024-05-11T13:51:22.000Z</time>
      </trkpt>
      <trkpt lat="44.85718" lon="5.53862">
        <ele>1334.6</ele>
        <time>2024-05-11T13:51:26.000Z</time>
      </trkpt>
      <trkpt lat="44.85718" lon="5.53861">
        <ele>1334.7</ele>
        <time>2024-05-11T13:51:27.000Z</time>
      </trkpt>
      <trkpt lat="44.85716" lon="5.5386">
        <ele>1335</ele>
        <time>2024-05-11T13:51:30.000Z</time>
      </trkpt>
      <trkpt lat="44.85715" lon="5.53859">
        <ele>1335</ele>
        <time>2024-05-11T13:51:33.000Z</time>
      </trkpt>
      <trkpt lat="44.85714" lon="5.53859">
        <ele>1335.1</ele>
        <time>2024-05-11T13:51:34.000Z</time>
      </trkpt>
      <trkpt lat="44.85714" lon="5.53856">
        <ele>1335.8</ele>
        <time>2024-05-11T13:51:37.000Z</time>
      </trkpt>
      <trkpt lat="44.85708" lon="5.53855">
        <ele>1335.7</ele>
        <time>2024-05-11T13:51:40.000Z</time>
      </trkpt>
      <trkpt lat="44.85707" lon="5.53855">
        <ele>1335.6</ele>
        <time>2024-05-11T13:51:41.000Z</time>
      </trkpt>
      <trkpt lat="44.85701" lon="5.53853">
        <ele>1335.6</ele>
        <time>2024-05-11T13:51:49.000Z</time>
      </trkpt>
      <trkpt lat="44.857" lon="5.53853">
        <ele>1335.7</ele>
        <time>2024-05-11T13:51:50.000Z</time>
      </trkpt>
      <trkpt lat="44.85695" lon="5.53852">
        <ele>1335.2</ele>
        <time>2024-05-11T13:51:55.000Z</time>
      </trkpt>
      <trkpt lat="44.85693" lon="5.53854">
        <ele>1334.4</ele>
        <time>2024-05-11T13:52:01.000Z</time>
      </trkpt>
      <trkpt lat="44.85693" lon="5.53855">
        <ele>1334.4</ele>
        <time>2024-05-11T13:52:02.000Z</time>
      </trkpt>
      <trkpt lat="44.85698" lon="5.53857">
        <ele>1334.4</ele>
        <time>2024-05-11T13:52:07.000Z</time>
      </trkpt>
      <trkpt lat="44.85698" lon="5.53857">
        <ele>1334.4</ele>
        <time>2024-05-11T13:52:08.000Z</time>
      </trkpt>
      <trkpt lat="44.857" lon="5.53856">
        <ele>1334.6</ele>
        <time>2024-05-11T13:52:12.000Z</time>
      </trkpt>
      <trkpt lat="44.85701" lon="5.53858">
        <ele>1334.2</ele>
        <time>2024-05-11T13:52:16.000Z</time>
      </trkpt>
      <trkpt lat="44.85701" lon="5.53859">
        <ele>1334.1</ele>
        <time>2024-05-11T13:52:21.000Z</time>
      </trkpt>
      <trkpt lat="44.85703" lon="5.53862">
        <ele>1333.5</ele>
        <time>2024-05-11T13:52:23.000Z</time>
      </trkpt>
      <trkpt lat="44.85705" lon="5.53865">
        <ele>1332.9</ele>
        <time>2024-05-11T13:52:26.000Z</time>
      </trkpt>
      <trkpt lat="44.8571" lon="5.53872">
        <ele>1331.5</ele>
        <time>2024-05-11T13:52:32.000Z</time>
      </trkpt>
      <trkpt lat="44.85711" lon="5.53873">
        <ele>1331.3</ele>
        <time>2024-05-11T13:52:33.000Z</time>
      </trkpt>
      <trkpt lat="44.85711" lon="5.5388">
        <ele>1329.4</ele>
        <time>2024-05-11T13:52:38.000Z</time>
      </trkpt>
      <trkpt lat="44.85712" lon="5.53881">
        <ele>1329.4</ele>
        <time>2024-05-11T13:52:41.000Z</time>
      </trkpt>
      <trkpt lat="44.85715" lon="5.53883">
        <ele>1329.1</ele>
        <time>2024-05-11T13:52:46.000Z</time>
      </trkpt>
      <trkpt lat="44.85715" lon="5.53884">
        <ele>1328.8</ele>
        <time>2024-05-11T13:52:48.000Z</time>
      </trkpt>
      <trkpt lat="44.85718" lon="5.53884">
        <ele>1329</ele>
        <time>2024-05-11T13:52:52.000Z</time>
      </trkpt>
      <trkpt lat="44.85721" lon="5.53884">
        <ele>1329.2</ele>
        <time>2024-05-11T13:52:57.000Z</time>
      </trkpt>
      <trkpt lat="44.85721" lon="5.53885">
        <ele>1328.9</ele>
        <time>2024-05-11T13:52:59.000Z</time>
      </trkpt>
      <trkpt lat="44.85722" lon="5.53888">
        <ele>1328.1</ele>
        <time>2024-05-11T13:53:05.000Z</time>
      </trkpt>
      <trkpt lat="44.85727" lon="5.53889">
        <ele>1327.9</ele>
        <time>2024-05-11T13:53:10.000Z</time>
      </trkpt>
      <trkpt lat="44.85727" lon="5.53889">
        <ele>1327.9</ele>
        <time>2024-05-11T13:53:11.000Z</time>
      </trkpt>
      <trkpt lat="44.85728" lon="5.5389">
        <ele>1327.8</ele>
        <time>2024-05-11T13:53:12.000Z</time>
      </trkpt>
      <trkpt lat="44.85728" lon="5.53891">
        <ele>1327.5</ele>
        <time>2024-05-11T13:53:14.000Z</time>
      </trkpt>
      <trkpt lat="44.85728" lon="5.53892">
        <ele>1327.3</ele>
        <time>2024-05-11T13:53:18.000Z</time>
      </trkpt>
      <trkpt lat="44.8573" lon="5.53891">
        <ele>1327.4</ele>
        <time>2024-05-11T13:53:23.000Z</time>
      </trkpt>
      <trkpt lat="44.85731" lon="5.53892">
        <ele>1327.3</ele>
        <time>2024-05-11T13:53:25.000Z</time>
      </trkpt>
      <trkpt lat="44.85734" lon="5.53891">
        <ele>1327.4</ele>
        <time>2024-05-11T13:53:29.000Z</time>
      </trkpt>
      <trkpt lat="44.85737" lon="5.53898">
        <ele>1325.9</ele>
        <time>2024-05-11T13:53:34.000Z</time>
      </trkpt>
      <trkpt lat="44.85738" lon="5.539">
        <ele>1325.4</ele>
        <time>2024-05-11T13:53:37.000Z</time>
      </trkpt>
      <trkpt lat="44.85738" lon="5.53904">
        <ele>1324.5</ele>
        <time>2024-05-11T13:53:42.000Z</time>
      </trkpt>
      <trkpt lat="44.85739" lon="5.53905">
        <ele>1324.2</ele>
        <time>2024-05-11T13:53:44.000Z</time>
      </trkpt>
      <trkpt lat="44.85737" lon="5.5391">
        <ele>1323</ele>
        <time>2024-05-11T13:53:49.000Z</time>
      </trkpt>
      <trkpt lat="44.85734" lon="5.53907">
        <ele>1323.8</ele>
        <time>2024-05-11T13:53:59.000Z</time>
      </trkpt>
      <trkpt lat="44.85735" lon="5.53907">
        <ele>1323.8</ele>
        <time>2024-05-11T13:54:15.000Z</time>
      </trkpt>
      <trkpt lat="44.85738" lon="5.53914">
        <ele>1322.2</ele>
        <time>2024-05-11T13:54:46.000Z</time>
      </trkpt>
      <trkpt lat="44.85738" lon="5.53916">
        <ele>1321.7</ele>
        <time>2024-05-11T13:54:48.000Z</time>
      </trkpt>
      <trkpt lat="44.85737" lon="5.53924">
        <ele>1320.1</ele>
        <time>2024-05-11T13:54:55.000Z</time>
      </trkpt>
      <trkpt lat="44.85737" lon="5.53925">
        <ele>1319.8</ele>
        <time>2024-05-11T13:54:57.000Z</time>
      </trkpt>
      <trkpt lat="44.85736" lon="5.53926">
        <ele>1319.4</ele>
        <time>2024-05-11T13:55:00.000Z</time>
      </trkpt>
      <trkpt lat="44.85736" lon="5.53928">
        <ele>1319.1</ele>
        <time>2024-05-11T13:55:03.000Z</time>
      </trkpt>
      <trkpt lat="44.85737" lon="5.53931">
        <ele>1318.5</ele>
        <time>2024-05-11T13:55:06.000Z</time>
      </trkpt>
      <trkpt lat="44.85739" lon="5.53935">
        <ele>1317.6</ele>
        <time>2024-05-11T13:55:09.000Z</time>
      </trkpt>
      <trkpt lat="44.8574" lon="5.53936">
        <ele>1317.5</ele>
        <time>2024-05-11T13:55:13.000Z</time>
      </trkpt>
      <trkpt lat="44.85737" lon="5.53938">
        <ele>1317</ele>
        <time>2024-05-11T13:55:18.000Z</time>
      </trkpt>
      <trkpt lat="44.85738" lon="5.5394">
        <ele>1316.6</ele>
        <time>2024-05-11T13:55:21.000Z</time>
      </trkpt>
      <trkpt lat="44.85738" lon="5.53943">
        <ele>1315.9</ele>
        <time>2024-05-11T13:55:27.000Z</time>
      </trkpt>
      <trkpt lat="44.85738" lon="5.53944">
        <ele>1315.7</ele>
        <time>2024-05-11T13:55:28.000Z</time>
      </trkpt>
      <trkpt lat="44.85735" lon="5.53946">
        <ele>1315.3</ele>
        <time>2024-05-11T13:55:30.000Z</time>
      </trkpt>
      <trkpt lat="44.85734" lon="5.53948">
        <ele>1314.8</ele>
        <time>2024-05-11T13:55:32.000Z</time>
      </trkpt>
      <trkpt lat="44.85733" lon="5.53948">
        <ele>1314.7</ele>
        <time>2024-05-11T13:55:33.000Z</time>
      </trkpt>
      <trkpt lat="44.85727" lon="5.53956">
        <ele>1313.1</ele>
        <time>2024-05-11T13:55:41.000Z</time>
      </trkpt>
      <trkpt lat="44.85722" lon="5.53958">
        <ele>1312.6</ele>
        <time>2024-05-11T13:55:48.000Z</time>
      </trkpt>
      <trkpt lat="44.85722" lon="5.53959">
        <ele>1312.4</ele>
        <time>2024-05-11T13:55:49.000Z</time>
      </trkpt>
      <trkpt lat="44.8572" lon="5.53965">
        <ele>1311.1</ele>
        <time>2024-05-11T13:55:56.000Z</time>
      </trkpt>
      <trkpt lat="44.85719" lon="5.53966">
        <ele>1311</ele>
        <time>2024-05-11T13:55:57.000Z</time>
      </trkpt>
      <trkpt lat="44.85712" lon="5.53965">
        <ele>1310.6</ele>
        <time>2024-05-11T13:56:02.000Z</time>
      </trkpt>
      <trkpt lat="44.85706" lon="5.53967">
        <ele>1309.9</ele>
        <time>2024-05-11T13:56:06.000Z</time>
      </trkpt>
      <trkpt lat="44.85707" lon="5.53968">
        <ele>1309.7</ele>
        <time>2024-05-11T13:56:07.000Z</time>
      </trkpt>
      <trkpt lat="44.85707" lon="5.5397">
        <ele>1309.4</ele>
        <time>2024-05-11T13:56:12.000Z</time>
      </trkpt>
      <trkpt lat="44.85708" lon="5.53971">
        <ele>1309.2</ele>
        <time>2024-05-11T13:56:14.000Z</time>
      </trkpt>
      <trkpt lat="44.85706" lon="5.53971">
        <ele>1309.1</ele>
        <time>2024-05-11T13:56:19.000Z</time>
      </trkpt>
      <trkpt lat="44.85706" lon="5.53972">
        <ele>1308.9</ele>
        <time>2024-05-11T13:56:22.000Z</time>
      </trkpt>
      <trkpt lat="44.85706" lon="5.53972">
        <ele>1308.8</ele>
        <time>2024-05-11T13:56:27.000Z</time>
      </trkpt>
      <trkpt lat="44.85706" lon="5.53973">
        <ele>1308.7</ele>
        <time>2024-05-11T13:56:29.000Z</time>
      </trkpt>
      <trkpt lat="44.85704" lon="5.53979">
        <ele>1307.5</ele>
        <time>2024-05-11T13:56:34.000Z</time>
      </trkpt>
      <trkpt lat="44.85704" lon="5.53983">
        <ele>1306.8</ele>
        <time>2024-05-11T13:56:37.000Z</time>
      </trkpt>
      <trkpt lat="44.857" lon="5.53985">
        <ele>1306.1</ele>
        <time>2024-05-11T13:56:41.000Z</time>
      </trkpt>
      <trkpt lat="44.857" lon="5.53988">
        <ele>1305.5</ele>
        <time>2024-05-11T13:56:44.000Z</time>
      </trkpt>
      <trkpt lat="44.857" lon="5.53991">
        <ele>1305</ele>
        <time>2024-05-11T13:56:46.000Z</time>
      </trkpt>
      <trkpt lat="44.85698" lon="5.53996">
        <ele>1303.9</ele>
        <time>2024-05-11T13:56:50.000Z</time>
      </trkpt>
      <trkpt lat="44.85696" lon="5.53996">
        <ele>1303.8</ele>
        <time>2024-05-11T13:56:51.000Z</time>
      </trkpt>
      <trkpt lat="44.85691" lon="5.54003">
        <ele>1302.5</ele>
        <time>2024-05-11T13:56:56.000Z</time>
      </trkpt>
      <trkpt lat="44.8569" lon="5.54003">
        <ele>1302.3</ele>
        <time>2024-05-11T13:56:57.000Z</time>
      </trkpt>
      <trkpt lat="44.85688" lon="5.5401">
        <ele>1301.4</ele>
        <time>2024-05-11T13:57:02.000Z</time>
      </trkpt>
      <trkpt lat="44.85689" lon="5.54012">
        <ele>1301.2</ele>
        <time>2024-05-11T13:57:04.000Z</time>
      </trkpt>
      <trkpt lat="44.85689" lon="5.54015">
        <ele>1300.9</ele>
        <time>2024-05-11T13:57:08.000Z</time>
      </trkpt>
      <trkpt lat="44.85682" lon="5.54025">
        <ele>1299.1</ele>
        <time>2024-05-11T13:57:15.000Z</time>
      </trkpt>
      <trkpt lat="44.85681" lon="5.54026">
        <ele>1298.7</ele>
        <time>2024-05-11T13:57:16.000Z</time>
      </trkpt>
      <trkpt lat="44.85679" lon="5.54034">
        <ele>1297.8</ele>
        <time>2024-05-11T13:57:23.000Z</time>
      </trkpt>
      <trkpt lat="44.85678" lon="5.54034">
        <ele>1297.6</ele>
        <time>2024-05-11T13:57:24.000Z</time>
      </trkpt>
      <trkpt lat="44.85675" lon="5.54036">
        <ele>1297.1</ele>
        <time>2024-05-11T13:57:30.000Z</time>
      </trkpt>
      <trkpt lat="44.85673" lon="5.54038">
        <ele>1296.9</ele>
        <time>2024-05-11T13:57:36.000Z</time>
      </trkpt>
      <trkpt lat="44.85672" lon="5.5404">
        <ele>1296.7</ele>
        <time>2024-05-11T13:57:40.000Z</time>
      </trkpt>
      <trkpt lat="44.85671" lon="5.54042">
        <ele>1296.4</ele>
        <time>2024-05-11T13:57:44.000Z</time>
      </trkpt>
      <trkpt lat="44.8567" lon="5.54045">
        <ele>1296</ele>
        <time>2024-05-11T13:57:48.000Z</time>
      </trkpt>
      <trkpt lat="44.8567" lon="5.54046">
        <ele>1295.9</ele>
        <time>2024-05-11T13:57:49.000Z</time>
      </trkpt>
      <trkpt lat="44.85667" lon="5.54048">
        <ele>1295.6</ele>
        <time>2024-05-11T13:57:54.000Z</time>
      </trkpt>
      <trkpt lat="44.85667" lon="5.54049">
        <ele>1295.5</ele>
        <time>2024-05-11T13:57:55.000Z</time>
      </trkpt>
      <trkpt lat="44.85665" lon="5.54051">
        <ele>1295.2</ele>
        <time>2024-05-11T13:57:59.000Z</time>
      </trkpt>
      <trkpt lat="44.85663" lon="5.54053">
        <ele>1294.9</ele>
        <time>2024-05-11T13:58:01.000Z</time>
      </trkpt>
      <trkpt lat="44.85663" lon="5.5406">
        <ele>1294.2</ele>
        <time>2024-05-11T13:58:08.000Z</time>
      </trkpt>
      <trkpt lat="44.8566" lon="5.54065">
        <ele>1293.3</ele>
        <time>2024-05-11T13:58:14.000Z</time>
      </trkpt>
      <trkpt lat="44.8566" lon="5.54066">
        <ele>1293.1</ele>
        <time>2024-05-11T13:58:15.000Z</time>
      </trkpt>
      <trkpt lat="44.85659" lon="5.54073">
        <ele>1292.2</ele>
        <time>2024-05-11T13:58:20.000Z</time>
      </trkpt>
      <trkpt lat="44.85656" lon="5.54074">
        <ele>1291.9</ele>
        <time>2024-05-11T13:58:22.000Z</time>
      </trkpt>
      <trkpt lat="44.85654" lon="5.54078">
        <ele>1291.2</ele>
        <time>2024-05-11T13:58:26.000Z</time>
      </trkpt>
      <trkpt lat="44.85654" lon="5.54082">
        <ele>1290.7</ele>
        <time>2024-05-11T13:58:30.000Z</time>
      </trkpt>
      <trkpt lat="44.85653" lon="5.54082">
        <ele>1290.6</ele>
        <time>2024-05-11T13:58:32.000Z</time>
      </trkpt>
      <trkpt lat="44.85652" lon="5.54084">
        <ele>1290.3</ele>
        <time>2024-05-11T13:58:35.000Z</time>
      </trkpt>
      <trkpt lat="44.8565" lon="5.54087">
        <ele>1289.8</ele>
        <time>2024-05-11T13:58:38.000Z</time>
      </trkpt>
      <trkpt lat="44.8565" lon="5.54088">
        <ele>1289.7</ele>
        <time>2024-05-11T13:58:39.000Z</time>
      </trkpt>
      <trkpt lat="44.85649" lon="5.54095">
        <ele>1288.8</ele>
        <time>2024-05-11T13:58:44.000Z</time>
      </trkpt>
      <trkpt lat="44.85648" lon="5.54096">
        <ele>1288.6</ele>
        <time>2024-05-11T13:58:45.000Z</time>
      </trkpt>
      <trkpt lat="44.85646" lon="5.54104">
        <ele>1287.6</ele>
        <time>2024-05-11T13:58:49.000Z</time>
      </trkpt>
      <trkpt lat="44.85646" lon="5.54107">
        <ele>1287.2</ele>
        <time>2024-05-11T13:58:50.000Z</time>
      </trkpt>
      <trkpt lat="44.85645" lon="5.54112">
        <ele>1286.6</ele>
        <time>2024-05-11T13:58:53.000Z</time>
      </trkpt>
      <trkpt lat="44.85642" lon="5.54117">
        <ele>1285.3</ele>
        <time>2024-05-11T13:58:57.000Z</time>
      </trkpt>
      <trkpt lat="44.85641" lon="5.54118">
        <ele>1285</ele>
        <time>2024-05-11T13:58:58.000Z</time>
      </trkpt>
      <trkpt lat="44.85638" lon="5.5413">
        <ele>1282.6</ele>
        <time>2024-05-11T13:59:04.000Z</time>
      </trkpt>
      <trkpt lat="44.85638" lon="5.5413">
        <ele>1282.4</ele>
        <time>2024-05-11T13:59:05.000Z</time>
      </trkpt>
      <trkpt lat="44.85638" lon="5.54137">
        <ele>1281.3</ele>
        <time>2024-05-11T13:59:10.000Z</time>
      </trkpt>
      <trkpt lat="44.85637" lon="5.54138">
        <ele>1281</ele>
        <time>2024-05-11T13:59:12.000Z</time>
      </trkpt>
      <trkpt lat="44.85636" lon="5.5414">
        <ele>1280.4</ele>
        <time>2024-05-11T13:59:16.000Z</time>
      </trkpt>
      <trkpt lat="44.85635" lon="5.54142">
        <ele>1279.8</ele>
        <time>2024-05-11T13:59:20.000Z</time>
      </trkpt>
      <trkpt lat="44.85634" lon="5.54143">
        <ele>1279.4</ele>
        <time>2024-05-11T13:59:22.000Z</time>
      </trkpt>
      <trkpt lat="44.85632" lon="5.54149">
        <ele>1277.8</ele>
        <time>2024-05-11T13:59:27.000Z</time>
      </trkpt>
      <trkpt lat="44.85632" lon="5.5415">
        <ele>1277.7</ele>
        <time>2024-05-11T13:59:28.000Z</time>
      </trkpt>
      <trkpt lat="44.85633" lon="5.54153">
        <ele>1276.9</ele>
        <time>2024-05-11T13:59:32.000Z</time>
      </trkpt>
      <trkpt lat="44.85632" lon="5.54154">
        <ele>1276.7</ele>
        <time>2024-05-11T13:59:33.000Z</time>
      </trkpt>
      <trkpt lat="44.85633" lon="5.54161">
        <ele>1275</ele>
        <time>2024-05-11T13:59:39.000Z</time>
      </trkpt>
      <trkpt lat="44.85628" lon="5.5417">
        <ele>1272.5</ele>
        <time>2024-05-11T13:59:45.000Z</time>
      </trkpt>
      <trkpt lat="44.8563" lon="5.54173">
        <ele>1272</ele>
        <time>2024-05-11T13:59:46.000Z</time>
      </trkpt>
      <trkpt lat="44.85629" lon="5.54179">
        <ele>1270.6</ele>
        <time>2024-05-11T13:59:51.000Z</time>
      </trkpt>
      <trkpt lat="44.85629" lon="5.5418">
        <ele>1270.4</ele>
        <time>2024-05-11T13:59:52.000Z</time>
      </trkpt>
      <trkpt lat="44.85624" lon="5.54186">
        <ele>1268.8</ele>
        <time>2024-05-11T13:59:57.000Z</time>
      </trkpt>
      <trkpt lat="44.85623" lon="5.54187">
        <ele>1268.5</ele>
        <time>2024-05-11T13:59:58.000Z</time>
      </trkpt>
      <trkpt lat="44.85624" lon="5.54192">
        <ele>1267.4</ele>
        <time>2024-05-11T14:00:03.000Z</time>
      </trkpt>
      <trkpt lat="44.85622" lon="5.54195">
        <ele>1266.7</ele>
        <time>2024-05-11T14:00:06.000Z</time>
      </trkpt>
      <trkpt lat="44.85621" lon="5.54197">
        <ele>1266.3</ele>
        <time>2024-05-11T14:00:09.000Z</time>
      </trkpt>
      <trkpt lat="44.85619" lon="5.54199">
        <ele>1265.8</ele>
        <time>2024-05-11T14:00:15.000Z</time>
      </trkpt>
      <trkpt lat="44.85616" lon="5.54205">
        <ele>1264.4</ele>
        <time>2024-05-11T14:00:23.000Z</time>
      </trkpt>
      <trkpt lat="44.85614" lon="5.5421">
        <ele>1263.3</ele>
        <time>2024-05-11T14:00:29.000Z</time>
      </trkpt>
      <trkpt lat="44.85613" lon="5.54211">
        <ele>1263.1</ele>
        <time>2024-05-11T14:00:30.000Z</time>
      </trkpt>
      <trkpt lat="44.85611" lon="5.54213">
        <ele>1262.8</ele>
        <time>2024-05-11T14:00:34.000Z</time>
      </trkpt>
      <trkpt lat="44.85609" lon="5.54216">
        <ele>1262.1</ele>
        <time>2024-05-11T14:00:36.000Z</time>
      </trkpt>
      <trkpt lat="44.85607" lon="5.54222">
        <ele>1260.9</ele>
        <time>2024-05-11T14:00:40.000Z</time>
      </trkpt>
      <trkpt lat="44.85606" lon="5.54225">
        <ele>1260.5</ele>
        <time>2024-05-11T14:00:42.000Z</time>
      </trkpt>
      <trkpt lat="44.85599" lon="5.54234">
        <ele>1259.3</ele>
        <time>2024-05-11T14:00:49.000Z</time>
      </trkpt>
      <trkpt lat="44.85596" lon="5.54239">
        <ele>1258.6</ele>
        <time>2024-05-11T14:00:55.000Z</time>
      </trkpt>
      <trkpt lat="44.85599" lon="5.54252">
        <ele>1257.4</ele>
        <time>2024-05-11T14:01:01.000Z</time>
      </trkpt>
      <trkpt lat="44.85599" lon="5.54254">
        <ele>1257.3</ele>
        <time>2024-05-11T14:01:02.000Z</time>
      </trkpt>
      <trkpt lat="44.85598" lon="5.5426">
        <ele>1256.8</ele>
        <time>2024-05-11T14:01:08.000Z</time>
      </trkpt>
      <trkpt lat="44.85598" lon="5.54262">
        <ele>1256.7</ele>
        <time>2024-05-11T14:01:10.000Z</time>
      </trkpt>
      <trkpt lat="44.85596" lon="5.54271">
        <ele>1255.9</ele>
        <time>2024-05-11T14:01:17.000Z</time>
      </trkpt>
      <trkpt lat="44.85595" lon="5.54272">
        <ele>1255.8</ele>
        <time>2024-05-11T14:01:18.000Z</time>
      </trkpt>
      <trkpt lat="44.85596" lon="5.54276">
        <ele>1255.6</ele>
        <time>2024-05-11T14:01:24.000Z</time>
      </trkpt>
      <trkpt lat="44.85597" lon="5.54278">
        <ele>1255.5</ele>
        <time>2024-05-11T14:01:27.000Z</time>
      </trkpt>
      <trkpt lat="44.85599" lon="5.54281">
        <ele>1255.4</ele>
        <time>2024-05-11T14:01:32.000Z</time>
      </trkpt>
      <trkpt lat="44.85599" lon="5.54283">
        <ele>1255.3</ele>
        <time>2024-05-11T14:01:36.000Z</time>
      </trkpt>
      <trkpt lat="44.856" lon="5.54286">
        <ele>1255.2</ele>
        <time>2024-05-11T14:01:38.000Z</time>
      </trkpt>
      <trkpt lat="44.856" lon="5.54293">
        <ele>1254.8</ele>
        <time>2024-05-11T14:01:45.000Z</time>
      </trkpt>
      <trkpt lat="44.856" lon="5.54298">
        <ele>1254.6</ele>
        <time>2024-05-11T14:01:49.000Z</time>
      </trkpt>
      <trkpt lat="44.85601" lon="5.54299">
        <ele>1254.6</ele>
        <time>2024-05-11T14:01:52.000Z</time>
      </trkpt>
      <trkpt lat="44.85601" lon="5.54304">
        <ele>1254.4</ele>
        <time>2024-05-11T14:01:56.000Z</time>
      </trkpt>
      <trkpt lat="44.85604" lon="5.54306">
        <ele>1254.4</ele>
        <time>2024-05-11T14:02:00.000Z</time>
      </trkpt>
      <trkpt lat="44.85601" lon="5.54307">
        <ele>1254.2</ele>
        <time>2024-05-11T14:02:03.000Z</time>
      </trkpt>
      <trkpt lat="44.85599" lon="5.5431">
        <ele>1253.9</ele>
        <time>2024-05-11T14:02:08.000Z</time>
      </trkpt>
      <trkpt lat="44.85599" lon="5.54311">
        <ele>1253.8</ele>
        <time>2024-05-11T14:02:10.000Z</time>
      </trkpt>
      <trkpt lat="44.85598" lon="5.54314">
        <ele>1253.4</ele>
        <time>2024-05-11T14:02:17.000Z</time>
      </trkpt>
      <trkpt lat="44.85598" lon="5.54314">
        <ele>1253.4</ele>
        <time>2024-05-11T14:02:18.000Z</time>
      </trkpt>
      <trkpt lat="44.85599" lon="5.54316">
        <ele>1253.4</ele>
        <time>2024-05-11T14:02:28.000Z</time>
      </trkpt>
      <trkpt lat="44.85599" lon="5.54318">
        <ele>1253.3</ele>
        <time>2024-05-11T14:02:29.000Z</time>
      </trkpt>
      <trkpt lat="44.856" lon="5.54318">
        <ele>1253.4</ele>
        <time>2024-05-11T14:02:35.000Z</time>
      </trkpt>
      <trkpt lat="44.856" lon="5.54318">
        <ele>1253.4</ele>
        <time>2024-05-11T14:02:38.000Z</time>
      </trkpt>
      <trkpt lat="44.85601" lon="5.5432">
        <ele>1253.3</ele>
        <time>2024-05-11T14:02:48.000Z</time>
      </trkpt>
      <trkpt lat="44.85601" lon="5.54326">
        <ele>1253</ele>
        <time>2024-05-11T14:03:02.000Z</time>
      </trkpt>
      <trkpt lat="44.85598" lon="5.54345">
        <ele>1251</ele>
        <time>2024-05-11T14:04:06.000Z</time>
      </trkpt>
      <trkpt lat="44.85595" lon="5.5434">
        <ele>1251.1</ele>
        <time>2024-05-11T14:05:02.000Z</time>
      </trkpt>
      <trkpt lat="44.85593" lon="5.54338">
        <ele>1250.9</ele>
        <time>2024-05-11T14:05:05.000Z</time>
      </trkpt>
      <trkpt lat="44.8559" lon="5.54334">
        <ele>1250.9</ele>
        <time>2024-05-11T14:05:11.000Z</time>
      </trkpt>
      <trkpt lat="44.8559" lon="5.54332">
        <ele>1251</ele>
        <time>2024-05-11T14:05:14.000Z</time>
      </trkpt>
      <trkpt lat="44.8559" lon="5.54331">
        <ele>1251.1</ele>
        <time>2024-05-11T14:05:16.000Z</time>
      </trkpt>
      <trkpt lat="44.85587" lon="5.54328">
        <ele>1251.1</ele>
        <time>2024-05-11T14:05:21.000Z</time>
      </trkpt>
      <trkpt lat="44.85583" lon="5.54328">
        <ele>1250.5</ele>
        <time>2024-05-11T14:05:28.000Z</time>
      </trkpt>
      <trkpt lat="44.85582" lon="5.5433">
        <ele>1250.2</ele>
        <time>2024-05-11T14:05:33.000Z</time>
      </trkpt>
      <trkpt lat="44.85578" lon="5.54329">
        <ele>1249.9</ele>
        <time>2024-05-11T14:05:38.000Z</time>
      </trkpt>
      <trkpt lat="44.85576" lon="5.54328">
        <ele>1249.8</ele>
        <time>2024-05-11T14:05:44.000Z</time>
      </trkpt>
      <trkpt lat="44.85572" lon="5.54323">
        <ele>1250.1</ele>
        <time>2024-05-11T14:05:51.000Z</time>
      </trkpt>
      <trkpt lat="44.85567" lon="5.54323">
        <ele>1249.6</ele>
        <time>2024-05-11T14:05:56.000Z</time>
      </trkpt>
      <trkpt lat="44.85567" lon="5.54325">
        <ele>1249.4</ele>
        <time>2024-05-11T14:06:03.000Z</time>
      </trkpt>
      <trkpt lat="44.85567" lon="5.54325">
        <ele>1249.3</ele>
        <time>2024-05-11T14:06:04.000Z</time>
      </trkpt>
      <trkpt lat="44.85568" lon="5.54325">
        <ele>1249.4</ele>
        <time>2024-05-11T14:06:15.000Z</time>
      </trkpt>
      <trkpt lat="44.85568" lon="5.54325">
        <ele>1249.4</ele>
        <time>2024-05-11T14:06:22.000Z</time>
      </trkpt>
      <trkpt lat="44.85564" lon="5.54329">
        <ele>1248.5</ele>
        <time>2024-05-11T14:06:43.000Z</time>
      </trkpt>
      <trkpt lat="44.85565" lon="5.54332">
        <ele>1248.3</ele>
        <time>2024-05-11T14:06:51.000Z</time>
      </trkpt>
      <trkpt lat="44.85566" lon="5.54334">
        <ele>1248.1</ele>
        <time>2024-05-11T14:07:00.000Z</time>
      </trkpt>
      <trkpt lat="44.85565" lon="5.54334">
        <ele>1248</ele>
        <time>2024-05-11T14:07:12.000Z</time>
      </trkpt>
      <trkpt lat="44.85565" lon="5.54333">
        <ele>1248</ele>
        <time>2024-05-11T14:07:13.000Z</time>
      </trkpt>
      <trkpt lat="44.85566" lon="5.54334">
        <ele>1248.1</ele>
        <time>2024-05-11T14:07:24.000Z</time>
      </trkpt>
      <trkpt lat="44.85568" lon="5.54333">
        <ele>1248.4</ele>
        <time>2024-05-11T14:07:47.000Z</time>
      </trkpt>
      <trkpt lat="44.85568" lon="5.54334">
        <ele>1248.3</ele>
        <time>2024-05-11T14:07:50.000Z</time>
      </trkpt>
      <trkpt lat="44.85567" lon="5.54334">
        <ele>1248.1</ele>
        <time>2024-05-11T14:07:56.000Z</time>
      </trkpt>
      <trkpt lat="44.85567" lon="5.54334">
        <ele>1248.1</ele>
        <time>2024-05-11T14:08:07.000Z</time>
      </trkpt>
      <trkpt lat="44.8557" lon="5.54335">
        <ele>1248.4</ele>
        <time>2024-05-11T14:08:10.000Z</time>
      </trkpt>
      <trkpt lat="44.85572" lon="5.54339">
        <ele>1248</ele>
        <time>2024-05-11T14:08:15.000Z</time>
      </trkpt>
      <trkpt lat="44.85564" lon="5.54341">
        <ele>1246.9</ele>
        <time>2024-05-11T14:08:19.000Z</time>
      </trkpt>
      <trkpt lat="44.85564" lon="5.54339">
        <ele>1247</ele>
        <time>2024-05-11T14:08:21.000Z</time>
      </trkpt>
      <trkpt lat="44.85564" lon="5.54338">
        <ele>1247.2</ele>
        <time>2024-05-11T14:08:31.000Z</time>
      </trkpt>
      <trkpt lat="44.85566" lon="5.54336">
        <ele>1247.7</ele>
        <time>2024-05-11T14:08:39.000Z</time>
      </trkpt>
      <trkpt lat="44.85565" lon="5.54335">
        <ele>1247.7</ele>
        <time>2024-05-11T14:08:46.000Z</time>
      </trkpt>
      <trkpt lat="44.85561" lon="5.54337">
        <ele>1247.1</ele>
        <time>2024-05-11T14:08:51.000Z</time>
      </trkpt>
      <trkpt lat="44.8556" lon="5.54338">
        <ele>1246.8</ele>
        <time>2024-05-11T14:08:53.000Z</time>
      </trkpt>
      <trkpt lat="44.85559" lon="5.54341">
        <ele>1246.3</ele>
        <time>2024-05-11T14:08:58.000Z</time>
      </trkpt>
      <trkpt lat="44.85556" lon="5.54338">
        <ele>1246.3</ele>
        <time>2024-05-11T14:09:04.000Z</time>
      </trkpt>
      <trkpt lat="44.85553" lon="5.54339">
        <ele>1246.2</ele>
        <time>2024-05-11T14:09:10.000Z</time>
      </trkpt>
      <trkpt lat="44.85551" lon="5.5434">
        <ele>1246</ele>
        <time>2024-05-11T14:09:16.000Z</time>
      </trkpt>
      <trkpt lat="44.85551" lon="5.54339">
        <ele>1246.1</ele>
        <time>2024-05-11T14:09:18.000Z</time>
      </trkpt>
      <trkpt lat="44.8555" lon="5.54339">
        <ele>1246.1</ele>
        <time>2024-05-11T14:09:23.000Z</time>
      </trkpt>
      <trkpt lat="44.8555" lon="5.54339">
        <ele>1246.1</ele>
        <time>2024-05-11T14:09:27.000Z</time>
      </trkpt>
      <trkpt lat="44.85547" lon="5.5434">
        <ele>1246</ele>
        <time>2024-05-11T14:10:04.000Z</time>
      </trkpt>
      <trkpt lat="44.85544" lon="5.54338">
        <ele>1246.2</ele>
        <time>2024-05-11T14:10:11.000Z</time>
      </trkpt>
      <trkpt lat="44.85542" lon="5.5434">
        <ele>1245.9</ele>
        <time>2024-05-11T14:10:16.000Z</time>
      </trkpt>
      <trkpt lat="44.85537" lon="5.54345">
        <ele>1245</ele>
        <time>2024-05-11T14:10:22.000Z</time>
      </trkpt>
      <trkpt lat="44.85536" lon="5.54347">
        <ele>1244.7</ele>
        <time>2024-05-11T14:10:24.000Z</time>
      </trkpt>
      <trkpt lat="44.85534" lon="5.54353">
        <ele>1243.6</ele>
        <time>2024-05-11T14:10:29.000Z</time>
      </trkpt>
      <trkpt lat="44.85534" lon="5.54354">
        <ele>1243.5</ele>
        <time>2024-05-11T14:10:31.000Z</time>
      </trkpt>
      <trkpt lat="44.85535" lon="5.54357">
        <ele>1243</ele>
        <time>2024-05-11T14:10:35.000Z</time>
      </trkpt>
      <trkpt lat="44.85536" lon="5.54357">
        <ele>1243</ele>
        <time>2024-05-11T14:10:38.000Z</time>
      </trkpt>
      <trkpt lat="44.85533" lon="5.54363">
        <ele>1241.9</ele>
        <time>2024-05-11T14:10:45.000Z</time>
      </trkpt>
      <trkpt lat="44.85529" lon="5.54364">
        <ele>1241.7</ele>
        <time>2024-05-11T14:10:51.000Z</time>
      </trkpt>
      <trkpt lat="44.85524" lon="5.54366">
        <ele>1241.6</ele>
        <time>2024-05-11T14:10:58.000Z</time>
      </trkpt>
      <trkpt lat="44.85522" lon="5.54368">
        <ele>1241.4</ele>
        <time>2024-05-11T14:11:05.000Z</time>
      </trkpt>
      <trkpt lat="44.85517" lon="5.54373">
        <ele>1240.9</ele>
        <time>2024-05-11T14:11:11.000Z</time>
      </trkpt>
      <trkpt lat="44.85513" lon="5.54377">
        <ele>1240.4</ele>
        <time>2024-05-11T14:11:19.000Z</time>
      </trkpt>
      <trkpt lat="44.85514" lon="5.54378">
        <ele>1240.3</ele>
        <time>2024-05-11T14:11:20.000Z</time>
      </trkpt>
      <trkpt lat="44.85512" lon="5.54384">
        <ele>1239.3</ele>
        <time>2024-05-11T14:11:27.000Z</time>
      </trkpt>
      <trkpt lat="44.85511" lon="5.54387">
        <ele>1238.9</ele>
        <time>2024-05-11T14:11:31.000Z</time>
      </trkpt>
      <trkpt lat="44.85511" lon="5.5439">
        <ele>1238.5</ele>
        <time>2024-05-11T14:11:34.000Z</time>
      </trkpt>
      <trkpt lat="44.8551" lon="5.54396">
        <ele>1237.5</ele>
        <time>2024-05-11T14:11:41.000Z</time>
      </trkpt>
      <trkpt lat="44.85509" lon="5.54398">
        <ele>1237.2</ele>
        <time>2024-05-11T14:11:43.000Z</time>
      </trkpt>
      <trkpt lat="44.85509" lon="5.54402">
        <ele>1236.6</ele>
        <time>2024-05-11T14:11:47.000Z</time>
      </trkpt>
      <trkpt lat="44.8551" lon="5.54404">
        <ele>1236.3</ele>
        <time>2024-05-11T14:11:49.000Z</time>
      </trkpt>
      <trkpt lat="44.8551" lon="5.54405">
        <ele>1236.1</ele>
        <time>2024-05-11T14:11:50.000Z</time>
      </trkpt>
      <trkpt lat="44.85513" lon="5.54414">
        <ele>1234.5</ele>
        <time>2024-05-11T14:11:59.000Z</time>
      </trkpt>
      <trkpt lat="44.85513" lon="5.54416">
        <ele>1234.2</ele>
        <time>2024-05-11T14:12:01.000Z</time>
      </trkpt>
      <trkpt lat="44.85513" lon="5.54423">
        <ele>1233.5</ele>
        <time>2024-05-11T14:12:07.000Z</time>
      </trkpt>
      <trkpt lat="44.85513" lon="5.54425">
        <ele>1233.3</ele>
        <time>2024-05-11T14:12:09.000Z</time>
      </trkpt>
      <trkpt lat="44.85514" lon="5.54429">
        <ele>1232.9</ele>
        <time>2024-05-11T14:12:14.000Z</time>
      </trkpt>
      <trkpt lat="44.85516" lon="5.54436">
        <ele>1232.2</ele>
        <time>2024-05-11T14:12:19.000Z</time>
      </trkpt>
      <trkpt lat="44.85516" lon="5.54442">
        <ele>1231.7</ele>
        <time>2024-05-11T14:12:21.000Z</time>
      </trkpt>
      <trkpt lat="44.85518" lon="5.54444">
        <ele>1231.4</ele>
        <time>2024-05-11T14:12:27.000Z</time>
      </trkpt>
      <trkpt lat="44.85518" lon="5.54444">
        <ele>1231.4</ele>
        <time>2024-05-11T14:12:28.000Z</time>
      </trkpt>
      <trkpt lat="44.8552" lon="5.54451">
        <ele>1230.6</ele>
        <time>2024-05-11T14:12:35.000Z</time>
      </trkpt>
      <trkpt lat="44.85521" lon="5.54452">
        <ele>1230.6</ele>
        <time>2024-05-11T14:12:36.000Z</time>
      </trkpt>
      <trkpt lat="44.8552" lon="5.54458">
        <ele>1230</ele>
        <time>2024-05-11T14:12:43.000Z</time>
      </trkpt>
      <trkpt lat="44.85522" lon="5.54461">
        <ele>1229.6</ele>
        <time>2024-05-11T14:12:46.000Z</time>
      </trkpt>
      <trkpt lat="44.85523" lon="5.54464">
        <ele>1229.2</ele>
        <time>2024-05-11T14:12:49.000Z</time>
      </trkpt>
      <trkpt lat="44.85522" lon="5.54468">
        <ele>1228.8</ele>
        <time>2024-05-11T14:12:52.000Z</time>
      </trkpt>
      <trkpt lat="44.85523" lon="5.54471">
        <ele>1228.5</ele>
        <time>2024-05-11T14:12:55.000Z</time>
      </trkpt>
      <trkpt lat="44.85523" lon="5.54475">
        <ele>1228.2</ele>
        <time>2024-05-11T14:13:00.000Z</time>
      </trkpt>
      <trkpt lat="44.85524" lon="5.54478">
        <ele>1227.9</ele>
        <time>2024-05-11T14:13:03.000Z</time>
      </trkpt>
      <trkpt lat="44.85526" lon="5.54481">
        <ele>1227.5</ele>
        <time>2024-05-11T14:13:06.000Z</time>
      </trkpt>
      <trkpt lat="44.85526" lon="5.54486">
        <ele>1227.1</ele>
        <time>2024-05-11T14:13:11.000Z</time>
      </trkpt>
      <trkpt lat="44.85528" lon="5.5449">
        <ele>1226.8</ele>
        <time>2024-05-11T14:13:14.000Z</time>
      </trkpt>
      <trkpt lat="44.85525" lon="5.54498">
        <ele>1226.3</ele>
        <time>2024-05-11T14:13:17.000Z</time>
      </trkpt>
      <trkpt lat="44.85526" lon="5.54504">
        <ele>1225.9</ele>
        <time>2024-05-11T14:13:22.000Z</time>
      </trkpt>
      <trkpt lat="44.85525" lon="5.54509">
        <ele>1225.7</ele>
        <time>2024-05-11T14:13:28.000Z</time>
      </trkpt>
      <trkpt lat="44.85525" lon="5.54511">
        <ele>1225.7</ele>
        <time>2024-05-11T14:13:30.000Z</time>
      </trkpt>
      <trkpt lat="44.85525" lon="5.54514">
        <ele>1225.5</ele>
        <time>2024-05-11T14:13:34.000Z</time>
      </trkpt>
      <trkpt lat="44.85522" lon="5.54522">
        <ele>1225.3</ele>
        <time>2024-05-11T14:13:41.000Z</time>
      </trkpt>
      <trkpt lat="44.85522" lon="5.5453">
        <ele>1224.9</ele>
        <time>2024-05-11T14:13:49.000Z</time>
      </trkpt>
      <trkpt lat="44.85522" lon="5.54531">
        <ele>1224.8</ele>
        <time>2024-05-11T14:13:50.000Z</time>
      </trkpt>
      <trkpt lat="44.85523" lon="5.54538">
        <ele>1224.3</ele>
        <time>2024-05-11T14:13:56.000Z</time>
      </trkpt>
      <trkpt lat="44.85522" lon="5.54538">
        <ele>1224.3</ele>
        <time>2024-05-11T14:13:57.000Z</time>
      </trkpt>
      <trkpt lat="44.85523" lon="5.54545">
        <ele>1223.9</ele>
        <time>2024-05-11T14:14:01.000Z</time>
      </trkpt>
      <trkpt lat="44.85524" lon="5.54547">
        <ele>1223.7</ele>
        <time>2024-05-11T14:14:04.000Z</time>
      </trkpt>
      <trkpt lat="44.85524" lon="5.54548">
        <ele>1223.7</ele>
        <time>2024-05-11T14:14:05.000Z</time>
      </trkpt>
      <trkpt lat="44.85524" lon="5.54561">
        <ele>1222.7</ele>
        <time>2024-05-11T14:14:11.000Z</time>
      </trkpt>
      <trkpt lat="44.85525" lon="5.54565">
        <ele>1222.5</ele>
        <time>2024-05-11T14:14:12.000Z</time>
      </trkpt>
      <trkpt lat="44.85527" lon="5.54573">
        <ele>1221.8</ele>
        <time>2024-05-11T14:14:18.000Z</time>
      </trkpt>
      <trkpt lat="44.85527" lon="5.54574">
        <ele>1221.8</ele>
        <time>2024-05-11T14:14:21.000Z</time>
      </trkpt>
      <trkpt lat="44.85524" lon="5.54576">
        <ele>1221.8</ele>
        <time>2024-05-11T14:14:24.000Z</time>
      </trkpt>
      <trkpt lat="44.85525" lon="5.5458">
        <ele>1221.5</ele>
        <time>2024-05-11T14:14:29.000Z</time>
      </trkpt>
      <trkpt lat="44.85525" lon="5.54581">
        <ele>1221.4</ele>
        <time>2024-05-11T14:14:30.000Z</time>
      </trkpt>
      <trkpt lat="44.85529" lon="5.54586">
        <ele>1220.9</ele>
        <time>2024-05-11T14:14:35.000Z</time>
      </trkpt>
      <trkpt lat="44.8553" lon="5.54587">
        <ele>1220.9</ele>
        <time>2024-05-11T14:14:36.000Z</time>
      </trkpt>
      <trkpt lat="44.85534" lon="5.54592">
        <ele>1220.6</ele>
        <time>2024-05-11T14:14:43.000Z</time>
      </trkpt>
      <trkpt lat="44.85538" lon="5.546">
        <ele>1220.2</ele>
        <time>2024-05-11T14:14:49.000Z</time>
      </trkpt>
      <trkpt lat="44.85539" lon="5.54601">
        <ele>1220.1</ele>
        <time>2024-05-11T14:14:50.000Z</time>
      </trkpt>
      <trkpt lat="44.85543" lon="5.54606">
        <ele>1219.7</ele>
        <time>2024-05-11T14:14:55.000Z</time>
      </trkpt>
      <trkpt lat="44.85545" lon="5.54613">
        <ele>1219.3</ele>
        <time>2024-05-11T14:14:58.000Z</time>
      </trkpt>
      <trkpt lat="44.85544" lon="5.54616">
        <ele>1219.1</ele>
        <time>2024-05-11T14:15:00.000Z</time>
      </trkpt>
      <trkpt lat="44.85545" lon="5.54618">
        <ele>1219</ele>
        <time>2024-05-11T14:15:07.000Z</time>
      </trkpt>
      <trkpt lat="44.85545" lon="5.5462">
        <ele>1218.9</ele>
        <time>2024-05-11T14:15:09.000Z</time>
      </trkpt>
      <trkpt lat="44.85545" lon="5.54627">
        <ele>1218.4</ele>
        <time>2024-05-11T14:15:15.000Z</time>
      </trkpt>
      <trkpt lat="44.85544" lon="5.5463">
        <ele>1218.3</ele>
        <time>2024-05-11T14:15:18.000Z</time>
      </trkpt>
      <trkpt lat="44.85544" lon="5.54632">
        <ele>1218.2</ele>
        <time>2024-05-11T14:15:20.000Z</time>
      </trkpt>
      <trkpt lat="44.85546" lon="5.54633">
        <ele>1218</ele>
        <time>2024-05-11T14:15:22.000Z</time>
      </trkpt>
      <trkpt lat="44.85547" lon="5.54636">
        <ele>1217.8</ele>
        <time>2024-05-11T14:15:56.346Z</time>
        <extensions>
          <visugpx:TrkExtension xmlns:visugpx="https://www.visugpx.com/editgpx/">
            <visugpx:node>20</visugpx:node>
            </visugpx:TrkExtension>
        </extensions>
      </trkpt>
      <trkpt lat="44.85547" lon="5.54636">
        <ele>1217.8</ele>
        <time>2024-05-11T14:16:00.441Z</time>
      </trkpt>
      <trkpt lat="44.85548" lon="5.54648">
        <ele>1217.2</ele>
        <time>2024-05-11T14:18:15.583Z</time>
      </trkpt>
      <trkpt lat="44.85551" lon="5.54645">
        <ele>1217.1</ele>
        <time>2024-05-11T14:19:13.604Z</time>
        <extensions>
          <visugpx:TrkExtension xmlns:visugpx="https://www.visugpx.com/editgpx/">
            <visugpx:node>21</visugpx:node>
            </visugpx:TrkExtension>
        </extensions>
      </trkpt>
      <trkpt lat="44.85554" lon="5.54643">
        <ele>1217</ele>
        <time>2024-05-11T14:20:05.958Z</time>
      </trkpt>
      <trkpt lat="44.85553" lon="5.54642">
        <ele>1217.1</ele>
        <time>2024-05-11T14:20:26.512Z</time>
        <extensions>
          <visugpx:TrkExtension xmlns:visugpx="https://www.visugpx.com/editgpx/">
            <visugpx:node>22</visugpx:node>
            </visugpx:TrkExtension>
        </extensions>
      </trkpt>
      <trkpt lat="44.85553" lon="5.54642">
        <ele>1217.1</ele>
        <time>2024-05-11T14:20:32.000Z</time>
      </trkpt>
      <trkpt lat="44.85556" lon="5.54638">
        <ele>1217.1</ele>
        <time>2024-05-11T14:20:38.000Z</time>
      </trkpt>
      <trkpt lat="44.85559" lon="5.54635">
        <ele>1217.3</ele>
        <time>2024-05-11T14:20:46.000Z</time>
      </trkpt>
      <trkpt lat="44.85563" lon="5.5463">
        <ele>1217.8</ele>
        <time>2024-05-11T14:20:52.000Z</time>
      </trkpt>
      <trkpt lat="44.85566" lon="5.54629">
        <ele>1217.9</ele>
        <time>2024-05-11T14:20:56.000Z</time>
      </trkpt>
      <trkpt lat="44.85569" lon="5.54625">
        <ele>1218.3</ele>
        <time>2024-05-11T14:21:01.000Z</time>
      </trkpt>
      <trkpt lat="44.8557" lon="5.54624">
        <ele>1218.3</ele>
        <time>2024-05-11T14:21:02.000Z</time>
      </trkpt>
      <trkpt lat="44.85577" lon="5.54624">
        <ele>1218.5</ele>
        <time>2024-05-11T14:21:08.000Z</time>
      </trkpt>
      <trkpt lat="44.85581" lon="5.54626">
        <ele>1218.3</ele>
        <time>2024-05-11T14:21:13.000Z</time>
      </trkpt>
      <trkpt lat="44.85583" lon="5.54627">
        <ele>1218.2</ele>
        <time>2024-05-11T14:21:16.000Z</time>
      </trkpt>
      <trkpt lat="44.85587" lon="5.54631">
        <ele>1218.3</ele>
        <time>2024-05-11T14:21:23.000Z</time>
      </trkpt>
      <trkpt lat="44.85589" lon="5.54634">
        <ele>1218.3</ele>
        <time>2024-05-11T14:21:28.000Z</time>
      </trkpt>
      <trkpt lat="44.85597" lon="5.54638">
        <ele>1218.6</ele>
        <time>2024-05-11T14:21:35.000Z</time>
      </trkpt>
      <trkpt lat="44.85601" lon="5.5464">
        <ele>1218.7</ele>
        <time>2024-05-11T14:21:41.000Z</time>
      </trkpt>
      <trkpt lat="44.85606" lon="5.54645">
        <ele>1218.6</ele>
        <time>2024-05-11T14:21:46.000Z</time>
      </trkpt>
      <trkpt lat="44.85608" lon="5.54649">
        <ele>1218.4</ele>
        <time>2024-05-11T14:21:51.000Z</time>
      </trkpt>
      <trkpt lat="44.85613" lon="5.54652">
        <ele>1218.4</ele>
        <time>2024-05-11T14:21:57.000Z</time>
      </trkpt>
      <trkpt lat="44.85621" lon="5.54659">
        <ele>1218.3</ele>
        <time>2024-05-11T14:22:05.000Z</time>
      </trkpt>
      <trkpt lat="44.85626" lon="5.54665">
        <ele>1217.9</ele>
        <time>2024-05-11T14:22:11.000Z</time>
      </trkpt>
      <trkpt lat="44.85628" lon="5.54669">
        <ele>1217.4</ele>
        <time>2024-05-11T14:22:14.000Z</time>
      </trkpt>
      <trkpt lat="44.85637" lon="5.54682">
        <ele>1216.2</ele>
        <time>2024-05-11T14:22:22.000Z</time>
      </trkpt>
      <trkpt lat="44.85638" lon="5.54684">
        <ele>1215.9</ele>
        <time>2024-05-11T14:22:25.000Z</time>
      </trkpt>
      <trkpt lat="44.85641" lon="5.54687">
        <ele>1215.5</ele>
        <time>2024-05-11T14:22:28.000Z</time>
      </trkpt>
      <trkpt lat="44.85646" lon="5.54691">
        <ele>1215.4</ele>
        <time>2024-05-11T14:22:34.000Z</time>
      </trkpt>
      <trkpt lat="44.85648" lon="5.54699">
        <ele>1214</ele>
        <time>2024-05-11T14:22:39.000Z</time>
      </trkpt>
      <trkpt lat="44.8565" lon="5.54701">
        <ele>1214</ele>
        <time>2024-05-11T14:22:41.000Z</time>
      </trkpt>
      <trkpt lat="44.85649" lon="5.54707">
        <ele>1212.7</ele>
        <time>2024-05-11T14:22:47.000Z</time>
      </trkpt>
      <trkpt lat="44.85655" lon="5.54719">
        <ele>1210.8</ele>
        <time>2024-05-11T14:22:55.000Z</time>
      </trkpt>
      <trkpt lat="44.85657" lon="5.54721">
        <ele>1210.4</ele>
        <time>2024-05-11T14:22:57.000Z</time>
      </trkpt>
      <trkpt lat="44.8566" lon="5.54723">
        <ele>1210.4</ele>
        <time>2024-05-11T14:22:58.000Z</time>
      </trkpt>
      <trkpt lat="44.85662" lon="5.54723">
        <ele>1210.4</ele>
        <time>2024-05-11T14:22:59.000Z</time>
      </trkpt>
      <trkpt lat="44.85662" lon="5.54724">
        <ele>1210.3</ele>
        <time>2024-05-11T14:23:01.000Z</time>
      </trkpt>
      <trkpt lat="44.85668" lon="5.54728">
        <ele>1210</ele>
        <time>2024-05-11T14:23:07.000Z</time>
      </trkpt>
      <trkpt lat="44.85671" lon="5.54733">
        <ele>1209.3</ele>
        <time>2024-05-11T14:23:11.000Z</time>
      </trkpt>
      <trkpt lat="44.85674" lon="5.54736">
        <ele>1209.2</ele>
        <time>2024-05-11T14:23:14.000Z</time>
      </trkpt>
      <trkpt lat="44.8568" lon="5.54743">
        <ele>1208.6</ele>
        <time>2024-05-11T14:23:20.000Z</time>
      </trkpt>
      <trkpt lat="44.85683" lon="5.54745">
        <ele>1208.4</ele>
        <time>2024-05-11T14:23:26.000Z</time>
      </trkpt>
      <trkpt lat="44.85685" lon="5.54748">
        <ele>1208.1</ele>
        <time>2024-05-11T14:23:32.000Z</time>
      </trkpt>
      <trkpt lat="44.85689" lon="5.54751">
        <ele>1208.1</ele>
        <time>2024-05-11T14:23:38.000Z</time>
      </trkpt>
      <trkpt lat="44.85691" lon="5.54753">
        <ele>1207.8</ele>
        <time>2024-05-11T14:23:43.000Z</time>
      </trkpt>
      <trkpt lat="44.85698" lon="5.54758">
        <ele>1207.6</ele>
        <time>2024-05-11T14:23:48.000Z</time>
      </trkpt>
      <trkpt lat="44.85702" lon="5.54761">
        <ele>1207.4</ele>
        <time>2024-05-11T14:23:54.000Z</time>
      </trkpt>
      <trkpt lat="44.85708" lon="5.54765">
        <ele>1207.3</ele>
        <time>2024-05-11T14:23:58.000Z</time>
      </trkpt>
      <trkpt lat="44.85715" lon="5.54772">
        <ele>1206.4</ele>
        <time>2024-05-11T14:24:05.000Z</time>
      </trkpt>
      <trkpt lat="44.85718" lon="5.54774">
        <ele>1206.4</ele>
        <time>2024-05-11T14:24:09.000Z</time>
      </trkpt>
      <trkpt lat="44.8573" lon="5.54779">
        <ele>1207.2</ele>
        <time>2024-05-11T14:24:16.000Z</time>
      </trkpt>
      <trkpt lat="44.85731" lon="5.54792">
        <ele>1203.7</ele>
        <time>2024-05-11T14:24:23.000Z</time>
      </trkpt>
      <trkpt lat="44.85738" lon="5.54797">
        <ele>1203.6</ele>
        <time>2024-05-11T14:24:30.000Z</time>
      </trkpt>
      <trkpt lat="44.85741" lon="5.548">
        <ele>1203.2</ele>
        <time>2024-05-11T14:24:36.000Z</time>
      </trkpt>
      <trkpt lat="44.85744" lon="5.54806">
        <ele>1201.9</ele>
        <time>2024-05-11T14:24:43.000Z</time>
      </trkpt>
      <trkpt lat="44.85748" lon="5.54811">
        <ele>1200.9</ele>
        <time>2024-05-11T14:24:49.000Z</time>
      </trkpt>
      <trkpt lat="44.85757" lon="5.54819">
        <ele>1200.7</ele>
        <time>2024-05-11T14:24:57.000Z</time>
      </trkpt>
      <trkpt lat="44.85763" lon="5.54829">
        <ele>1199.2</ele>
        <time>2024-05-11T14:25:04.000Z</time>
      </trkpt>
      <trkpt lat="44.8577" lon="5.54835">
        <ele>1198.9</ele>
        <time>2024-05-11T14:25:11.000Z</time>
      </trkpt>
      <trkpt lat="44.85773" lon="5.54839">
        <ele>1198.6</ele>
        <time>2024-05-11T14:25:16.000Z</time>
      </trkpt>
      <trkpt lat="44.85774" lon="5.5484">
        <ele>1198.7</ele>
        <time>2024-05-11T14:25:22.000Z</time>
      </trkpt>
      <trkpt lat="44.85777" lon="5.54842">
        <ele>1199</ele>
        <time>2024-05-11T14:25:27.000Z</time>
      </trkpt>
      <trkpt lat="44.85782" lon="5.54845">
        <ele>1199.6</ele>
        <time>2024-05-11T14:25:33.000Z</time>
      </trkpt>
      <trkpt lat="44.85784" lon="5.54848">
        <ele>1199.6</ele>
        <time>2024-05-11T14:25:37.000Z</time>
      </trkpt>
      <trkpt lat="44.85789" lon="5.54851">
        <ele>1200.3</ele>
        <time>2024-05-11T14:25:41.000Z</time>
      </trkpt>
      <trkpt lat="44.85795" lon="5.54856">
        <ele>1200.9</ele>
        <time>2024-05-11T14:25:46.000Z</time>
      </trkpt>
      <trkpt lat="44.85804" lon="5.54855">
        <ele>1203.7</ele>
        <time>2024-05-11T14:25:53.000Z</time>
      </trkpt>
      <trkpt lat="44.8581" lon="5.54861">
        <ele>1203.9</ele>
        <time>2024-05-11T14:25:59.000Z</time>
      </trkpt>
      <trkpt lat="44.85812" lon="5.5487">
        <ele>1203.5</ele>
        <time>2024-05-11T14:26:05.000Z</time>
      </trkpt>
      <trkpt lat="44.85819" lon="5.54867">
        <ele>1205.1</ele>
        <time>2024-05-11T14:26:11.000Z</time>
      </trkpt>
      <trkpt lat="44.85827" lon="5.5487">
        <ele>1206.6</ele>
        <time>2024-05-11T14:26:18.000Z</time>
      </trkpt>
      <trkpt lat="44.85834" lon="5.54873">
        <ele>1207.8</ele>
        <time>2024-05-11T14:26:23.000Z</time>
      </trkpt>
      <trkpt lat="44.85835" lon="5.54876">
        <ele>1207.8</ele>
        <time>2024-05-11T14:26:30.000Z</time>
      </trkpt>
      <trkpt lat="44.8584" lon="5.54877">
        <ele>1208.6</ele>
        <time>2024-05-11T14:26:36.000Z</time>
      </trkpt>
      <trkpt lat="44.8584" lon="5.54877">
        <ele>1208.7</ele>
        <time>2024-05-11T14:26:37.000Z</time>
      </trkpt>
      <trkpt lat="44.85846" lon="5.54882">
        <ele>1209.3</ele>
        <time>2024-05-11T14:26:45.000Z</time>
      </trkpt>
      <trkpt lat="44.85851" lon="5.54888">
        <ele>1209.9</ele>
        <time>2024-05-11T14:26:51.000Z</time>
      </trkpt>
      <trkpt lat="44.85857" lon="5.54893">
        <ele>1211.2</ele>
        <time>2024-05-11T14:26:58.000Z</time>
      </trkpt>
      <trkpt lat="44.85864" lon="5.54902">
        <ele>1212.1</ele>
        <time>2024-05-11T14:27:05.000Z</time>
      </trkpt>
      <trkpt lat="44.8587" lon="5.54909">
        <ele>1212.1</ele>
        <time>2024-05-11T14:27:11.000Z</time>
      </trkpt>
      <trkpt lat="44.85876" lon="5.54915">
        <ele>1212</ele>
        <time>2024-05-11T14:27:17.000Z</time>
      </trkpt>
      <trkpt lat="44.85879" lon="5.54917">
        <ele>1212</ele>
        <time>2024-05-11T14:27:19.000Z</time>
      </trkpt>
      <trkpt lat="44.85881" lon="5.54919">
        <ele>1211.8</ele>
        <time>2024-05-11T14:27:20.000Z</time>
      </trkpt>
      <trkpt lat="44.85881" lon="5.54923">
        <ele>1211.4</ele>
        <time>2024-05-11T14:27:23.000Z</time>
      </trkpt>
      <trkpt lat="44.85885" lon="5.54928">
        <ele>1210.9</ele>
        <time>2024-05-11T14:27:29.000Z</time>
      </trkpt>
      <trkpt lat="44.85889" lon="5.54934">
        <ele>1210.1</ele>
        <time>2024-05-11T14:27:36.000Z</time>
      </trkpt>
      <trkpt lat="44.85891" lon="5.54937">
        <ele>1209.7</ele>
        <time>2024-05-11T14:27:40.000Z</time>
      </trkpt>
      <trkpt lat="44.85893" lon="5.5494">
        <ele>1209.4</ele>
        <time>2024-05-11T14:27:44.000Z</time>
      </trkpt>
      <trkpt lat="44.85896" lon="5.54945">
        <ele>1208.9</ele>
        <time>2024-05-11T14:27:50.000Z</time>
      </trkpt>
      <trkpt lat="44.85896" lon="5.54946">
        <ele>1208.8</ele>
        <time>2024-05-11T14:27:51.000Z</time>
      </trkpt>
      <trkpt lat="44.859" lon="5.5495">
        <ele>1208.3</ele>
        <time>2024-05-11T14:27:57.000Z</time>
      </trkpt>
      <trkpt lat="44.85901" lon="5.54952">
        <ele>1208.1</ele>
        <time>2024-05-11T14:27:59.000Z</time>
      </trkpt>
      <trkpt lat="44.85909" lon="5.54955">
        <ele>1207.6</ele>
        <time>2024-05-11T14:28:03.000Z</time>
      </trkpt>
      <trkpt lat="44.85912" lon="5.5496">
        <ele>1206.9</ele>
        <time>2024-05-11T14:28:07.000Z</time>
      </trkpt>
      <trkpt lat="44.85912" lon="5.54962">
        <ele>1206.6</ele>
        <time>2024-05-11T14:28:08.000Z</time>
      </trkpt>
      <trkpt lat="44.85917" lon="5.54969">
        <ele>1205.5</ele>
        <time>2024-05-11T14:28:13.000Z</time>
      </trkpt>
      <trkpt lat="44.85918" lon="5.5497">
        <ele>1205.3</ele>
        <time>2024-05-11T14:28:14.000Z</time>
      </trkpt>
      <trkpt lat="44.85922" lon="5.54974">
        <ele>1204.6</ele>
        <time>2024-05-11T14:28:20.000Z</time>
      </trkpt>
      <trkpt lat="44.85923" lon="5.54976">
        <ele>1204.2</ele>
        <time>2024-05-11T14:28:23.000Z</time>
      </trkpt>
      <trkpt lat="44.85923" lon="5.54977">
        <ele>1204.1</ele>
        <time>2024-05-11T14:28:24.000Z</time>
      </trkpt>
      <trkpt lat="44.85924" lon="5.54978">
        <ele>1204</ele>
        <time>2024-05-11T14:28:26.000Z</time>
      </trkpt>
      <trkpt lat="44.85929" lon="5.54979">
        <ele>1203.7</ele>
        <time>2024-05-11T14:28:31.000Z</time>
      </trkpt>
      <trkpt lat="44.85932" lon="5.54979">
        <ele>1203.6</ele>
        <time>2024-05-11T14:28:36.000Z</time>
      </trkpt>
      <trkpt lat="44.85935" lon="5.54982">
        <ele>1203.2</ele>
        <time>2024-05-11T14:28:39.000Z</time>
      </trkpt>
      <trkpt lat="44.85937" lon="5.54984">
        <ele>1202.9</ele>
        <time>2024-05-11T14:28:43.000Z</time>
      </trkpt>
      <trkpt lat="44.85941" lon="5.54992">
        <ele>1201.9</ele>
        <time>2024-05-11T14:28:49.000Z</time>
      </trkpt>
      <trkpt lat="44.85943" lon="5.54994">
        <ele>1201.6</ele>
        <time>2024-05-11T14:28:51.000Z</time>
      </trkpt>
      <trkpt lat="44.85949" lon="5.54999">
        <ele>1201.3</ele>
        <time>2024-05-11T14:28:55.000Z</time>
      </trkpt>
      <trkpt lat="44.85955" lon="5.55004">
        <ele>1201</ele>
        <time>2024-05-11T14:28:59.000Z</time>
      </trkpt>
      <trkpt lat="44.85959" lon="5.55005">
        <ele>1201.1</ele>
        <time>2024-05-11T14:29:02.000Z</time>
      </trkpt>
      <trkpt lat="44.85963" lon="5.55008">
        <ele>1201</ele>
        <time>2024-05-11T14:29:07.000Z</time>
      </trkpt>
      <trkpt lat="44.8597" lon="5.55009">
        <ele>1201.3</ele>
        <time>2024-05-11T14:29:10.000Z</time>
      </trkpt>
      <trkpt lat="44.85976" lon="5.5501">
        <ele>1201.7</ele>
        <time>2024-05-11T14:29:13.000Z</time>
      </trkpt>
      <trkpt lat="44.85981" lon="5.55014">
        <ele>1201.9</ele>
        <time>2024-05-11T14:29:20.000Z</time>
      </trkpt>
      <trkpt lat="44.85984" lon="5.55019">
        <ele>1201.7</ele>
        <time>2024-05-11T14:29:26.000Z</time>
      </trkpt>
      <trkpt lat="44.85986" lon="5.5502">
        <ele>1201.9</ele>
        <time>2024-05-11T14:29:32.000Z</time>
      </trkpt>
      <trkpt lat="44.85988" lon="5.55021">
        <ele>1201.9</ele>
        <time>2024-05-11T14:29:37.000Z</time>
      </trkpt>
      <trkpt lat="44.85991" lon="5.55026">
        <ele>1201.5</ele>
        <time>2024-05-11T14:29:44.000Z</time>
      </trkpt>
      <trkpt lat="44.86002" lon="5.55034">
        <ele>1201.4</ele>
        <time>2024-05-11T14:29:51.000Z</time>
      </trkpt>
      <trkpt lat="44.8601" lon="5.55041">
        <ele>1201.1</ele>
        <time>2024-05-11T14:29:57.000Z</time>
      </trkpt>
      <trkpt lat="44.86019" lon="5.55046">
        <ele>1200.9</ele>
        <time>2024-05-11T14:30:02.000Z</time>
      </trkpt>
      <trkpt lat="44.86022" lon="5.55053">
        <ele>1200.2</ele>
        <time>2024-05-11T14:30:07.000Z</time>
      </trkpt>
      <trkpt lat="44.86029" lon="5.55053">
        <ele>1200.4</ele>
        <time>2024-05-11T14:30:12.000Z</time>
      </trkpt>
      <trkpt lat="44.86034" lon="5.55061">
        <ele>1200.1</ele>
        <time>2024-05-11T14:30:18.000Z</time>
      </trkpt>
      <trkpt lat="44.86039" lon="5.55061">
        <ele>1200.3</ele>
        <time>2024-05-11T14:30:24.000Z</time>
      </trkpt>
      <trkpt lat="44.86045" lon="5.5506">
        <ele>1200.8</ele>
        <time>2024-05-11T14:30:31.000Z</time>
      </trkpt>
      <trkpt lat="44.86049" lon="5.55061">
        <ele>1201</ele>
        <time>2024-05-11T14:30:37.000Z</time>
      </trkpt>
      <trkpt lat="44.86054" lon="5.55063">
        <ele>1201.1</ele>
        <time>2024-05-11T14:30:42.000Z</time>
      </trkpt>
      <trkpt lat="44.86057" lon="5.55061">
        <ele>1201.5</ele>
        <time>2024-05-11T14:30:47.000Z</time>
      </trkpt>
      <trkpt lat="44.86062" lon="5.55063">
        <ele>1201.7</ele>
        <time>2024-05-11T14:30:52.000Z</time>
      </trkpt>
      <trkpt lat="44.86066" lon="5.55065">
        <ele>1201.9</ele>
        <time>2024-05-11T14:30:56.000Z</time>
      </trkpt>
      <trkpt lat="44.86074" lon="5.5507">
        <ele>1202.1</ele>
        <time>2024-05-11T14:31:02.000Z</time>
      </trkpt>
      <trkpt lat="44.86079" lon="5.55075">
        <ele>1202.2</ele>
        <time>2024-05-11T14:31:06.000Z</time>
      </trkpt>
      <trkpt lat="44.86082" lon="5.5508">
        <ele>1202.1</ele>
        <time>2024-05-11T14:31:09.000Z</time>
      </trkpt>
      <trkpt lat="44.86086" lon="5.55091">
        <ele>1202.3</ele>
        <time>2024-05-11T14:31:15.000Z</time>
      </trkpt>
      <trkpt lat="44.8609" lon="5.55103">
        <ele>1202.6</ele>
        <time>2024-05-11T14:31:23.000Z</time>
      </trkpt>
      <trkpt lat="44.86091" lon="5.55106">
        <ele>1202.6</ele>
        <time>2024-05-11T14:31:25.000Z</time>
      </trkpt>
      <trkpt lat="44.86094" lon="5.5511">
        <ele>1202.8</ele>
        <time>2024-05-11T14:31:30.000Z</time>
      </trkpt>
      <trkpt lat="44.86096" lon="5.55116">
        <ele>1202.8</ele>
        <time>2024-05-11T14:31:35.000Z</time>
      </trkpt>
      <trkpt lat="44.86097" lon="5.5512">
        <ele>1202.7</ele>
        <time>2024-05-11T14:31:38.000Z</time>
      </trkpt>
      <trkpt lat="44.86098" lon="5.5512">
        <ele>1202.7</ele>
        <time>2024-05-11T14:31:40.000Z</time>
      </trkpt>
      <trkpt lat="44.86101" lon="5.55128">
        <ele>1202.6</ele>
        <time>2024-05-11T14:31:47.000Z</time>
      </trkpt>
      <trkpt lat="44.86102" lon="5.55137">
        <ele>1202.4</ele>
        <time>2024-05-11T14:31:55.000Z</time>
      </trkpt>
      <trkpt lat="44.86102" lon="5.55138">
        <ele>1202.4</ele>
        <time>2024-05-11T14:31:56.000Z</time>
      </trkpt>
      <trkpt lat="44.86102" lon="5.55138">
        <ele>1202.4</ele>
        <time>2024-05-11T14:32:01.000Z</time>
      </trkpt>
      <trkpt lat="44.86101" lon="5.55136">
        <ele>1202.4</ele>
        <time>2024-05-11T14:32:05.000Z</time>
      </trkpt>
      <trkpt lat="44.86101" lon="5.55136">
        <ele>1202.4</ele>
        <time>2024-05-11T14:32:12.000Z</time>
      </trkpt>
      <trkpt lat="44.86101" lon="5.55136">
        <ele>1202.4</ele>
        <time>2024-05-11T14:32:16.000Z</time>
      </trkpt>
      <trkpt lat="44.86104" lon="5.55144">
        <ele>1202.2</ele>
        <time>2024-05-11T14:32:26.000Z</time>
      </trkpt>
      <trkpt lat="44.86104" lon="5.55147">
        <ele>1202</ele>
        <time>2024-05-11T14:32:28.000Z</time>
      </trkpt>
      <trkpt lat="44.86105" lon="5.5515">
        <ele>1201.8</ele>
        <time>2024-05-11T14:32:31.000Z</time>
      </trkpt>
      <trkpt lat="44.86106" lon="5.55162">
        <ele>1201</ele>
        <time>2024-05-11T14:32:40.000Z</time>
      </trkpt>
      <trkpt lat="44.86107" lon="5.55172">
        <ele>1200.6</ele>
        <time>2024-05-11T14:32:47.000Z</time>
      </trkpt>
      <trkpt lat="44.86106" lon="5.55182">
        <ele>1200.4</ele>
        <time>2024-05-11T14:32:54.000Z</time>
      </trkpt>
      <trkpt lat="44.86107" lon="5.5519">
        <ele>1200.4</ele>
        <time>2024-05-11T14:32:58.000Z</time>
      </trkpt>
      <trkpt lat="44.86107" lon="5.55193">
        <ele>1200.3</ele>
        <time>2024-05-11T14:33:00.000Z</time>
      </trkpt>
      <trkpt lat="44.86106" lon="5.55198">
        <ele>1200</ele>
        <time>2024-05-11T14:33:03.000Z</time>
      </trkpt>
      <trkpt lat="44.86104" lon="5.55203">
        <ele>1199.7</ele>
        <time>2024-05-11T14:33:06.000Z</time>
      </trkpt>
      <trkpt lat="44.86104" lon="5.55205">
        <ele>1199.7</ele>
        <time>2024-05-11T14:33:07.000Z</time>
      </trkpt>
      <trkpt lat="44.86106" lon="5.55213">
        <ele>1200</ele>
        <time>2024-05-11T14:33:12.000Z</time>
      </trkpt>
      <trkpt lat="44.86107" lon="5.55215">
        <ele>1200.1</ele>
        <time>2024-05-11T14:33:15.000Z</time>
      </trkpt>
      <trkpt lat="44.86107" lon="5.55225">
        <ele>1200</ele>
        <time>2024-05-11T14:33:22.000Z</time>
      </trkpt>
      <trkpt lat="44.86108" lon="5.55237">
        <ele>1200.2</ele>
        <time>2024-05-11T14:33:29.000Z</time>
      </trkpt>
      <trkpt lat="44.86108" lon="5.55239">
        <ele>1200.3</ele>
        <time>2024-05-11T14:33:31.000Z</time>
      </trkpt>
      <trkpt lat="44.86109" lon="5.55249">
        <ele>1200.4</ele>
        <time>2024-05-11T14:33:37.000Z</time>
      </trkpt>
      <trkpt lat="44.8611" lon="5.55255">
        <ele>1200.5</ele>
        <time>2024-05-11T14:33:42.000Z</time>
      </trkpt>
      <trkpt lat="44.86111" lon="5.55259">
        <ele>1200.7</ele>
        <time>2024-05-11T14:33:45.000Z</time>
      </trkpt>
      <trkpt lat="44.86115" lon="5.55268">
        <ele>1201</ele>
        <time>2024-05-11T14:33:53.000Z</time>
      </trkpt>
      <trkpt lat="44.86118" lon="5.55282">
        <ele>1200.7</ele>
        <time>2024-05-11T14:34:02.000Z</time>
      </trkpt>
      <trkpt lat="44.86121" lon="5.55293">
        <ele>1200.2</ele>
        <time>2024-05-11T14:34:10.000Z</time>
      </trkpt>
      <trkpt lat="44.86122" lon="5.55297">
        <ele>1200.1</ele>
        <time>2024-05-11T14:34:14.000Z</time>
      </trkpt>
      <trkpt lat="44.86124" lon="5.55298">
        <ele>1200.3</ele>
        <time>2024-05-11T14:34:15.000Z</time>
      </trkpt>
      <trkpt lat="44.86125" lon="5.55302">
        <ele>1200.3</ele>
        <time>2024-05-11T14:34:18.000Z</time>
      </trkpt>
      <trkpt lat="44.86127" lon="5.55308">
        <ele>1200.1</ele>
        <time>2024-05-11T14:34:22.000Z</time>
      </trkpt>
      <trkpt lat="44.86127" lon="5.55311">
        <ele>1199.9</ele>
        <time>2024-05-11T14:34:24.000Z</time>
      </trkpt>
      <trkpt lat="44.86129" lon="5.55313">
        <ele>1200</ele>
        <time>2024-05-11T14:34:26.000Z</time>
      </trkpt>
      <trkpt lat="44.86129" lon="5.55313">
        <ele>1200.1</ele>
        <time>2024-05-11T14:34:27.000Z</time>
      </trkpt>
      <trkpt lat="44.8613" lon="5.55316">
        <ele>1200.1</ele>
        <time>2024-05-11T14:34:29.000Z</time>
      </trkpt>
      <trkpt lat="44.86132" lon="5.55322">
        <ele>1199.4</ele>
        <time>2024-05-11T14:34:33.000Z</time>
      </trkpt>
      <trkpt lat="44.86132" lon="5.55325">
        <ele>1199.4</ele>
        <time>2024-05-11T14:34:35.000Z</time>
      </trkpt>
      <trkpt lat="44.86133" lon="5.5533">
        <ele>1198.9</ele>
        <time>2024-05-11T14:34:38.000Z</time>
      </trkpt>
      <trkpt lat="44.86135" lon="5.55331">
        <ele>1199</ele>
        <time>2024-05-11T14:34:40.000Z</time>
      </trkpt>
      <trkpt lat="44.86137" lon="5.55336">
        <ele>1199.1</ele>
        <time>2024-05-11T14:34:43.000Z</time>
      </trkpt>
      <trkpt lat="44.86138" lon="5.55337">
        <ele>1199.4</ele>
        <time>2024-05-11T14:34:46.000Z</time>
      </trkpt>
      <trkpt lat="44.8614" lon="5.55341">
        <ele>1199.8</ele>
        <time>2024-05-11T14:34:50.000Z</time>
      </trkpt>
      <trkpt lat="44.86143" lon="5.55349">
        <ele>1199.9</ele>
        <time>2024-05-11T14:34:58.000Z</time>
      </trkpt>
      <trkpt lat="44.86145" lon="5.55353">
        <ele>1199.9</ele>
        <time>2024-05-11T14:35:01.000Z</time>
      </trkpt>
      <trkpt lat="44.86145" lon="5.55359">
        <ele>1199.6</ele>
        <time>2024-05-11T14:35:05.000Z</time>
      </trkpt>
      <trkpt lat="44.86148" lon="5.55368">
        <ele>1199.4</ele>
        <time>2024-05-11T14:35:11.000Z</time>
      </trkpt>
      <trkpt lat="44.86149" lon="5.5537">
        <ele>1199.4</ele>
        <time>2024-05-11T14:35:12.000Z</time>
      </trkpt>
      <trkpt lat="44.86152" lon="5.55375">
        <ele>1199.6</ele>
        <time>2024-05-11T14:35:16.000Z</time>
      </trkpt>
      <trkpt lat="44.86155" lon="5.55383">
        <ele>1199.6</ele>
        <time>2024-05-11T14:35:23.000Z</time>
      </trkpt>
      <trkpt lat="44.86158" lon="5.55388">
        <ele>1199.9</ele>
        <time>2024-05-11T14:35:29.000Z</time>
      </trkpt>
      <trkpt lat="44.86162" lon="5.55401">
        <ele>1199</ele>
        <time>2024-05-11T14:35:37.000Z</time>
      </trkpt>
      <trkpt lat="44.86162" lon="5.55403">
        <ele>1198.8</ele>
        <time>2024-05-11T14:35:38.000Z</time>
      </trkpt>
      <trkpt lat="44.86164" lon="5.55409">
        <ele>1198.5</ele>
        <time>2024-05-11T14:35:42.000Z</time>
      </trkpt>
      <trkpt lat="44.86165" lon="5.55411">
        <ele>1198.3</ele>
        <time>2024-05-11T14:35:43.000Z</time>
      </trkpt>
      <trkpt lat="44.86166" lon="5.55413">
        <ele>1198.3</ele>
        <time>2024-05-11T14:35:45.000Z</time>
      </trkpt>
      <trkpt lat="44.86166" lon="5.55419">
        <ele>1197.5</ele>
        <time>2024-05-11T14:35:49.000Z</time>
      </trkpt>
      <trkpt lat="44.86168" lon="5.55424">
        <ele>1197.3</ele>
        <time>2024-05-11T14:35:54.000Z</time>
      </trkpt>
      <trkpt lat="44.86168" lon="5.55426">
        <ele>1197.1</ele>
        <time>2024-05-11T14:35:56.000Z</time>
      </trkpt>
      <trkpt lat="44.86173" lon="5.55435">
        <ele>1197.3</ele>
        <time>2024-05-11T14:36:04.000Z</time>
      </trkpt>
      <trkpt lat="44.86178" lon="5.55444">
        <ele>1197.2</ele>
        <time>2024-05-11T14:36:12.000Z</time>
      </trkpt>
      <trkpt lat="44.86182" lon="5.55453">
        <ele>1196.9</ele>
        <time>2024-05-11T14:36:21.000Z</time>
      </trkpt>
      <trkpt lat="44.86186" lon="5.55456">
        <ele>1197.3</ele>
        <time>2024-05-11T14:36:28.000Z</time>
      </trkpt>
      <trkpt lat="44.86191" lon="5.55462">
        <ele>1197.7</ele>
        <time>2024-05-11T14:36:35.000Z</time>
      </trkpt>
      <trkpt lat="44.86194" lon="5.55464">
        <ele>1198.2</ele>
        <time>2024-05-11T14:36:42.000Z</time>
      </trkpt>
      <trkpt lat="44.86195" lon="5.55468">
        <ele>1198</ele>
        <time>2024-05-11T14:36:48.000Z</time>
      </trkpt>
      <trkpt lat="44.86197" lon="5.5547">
        <ele>1198.3</ele>
        <time>2024-05-11T14:36:54.000Z</time>
      </trkpt>
      <trkpt lat="44.862" lon="5.55475">
        <ele>1198</ele>
        <time>2024-05-11T14:36:59.000Z</time>
      </trkpt>
      <trkpt lat="44.86203" lon="5.5548">
        <ele>1198</ele>
        <time>2024-05-11T14:37:04.000Z</time>
      </trkpt>
      <trkpt lat="44.86204" lon="5.5548">
        <ele>1198.1</ele>
        <time>2024-05-11T14:37:05.000Z</time>
      </trkpt>
      <trkpt lat="44.86208" lon="5.55485">
        <ele>1198.3</ele>
        <time>2024-05-11T14:37:12.000Z</time>
      </trkpt>
      <trkpt lat="44.86213" lon="5.55493">
        <ele>1197.7</ele>
        <time>2024-05-11T14:37:18.000Z</time>
      </trkpt>
      <trkpt lat="44.86213" lon="5.55495">
        <ele>1197.6</ele>
        <time>2024-05-11T14:37:19.000Z</time>
      </trkpt>
      <trkpt lat="44.86214" lon="5.55497">
        <ele>1197.3</ele>
        <time>2024-05-11T14:37:21.000Z</time>
      </trkpt>
      <trkpt lat="44.86217" lon="5.55502">
        <ele>1197.1</ele>
        <time>2024-05-11T14:37:25.000Z</time>
      </trkpt>
      <trkpt lat="44.86221" lon="5.55509">
        <ele>1196.5</ele>
        <time>2024-05-11T14:37:31.000Z</time>
      </trkpt>
      <trkpt lat="44.86224" lon="5.55515">
        <ele>1195.8</ele>
        <time>2024-05-11T14:37:37.000Z</time>
      </trkpt>
      <trkpt lat="44.86225" lon="5.55515">
        <ele>1196</ele>
        <time>2024-05-11T14:37:38.000Z</time>
      </trkpt>
      <trkpt lat="44.86227" lon="5.55519">
        <ele>1195.9</ele>
        <time>2024-05-11T14:37:42.000Z</time>
      </trkpt>
      <trkpt lat="44.86229" lon="5.55522">
        <ele>1195.5</ele>
        <time>2024-05-11T14:37:44.000Z</time>
      </trkpt>
      <trkpt lat="44.8623" lon="5.55524">
        <ele>1195.3</ele>
        <time>2024-05-11T14:37:46.000Z</time>
      </trkpt>
      <trkpt lat="44.86233" lon="5.55528">
        <ele>1195</ele>
        <time>2024-05-11T14:37:49.000Z</time>
      </trkpt>
      <trkpt lat="44.86234" lon="5.5553">
        <ele>1194.6</ele>
        <time>2024-05-11T14:37:51.000Z</time>
      </trkpt>
      <trkpt lat="44.86239" lon="5.55534">
        <ele>1195.3</ele>
        <time>2024-05-11T14:37:56.000Z</time>
      </trkpt>
      <trkpt lat="44.8624" lon="5.55534">
        <ele>1195.3</ele>
        <time>2024-05-11T14:37:57.000Z</time>
      </trkpt>
      <trkpt lat="44.86244" lon="5.55539">
        <ele>1195.3</ele>
        <time>2024-05-11T14:38:01.000Z</time>
      </trkpt>
      <trkpt lat="44.86244" lon="5.55545">
        <ele>1193.7</ele>
        <time>2024-05-11T14:38:04.000Z</time>
      </trkpt>
      <trkpt lat="44.86244" lon="5.55547">
        <ele>1193.5</ele>
        <time>2024-05-11T14:38:05.000Z</time>
      </trkpt>
      <trkpt lat="44.86246" lon="5.55548">
        <ele>1193.7</ele>
        <time>2024-05-11T14:38:07.000Z</time>
      </trkpt>
      <trkpt lat="44.86247" lon="5.5555">
        <ele>1193.4</ele>
        <time>2024-05-11T14:38:09.000Z</time>
      </trkpt>
      <trkpt lat="44.86248" lon="5.55551">
        <ele>1193.5</ele>
        <time>2024-05-11T14:38:11.000Z</time>
      </trkpt>
      <trkpt lat="44.86252" lon="5.55556">
        <ele>1193.4</ele>
        <time>2024-05-11T14:38:14.000Z</time>
      </trkpt>
      <trkpt lat="44.86254" lon="5.55557">
        <ele>1193.6</ele>
        <time>2024-05-11T14:38:16.000Z</time>
      </trkpt>
      <trkpt lat="44.86255" lon="5.5556">
        <ele>1193.2</ele>
        <time>2024-05-11T14:38:18.000Z</time>
      </trkpt>
      <trkpt lat="44.86258" lon="5.55561">
        <ele>1193.6</ele>
        <time>2024-05-11T14:38:21.000Z</time>
      </trkpt>
      <trkpt lat="44.86259" lon="5.55562">
        <ele>1193.4</ele>
        <time>2024-05-11T14:38:22.000Z</time>
      </trkpt>
      <trkpt lat="44.86261" lon="5.55564">
        <ele>1193.6</ele>
        <time>2024-05-11T14:38:25.000Z</time>
      </trkpt>
      <trkpt lat="44.86262" lon="5.55564">
        <ele>1193.8</ele>
        <time>2024-05-11T14:38:26.000Z</time>
      </trkpt>
      <trkpt lat="44.86268" lon="5.5557">
        <ele>1193.7</ele>
        <time>2024-05-11T14:38:33.000Z</time>
      </trkpt>
      <trkpt lat="44.86272" lon="5.55575">
        <ele>1193.5</ele>
        <time>2024-05-11T14:38:39.000Z</time>
      </trkpt>
      <trkpt lat="44.86274" lon="5.55577">
        <ele>1193.4</ele>
        <time>2024-05-11T14:38:41.000Z</time>
      </trkpt>
      <trkpt lat="44.86278" lon="5.55582">
        <ele>1193.3</ele>
        <time>2024-05-11T14:38:47.000Z</time>
      </trkpt>
      <trkpt lat="44.86281" lon="5.55586">
        <ele>1193.2</ele>
        <time>2024-05-11T14:38:51.000Z</time>
      </trkpt>
      <trkpt lat="44.86282" lon="5.55586">
        <ele>1193.3</ele>
        <time>2024-05-11T14:38:52.000Z</time>
      </trkpt>
      <trkpt lat="44.86284" lon="5.55588">
        <ele>1193</ele>
        <time>2024-05-11T14:38:54.000Z</time>
      </trkpt>
      <trkpt lat="44.86287" lon="5.55594">
        <ele>1192</ele>
        <time>2024-05-11T14:38:59.000Z</time>
      </trkpt>
      <trkpt lat="44.86288" lon="5.55596">
        <ele>1191.7</ele>
        <time>2024-05-11T14:39:00.000Z</time>
      </trkpt>
      <trkpt lat="44.86291" lon="5.55603">
        <ele>1190.8</ele>
        <time>2024-05-11T14:39:06.000Z</time>
      </trkpt>
      <trkpt lat="44.86296" lon="5.55605">
        <ele>1191.5</ele>
        <time>2024-05-11T14:39:10.000Z</time>
      </trkpt>
      <trkpt lat="44.86295" lon="5.55606">
        <ele>1191.1</ele>
        <time>2024-05-11T14:39:11.000Z</time>
      </trkpt>
      <trkpt lat="44.86298" lon="5.55608">
        <ele>1191.2</ele>
        <time>2024-05-11T14:39:14.000Z</time>
      </trkpt>
      <trkpt lat="44.86302" lon="5.55611">
        <ele>1191.7</ele>
        <time>2024-05-11T14:39:19.000Z</time>
      </trkpt>
      <trkpt lat="44.86303" lon="5.55613">
        <ele>1191.5</ele>
        <time>2024-05-11T14:39:21.000Z</time>
      </trkpt>
      <trkpt lat="44.86304" lon="5.55614">
        <ele>1191.4</ele>
        <time>2024-05-11T14:39:22.000Z</time>
      </trkpt>
      <trkpt lat="44.86306" lon="5.55618">
        <ele>1191.1</ele>
        <time>2024-05-11T14:39:26.000Z</time>
      </trkpt>
      <trkpt lat="44.86312" lon="5.55626">
        <ele>1189.6</ele>
        <time>2024-05-11T14:39:32.000Z</time>
      </trkpt>
      <trkpt lat="44.86316" lon="5.55629">
        <ele>1189.4</ele>
        <time>2024-05-11T14:39:36.000Z</time>
      </trkpt>
      <trkpt lat="44.86317" lon="5.5563">
        <ele>1189.5</ele>
        <time>2024-05-11T14:39:37.000Z</time>
      </trkpt>
      <trkpt lat="44.86318" lon="5.55631">
        <ele>1189.6</ele>
        <time>2024-05-11T14:39:39.000Z</time>
      </trkpt>
      <trkpt lat="44.86319" lon="5.55632">
        <ele>1189.4</ele>
        <time>2024-05-11T14:39:41.000Z</time>
      </trkpt>
      <trkpt lat="44.86324" lon="5.55642">
        <ele>1187.6</ele>
        <time>2024-05-11T14:39:47.000Z</time>
      </trkpt>
      <trkpt lat="44.86325" lon="5.55643">
        <ele>1187.8</ele>
        <time>2024-05-11T14:39:48.000Z</time>
      </trkpt>
      <trkpt lat="44.86329" lon="5.55647">
        <ele>1187.9</ele>
        <time>2024-05-11T14:39:53.000Z</time>
      </trkpt>
      <trkpt lat="44.86333" lon="5.55652">
        <ele>1187.7</ele>
        <time>2024-05-11T14:39:59.000Z</time>
      </trkpt>
      <trkpt lat="44.86336" lon="5.55657">
        <ele>1187.2</ele>
        <time>2024-05-11T14:40:04.000Z</time>
      </trkpt>
      <trkpt lat="44.86338" lon="5.55659">
        <ele>1187.3</ele>
        <time>2024-05-11T14:40:05.000Z</time>
      </trkpt>
      <trkpt lat="44.86343" lon="5.55662">
        <ele>1188</ele>
        <time>2024-05-11T14:40:08.000Z</time>
      </trkpt>
      <trkpt lat="44.86348" lon="5.55667">
        <ele>1188.1</ele>
        <time>2024-05-11T14:40:13.000Z</time>
      </trkpt>
      <trkpt lat="44.86351" lon="5.55674">
        <ele>1187.4</ele>
        <time>2024-05-11T14:40:17.000Z</time>
      </trkpt>
      <trkpt lat="44.86352" lon="5.55673">
        <ele>1188.1</ele>
        <time>2024-05-11T14:40:19.000Z</time>
      </trkpt>
      <trkpt lat="44.86358" lon="5.55679">
        <ele>1188.5</ele>
        <time>2024-05-11T14:40:27.000Z</time>
      </trkpt>
      <trkpt lat="44.86363" lon="5.55686">
        <ele>1188.1</ele>
        <time>2024-05-11T14:40:33.000Z</time>
      </trkpt>
      <trkpt lat="44.86365" lon="5.55688">
        <ele>1188.1</ele>
        <time>2024-05-11T14:40:35.000Z</time>
      </trkpt>
      <trkpt lat="44.86368" lon="5.55694">
        <ele>1187.2</ele>
        <time>2024-05-11T14:40:40.000Z</time>
      </trkpt>
      <trkpt lat="44.86369" lon="5.55695">
        <ele>1187.2</ele>
        <time>2024-05-11T14:40:42.000Z</time>
      </trkpt>
      <trkpt lat="44.8637" lon="5.55698">
        <ele>1186.9</ele>
        <time>2024-05-11T14:40:45.000Z</time>
      </trkpt>
      <trkpt lat="44.86371" lon="5.557">
        <ele>1186.7</ele>
        <time>2024-05-11T14:40:46.000Z</time>
      </trkpt>
      <trkpt lat="44.86372" lon="5.55703">
        <ele>1186.5</ele>
        <time>2024-05-11T14:40:48.000Z</time>
      </trkpt>
      <trkpt lat="44.86374" lon="5.55706">
        <ele>1186.2</ele>
        <time>2024-05-11T14:40:50.000Z</time>
      </trkpt>
      <trkpt lat="44.86375" lon="5.55706">
        <ele>1186.5</ele>
        <time>2024-05-11T14:40:51.000Z</time>
      </trkpt>
      <trkpt lat="44.86378" lon="5.55707">
        <ele>1186.7</ele>
        <time>2024-05-11T14:40:53.000Z</time>
      </trkpt>
      <trkpt lat="44.86378" lon="5.55708">
        <ele>1186.6</ele>
        <time>2024-05-11T14:40:54.000Z</time>
      </trkpt>
      <trkpt lat="44.86379" lon="5.5571">
        <ele>1186.5</ele>
        <time>2024-05-11T14:40:55.000Z</time>
      </trkpt>
      <trkpt lat="44.86383" lon="5.55714">
        <ele>1186.4</ele>
        <time>2024-05-11T14:40:58.000Z</time>
      </trkpt>
      <trkpt lat="44.86384" lon="5.55715">
        <ele>1186.4</ele>
        <time>2024-05-11T14:40:59.000Z</time>
      </trkpt>
      <trkpt lat="44.86388" lon="5.55719">
        <ele>1186.3</ele>
        <time>2024-05-11T14:41:03.000Z</time>
      </trkpt>
      <trkpt lat="44.86389" lon="5.55721">
        <ele>1186.3</ele>
        <time>2024-05-11T14:41:04.000Z</time>
      </trkpt>
      <trkpt lat="44.8639" lon="5.55722">
        <ele>1186.2</ele>
        <time>2024-05-11T14:41:06.000Z</time>
      </trkpt>
      <trkpt lat="44.86393" lon="5.55729">
        <ele>1185.5</ele>
        <time>2024-05-11T14:41:09.000Z</time>
      </trkpt>
      <trkpt lat="44.86394" lon="5.55729">
        <ele>1185.6</ele>
        <time>2024-05-11T14:41:10.000Z</time>
      </trkpt>
      <trkpt lat="44.86399" lon="5.55734">
        <ele>1185.4</ele>
        <time>2024-05-11T14:41:14.000Z</time>
      </trkpt>
      <trkpt lat="44.864" lon="5.55736">
        <ele>1185.3</ele>
        <time>2024-05-11T14:41:16.000Z</time>
      </trkpt>
      <trkpt lat="44.86401" lon="5.55737">
        <ele>1185.2</ele>
        <time>2024-05-11T14:41:19.000Z</time>
      </trkpt>
      <trkpt lat="44.86403" lon="5.55739">
        <ele>1185.2</ele>
        <time>2024-05-11T14:41:21.000Z</time>
      </trkpt>
      <trkpt lat="44.86406" lon="5.5574">
        <ele>1185.3</ele>
        <time>2024-05-11T14:41:26.000Z</time>
      </trkpt>
      <trkpt lat="44.86411" lon="5.55743">
        <ele>1185.4</ele>
        <time>2024-05-11T14:41:33.000Z</time>
      </trkpt>
      <trkpt lat="44.86412" lon="5.55743">
        <ele>1185.5</ele>
        <time>2024-05-11T14:41:34.000Z</time>
      </trkpt>
      <trkpt lat="44.86413" lon="5.55747">
        <ele>1185.1</ele>
        <time>2024-05-11T14:41:38.000Z</time>
      </trkpt>
      <trkpt lat="44.86416" lon="5.55751">
        <ele>1184.8</ele>
        <time>2024-05-11T14:41:43.000Z</time>
      </trkpt>
      <trkpt lat="44.86417" lon="5.55752">
        <ele>1184.7</ele>
        <time>2024-05-11T14:41:44.000Z</time>
      </trkpt>
      <trkpt lat="44.86422" lon="5.55757">
        <ele>1183.8</ele>
        <time>2024-05-11T14:41:49.000Z</time>
      </trkpt>
      <trkpt lat="44.86426" lon="5.55763">
        <ele>1182.8</ele>
        <time>2024-05-11T14:41:57.000Z</time>
      </trkpt>
      <trkpt lat="44.86428" lon="5.55766">
        <ele>1182.4</ele>
        <time>2024-05-11T14:42:00.000Z</time>
      </trkpt>
      <trkpt lat="44.86431" lon="5.5577">
        <ele>1181.8</ele>
        <time>2024-05-11T14:42:04.000Z</time>
      </trkpt>
      <trkpt lat="44.86436" lon="5.55772">
        <ele>1181.7</ele>
        <time>2024-05-11T14:42:08.000Z</time>
      </trkpt>
      <trkpt lat="44.86438" lon="5.55773">
        <ele>1181.5</ele>
        <time>2024-05-11T14:42:10.000Z</time>
      </trkpt>
      <trkpt lat="44.86439" lon="5.55773">
        <ele>1181.5</ele>
        <time>2024-05-11T14:42:11.000Z</time>
      </trkpt>
      <trkpt lat="44.86441" lon="5.55777">
        <ele>1181</ele>
        <time>2024-05-11T14:42:14.000Z</time>
      </trkpt>
      <trkpt lat="44.86445" lon="5.5578">
        <ele>1180.6</ele>
        <time>2024-05-11T14:42:19.000Z</time>
      </trkpt>
      <trkpt lat="44.86447" lon="5.55782">
        <ele>1180.3</ele>
        <time>2024-05-11T14:42:21.000Z</time>
      </trkpt>
      <trkpt lat="44.86447" lon="5.55783">
        <ele>1180.2</ele>
        <time>2024-05-11T14:42:22.000Z</time>
      </trkpt>
      <trkpt lat="44.8645" lon="5.55786">
        <ele>1179.6</ele>
        <time>2024-05-11T14:42:27.000Z</time>
      </trkpt>
      <trkpt lat="44.86452" lon="5.55789">
        <ele>1179.1</ele>
        <time>2024-05-11T14:42:31.000Z</time>
      </trkpt>
      <trkpt lat="44.86453" lon="5.55791">
        <ele>1178.7</ele>
        <time>2024-05-11T14:42:35.000Z</time>
      </trkpt>
      <trkpt lat="44.86458" lon="5.55797">
        <ele>1177.7</ele>
        <time>2024-05-11T14:42:41.000Z</time>
      </trkpt>
      <trkpt lat="44.86459" lon="5.55798">
        <ele>1177.6</ele>
        <time>2024-05-11T14:42:42.000Z</time>
      </trkpt>
      <trkpt lat="44.86464" lon="5.558">
        <ele>1177.1</ele>
        <time>2024-05-11T14:42:48.000Z</time>
      </trkpt>
      <trkpt lat="44.86465" lon="5.55801">
        <ele>1176.9</ele>
        <time>2024-05-11T14:42:50.000Z</time>
      </trkpt>
      <trkpt lat="44.86468" lon="5.55806">
        <ele>1176.1</ele>
        <time>2024-05-11T14:42:56.000Z</time>
      </trkpt>
      <trkpt lat="44.86472" lon="5.55809">
        <ele>1175.5</ele>
        <time>2024-05-11T14:43:00.000Z</time>
      </trkpt>
      <trkpt lat="44.86471" lon="5.5581">
        <ele>1175.4</ele>
        <time>2024-05-11T14:43:02.000Z</time>
      </trkpt>
      <trkpt lat="44.86473" lon="5.55813">
        <ele>1174.8</ele>
        <time>2024-05-11T14:43:06.000Z</time>
      </trkpt>
      <trkpt lat="44.86475" lon="5.5582">
        <ele>1173.7</ele>
        <time>2024-05-11T14:43:11.000Z</time>
      </trkpt>
      <trkpt lat="44.86475" lon="5.55823">
        <ele>1173.2</ele>
        <time>2024-05-11T14:43:15.000Z</time>
      </trkpt>
      <trkpt lat="44.86475" lon="5.55827">
        <ele>1172.6</ele>
        <time>2024-05-11T14:43:18.000Z</time>
      </trkpt>
      <trkpt lat="44.86476" lon="5.55834">
        <ele>1171.6</ele>
        <time>2024-05-11T14:43:24.000Z</time>
      </trkpt>
      <trkpt lat="44.86476" lon="5.55836">
        <ele>1171.4</ele>
        <time>2024-05-11T14:43:25.000Z</time>
      </trkpt>
      <trkpt lat="44.86475" lon="5.55848">
        <ele>1170.2</ele>
        <time>2024-05-11T14:43:33.000Z</time>
      </trkpt>
      <trkpt lat="44.86476" lon="5.55854">
        <ele>1169.5</ele>
        <time>2024-05-11T14:43:39.000Z</time>
      </trkpt>
      <trkpt lat="44.86476" lon="5.55856">
        <ele>1169.3</ele>
        <time>2024-05-11T14:43:40.000Z</time>
      </trkpt>
      <trkpt lat="44.86475" lon="5.55868">
        <ele>1168.3</ele>
        <time>2024-05-11T14:43:48.000Z</time>
      </trkpt>
      <trkpt lat="44.86475" lon="5.55869">
        <ele>1168.2</ele>
        <time>2024-05-11T14:43:49.000Z</time>
      </trkpt>
      <trkpt lat="44.86476" lon="5.55874">
        <ele>1167.8</ele>
        <time>2024-05-11T14:43:53.000Z</time>
      </trkpt>
      <trkpt lat="44.86477" lon="5.55881">
        <ele>1167.3</ele>
        <time>2024-05-11T14:43:59.000Z</time>
      </trkpt>
      <trkpt lat="44.86479" lon="5.55883">
        <ele>1166.9</ele>
        <time>2024-05-11T14:44:02.000Z</time>
      </trkpt>
      <trkpt lat="44.86482" lon="5.55884">
        <ele>1166.6</ele>
        <time>2024-05-11T14:44:06.000Z</time>
      </trkpt>
      <trkpt lat="44.86485" lon="5.55885">
        <ele>1166.4</ele>
        <time>2024-05-11T14:44:10.000Z</time>
      </trkpt>
      <trkpt lat="44.86486" lon="5.55886">
        <ele>1166.2</ele>
        <time>2024-05-11T14:44:13.000Z</time>
      </trkpt>
      <trkpt lat="44.86488" lon="5.55884">
        <ele>1166.2</ele>
        <time>2024-05-11T14:44:17.000Z</time>
      </trkpt>
      <trkpt lat="44.86492" lon="5.55881">
        <ele>1166.2</ele>
        <time>2024-05-11T14:44:21.000Z</time>
      </trkpt>
      <trkpt lat="44.86494" lon="5.55878">
        <ele>1166.2</ele>
        <time>2024-05-11T14:44:23.000Z</time>
      </trkpt>
      <trkpt lat="44.86498" lon="5.55873">
        <ele>1166.3</ele>
        <time>2024-05-11T14:44:27.000Z</time>
      </trkpt>
      <trkpt lat="44.86499" lon="5.55872">
        <ele>1166.3</ele>
        <time>2024-05-11T14:44:28.000Z</time>
      </trkpt>
      <trkpt lat="44.865" lon="5.55866">
        <ele>1166.7</ele>
        <time>2024-05-11T14:44:31.000Z</time>
      </trkpt>
      <trkpt lat="44.865" lon="5.55863">
        <ele>1166.9</ele>
        <time>2024-05-11T14:44:33.000Z</time>
      </trkpt>
      <trkpt lat="44.86514" lon="5.5586">
        <ele>1164.6</ele>
        <time>2024-05-11T14:44:41.000Z</time>
      </trkpt>
      <trkpt lat="44.86521" lon="5.55857">
        <ele>1163.7</ele>
        <time>2024-05-11T14:44:48.000Z</time>
      </trkpt>
      <trkpt lat="44.86522" lon="5.55855">
        <ele>1163.7</ele>
        <time>2024-05-11T14:44:51.000Z</time>
      </trkpt>
      <trkpt lat="44.86525" lon="5.55852">
        <ele>1163.4</ele>
        <time>2024-05-11T14:44:54.000Z</time>
      </trkpt>
      <trkpt lat="44.8653" lon="5.55849">
        <ele>1163.1</ele>
        <time>2024-05-11T14:45:00.000Z</time>
      </trkpt>
      <trkpt lat="44.86535" lon="5.55848">
        <ele>1162.6</ele>
        <time>2024-05-11T14:45:05.000Z</time>
      </trkpt>
      <trkpt lat="44.86538" lon="5.55847">
        <ele>1162.3</ele>
        <time>2024-05-11T14:45:08.000Z</time>
      </trkpt>
      <trkpt lat="44.8654" lon="5.55845">
        <ele>1162.2</ele>
        <time>2024-05-11T14:45:11.000Z</time>
      </trkpt>
      <trkpt lat="44.86546" lon="5.55845">
        <ele>1161.3</ele>
        <time>2024-05-11T14:45:16.000Z</time>
      </trkpt>
      <trkpt lat="44.86547" lon="5.55845">
        <ele>1161.3</ele>
        <time>2024-05-11T14:45:17.000Z</time>
      </trkpt>
      <trkpt lat="44.86552" lon="5.55843">
        <ele>1160.8</ele>
        <time>2024-05-11T14:45:24.000Z</time>
      </trkpt>
      <trkpt lat="44.86554" lon="5.55843">
        <ele>1160.5</ele>
        <time>2024-05-11T14:45:27.000Z</time>
      </trkpt>
      <trkpt lat="44.86558" lon="5.55843">
        <ele>1160</ele>
        <time>2024-05-11T14:45:31.000Z</time>
      </trkpt>
      <trkpt lat="44.86563" lon="5.55846">
        <ele>1159</ele>
        <time>2024-05-11T14:45:38.000Z</time>
      </trkpt>
      <trkpt lat="44.86565" lon="5.55848">
        <ele>1158.6</ele>
        <time>2024-05-11T14:45:40.000Z</time>
      </trkpt>
      <trkpt lat="44.86566" lon="5.55851">
        <ele>1158.3</ele>
        <time>2024-05-11T14:45:42.000Z</time>
      </trkpt>
      <trkpt lat="44.86565" lon="5.55854">
        <ele>1158.2</ele>
        <time>2024-05-11T14:45:44.000Z</time>
      </trkpt>
      <trkpt lat="44.86564" lon="5.55858">
        <ele>1158.1</ele>
        <time>2024-05-11T14:45:47.000Z</time>
      </trkpt>
      <trkpt lat="44.86561" lon="5.55862">
        <ele>1158.1</ele>
        <time>2024-05-11T14:45:50.000Z</time>
      </trkpt>
      <trkpt lat="44.86557" lon="5.55868">
        <ele>1157.8</ele>
        <time>2024-05-11T14:45:56.000Z</time>
      </trkpt>
      <trkpt lat="44.86555" lon="5.5587">
        <ele>1157.8</ele>
        <time>2024-05-11T14:45:58.000Z</time>
      </trkpt>
      <trkpt lat="44.86555" lon="5.55871">
        <ele>1157.8</ele>
        <time>2024-05-11T14:45:59.000Z</time>
      </trkpt>
      <trkpt lat="44.86552" lon="5.55874">
        <ele>1157.7</ele>
        <time>2024-05-11T14:46:02.000Z</time>
      </trkpt>
      <trkpt lat="44.86551" lon="5.55876">
        <ele>1157.6</ele>
        <time>2024-05-11T14:46:04.000Z</time>
      </trkpt>
      <trkpt lat="44.86547" lon="5.55888">
        <ele>1156.7</ele>
        <time>2024-05-11T14:46:12.000Z</time>
      </trkpt>
      <trkpt lat="44.86546" lon="5.55888">
        <ele>1156.8</ele>
        <time>2024-05-11T14:46:13.000Z</time>
      </trkpt>
      <trkpt lat="44.86546" lon="5.55895">
        <ele>1156.5</ele>
        <time>2024-05-11T14:46:20.000Z</time>
      </trkpt>
      <trkpt lat="44.86544" lon="5.559">
        <ele>1156.5</ele>
        <time>2024-05-11T14:46:25.000Z</time>
      </trkpt>
      <trkpt lat="44.86544" lon="5.55906">
        <ele>1156.2</ele>
        <time>2024-05-11T14:46:29.000Z</time>
      </trkpt>
      <trkpt lat="44.86544" lon="5.55907">
        <ele>1156.1</ele>
        <time>2024-05-11T14:46:30.000Z</time>
      </trkpt>
      <trkpt lat="44.86543" lon="5.55915">
        <ele>1155.7</ele>
        <time>2024-05-11T14:46:35.000Z</time>
      </trkpt>
      <trkpt lat="44.86545" lon="5.55923">
        <ele>1155.5</ele>
        <time>2024-05-11T14:46:41.000Z</time>
      </trkpt>
      <trkpt lat="44.86547" lon="5.55932">
        <ele>1155.2</ele>
        <time>2024-05-11T14:46:47.000Z</time>
      </trkpt>
      <trkpt lat="44.86548" lon="5.55933">
        <ele>1155.1</ele>
        <time>2024-05-11T14:46:48.000Z</time>
      </trkpt>
      <trkpt lat="44.86548" lon="5.55935">
        <ele>1155.1</ele>
        <time>2024-05-11T14:46:49.000Z</time>
      </trkpt>
      <trkpt lat="44.86548" lon="5.55936">
        <ele>1155.1</ele>
        <time>2024-05-11T14:46:50.000Z</time>
      </trkpt>
      <trkpt lat="44.86546" lon="5.55941">
        <ele>1155.6</ele>
        <time>2024-05-11T14:46:54.000Z</time>
      </trkpt>
      <trkpt lat="44.86551" lon="5.55951">
        <ele>1155.5</ele>
        <time>2024-05-11T14:47:01.000Z</time>
      </trkpt>
      <trkpt lat="44.86553" lon="5.55954">
        <ele>1155.4</ele>
        <time>2024-05-11T14:47:03.000Z</time>
      </trkpt>
      <trkpt lat="44.86557" lon="5.55958">
        <ele>1155.3</ele>
        <time>2024-05-11T14:47:06.000Z</time>
      </trkpt>
      <trkpt lat="44.86559" lon="5.55962">
        <ele>1155.4</ele>
        <time>2024-05-11T14:47:10.000Z</time>
      </trkpt>
      <trkpt lat="44.8656" lon="5.55966">
        <ele>1155.6</ele>
        <time>2024-05-11T14:47:13.000Z</time>
      </trkpt>
      <trkpt lat="44.86563" lon="5.5597">
        <ele>1155.7</ele>
        <time>2024-05-11T14:47:17.000Z</time>
      </trkpt>
      <trkpt lat="44.86565" lon="5.55973">
        <ele>1155.8</ele>
        <time>2024-05-11T14:47:20.000Z</time>
      </trkpt>
      <trkpt lat="44.86565" lon="5.55974">
        <ele>1155.8</ele>
        <time>2024-05-11T14:47:21.000Z</time>
      </trkpt>
      <trkpt lat="44.86568" lon="5.55981">
        <ele>1156.2</ele>
        <time>2024-05-11T14:47:25.000Z</time>
      </trkpt>
      <trkpt lat="44.86571" lon="5.55983">
        <ele>1156.2</ele>
        <time>2024-05-11T14:47:28.000Z</time>
      </trkpt>
      <trkpt lat="44.86572" lon="5.55984">
        <ele>1156.2</ele>
        <time>2024-05-11T14:47:30.000Z</time>
      </trkpt>
      <trkpt lat="44.86577" lon="5.55989">
        <ele>1156.2</ele>
        <time>2024-05-11T14:47:36.000Z</time>
      </trkpt>
      <trkpt lat="44.86582" lon="5.55991">
        <ele>1155.9</ele>
        <time>2024-05-11T14:47:41.000Z</time>
      </trkpt>
      <trkpt lat="44.86584" lon="5.55991">
        <ele>1155.7</ele>
        <time>2024-05-11T14:47:42.000Z</time>
      </trkpt>
      <trkpt lat="44.86591" lon="5.55993">
        <ele>1155.1</ele>
        <time>2024-05-11T14:47:47.000Z</time>
      </trkpt>
      <trkpt lat="44.86593" lon="5.55992">
        <ele>1154.7</ele>
        <time>2024-05-11T14:47:49.000Z</time>
      </trkpt>
      <trkpt lat="44.86596" lon="5.55991">
        <ele>1154.2</ele>
        <time>2024-05-11T14:47:52.000Z</time>
      </trkpt>
      <trkpt lat="44.86597" lon="5.55991">
        <ele>1154.1</ele>
        <time>2024-05-11T14:47:53.000Z</time>
      </trkpt>
      <trkpt lat="44.86603" lon="5.55987">
        <ele>1152.7</ele>
        <time>2024-05-11T14:47:58.000Z</time>
      </trkpt>
      <trkpt lat="44.86606" lon="5.55985">
        <ele>1152</ele>
        <time>2024-05-11T14:48:02.000Z</time>
      </trkpt>
      <trkpt lat="44.8661" lon="5.55982">
        <ele>1151</ele>
        <time>2024-05-11T14:48:07.000Z</time>
      </trkpt>
      <trkpt lat="44.86615" lon="5.5598">
        <ele>1149.7</ele>
        <time>2024-05-11T14:48:12.000Z</time>
      </trkpt>
      <trkpt lat="44.86617" lon="5.55978">
        <ele>1149</ele>
        <time>2024-05-11T14:48:15.000Z</time>
      </trkpt>
      <trkpt lat="44.86621" lon="5.55974">
        <ele>1147.5</ele>
        <time>2024-05-11T14:48:22.000Z</time>
      </trkpt>
      <trkpt lat="44.86623" lon="5.55973">
        <ele>1147.1</ele>
        <time>2024-05-11T14:48:24.000Z</time>
      </trkpt>
      <trkpt lat="44.86624" lon="5.55971">
        <ele>1146.5</ele>
        <time>2024-05-11T14:48:26.000Z</time>
      </trkpt>
      <trkpt lat="44.86624" lon="5.5597">
        <ele>1146.4</ele>
        <time>2024-05-11T14:48:27.000Z</time>
      </trkpt>
      <trkpt lat="44.86626" lon="5.5597">
        <ele>1146</ele>
        <time>2024-05-11T14:48:29.000Z</time>
      </trkpt>
      <trkpt lat="44.86627" lon="5.55969">
        <ele>1145.7</ele>
        <time>2024-05-11T14:48:30.000Z</time>
      </trkpt>
      <trkpt lat="44.86631" lon="5.55963">
        <ele>1144.3</ele>
        <time>2024-05-11T14:48:36.000Z</time>
      </trkpt>
      <trkpt lat="44.86632" lon="5.55961">
        <ele>1143.9</ele>
        <time>2024-05-11T14:48:38.000Z</time>
      </trkpt>
      <trkpt lat="44.86633" lon="5.55958">
        <ele>1143.4</ele>
        <time>2024-05-11T14:48:40.000Z</time>
      </trkpt>
      <trkpt lat="44.86635" lon="5.55954">
        <ele>1142.8</ele>
        <time>2024-05-11T14:48:43.000Z</time>
      </trkpt>
      <trkpt lat="44.86638" lon="5.55947">
        <ele>1141.5</ele>
        <time>2024-05-11T14:48:49.000Z</time>
      </trkpt>
      <trkpt lat="44.86639" lon="5.55944">
        <ele>1141.1</ele>
        <time>2024-05-11T14:48:51.000Z</time>
      </trkpt>
      <trkpt lat="44.86638" lon="5.55942">
        <ele>1141.1</ele>
        <time>2024-05-11T14:48:52.000Z</time>
      </trkpt>
      <trkpt lat="44.86638" lon="5.55936">
        <ele>1141.2</ele>
        <time>2024-05-11T14:48:55.000Z</time>
      </trkpt>
      <trkpt lat="44.86642" lon="5.55928">
        <ele>1140.6</ele>
        <time>2024-05-11T14:49:01.000Z</time>
      </trkpt>
      <trkpt lat="44.86645" lon="5.55921">
        <ele>1140.4</ele>
        <time>2024-05-11T14:49:05.000Z</time>
      </trkpt>
      <trkpt lat="44.86646" lon="5.55918">
        <ele>1140.3</ele>
        <time>2024-05-11T14:49:07.000Z</time>
      </trkpt>
      <trkpt lat="44.86652" lon="5.5591">
        <ele>1139.8</ele>
        <time>2024-05-11T14:49:13.000Z</time>
      </trkpt>
      <trkpt lat="44.86654" lon="5.5591">
        <ele>1139.6</ele>
        <time>2024-05-11T14:49:14.000Z</time>
      </trkpt>
      <trkpt lat="44.86653" lon="5.5591">
        <ele>1139.7</ele>
        <time>2024-05-11T14:49:15.000Z</time>
      </trkpt>
      <trkpt lat="44.86652" lon="5.55906">
        <ele>1140</ele>
        <time>2024-05-11T14:49:18.000Z</time>
      </trkpt>
      <trkpt lat="44.8665" lon="5.55894">
        <ele>1140.6</ele>
        <time>2024-05-11T14:49:25.000Z</time>
      </trkpt>
      <trkpt lat="44.8665" lon="5.55892">
        <ele>1140.7</ele>
        <time>2024-05-11T14:49:27.000Z</time>
      </trkpt>
      <trkpt lat="44.8665" lon="5.5589">
        <ele>1140.8</ele>
        <time>2024-05-11T14:49:29.000Z</time>
      </trkpt>
      <trkpt lat="44.86652" lon="5.55887">
        <ele>1140.8</ele>
        <time>2024-05-11T14:49:34.000Z</time>
      </trkpt>
      <trkpt lat="44.86653" lon="5.55885">
        <ele>1141</ele>
        <time>2024-05-11T14:49:35.000Z</time>
      </trkpt>
      <trkpt lat="44.86654" lon="5.55883">
        <ele>1141</ele>
        <time>2024-05-11T14:49:36.000Z</time>
      </trkpt>
      <trkpt lat="44.86658" lon="5.55877">
        <ele>1141.2</ele>
        <time>2024-05-11T14:49:41.000Z</time>
      </trkpt>
      <trkpt lat="44.86659" lon="5.55875">
        <ele>1141.3</ele>
        <time>2024-05-11T14:49:44.000Z</time>
      </trkpt>
      <trkpt lat="44.86662" lon="5.55873">
        <ele>1141.2</ele>
        <time>2024-05-11T14:49:47.000Z</time>
      </trkpt>
      <trkpt lat="44.86669" lon="5.55869">
        <ele>1141</ele>
        <time>2024-05-11T14:49:53.000Z</time>
      </trkpt>
      <trkpt lat="44.8667" lon="5.5587">
        <ele>1140.9</ele>
        <time>2024-05-11T14:49:54.000Z</time>
      </trkpt>
      <trkpt lat="44.86671" lon="5.5587">
        <ele>1140.8</ele>
        <time>2024-05-11T14:49:55.000Z</time>
      </trkpt>
      <trkpt lat="44.86677" lon="5.55875">
        <ele>1140</ele>
        <time>2024-05-11T14:50:00.000Z</time>
      </trkpt>
      <trkpt lat="44.86683" lon="5.55876">
        <ele>1139.5</ele>
        <time>2024-05-11T14:50:05.000Z</time>
      </trkpt>
      <trkpt lat="44.86684" lon="5.55877">
        <ele>1139.4</ele>
        <time>2024-05-11T14:50:06.000Z</time>
      </trkpt>
      <trkpt lat="44.86687" lon="5.55878">
        <ele>1139</ele>
        <time>2024-05-11T14:50:09.000Z</time>
      </trkpt>
      <trkpt lat="44.86692" lon="5.55876">
        <ele>1139</ele>
        <time>2024-05-11T14:50:12.000Z</time>
      </trkpt>
      <trkpt lat="44.86698" lon="5.55873">
        <ele>1139</ele>
        <time>2024-05-11T14:50:17.000Z</time>
      </trkpt>
      <trkpt lat="44.86698" lon="5.55873">
        <ele>1139</ele>
        <time>2024-05-11T14:50:18.000Z</time>
      </trkpt>
      <trkpt lat="44.86704" lon="5.55874">
        <ele>1138.3</ele>
        <time>2024-05-11T14:50:23.000Z</time>
      </trkpt>
      <trkpt lat="44.8671" lon="5.55876">
        <ele>1137.5</ele>
        <time>2024-05-11T14:50:29.000Z</time>
      </trkpt>
      <trkpt lat="44.86712" lon="5.55873">
        <ele>1137.7</ele>
        <time>2024-05-11T14:50:31.000Z</time>
      </trkpt>
      <trkpt lat="44.86717" lon="5.55875">
        <ele>1137</ele>
        <time>2024-05-11T14:50:36.000Z</time>
      </trkpt>
      <trkpt lat="44.86721" lon="5.55873">
        <ele>1137</ele>
        <time>2024-05-11T14:50:42.000Z</time>
      </trkpt>
      <trkpt lat="44.86725" lon="5.55874">
        <ele>1136.3</ele>
        <time>2024-05-11T14:50:46.000Z</time>
      </trkpt>
      <trkpt lat="44.86728" lon="5.55875">
        <ele>1135.6</ele>
        <time>2024-05-11T14:50:49.000Z</time>
      </trkpt>
      <trkpt lat="44.86734" lon="5.5587">
        <ele>1135.6</ele>
        <time>2024-05-11T14:50:53.000Z</time>
      </trkpt>
      <trkpt lat="44.86735" lon="5.55871">
        <ele>1135.4</ele>
        <time>2024-05-11T14:50:54.000Z</time>
      </trkpt>
      <trkpt lat="44.86741" lon="5.55868">
        <ele>1135.1</ele>
        <time>2024-05-11T14:50:58.000Z</time>
      </trkpt>
      <trkpt lat="44.86742" lon="5.55869">
        <ele>1134.7</ele>
        <time>2024-05-11T14:51:00.000Z</time>
      </trkpt>
      <trkpt lat="44.86743" lon="5.55869">
        <ele>1134.5</ele>
        <time>2024-05-11T14:51:01.000Z</time>
      </trkpt>
      <trkpt lat="44.86746" lon="5.55871">
        <ele>1133.8</ele>
        <time>2024-05-11T14:51:04.000Z</time>
      </trkpt>
      <trkpt lat="44.86746" lon="5.55871">
        <ele>1133.8</ele>
        <time>2024-05-11T14:51:05.000Z</time>
      </trkpt>
      <trkpt lat="44.86748" lon="5.55871">
        <ele>1133.6</ele>
        <time>2024-05-11T14:51:08.000Z</time>
      </trkpt>
      <trkpt lat="44.86755" lon="5.55872">
        <ele>1131.7</ele>
        <time>2024-05-11T14:51:14.000Z</time>
      </trkpt>
      <trkpt lat="44.86757" lon="5.55872">
        <ele>1131</ele>
        <time>2024-05-11T14:51:16.000Z</time>
      </trkpt>
      <trkpt lat="44.86763" lon="5.55872">
        <ele>1129.2</ele>
        <time>2024-05-11T14:51:22.000Z</time>
      </trkpt>
      <trkpt lat="44.8677" lon="5.55872">
        <ele>1127.4</ele>
        <time>2024-05-11T14:51:27.000Z</time>
      </trkpt>
      <trkpt lat="44.86772" lon="5.55872">
        <ele>1126.5</ele>
        <time>2024-05-11T14:51:30.000Z</time>
      </trkpt>
      <trkpt lat="44.86779" lon="5.55874">
        <ele>1124.1</ele>
        <time>2024-05-11T14:51:36.000Z</time>
      </trkpt>
      <trkpt lat="44.86781" lon="5.55872">
        <ele>1123.9</ele>
        <time>2024-05-11T14:51:37.000Z</time>
      </trkpt>
      <trkpt lat="44.86785" lon="5.5587">
        <ele>1122.6</ele>
        <time>2024-05-11T14:51:40.000Z</time>
      </trkpt>
      <trkpt lat="44.86786" lon="5.5587">
        <ele>1121.9</ele>
        <time>2024-05-11T14:51:41.000Z</time>
      </trkpt>
      <trkpt lat="44.86789" lon="5.5587">
        <ele>1120.8</ele>
        <time>2024-05-11T14:51:47.000Z</time>
      </trkpt>
      <trkpt lat="44.8679" lon="5.5587">
        <ele>1120.5</ele>
        <time>2024-05-11T14:51:48.000Z</time>
      </trkpt>
      <trkpt lat="44.86796" lon="5.55865">
        <ele>1118.6</ele>
        <time>2024-05-11T14:51:55.000Z</time>
      </trkpt>
      <trkpt lat="44.86799" lon="5.55861">
        <ele>1118.1</ele>
        <time>2024-05-11T14:51:59.000Z</time>
      </trkpt>
      <trkpt lat="44.86799" lon="5.55859">
        <ele>1118.2</ele>
        <time>2024-05-11T14:52:01.000Z</time>
      </trkpt>
      <trkpt lat="44.86802" lon="5.5585">
        <ele>1117.4</ele>
        <time>2024-05-11T14:52:08.000Z</time>
      </trkpt>
      <trkpt lat="44.86802" lon="5.55847">
        <ele>1117.6</ele>
        <time>2024-05-11T14:52:10.000Z</time>
      </trkpt>
      <trkpt lat="44.86799" lon="5.55838">
        <ele>1120.1</ele>
        <time>2024-05-11T14:52:15.000Z</time>
      </trkpt>
      <trkpt lat="44.86799" lon="5.55829">
        <ele>1120.4</ele>
        <time>2024-05-11T14:52:20.000Z</time>
      </trkpt>
      <trkpt lat="44.86799" lon="5.55822">
        <ele>1120</ele>
        <time>2024-05-11T14:52:24.000Z</time>
      </trkpt>
      <trkpt lat="44.868" lon="5.55817">
        <ele>1119.6</ele>
        <time>2024-05-11T14:52:26.000Z</time>
      </trkpt>
      <trkpt lat="44.868" lon="5.55814">
        <ele>1119.2</ele>
        <time>2024-05-11T14:52:29.000Z</time>
      </trkpt>
      <trkpt lat="44.86801" lon="5.55816">
        <ele>1118.9</ele>
        <time>2024-05-11T14:52:31.000Z</time>
      </trkpt>
      <trkpt lat="44.86801" lon="5.55811">
        <ele>1118.9</ele>
        <time>2024-05-11T14:52:34.000Z</time>
      </trkpt>
      <trkpt lat="44.868" lon="5.5581">
        <ele>1119.1</ele>
        <time>2024-05-11T14:52:35.000Z</time>
      </trkpt>
      <trkpt lat="44.86794" lon="5.55802">
        <ele>1122.6</ele>
        <time>2024-05-11T14:52:40.000Z</time>
      </trkpt>
      <trkpt lat="44.86798" lon="5.55801">
        <ele>1120</ele>
        <time>2024-05-11T14:52:45.000Z</time>
      </trkpt>
      <trkpt lat="44.868" lon="5.55797">
        <ele>1119</ele>
        <time>2024-05-11T14:52:48.000Z</time>
      </trkpt>
      <trkpt lat="44.86802" lon="5.55789">
        <ele>1117.5</ele>
        <time>2024-05-11T14:52:52.000Z</time>
      </trkpt>
      <trkpt lat="44.86799" lon="5.55784">
        <ele>1119.3</ele>
        <time>2024-05-11T14:52:54.000Z</time>
      </trkpt>
      <trkpt lat="44.86796" lon="5.55779">
        <ele>1120.5</ele>
        <time>2024-05-11T14:52:56.000Z</time>
      </trkpt>
      <trkpt lat="44.86792" lon="5.55772">
        <ele>1123</ele>
        <time>2024-05-11T14:52:59.000Z</time>
      </trkpt>
      <trkpt lat="44.86793" lon="5.55766">
        <ele>1121.8</ele>
        <time>2024-05-11T14:53:03.000Z</time>
      </trkpt>
      <trkpt lat="44.86794" lon="5.55764">
        <ele>1121.7</ele>
        <time>2024-05-11T14:53:04.000Z</time>
      </trkpt>
      <trkpt lat="44.86793" lon="5.55755">
        <ele>1121.9</ele>
        <time>2024-05-11T14:53:09.000Z</time>
      </trkpt>
      <trkpt lat="44.86793" lon="5.55754">
        <ele>1121.7</ele>
        <time>2024-05-11T14:53:10.000Z</time>
      </trkpt>
      <trkpt lat="44.86797" lon="5.55745">
        <ele>1119.5</ele>
        <time>2024-05-11T14:53:15.000Z</time>
      </trkpt>
      <trkpt lat="44.86799" lon="5.55741">
        <ele>1118.6</ele>
        <time>2024-05-11T14:53:18.000Z</time>
      </trkpt>
      <trkpt lat="44.86799" lon="5.55735">
        <ele>1118.6</ele>
        <time>2024-05-11T14:53:23.000Z</time>
      </trkpt>
      <trkpt lat="44.868" lon="5.55735">
        <ele>1118.2</ele>
        <time>2024-05-11T14:53:24.000Z</time>
      </trkpt>
      <trkpt lat="44.868" lon="5.55734">
        <ele>1117.9</ele>
        <time>2024-05-11T14:53:25.000Z</time>
      </trkpt>
      <trkpt lat="44.868" lon="5.55731">
        <ele>1117.9</ele>
        <time>2024-05-11T14:53:28.000Z</time>
      </trkpt>
      <trkpt lat="44.86802" lon="5.55727">
        <ele>1117.2</ele>
        <time>2024-05-11T14:53:32.000Z</time>
      </trkpt>
      <trkpt lat="44.86802" lon="5.55725">
        <ele>1117</ele>
        <time>2024-05-11T14:53:33.000Z</time>
      </trkpt>
      <trkpt lat="44.86799" lon="5.55717">
        <ele>1118.6</ele>
        <time>2024-05-11T14:53:37.000Z</time>
      </trkpt>
      <trkpt lat="44.86798" lon="5.55716">
        <ele>1119.2</ele>
        <time>2024-05-11T14:53:38.000Z</time>
      </trkpt>
      <trkpt lat="44.86798" lon="5.5571">
        <ele>1118.9</ele>
        <time>2024-05-11T14:53:42.000Z</time>
      </trkpt>
      <trkpt lat="44.86803" lon="5.55699">
        <ele>1116.5</ele>
        <time>2024-05-11T14:53:49.000Z</time>
      </trkpt>
      <trkpt lat="44.86805" lon="5.55695">
        <ele>1115.1</ele>
        <time>2024-05-11T14:53:52.000Z</time>
      </trkpt>
      <trkpt lat="44.86806" lon="5.55693">
        <ele>1114.8</ele>
        <time>2024-05-11T14:53:54.000Z</time>
      </trkpt>
      <trkpt lat="44.86807" lon="5.55691">
        <ele>1114.7</ele>
        <time>2024-05-11T14:53:55.000Z</time>
      </trkpt>
      <trkpt lat="44.86805" lon="5.55682">
        <ele>1115.5</ele>
        <time>2024-05-11T14:54:00.000Z</time>
      </trkpt>
      <trkpt lat="44.86806" lon="5.55681">
        <ele>1115.5</ele>
        <time>2024-05-11T14:54:01.000Z</time>
      </trkpt>
      <trkpt lat="44.86808" lon="5.55676">
        <ele>1115</ele>
        <time>2024-05-11T14:54:06.000Z</time>
      </trkpt>
      <trkpt lat="44.86807" lon="5.55675">
        <ele>1115.4</ele>
        <time>2024-05-11T14:54:07.000Z</time>
      </trkpt>
      <trkpt lat="44.86808" lon="5.55669">
        <ele>1115.2</ele>
        <time>2024-05-11T14:54:12.000Z</time>
      </trkpt>
      <trkpt lat="44.86812" lon="5.55663">
        <ele>1114.1</ele>
        <time>2024-05-11T14:54:17.000Z</time>
      </trkpt>
      <trkpt lat="44.86813" lon="5.55662">
        <ele>1114</ele>
        <time>2024-05-11T14:54:18.000Z</time>
      </trkpt>
      <trkpt lat="44.86818" lon="5.55653">
        <ele>1112.6</ele>
        <time>2024-05-11T14:54:23.000Z</time>
      </trkpt>
      <trkpt lat="44.86818" lon="5.55652">
        <ele>1112.5</ele>
        <time>2024-05-11T14:54:24.000Z</time>
      </trkpt>
      <trkpt lat="44.86822" lon="5.55649">
        <ele>1111.6</ele>
        <time>2024-05-11T14:54:28.000Z</time>
      </trkpt>
      <trkpt lat="44.86824" lon="5.55649">
        <ele>1111.2</ele>
        <time>2024-05-11T14:54:29.000Z</time>
      </trkpt>
      <trkpt lat="44.86826" lon="5.55651">
        <ele>1110.5</ele>
        <time>2024-05-11T14:54:31.000Z</time>
      </trkpt>
      <trkpt lat="44.86832" lon="5.55654">
        <ele>1108.8</ele>
        <time>2024-05-11T14:54:34.000Z</time>
      </trkpt>
      <trkpt lat="44.86836" lon="5.55658">
        <ele>1108.7</ele>
        <time>2024-05-11T14:54:41.000Z</time>
      </trkpt>
      <trkpt lat="44.86835" lon="5.55662">
        <ele>1108.4</ele>
        <time>2024-05-11T14:54:47.000Z</time>
      </trkpt>
      <trkpt lat="44.86837" lon="5.55665">
        <ele>1108.5</ele>
        <time>2024-05-11T14:54:52.000Z</time>
      </trkpt>
      <trkpt lat="44.86839" lon="5.5567">
        <ele>1108.5</ele>
        <time>2024-05-11T14:54:58.000Z</time>
      </trkpt>
      <trkpt lat="44.86842" lon="5.55675">
        <ele>1108.7</ele>
        <time>2024-05-11T14:55:04.000Z</time>
      </trkpt>
      <trkpt lat="44.86847" lon="5.5568">
        <ele>1109.2</ele>
        <time>2024-05-11T14:55:09.000Z</time>
      </trkpt>
      <trkpt lat="44.86853" lon="5.55689">
        <ele>1109.8</ele>
        <time>2024-05-11T14:55:15.000Z</time>
      </trkpt>
      <trkpt lat="44.86856" lon="5.55692">
        <ele>1110.1</ele>
        <time>2024-05-11T14:55:19.000Z</time>
      </trkpt>
      <trkpt lat="44.86857" lon="5.55694">
        <ele>1110.3</ele>
        <time>2024-05-11T14:55:21.000Z</time>
      </trkpt>
      <trkpt lat="44.86861" lon="5.55702">
        <ele>1110.4</ele>
        <time>2024-05-11T14:55:27.000Z</time>
      </trkpt>
      <trkpt lat="44.86864" lon="5.55706">
        <ele>1111.1</ele>
        <time>2024-05-11T14:55:32.000Z</time>
      </trkpt>
      <trkpt lat="44.86868" lon="5.5571">
        <ele>1112.5</ele>
        <time>2024-05-11T14:55:38.000Z</time>
      </trkpt>
      <trkpt lat="44.86873" lon="5.55714">
        <ele>1113.7</ele>
        <time>2024-05-11T14:55:44.000Z</time>
      </trkpt>
      <trkpt lat="44.86874" lon="5.55719">
        <ele>1113.8</ele>
        <time>2024-05-11T14:55:49.000Z</time>
      </trkpt>
      <trkpt lat="44.86875" lon="5.5572">
        <ele>1114</ele>
        <time>2024-05-11T14:55:52.000Z</time>
      </trkpt>
      <trkpt lat="44.86876" lon="5.55721">
        <ele>1114.5</ele>
        <time>2024-05-11T14:55:54.000Z</time>
      </trkpt>
      <trkpt lat="44.8688" lon="5.55725">
        <ele>1115.3</ele>
        <time>2024-05-11T14:56:01.000Z</time>
      </trkpt>
      <trkpt lat="44.86882" lon="5.55726">
        <ele>1115.8</ele>
        <time>2024-05-11T14:56:03.000Z</time>
      </trkpt>
      <trkpt lat="44.86883" lon="5.55728">
        <ele>1116.2</ele>
        <time>2024-05-11T14:56:05.000Z</time>
      </trkpt>
      <trkpt lat="44.86884" lon="5.55728">
        <ele>1116.6</ele>
        <time>2024-05-11T14:56:06.000Z</time>
      </trkpt>
      <trkpt lat="44.86886" lon="5.55729">
        <ele>1117</ele>
        <time>2024-05-11T14:56:08.000Z</time>
      </trkpt>
      <trkpt lat="44.86888" lon="5.5573">
        <ele>1117.4</ele>
        <time>2024-05-11T14:56:11.000Z</time>
      </trkpt>
      <trkpt lat="44.8689" lon="5.55733">
        <ele>1117.7</ele>
        <time>2024-05-11T14:56:14.000Z</time>
      </trkpt>
      <trkpt lat="44.86892" lon="5.55734">
        <ele>1118.3</ele>
        <time>2024-05-11T14:56:16.000Z</time>
      </trkpt>
      <trkpt lat="44.86893" lon="5.55738">
        <ele>1118.3</ele>
        <time>2024-05-11T14:56:19.000Z</time>
      </trkpt>
      <trkpt lat="44.86893" lon="5.55738">
        <ele>1118.4</ele>
        <time>2024-05-11T14:56:21.000Z</time>
      </trkpt>
      <trkpt lat="44.86892" lon="5.55739">
        <ele>1117.6</ele>
        <time>2024-05-11T14:56:32.000Z</time>
      </trkpt>
      <trkpt lat="44.86895" lon="5.55743">
        <ele>1118.2</ele>
        <time>2024-05-11T14:56:38.000Z</time>
      </trkpt>
      <trkpt lat="44.86898" lon="5.55745">
        <ele>1119.1</ele>
        <time>2024-05-11T14:56:43.000Z</time>
      </trkpt>
      <trkpt lat="44.86905" lon="5.55748">
        <ele>1121.1</ele>
        <time>2024-05-11T14:56:49.000Z</time>
      </trkpt>
      <trkpt lat="44.86907" lon="5.55751">
        <ele>1121.4</ele>
        <time>2024-05-11T14:56:53.000Z</time>
      </trkpt>
      <trkpt lat="44.86909" lon="5.55753">
        <ele>1121.5</ele>
        <time>2024-05-11T14:56:55.000Z</time>
      </trkpt>
      <trkpt lat="44.86914" lon="5.55757">
        <ele>1122.1</ele>
        <time>2024-05-11T14:56:59.000Z</time>
      </trkpt>
      <trkpt lat="44.86921" lon="5.55762">
        <ele>1123.5</ele>
        <time>2024-05-11T14:57:06.000Z</time>
      </trkpt>
      <trkpt lat="44.86923" lon="5.55764">
        <ele>1123.5</ele>
        <time>2024-05-11T14:57:08.000Z</time>
      </trkpt>
      <trkpt lat="44.86928" lon="5.55764">
        <ele>1125.5</ele>
        <time>2024-05-11T14:57:11.000Z</time>
      </trkpt>
      <trkpt lat="44.8693" lon="5.55767">
        <ele>1125.4</ele>
        <time>2024-05-11T14:57:16.000Z</time>
      </trkpt>
      <trkpt lat="44.86931" lon="5.55768">
        <ele>1125.4</ele>
        <time>2024-05-11T14:57:19.000Z</time>
      </trkpt>
      <trkpt lat="44.86932" lon="5.5577">
        <ele>1125.4</ele>
        <time>2024-05-11T14:57:21.000Z</time>
      </trkpt>
      <trkpt lat="44.86933" lon="5.5577">
        <ele>1125.7</ele>
        <time>2024-05-11T14:57:23.000Z</time>
      </trkpt>
      <trkpt lat="44.86935" lon="5.55771">
        <ele>1126.2</ele>
        <time>2024-05-11T14:57:26.000Z</time>
      </trkpt>
      <trkpt lat="44.86937" lon="5.55773">
        <ele>1126.7</ele>
        <time>2024-05-11T14:57:32.000Z</time>
      </trkpt>
      <trkpt lat="44.86938" lon="5.55774">
        <ele>1126.7</ele>
        <time>2024-05-11T14:57:34.000Z</time>
      </trkpt>
      <trkpt lat="44.86939" lon="5.55777">
        <ele>1126.1</ele>
        <time>2024-05-11T14:57:38.000Z</time>
      </trkpt>
      <trkpt lat="44.86939" lon="5.55777">
        <ele>1126.4</ele>
        <time>2024-05-11T14:57:39.000Z</time>
      </trkpt>
      <trkpt lat="44.86943" lon="5.55781">
        <ele>1126.8</ele>
        <time>2024-05-11T14:57:46.000Z</time>
      </trkpt>
      <trkpt lat="44.86944" lon="5.5578">
        <ele>1127.4</ele>
        <time>2024-05-11T14:57:48.000Z</time>
      </trkpt>
      <trkpt lat="44.86945" lon="5.55781">
        <ele>1127.7</ele>
        <time>2024-05-11T14:57:49.000Z</time>
      </trkpt>
      <trkpt lat="44.86946" lon="5.55781">
        <ele>1127.9</ele>
        <time>2024-05-11T14:57:50.000Z</time>
      </trkpt>
      <trkpt lat="44.8695" lon="5.55784">
        <ele>1128.4</ele>
        <time>2024-05-11T14:57:56.000Z</time>
      </trkpt>
      <trkpt lat="44.86952" lon="5.55786">
        <ele>1128.8</ele>
        <time>2024-05-11T14:58:00.000Z</time>
      </trkpt>
      <trkpt lat="44.86953" lon="5.55788">
        <ele>1128.7</ele>
        <time>2024-05-11T14:58:01.000Z</time>
      </trkpt>
      <trkpt lat="44.86955" lon="5.55792">
        <ele>1128.3</ele>
        <time>2024-05-11T14:58:06.000Z</time>
      </trkpt>
      <trkpt lat="44.86957" lon="5.55794">
        <ele>1128.9</ele>
        <time>2024-05-11T14:58:10.000Z</time>
      </trkpt>
      <trkpt lat="44.86959" lon="5.55795">
        <ele>1129.1</ele>
        <time>2024-05-11T14:58:14.000Z</time>
      </trkpt>
      <trkpt lat="44.86963" lon="5.55801">
        <ele>1129.1</ele>
        <time>2024-05-11T14:58:21.000Z</time>
      </trkpt>
      <trkpt lat="44.86965" lon="5.55802">
        <ele>1129.6</ele>
        <time>2024-05-11T14:58:25.000Z</time>
      </trkpt>
      <trkpt lat="44.86966" lon="5.55802">
        <ele>1129.7</ele>
        <time>2024-05-11T14:58:26.000Z</time>
      </trkpt>
      <trkpt lat="44.86968" lon="5.55804">
        <ele>1130.1</ele>
        <time>2024-05-11T14:58:30.000Z</time>
      </trkpt>
      <trkpt lat="44.86972" lon="5.55806">
        <ele>1130.7</ele>
        <time>2024-05-11T14:58:34.000Z</time>
      </trkpt>
      <trkpt lat="44.86973" lon="5.55808">
        <ele>1130.6</ele>
        <time>2024-05-11T14:58:38.000Z</time>
      </trkpt>
      <trkpt lat="44.86974" lon="5.55809">
        <ele>1130.7</ele>
        <time>2024-05-11T14:58:39.000Z</time>
      </trkpt>
      <trkpt lat="44.86977" lon="5.55811">
        <ele>1131.1</ele>
        <time>2024-05-11T14:58:43.000Z</time>
      </trkpt>
      <trkpt lat="44.8698" lon="5.55816">
        <ele>1130.7</ele>
        <time>2024-05-11T14:58:48.000Z</time>
      </trkpt>
      <trkpt lat="44.86981" lon="5.55817">
        <ele>1130.9</ele>
        <time>2024-05-11T14:58:49.000Z</time>
      </trkpt>
      <trkpt lat="44.86983" lon="5.55821">
        <ele>1130.5</ele>
        <time>2024-05-11T14:58:51.000Z</time>
      </trkpt>
      <trkpt lat="44.86986" lon="5.55824">
        <ele>1130.5</ele>
        <time>2024-05-11T14:58:53.000Z</time>
      </trkpt>
      <trkpt lat="44.86988" lon="5.55827">
        <ele>1130.6</ele>
        <time>2024-05-11T14:58:56.000Z</time>
      </trkpt>
      <trkpt lat="44.86992" lon="5.55828">
        <ele>1131.4</ele>
        <time>2024-05-11T14:59:00.000Z</time>
      </trkpt>
      <trkpt lat="44.86998" lon="5.55828">
        <ele>1132.8</ele>
        <time>2024-05-11T14:59:05.000Z</time>
      </trkpt>
      <trkpt lat="44.86999" lon="5.5583">
        <ele>1132.5</ele>
        <time>2024-05-11T14:59:06.000Z</time>
      </trkpt>
      <trkpt lat="44.86998" lon="5.55832">
        <ele>1131.8</ele>
        <time>2024-05-11T14:59:09.000Z</time>
      </trkpt>
      <trkpt lat="44.87002" lon="5.55834">
        <ele>1131.9</ele>
        <time>2024-05-11T14:59:14.000Z</time>
      </trkpt>
      <trkpt lat="44.87004" lon="5.55833">
        <ele>1132.7</ele>
        <time>2024-05-11T14:59:20.000Z</time>
      </trkpt>
      <trkpt lat="44.87006" lon="5.55833">
        <ele>1133.1</ele>
        <time>2024-05-11T14:59:25.000Z</time>
      </trkpt>
      <trkpt lat="44.87011" lon="5.55832">
        <ele>1133.9</ele>
        <time>2024-05-11T14:59:31.000Z</time>
      </trkpt>
      <trkpt lat="44.87013" lon="5.55832">
        <ele>1134.2</ele>
        <time>2024-05-11T14:59:34.000Z</time>
      </trkpt>
      <trkpt lat="44.87014" lon="5.55832">
        <ele>1134.3</ele>
        <time>2024-05-11T14:59:35.000Z</time>
      </trkpt>
      <trkpt lat="44.87018" lon="5.55832">
        <ele>1134.8</ele>
        <time>2024-05-11T14:59:40.000Z</time>
      </trkpt>
      <trkpt lat="44.87022" lon="5.5583">
        <ele>1135.9</ele>
        <time>2024-05-11T14:59:43.000Z</time>
      </trkpt>
      <trkpt lat="44.87027" lon="5.55831">
        <ele>1136.4</ele>
        <time>2024-05-11T14:59:47.000Z</time>
      </trkpt>
      <trkpt lat="44.87028" lon="5.5583">
        <ele>1137</ele>
        <time>2024-05-11T14:59:49.000Z</time>
      </trkpt>
      <trkpt lat="44.87028" lon="5.55829">
        <ele>1137</ele>
        <time>2024-05-11T14:59:50.000Z</time>
      </trkpt>
      <trkpt lat="44.87029" lon="5.55831">
        <ele>1136.6</ele>
        <time>2024-05-11T14:59:54.000Z</time>
      </trkpt>
      <trkpt lat="44.87031" lon="5.55829">
        <ele>1137.3</ele>
        <time>2024-05-11T15:00:00.000Z</time>
      </trkpt>
      <trkpt lat="44.87034" lon="5.55826">
        <ele>1138</ele>
        <time>2024-05-11T15:00:06.000Z</time>
      </trkpt>
      <trkpt lat="44.87038" lon="5.55823">
        <ele>1139</ele>
        <time>2024-05-11T15:00:11.000Z</time>
      </trkpt>
      <trkpt lat="44.87039" lon="5.55823">
        <ele>1139.1</ele>
        <time>2024-05-11T15:00:12.000Z</time>
      </trkpt>
      <trkpt lat="44.87045" lon="5.55821">
        <ele>1139.9</ele>
        <time>2024-05-11T15:00:18.000Z</time>
      </trkpt>
      <trkpt lat="44.87048" lon="5.5582">
        <ele>1140.2</ele>
        <time>2024-05-11T15:00:23.000Z</time>
      </trkpt>
      <trkpt lat="44.8705" lon="5.55819">
        <ele>1140.5</ele>
        <time>2024-05-11T15:00:27.000Z</time>
      </trkpt>
      <trkpt lat="44.87054" lon="5.55818">
        <ele>1140.9</ele>
        <time>2024-05-11T15:00:31.000Z</time>
      </trkpt>
      <trkpt lat="44.87057" lon="5.55816">
        <ele>1141.4</ele>
        <time>2024-05-11T15:00:36.000Z</time>
      </trkpt>
      <trkpt lat="44.8706" lon="5.55815">
        <ele>1141.7</ele>
        <time>2024-05-11T15:00:40.000Z</time>
      </trkpt>
      <trkpt lat="44.87061" lon="5.55815">
        <ele>1141.9</ele>
        <time>2024-05-11T15:00:42.000Z</time>
      </trkpt>
      <trkpt lat="44.87067" lon="5.55812">
        <ele>1142.6</ele>
        <time>2024-05-11T15:00:48.000Z</time>
      </trkpt>
      <trkpt lat="44.87073" lon="5.5581">
        <ele>1143.6</ele>
        <time>2024-05-11T15:00:55.000Z</time>
      </trkpt>
      <trkpt lat="44.87075" lon="5.5581">
        <ele>1143.5</ele>
        <time>2024-05-11T15:00:56.000Z</time>
      </trkpt>
      <trkpt lat="44.87078" lon="5.5581">
        <ele>1143.6</ele>
        <time>2024-05-11T15:01:00.000Z</time>
      </trkpt>
      <trkpt lat="44.87082" lon="5.55809">
        <ele>1144</ele>
        <time>2024-05-11T15:01:04.000Z</time>
      </trkpt>
      <trkpt lat="44.87084" lon="5.55812">
        <ele>1143.2</ele>
        <time>2024-05-11T15:01:07.000Z</time>
      </trkpt>
      <trkpt lat="44.87085" lon="5.55809">
        <ele>1144.1</ele>
        <time>2024-05-11T15:01:09.000Z</time>
      </trkpt>
      <trkpt lat="44.87087" lon="5.5581">
        <ele>1144.1</ele>
        <time>2024-05-11T15:01:15.000Z</time>
      </trkpt>
      <trkpt lat="44.8709" lon="5.5581">
        <ele>1144.3</ele>
        <time>2024-05-11T15:01:19.000Z</time>
      </trkpt>
      <trkpt lat="44.87091" lon="5.5581">
        <ele>1144.5</ele>
        <time>2024-05-11T15:01:21.000Z</time>
      </trkpt>
      <trkpt lat="44.87093" lon="5.5581">
        <ele>1144.6</ele>
        <time>2024-05-11T15:01:25.000Z</time>
      </trkpt>
      <trkpt lat="44.87098" lon="5.55809">
        <ele>1145.2</ele>
        <time>2024-05-11T15:01:31.000Z</time>
      </trkpt>
      <trkpt lat="44.87098" lon="5.55809">
        <ele>1145.2</ele>
        <time>2024-05-11T15:01:32.000Z</time>
      </trkpt>
      <trkpt lat="44.87103" lon="5.55812">
        <ele>1144.9</ele>
        <time>2024-05-11T15:01:38.000Z</time>
      </trkpt>
      <trkpt lat="44.87107" lon="5.55815">
        <ele>1144.6</ele>
        <time>2024-05-11T15:01:44.000Z</time>
      </trkpt>
      <trkpt lat="44.87109" lon="5.55816">
        <ele>1144.6</ele>
        <time>2024-05-11T15:01:46.000Z</time>
      </trkpt>
      <trkpt lat="44.87111" lon="5.55817">
        <ele>1144.5</ele>
        <time>2024-05-11T15:01:48.000Z</time>
      </trkpt>
      <trkpt lat="44.87117" lon="5.55814">
        <ele>1146</ele>
        <time>2024-05-11T15:01:52.000Z</time>
      </trkpt>
      <trkpt lat="44.8712" lon="5.55817">
        <ele>1145.8</ele>
        <time>2024-05-11T15:01:58.000Z</time>
      </trkpt>
      <trkpt lat="44.87122" lon="5.55818">
        <ele>1146</ele>
        <time>2024-05-11T15:02:04.000Z</time>
      </trkpt>
      <trkpt lat="44.87126" lon="5.55818">
        <ele>1146.7</ele>
        <time>2024-05-11T15:02:10.000Z</time>
      </trkpt>
      <trkpt lat="44.87129" lon="5.55819">
        <ele>1147</ele>
        <time>2024-05-11T15:02:13.000Z</time>
      </trkpt>
      <trkpt lat="44.87132" lon="5.55818">
        <ele>1147.7</ele>
        <time>2024-05-11T15:02:16.000Z</time>
      </trkpt>
      <trkpt lat="44.8714" lon="5.55819">
        <ele>1148.7</ele>
        <time>2024-05-11T15:02:23.000Z</time>
      </trkpt>
      <trkpt lat="44.87143" lon="5.55823">
        <ele>1148.4</ele>
        <time>2024-05-11T15:02:28.000Z</time>
      </trkpt>
      <trkpt lat="44.87143" lon="5.55824">
        <ele>1148.4</ele>
        <time>2024-05-11T15:02:29.000Z</time>
      </trkpt>
      <trkpt lat="44.87145" lon="5.55829">
        <ele>1147.8</ele>
        <time>2024-05-11T15:02:34.000Z</time>
      </trkpt>
      <trkpt lat="44.87149" lon="5.55826">
        <ele>1148.8</ele>
        <time>2024-05-11T15:02:42.000Z</time>
      </trkpt>
      <trkpt lat="44.87153" lon="5.55827">
        <ele>1149.4</ele>
        <time>2024-05-11T15:02:49.000Z</time>
      </trkpt>
      <trkpt lat="44.87155" lon="5.55831">
        <ele>1148.8</ele>
        <time>2024-05-11T15:02:54.000Z</time>
      </trkpt>
      <trkpt lat="44.87158" lon="5.55831">
        <ele>1149.2</ele>
        <time>2024-05-11T15:02:58.000Z</time>
      </trkpt>
      <trkpt lat="44.87162" lon="5.55834">
        <ele>1149.2</ele>
        <time>2024-05-11T15:03:03.000Z</time>
      </trkpt>
      <trkpt lat="44.87167" lon="5.55836">
        <ele>1149.5</ele>
        <time>2024-05-11T15:03:09.000Z</time>
      </trkpt>
      <trkpt lat="44.87174" lon="5.55839">
        <ele>1150.4</ele>
        <time>2024-05-11T15:03:15.000Z</time>
      </trkpt>
      <trkpt lat="44.8718" lon="5.5584">
        <ele>1151.5</ele>
        <time>2024-05-11T15:03:21.000Z</time>
      </trkpt>
      <trkpt lat="44.87181" lon="5.55839">
        <ele>1152</ele>
        <time>2024-05-11T15:03:22.000Z</time>
      </trkpt>
      <trkpt lat="44.87185" lon="5.55845">
        <ele>1151.6</ele>
        <time>2024-05-11T15:03:26.000Z</time>
      </trkpt>
      <trkpt lat="44.87183" lon="5.55847">
        <ele>1150.7</ele>
        <time>2024-05-11T15:03:32.000Z</time>
      </trkpt>
      <trkpt lat="44.87185" lon="5.55848">
        <ele>1151</ele>
        <time>2024-05-11T15:03:37.000Z</time>
      </trkpt>
      <trkpt lat="44.87187" lon="5.55848">
        <ele>1151.4</ele>
        <time>2024-05-11T15:03:42.000Z</time>
      </trkpt>
      <trkpt lat="44.87193" lon="5.55845">
        <ele>1153.1</ele>
        <time>2024-05-11T15:03:49.000Z</time>
      </trkpt>
      <trkpt lat="44.87196" lon="5.55843">
        <ele>1154.3</ele>
        <time>2024-05-11T15:03:54.000Z</time>
      </trkpt>
      <trkpt lat="44.87203" lon="5.55839">
        <ele>1156.7</ele>
        <time>2024-05-11T15:04:01.000Z</time>
      </trkpt>
      <trkpt lat="44.87204" lon="5.55839">
        <ele>1157</ele>
        <time>2024-05-11T15:04:02.000Z</time>
      </trkpt>
      <trkpt lat="44.87207" lon="5.55839">
        <ele>1157.4</ele>
        <time>2024-05-11T15:04:03.000Z</time>
      </trkpt>
      <trkpt lat="44.87211" lon="5.5584">
        <ele>1158.1</ele>
        <time>2024-05-11T15:04:08.000Z</time>
      </trkpt>
      <trkpt lat="44.87218" lon="5.55844">
        <ele>1158.7</ele>
        <time>2024-05-11T15:04:13.000Z</time>
      </trkpt>
      <trkpt lat="44.87219" lon="5.55843">
        <ele>1159.2</ele>
        <time>2024-05-11T15:04:15.000Z</time>
      </trkpt>
      <trkpt lat="44.87221" lon="5.55844">
        <ele>1159.5</ele>
        <time>2024-05-11T15:04:21.000Z</time>
      </trkpt>
      <trkpt lat="44.87225" lon="5.55845">
        <ele>1160.4</ele>
        <time>2024-05-11T15:04:26.000Z</time>
      </trkpt>
      <trkpt lat="44.87227" lon="5.55846">
        <ele>1160.5</ele>
        <time>2024-05-11T15:04:28.000Z</time>
      </trkpt>
      <trkpt lat="44.87232" lon="5.55848">
        <ele>1161.5</ele>
        <time>2024-05-11T15:04:34.000Z</time>
      </trkpt>
      <trkpt lat="44.87236" lon="5.55849">
        <ele>1162.4</ele>
        <time>2024-05-11T15:04:38.000Z</time>
      </trkpt>
      <trkpt lat="44.87237" lon="5.55849">
        <ele>1162.7</ele>
        <time>2024-05-11T15:04:39.000Z</time>
      </trkpt>
      <trkpt lat="44.87242" lon="5.55851">
        <ele>1163.7</ele>
        <time>2024-05-11T15:04:44.000Z</time>
      </trkpt>
      <trkpt lat="44.87243" lon="5.55857">
        <ele>1162.8</ele>
        <time>2024-05-11T15:04:48.000Z</time>
      </trkpt>
      <trkpt lat="44.87243" lon="5.55858">
        <ele>1162.4</ele>
        <time>2024-05-11T15:04:50.000Z</time>
      </trkpt>
      <trkpt lat="44.87245" lon="5.55861">
        <ele>1162.6</ele>
        <time>2024-05-11T15:04:55.000Z</time>
      </trkpt>
      <trkpt lat="44.87247" lon="5.55865">
        <ele>1162.5</ele>
        <time>2024-05-11T15:05:01.000Z</time>
      </trkpt>
      <trkpt lat="44.87248" lon="5.55866">
        <ele>1162.5</ele>
        <time>2024-05-11T15:05:02.000Z</time>
      </trkpt>
      <trkpt lat="44.87248" lon="5.55868">
        <ele>1162.2</ele>
        <time>2024-05-11T15:05:05.000Z</time>
      </trkpt>
      <trkpt lat="44.87249" lon="5.55874">
        <ele>1161.3</ele>
        <time>2024-05-11T15:05:10.000Z</time>
      </trkpt>
      <trkpt lat="44.87249" lon="5.55874">
        <ele>1161.5</ele>
        <time>2024-05-11T15:05:11.000Z</time>
      </trkpt>
      <trkpt lat="44.87249" lon="5.55881">
        <ele>1160.2</ele>
        <time>2024-05-11T15:05:17.000Z</time>
      </trkpt>
      <trkpt lat="44.87251" lon="5.55888">
        <ele>1159.5</ele>
        <time>2024-05-11T15:05:23.000Z</time>
      </trkpt>
      <trkpt lat="44.87251" lon="5.5589">
        <ele>1159.4</ele>
        <time>2024-05-11T15:05:24.000Z</time>
      </trkpt>
      <trkpt lat="44.87252" lon="5.55894">
        <ele>1159.1</ele>
        <time>2024-05-11T15:05:28.000Z</time>
      </trkpt>
      <trkpt lat="44.87253" lon="5.55896">
        <ele>1159.2</ele>
        <time>2024-05-11T15:05:30.000Z</time>
      </trkpt>
      <trkpt lat="44.87253" lon="5.55896">
        <ele>1159.4</ele>
        <time>2024-05-11T15:05:32.000Z</time>
      </trkpt>
      <trkpt lat="44.87256" lon="5.55902">
        <ele>1159.7</ele>
        <time>2024-05-11T15:05:39.000Z</time>
      </trkpt>
      <trkpt lat="44.87257" lon="5.55905">
        <ele>1159.6</ele>
        <time>2024-05-11T15:05:43.000Z</time>
      </trkpt>
      <trkpt lat="44.8726" lon="5.55907">
        <ele>1160.4</ele>
        <time>2024-05-11T15:05:48.000Z</time>
      </trkpt>
      <trkpt lat="44.87262" lon="5.5591">
        <ele>1160.7</ele>
        <time>2024-05-11T15:05:53.000Z</time>
      </trkpt>
      <trkpt lat="44.87263" lon="5.55914">
        <ele>1160.5</ele>
        <time>2024-05-11T15:05:55.000Z</time>
      </trkpt>
      <trkpt lat="44.87264" lon="5.55917">
        <ele>1160.7</ele>
        <time>2024-05-11T15:05:58.000Z</time>
      </trkpt>
      <trkpt lat="44.87267" lon="5.55921">
        <ele>1160.9</ele>
        <time>2024-05-11T15:06:02.000Z</time>
      </trkpt>
      <trkpt lat="44.87267" lon="5.55922">
        <ele>1160.7</ele>
        <time>2024-05-11T15:06:03.000Z</time>
      </trkpt>
      <trkpt lat="44.8727" lon="5.55923">
        <ele>1161.5</ele>
        <time>2024-05-11T15:06:09.000Z</time>
      </trkpt>
      <trkpt lat="44.87277" lon="5.55926">
        <ele>1163</ele>
        <time>2024-05-11T15:06:15.000Z</time>
      </trkpt>
      <trkpt lat="44.87276" lon="5.55932">
        <ele>1161.6</ele>
        <time>2024-05-11T15:06:18.000Z</time>
      </trkpt>
      <trkpt lat="44.87277" lon="5.55934">
        <ele>1161.6</ele>
        <time>2024-05-11T15:06:19.000Z</time>
      </trkpt>
      <trkpt lat="44.87278" lon="5.55934">
        <ele>1162</ele>
        <time>2024-05-11T15:06:20.000Z</time>
      </trkpt>
      <trkpt lat="44.87282" lon="5.55936">
        <ele>1162.5</ele>
        <time>2024-05-11T15:06:22.000Z</time>
      </trkpt>
      <trkpt lat="44.87285" lon="5.55939">
        <ele>1162.6</ele>
        <time>2024-05-11T15:06:25.000Z</time>
      </trkpt>
      <trkpt lat="44.87286" lon="5.55938">
        <ele>1163</ele>
        <time>2024-05-11T15:06:26.000Z</time>
      </trkpt>
      <trkpt lat="44.87286" lon="5.55937">
        <ele>1163.3</ele>
        <time>2024-05-11T15:06:27.000Z</time>
      </trkpt>
      <trkpt lat="44.87289" lon="5.55935">
        <ele>1164.4</ele>
        <time>2024-05-11T15:06:29.000Z</time>
      </trkpt>
      <trkpt lat="44.8729" lon="5.55934">
        <ele>1164.7</ele>
        <time>2024-05-11T15:06:30.000Z</time>
      </trkpt>
      <trkpt lat="44.87292" lon="5.55934">
        <ele>1165.2</ele>
        <time>2024-05-11T15:06:32.000Z</time>
      </trkpt>
      <trkpt lat="44.87296" lon="5.55935">
        <ele>1166.1</ele>
        <time>2024-05-11T15:06:36.000Z</time>
      </trkpt>
      <trkpt lat="44.87299" lon="5.55939">
        <ele>1165.9</ele>
        <time>2024-05-11T15:06:40.000Z</time>
      </trkpt>
      <trkpt lat="44.873" lon="5.55942">
        <ele>1165.4</ele>
        <time>2024-05-11T15:06:43.000Z</time>
      </trkpt>
      <trkpt lat="44.873" lon="5.55943">
        <ele>1165.3</ele>
        <time>2024-05-11T15:06:44.000Z</time>
      </trkpt>
      <trkpt lat="44.87302" lon="5.55941">
        <ele>1165.9</ele>
        <time>2024-05-11T15:06:47.000Z</time>
      </trkpt>
      <trkpt lat="44.87303" lon="5.55944">
        <ele>1165.7</ele>
        <time>2024-05-11T15:06:50.000Z</time>
      </trkpt>
      <trkpt lat="44.87305" lon="5.55947">
        <ele>1165.4</ele>
        <time>2024-05-11T15:06:53.000Z</time>
      </trkpt>
      <trkpt lat="44.87306" lon="5.55949">
        <ele>1165.1</ele>
        <time>2024-05-11T15:06:57.000Z</time>
      </trkpt>
      <trkpt lat="44.87309" lon="5.55952">
        <ele>1165.4</ele>
        <time>2024-05-11T15:07:00.000Z</time>
      </trkpt>
      <trkpt lat="44.8731" lon="5.55952">
        <ele>1165.6</ele>
        <time>2024-05-11T15:07:02.000Z</time>
      </trkpt>
      <trkpt lat="44.87311" lon="5.55951">
        <ele>1165.9</ele>
        <time>2024-05-11T15:07:04.000Z</time>
      </trkpt>
      <trkpt lat="44.87312" lon="5.55954">
        <ele>1165.5</ele>
        <time>2024-05-11T15:07:08.000Z</time>
      </trkpt>
      <trkpt lat="44.87315" lon="5.55954">
        <ele>1166.3</ele>
        <time>2024-05-11T15:07:14.000Z</time>
      </trkpt>
      <trkpt lat="44.87316" lon="5.55954">
        <ele>1166.3</ele>
        <time>2024-05-11T15:07:15.000Z</time>
      </trkpt>
      <trkpt lat="44.87319" lon="5.55953">
        <ele>1167.1</ele>
        <time>2024-05-11T15:07:19.000Z</time>
      </trkpt>
      <trkpt lat="44.87321" lon="5.55952">
        <ele>1167.8</ele>
        <time>2024-05-11T15:07:22.000Z</time>
      </trkpt>
      <trkpt lat="44.87325" lon="5.55952">
        <ele>1168.7</ele>
        <time>2024-05-11T15:07:26.000Z</time>
      </trkpt>
      <trkpt lat="44.87325" lon="5.55953">
        <ele>1168.6</ele>
        <time>2024-05-11T15:07:27.000Z</time>
      </trkpt>
      <trkpt lat="44.87332" lon="5.55953">
        <ele>1169.8</ele>
        <time>2024-05-11T15:07:33.000Z</time>
      </trkpt>
      <trkpt lat="44.8734" lon="5.5595">
        <ele>1171.8</ele>
        <time>2024-05-11T15:07:41.000Z</time>
      </trkpt>
      <trkpt lat="44.8734" lon="5.55951">
        <ele>1171.7</ele>
        <time>2024-05-11T15:07:42.000Z</time>
      </trkpt>
      <trkpt lat="44.87345" lon="5.55953">
        <ele>1172.2</ele>
        <time>2024-05-11T15:07:46.000Z</time>
      </trkpt>
      <trkpt lat="44.87345" lon="5.55953">
        <ele>1172.1</ele>
        <time>2024-05-11T15:07:47.000Z</time>
      </trkpt>
      <trkpt lat="44.87346" lon="5.55947">
        <ele>1173.6</ele>
        <time>2024-05-11T15:07:54.000Z</time>
      </trkpt>
      <trkpt lat="44.87347" lon="5.55946">
        <ele>1174</ele>
        <time>2024-05-11T15:07:55.000Z</time>
      </trkpt>
      <trkpt lat="44.8735" lon="5.55946">
        <ele>1174.8</ele>
        <time>2024-05-11T15:08:02.000Z</time>
      </trkpt>
      <trkpt lat="44.87354" lon="5.55941">
        <ele>1176.7</ele>
        <time>2024-05-11T15:08:07.000Z</time>
      </trkpt>
      <trkpt lat="44.87355" lon="5.55941">
        <ele>1176.9</ele>
        <time>2024-05-11T15:08:08.000Z</time>
      </trkpt>
      <trkpt lat="44.87361" lon="5.55939">
        <ele>1178.5</ele>
        <time>2024-05-11T15:08:16.000Z</time>
      </trkpt>
      <trkpt lat="44.87365" lon="5.55934">
        <ele>1180.3</ele>
        <time>2024-05-11T15:08:20.000Z</time>
      </trkpt>
      <trkpt lat="44.87368" lon="5.55936">
        <ele>1180.1</ele>
        <time>2024-05-11T15:08:24.000Z</time>
      </trkpt>
      <trkpt lat="44.87376" lon="5.55934">
        <ele>1181.4</ele>
        <time>2024-05-11T15:08:31.000Z</time>
      </trkpt>
      <trkpt lat="44.87378" lon="5.55935">
        <ele>1181.4</ele>
        <time>2024-05-11T15:08:35.000Z</time>
      </trkpt>
      <trkpt lat="44.87383" lon="5.55937">
        <ele>1181.4</ele>
        <time>2024-05-11T15:08:40.000Z</time>
      </trkpt>
      <trkpt lat="44.87387" lon="5.5593">
        <ele>1183.5</ele>
        <time>2024-05-11T15:08:46.000Z</time>
      </trkpt>
      <trkpt lat="44.87389" lon="5.5593">
        <ele>1183.7</ele>
        <time>2024-05-11T15:08:47.000Z</time>
      </trkpt>
      <trkpt lat="44.87392" lon="5.55934">
        <ele>1182.9</ele>
        <time>2024-05-11T15:08:52.000Z</time>
      </trkpt>
      <trkpt lat="44.87394" lon="5.55936">
        <ele>1182.4</ele>
        <time>2024-05-11T15:08:56.000Z</time>
      </trkpt>
      <trkpt lat="44.87395" lon="5.55938">
        <ele>1182.1</ele>
        <time>2024-05-11T15:09:00.000Z</time>
      </trkpt>
      <trkpt lat="44.87395" lon="5.55938">
        <ele>1182.1</ele>
        <time>2024-05-11T15:09:01.000Z</time>
      </trkpt>
      <trkpt lat="44.87397" lon="5.55938">
        <ele>1182.2</ele>
        <time>2024-05-11T15:09:05.000Z</time>
      </trkpt>
      <trkpt lat="44.87399" lon="5.55936">
        <ele>1182.6</ele>
        <time>2024-05-11T15:09:08.000Z</time>
      </trkpt>
      <trkpt lat="44.874" lon="5.55935">
        <ele>1183</ele>
        <time>2024-05-11T15:09:10.000Z</time>
      </trkpt>
      <trkpt lat="44.87404" lon="5.55933">
        <ele>1183.7</ele>
        <time>2024-05-11T15:09:15.000Z</time>
      </trkpt>
      <trkpt lat="44.87405" lon="5.55932">
        <ele>1184</ele>
        <time>2024-05-11T15:09:16.000Z</time>
      </trkpt>
      <trkpt lat="44.87409" lon="5.55931">
        <ele>1184.5</ele>
        <time>2024-05-11T15:09:21.000Z</time>
      </trkpt>
      <trkpt lat="44.87413" lon="5.55926">
        <ele>1185.7</ele>
        <time>2024-05-11T15:09:25.000Z</time>
      </trkpt>
      <trkpt lat="44.87416" lon="5.55925">
        <ele>1186.3</ele>
        <time>2024-05-11T15:09:28.000Z</time>
      </trkpt>
      <trkpt lat="44.87422" lon="5.55922">
        <ele>1187</ele>
        <time>2024-05-11T15:09:32.000Z</time>
      </trkpt>
      <trkpt lat="44.87425" lon="5.55921">
        <ele>1187.3</ele>
        <time>2024-05-11T15:09:37.000Z</time>
      </trkpt>
      <trkpt lat="44.87426" lon="5.5592">
        <ele>1187.6</ele>
        <time>2024-05-11T15:09:38.000Z</time>
      </trkpt>
      <trkpt lat="44.87427" lon="5.5592">
        <ele>1187.7</ele>
        <time>2024-05-11T15:09:41.000Z</time>
      </trkpt>
      <trkpt lat="44.87428" lon="5.55919">
        <ele>1187.9</ele>
        <time>2024-05-11T15:09:44.000Z</time>
      </trkpt>
      <trkpt lat="44.87434" lon="5.55916">
        <ele>1188.7</ele>
        <time>2024-05-11T15:09:50.000Z</time>
      </trkpt>
      <trkpt lat="44.87437" lon="5.55913">
        <ele>1189.4</ele>
        <time>2024-05-11T15:09:54.000Z</time>
      </trkpt>
      <trkpt lat="44.87439" lon="5.55909">
        <ele>1190.2</ele>
        <time>2024-05-11T15:09:57.000Z</time>
      </trkpt>
      <trkpt lat="44.87441" lon="5.55911">
        <ele>1190</ele>
        <time>2024-05-11T15:10:02.000Z</time>
      </trkpt>
      <trkpt lat="44.87445" lon="5.55908">
        <ele>1190.7</ele>
        <time>2024-05-11T15:10:07.000Z</time>
      </trkpt>
      <trkpt lat="44.87454" lon="5.55907">
        <ele>1191.5</ele>
        <time>2024-05-11T15:10:13.000Z</time>
      </trkpt>
      <trkpt lat="44.87459" lon="5.55911">
        <ele>1191.1</ele>
        <time>2024-05-11T15:10:21.000Z</time>
      </trkpt>
      <trkpt lat="44.8746" lon="5.55912">
        <ele>1191</ele>
        <time>2024-05-11T15:10:22.000Z</time>
      </trkpt>
      <trkpt lat="44.87466" lon="5.55915">
        <ele>1190.8</ele>
        <time>2024-05-11T15:10:27.000Z</time>
      </trkpt>
      <trkpt lat="44.87468" lon="5.55917">
        <ele>1190.7</ele>
        <time>2024-05-11T15:10:32.000Z</time>
      </trkpt>
      <trkpt lat="44.87471" lon="5.55917">
        <ele>1190.9</ele>
        <time>2024-05-11T15:10:38.000Z</time>
      </trkpt>
      <trkpt lat="44.87472" lon="5.55917">
        <ele>1190.9</ele>
        <time>2024-05-11T15:10:39.000Z</time>
      </trkpt>
      <trkpt lat="44.87475" lon="5.5592">
        <ele>1191.3</ele>
        <time>2024-05-11T15:10:46.000Z</time>
      </trkpt>
      <trkpt lat="44.87476" lon="5.55924">
        <ele>1191.4</ele>
        <time>2024-05-11T15:10:51.000Z</time>
      </trkpt>
      <trkpt lat="44.87479" lon="5.55925">
        <ele>1191.8</ele>
        <time>2024-05-11T15:10:55.000Z</time>
      </trkpt>
      <trkpt lat="44.87483" lon="5.55925">
        <ele>1192.6</ele>
        <time>2024-05-11T15:10:59.000Z</time>
      </trkpt>
      <trkpt lat="44.87486" lon="5.5593">
        <ele>1193</ele>
        <time>2024-05-11T15:11:03.000Z</time>
      </trkpt>
      <trkpt lat="44.87487" lon="5.55931">
        <ele>1193.1</ele>
        <time>2024-05-11T15:11:04.000Z</time>
      </trkpt>
      <trkpt lat="44.87489" lon="5.55929">
        <ele>1193.8</ele>
        <time>2024-05-11T15:11:06.000Z</time>
      </trkpt>
      <trkpt lat="44.87489" lon="5.55931">
        <ele>1193.7</ele>
        <time>2024-05-11T15:11:07.000Z</time>
      </trkpt>
      <trkpt lat="44.87493" lon="5.5593">
        <ele>1194.6</ele>
        <time>2024-05-11T15:11:10.000Z</time>
      </trkpt>
      <trkpt lat="44.87502" lon="5.55936">
        <ele>1196.1</ele>
        <time>2024-05-11T15:11:17.000Z</time>
      </trkpt>
      <trkpt lat="44.87503" lon="5.55938">
        <ele>1196.2</ele>
        <time>2024-05-11T15:11:19.000Z</time>
      </trkpt>
      <trkpt lat="44.87505" lon="5.55942">
        <ele>1196.5</ele>
        <time>2024-05-11T15:11:22.000Z</time>
      </trkpt>
      <trkpt lat="44.87503" lon="5.55943">
        <ele>1196</ele>
        <time>2024-05-11T15:11:28.000Z</time>
      </trkpt>
      <trkpt lat="44.87503" lon="5.55952">
        <ele>1195.5</ele>
        <time>2024-05-11T15:11:35.000Z</time>
      </trkpt>
      <trkpt lat="44.87503" lon="5.55954">
        <ele>1195.4</ele>
        <time>2024-05-11T15:11:36.000Z</time>
      </trkpt>
      <trkpt lat="44.87501" lon="5.5596">
        <ele>1194.8</ele>
        <time>2024-05-11T15:11:42.000Z</time>
      </trkpt>
      <trkpt lat="44.87502" lon="5.55965">
        <ele>1194.8</ele>
        <time>2024-05-11T15:11:47.000Z</time>
      </trkpt>
      <trkpt lat="44.87503" lon="5.55966">
        <ele>1194.9</ele>
        <time>2024-05-11T15:11:48.000Z</time>
      </trkpt>
      <trkpt lat="44.87503" lon="5.55973">
        <ele>1194.7</ele>
        <time>2024-05-11T15:11:53.000Z</time>
      </trkpt>
      <trkpt lat="44.87503" lon="5.55974">
        <ele>1194.7</ele>
        <time>2024-05-11T15:11:54.000Z</time>
      </trkpt>
      <trkpt lat="44.87506" lon="5.55972">
        <ele>1195.6</ele>
        <time>2024-05-11T15:11:57.000Z</time>
      </trkpt>
      <trkpt lat="44.87511" lon="5.55974">
        <ele>1196.6</ele>
        <time>2024-05-11T15:12:03.000Z</time>
      </trkpt>
      <trkpt lat="44.87511" lon="5.55976">
        <ele>1196.6</ele>
        <time>2024-05-11T15:12:04.000Z</time>
      </trkpt>
      <trkpt lat="44.87512" lon="5.55983">
        <ele>1196.8</ele>
        <time>2024-05-11T15:12:09.000Z</time>
      </trkpt>
      <trkpt lat="44.87512" lon="5.55984">
        <ele>1196.8</ele>
        <time>2024-05-11T15:12:10.000Z</time>
      </trkpt>
      <trkpt lat="44.8751" lon="5.55992">
        <ele>1196.1</ele>
        <time>2024-05-11T15:12:15.000Z</time>
      </trkpt>
      <trkpt lat="44.87511" lon="5.55993">
        <ele>1196.4</ele>
        <time>2024-05-11T15:12:17.000Z</time>
      </trkpt>
      <trkpt lat="44.87516" lon="5.55995">
        <ele>1197.6</ele>
        <time>2024-05-11T15:12:23.000Z</time>
      </trkpt>
      <trkpt lat="44.87516" lon="5.55995">
        <ele>1197.7</ele>
        <time>2024-05-11T15:12:24.000Z</time>
      </trkpt>
      <trkpt lat="44.8752" lon="5.55996">
        <ele>1198.8</ele>
        <time>2024-05-11T15:12:30.000Z</time>
      </trkpt>
      <trkpt lat="44.87521" lon="5.56004">
        <ele>1199.2</ele>
        <time>2024-05-11T15:12:35.000Z</time>
      </trkpt>
      <trkpt lat="44.87521" lon="5.56006">
        <ele>1199.1</ele>
        <time>2024-05-11T15:12:36.000Z</time>
      </trkpt>
      <trkpt lat="44.87522" lon="5.5601">
        <ele>1199.3</ele>
        <time>2024-05-11T15:12:38.000Z</time>
      </trkpt>
      <trkpt lat="44.87523" lon="5.5601">
        <ele>1199.6</ele>
        <time>2024-05-11T15:12:39.000Z</time>
      </trkpt>
      <trkpt lat="44.87527" lon="5.56012">
        <ele>1200.6</ele>
        <time>2024-05-11T15:12:42.000Z</time>
      </trkpt>
      <trkpt lat="44.8753" lon="5.56014">
        <ele>1201.6</ele>
        <time>2024-05-11T15:12:46.000Z</time>
      </trkpt>
      <trkpt lat="44.87532" lon="5.56015">
        <ele>1202.4</ele>
        <time>2024-05-11T15:12:48.000Z</time>
      </trkpt>
      <trkpt lat="44.87533" lon="5.56017">
        <ele>1202.8</ele>
        <time>2024-05-11T15:12:51.000Z</time>
      </trkpt>
      <trkpt lat="44.87533" lon="5.56017">
        <ele>1202.8</ele>
        <time>2024-05-11T15:12:52.000Z</time>
      </trkpt>
      <trkpt lat="44.87535" lon="5.5602">
        <ele>1203.2</ele>
        <time>2024-05-11T15:12:56.000Z</time>
      </trkpt>
      <trkpt lat="44.87537" lon="5.56024">
        <ele>1203.9</ele>
        <time>2024-05-11T15:13:00.000Z</time>
      </trkpt>
      <trkpt lat="44.87538" lon="5.56025">
        <ele>1204.2</ele>
        <time>2024-05-11T15:13:02.000Z</time>
      </trkpt>
      <trkpt lat="44.87539" lon="5.56025">
        <ele>1204.7</ele>
        <time>2024-05-11T15:13:04.000Z</time>
      </trkpt>
      <trkpt lat="44.8754" lon="5.56028">
        <ele>1205.1</ele>
        <time>2024-05-11T15:13:07.000Z</time>
      </trkpt>
      <trkpt lat="44.87544" lon="5.56035">
        <ele>1206</ele>
        <time>2024-05-11T15:13:14.000Z</time>
      </trkpt>
      <trkpt lat="44.87545" lon="5.56038">
        <ele>1206.4</ele>
        <time>2024-05-11T15:13:18.000Z</time>
      </trkpt>
      <trkpt lat="44.87546" lon="5.56039">
        <ele>1206.8</ele>
        <time>2024-05-11T15:13:20.000Z</time>
      </trkpt>
      <trkpt lat="44.87548" lon="5.56045">
        <ele>1207.2</ele>
        <time>2024-05-11T15:13:25.000Z</time>
      </trkpt>
      <trkpt lat="44.87548" lon="5.56047">
        <ele>1207.1</ele>
        <time>2024-05-11T15:13:26.000Z</time>
      </trkpt>
      <trkpt lat="44.87549" lon="5.56055">
        <ele>1207.1</ele>
        <time>2024-05-11T15:13:30.000Z</time>
      </trkpt>
      <trkpt lat="44.87549" lon="5.56058">
        <ele>1207.1</ele>
        <time>2024-05-11T15:13:32.000Z</time>
      </trkpt>
      <trkpt lat="44.87552" lon="5.56061">
        <ele>1207.7</ele>
        <time>2024-05-11T15:13:36.000Z</time>
      </trkpt>
      <trkpt lat="44.87555" lon="5.56063">
        <ele>1208.5</ele>
        <time>2024-05-11T15:13:41.000Z</time>
      </trkpt>
      <trkpt lat="44.87557" lon="5.56067">
        <ele>1208.9</ele>
        <time>2024-05-11T15:13:44.000Z</time>
      </trkpt>
      <trkpt lat="44.87559" lon="5.5607">
        <ele>1209.3</ele>
        <time>2024-05-11T15:13:47.000Z</time>
      </trkpt>
      <trkpt lat="44.87562" lon="5.56076">
        <ele>1209.8</ele>
        <time>2024-05-11T15:13:53.000Z</time>
      </trkpt>
      <trkpt lat="44.87564" lon="5.56078">
        <ele>1210.3</ele>
        <time>2024-05-11T15:13:57.000Z</time>
      </trkpt>
      <trkpt lat="44.87564" lon="5.56079">
        <ele>1210.4</ele>
        <time>2024-05-11T15:13:58.000Z</time>
      </trkpt>
      <trkpt lat="44.87567" lon="5.56089">
        <ele>1210.5</ele>
        <time>2024-05-11T15:14:06.000Z</time>
      </trkpt>
      <trkpt lat="44.87569" lon="5.56091">
        <ele>1210.7</ele>
        <time>2024-05-11T15:14:09.000Z</time>
      </trkpt>
      <trkpt lat="44.87569" lon="5.56095">
        <ele>1210.7</ele>
        <time>2024-05-11T15:14:11.000Z</time>
      </trkpt>
      <trkpt lat="44.8757" lon="5.56094">
        <ele>1210.7</ele>
        <time>2024-05-11T15:14:16.000Z</time>
      </trkpt>
      <trkpt lat="44.87568" lon="5.56095">
        <ele>1210.3</ele>
        <time>2024-05-11T15:14:22.000Z</time>
      </trkpt>
      <trkpt lat="44.87568" lon="5.56095">
        <ele>1210.4</ele>
        <time>2024-05-11T15:14:23.000Z</time>
      </trkpt>
      <trkpt lat="44.87571" lon="5.56093">
        <ele>1211.1</ele>
        <time>2024-05-11T15:14:30.000Z</time>
      </trkpt>
      <trkpt lat="44.87572" lon="5.56092">
        <ele>1211.4</ele>
        <time>2024-05-11T15:14:31.000Z</time>
      </trkpt>
      <trkpt lat="44.87575" lon="5.56095">
        <ele>1212.1</ele>
        <time>2024-05-11T15:14:36.000Z</time>
      </trkpt>
      <trkpt lat="44.87577" lon="5.56097">
        <ele>1212.4</ele>
        <time>2024-05-11T15:14:40.000Z</time>
      </trkpt>
      <trkpt lat="44.87581" lon="5.56102">
        <ele>1213</ele>
        <time>2024-05-11T15:14:45.000Z</time>
      </trkpt>
      <trkpt lat="44.87581" lon="5.56104">
        <ele>1213</ele>
        <time>2024-05-11T15:14:46.000Z</time>
      </trkpt>
      <trkpt lat="44.87583" lon="5.56111">
        <ele>1213</ele>
        <time>2024-05-11T15:14:51.000Z</time>
      </trkpt>
      <trkpt lat="44.87583" lon="5.56112">
        <ele>1212.9</ele>
        <time>2024-05-11T15:14:52.000Z</time>
      </trkpt>
      <trkpt lat="44.87584" lon="5.56116">
        <ele>1212.6</ele>
        <time>2024-05-11T15:14:55.000Z</time>
      </trkpt>
      <trkpt lat="44.87585" lon="5.56119">
        <ele>1212.4</ele>
        <time>2024-05-11T15:14:58.000Z</time>
      </trkpt>
      <trkpt lat="44.87585" lon="5.5612">
        <ele>1212.5</ele>
        <time>2024-05-11T15:14:59.000Z</time>
      </trkpt>
      <trkpt lat="44.87586" lon="5.56122">
        <ele>1212.4</ele>
        <time>2024-05-11T15:15:00.000Z</time>
      </trkpt>
      <trkpt lat="44.87587" lon="5.56126">
        <ele>1212.1</ele>
        <time>2024-05-11T15:15:02.000Z</time>
      </trkpt>
      <trkpt lat="44.87587" lon="5.56137">
        <ele>1211</ele>
        <time>2024-05-11T15:15:07.000Z</time>
      </trkpt>
      <trkpt lat="44.87587" lon="5.56139">
        <ele>1210.9</ele>
        <time>2024-05-11T15:15:08.000Z</time>
      </trkpt>
      <trkpt lat="44.87588" lon="5.56138">
        <ele>1211.3</ele>
        <time>2024-05-11T15:15:09.000Z</time>
      </trkpt>
      <trkpt lat="44.8759" lon="5.56142">
        <ele>1211.3</ele>
        <time>2024-05-11T15:15:13.000Z</time>
      </trkpt>
      <trkpt lat="44.87591" lon="5.56146">
        <ele>1211.3</ele>
        <time>2024-05-11T15:15:18.000Z</time>
      </trkpt>
      <trkpt lat="44.87591" lon="5.56147">
        <ele>1211.2</ele>
        <time>2024-05-11T15:15:19.000Z</time>
      </trkpt>
      <trkpt lat="44.87591" lon="5.56149">
        <ele>1211.2</ele>
        <time>2024-05-11T15:15:21.000Z</time>
      </trkpt>
      <trkpt lat="44.87593" lon="5.56152">
        <ele>1211.4</ele>
        <time>2024-05-11T15:15:25.000Z</time>
      </trkpt>
      <trkpt lat="44.87596" lon="5.56153">
        <ele>1212</ele>
        <time>2024-05-11T15:15:29.000Z</time>
      </trkpt>
      <trkpt lat="44.87597" lon="5.56157">
        <ele>1212</ele>
        <time>2024-05-11T15:15:31.000Z</time>
      </trkpt>
      <trkpt lat="44.876" lon="5.56166">
        <ele>1211.7</ele>
        <time>2024-05-11T15:15:37.000Z</time>
      </trkpt>
      <trkpt lat="44.87603" lon="5.56174">
        <ele>1211.8</ele>
        <time>2024-05-11T15:15:41.000Z</time>
      </trkpt>
      <trkpt lat="44.87605" lon="5.56172">
        <ele>1212.4</ele>
        <time>2024-05-11T15:15:42.000Z</time>
      </trkpt>
      <trkpt lat="44.87607" lon="5.5617">
        <ele>1213</ele>
        <time>2024-05-11T15:15:43.000Z</time>
      </trkpt>
      <trkpt lat="44.87611" lon="5.5617">
        <ele>1213.9</ele>
        <time>2024-05-11T15:15:46.000Z</time>
      </trkpt>
      <trkpt lat="44.87612" lon="5.56173">
        <ele>1213.9</ele>
        <time>2024-05-11T15:15:47.000Z</time>
      </trkpt>
      <trkpt lat="44.87612" lon="5.56174">
        <ele>1213.9</ele>
        <time>2024-05-11T15:15:48.000Z</time>
      </trkpt>
      <trkpt lat="44.87612" lon="5.56172">
        <ele>1214</ele>
        <time>2024-05-11T15:15:50.000Z</time>
      </trkpt>
      <trkpt lat="44.87613" lon="5.56169">
        <ele>1214.6</ele>
        <time>2024-05-11T15:15:51.000Z</time>
      </trkpt>
      <trkpt lat="44.87615" lon="5.5617">
        <ele>1214.9</ele>
        <time>2024-05-11T15:15:52.000Z</time>
      </trkpt>
      <trkpt lat="44.87617" lon="5.56172">
        <ele>1215.6</ele>
        <time>2024-05-11T15:15:55.000Z</time>
      </trkpt>
      <trkpt lat="44.87619" lon="5.56171">
        <ele>1216</ele>
        <time>2024-05-11T15:15:56.000Z</time>
      </trkpt>
      <trkpt lat="44.87622" lon="5.5617">
        <ele>1217</ele>
        <time>2024-05-11T15:15:59.000Z</time>
      </trkpt>
      <trkpt lat="44.87623" lon="5.56171">
        <ele>1217.1</ele>
        <time>2024-05-11T15:16:00.000Z</time>
      </trkpt>
      <trkpt lat="44.87625" lon="5.56176">
        <ele>1217.7</ele>
        <time>2024-05-11T15:16:03.000Z</time>
      </trkpt>
      <trkpt lat="44.87621" lon="5.56181">
        <ele>1216.2</ele>
        <time>2024-05-11T15:16:08.000Z</time>
      </trkpt>
      <trkpt lat="44.87624" lon="5.56186">
        <ele>1217</ele>
        <time>2024-05-11T15:16:13.000Z</time>
      </trkpt>
      <trkpt lat="44.87627" lon="5.56188">
        <ele>1217.7</ele>
        <time>2024-05-11T15:16:15.000Z</time>
      </trkpt>
      <trkpt lat="44.87629" lon="5.56189">
        <ele>1218.3</ele>
        <time>2024-05-11T15:16:17.000Z</time>
      </trkpt>
      <trkpt lat="44.87632" lon="5.56189">
        <ele>1219.3</ele>
        <time>2024-05-11T15:16:19.000Z</time>
      </trkpt>
      <trkpt lat="44.87634" lon="5.56191">
        <ele>1219.8</ele>
        <time>2024-05-11T15:16:21.000Z</time>
      </trkpt>
      <trkpt lat="44.87633" lon="5.56193">
        <ele>1219.4</ele>
        <time>2024-05-11T15:16:23.000Z</time>
      </trkpt>
      <trkpt lat="44.87635" lon="5.56193">
        <ele>1219.9</ele>
        <time>2024-05-11T15:16:24.000Z</time>
      </trkpt>
      <trkpt lat="44.8764" lon="5.5619">
        <ele>1221.3</ele>
        <time>2024-05-11T15:16:27.000Z</time>
      </trkpt>
      <trkpt lat="44.87641" lon="5.56191">
        <ele>1221.6</ele>
        <time>2024-05-11T15:16:28.000Z</time>
      </trkpt>
      <trkpt lat="44.87643" lon="5.56195">
        <ele>1221.9</ele>
        <time>2024-05-11T15:16:31.000Z</time>
      </trkpt>
      <trkpt lat="44.87642" lon="5.56196">
        <ele>1221.5</ele>
        <time>2024-05-11T15:16:32.000Z</time>
      </trkpt>
      <trkpt lat="44.87642" lon="5.56202">
        <ele>1220.7</ele>
        <time>2024-05-11T15:16:34.000Z</time>
      </trkpt>
      <trkpt lat="44.87644" lon="5.562">
        <ele>1221.4</ele>
        <time>2024-05-11T15:16:35.000Z</time>
      </trkpt>
      <trkpt lat="44.87646" lon="5.56194">
        <ele>1222.5</ele>
        <time>2024-05-11T15:16:37.000Z</time>
      </trkpt>
      <trkpt lat="44.87648" lon="5.5619">
        <ele>1223.1</ele>
        <time>2024-05-11T15:16:38.000Z</time>
      </trkpt>
      <trkpt lat="44.87649" lon="5.56188">
        <ele>1223.5</ele>
        <time>2024-05-11T15:16:39.000Z</time>
      </trkpt>
      <trkpt lat="44.8765" lon="5.5619">
        <ele>1223.7</ele>
        <time>2024-05-11T15:16:40.000Z</time>
      </trkpt>
      <trkpt lat="44.8765" lon="5.56192">
        <ele>1223.6</ele>
        <time>2024-05-11T15:16:42.000Z</time>
      </trkpt>
      <trkpt lat="44.87653" lon="5.56191">
        <ele>1224.2</ele>
        <time>2024-05-11T15:16:44.000Z</time>
      </trkpt>
      <trkpt lat="44.87654" lon="5.56193">
        <ele>1224.2</ele>
        <time>2024-05-11T15:16:46.000Z</time>
      </trkpt>
      <trkpt lat="44.87654" lon="5.56197">
        <ele>1223.9</ele>
        <time>2024-05-11T15:16:48.000Z</time>
      </trkpt>
      <trkpt lat="44.87655" lon="5.562">
        <ele>1223.7</ele>
        <time>2024-05-11T15:16:49.000Z</time>
      </trkpt>
      <trkpt lat="44.87656" lon="5.56202">
        <ele>1223.7</ele>
        <time>2024-05-11T15:16:52.000Z</time>
      </trkpt>
      <trkpt lat="44.87657" lon="5.56201">
        <ele>1224.1</ele>
        <time>2024-05-11T15:16:53.000Z</time>
      </trkpt>
      <trkpt lat="44.87661" lon="5.562">
        <ele>1225</ele>
        <time>2024-05-11T15:16:56.000Z</time>
      </trkpt>
      <trkpt lat="44.87662" lon="5.56201">
        <ele>1225.1</ele>
        <time>2024-05-11T15:16:57.000Z</time>
      </trkpt>
      <trkpt lat="44.87663" lon="5.56201">
        <ele>1225.3</ele>
        <time>2024-05-11T15:16:59.000Z</time>
      </trkpt>
      <trkpt lat="44.87666" lon="5.562">
        <ele>1226.1</ele>
        <time>2024-05-11T15:17:01.000Z</time>
      </trkpt>
      <trkpt lat="44.87668" lon="5.562">
        <ele>1226.3</ele>
        <time>2024-05-11T15:17:02.000Z</time>
      </trkpt>
      <trkpt lat="44.87671" lon="5.56201">
        <ele>1226.8</ele>
        <time>2024-05-11T15:17:04.000Z</time>
      </trkpt>
      <trkpt lat="44.87673" lon="5.56201">
        <ele>1226.9</ele>
        <time>2024-05-11T15:17:05.000Z</time>
      </trkpt>
      <trkpt lat="44.87673" lon="5.56204">
        <ele>1226.7</ele>
        <time>2024-05-11T15:17:08.000Z</time>
      </trkpt>
      <trkpt lat="44.87672" lon="5.56205">
        <ele>1226.4</ele>
        <time>2024-05-11T15:17:11.000Z</time>
      </trkpt>
      <trkpt lat="44.87674" lon="5.56209">
        <ele>1226.1</ele>
        <time>2024-05-11T15:17:14.000Z</time>
      </trkpt>
      <trkpt lat="44.87676" lon="5.56209">
        <ele>1226.3</ele>
        <time>2024-05-11T15:17:15.000Z</time>
      </trkpt>
      <trkpt lat="44.87677" lon="5.56211">
        <ele>1226.3</ele>
        <time>2024-05-11T15:17:17.000Z</time>
      </trkpt>
      <trkpt lat="44.87679" lon="5.56215">
        <ele>1226.2</ele>
        <time>2024-05-11T15:17:19.000Z</time>
      </trkpt>
      <trkpt lat="44.8768" lon="5.56216">
        <ele>1226.1</ele>
        <time>2024-05-11T15:17:20.000Z</time>
      </trkpt>
      <trkpt lat="44.8768" lon="5.56221">
        <ele>1225.6</ele>
        <time>2024-05-11T15:17:23.000Z</time>
      </trkpt>
      <trkpt lat="44.87683" lon="5.56217">
        <ele>1226.5</ele>
        <time>2024-05-11T15:17:26.000Z</time>
      </trkpt>
      <trkpt lat="44.87684" lon="5.56216">
        <ele>1227</ele>
        <time>2024-05-11T15:17:27.000Z</time>
      </trkpt>
      <trkpt lat="44.87685" lon="5.56215">
        <ele>1227.1</ele>
        <time>2024-05-11T15:17:28.000Z</time>
      </trkpt>
      <trkpt lat="44.87689" lon="5.56214">
        <ele>1227.9</ele>
        <time>2024-05-11T15:17:33.000Z</time>
      </trkpt>
      <trkpt lat="44.87689" lon="5.56214">
        <ele>1228</ele>
        <time>2024-05-11T15:17:34.000Z</time>
      </trkpt>
      <trkpt lat="44.8769" lon="5.56214">
        <ele>1228.2</ele>
        <time>2024-05-11T15:17:35.000Z</time>
      </trkpt>
      <trkpt lat="44.87691" lon="5.56215">
        <ele>1228.2</ele>
        <time>2024-05-11T15:17:37.000Z</time>
      </trkpt>
      <trkpt lat="44.87691" lon="5.56215">
        <ele>1228.3</ele>
        <time>2024-05-11T15:17:38.000Z</time>
      </trkpt>
      <trkpt lat="44.87692" lon="5.56215">
        <ele>1228.3</ele>
        <time>2024-05-11T15:17:39.000Z</time>
      </trkpt>
      <trkpt lat="44.87693" lon="5.56217">
        <ele>1228.4</ele>
        <time>2024-05-11T15:17:41.000Z</time>
      </trkpt>
      <trkpt lat="44.87694" lon="5.5622">
        <ele>1228.1</ele>
        <time>2024-05-11T15:17:45.000Z</time>
      </trkpt>
      <trkpt lat="44.87697" lon="5.56226">
        <ele>1228.1</ele>
        <time>2024-05-11T15:17:50.000Z</time>
      </trkpt>
      <trkpt lat="44.877" lon="5.56225">
        <ele>1228.6</ele>
        <time>2024-05-11T15:17:53.000Z</time>
      </trkpt>
      <trkpt lat="44.87701" lon="5.56223">
        <ele>1228.9</ele>
        <time>2024-05-11T15:17:54.000Z</time>
      </trkpt>
      <trkpt lat="44.87703" lon="5.56224">
        <ele>1229.2</ele>
        <time>2024-05-11T15:17:58.000Z</time>
      </trkpt>
      <trkpt lat="44.87707" lon="5.5623">
        <ele>1229.3</ele>
        <time>2024-05-11T15:18:03.000Z</time>
      </trkpt>
      <trkpt lat="44.87712" lon="5.56231">
        <ele>1229.9</ele>
        <time>2024-05-11T15:18:07.000Z</time>
      </trkpt>
      <trkpt lat="44.87714" lon="5.56234">
        <ele>1229.9</ele>
        <time>2024-05-11T15:18:09.000Z</time>
      </trkpt>
      <trkpt lat="44.87712" lon="5.56241">
        <ele>1229.2</ele>
        <time>2024-05-11T15:18:12.000Z</time>
      </trkpt>
      <trkpt lat="44.87713" lon="5.56242">
        <ele>1229.3</ele>
        <time>2024-05-11T15:18:13.000Z</time>
      </trkpt>
      <trkpt lat="44.87716" lon="5.56241">
        <ele>1229.7</ele>
        <time>2024-05-11T15:18:15.000Z</time>
      </trkpt>
      <trkpt lat="44.87718" lon="5.56243">
        <ele>1229.9</ele>
        <time>2024-05-11T15:18:16.000Z</time>
      </trkpt>
      <trkpt lat="44.87722" lon="5.56245">
        <ele>1230.3</ele>
        <time>2024-05-11T15:18:22.000Z</time>
      </trkpt>
      <trkpt lat="44.87722" lon="5.56245">
        <ele>1230.4</ele>
        <time>2024-05-11T15:18:23.000Z</time>
      </trkpt>
      <trkpt lat="44.87729" lon="5.56246">
        <ele>1231.3</ele>
        <time>2024-05-11T15:18:29.000Z</time>
      </trkpt>
      <trkpt lat="44.87733" lon="5.56249">
        <ele>1231.7</ele>
        <time>2024-05-11T15:18:34.000Z</time>
      </trkpt>
      <trkpt lat="44.87734" lon="5.56252">
        <ele>1231.8</ele>
        <time>2024-05-11T15:18:36.000Z</time>
      </trkpt>
      <trkpt lat="44.87733" lon="5.56257">
        <ele>1231.7</ele>
        <time>2024-05-11T15:18:42.000Z</time>
      </trkpt>
      <trkpt lat="44.87735" lon="5.56261">
        <ele>1232</ele>
        <time>2024-05-11T15:18:46.000Z</time>
      </trkpt>
      <trkpt lat="44.87735" lon="5.56263">
        <ele>1232.1</ele>
        <time>2024-05-11T15:18:47.000Z</time>
      </trkpt>
      <trkpt lat="44.87735" lon="5.56267">
        <ele>1232.2</ele>
        <time>2024-05-11T15:18:49.000Z</time>
      </trkpt>
      <trkpt lat="44.87736" lon="5.56269">
        <ele>1232.3</ele>
        <time>2024-05-11T15:18:52.000Z</time>
      </trkpt>
      <trkpt lat="44.87736" lon="5.56271">
        <ele>1232.3</ele>
        <time>2024-05-11T15:18:54.000Z</time>
      </trkpt>
      <trkpt lat="44.87735" lon="5.56277">
        <ele>1232.3</ele>
        <time>2024-05-11T15:18:58.000Z</time>
      </trkpt>
      <trkpt lat="44.87735" lon="5.56278">
        <ele>1232.4</ele>
        <time>2024-05-11T15:18:59.000Z</time>
      </trkpt>
      <trkpt lat="44.87734" lon="5.56287">
        <ele>1232.9</ele>
        <time>2024-05-11T15:19:04.000Z</time>
      </trkpt>
      <trkpt lat="44.87734" lon="5.56287">
        <ele>1232.9</ele>
        <time>2024-05-11T15:19:05.000Z</time>
      </trkpt>
      <trkpt lat="44.87733" lon="5.56293">
        <ele>1233.2</ele>
        <time>2024-05-11T15:19:09.000Z</time>
      </trkpt>
      <trkpt lat="44.87732" lon="5.56295">
        <ele>1233.3</ele>
        <time>2024-05-11T15:19:15.000Z</time>
      </trkpt>
      <trkpt lat="44.87732" lon="5.56296">
        <ele>1233.3</ele>
        <time>2024-05-11T15:19:20.000Z</time>
      </trkpt>
      <trkpt lat="44.87729" lon="5.56286">
        <ele>1232.4</ele>
        <time>2024-05-11T15:19:22.000Z</time>
      </trkpt>
      <trkpt lat="44.87729" lon="5.56282">
        <ele>1232</ele>
        <time>2024-05-11T15:19:23.000Z</time>
      </trkpt>
      <trkpt lat="44.87729" lon="5.56298">
        <ele>1233.3</ele>
        <time>2024-05-11T15:19:29.000Z</time>
      </trkpt>
      <trkpt lat="44.87729" lon="5.56303">
        <ele>1233.6</ele>
        <time>2024-05-11T15:19:33.000Z</time>
      </trkpt>
      <trkpt lat="44.87729" lon="5.56308">
        <ele>1234</ele>
        <time>2024-05-11T15:19:36.000Z</time>
      </trkpt>
      <trkpt lat="44.87729" lon="5.56316">
        <ele>1235.2</ele>
        <time>2024-05-11T15:19:43.000Z</time>
      </trkpt>
      <trkpt lat="44.87729" lon="5.56321">
        <ele>1235.8</ele>
        <time>2024-05-11T15:19:50.000Z</time>
      </trkpt>
      <trkpt lat="44.87728" lon="5.56326">
        <ele>1236.4</ele>
        <time>2024-05-11T15:19:55.000Z</time>
      </trkpt>
      <trkpt lat="44.87728" lon="5.56329">
        <ele>1236.8</ele>
        <time>2024-05-11T15:19:58.000Z</time>
      </trkpt>
      <trkpt lat="44.87726" lon="5.56334">
        <ele>1237.4</ele>
        <time>2024-05-11T15:20:06.000Z</time>
      </trkpt>
      <trkpt lat="44.87727" lon="5.56334">
        <ele>1237.4</ele>
        <time>2024-05-11T15:20:12.000Z</time>
      </trkpt>
      <trkpt lat="44.87726" lon="5.5634">
        <ele>1238</ele>
        <time>2024-05-11T15:20:20.000Z</time>
      </trkpt>
      <trkpt lat="44.87724" lon="5.56355">
        <ele>1239.5</ele>
        <time>2024-05-11T15:20:26.000Z</time>
      </trkpt>
      <trkpt lat="44.87723" lon="5.5636">
        <ele>1239.9</ele>
        <time>2024-05-11T15:20:28.000Z</time>
      </trkpt>
      <trkpt lat="44.87722" lon="5.56363">
        <ele>1240.2</ele>
        <time>2024-05-11T15:20:32.000Z</time>
      </trkpt>
      <trkpt lat="44.87722" lon="5.56369">
        <ele>1241.2</ele>
        <time>2024-05-11T15:20:39.000Z</time>
      </trkpt>
      <trkpt lat="44.87721" lon="5.56376">
        <ele>1242</ele>
        <time>2024-05-11T15:20:48.000Z</time>
      </trkpt>
      <trkpt lat="44.8772" lon="5.56378">
        <ele>1242.1</ele>
        <time>2024-05-11T15:20:53.000Z</time>
      </trkpt>
      <trkpt lat="44.8772" lon="5.56377">
        <ele>1241.9</ele>
        <time>2024-05-11T15:20:54.000Z</time>
      </trkpt>
      <trkpt lat="44.8772" lon="5.56377">
        <ele>1241.9</ele>
        <time>2024-05-11T15:20:55.000Z</time>
      </trkpt>
      <trkpt lat="44.87721" lon="5.56382">
        <ele>1242.9</ele>
        <time>2024-05-11T15:21:04.000Z</time>
      </trkpt>
      <trkpt lat="44.87721" lon="5.56383">
        <ele>1243</ele>
        <time>2024-05-11T15:21:05.000Z</time>
      </trkpt>
      <trkpt lat="44.87721" lon="5.56387">
        <ele>1243.5</ele>
        <time>2024-05-11T15:21:12.000Z</time>
      </trkpt>
      <trkpt lat="44.8772" lon="5.56391">
        <ele>1244</ele>
        <time>2024-05-11T15:21:17.000Z</time>
      </trkpt>
      <trkpt lat="44.8772" lon="5.56391">
        <ele>1244</ele>
        <time>2024-05-11T15:21:18.000Z</time>
      </trkpt>
      <trkpt lat="44.87721" lon="5.5639">
        <ele>1244</ele>
        <time>2024-05-11T15:21:23.000Z</time>
      </trkpt>
      <trkpt lat="44.87721" lon="5.56392">
        <ele>1244.2</ele>
        <time>2024-05-11T15:21:28.000Z</time>
      </trkpt>
      <trkpt lat="44.87721" lon="5.56392">
        <ele>1244.2</ele>
        <time>2024-05-11T15:21:30.000Z</time>
      </trkpt>
      <trkpt lat="44.8772" lon="5.564">
        <ele>1245.2</ele>
        <time>2024-05-11T15:21:39.000Z</time>
      </trkpt>
      <trkpt lat="44.87718" lon="5.56411">
        <ele>1246.5</ele>
        <time>2024-05-11T15:21:47.000Z</time>
      </trkpt>
      <trkpt lat="44.87718" lon="5.56413">
        <ele>1246.8</ele>
        <time>2024-05-11T15:21:49.000Z</time>
      </trkpt>
      <trkpt lat="44.87718" lon="5.56419">
        <ele>1247.6</ele>
        <time>2024-05-11T15:21:53.000Z</time>
      </trkpt>
      <trkpt lat="44.87718" lon="5.56424">
        <ele>1248.3</ele>
        <time>2024-05-11T15:21:58.000Z</time>
      </trkpt>
      <trkpt lat="44.87718" lon="5.56429">
        <ele>1249.1</ele>
        <time>2024-05-11T15:22:03.000Z</time>
      </trkpt>
      <trkpt lat="44.87718" lon="5.5643">
        <ele>1249.2</ele>
        <time>2024-05-11T15:22:04.000Z</time>
      </trkpt>
      <trkpt lat="44.87718" lon="5.56434">
        <ele>1249.9</ele>
        <time>2024-05-11T15:22:14.000Z</time>
      </trkpt>
      <trkpt lat="44.87718" lon="5.56437">
        <ele>1250.3</ele>
        <time>2024-05-11T15:22:18.000Z</time>
      </trkpt>
      <trkpt lat="44.87717" lon="5.5644">
        <ele>1250.7</ele>
        <time>2024-05-11T15:22:21.000Z</time>
      </trkpt>
      <trkpt lat="44.87718" lon="5.56442">
        <ele>1250.9</ele>
        <time>2024-05-11T15:22:23.000Z</time>
      </trkpt>
      <trkpt lat="44.87718" lon="5.56449">
        <ele>1252.1</ele>
        <time>2024-05-11T15:22:30.000Z</time>
      </trkpt>
      <trkpt lat="44.87719" lon="5.5645">
        <ele>1252.4</ele>
        <time>2024-05-11T15:22:34.000Z</time>
      </trkpt>
      <trkpt lat="44.87718" lon="5.56457">
        <ele>1253.7</ele>
        <time>2024-05-11T15:22:39.000Z</time>
      </trkpt>
      <trkpt lat="44.87718" lon="5.56459">
        <ele>1254</ele>
        <time>2024-05-11T15:22:40.000Z</time>
      </trkpt>
      <trkpt lat="44.87718" lon="5.56466">
        <ele>1255.3</ele>
        <time>2024-05-11T15:22:46.000Z</time>
      </trkpt>
      <trkpt lat="44.87718" lon="5.56472">
        <ele>1256.3</ele>
        <time>2024-05-11T15:22:51.000Z</time>
      </trkpt>
      <trkpt lat="44.87717" lon="5.56477">
        <ele>1257.1</ele>
        <time>2024-05-11T15:22:54.000Z</time>
      </trkpt>
      <trkpt lat="44.87715" lon="5.56483">
        <ele>1258</ele>
        <time>2024-05-11T15:22:57.000Z</time>
      </trkpt>
      <trkpt lat="44.87707" lon="5.5651">
        <ele>1262.8</ele>
        <time>2024-05-11T15:23:05.000Z</time>
      </trkpt>
      <trkpt lat="44.87706" lon="5.56514">
        <ele>1263.4</ele>
        <time>2024-05-11T15:23:07.000Z</time>
      </trkpt>
      <trkpt lat="44.87702" lon="5.56518">
        <ele>1264.2</ele>
        <time>2024-05-11T15:23:11.000Z</time>
      </trkpt>
      <trkpt lat="44.87699" lon="5.56526">
        <ele>1265.8</ele>
        <time>2024-05-11T15:23:17.000Z</time>
      </trkpt>
      <trkpt lat="44.87695" lon="5.56526">
        <ele>1265.6</ele>
        <time>2024-05-11T15:23:26.000Z</time>
      </trkpt>
      <trkpt lat="44.87695" lon="5.56527">
        <ele>1265.7</ele>
        <time>2024-05-11T15:23:28.000Z</time>
      </trkpt>
      <trkpt lat="44.87693" lon="5.56527">
        <ele>1265.6</ele>
        <time>2024-05-11T15:23:32.000Z</time>
      </trkpt>
      <trkpt lat="44.87686" lon="5.56527">
        <ele>1265.2</ele>
        <time>2024-05-11T15:23:40.000Z</time>
      </trkpt>
      <trkpt lat="44.87681" lon="5.56526">
        <ele>1264.5</ele>
        <time>2024-05-11T15:23:46.000Z</time>
      </trkpt>
      <trkpt lat="44.87679" lon="5.56529">
        <ele>1265.2</ele>
        <time>2024-05-11T15:23:49.000Z</time>
      </trkpt>
      <trkpt lat="44.87678" lon="5.56528">
        <ele>1264.9</ele>
        <time>2024-05-11T15:23:51.000Z</time>
      </trkpt>
      <trkpt lat="44.87678" lon="5.56528">
        <ele>1264.8</ele>
        <time>2024-05-11T15:23:57.000Z</time>
      </trkpt>
      <trkpt lat="44.87678" lon="5.56527">
        <ele>1264.7</ele>
        <time>2024-05-11T15:23:58.000Z</time>
      </trkpt>
      <trkpt lat="44.87677" lon="5.56529">
        <ele>1265.2</ele>
        <time>2024-05-11T15:24:03.000Z</time>
      </trkpt>
      <trkpt lat="44.87677" lon="5.56529">
        <ele>1265.2</ele>
        <time>2024-05-11T15:24:04.000Z</time>
      </trkpt>
      <trkpt lat="44.87676" lon="5.5653">
        <ele>1265.3</ele>
        <time>2024-05-11T15:24:06.000Z</time>
      </trkpt>
      <trkpt lat="44.87673" lon="5.56531">
        <ele>1265.6</ele>
        <time>2024-05-11T15:24:11.000Z</time>
      </trkpt>
      <trkpt lat="44.87669" lon="5.5653">
        <ele>1265</ele>
        <time>2024-05-11T15:24:16.000Z</time>
      </trkpt>
      <trkpt lat="44.87665" lon="5.56532">
        <ele>1265.6</ele>
        <time>2024-05-11T15:24:20.000Z</time>
      </trkpt>
      <trkpt lat="44.87662" lon="5.56532">
        <ele>1265.2</ele>
        <time>2024-05-11T15:24:23.000Z</time>
      </trkpt>
      <trkpt lat="44.87662" lon="5.56532">
        <ele>1265.4</ele>
        <time>2024-05-11T15:24:24.000Z</time>
      </trkpt>
      <trkpt lat="44.87661" lon="5.56529">
        <ele>1264.2</ele>
        <time>2024-05-11T15:24:28.000Z</time>
      </trkpt>
      <trkpt lat="44.87658" lon="5.56528">
        <ele>1263.8</ele>
        <time>2024-05-11T15:24:33.000Z</time>
      </trkpt>
      <trkpt lat="44.87655" lon="5.56529">
        <ele>1263.9</ele>
        <time>2024-05-11T15:24:37.000Z</time>
      </trkpt>
      <trkpt lat="44.87655" lon="5.56529">
        <ele>1263.9</ele>
        <time>2024-05-11T15:24:38.000Z</time>
      </trkpt>
      <trkpt lat="44.87651" lon="5.56528">
        <ele>1263.4</ele>
        <time>2024-05-11T15:24:43.000Z</time>
      </trkpt>
      <trkpt lat="44.87648" lon="5.56529">
        <ele>1263.9</ele>
        <time>2024-05-11T15:24:48.000Z</time>
      </trkpt>
      <trkpt lat="44.87646" lon="5.5653">
        <ele>1263.9</ele>
        <time>2024-05-11T15:24:50.000Z</time>
      </trkpt>
      <trkpt lat="44.87643" lon="5.56531">
        <ele>1264.3</ele>
        <time>2024-05-11T15:24:54.000Z</time>
      </trkpt>
      <trkpt lat="44.87641" lon="5.56533">
        <ele>1264.8</ele>
        <time>2024-05-11T15:24:58.000Z</time>
      </trkpt>
      <trkpt lat="44.8764" lon="5.56533">
        <ele>1264.8</ele>
        <time>2024-05-11T15:25:00.000Z</time>
      </trkpt>
      <trkpt lat="44.87639" lon="5.56533">
        <ele>1265</ele>
        <time>2024-05-11T15:25:01.000Z</time>
      </trkpt>
      <trkpt lat="44.87637" lon="5.56534">
        <ele>1265.1</ele>
        <time>2024-05-11T15:25:03.000Z</time>
      </trkpt>
      <trkpt lat="44.87633" lon="5.5653">
        <ele>1263.7</ele>
        <time>2024-05-11T15:25:07.000Z</time>
      </trkpt>
      <trkpt lat="44.87631" lon="5.56532">
        <ele>1264.2</ele>
        <time>2024-05-11T15:25:11.000Z</time>
      </trkpt>
      <trkpt lat="44.8763" lon="5.56532">
        <ele>1264.4</ele>
        <time>2024-05-11T15:25:12.000Z</time>
      </trkpt>
      <trkpt lat="44.87627" lon="5.56531">
        <ele>1263.9</ele>
        <time>2024-05-11T15:25:16.000Z</time>
      </trkpt>
      <trkpt lat="44.87626" lon="5.56531">
        <ele>1263.7</ele>
        <time>2024-05-11T15:25:17.000Z</time>
      </trkpt>
      <trkpt lat="44.8762" lon="5.56532">
        <ele>1263.9</ele>
        <time>2024-05-11T15:25:22.000Z</time>
      </trkpt>
      <trkpt lat="44.87617" lon="5.56531">
        <ele>1263.3</ele>
        <time>2024-05-11T15:25:24.000Z</time>
      </trkpt>
      <trkpt lat="44.87613" lon="5.56532">
        <ele>1263.7</ele>
        <time>2024-05-11T15:25:28.000Z</time>
      </trkpt>
      <trkpt lat="44.8761" lon="5.56535">
        <ele>1264.9</ele>
        <time>2024-05-11T15:25:32.000Z</time>
      </trkpt>
      <trkpt lat="44.87607" lon="5.56535">
        <ele>1264.8</ele>
        <time>2024-05-11T15:25:37.000Z</time>
      </trkpt>
      <trkpt lat="44.87607" lon="5.56536">
        <ele>1265.3</ele>
        <time>2024-05-11T15:25:38.000Z</time>
      </trkpt>
      <trkpt lat="44.87605" lon="5.56538">
        <ele>1265.9</ele>
        <time>2024-05-11T15:25:42.000Z</time>
      </trkpt>
      <trkpt lat="44.87602" lon="5.5654">
        <ele>1266.5</ele>
        <time>2024-05-11T15:25:46.000Z</time>
      </trkpt>
      <trkpt lat="44.87601" lon="5.56541">
        <ele>1267.1</ele>
        <time>2024-05-11T15:25:48.000Z</time>
      </trkpt>
      <trkpt lat="44.87599" lon="5.56543">
        <ele>1267.6</ele>
        <time>2024-05-11T15:25:52.000Z</time>
      </trkpt>
      <trkpt lat="44.87599" lon="5.56543">
        <ele>1267.7</ele>
        <time>2024-05-11T15:25:53.000Z</time>
      </trkpt>
      <trkpt lat="44.87597" lon="5.56541">
        <ele>1266.8</ele>
        <time>2024-05-11T15:25:55.000Z</time>
      </trkpt>
      <trkpt lat="44.87594" lon="5.56539">
        <ele>1266.2</ele>
        <time>2024-05-11T15:25:57.000Z</time>
      </trkpt>
      <trkpt lat="44.87592" lon="5.56542">
        <ele>1267.4</ele>
        <time>2024-05-11T15:26:02.000Z</time>
      </trkpt>
      <trkpt lat="44.87587" lon="5.56543">
        <ele>1267.7</ele>
        <time>2024-05-11T15:26:06.000Z</time>
      </trkpt>
      <trkpt lat="44.87587" lon="5.56546">
        <ele>1268.8</ele>
        <time>2024-05-11T15:26:07.000Z</time>
      </trkpt>
      <trkpt lat="44.87584" lon="5.5655">
        <ele>1270.1</ele>
        <time>2024-05-11T15:26:10.000Z</time>
      </trkpt>
      <trkpt lat="44.87583" lon="5.5655">
        <ele>1270</ele>
        <time>2024-05-11T15:26:11.000Z</time>
      </trkpt>
      <trkpt lat="44.87581" lon="5.56547">
        <ele>1269</ele>
        <time>2024-05-11T15:26:14.000Z</time>
      </trkpt>
      <trkpt lat="44.8758" lon="5.56548">
        <ele>1269.2</ele>
        <time>2024-05-11T15:26:16.000Z</time>
      </trkpt>
      <trkpt lat="44.87579" lon="5.56548">
        <ele>1269.2</ele>
        <time>2024-05-11T15:26:17.000Z</time>
      </trkpt>
      <trkpt lat="44.8758" lon="5.56549">
        <ele>1269.6</ele>
        <time>2024-05-11T15:26:19.000Z</time>
      </trkpt>
      <trkpt lat="44.87581" lon="5.5654">
        <ele>1266.4</ele>
        <time>2024-05-11T15:26:20.000Z</time>
      </trkpt>
      <trkpt lat="44.87576" lon="5.56543">
        <ele>1267.5</ele>
        <time>2024-05-11T15:26:26.000Z</time>
      </trkpt>
      <trkpt lat="44.87572" lon="5.56545">
        <ele>1268.1</ele>
        <time>2024-05-11T15:26:31.000Z</time>
      </trkpt>
      <trkpt lat="44.87571" lon="5.56544">
        <ele>1268</ele>
        <time>2024-05-11T15:26:32.000Z</time>
      </trkpt>
      <trkpt lat="44.87565" lon="5.56542">
        <ele>1267.3</ele>
        <time>2024-05-11T15:26:38.000Z</time>
      </trkpt>
      <trkpt lat="44.87561" lon="5.56543">
        <ele>1267.6</ele>
        <time>2024-05-11T15:26:42.000Z</time>
      </trkpt>
      <trkpt lat="44.87561" lon="5.56544">
        <ele>1267.7</ele>
        <time>2024-05-11T15:26:43.000Z</time>
      </trkpt>
      <trkpt lat="44.87557" lon="5.56548">
        <ele>1269.1</ele>
        <time>2024-05-11T15:26:50.000Z</time>
      </trkpt>
      <trkpt lat="44.87552" lon="5.56548">
        <ele>1269.1</ele>
        <time>2024-05-11T15:26:54.000Z</time>
      </trkpt>
      <trkpt lat="44.87549" lon="5.56548">
        <ele>1268.9</ele>
        <time>2024-05-11T15:26:56.000Z</time>
      </trkpt>
      <trkpt lat="44.87545" lon="5.56552">
        <ele>1269.6</ele>
        <time>2024-05-11T15:27:03.000Z</time>
      </trkpt>
      <trkpt lat="44.87542" lon="5.56552">
        <ele>1269.6</ele>
        <time>2024-05-11T15:27:09.000Z</time>
      </trkpt>
      <trkpt lat="44.8754" lon="5.56552">
        <ele>1269.3</ele>
        <time>2024-05-11T15:27:12.000Z</time>
      </trkpt>
      <trkpt lat="44.87538" lon="5.56553">
        <ele>1269.3</ele>
        <time>2024-05-11T15:27:14.000Z</time>
      </trkpt>
      <trkpt lat="44.87533" lon="5.56553">
        <ele>1268.8</ele>
        <time>2024-05-11T15:27:20.000Z</time>
      </trkpt>
      <trkpt lat="44.87529" lon="5.56553">
        <ele>1268.4</ele>
        <time>2024-05-11T15:27:24.000Z</time>
      </trkpt>
      <trkpt lat="44.87528" lon="5.56553">
        <ele>1268.3</ele>
        <time>2024-05-11T15:27:25.000Z</time>
      </trkpt>
      <trkpt lat="44.87521" lon="5.56555">
        <ele>1268.1</ele>
        <time>2024-05-11T15:27:32.000Z</time>
      </trkpt>
      <trkpt lat="44.87518" lon="5.56554">
        <ele>1267.6</ele>
        <time>2024-05-11T15:27:35.000Z</time>
      </trkpt>
      <trkpt lat="44.87515" lon="5.56556">
        <ele>1267.8</ele>
        <time>2024-05-11T15:27:38.000Z</time>
      </trkpt>
      <trkpt lat="44.87514" lon="5.56556">
        <ele>1267.5</ele>
        <time>2024-05-11T15:27:42.000Z</time>
      </trkpt>
      <trkpt lat="44.8751" lon="5.56559">
        <ele>1267.5</ele>
        <time>2024-05-11T15:27:48.000Z</time>
      </trkpt>
      <trkpt lat="44.8751" lon="5.5656">
        <ele>1267.7</ele>
        <time>2024-05-11T15:27:49.000Z</time>
      </trkpt>
      <trkpt lat="44.87509" lon="5.56562">
        <ele>1267.8</ele>
        <time>2024-05-11T15:27:50.000Z</time>
      </trkpt>
      <trkpt lat="44.87506" lon="5.56565">
        <ele>1267.9</ele>
        <time>2024-05-11T15:27:54.000Z</time>
      </trkpt>
      <trkpt lat="44.87503" lon="5.5657">
        <ele>1268</ele>
        <time>2024-05-11T15:27:59.000Z</time>
      </trkpt>
      <trkpt lat="44.875" lon="5.56578">
        <ele>1268.3</ele>
        <time>2024-05-11T15:28:06.000Z</time>
      </trkpt>
      <trkpt lat="44.87499" lon="5.56579">
        <ele>1268.4</ele>
        <time>2024-05-11T15:28:07.000Z</time>
      </trkpt>
      <trkpt lat="44.87499" lon="5.5658">
        <ele>1268.4</ele>
        <time>2024-05-11T15:28:10.000Z</time>
      </trkpt>
      <trkpt lat="44.875" lon="5.56597">
        <ele>1268.9</ele>
        <time>2024-05-11T15:28:15.000Z</time>
      </trkpt>
      <trkpt lat="44.87502" lon="5.56602">
        <ele>1269.4</ele>
        <time>2024-05-11T15:28:19.000Z</time>
      </trkpt>
      <trkpt lat="44.87502" lon="5.56601">
        <ele>1269.5</ele>
        <time>2024-05-11T15:28:20.000Z</time>
      </trkpt>
      <trkpt lat="44.87503" lon="5.566">
        <ele>1269.9</ele>
        <time>2024-05-11T15:28:23.000Z</time>
      </trkpt>
      <trkpt lat="44.87506" lon="5.56599">
        <ele>1270.6</ele>
        <time>2024-05-11T15:28:28.000Z</time>
      </trkpt>
      <trkpt lat="44.87506" lon="5.56598">
        <ele>1270.6</ele>
        <time>2024-05-11T15:28:30.000Z</time>
      </trkpt>
      <trkpt lat="44.87508" lon="5.56595">
        <ele>1271.1</ele>
        <time>2024-05-11T15:28:33.000Z</time>
      </trkpt>
      <trkpt lat="44.87512" lon="5.5659">
        <ele>1271.9</ele>
        <time>2024-05-11T15:28:37.000Z</time>
      </trkpt>
      <trkpt lat="44.87513" lon="5.5659">
        <ele>1272.2</ele>
        <time>2024-05-11T15:28:38.000Z</time>
      </trkpt>
      <trkpt lat="44.87517" lon="5.56583">
        <ele>1272.5</ele>
        <time>2024-05-11T15:28:42.000Z</time>
      </trkpt>
      <trkpt lat="44.8752" lon="5.56582">
        <ele>1273</ele>
        <time>2024-05-11T15:28:44.000Z</time>
      </trkpt>
      <trkpt lat="44.87521" lon="5.5658">
        <ele>1272.9</ele>
        <time>2024-05-11T15:28:47.000Z</time>
      </trkpt>
      <trkpt lat="44.87526" lon="5.56574">
        <ele>1272.8</ele>
        <time>2024-05-11T15:28:52.000Z</time>
      </trkpt>
      <trkpt lat="44.87531" lon="5.56574">
        <ele>1273.3</ele>
        <time>2024-05-11T15:28:57.000Z</time>
      </trkpt>
      <trkpt lat="44.87534" lon="5.56573">
        <ele>1273.7</ele>
        <time>2024-05-11T15:29:02.000Z</time>
      </trkpt>
      <trkpt lat="44.87535" lon="5.56577">
        <ele>1274.7</ele>
        <time>2024-05-11T15:29:04.000Z</time>
      </trkpt>
      <trkpt lat="44.87537" lon="5.5658">
        <ele>1275.8</ele>
        <time>2024-05-11T15:29:08.000Z</time>
      </trkpt>
      <trkpt lat="44.8754" lon="5.56579">
        <ele>1276.2</ele>
        <time>2024-05-11T15:29:12.000Z</time>
      </trkpt>
      <trkpt lat="44.8754" lon="5.56579">
        <ele>1276.2</ele>
        <time>2024-05-11T15:29:13.000Z</time>
      </trkpt>
      <trkpt lat="44.87545" lon="5.56577">
        <ele>1276.4</ele>
        <time>2024-05-11T15:29:17.000Z</time>
      </trkpt>
      <trkpt lat="44.8755" lon="5.5658">
        <ele>1278.2</ele>
        <time>2024-05-11T15:29:23.000Z</time>
      </trkpt>
      <trkpt lat="44.87553" lon="5.5658">
        <ele>1278.6</ele>
        <time>2024-05-11T15:29:24.000Z</time>
      </trkpt>
      <trkpt lat="44.87553" lon="5.56582">
        <ele>1279</ele>
        <time>2024-05-11T15:29:25.000Z</time>
      </trkpt>
      <trkpt lat="44.87554" lon="5.56584">
        <ele>1279.9</ele>
        <time>2024-05-11T15:29:28.000Z</time>
      </trkpt>
      <trkpt lat="44.87559" lon="5.56587">
        <ele>1280.9</ele>
        <time>2024-05-11T15:29:33.000Z</time>
      </trkpt>
      <trkpt lat="44.8756" lon="5.56588">
        <ele>1281.2</ele>
        <time>2024-05-11T15:29:35.000Z</time>
      </trkpt>
      <trkpt lat="44.87561" lon="5.5659">
        <ele>1281.8</ele>
        <time>2024-05-11T15:29:41.000Z</time>
      </trkpt>
      <trkpt lat="44.87559" lon="5.56588">
        <ele>1281.1</ele>
        <time>2024-05-11T15:29:44.000Z</time>
      </trkpt>
      <trkpt lat="44.87558" lon="5.5659">
        <ele>1281.4</ele>
        <time>2024-05-11T15:29:49.000Z</time>
      </trkpt>
      <trkpt lat="44.87557" lon="5.56589">
        <ele>1281.1</ele>
        <time>2024-05-11T15:29:54.000Z</time>
      </trkpt>
      <trkpt lat="44.87557" lon="5.5659">
        <ele>1281.2</ele>
        <time>2024-05-11T15:29:59.000Z</time>
      </trkpt>
      <trkpt lat="44.87558" lon="5.56587">
        <ele>1280.9</ele>
        <time>2024-05-11T15:30:04.000Z</time>
      </trkpt>
      <trkpt lat="44.87559" lon="5.56587">
        <ele>1280.8</ele>
        <time>2024-05-11T15:30:08.000Z</time>
      </trkpt>
      <trkpt lat="44.87562" lon="5.56586">
        <ele>1281.1</ele>
        <time>2024-05-11T15:30:13.000Z</time>
      </trkpt>
      <trkpt lat="44.87564" lon="5.56587">
        <ele>1281.4</ele>
        <time>2024-05-11T15:30:15.000Z</time>
      </trkpt>
      <trkpt lat="44.87566" lon="5.56588">
        <ele>1281.6</ele>
        <time>2024-05-11T15:30:18.000Z</time>
      </trkpt>
      <trkpt lat="44.87566" lon="5.56585">
        <ele>1281.1</ele>
        <time>2024-05-11T15:30:21.000Z</time>
      </trkpt>
      <trkpt lat="44.87568" lon="5.56585">
        <ele>1281.1</ele>
        <time>2024-05-11T15:30:23.000Z</time>
      </trkpt>
      <trkpt lat="44.87574" lon="5.56584">
        <ele>1281.5</ele>
        <time>2024-05-11T15:30:28.000Z</time>
      </trkpt>
      <trkpt lat="44.87579" lon="5.56588">
        <ele>1282.7</ele>
        <time>2024-05-11T15:30:34.000Z</time>
      </trkpt>
      <trkpt lat="44.8758" lon="5.56589">
        <ele>1283.1</ele>
        <time>2024-05-11T15:30:35.000Z</time>
      </trkpt>
      <trkpt lat="44.87584" lon="5.56586">
        <ele>1282.8</ele>
        <time>2024-05-11T15:30:39.000Z</time>
      </trkpt>
      <trkpt lat="44.87589" lon="5.5659">
        <ele>1284</ele>
        <time>2024-05-11T15:30:45.000Z</time>
      </trkpt>
      <trkpt lat="44.8759" lon="5.56588">
        <ele>1283.5</ele>
        <time>2024-05-11T15:30:49.000Z</time>
      </trkpt>
      <trkpt lat="44.87592" lon="5.5659">
        <ele>1284.1</ele>
        <time>2024-05-11T15:30:52.000Z</time>
      </trkpt>
      <trkpt lat="44.87594" lon="5.56589">
        <ele>1283.9</ele>
        <time>2024-05-11T15:30:55.000Z</time>
      </trkpt>
      <trkpt lat="44.876" lon="5.5659">
        <ele>1284.5</ele>
        <time>2024-05-11T15:31:01.000Z</time>
      </trkpt>
      <trkpt lat="44.87602" lon="5.56592">
        <ele>1284.9</ele>
        <time>2024-05-11T15:31:06.000Z</time>
      </trkpt>
      <trkpt lat="44.87604" lon="5.5659">
        <ele>1284.5</ele>
        <time>2024-05-11T15:31:07.000Z</time>
      </trkpt>
      <trkpt lat="44.8761" lon="5.56589">
        <ele>1284.7</ele>
        <time>2024-05-11T15:31:13.000Z</time>
      </trkpt>
      <trkpt lat="44.87614" lon="5.56589">
        <ele>1284.7</ele>
        <time>2024-05-11T15:31:18.000Z</time>
      </trkpt>
      <trkpt lat="44.87617" lon="5.56606">
        <ele>1289.6</ele>
        <time>2024-05-11T15:31:24.000Z</time>
      </trkpt>
      <trkpt lat="44.87618" lon="5.56605">
        <ele>1289.3</ele>
        <time>2024-05-11T15:31:25.000Z</time>
      </trkpt>
      <trkpt lat="44.87617" lon="5.56605">
        <ele>1289.3</ele>
        <time>2024-05-11T15:31:29.000Z</time>
      </trkpt>
      <trkpt lat="44.87617" lon="5.56605">
        <ele>1289.3</ele>
        <time>2024-05-11T15:31:31.000Z</time>
      </trkpt>
      <trkpt lat="44.87619" lon="5.56605">
        <ele>1289.4</ele>
        <time>2024-05-11T15:31:33.000Z</time>
      </trkpt>
      <trkpt lat="44.8762" lon="5.56605">
        <ele>1289.3</ele>
        <time>2024-05-11T15:31:38.000Z</time>
      </trkpt>
      <trkpt lat="44.87621" lon="5.56604">
        <ele>1289.3</ele>
        <time>2024-05-11T15:31:39.000Z</time>
      </trkpt>
      <trkpt lat="44.87621" lon="5.56606">
        <ele>1289.7</ele>
        <time>2024-05-11T15:31:42.000Z</time>
      </trkpt>
      <trkpt lat="44.87621" lon="5.56606">
        <ele>1289.7</ele>
        <time>2024-05-11T15:31:45.000Z</time>
      </trkpt>
      <trkpt lat="44.87622" lon="5.56606">
        <ele>1289.8</ele>
        <time>2024-05-11T15:31:48.000Z</time>
      </trkpt>
      <trkpt lat="44.87625" lon="5.56609">
        <ele>1290.8</ele>
        <time>2024-05-11T15:31:52.000Z</time>
      </trkpt>
      <trkpt lat="44.87632" lon="5.56612">
        <ele>1291.9</ele>
        <time>2024-05-11T15:31:58.000Z</time>
      </trkpt>
      <trkpt lat="44.87635" lon="5.56614">
        <ele>1292.5</ele>
        <time>2024-05-11T15:32:01.000Z</time>
      </trkpt>
      <trkpt lat="44.87637" lon="5.56615">
        <ele>1292.9</ele>
        <time>2024-05-11T15:32:04.000Z</time>
      </trkpt>
      <trkpt lat="44.87639" lon="5.56614">
        <ele>1292.5</ele>
        <time>2024-05-11T15:32:05.000Z</time>
      </trkpt>
      <trkpt lat="44.87642" lon="5.56612">
        <ele>1292.2</ele>
        <time>2024-05-11T15:32:07.000Z</time>
      </trkpt>
      <trkpt lat="44.87644" lon="5.56614">
        <ele>1292.8</ele>
        <time>2024-05-11T15:32:09.000Z</time>
      </trkpt>
      <trkpt lat="44.87648" lon="5.56614">
        <ele>1293.1</ele>
        <time>2024-05-11T15:32:14.000Z</time>
      </trkpt>
      <trkpt lat="44.87655" lon="5.56618">
        <ele>1294.2</ele>
        <time>2024-05-11T15:32:16.000Z</time>
      </trkpt>
      <trkpt lat="44.87657" lon="5.56617">
        <ele>1293.9</ele>
        <time>2024-05-11T15:32:18.000Z</time>
      </trkpt>
      <trkpt lat="44.87662" lon="5.56613">
        <ele>1293.2</ele>
        <time>2024-05-11T15:32:25.000Z</time>
      </trkpt>
      <trkpt lat="44.87663" lon="5.56617">
        <ele>1294.2</ele>
        <time>2024-05-11T15:32:28.000Z</time>
      </trkpt>
      <trkpt lat="44.87664" lon="5.56618">
        <ele>1294.6</ele>
        <time>2024-05-11T15:32:29.000Z</time>
      </trkpt>
      <trkpt lat="44.87666" lon="5.56619">
        <ele>1294.9</ele>
        <time>2024-05-11T15:32:34.000Z</time>
      </trkpt>
      <trkpt lat="44.87671" lon="5.5662">
        <ele>1295.3</ele>
        <time>2024-05-11T15:32:41.000Z</time>
      </trkpt>
      <trkpt lat="44.87674" lon="5.56624">
        <ele>1296.6</ele>
        <time>2024-05-11T15:32:43.000Z</time>
      </trkpt>
      <trkpt lat="44.87679" lon="5.56629">
        <ele>1298.1</ele>
        <time>2024-05-11T15:32:48.000Z</time>
      </trkpt>
      <trkpt lat="44.87681" lon="5.56629">
        <ele>1298.1</ele>
        <time>2024-05-11T15:32:54.000Z</time>
      </trkpt>
      <trkpt lat="44.87688" lon="5.56634">
        <ele>1300</ele>
        <time>2024-05-11T15:33:00.000Z</time>
      </trkpt>
      <trkpt lat="44.87688" lon="5.56633">
        <ele>1299.8</ele>
        <time>2024-05-11T15:33:01.000Z</time>
      </trkpt>
      <trkpt lat="44.87689" lon="5.56634">
        <ele>1300.1</ele>
        <time>2024-05-11T15:33:06.000Z</time>
      </trkpt>
      <trkpt lat="44.87691" lon="5.56636">
        <ele>1300.8</ele>
        <time>2024-05-11T15:33:13.000Z</time>
      </trkpt>
      <trkpt lat="44.87692" lon="5.56636">
        <ele>1300.8</ele>
        <time>2024-05-11T15:33:14.000Z</time>
      </trkpt>
      <trkpt lat="44.87693" lon="5.56637">
        <ele>1301.2</ele>
        <time>2024-05-11T15:33:18.000Z</time>
      </trkpt>
      <trkpt lat="44.87696" lon="5.56636">
        <ele>1301</ele>
        <time>2024-05-11T15:33:23.000Z</time>
      </trkpt>
      <trkpt lat="44.87697" lon="5.56636">
        <ele>1301</ele>
        <time>2024-05-11T15:33:25.000Z</time>
      </trkpt>
      <trkpt lat="44.87699" lon="5.56636">
        <ele>1300.9</ele>
        <time>2024-05-11T15:33:28.000Z</time>
      </trkpt>
      <trkpt lat="44.87706" lon="5.56635">
        <ele>1300.9</ele>
        <time>2024-05-11T15:33:34.000Z</time>
      </trkpt>
      <trkpt lat="44.87708" lon="5.56637">
        <ele>1301.5</ele>
        <time>2024-05-11T15:33:37.000Z</time>
      </trkpt>
      <trkpt lat="44.8771" lon="5.56637">
        <ele>1301.5</ele>
        <time>2024-05-11T15:33:39.000Z</time>
      </trkpt>
      <trkpt lat="44.87711" lon="5.56637">
        <ele>1301.3</ele>
        <time>2024-05-11T15:33:40.000Z</time>
      </trkpt>
      <trkpt lat="44.87719" lon="5.56642">
        <ele>1302.7</ele>
        <time>2024-05-11T15:33:47.000Z</time>
      </trkpt>
      <trkpt lat="44.8772" lon="5.56644">
        <ele>1303.2</ele>
        <time>2024-05-11T15:33:51.000Z</time>
      </trkpt>
      <trkpt lat="44.8772" lon="5.56644">
        <ele>1303.3</ele>
        <time>2024-05-11T15:33:52.000Z</time>
      </trkpt>
      <trkpt lat="44.87724" lon="5.56646">
        <ele>1303.9</ele>
        <time>2024-05-11T15:33:55.000Z</time>
      </trkpt>
      <trkpt lat="44.87731" lon="5.56651">
        <ele>1305</ele>
        <time>2024-05-11T15:34:01.000Z</time>
      </trkpt>
      <trkpt lat="44.87739" lon="5.56657">
        <ele>1306.4</ele>
        <time>2024-05-11T15:34:06.000Z</time>
      </trkpt>
      <trkpt lat="44.8774" lon="5.56656">
        <ele>1306.4</ele>
        <time>2024-05-11T15:34:08.000Z</time>
      </trkpt>
      <trkpt lat="44.87747" lon="5.56662">
        <ele>1307.8</ele>
        <time>2024-05-11T15:34:14.000Z</time>
      </trkpt>
      <trkpt lat="44.8775" lon="5.56663">
        <ele>1308</ele>
        <time>2024-05-11T15:34:18.000Z</time>
      </trkpt>
      <trkpt lat="44.87751" lon="5.56665">
        <ele>1308.5</ele>
        <time>2024-05-11T15:34:24.000Z</time>
      </trkpt>
      <trkpt lat="44.87756" lon="5.56665">
        <ele>1308.7</ele>
        <time>2024-05-11T15:34:27.000Z</time>
      </trkpt>
      <trkpt lat="44.87757" lon="5.56667">
        <ele>1309.1</ele>
        <time>2024-05-11T15:34:30.000Z</time>
      </trkpt>
      <trkpt lat="44.87761" lon="5.56666">
        <ele>1308.8</ele>
        <time>2024-05-11T15:34:37.000Z</time>
      </trkpt>
      <trkpt lat="44.87763" lon="5.5666">
        <ele>1307.2</ele>
        <time>2024-05-11T15:34:42.000Z</time>
      </trkpt>
      <trkpt lat="44.87765" lon="5.56657">
        <ele>1306.5</ele>
        <time>2024-05-11T15:34:44.000Z</time>
      </trkpt>
      <trkpt lat="44.87767" lon="5.56654">
        <ele>1305.8</ele>
        <time>2024-05-11T15:34:46.000Z</time>
      </trkpt>
      <trkpt lat="44.87775" lon="5.5666">
        <ele>1307.2</ele>
        <time>2024-05-11T15:34:54.000Z</time>
      </trkpt>
      <trkpt lat="44.87775" lon="5.5666">
        <ele>1307.3</ele>
        <time>2024-05-11T15:34:55.000Z</time>
      </trkpt>
      <trkpt lat="44.87778" lon="5.56661">
        <ele>1307.5</ele>
        <time>2024-05-11T15:35:01.000Z</time>
      </trkpt>
      <trkpt lat="44.87778" lon="5.56661">
        <ele>1307.6</ele>
        <time>2024-05-11T15:35:03.000Z</time>
      </trkpt>
      <trkpt lat="44.8778" lon="5.56663">
        <ele>1308</ele>
        <time>2024-05-11T15:35:07.000Z</time>
      </trkpt>
      <trkpt lat="44.87781" lon="5.56663">
        <ele>1308</ele>
        <time>2024-05-11T15:35:08.000Z</time>
      </trkpt>
      <trkpt lat="44.87786" lon="5.56664">
        <ele>1308.5</ele>
        <time>2024-05-11T15:35:14.000Z</time>
      </trkpt>
      <trkpt lat="44.8779" lon="5.56665">
        <ele>1308.9</ele>
        <time>2024-05-11T15:35:20.000Z</time>
      </trkpt>
      <trkpt lat="44.8779" lon="5.56664">
        <ele>1308.8</ele>
        <time>2024-05-11T15:35:22.000Z</time>
      </trkpt>
      <trkpt lat="44.87795" lon="5.56664">
        <ele>1309</ele>
        <time>2024-05-11T15:35:27.000Z</time>
      </trkpt>
      <trkpt lat="44.87799" lon="5.56666">
        <ele>1309.5</ele>
        <time>2024-05-11T15:35:31.000Z</time>
      </trkpt>
      <trkpt lat="44.878" lon="5.56667">
        <ele>1310</ele>
        <time>2024-05-11T15:35:33.000Z</time>
      </trkpt>
      <trkpt lat="44.87809" lon="5.5667">
        <ele>1310.8</ele>
        <time>2024-05-11T15:35:39.000Z</time>
      </trkpt>
      <trkpt lat="44.87818" lon="5.56675">
        <ele>1312.1</ele>
        <time>2024-05-11T15:35:45.000Z</time>
      </trkpt>
      <trkpt lat="44.87819" lon="5.56675">
        <ele>1312.2</ele>
        <time>2024-05-11T15:35:46.000Z</time>
      </trkpt>
      <trkpt lat="44.87822" lon="5.56674">
        <ele>1312.1</ele>
        <time>2024-05-11T15:35:52.000Z</time>
      </trkpt>
      <trkpt lat="44.87825" lon="5.56677">
        <ele>1313</ele>
        <time>2024-05-11T15:35:58.000Z</time>
      </trkpt>
      <trkpt lat="44.87826" lon="5.56678">
        <ele>1313</ele>
        <time>2024-05-11T15:35:59.000Z</time>
      </trkpt>
      <trkpt lat="44.87828" lon="5.56681">
        <ele>1313.9</ele>
        <time>2024-05-11T15:36:06.000Z</time>
      </trkpt>
      <trkpt lat="44.8783" lon="5.56683">
        <ele>1314.5</ele>
        <time>2024-05-11T15:36:09.000Z</time>
      </trkpt>
      <trkpt lat="44.87834" lon="5.56682">
        <ele>1314.5</ele>
        <time>2024-05-11T15:36:13.000Z</time>
      </trkpt>
      <trkpt lat="44.87839" lon="5.56685">
        <ele>1315.9</ele>
        <time>2024-05-11T15:36:17.000Z</time>
      </trkpt>
      <trkpt lat="44.8784" lon="5.56686">
        <ele>1316.1</ele>
        <time>2024-05-11T15:36:18.000Z</time>
      </trkpt>
      <trkpt lat="44.87842" lon="5.56685">
        <ele>1316.2</ele>
        <time>2024-05-11T15:36:24.000Z</time>
      </trkpt>
      <trkpt lat="44.87843" lon="5.56687">
        <ele>1316.6</ele>
        <time>2024-05-11T15:36:27.000Z</time>
      </trkpt>
      <trkpt lat="44.87844" lon="5.56685">
        <ele>1316.3</ele>
        <time>2024-05-11T15:36:30.000Z</time>
      </trkpt>
      <trkpt lat="44.87847" lon="5.56684">
        <ele>1316.1</ele>
        <time>2024-05-11T15:36:35.000Z</time>
      </trkpt>
      <trkpt lat="44.87848" lon="5.56683">
        <ele>1316.2</ele>
        <time>2024-05-11T15:36:36.000Z</time>
      </trkpt>
      <trkpt lat="44.8785" lon="5.56684">
        <ele>1316.5</ele>
        <time>2024-05-11T15:36:39.000Z</time>
      </trkpt>
      <trkpt lat="44.87851" lon="5.56683">
        <ele>1316.5</ele>
        <time>2024-05-11T15:36:41.000Z</time>
      </trkpt>
      <trkpt lat="44.87854" lon="5.56681">
        <ele>1316</ele>
        <time>2024-05-11T15:36:45.000Z</time>
      </trkpt>
      <trkpt lat="44.87857" lon="5.56681">
        <ele>1316.3</ele>
        <time>2024-05-11T15:36:49.000Z</time>
      </trkpt>
      <trkpt lat="44.87858" lon="5.56681">
        <ele>1316.4</ele>
        <time>2024-05-11T15:36:50.000Z</time>
      </trkpt>
      <trkpt lat="44.87862" lon="5.56681">
        <ele>1316.7</ele>
        <time>2024-05-11T15:36:55.000Z</time>
      </trkpt>
      <trkpt lat="44.87854" lon="5.56681">
        <ele>1315.9</ele>
        <time>2024-05-11T15:37:00.000Z</time>
      </trkpt>
      <trkpt lat="44.87849" lon="5.56677">
        <ele>1314.2</ele>
        <time>2024-05-11T15:37:05.000Z</time>
      </trkpt>
      <trkpt lat="44.8785" lon="5.56674">
        <ele>1313.5</ele>
        <time>2024-05-11T15:37:08.000Z</time>
      </trkpt>
      <trkpt lat="44.87855" lon="5.56674">
        <ele>1313.7</ele>
        <time>2024-05-11T15:37:20.000Z</time>
      </trkpt>
      <trkpt lat="44.87857" lon="5.56675">
        <ele>1314.2</ele>
        <time>2024-05-11T15:37:21.000Z</time>
      </trkpt>
      <trkpt lat="44.87861" lon="5.56675">
        <ele>1314.7</ele>
        <time>2024-05-11T15:37:25.000Z</time>
      </trkpt>
      <trkpt lat="44.87863" lon="5.56675">
        <ele>1314.9</ele>
        <time>2024-05-11T15:37:27.000Z</time>
      </trkpt>
      <trkpt lat="44.87866" lon="5.56676">
        <ele>1315.5</ele>
        <time>2024-05-11T15:37:29.000Z</time>
      </trkpt>
      <trkpt lat="44.87876" lon="5.56678">
        <ele>1317.6</ele>
        <time>2024-05-11T15:37:35.000Z</time>
      </trkpt>
      <trkpt lat="44.8788" lon="5.5668">
        <ele>1318.6</ele>
        <time>2024-05-11T15:37:38.000Z</time>
      </trkpt>
      <trkpt lat="44.87878" lon="5.56678">
        <ele>1317.9</ele>
        <time>2024-05-11T15:37:40.000Z</time>
      </trkpt>
      <trkpt lat="44.87878" lon="5.56678">
        <ele>1317.9</ele>
        <time>2024-05-11T15:37:41.000Z</time>
      </trkpt>
      <trkpt lat="44.8788" lon="5.5668">
        <ele>1318.7</ele>
        <time>2024-05-11T15:37:45.000Z</time>
      </trkpt>
      <trkpt lat="44.87885" lon="5.56681">
        <ele>1319.6</ele>
        <time>2024-05-11T15:37:51.000Z</time>
      </trkpt>
      <trkpt lat="44.87885" lon="5.56681">
        <ele>1319.8</ele>
        <time>2024-05-11T15:37:52.000Z</time>
      </trkpt>
      <trkpt lat="44.87888" lon="5.56681">
        <ele>1320.1</ele>
        <time>2024-05-11T15:37:55.000Z</time>
      </trkpt>
      <trkpt lat="44.8789" lon="5.56682">
        <ele>1320.5</ele>
        <time>2024-05-11T15:37:57.000Z</time>
      </trkpt>
      <trkpt lat="44.87892" lon="5.5668">
        <ele>1320.2</ele>
        <time>2024-05-11T15:38:01.000Z</time>
      </trkpt>
      <trkpt lat="44.87893" lon="5.56678">
        <ele>1319.9</ele>
        <time>2024-05-11T15:38:03.000Z</time>
      </trkpt>
      <trkpt lat="44.87897" lon="5.56674">
        <ele>1319.4</ele>
        <time>2024-05-11T15:38:08.000Z</time>
      </trkpt>
      <trkpt lat="44.87902" lon="5.56669">
        <ele>1318.6</ele>
        <time>2024-05-11T15:38:14.000Z</time>
      </trkpt>
      <trkpt lat="44.87903" lon="5.56667">
        <ele>1318.1</ele>
        <time>2024-05-11T15:38:15.000Z</time>
      </trkpt>
      <trkpt lat="44.87907" lon="5.56663">
        <ele>1317.6</ele>
        <time>2024-05-11T15:38:19.000Z</time>
      </trkpt>
      <trkpt lat="44.87909" lon="5.5666">
        <ele>1317.1</ele>
        <time>2024-05-11T15:38:25.000Z</time>
      </trkpt>
      <trkpt lat="44.87911" lon="5.56655">
        <ele>1316.2</ele>
        <time>2024-05-11T15:38:29.000Z</time>
      </trkpt>
      <trkpt lat="44.87912" lon="5.56658">
        <ele>1317.1</ele>
        <time>2024-05-11T15:38:30.000Z</time>
      </trkpt>
      <trkpt lat="44.87915" lon="5.56656">
        <ele>1317.1</ele>
        <time>2024-05-11T15:38:36.000Z</time>
      </trkpt>
      <trkpt lat="44.87917" lon="5.5666">
        <ele>1318.4</ele>
        <time>2024-05-11T15:38:39.000Z</time>
      </trkpt>
      <trkpt lat="44.87918" lon="5.56663">
        <ele>1319.1</ele>
        <time>2024-05-11T15:38:40.000Z</time>
      </trkpt>
      <trkpt lat="44.87921" lon="5.56652">
        <ele>1316.8</ele>
        <time>2024-05-11T15:38:44.000Z</time>
      </trkpt>
      <trkpt lat="44.87918" lon="5.56647">
        <ele>1315.1</ele>
        <time>2024-05-11T15:38:46.000Z</time>
      </trkpt>
      <trkpt lat="44.87919" lon="5.56652">
        <ele>1316.6</ele>
        <time>2024-05-11T15:38:50.000Z</time>
      </trkpt>
      <trkpt lat="44.87921" lon="5.56653">
        <ele>1317.2</ele>
        <time>2024-05-11T15:38:52.000Z</time>
      </trkpt>
      <trkpt lat="44.87929" lon="5.56661">
        <ele>1320.1</ele>
        <time>2024-05-11T15:38:56.000Z</time>
      </trkpt>
      <trkpt lat="44.87942" lon="5.56665">
        <ele>1323.2</ele>
        <time>2024-05-11T15:39:02.000Z</time>
      </trkpt>
      <trkpt lat="44.87941" lon="5.56665">
        <ele>1322.9</ele>
        <time>2024-05-11T15:39:05.000Z</time>
      </trkpt>
      <trkpt lat="44.87943" lon="5.56667">
        <ele>1323.8</ele>
        <time>2024-05-11T15:39:07.000Z</time>
      </trkpt>
      <trkpt lat="44.87945" lon="5.56668">
        <ele>1324.3</ele>
        <time>2024-05-11T15:39:08.000Z</time>
      </trkpt>
      <trkpt lat="44.87951" lon="5.5667">
        <ele>1325.3</ele>
        <time>2024-05-11T15:39:12.000Z</time>
      </trkpt>
      <trkpt lat="44.87952" lon="5.56672">
        <ele>1325.8</ele>
        <time>2024-05-11T15:39:16.000Z</time>
      </trkpt>
      <trkpt lat="44.87953" lon="5.56671">
        <ele>1325.4</ele>
        <time>2024-05-11T15:39:18.000Z</time>
      </trkpt>
      <trkpt lat="44.87956" lon="5.56674">
        <ele>1326.5</ele>
        <time>2024-05-11T15:39:22.000Z</time>
      </trkpt>
      <trkpt lat="44.87957" lon="5.56675">
        <ele>1327</ele>
        <time>2024-05-11T15:39:28.000Z</time>
      </trkpt>
      <trkpt lat="44.87959" lon="5.56678">
        <ele>1327.9</ele>
        <time>2024-05-11T15:39:33.000Z</time>
      </trkpt>
      <trkpt lat="44.87963" lon="5.56677">
        <ele>1327.8</ele>
        <time>2024-05-11T15:39:39.000Z</time>
      </trkpt>
      <trkpt lat="44.87964" lon="5.56676">
        <ele>1327.7</ele>
        <time>2024-05-11T15:39:40.000Z</time>
      </trkpt>
      <trkpt lat="44.87966" lon="5.56678">
        <ele>1328.2</ele>
        <time>2024-05-11T15:39:43.000Z</time>
      </trkpt>
      <trkpt lat="44.87971" lon="5.5668">
        <ele>1329.2</ele>
        <time>2024-05-11T15:39:47.000Z</time>
      </trkpt>
      <trkpt lat="44.87973" lon="5.5668">
        <ele>1329.2</ele>
        <time>2024-05-11T15:39:50.000Z</time>
      </trkpt>
      <trkpt lat="44.87978" lon="5.56683">
        <ele>1330.4</ele>
        <time>2024-05-11T15:39:54.000Z</time>
      </trkpt>
      <trkpt lat="44.8798" lon="5.56683">
        <ele>1330.7</ele>
        <time>2024-05-11T15:39:55.000Z</time>
      </trkpt>
      <trkpt lat="44.87981" lon="5.56682">
        <ele>1330.4</ele>
        <time>2024-05-11T15:39:57.000Z</time>
      </trkpt>
      <trkpt lat="44.87982" lon="5.56682">
        <ele>1330.4</ele>
        <time>2024-05-11T15:39:58.000Z</time>
      </trkpt>
      <trkpt lat="44.8799" lon="5.56681">
        <ele>1330.2</ele>
        <time>2024-05-11T15:40:03.000Z</time>
      </trkpt>
      <trkpt lat="44.87994" lon="5.56684">
        <ele>1331.5</ele>
        <time>2024-05-11T15:40:09.000Z</time>
      </trkpt>
      <trkpt lat="44.87999" lon="5.56674">
        <ele>1328.3</ele>
        <time>2024-05-11T15:40:13.000Z</time>
      </trkpt>
      <trkpt lat="44.87999" lon="5.56676">
        <ele>1329</ele>
        <time>2024-05-11T15:40:15.000Z</time>
      </trkpt>
      <trkpt lat="44.88" lon="5.56681">
        <ele>1330.5</ele>
        <time>2024-05-11T15:40:20.000Z</time>
      </trkpt>
      <trkpt lat="44.88005" lon="5.5668">
        <ele>1330.6</ele>
        <time>2024-05-11T15:40:24.000Z</time>
      </trkpt>
      <trkpt lat="44.88009" lon="5.56684">
        <ele>1332.1</ele>
        <time>2024-05-11T15:40:27.000Z</time>
      </trkpt>
      <trkpt lat="44.8801" lon="5.56683">
        <ele>1331.7</ele>
        <time>2024-05-11T15:40:28.000Z</time>
      </trkpt>
      <trkpt lat="44.88011" lon="5.56684">
        <ele>1332.2</ele>
        <time>2024-05-11T15:40:29.000Z</time>
      </trkpt>
      <trkpt lat="44.8801" lon="5.56683">
        <ele>1331.8</ele>
        <time>2024-05-11T15:40:31.000Z</time>
      </trkpt>
      <trkpt lat="44.8801" lon="5.56682">
        <ele>1331.6</ele>
        <time>2024-05-11T15:40:34.000Z</time>
      </trkpt>
      <trkpt lat="44.88015" lon="5.56676">
        <ele>1330</ele>
        <time>2024-05-11T15:40:38.000Z</time>
      </trkpt>
      <trkpt lat="44.88017" lon="5.56679">
        <ele>1331</ele>
        <time>2024-05-11T15:40:41.000Z</time>
      </trkpt>
      <trkpt lat="44.88025" lon="5.5669">
        <ele>1334.5</ele>
        <time>2024-05-11T15:40:47.000Z</time>
      </trkpt>
      <trkpt lat="44.88025" lon="5.56691">
        <ele>1334.8</ele>
        <time>2024-05-11T15:40:50.000Z</time>
      </trkpt>
      <trkpt lat="44.88027" lon="5.56689">
        <ele>1334.4</ele>
        <time>2024-05-11T15:40:53.000Z</time>
      </trkpt>
      <trkpt lat="44.88034" lon="5.56692">
        <ele>1335.7</ele>
        <time>2024-05-11T15:40:59.000Z</time>
      </trkpt>
      <trkpt lat="44.88035" lon="5.5669">
        <ele>1335.3</ele>
        <time>2024-05-11T15:41:00.000Z</time>
      </trkpt>
      <trkpt lat="44.88034" lon="5.56686">
        <ele>1333.9</ele>
        <time>2024-05-11T15:41:04.000Z</time>
      </trkpt>
      <trkpt lat="44.88033" lon="5.56686">
        <ele>1333.9</ele>
        <time>2024-05-11T15:41:05.000Z</time>
      </trkpt>
      <trkpt lat="44.88039" lon="5.56693">
        <ele>1336.4</ele>
        <time>2024-05-11T15:41:08.000Z</time>
      </trkpt>
      <trkpt lat="44.8804" lon="5.56696">
        <ele>1337.4</ele>
        <time>2024-05-11T15:41:11.000Z</time>
      </trkpt>
      <trkpt lat="44.8804" lon="5.56696">
        <ele>1337.3</ele>
        <time>2024-05-11T15:41:13.000Z</time>
      </trkpt>
      <trkpt lat="44.88043" lon="5.56695">
        <ele>1337.4</ele>
        <time>2024-05-11T15:41:17.000Z</time>
      </trkpt>
      <trkpt lat="44.88044" lon="5.56695">
        <ele>1337.3</ele>
        <time>2024-05-11T15:41:22.000Z</time>
      </trkpt>
      <trkpt lat="44.88049" lon="5.56698">
        <ele>1338.6</ele>
        <time>2024-05-11T15:41:25.000Z</time>
      </trkpt>
      <trkpt lat="44.88052" lon="5.567">
        <ele>1339.5</ele>
        <time>2024-05-11T15:41:29.000Z</time>
      </trkpt>
      <trkpt lat="44.88056" lon="5.56702">
        <ele>1340.6</ele>
        <time>2024-05-11T15:41:34.000Z</time>
      </trkpt>
      <trkpt lat="44.88059" lon="5.56703">
        <ele>1341</ele>
        <time>2024-05-11T15:41:37.000Z</time>
      </trkpt>
      <trkpt lat="44.8806" lon="5.56702">
        <ele>1341</ele>
        <time>2024-05-11T15:41:40.000Z</time>
      </trkpt>
      <trkpt lat="44.88067" lon="5.56704">
        <ele>1342.3</ele>
        <time>2024-05-11T15:41:48.000Z</time>
      </trkpt>
      <trkpt lat="44.8807" lon="5.56705">
        <ele>1342.8</ele>
        <time>2024-05-11T15:41:52.000Z</time>
      </trkpt>
      <trkpt lat="44.88079" lon="5.56708">
        <ele>1344.6</ele>
        <time>2024-05-11T15:42:00.000Z</time>
      </trkpt>
      <trkpt lat="44.88085" lon="5.56708">
        <ele>1345</ele>
        <time>2024-05-11T15:42:04.000Z</time>
      </trkpt>
      <trkpt lat="44.88088" lon="5.56708">
        <ele>1345.3</ele>
        <time>2024-05-11T15:42:08.000Z</time>
      </trkpt>
      <trkpt lat="44.88088" lon="5.56707">
        <ele>1345.1</ele>
        <time>2024-05-11T15:42:09.000Z</time>
      </trkpt>
      <trkpt lat="44.88099" lon="5.56708">
        <ele>1346</ele>
        <time>2024-05-11T15:42:13.000Z</time>
      </trkpt>
      <trkpt lat="44.881" lon="5.56705">
        <ele>1345.3</ele>
        <time>2024-05-11T15:42:19.000Z</time>
      </trkpt>
      <trkpt lat="44.88101" lon="5.56705">
        <ele>1345.3</ele>
        <time>2024-05-11T15:42:23.000Z</time>
      </trkpt>
      <trkpt lat="44.88101" lon="5.56705">
        <ele>1345.4</ele>
        <time>2024-05-11T15:42:24.000Z</time>
      </trkpt>
      <trkpt lat="44.88102" lon="5.56704">
        <ele>1345.3</ele>
        <time>2024-05-11T15:42:27.000Z</time>
      </trkpt>
      <trkpt lat="44.88105" lon="5.56702">
        <ele>1345.1</ele>
        <time>2024-05-11T15:42:34.000Z</time>
      </trkpt>
      <trkpt lat="44.88106" lon="5.56702">
        <ele>1345.1</ele>
        <time>2024-05-11T15:42:35.000Z</time>
      </trkpt>
      <trkpt lat="44.88108" lon="5.56702">
        <ele>1345.4</ele>
        <time>2024-05-11T15:42:38.000Z</time>
      </trkpt>
      <trkpt lat="44.88113" lon="5.567">
        <ele>1345.4</ele>
        <time>2024-05-11T15:42:44.000Z</time>
      </trkpt>
      <trkpt lat="44.88114" lon="5.56701">
        <ele>1345.7</ele>
        <time>2024-05-11T15:42:46.000Z</time>
      </trkpt>
      <trkpt lat="44.88115" lon="5.56703">
        <ele>1346.3</ele>
        <time>2024-05-11T15:42:47.000Z</time>
      </trkpt>
      <trkpt lat="44.88116" lon="5.56705">
        <ele>1346.6</ele>
        <time>2024-05-11T15:42:48.000Z</time>
      </trkpt>
      <trkpt lat="44.88118" lon="5.5671">
        <ele>1348</ele>
        <time>2024-05-11T15:42:54.000Z</time>
      </trkpt>
      <trkpt lat="44.88119" lon="5.56713">
        <ele>1348.6</ele>
        <time>2024-05-11T15:42:57.000Z</time>
      </trkpt>
      <trkpt lat="44.88123" lon="5.56718">
        <ele>1350</ele>
        <time>2024-05-11T15:43:00.000Z</time>
      </trkpt>
      <trkpt lat="44.8813" lon="5.56718">
        <ele>1350.5</ele>
        <time>2024-05-11T15:43:06.000Z</time>
      </trkpt>
      <trkpt lat="44.88137" lon="5.56718">
        <ele>1351.1</ele>
        <time>2024-05-11T15:43:12.000Z</time>
      </trkpt>
      <trkpt lat="44.88143" lon="5.56716">
        <ele>1351.1</ele>
        <time>2024-05-11T15:43:18.000Z</time>
      </trkpt>
      <trkpt lat="44.88147" lon="5.56717">
        <ele>1351.4</ele>
        <time>2024-05-11T15:43:23.000Z</time>
      </trkpt>
      <trkpt lat="44.88152" lon="5.56717">
        <ele>1351.7</ele>
        <time>2024-05-11T15:43:28.000Z</time>
      </trkpt>
      <trkpt lat="44.88156" lon="5.56711">
        <ele>1351.1</ele>
        <time>2024-05-11T15:43:31.000Z</time>
      </trkpt>
      <trkpt lat="44.88157" lon="5.56711">
        <ele>1351.2</ele>
        <time>2024-05-11T15:43:33.000Z</time>
      </trkpt>
      <trkpt lat="44.88158" lon="5.56708">
        <ele>1350.8</ele>
        <time>2024-05-11T15:43:38.000Z</time>
      </trkpt>
      <trkpt lat="44.8816" lon="5.56706">
        <ele>1350.8</ele>
        <time>2024-05-11T15:43:44.000Z</time>
      </trkpt>
      <trkpt lat="44.88161" lon="5.56706">
        <ele>1350.8</ele>
        <time>2024-05-11T15:43:46.000Z</time>
      </trkpt>
      <trkpt lat="44.88166" lon="5.56704">
        <ele>1351</ele>
        <time>2024-05-11T15:43:53.000Z</time>
      </trkpt>
      <trkpt lat="44.88167" lon="5.56703">
        <ele>1350.9</ele>
        <time>2024-05-11T15:43:55.000Z</time>
      </trkpt>
      <trkpt lat="44.88172" lon="5.567">
        <ele>1350.9</ele>
        <time>2024-05-11T15:43:59.000Z</time>
      </trkpt>
      <trkpt lat="44.88174" lon="5.567">
        <ele>1351.1</ele>
        <time>2024-05-11T15:44:05.000Z</time>
      </trkpt>
      <trkpt lat="44.88175" lon="5.56699">
        <ele>1351.1</ele>
        <time>2024-05-11T15:44:07.000Z</time>
      </trkpt>
      <trkpt lat="44.88178" lon="5.56698">
        <ele>1351.2</ele>
        <time>2024-05-11T15:44:10.000Z</time>
      </trkpt>
      <trkpt lat="44.88179" lon="5.56698">
        <ele>1351.2</ele>
        <time>2024-05-11T15:44:11.000Z</time>
      </trkpt>
      <trkpt lat="44.88182" lon="5.56697">
        <ele>1351.4</ele>
        <time>2024-05-11T15:44:16.000Z</time>
      </trkpt>
      <trkpt lat="44.88183" lon="5.56696">
        <ele>1351.2</ele>
        <time>2024-05-11T15:44:17.000Z</time>
      </trkpt>
      <trkpt lat="44.88183" lon="5.56692">
        <ele>1351.1</ele>
        <time>2024-05-11T15:44:21.000Z</time>
      </trkpt>
      <trkpt lat="44.88186" lon="5.56693">
        <ele>1351.4</ele>
        <time>2024-05-11T15:44:27.000Z</time>
      </trkpt>
      <trkpt lat="44.8819" lon="5.56694">
        <ele>1351.6</ele>
        <time>2024-05-11T15:44:30.000Z</time>
      </trkpt>
      <trkpt lat="44.88191" lon="5.56692">
        <ele>1351.8</ele>
        <time>2024-05-11T15:44:32.000Z</time>
      </trkpt>
      <trkpt lat="44.88184" lon="5.56676">
        <ele>1350.8</ele>
        <time>2024-05-11T15:44:41.000Z</time>
      </trkpt>
      <trkpt lat="44.88195" lon="5.56692">
        <ele>1352</ele>
        <time>2024-05-11T15:44:48.000Z</time>
      </trkpt>
      <trkpt lat="44.88197" lon="5.56693">
        <ele>1352.1</ele>
        <time>2024-05-11T15:44:53.000Z</time>
      </trkpt>
      <trkpt lat="44.88195" lon="5.56694">
        <ele>1352</ele>
        <time>2024-05-11T15:45:01.000Z</time>
      </trkpt>
      <trkpt lat="44.88195" lon="5.56693">
        <ele>1352</ele>
        <time>2024-05-11T15:45:04.000Z</time>
      </trkpt>
      <trkpt lat="44.88195" lon="5.56693">
        <ele>1352</ele>
        <time>2024-05-11T15:45:07.000Z</time>
      </trkpt>
      <trkpt lat="44.88195" lon="5.56692">
        <ele>1352</ele>
        <time>2024-05-11T15:45:09.000Z</time>
      </trkpt>
      <trkpt lat="44.88196" lon="5.56691">
        <ele>1352.1</ele>
        <time>2024-05-11T15:45:11.000Z</time>
      </trkpt>
      <trkpt lat="44.88198" lon="5.56689">
        <ele>1352.2</ele>
        <time>2024-05-11T15:45:16.000Z</time>
      </trkpt>
      <trkpt lat="44.88199" lon="5.56686">
        <ele>1352.2</ele>
        <time>2024-05-11T15:45:22.000Z</time>
      </trkpt>
      <trkpt lat="44.88196" lon="5.56691">
        <ele>1352.1</ele>
        <time>2024-05-11T15:45:30.000Z</time>
      </trkpt>
      <trkpt lat="44.88197" lon="5.56693">
        <ele>1352.1</ele>
        <time>2024-05-11T15:45:37.000Z</time>
      </trkpt>
      <trkpt lat="44.88195" lon="5.56692">
        <ele>1352</ele>
        <time>2024-05-11T15:46:10.000Z</time>
      </trkpt>
      <trkpt lat="44.88205" lon="5.5669">
        <ele>1352.4</ele>
        <time>2024-05-11T15:46:59.000Z</time>
      </trkpt>
      <trkpt lat="44.88209" lon="5.56689">
        <ele>1352.6</ele>
        <time>2024-05-11T15:47:02.000Z</time>
      </trkpt>
      <trkpt lat="44.88213" lon="5.56688">
        <ele>1352.8</ele>
        <time>2024-05-11T15:47:04.000Z</time>
      </trkpt>
      <trkpt lat="44.88216" lon="5.5669">
        <ele>1352.9</ele>
        <time>2024-05-11T15:47:08.000Z</time>
      </trkpt>
      <trkpt lat="44.88225" lon="5.56689">
        <ele>1353</ele>
        <time>2024-05-11T15:47:15.000Z</time>
      </trkpt>
      <trkpt lat="44.88232" lon="5.56687">
        <ele>1352.7</ele>
        <time>2024-05-11T15:47:21.000Z</time>
      </trkpt>
      <trkpt lat="44.88241" lon="5.5669">
        <ele>1352</ele>
        <time>2024-05-11T15:47:31.000Z</time>
      </trkpt>
      <trkpt lat="44.88246" lon="5.56691">
        <ele>1351.5</ele>
        <time>2024-05-11T15:47:36.000Z</time>
      </trkpt>
      <trkpt lat="44.88248" lon="5.56692">
        <ele>1351.3</ele>
        <time>2024-05-11T15:47:38.000Z</time>
      </trkpt>
      <trkpt lat="44.88252" lon="5.56694">
        <ele>1350.9</ele>
        <time>2024-05-11T15:47:45.000Z</time>
      </trkpt>
      <trkpt lat="44.88258" lon="5.56694">
        <ele>1350.5</ele>
        <time>2024-05-11T15:47:51.000Z</time>
      </trkpt>
      <trkpt lat="44.8826" lon="5.56695">
        <ele>1350.3</ele>
        <time>2024-05-11T15:47:53.000Z</time>
      </trkpt>
      <trkpt lat="44.88266" lon="5.56695">
        <ele>1349.9</ele>
        <time>2024-05-11T15:47:59.000Z</time>
      </trkpt>
      <trkpt lat="44.88268" lon="5.56696">
        <ele>1349.8</ele>
        <time>2024-05-11T15:48:02.000Z</time>
      </trkpt>
      <trkpt lat="44.88269" lon="5.56696">
        <ele>1349.7</ele>
        <time>2024-05-11T15:48:03.000Z</time>
      </trkpt>
      <trkpt lat="44.88272" lon="5.56698">
        <ele>1349.5</ele>
        <time>2024-05-11T15:48:09.000Z</time>
      </trkpt>
      <trkpt lat="44.88281" lon="5.56698">
        <ele>1349</ele>
        <time>2024-05-11T15:48:14.000Z</time>
      </trkpt>
      <trkpt lat="44.88283" lon="5.567">
        <ele>1349</ele>
        <time>2024-05-11T15:48:16.000Z</time>
      </trkpt>
      <trkpt lat="44.88291" lon="5.56701">
        <ele>1348.7</ele>
        <time>2024-05-11T15:48:21.000Z</time>
      </trkpt>
      <trkpt lat="44.88297" lon="5.56702">
        <ele>1348.4</ele>
        <time>2024-05-11T15:48:25.000Z</time>
      </trkpt>
      <trkpt lat="44.88302" lon="5.56701">
        <ele>1348.2</ele>
        <time>2024-05-11T15:48:31.000Z</time>
      </trkpt>
      <trkpt lat="44.88306" lon="5.56703">
        <ele>1348</ele>
        <time>2024-05-11T15:48:38.000Z</time>
      </trkpt>
      <trkpt lat="44.88307" lon="5.56703">
        <ele>1348</ele>
        <time>2024-05-11T15:48:39.000Z</time>
      </trkpt>
      <trkpt lat="44.88311" lon="5.56703">
        <ele>1347.8</ele>
        <time>2024-05-11T15:48:43.000Z</time>
      </trkpt>
      <trkpt lat="44.88315" lon="5.56704">
        <ele>1347.6</ele>
        <time>2024-05-11T15:48:47.000Z</time>
      </trkpt>
      <trkpt lat="44.88319" lon="5.56703">
        <ele>1347.4</ele>
        <time>2024-05-11T15:48:53.000Z</time>
      </trkpt>
      <trkpt lat="44.88319" lon="5.56703">
        <ele>1347.4</ele>
        <time>2024-05-11T15:48:59.000Z</time>
      </trkpt>
      <trkpt lat="44.88319" lon="5.56703">
        <ele>1347.4</ele>
        <time>2024-05-11T15:49:00.000Z</time>
      </trkpt>
      <trkpt lat="44.88316" lon="5.56697">
        <ele>1347.6</ele>
        <time>2024-05-11T15:49:06.000Z</time>
      </trkpt>
      <trkpt lat="44.88317" lon="5.56696">
        <ele>1347.6</ele>
        <time>2024-05-11T15:49:08.000Z</time>
      </trkpt>
      <trkpt lat="44.88318" lon="5.56695">
        <ele>1347.6</ele>
        <time>2024-05-11T15:49:12.000Z</time>
      </trkpt>
      <trkpt lat="44.88321" lon="5.5669">
        <ele>1348</ele>
        <time>2024-05-11T15:49:21.000Z</time>
      </trkpt>
      <trkpt lat="44.88321" lon="5.56685">
        <ele>1348.5</ele>
        <time>2024-05-11T15:49:26.000Z</time>
      </trkpt>
      <trkpt lat="44.88325" lon="5.56676">
        <ele>1349.3</ele>
        <time>2024-05-11T15:49:36.000Z</time>
      </trkpt>
      <trkpt lat="44.88331" lon="5.56674">
        <ele>1349.2</ele>
        <time>2024-05-11T15:49:42.000Z</time>
      </trkpt>
      <trkpt lat="44.88332" lon="5.56673">
        <ele>1349.3</ele>
        <time>2024-05-11T15:49:43.000Z</time>
      </trkpt>
      <trkpt lat="44.88336" lon="5.56673">
        <ele>1349.2</ele>
        <time>2024-05-11T15:49:47.000Z</time>
      </trkpt>
      <trkpt lat="44.88337" lon="5.56672">
        <ele>1349.2</ele>
        <time>2024-05-11T15:49:48.000Z</time>
      </trkpt>
      <trkpt lat="44.88339" lon="5.56671">
        <ele>1349.3</ele>
        <time>2024-05-11T15:49:50.000Z</time>
      </trkpt>
      <trkpt lat="44.88344" lon="5.56669">
        <ele>1349.3</ele>
        <time>2024-05-11T15:49:55.000Z</time>
      </trkpt>
      <trkpt lat="44.88347" lon="5.56669">
        <ele>1349.2</ele>
        <time>2024-05-11T15:49:58.000Z</time>
      </trkpt>
      <trkpt lat="44.88349" lon="5.56668">
        <ele>1349.2</ele>
        <time>2024-05-11T15:50:00.000Z</time>
      </trkpt>
      <trkpt lat="44.88358" lon="5.56662">
        <ele>1350</ele>
        <time>2024-05-11T15:50:08.000Z</time>
      </trkpt>
      <trkpt lat="44.88363" lon="5.5666">
        <ele>1350.1</ele>
        <time>2024-05-11T15:50:12.000Z</time>
      </trkpt>
      <trkpt lat="44.88366" lon="5.56658">
        <ele>1350.3</ele>
        <time>2024-05-11T15:50:15.000Z</time>
      </trkpt>
      <trkpt lat="44.88367" lon="5.56658">
        <ele>1350.2</ele>
        <time>2024-05-11T15:50:16.000Z</time>
      </trkpt>
      <trkpt lat="44.8837" lon="5.56657">
        <ele>1350.3</ele>
        <time>2024-05-11T15:50:19.000Z</time>
      </trkpt>
      <trkpt lat="44.88372" lon="5.56656">
        <ele>1350.6</ele>
        <time>2024-05-11T15:50:20.000Z</time>
      </trkpt>
      <trkpt lat="44.88375" lon="5.56663">
        <ele>1348.9</ele>
        <time>2024-05-11T15:50:23.000Z</time>
      </trkpt>
      <trkpt lat="44.88377" lon="5.56663">
        <ele>1348.7</ele>
        <time>2024-05-11T15:50:25.000Z</time>
      </trkpt>
      <trkpt lat="44.88379" lon="5.56666">
        <ele>1348</ele>
        <time>2024-05-11T15:50:28.000Z</time>
      </trkpt>
      <trkpt lat="44.88385" lon="5.5667">
        <ele>1346.7</ele>
        <time>2024-05-11T15:50:34.000Z</time>
      </trkpt>
      <trkpt lat="44.88391" lon="5.56666">
        <ele>1347.2</ele>
        <time>2024-05-11T15:50:39.000Z</time>
      </trkpt>
      <trkpt lat="44.88391" lon="5.56664">
        <ele>1347.8</ele>
        <time>2024-05-11T15:50:40.000Z</time>
      </trkpt>
      <trkpt lat="44.88392" lon="5.56661">
        <ele>1348.5</ele>
        <time>2024-05-11T15:50:42.000Z</time>
      </trkpt>
      <trkpt lat="44.88395" lon="5.56665">
        <ele>1347.8</ele>
        <time>2024-05-11T15:50:44.000Z</time>
      </trkpt>
      <trkpt lat="44.88395" lon="5.56666">
        <ele>1347.5</ele>
        <time>2024-05-11T15:50:46.000Z</time>
      </trkpt>
      <trkpt lat="44.88398" lon="5.56664">
        <ele>1348</ele>
        <time>2024-05-11T15:50:50.000Z</time>
      </trkpt>
      <trkpt lat="44.88399" lon="5.56664">
        <ele>1348.1</ele>
        <time>2024-05-11T15:50:52.000Z</time>
      </trkpt>
      <trkpt lat="44.88403" lon="5.56664">
        <ele>1348.2</ele>
        <time>2024-05-11T15:50:58.000Z</time>
      </trkpt>
      <trkpt lat="44.88405" lon="5.56665">
        <ele>1348.1</ele>
        <time>2024-05-11T15:51:02.000Z</time>
      </trkpt>
      <trkpt lat="44.88405" lon="5.56667">
        <ele>1347.6</ele>
        <time>2024-05-11T15:51:04.000Z</time>
      </trkpt>
      <trkpt lat="44.88408" lon="5.56667">
        <ele>1347.6</ele>
        <time>2024-05-11T15:51:07.000Z</time>
      </trkpt>
      <trkpt lat="44.88417" lon="5.56669">
        <ele>1347.3</ele>
        <time>2024-05-11T15:51:13.000Z</time>
      </trkpt>
      <trkpt lat="44.88419" lon="5.56667">
        <ele>1347.9</ele>
        <time>2024-05-11T15:51:14.000Z</time>
      </trkpt>
      <trkpt lat="44.88425" lon="5.56674">
        <ele>1346.3</ele>
        <time>2024-05-11T15:51:18.000Z</time>
      </trkpt>
      <trkpt lat="44.88432" lon="5.56684">
        <ele>1343.4</ele>
        <time>2024-05-11T15:51:23.000Z</time>
      </trkpt>
      <trkpt lat="44.88434" lon="5.56684">
        <ele>1343.5</ele>
        <time>2024-05-11T15:51:24.000Z</time>
      </trkpt>
      <trkpt lat="44.88447" lon="5.56678">
        <ele>1345.5</ele>
        <time>2024-05-11T15:51:32.000Z</time>
      </trkpt>
      <trkpt lat="44.8845" lon="5.56672">
        <ele>1347.7</ele>
        <time>2024-05-11T15:51:37.000Z</time>
      </trkpt>
      <trkpt lat="44.88454" lon="5.5667">
        <ele>1349</ele>
        <time>2024-05-11T15:51:41.000Z</time>
      </trkpt>
      <trkpt lat="44.88454" lon="5.56668">
        <ele>1349.6</ele>
        <time>2024-05-11T15:51:42.000Z</time>
      </trkpt>
      <trkpt lat="44.88455" lon="5.56667">
        <ele>1350.2</ele>
        <time>2024-05-11T15:51:44.000Z</time>
      </trkpt>
      <trkpt lat="44.88456" lon="5.56667">
        <ele>1350.2</ele>
        <time>2024-05-11T15:51:46.000Z</time>
      </trkpt>
      <trkpt lat="44.88458" lon="5.56669">
        <ele>1349.8</ele>
        <time>2024-05-11T15:51:51.000Z</time>
      </trkpt>
      <trkpt lat="44.88464" lon="5.56671">
        <ele>1349.6</ele>
        <time>2024-05-11T15:51:57.000Z</time>
      </trkpt>
      <trkpt lat="44.88466" lon="5.56673">
        <ele>1348.9</ele>
        <time>2024-05-11T15:51:58.000Z</time>
      </trkpt>
      <trkpt lat="44.88472" lon="5.56673">
        <ele>1349.5</ele>
        <time>2024-05-11T15:52:04.000Z</time>
      </trkpt>
      <trkpt lat="44.88477" lon="5.56682">
        <ele>1346.4</ele>
        <time>2024-05-11T15:52:09.000Z</time>
      </trkpt>
      <trkpt lat="44.8848" lon="5.56688">
        <ele>1343.7</ele>
        <time>2024-05-11T15:52:13.000Z</time>
      </trkpt>
      <trkpt lat="44.88485" lon="5.56685">
        <ele>1345.3</ele>
        <time>2024-05-11T15:52:15.000Z</time>
      </trkpt>
      <trkpt lat="44.88491" lon="5.56692">
        <ele>1342.7</ele>
        <time>2024-05-11T15:52:18.000Z</time>
      </trkpt>
      <trkpt lat="44.88499" lon="5.56692">
        <ele>1343</ele>
        <time>2024-05-11T15:52:22.000Z</time>
      </trkpt>
      <trkpt lat="44.88499" lon="5.56691">
        <ele>1343.6</ele>
        <time>2024-05-11T15:52:23.000Z</time>
      </trkpt>
      <trkpt lat="44.88505" lon="5.56687">
        <ele>1345.8</ele>
        <time>2024-05-11T15:52:27.000Z</time>
      </trkpt>
      <trkpt lat="44.88509" lon="5.56687">
        <ele>1346.1</ele>
        <time>2024-05-11T15:52:31.000Z</time>
      </trkpt>
      <trkpt lat="44.88511" lon="5.56687">
        <ele>1346.2</ele>
        <time>2024-05-11T15:52:33.000Z</time>
      </trkpt>
      <trkpt lat="44.88509" lon="5.56694">
        <ele>1343</ele>
        <time>2024-05-11T15:52:36.000Z</time>
      </trkpt>
      <trkpt lat="44.8851" lon="5.56695">
        <ele>1342.3</ele>
        <time>2024-05-11T15:52:39.000Z</time>
      </trkpt>
      <trkpt lat="44.88515" lon="5.56696">
        <ele>1342.7</ele>
        <time>2024-05-11T15:52:43.000Z</time>
      </trkpt>
      <trkpt lat="44.88519" lon="5.56701">
        <ele>1341</ele>
        <time>2024-05-11T15:52:48.000Z</time>
      </trkpt>
      <trkpt lat="44.88526" lon="5.56699">
        <ele>1342.2</ele>
        <time>2024-05-11T15:52:54.000Z</time>
      </trkpt>
      <trkpt lat="44.88532" lon="5.56694">
        <ele>1343.8</ele>
        <time>2024-05-11T15:52:59.000Z</time>
      </trkpt>
      <trkpt lat="44.88538" lon="5.56693">
        <ele>1344</ele>
        <time>2024-05-11T15:53:06.000Z</time>
      </trkpt>
      <trkpt lat="44.88541" lon="5.56691">
        <ele>1344.6</ele>
        <time>2024-05-11T15:53:09.000Z</time>
      </trkpt>
      <trkpt lat="44.88543" lon="5.56692">
        <ele>1344.2</ele>
        <time>2024-05-11T15:53:11.000Z</time>
      </trkpt>
      <trkpt lat="44.88548" lon="5.56689">
        <ele>1344.9</ele>
        <time>2024-05-11T15:53:16.000Z</time>
      </trkpt>
      <trkpt lat="44.88548" lon="5.56689">
        <ele>1345.2</ele>
        <time>2024-05-11T15:53:17.000Z</time>
      </trkpt>
      <trkpt lat="44.88552" lon="5.56686">
        <ele>1346.1</ele>
        <time>2024-05-11T15:53:22.000Z</time>
      </trkpt>
      <trkpt lat="44.88557" lon="5.56683">
        <ele>1346.9</ele>
        <time>2024-05-11T15:53:28.000Z</time>
      </trkpt>
      <trkpt lat="44.88559" lon="5.56684">
        <ele>1346.2</ele>
        <time>2024-05-11T15:53:31.000Z</time>
      </trkpt>
      <trkpt lat="44.8856" lon="5.56683">
        <ele>1346.5</ele>
        <time>2024-05-11T15:53:33.000Z</time>
      </trkpt>
      <trkpt lat="44.88561" lon="5.56683">
        <ele>1346.5</ele>
        <time>2024-05-11T15:53:34.000Z</time>
      </trkpt>
      <trkpt lat="44.88564" lon="5.5668">
        <ele>1346.7</ele>
        <time>2024-05-11T15:53:38.000Z</time>
      </trkpt>
      <trkpt lat="44.88566" lon="5.56679">
        <ele>1346.7</ele>
        <time>2024-05-11T15:53:40.000Z</time>
      </trkpt>
      <trkpt lat="44.88568" lon="5.5668">
        <ele>1346</ele>
        <time>2024-05-11T15:53:43.000Z</time>
      </trkpt>
      <trkpt lat="44.88573" lon="5.56675">
        <ele>1347</ele>
        <time>2024-05-11T15:53:48.000Z</time>
      </trkpt>
      <trkpt lat="44.88575" lon="5.56673">
        <ele>1347.6</ele>
        <time>2024-05-11T15:53:50.000Z</time>
      </trkpt>
      <trkpt lat="44.8858" lon="5.56668">
        <ele>1348.3</ele>
        <time>2024-05-11T15:53:57.000Z</time>
      </trkpt>
      <trkpt lat="44.88587" lon="5.56663">
        <ele>1348.3</ele>
        <time>2024-05-11T15:54:02.000Z</time>
      </trkpt>
      <trkpt lat="44.8859" lon="5.56661">
        <ele>1348</ele>
        <time>2024-05-11T15:54:04.000Z</time>
      </trkpt>
      <trkpt lat="44.88595" lon="5.56654">
        <ele>1348.6</ele>
        <time>2024-05-11T15:54:10.000Z</time>
      </trkpt>
      <trkpt lat="44.88599" lon="5.5665">
        <ele>1348.5</ele>
        <time>2024-05-11T15:54:16.000Z</time>
      </trkpt>
      <trkpt lat="44.88601" lon="5.56648">
        <ele>1348.4</ele>
        <time>2024-05-11T15:54:17.000Z</time>
      </trkpt>
      <trkpt lat="44.88601" lon="5.56644">
        <ele>1349.4</ele>
        <time>2024-05-11T15:54:21.000Z</time>
      </trkpt>
      <trkpt lat="44.88605" lon="5.5664">
        <ele>1348.9</ele>
        <time>2024-05-11T15:54:24.000Z</time>
      </trkpt>
      <trkpt lat="44.88608" lon="5.56636">
        <ele>1348.6</ele>
        <time>2024-05-11T15:54:26.000Z</time>
      </trkpt>
      <trkpt lat="44.8861" lon="5.56633">
        <ele>1348.3</ele>
        <time>2024-05-11T15:54:28.000Z</time>
      </trkpt>
      <trkpt lat="44.8861" lon="5.5663">
        <ele>1348.8</ele>
        <time>2024-05-11T15:54:30.000Z</time>
      </trkpt>
      <trkpt lat="44.88612" lon="5.56625">
        <ele>1349</ele>
        <time>2024-05-11T15:54:34.000Z</time>
      </trkpt>
      <trkpt lat="44.88613" lon="5.5662">
        <ele>1349.7</ele>
        <time>2024-05-11T15:54:38.000Z</time>
      </trkpt>
      <trkpt lat="44.88614" lon="5.56618">
        <ele>1349.8</ele>
        <time>2024-05-11T15:54:39.000Z</time>
      </trkpt>
      <trkpt lat="44.88622" lon="5.56614">
        <ele>1350</ele>
        <time>2024-05-11T15:54:44.000Z</time>
      </trkpt>
      <trkpt lat="44.88623" lon="5.56611">
        <ele>1350.5</ele>
        <time>2024-05-11T15:54:49.000Z</time>
      </trkpt>
      <trkpt lat="44.88628" lon="5.56603">
        <ele>1352.1</ele>
        <time>2024-05-11T15:54:52.000Z</time>
      </trkpt>
      <trkpt lat="44.88631" lon="5.56601">
        <ele>1352.4</ele>
        <time>2024-05-11T15:54:54.000Z</time>
      </trkpt>
      <trkpt lat="44.88632" lon="5.56601">
        <ele>1352.4</ele>
        <time>2024-05-11T15:54:56.000Z</time>
      </trkpt>
      <trkpt lat="44.88636" lon="5.56601">
        <ele>1352.5</ele>
        <time>2024-05-11T15:54:59.000Z</time>
      </trkpt>
      <trkpt lat="44.88638" lon="5.566">
        <ele>1352.7</ele>
        <time>2024-05-11T15:55:00.000Z</time>
      </trkpt>
      <trkpt lat="44.8864" lon="5.566">
        <ele>1352.8</ele>
        <time>2024-05-11T15:55:01.000Z</time>
      </trkpt>
      <trkpt lat="44.88645" lon="5.56607">
        <ele>1351.3</ele>
        <time>2024-05-11T15:55:06.000Z</time>
      </trkpt>
      <trkpt lat="44.88647" lon="5.56619">
        <ele>1348.5</ele>
        <time>2024-05-11T15:55:12.000Z</time>
      </trkpt>
      <trkpt lat="44.88646" lon="5.56625">
        <ele>1347.1</ele>
        <time>2024-05-11T15:55:18.000Z</time>
      </trkpt>
      <trkpt lat="44.88647" lon="5.56623">
        <ele>1347.5</ele>
        <time>2024-05-11T15:55:19.000Z</time>
      </trkpt>
      <trkpt lat="44.88648" lon="5.56622">
        <ele>1347.8</ele>
        <time>2024-05-11T15:55:22.000Z</time>
      </trkpt>
      <trkpt lat="44.8865" lon="5.56626">
        <ele>1346.8</ele>
        <time>2024-05-11T15:55:27.000Z</time>
      </trkpt>
      <trkpt lat="44.8865" lon="5.56628">
        <ele>1346.3</ele>
        <time>2024-05-11T15:55:30.000Z</time>
      </trkpt>
      <trkpt lat="44.88652" lon="5.56628">
        <ele>1346.1</ele>
        <time>2024-05-11T15:55:33.000Z</time>
      </trkpt>
      <trkpt lat="44.88654" lon="5.56627">
        <ele>1346.4</ele>
        <time>2024-05-11T15:55:38.000Z</time>
      </trkpt>
      <trkpt lat="44.88654" lon="5.56627">
        <ele>1346.4</ele>
        <time>2024-05-11T15:55:39.000Z</time>
      </trkpt>
      <trkpt lat="44.88656" lon="5.56625">
        <ele>1347.1</ele>
        <time>2024-05-11T15:55:42.000Z</time>
      </trkpt>
      <trkpt lat="44.88661" lon="5.56619">
        <ele>1348.6</ele>
        <time>2024-05-11T15:55:48.000Z</time>
      </trkpt>
      <trkpt lat="44.88662" lon="5.56616">
        <ele>1349.5</ele>
        <time>2024-05-11T15:55:50.000Z</time>
      </trkpt>
      <trkpt lat="44.88664" lon="5.56614">
        <ele>1350.2</ele>
        <time>2024-05-11T15:55:54.000Z</time>
      </trkpt>
      <trkpt lat="44.88671" lon="5.56611">
        <ele>1350.7</ele>
        <time>2024-05-11T15:55:59.000Z</time>
      </trkpt>
      <trkpt lat="44.8867" lon="5.56609">
        <ele>1351.4</ele>
        <time>2024-05-11T15:56:02.000Z</time>
      </trkpt>
      <trkpt lat="44.88673" lon="5.56609">
        <ele>1351.2</ele>
        <time>2024-05-11T15:56:07.000Z</time>
      </trkpt>
      <trkpt lat="44.88676" lon="5.56604">
        <ele>1352.2</ele>
        <time>2024-05-11T15:56:12.000Z</time>
      </trkpt>
      <trkpt lat="44.88677" lon="5.56604">
        <ele>1352.2</ele>
        <time>2024-05-11T15:56:13.000Z</time>
      </trkpt>
      <trkpt lat="44.88678" lon="5.56604">
        <ele>1352.2</ele>
        <time>2024-05-11T15:56:14.000Z</time>
      </trkpt>
      <trkpt lat="44.88681" lon="5.566">
        <ele>1353.1</ele>
        <time>2024-05-11T15:56:18.000Z</time>
      </trkpt>
      <trkpt lat="44.88683" lon="5.56595">
        <ele>1354.2</ele>
        <time>2024-05-11T15:56:23.000Z</time>
      </trkpt>
      <trkpt lat="44.88683" lon="5.56594">
        <ele>1354.2</ele>
        <time>2024-05-11T15:56:24.000Z</time>
      </trkpt>
      <trkpt lat="44.88687" lon="5.56593">
        <ele>1354.4</ele>
        <time>2024-05-11T15:56:28.000Z</time>
      </trkpt>
      <trkpt lat="44.88691" lon="5.5659">
        <ele>1354.8</ele>
        <time>2024-05-11T15:56:33.000Z</time>
      </trkpt>
      <trkpt lat="44.88697" lon="5.56584">
        <ele>1355.3</ele>
        <time>2024-05-11T15:56:39.000Z</time>
      </trkpt>
      <trkpt lat="44.88705" lon="5.56576">
        <ele>1354.8</ele>
        <time>2024-05-11T15:56:46.000Z</time>
      </trkpt>
      <trkpt lat="44.88712" lon="5.56571">
        <ele>1354.1</ele>
        <time>2024-05-11T15:56:53.000Z</time>
      </trkpt>
      <trkpt lat="44.88721" lon="5.56569">
        <ele>1352.4</ele>
        <time>2024-05-11T15:56:58.000Z</time>
      </trkpt>
      <trkpt lat="44.88727" lon="5.56564">
        <ele>1352.4</ele>
        <time>2024-05-11T15:57:04.000Z</time>
      </trkpt>
      <trkpt lat="44.88731" lon="5.56564">
        <ele>1351.4</ele>
        <time>2024-05-11T15:57:08.000Z</time>
      </trkpt>
      <trkpt lat="44.88732" lon="5.56562">
        <ele>1351.9</ele>
        <time>2024-05-11T15:57:10.000Z</time>
      </trkpt>
      <trkpt lat="44.88732" lon="5.56561">
        <ele>1351.9</ele>
        <time>2024-05-11T15:57:11.000Z</time>
      </trkpt>
      <trkpt lat="44.88735" lon="5.56558">
        <ele>1352.2</ele>
        <time>2024-05-11T15:57:16.000Z</time>
      </trkpt>
      <trkpt lat="44.88736" lon="5.56558">
        <ele>1352</ele>
        <time>2024-05-11T15:57:19.000Z</time>
      </trkpt>
      <trkpt lat="44.8874" lon="5.56554">
        <ele>1352.1</ele>
        <time>2024-05-11T15:57:25.000Z</time>
      </trkpt>
      <trkpt lat="44.8875" lon="5.56549">
        <ele>1352</ele>
        <time>2024-05-11T15:57:33.000Z</time>
      </trkpt>
      <trkpt lat="44.88753" lon="5.56545">
        <ele>1352.8</ele>
        <time>2024-05-11T15:57:39.000Z</time>
      </trkpt>
      <trkpt lat="44.8876" lon="5.5654">
        <ele>1353.4</ele>
        <time>2024-05-11T15:57:45.000Z</time>
      </trkpt>
      <trkpt lat="44.88763" lon="5.56536">
        <ele>1354.4</ele>
        <time>2024-05-11T15:57:50.000Z</time>
      </trkpt>
      <trkpt lat="44.88765" lon="5.56529">
        <ele>1356</ele>
        <time>2024-05-11T15:57:54.000Z</time>
      </trkpt>
      <trkpt lat="44.88771" lon="5.56525">
        <ele>1356.5</ele>
        <time>2024-05-11T15:58:00.000Z</time>
      </trkpt>
      <trkpt lat="44.88775" lon="5.56518">
        <ele>1358</ele>
        <time>2024-05-11T15:58:05.000Z</time>
      </trkpt>
      <trkpt lat="44.88778" lon="5.56513">
        <ele>1359.3</ele>
        <time>2024-05-11T15:58:10.000Z</time>
      </trkpt>
      <trkpt lat="44.88778" lon="5.56511">
        <ele>1359.9</ele>
        <time>2024-05-11T15:58:12.000Z</time>
      </trkpt>
      <trkpt lat="44.88779" lon="5.56508">
        <ele>1360.7</ele>
        <time>2024-05-11T15:58:15.000Z</time>
      </trkpt>
      <trkpt lat="44.88794" lon="5.56515">
        <ele>1358.4</ele>
        <time>2024-05-11T15:58:20.000Z</time>
      </trkpt>
      <trkpt lat="44.88797" lon="5.56516">
        <ele>1358.2</ele>
        <time>2024-05-11T15:58:22.000Z</time>
      </trkpt>
      <trkpt lat="44.88801" lon="5.56512">
        <ele>1359.1</ele>
        <time>2024-05-11T15:58:24.000Z</time>
      </trkpt>
      <trkpt lat="44.88801" lon="5.5651">
        <ele>1359.5</ele>
        <time>2024-05-11T15:58:25.000Z</time>
      </trkpt>
      <trkpt lat="44.88803" lon="5.56509">
        <ele>1359.8</ele>
        <time>2024-05-11T15:58:26.000Z</time>
      </trkpt>
      <trkpt lat="44.88803" lon="5.56509">
        <ele>1359.7</ele>
        <time>2024-05-11T15:58:29.000Z</time>
      </trkpt>
      <trkpt lat="44.88806" lon="5.5651">
        <ele>1359.6</ele>
        <time>2024-05-11T15:58:34.000Z</time>
      </trkpt>
      <trkpt lat="44.88807" lon="5.56511">
        <ele>1359.3</ele>
        <time>2024-05-11T15:58:38.000Z</time>
      </trkpt>
      <trkpt lat="44.88807" lon="5.56513">
        <ele>1358.8</ele>
        <time>2024-05-11T15:58:43.000Z</time>
      </trkpt>
      <trkpt lat="44.88816" lon="5.56514">
        <ele>1358.9</ele>
        <time>2024-05-11T15:58:49.000Z</time>
      </trkpt>
      <trkpt lat="44.88821" lon="5.56518">
        <ele>1358.1</ele>
        <time>2024-05-11T15:58:54.000Z</time>
      </trkpt>
      <trkpt lat="44.88822" lon="5.56518">
        <ele>1358</ele>
        <time>2024-05-11T15:58:55.000Z</time>
      </trkpt>
      <trkpt lat="44.8883" lon="5.56523">
        <ele>1357</ele>
        <time>2024-05-11T15:59:01.000Z</time>
      </trkpt>
      <trkpt lat="44.88831" lon="5.56529">
        <ele>1355.5</ele>
        <time>2024-05-11T15:59:06.000Z</time>
      </trkpt>
      <trkpt lat="44.88833" lon="5.56531">
        <ele>1355.2</ele>
        <time>2024-05-11T15:59:10.000Z</time>
      </trkpt>
      <trkpt lat="44.88836" lon="5.56532">
        <ele>1354.9</ele>
        <time>2024-05-11T15:59:12.000Z</time>
      </trkpt>
      <trkpt lat="44.88839" lon="5.56534">
        <ele>1354.6</ele>
        <time>2024-05-11T15:59:15.000Z</time>
      </trkpt>
      <trkpt lat="44.8884" lon="5.56534">
        <ele>1354.6</ele>
        <time>2024-05-11T15:59:17.000Z</time>
      </trkpt>
      <trkpt lat="44.88845" lon="5.56536">
        <ele>1354.3</ele>
        <time>2024-05-11T15:59:22.000Z</time>
      </trkpt>
      <trkpt lat="44.88846" lon="5.56536">
        <ele>1354.3</ele>
        <time>2024-05-11T15:59:23.000Z</time>
      </trkpt>
      <trkpt lat="44.88849" lon="5.5654">
        <ele>1353.6</ele>
        <time>2024-05-11T15:59:28.000Z</time>
      </trkpt>
      <trkpt lat="44.88853" lon="5.5654">
        <ele>1353.6</ele>
        <time>2024-05-11T15:59:32.000Z</time>
      </trkpt>
      <trkpt lat="44.88857" lon="5.56539">
        <ele>1354.1</ele>
        <time>2024-05-11T15:59:35.000Z</time>
      </trkpt>
      <trkpt lat="44.88858" lon="5.56539">
        <ele>1354</ele>
        <time>2024-05-11T15:59:39.000Z</time>
      </trkpt>
      <trkpt lat="44.88865" lon="5.56543">
        <ele>1353</ele>
        <time>2024-05-11T15:59:44.000Z</time>
      </trkpt>
      <trkpt lat="44.8887" lon="5.56545">
        <ele>1352.3</ele>
        <time>2024-05-11T15:59:49.000Z</time>
      </trkpt>
      <trkpt lat="44.88879" lon="5.56543">
        <ele>1352.2</ele>
        <time>2024-05-11T15:59:58.000Z</time>
      </trkpt>
      <trkpt lat="44.88885" lon="5.56536">
        <ele>1353.5</ele>
        <time>2024-05-11T16:00:03.000Z</time>
      </trkpt>
      <trkpt lat="44.88892" lon="5.56536">
        <ele>1352.8</ele>
        <time>2024-05-11T16:00:09.000Z</time>
      </trkpt>
      <trkpt lat="44.88896" lon="5.56534">
        <ele>1352.8</ele>
        <time>2024-05-11T16:00:14.000Z</time>
      </trkpt>
      <trkpt lat="44.88897" lon="5.56533">
        <ele>1352.8</ele>
        <time>2024-05-11T16:00:15.000Z</time>
      </trkpt>
      <trkpt lat="44.889" lon="5.56531">
        <ele>1352.7</ele>
        <time>2024-05-11T16:00:20.000Z</time>
      </trkpt>
      <trkpt lat="44.88906" lon="5.56528">
        <ele>1352.4</ele>
        <time>2024-05-11T16:00:26.000Z</time>
      </trkpt>
      <trkpt lat="44.88909" lon="5.56526">
        <ele>1352.3</ele>
        <time>2024-05-11T16:00:28.000Z</time>
      </trkpt>
      <trkpt lat="44.88913" lon="5.56526">
        <ele>1351.7</ele>
        <time>2024-05-11T16:00:33.000Z</time>
      </trkpt>
      <trkpt lat="44.88919" lon="5.56522">
        <ele>1351.5</ele>
        <time>2024-05-11T16:00:40.000Z</time>
      </trkpt>
      <trkpt lat="44.88926" lon="5.56518">
        <ele>1351.3</ele>
        <time>2024-05-11T16:00:47.000Z</time>
      </trkpt>
      <trkpt lat="44.88938" lon="5.56517">
        <ele>1350.4</ele>
        <time>2024-05-11T16:00:57.000Z</time>
      </trkpt>
      <trkpt lat="44.8894" lon="5.56514">
        <ele>1350.4</ele>
        <time>2024-05-11T16:01:00.000Z</time>
      </trkpt>
      <trkpt lat="44.88944" lon="5.5651">
        <ele>1350.3</ele>
        <time>2024-05-11T16:01:05.000Z</time>
      </trkpt>
      <trkpt lat="44.88949" lon="5.56508">
        <ele>1350</ele>
        <time>2024-05-11T16:01:12.000Z</time>
      </trkpt>
      <trkpt lat="44.88953" lon="5.56505">
        <ele>1349.8</ele>
        <time>2024-05-11T16:01:19.000Z</time>
      </trkpt>
      <trkpt lat="44.88954" lon="5.56503">
        <ele>1349.8</ele>
        <time>2024-05-11T16:01:21.000Z</time>
      </trkpt>
      <trkpt lat="44.88956" lon="5.56501">
        <ele>1349.7</ele>
        <time>2024-05-11T16:01:23.000Z</time>
      </trkpt>
      <trkpt lat="44.8896" lon="5.565">
        <ele>1349.3</ele>
        <time>2024-05-11T16:01:27.000Z</time>
      </trkpt>
      <trkpt lat="44.88961" lon="5.565">
        <ele>1349.2</ele>
        <time>2024-05-11T16:01:28.000Z</time>
      </trkpt>
      <trkpt lat="44.88966" lon="5.56501">
        <ele>1348.6</ele>
        <time>2024-05-11T16:01:33.000Z</time>
      </trkpt>
      <trkpt lat="44.88967" lon="5.56501">
        <ele>1348.5</ele>
        <time>2024-05-11T16:01:34.000Z</time>
      </trkpt>
      <trkpt lat="44.88973" lon="5.56498">
        <ele>1348</ele>
        <time>2024-05-11T16:01:42.000Z</time>
      </trkpt>
      <trkpt lat="44.88974" lon="5.56497">
        <ele>1347.9</ele>
        <time>2024-05-11T16:01:44.000Z</time>
      </trkpt>
      <trkpt lat="44.88977" lon="5.56495">
        <ele>1347.6</ele>
        <time>2024-05-11T16:01:50.000Z</time>
      </trkpt>
      <trkpt lat="44.8898" lon="5.56492">
        <ele>1347.3</ele>
        <time>2024-05-11T16:01:55.000Z</time>
      </trkpt>
      <trkpt lat="44.88984" lon="5.56487">
        <ele>1346.9</ele>
        <time>2024-05-11T16:02:02.000Z</time>
      </trkpt>
      <trkpt lat="44.88985" lon="5.56488">
        <ele>1346.7</ele>
        <time>2024-05-11T16:02:03.000Z</time>
      </trkpt>
      <trkpt lat="44.88988" lon="5.56482">
        <ele>1346.2</ele>
        <time>2024-05-11T16:02:10.000Z</time>
      </trkpt>
      <trkpt lat="44.88991" lon="5.56481">
        <ele>1345.8</ele>
        <time>2024-05-11T16:02:13.000Z</time>
      </trkpt>
      <trkpt lat="44.88991" lon="5.5648">
        <ele>1345.7</ele>
        <time>2024-05-11T16:02:15.000Z</time>
      </trkpt>
      <trkpt lat="44.88995" lon="5.56479">
        <ele>1345</ele>
        <time>2024-05-11T16:02:20.000Z</time>
      </trkpt>
      <trkpt lat="44.88996" lon="5.5648">
        <ele>1344.9</ele>
        <time>2024-05-11T16:02:21.000Z</time>
      </trkpt>
      <trkpt lat="44.88999" lon="5.5648">
        <ele>1344.4</ele>
        <time>2024-05-11T16:02:25.000Z</time>
      </trkpt>
      <trkpt lat="44.89004" lon="5.5648">
        <ele>1343.7</ele>
        <time>2024-05-11T16:02:28.000Z</time>
      </trkpt>
      <trkpt lat="44.89008" lon="5.56476">
        <ele>1342.8</ele>
        <time>2024-05-11T16:02:32.000Z</time>
      </trkpt>
      <trkpt lat="44.8901" lon="5.56475">
        <ele>1342.4</ele>
        <time>2024-05-11T16:02:35.000Z</time>
      </trkpt>
      <trkpt lat="44.89013" lon="5.56469">
        <ele>1341.4</ele>
        <time>2024-05-11T16:02:37.000Z</time>
      </trkpt>
      <trkpt lat="44.89014" lon="5.56468">
        <ele>1341.2</ele>
        <time>2024-05-11T16:02:39.000Z</time>
      </trkpt>
      <trkpt lat="44.89014" lon="5.56467">
        <ele>1341.1</ele>
        <time>2024-05-11T16:02:41.000Z</time>
      </trkpt>
      <trkpt lat="44.89014" lon="5.56467">
        <ele>1341</ele>
        <time>2024-05-11T16:02:42.000Z</time>
      </trkpt>
      <trkpt lat="44.89018" lon="5.56464">
        <ele>1340</ele>
        <time>2024-05-11T16:02:47.000Z</time>
      </trkpt>
      <trkpt lat="44.89018" lon="5.56462">
        <ele>1339.8</ele>
        <time>2024-05-11T16:02:49.000Z</time>
      </trkpt>
      <trkpt lat="44.89019" lon="5.56461">
        <ele>1339.4</ele>
        <time>2024-05-11T16:02:51.000Z</time>
      </trkpt>
      <trkpt lat="44.89022" lon="5.56462">
        <ele>1338.9</ele>
        <time>2024-05-11T16:02:56.000Z</time>
      </trkpt>
      <trkpt lat="44.89023" lon="5.5646">
        <ele>1338.6</ele>
        <time>2024-05-11T16:02:59.000Z</time>
      </trkpt>
      <trkpt lat="44.89023" lon="5.56457">
        <ele>1338.4</ele>
        <time>2024-05-11T16:03:02.000Z</time>
      </trkpt>
      <trkpt lat="44.89026" lon="5.56456">
        <ele>1337.7</ele>
        <time>2024-05-11T16:03:07.000Z</time>
      </trkpt>
      <trkpt lat="44.89028" lon="5.56453">
        <ele>1336.8</ele>
        <time>2024-05-11T16:03:11.000Z</time>
      </trkpt>
      <trkpt lat="44.89029" lon="5.56452">
        <ele>1336.6</ele>
        <time>2024-05-11T16:03:13.000Z</time>
      </trkpt>
      <trkpt lat="44.89034" lon="5.56448">
        <ele>1335</ele>
        <time>2024-05-11T16:03:19.000Z</time>
      </trkpt>
      <trkpt lat="44.89036" lon="5.56447">
        <ele>1334.6</ele>
        <time>2024-05-11T16:03:21.000Z</time>
      </trkpt>
      <trkpt lat="44.89039" lon="5.56447">
        <ele>1333.8</ele>
        <time>2024-05-11T16:03:25.000Z</time>
      </trkpt>
      <trkpt lat="44.89043" lon="5.56446">
        <ele>1332.8</ele>
        <time>2024-05-11T16:03:30.000Z</time>
      </trkpt>
      <trkpt lat="44.89045" lon="5.56444">
        <ele>1332.3</ele>
        <time>2024-05-11T16:03:33.000Z</time>
      </trkpt>
      <trkpt lat="44.89049" lon="5.56441">
        <ele>1331.2</ele>
        <time>2024-05-11T16:03:38.000Z</time>
      </trkpt>
      <trkpt lat="44.8905" lon="5.56437">
        <ele>1330.6</ele>
        <time>2024-05-11T16:03:42.000Z</time>
      </trkpt>
      <trkpt lat="44.89052" lon="5.56435">
        <ele>1330.2</ele>
        <time>2024-05-11T16:03:44.000Z</time>
      </trkpt>
      <trkpt lat="44.89055" lon="5.56428">
        <ele>1328.9</ele>
        <time>2024-05-11T16:03:51.000Z</time>
      </trkpt>
      <trkpt lat="44.89056" lon="5.56426">
        <ele>1328.6</ele>
        <time>2024-05-11T16:03:53.000Z</time>
      </trkpt>
      <trkpt lat="44.89065" lon="5.56427">
        <ele>1326.5</ele>
        <time>2024-05-11T16:03:57.000Z</time>
      </trkpt>
      <trkpt lat="44.89068" lon="5.56427">
        <ele>1325.9</ele>
        <time>2024-05-11T16:03:59.000Z</time>
      </trkpt>
      <trkpt lat="44.89072" lon="5.56424">
        <ele>1324.9</ele>
        <time>2024-05-11T16:04:03.000Z</time>
      </trkpt>
      <trkpt lat="44.89075" lon="5.56421">
        <ele>1324</ele>
        <time>2024-05-11T16:04:09.000Z</time>
      </trkpt>
      <trkpt lat="44.89078" lon="5.56418">
        <ele>1323.1</ele>
        <time>2024-05-11T16:04:14.000Z</time>
      </trkpt>
      <trkpt lat="44.89081" lon="5.56418">
        <ele>1322.6</ele>
        <time>2024-05-11T16:04:16.000Z</time>
      </trkpt>
      <trkpt lat="44.89084" lon="5.56415">
        <ele>1321.9</ele>
        <time>2024-05-11T16:04:21.000Z</time>
      </trkpt>
      <trkpt lat="44.89085" lon="5.56413">
        <ele>1321.7</ele>
        <time>2024-05-11T16:04:23.000Z</time>
      </trkpt>
      <trkpt lat="44.89087" lon="5.56409">
        <ele>1321.3</ele>
        <time>2024-05-11T16:04:27.000Z</time>
      </trkpt>
      <trkpt lat="44.89088" lon="5.56406">
        <ele>1321.1</ele>
        <time>2024-05-11T16:04:32.000Z</time>
      </trkpt>
      <trkpt lat="44.89089" lon="5.56405">
        <ele>1321</ele>
        <time>2024-05-11T16:04:33.000Z</time>
      </trkpt>
      <trkpt lat="44.89089" lon="5.56403">
        <ele>1321</ele>
        <time>2024-05-11T16:04:36.000Z</time>
      </trkpt>
      <trkpt lat="44.89089" lon="5.56401">
        <ele>1321</ele>
        <time>2024-05-11T16:04:39.000Z</time>
      </trkpt>
      <trkpt lat="44.89089" lon="5.56398">
        <ele>1321</ele>
        <time>2024-05-11T16:04:41.000Z</time>
      </trkpt>
      <trkpt lat="44.8909" lon="5.56396">
        <ele>1321</ele>
        <time>2024-05-11T16:04:43.000Z</time>
      </trkpt>
      <trkpt lat="44.8909" lon="5.56396">
        <ele>1320.9</ele>
        <time>2024-05-11T16:04:44.000Z</time>
      </trkpt>
      <trkpt lat="44.89092" lon="5.56394">
        <ele>1320.6</ele>
        <time>2024-05-11T16:04:49.000Z</time>
      </trkpt>
      <trkpt lat="44.89093" lon="5.56393">
        <ele>1320.5</ele>
        <time>2024-05-11T16:04:51.000Z</time>
      </trkpt>
      <trkpt lat="44.89094" lon="5.56393">
        <ele>1320.3</ele>
        <time>2024-05-11T16:04:53.000Z</time>
      </trkpt>
      <trkpt lat="44.89096" lon="5.56391">
        <ele>1320.2</ele>
        <time>2024-05-11T16:04:56.000Z</time>
      </trkpt>
      <trkpt lat="44.891" lon="5.56386">
        <ele>1319.7</ele>
        <time>2024-05-11T16:05:01.000Z</time>
      </trkpt>
      <trkpt lat="44.89102" lon="5.56382">
        <ele>1319.4</ele>
        <time>2024-05-11T16:05:04.000Z</time>
      </trkpt>
      <trkpt lat="44.89105" lon="5.56379">
        <ele>1319.2</ele>
        <time>2024-05-11T16:05:07.000Z</time>
      </trkpt>
      <trkpt lat="44.89112" lon="5.56376">
        <ele>1318.3</ele>
        <time>2024-05-11T16:05:12.000Z</time>
      </trkpt>
      <trkpt lat="44.89126" lon="5.56369">
        <ele>1316.5</ele>
        <time>2024-05-11T16:05:19.000Z</time>
      </trkpt>
      <trkpt lat="44.8913" lon="5.56366">
        <ele>1316</ele>
        <time>2024-05-11T16:05:25.000Z</time>
      </trkpt>
      <trkpt lat="44.89131" lon="5.56365">
        <ele>1315.8</ele>
        <time>2024-05-11T16:05:26.000Z</time>
      </trkpt>
      <trkpt lat="44.89135" lon="5.56363">
        <ele>1315.5</ele>
        <time>2024-05-11T16:05:32.000Z</time>
      </trkpt>
      <trkpt lat="44.89136" lon="5.56358">
        <ele>1315.7</ele>
        <time>2024-05-11T16:05:38.000Z</time>
      </trkpt>
      <trkpt lat="44.89136" lon="5.56357">
        <ele>1315.8</ele>
        <time>2024-05-11T16:05:39.000Z</time>
      </trkpt>
      <trkpt lat="44.89137" lon="5.56352">
        <ele>1315.9</ele>
        <time>2024-05-11T16:05:45.000Z</time>
      </trkpt>
      <trkpt lat="44.89137" lon="5.56351">
        <ele>1315.9</ele>
        <time>2024-05-11T16:05:46.000Z</time>
      </trkpt>
      <trkpt lat="44.89138" lon="5.56348">
        <ele>1316.1</ele>
        <time>2024-05-11T16:05:51.000Z</time>
      </trkpt>
      <trkpt lat="44.89138" lon="5.56343">
        <ele>1316.4</ele>
        <time>2024-05-11T16:05:54.000Z</time>
      </trkpt>
      <trkpt lat="44.89139" lon="5.56338">
        <ele>1316.6</ele>
        <time>2024-05-11T16:05:57.000Z</time>
      </trkpt>
      <trkpt lat="44.8914" lon="5.56337">
        <ele>1316.5</ele>
        <time>2024-05-11T16:06:01.000Z</time>
      </trkpt>
      <trkpt lat="44.89142" lon="5.56334">
        <ele>1316.4</ele>
        <time>2024-05-11T16:06:07.000Z</time>
      </trkpt>
      <trkpt lat="44.89146" lon="5.56331">
        <ele>1315.3</ele>
        <time>2024-05-11T16:06:13.000Z</time>
      </trkpt>
      <trkpt lat="44.89145" lon="5.56331">
        <ele>1315.6</ele>
        <time>2024-05-11T16:06:16.000Z</time>
      </trkpt>
      <trkpt lat="44.89146" lon="5.56331">
        <ele>1315.4</ele>
        <time>2024-05-11T16:06:17.000Z</time>
      </trkpt>
      <trkpt lat="44.89144" lon="5.5633">
        <ele>1315.8</ele>
        <time>2024-05-11T16:06:18.000Z</time>
      </trkpt>
      <trkpt lat="44.89143" lon="5.56329">
        <ele>1316</ele>
        <time>2024-05-11T16:06:20.000Z</time>
      </trkpt>
      <trkpt lat="44.89143" lon="5.56328">
        <ele>1315.9</ele>
        <time>2024-05-11T16:06:25.000Z</time>
      </trkpt>
      <trkpt lat="44.89142" lon="5.56328">
        <ele>1316.2</ele>
        <time>2024-05-11T16:06:33.000Z</time>
      </trkpt>
      <trkpt lat="44.89145" lon="5.56325">
        <ele>1315.4</ele>
        <time>2024-05-11T16:06:39.000Z</time>
      </trkpt>
      <trkpt lat="44.89149" lon="5.56321">
        <ele>1314.6</ele>
        <time>2024-05-11T16:06:45.000Z</time>
      </trkpt>
      <trkpt lat="44.89149" lon="5.56321">
        <ele>1314.5</ele>
        <time>2024-05-11T16:06:47.000Z</time>
      </trkpt>
      <trkpt lat="44.89151" lon="5.5632">
        <ele>1314.2</ele>
        <time>2024-05-11T16:06:49.000Z</time>
      </trkpt>
      <trkpt lat="44.89154" lon="5.56315">
        <ele>1313.5</ele>
        <time>2024-05-11T16:06:56.000Z</time>
      </trkpt>
      <trkpt lat="44.89155" lon="5.56312">
        <ele>1313.2</ele>
        <time>2024-05-11T16:07:00.000Z</time>
      </trkpt>
      <trkpt lat="44.89155" lon="5.56311">
        <ele>1313.2</ele>
        <time>2024-05-11T16:07:01.000Z</time>
      </trkpt>
      <trkpt lat="44.89155" lon="5.56306">
        <ele>1313</ele>
        <time>2024-05-11T16:07:06.000Z</time>
      </trkpt>
      <trkpt lat="44.89155" lon="5.56304">
        <ele>1313</ele>
        <time>2024-05-11T16:07:08.000Z</time>
      </trkpt>
      <trkpt lat="44.89156" lon="5.563">
        <ele>1312.6</ele>
        <time>2024-05-11T16:07:12.000Z</time>
      </trkpt>
      <trkpt lat="44.89159" lon="5.56294">
        <ele>1311.9</ele>
        <time>2024-05-11T16:07:17.000Z</time>
      </trkpt>
      <trkpt lat="44.89158" lon="5.56292">
        <ele>1311.9</ele>
        <time>2024-05-11T16:07:18.000Z</time>
      </trkpt>
      <trkpt lat="44.89167" lon="5.56289">
        <ele>1310.4</ele>
        <time>2024-05-11T16:07:24.000Z</time>
      </trkpt>
      <trkpt lat="44.8917" lon="5.56288">
        <ele>1309.5</ele>
        <time>2024-05-11T16:07:27.000Z</time>
      </trkpt>
      <trkpt lat="44.8917" lon="5.56286">
        <ele>1309.4</ele>
        <time>2024-05-11T16:07:30.000Z</time>
      </trkpt>
      <trkpt lat="44.89174" lon="5.56284">
        <ele>1308.4</ele>
        <time>2024-05-11T16:07:35.000Z</time>
      </trkpt>
      <trkpt lat="44.89176" lon="5.56285">
        <ele>1308</ele>
        <time>2024-05-11T16:07:36.000Z</time>
      </trkpt>
      <trkpt lat="44.89179" lon="5.56283">
        <ele>1307.2</ele>
        <time>2024-05-11T16:07:42.000Z</time>
      </trkpt>
      <trkpt lat="44.89183" lon="5.56283">
        <ele>1306.2</ele>
        <time>2024-05-11T16:07:48.000Z</time>
      </trkpt>
      <trkpt lat="44.89184" lon="5.56283">
        <ele>1306</ele>
        <time>2024-05-11T16:07:49.000Z</time>
      </trkpt>
      <trkpt lat="44.89187" lon="5.5628">
        <ele>1305</ele>
        <time>2024-05-11T16:07:55.000Z</time>
      </trkpt>
      <trkpt lat="44.89189" lon="5.56276">
        <ele>1304.1</ele>
        <time>2024-05-11T16:08:00.000Z</time>
      </trkpt>
      <trkpt lat="44.89189" lon="5.56275">
        <ele>1303.9</ele>
        <time>2024-05-11T16:08:02.000Z</time>
      </trkpt>
      <trkpt lat="44.89187" lon="5.56268">
        <ele>1303.9</ele>
        <time>2024-05-11T16:08:07.000Z</time>
      </trkpt>
      <trkpt lat="44.89183" lon="5.56265">
        <ele>1304.3</ele>
        <time>2024-05-11T16:08:10.000Z</time>
      </trkpt>
      <trkpt lat="44.89179" lon="5.56264">
        <ele>1305</ele>
        <time>2024-05-11T16:08:12.000Z</time>
      </trkpt>
      <trkpt lat="44.8918" lon="5.56258">
        <ele>1304.1</ele>
        <time>2024-05-11T16:08:17.000Z</time>
      </trkpt>
      <trkpt lat="44.89181" lon="5.56255">
        <ele>1303.5</ele>
        <time>2024-05-11T16:08:22.000Z</time>
      </trkpt>
      <trkpt lat="44.89181" lon="5.56251">
        <ele>1303.1</ele>
        <time>2024-05-11T16:08:26.000Z</time>
      </trkpt>
      <trkpt lat="44.89181" lon="5.5625">
        <ele>1302.9</ele>
        <time>2024-05-11T16:08:27.000Z</time>
      </trkpt>
      <trkpt lat="44.89177" lon="5.56245">
        <ele>1302.8</ele>
        <time>2024-05-11T16:08:32.000Z</time>
      </trkpt>
      <trkpt lat="44.89176" lon="5.5624">
        <ele>1302.2</ele>
        <time>2024-05-11T16:08:35.000Z</time>
      </trkpt>
      <trkpt lat="44.89178" lon="5.56235">
        <ele>1301.2</ele>
        <time>2024-05-11T16:08:40.000Z</time>
      </trkpt>
      <trkpt lat="44.89181" lon="5.56229">
        <ele>1299.5</ele>
        <time>2024-05-11T16:08:44.000Z</time>
      </trkpt>
      <trkpt lat="44.89182" lon="5.56227">
        <ele>1299.1</ele>
        <time>2024-05-11T16:08:45.000Z</time>
      </trkpt>
      <trkpt lat="44.892" lon="5.56236">
        <ele>1296.9</ele>
        <time>2024-05-11T16:08:51.000Z</time>
      </trkpt>
      <trkpt lat="44.89206" lon="5.56239">
        <ele>1296.3</ele>
        <time>2024-05-11T16:08:59.000Z</time>
      </trkpt>
      <trkpt lat="44.89209" lon="5.56241">
        <ele>1296</ele>
        <time>2024-05-11T16:09:02.000Z</time>
      </trkpt>
      <trkpt lat="44.89213" lon="5.56243">
        <ele>1295.6</ele>
        <time>2024-05-11T16:09:05.000Z</time>
      </trkpt>
      <trkpt lat="44.89218" lon="5.56246">
        <ele>1295.1</ele>
        <time>2024-05-11T16:09:12.000Z</time>
      </trkpt>
      <trkpt lat="44.89222" lon="5.56253">
        <ele>1295.4</ele>
        <time>2024-05-11T16:09:18.000Z</time>
      </trkpt>
      <trkpt lat="44.89222" lon="5.56253">
        <ele>1295.3</ele>
        <time>2024-05-11T16:09:19.000Z</time>
      </trkpt>
      <trkpt lat="44.89226" lon="5.56253">
        <ele>1295</ele>
        <time>2024-05-11T16:09:25.000Z</time>
      </trkpt>
      <trkpt lat="44.89228" lon="5.56256">
        <ele>1295.1</ele>
        <time>2024-05-11T16:09:31.000Z</time>
      </trkpt>
      <trkpt lat="44.89229" lon="5.56257">
        <ele>1295.1</ele>
        <time>2024-05-11T16:09:32.000Z</time>
      </trkpt>
      <trkpt lat="44.89229" lon="5.56257">
        <ele>1295.2</ele>
        <time>2024-05-11T16:09:33.000Z</time>
      </trkpt>
      <trkpt lat="44.89231" lon="5.56259">
        <ele>1295.1</ele>
        <time>2024-05-11T16:09:36.000Z</time>
      </trkpt>
      <trkpt lat="44.89234" lon="5.56259">
        <ele>1294.9</ele>
        <time>2024-05-11T16:09:38.000Z</time>
      </trkpt>
      <trkpt lat="44.89235" lon="5.56259">
        <ele>1294.8</ele>
        <time>2024-05-11T16:09:40.000Z</time>
      </trkpt>
      <trkpt lat="44.89236" lon="5.56262">
        <ele>1294.8</ele>
        <time>2024-05-11T16:09:44.000Z</time>
      </trkpt>
      <trkpt lat="44.89241" lon="5.56267">
        <ele>1294.7</ele>
        <time>2024-05-11T16:09:51.000Z</time>
      </trkpt>
      <trkpt lat="44.89242" lon="5.56268">
        <ele>1294.6</ele>
        <time>2024-05-11T16:09:52.000Z</time>
      </trkpt>
      <trkpt lat="44.89248" lon="5.56272">
        <ele>1294</ele>
        <time>2024-05-11T16:09:59.000Z</time>
      </trkpt>
      <trkpt lat="44.89249" lon="5.56275">
        <ele>1294</ele>
        <time>2024-05-11T16:10:03.000Z</time>
      </trkpt>
      <trkpt lat="44.89258" lon="5.56281">
        <ele>1293.2</ele>
        <time>2024-05-11T16:10:12.000Z</time>
      </trkpt>
      <trkpt lat="44.89262" lon="5.56283">
        <ele>1292.9</ele>
        <time>2024-05-11T16:10:16.000Z</time>
      </trkpt>
      <trkpt lat="44.89263" lon="5.56284">
        <ele>1292.8</ele>
        <time>2024-05-11T16:10:17.000Z</time>
      </trkpt>
      <trkpt lat="44.89273" lon="5.56292">
        <ele>1292</ele>
        <time>2024-05-11T16:10:26.000Z</time>
      </trkpt>
      <trkpt lat="44.8928" lon="5.56298">
        <ele>1291.5</ele>
        <time>2024-05-11T16:10:33.000Z</time>
      </trkpt>
      <trkpt lat="44.89282" lon="5.56301">
        <ele>1291.3</ele>
        <time>2024-05-11T16:10:35.000Z</time>
      </trkpt>
      <trkpt lat="44.89284" lon="5.56304">
        <ele>1291.3</ele>
        <time>2024-05-11T16:10:38.000Z</time>
      </trkpt>
      <trkpt lat="44.89289" lon="5.56305">
        <ele>1290.8</ele>
        <time>2024-05-11T16:10:45.000Z</time>
      </trkpt>
      <trkpt lat="44.89293" lon="5.56307">
        <ele>1290.4</ele>
        <time>2024-05-11T16:10:51.000Z</time>
      </trkpt>
      <trkpt lat="44.89293" lon="5.56308">
        <ele>1290.4</ele>
        <time>2024-05-11T16:10:52.000Z</time>
      </trkpt>
      <trkpt lat="44.89302" lon="5.56315">
        <ele>1289.7</ele>
        <time>2024-05-11T16:11:01.000Z</time>
      </trkpt>
      <trkpt lat="44.89307" lon="5.5632">
        <ele>1289.3</ele>
        <time>2024-05-11T16:11:07.000Z</time>
      </trkpt>
      <trkpt lat="44.89308" lon="5.56322">
        <ele>1289.2</ele>
        <time>2024-05-11T16:11:09.000Z</time>
      </trkpt>
      <trkpt lat="44.89312" lon="5.56326">
        <ele>1288.9</ele>
        <time>2024-05-11T16:11:12.000Z</time>
      </trkpt>
      <trkpt lat="44.89315" lon="5.56326">
        <ele>1288.5</ele>
        <time>2024-05-11T16:11:15.000Z</time>
      </trkpt>
      <trkpt lat="44.89317" lon="5.5633">
        <ele>1288.2</ele>
        <time>2024-05-11T16:11:21.000Z</time>
      </trkpt>
      <trkpt lat="44.8932" lon="5.56332">
        <ele>1287.8</ele>
        <time>2024-05-11T16:11:27.000Z</time>
      </trkpt>
      <trkpt lat="44.89325" lon="5.56335">
        <ele>1287.3</ele>
        <time>2024-05-11T16:11:32.000Z</time>
      </trkpt>
      <trkpt lat="44.89325" lon="5.56335">
        <ele>1287.2</ele>
        <time>2024-05-11T16:11:33.000Z</time>
      </trkpt>
      <trkpt lat="44.89326" lon="5.56335">
        <ele>1287.1</ele>
        <time>2024-05-11T16:11:34.000Z</time>
      </trkpt>
      <trkpt lat="44.89331" lon="5.56336">
        <ele>1286.4</ele>
        <time>2024-05-11T16:11:41.000Z</time>
      </trkpt>
      <trkpt lat="44.89336" lon="5.56341">
        <ele>1285.9</ele>
        <time>2024-05-11T16:11:48.000Z</time>
      </trkpt>
      <trkpt lat="44.89337" lon="5.56341">
        <ele>1285.8</ele>
        <time>2024-05-11T16:11:49.000Z</time>
      </trkpt>
      <trkpt lat="44.89344" lon="5.56344">
        <ele>1284.8</ele>
        <time>2024-05-11T16:11:56.000Z</time>
      </trkpt>
      <trkpt lat="44.89347" lon="5.56346">
        <ele>1284.5</ele>
        <time>2024-05-11T16:11:58.000Z</time>
      </trkpt>
      <trkpt lat="44.89354" lon="5.5635">
        <ele>1283.7</ele>
        <time>2024-05-11T16:12:05.000Z</time>
      </trkpt>
      <trkpt lat="44.8936" lon="5.56354">
        <ele>1283</ele>
        <time>2024-05-11T16:12:13.000Z</time>
      </trkpt>
      <trkpt lat="44.89362" lon="5.56355">
        <ele>1282.6</ele>
        <time>2024-05-11T16:12:16.000Z</time>
      </trkpt>
      <trkpt lat="44.89364" lon="5.56356">
        <ele>1282.4</ele>
        <time>2024-05-11T16:12:18.000Z</time>
      </trkpt>
      <trkpt lat="44.89369" lon="5.56359">
        <ele>1281.8</ele>
        <time>2024-05-11T16:12:25.000Z</time>
      </trkpt>
      <trkpt lat="44.89371" lon="5.5636">
        <ele>1281.5</ele>
        <time>2024-05-11T16:12:30.000Z</time>
      </trkpt>
      <trkpt lat="44.89372" lon="5.56361">
        <ele>1281.5</ele>
        <time>2024-05-11T16:12:31.000Z</time>
      </trkpt>
      <trkpt lat="44.89373" lon="5.56362">
        <ele>1281.3</ele>
        <time>2024-05-11T16:12:34.000Z</time>
      </trkpt>
      <trkpt lat="44.89377" lon="5.56365">
        <ele>1281</ele>
        <time>2024-05-11T16:12:42.000Z</time>
      </trkpt>
      <trkpt lat="44.89381" lon="5.5637">
        <ele>1280.7</ele>
        <time>2024-05-11T16:12:50.000Z</time>
      </trkpt>
      <trkpt lat="44.89382" lon="5.56372">
        <ele>1280.6</ele>
        <time>2024-05-11T16:12:52.000Z</time>
      </trkpt>
      <trkpt lat="44.89386" lon="5.56376">
        <ele>1280.5</ele>
        <time>2024-05-11T16:12:58.000Z</time>
      </trkpt>
      <trkpt lat="44.89386" lon="5.56377">
        <ele>1280.5</ele>
        <time>2024-05-11T16:12:59.000Z</time>
      </trkpt>
      <trkpt lat="44.89391" lon="5.5638">
        <ele>1280.2</ele>
        <time>2024-05-11T16:13:06.000Z</time>
      </trkpt>
      <trkpt lat="44.89393" lon="5.56381">
        <ele>1280</ele>
        <time>2024-05-11T16:13:09.000Z</time>
      </trkpt>
      <trkpt lat="44.89393" lon="5.56382">
        <ele>1280</ele>
        <time>2024-05-11T16:13:12.000Z</time>
      </trkpt>
      <trkpt lat="44.89393" lon="5.56384">
        <ele>1280.2</ele>
        <time>2024-05-11T16:13:16.000Z</time>
      </trkpt>
      <trkpt lat="44.89393" lon="5.56385">
        <ele>1280.3</ele>
        <time>2024-05-11T16:13:19.000Z</time>
      </trkpt>
      <trkpt lat="44.89395" lon="5.56387">
        <ele>1280.2</ele>
        <time>2024-05-11T16:13:24.000Z</time>
      </trkpt>
      <trkpt lat="44.89398" lon="5.56389">
        <ele>1280</ele>
        <time>2024-05-11T16:13:28.000Z</time>
      </trkpt>
      <trkpt lat="44.89399" lon="5.56389">
        <ele>1279.9</ele>
        <time>2024-05-11T16:13:31.000Z</time>
      </trkpt>
      <trkpt lat="44.89402" lon="5.56391">
        <ele>1279.6</ele>
        <time>2024-05-11T16:13:36.000Z</time>
      </trkpt>
      <trkpt lat="44.89407" lon="5.56392">
        <ele>1279.1</ele>
        <time>2024-05-11T16:13:40.000Z</time>
      </trkpt>
      <trkpt lat="44.89414" lon="5.56394">
        <ele>1278.3</ele>
        <time>2024-05-11T16:13:46.000Z</time>
      </trkpt>
      <trkpt lat="44.89415" lon="5.56394">
        <ele>1278.2</ele>
        <time>2024-05-11T16:13:47.000Z</time>
      </trkpt>
      <trkpt lat="44.89422" lon="5.56396">
        <ele>1277.4</ele>
        <time>2024-05-11T16:13:54.000Z</time>
      </trkpt>
      <trkpt lat="44.89427" lon="5.56398">
        <ele>1276.9</ele>
        <time>2024-05-11T16:14:00.000Z</time>
      </trkpt>
      <trkpt lat="44.89427" lon="5.56398">
        <ele>1276.9</ele>
        <time>2024-05-11T16:14:01.000Z</time>
      </trkpt>
      <trkpt lat="44.89426" lon="5.56399">
        <ele>1277</ele>
        <time>2024-05-11T16:14:07.000Z</time>
      </trkpt>
      <trkpt lat="44.89428" lon="5.56398">
        <ele>1276.8</ele>
        <time>2024-05-11T16:14:15.000Z</time>
      </trkpt>
      <trkpt lat="44.89429" lon="5.56397">
        <ele>1276.7</ele>
        <time>2024-05-11T16:14:21.000Z</time>
      </trkpt>
      <trkpt lat="44.8943" lon="5.56396">
        <ele>1276.6</ele>
        <time>2024-05-11T16:14:27.000Z</time>
      </trkpt>
      <trkpt lat="44.89432" lon="5.56397">
        <ele>1276.4</ele>
        <time>2024-05-11T16:14:34.000Z</time>
      </trkpt>
      <trkpt lat="44.89433" lon="5.56398">
        <ele>1276.2</ele>
        <time>2024-05-11T16:14:41.000Z</time>
      </trkpt>
      <trkpt lat="44.89434" lon="5.56399">
        <ele>1276.1</ele>
        <time>2024-05-11T16:14:42.000Z</time>
      </trkpt>
      <trkpt lat="44.89438" lon="5.56402">
        <ele>1275.7</ele>
        <time>2024-05-11T16:14:48.000Z</time>
      </trkpt>
      <trkpt lat="44.89442" lon="5.56408">
        <ele>1275.2</ele>
        <time>2024-05-11T16:14:56.000Z</time>
      </trkpt>
      <trkpt lat="44.89444" lon="5.56411">
        <ele>1275.1</ele>
        <time>2024-05-11T16:14:59.000Z</time>
      </trkpt>
      <trkpt lat="44.89448" lon="5.56413">
        <ele>1274.6</ele>
        <time>2024-05-11T16:15:03.000Z</time>
      </trkpt>
      <trkpt lat="44.89454" lon="5.56418">
        <ele>1274</ele>
        <time>2024-05-11T16:15:09.000Z</time>
      </trkpt>
      <trkpt lat="44.89462" lon="5.56423">
        <ele>1273.3</ele>
        <time>2024-05-11T16:15:17.000Z</time>
      </trkpt>
      <trkpt lat="44.89464" lon="5.56424">
        <ele>1273.2</ele>
        <time>2024-05-11T16:15:18.000Z</time>
      </trkpt>
      <trkpt lat="44.89469" lon="5.56426">
        <ele>1272.7</ele>
        <time>2024-05-11T16:15:22.000Z</time>
      </trkpt>
      <trkpt lat="44.8947" lon="5.56427">
        <ele>1272.6</ele>
        <time>2024-05-11T16:15:24.000Z</time>
      </trkpt>
      <trkpt lat="44.89471" lon="5.56428">
        <ele>1272.5</ele>
        <time>2024-05-11T16:15:25.000Z</time>
      </trkpt>
      <trkpt lat="44.89476" lon="5.56431">
        <ele>1272.2</ele>
        <time>2024-05-11T16:15:30.000Z</time>
      </trkpt>
      <trkpt lat="44.8948" lon="5.56435">
        <ele>1272</ele>
        <time>2024-05-11T16:15:36.000Z</time>
      </trkpt>
      <trkpt lat="44.89484" lon="5.56438">
        <ele>1271.9</ele>
        <time>2024-05-11T16:15:41.000Z</time>
      </trkpt>
      <trkpt lat="44.89488" lon="5.5644">
        <ele>1271.6</ele>
        <time>2024-05-11T16:15:46.000Z</time>
      </trkpt>
      <trkpt lat="44.89491" lon="5.56441">
        <ele>1271.4</ele>
        <time>2024-05-11T16:15:49.000Z</time>
      </trkpt>
      <trkpt lat="44.89493" lon="5.56442">
        <ele>1271.3</ele>
        <time>2024-05-11T16:15:51.000Z</time>
      </trkpt>
      <trkpt lat="44.895" lon="5.56445">
        <ele>1271</ele>
        <time>2024-05-11T16:15:57.000Z</time>
      </trkpt>
      <trkpt lat="44.89507" lon="5.56446">
        <ele>1270.3</ele>
        <time>2024-05-11T16:16:03.000Z</time>
      </trkpt>
      <trkpt lat="44.89512" lon="5.56448">
        <ele>1270.1</ele>
        <time>2024-05-11T16:16:07.000Z</time>
      </trkpt>
      <trkpt lat="44.89515" lon="5.56448">
        <ele>1269.8</ele>
        <time>2024-05-11T16:16:10.000Z</time>
      </trkpt>
      <trkpt lat="44.89521" lon="5.56448">
        <ele>1269.2</ele>
        <time>2024-05-11T16:16:17.000Z</time>
      </trkpt>
      <trkpt lat="44.89523" lon="5.56449">
        <ele>1269</ele>
        <time>2024-05-11T16:16:21.000Z</time>
      </trkpt>
      <trkpt lat="44.89528" lon="5.56449">
        <ele>1268.6</ele>
        <time>2024-05-11T16:16:29.000Z</time>
      </trkpt>
      <trkpt lat="44.89533" lon="5.56449">
        <ele>1268.1</ele>
        <time>2024-05-11T16:16:36.000Z</time>
      </trkpt>
      <trkpt lat="44.89535" lon="5.56449">
        <ele>1268.1</ele>
        <time>2024-05-11T16:16:39.000Z</time>
      </trkpt>
      <trkpt lat="44.89539" lon="5.56449">
        <ele>1267.5</ele>
        <time>2024-05-11T16:16:45.000Z</time>
      </trkpt>
      <trkpt lat="44.89541" lon="5.56449">
        <ele>1267.4</ele>
        <time>2024-05-11T16:16:47.000Z</time>
      </trkpt>
      <trkpt lat="44.89545" lon="5.56449">
        <ele>1267</ele>
        <time>2024-05-11T16:16:54.000Z</time>
      </trkpt>
      <trkpt lat="44.89545" lon="5.5645">
        <ele>1267.2</ele>
        <time>2024-05-11T16:16:56.000Z</time>
      </trkpt>
      <trkpt lat="44.89548" lon="5.56451">
        <ele>1267.2</ele>
        <time>2024-05-11T16:17:00.000Z</time>
      </trkpt>
      <trkpt lat="44.89553" lon="5.56449">
        <ele>1266.3</ele>
        <time>2024-05-11T16:17:07.000Z</time>
      </trkpt>
      <trkpt lat="44.89553" lon="5.56449">
        <ele>1266.2</ele>
        <time>2024-05-11T16:17:08.000Z</time>
      </trkpt>
      <trkpt lat="44.89555" lon="5.56447">
        <ele>1265.6</ele>
        <time>2024-05-11T16:17:13.000Z</time>
      </trkpt>
      <trkpt lat="44.89558" lon="5.56446">
        <ele>1265</ele>
        <time>2024-05-11T16:17:18.000Z</time>
      </trkpt>
      <trkpt lat="44.89562" lon="5.56446">
        <ele>1264.6</ele>
        <time>2024-05-11T16:17:22.000Z</time>
      </trkpt>
      <trkpt lat="44.89566" lon="5.56444">
        <ele>1263.4</ele>
        <time>2024-05-11T16:17:27.000Z</time>
      </trkpt>
      <trkpt lat="44.89567" lon="5.56444">
        <ele>1263.2</ele>
        <time>2024-05-11T16:17:29.000Z</time>
      </trkpt>
      <trkpt lat="44.89571" lon="5.56445">
        <ele>1263</ele>
        <time>2024-05-11T16:17:33.000Z</time>
      </trkpt>
      <trkpt lat="44.89573" lon="5.56444">
        <ele>1262.4</ele>
        <time>2024-05-11T16:17:36.000Z</time>
      </trkpt>
      <trkpt lat="44.89573" lon="5.56442">
        <ele>1261.7</ele>
        <time>2024-05-11T16:17:38.000Z</time>
      </trkpt>
      <trkpt lat="44.89579" lon="5.56443">
        <ele>1261.2</ele>
        <time>2024-05-11T16:17:44.000Z</time>
      </trkpt>
      <trkpt lat="44.89582" lon="5.56443">
        <ele>1260.7</ele>
        <time>2024-05-11T16:17:46.000Z</time>
      </trkpt>
      <trkpt lat="44.89584" lon="5.56441">
        <ele>1260</ele>
        <time>2024-05-11T16:17:49.000Z</time>
      </trkpt>
      <trkpt lat="44.89586" lon="5.56441">
        <ele>1259.7</ele>
        <time>2024-05-11T16:17:54.000Z</time>
      </trkpt>
      <trkpt lat="44.89587" lon="5.56441">
        <ele>1259.6</ele>
        <time>2024-05-11T16:17:56.000Z</time>
      </trkpt>
      <trkpt lat="44.89591" lon="5.56441">
        <ele>1259.1</ele>
        <time>2024-05-11T16:18:02.000Z</time>
      </trkpt>
      <trkpt lat="44.89594" lon="5.56442">
        <ele>1258.9</ele>
        <time>2024-05-11T16:18:06.000Z</time>
      </trkpt>
      <trkpt lat="44.89596" lon="5.56442">
        <ele>1258.7</ele>
        <time>2024-05-11T16:18:08.000Z</time>
      </trkpt>
      <trkpt lat="44.89601" lon="5.56444">
        <ele>1258.5</ele>
        <time>2024-05-11T16:18:14.000Z</time>
      </trkpt>
      <trkpt lat="44.89603" lon="5.56446">
        <ele>1258.6</ele>
        <time>2024-05-11T16:18:16.000Z</time>
      </trkpt>
      <trkpt lat="44.89605" lon="5.56445">
        <ele>1258</ele>
        <time>2024-05-11T16:18:20.000Z</time>
      </trkpt>
      <trkpt lat="44.89606" lon="5.56444">
        <ele>1257.5</ele>
        <time>2024-05-11T16:18:22.000Z</time>
      </trkpt>
      <trkpt lat="44.89607" lon="5.56443">
        <ele>1257.2</ele>
        <time>2024-05-11T16:18:24.000Z</time>
      </trkpt>
      <trkpt lat="44.89612" lon="5.56443">
        <ele>1256.5</ele>
        <time>2024-05-11T16:18:28.000Z</time>
      </trkpt>
      <trkpt lat="44.89615" lon="5.56444">
        <ele>1256.3</ele>
        <time>2024-05-11T16:18:31.000Z</time>
      </trkpt>
      <trkpt lat="44.89625" lon="5.56449">
        <ele>1256.4</ele>
        <time>2024-05-11T16:18:39.000Z</time>
      </trkpt>
      <trkpt lat="44.89627" lon="5.5645">
        <ele>1256.4</ele>
        <time>2024-05-11T16:18:41.000Z</time>
      </trkpt>
      <trkpt lat="44.89631" lon="5.56451">
        <ele>1256</ele>
        <time>2024-05-11T16:18:46.000Z</time>
      </trkpt>
      <trkpt lat="44.89639" lon="5.56455">
        <ele>1256.1</ele>
        <time>2024-05-11T16:18:54.000Z</time>
      </trkpt>
      <trkpt lat="44.8964" lon="5.56455">
        <ele>1255.8</ele>
        <time>2024-05-11T16:18:55.000Z</time>
      </trkpt>
      <trkpt lat="44.89648" lon="5.56456">
        <ele>1254.7</ele>
        <time>2024-05-11T16:19:02.000Z</time>
      </trkpt>
      <trkpt lat="44.89654" lon="5.56458">
        <ele>1254.1</ele>
        <time>2024-05-11T16:19:08.000Z</time>
      </trkpt>
      <trkpt lat="44.89655" lon="5.56459">
        <ele>1253.9</ele>
        <time>2024-05-11T16:19:09.000Z</time>
      </trkpt>
      <trkpt lat="44.89666" lon="5.56463">
        <ele>1252.8</ele>
        <time>2024-05-11T16:19:18.000Z</time>
      </trkpt>
      <trkpt lat="44.89671" lon="5.56467">
        <ele>1252.9</ele>
        <time>2024-05-11T16:19:23.000Z</time>
      </trkpt>
      <trkpt lat="44.89674" lon="5.56467">
        <ele>1252.4</ele>
        <time>2024-05-11T16:19:26.000Z</time>
      </trkpt>
      <trkpt lat="44.89681" lon="5.5647">
        <ele>1251.8</ele>
        <time>2024-05-11T16:19:32.000Z</time>
      </trkpt>
      <trkpt lat="44.89689" lon="5.56474">
        <ele>1251.3</ele>
        <time>2024-05-11T16:19:40.000Z</time>
      </trkpt>
      <trkpt lat="44.89696" lon="5.56476">
        <ele>1250.6</ele>
        <time>2024-05-11T16:19:47.000Z</time>
      </trkpt>
      <trkpt lat="44.89698" lon="5.56478">
        <ele>1250.5</ele>
        <time>2024-05-11T16:19:51.000Z</time>
      </trkpt>
      <trkpt lat="44.89699" lon="5.56478">
        <ele>1250.5</ele>
        <time>2024-05-11T16:19:52.000Z</time>
      </trkpt>
      <trkpt lat="44.89702" lon="5.56481">
        <ele>1250.5</ele>
        <time>2024-05-11T16:19:57.000Z</time>
      </trkpt>
      <trkpt lat="44.89705" lon="5.56486">
        <ele>1251</ele>
        <time>2024-05-11T16:20:02.000Z</time>
      </trkpt>
      <trkpt lat="44.89711" lon="5.5649">
        <ele>1250.6</ele>
        <time>2024-05-11T16:20:10.000Z</time>
      </trkpt>
      <trkpt lat="44.89717" lon="5.56494">
        <ele>1250.3</ele>
        <time>2024-05-11T16:20:17.000Z</time>
      </trkpt>
      <trkpt lat="44.89723" lon="5.56498">
        <ele>1249.7</ele>
        <time>2024-05-11T16:20:23.000Z</time>
      </trkpt>
      <trkpt lat="44.89725" lon="5.56499">
        <ele>1249.6</ele>
        <time>2024-05-11T16:20:25.000Z</time>
      </trkpt>
      <trkpt lat="44.89731" lon="5.56502">
        <ele>1249</ele>
        <time>2024-05-11T16:20:33.000Z</time>
      </trkpt>
      <trkpt lat="44.89734" lon="5.56504">
        <ele>1248.6</ele>
        <time>2024-05-11T16:20:38.000Z</time>
      </trkpt>
      <trkpt lat="44.89741" lon="5.56507">
        <ele>1247.9</ele>
        <time>2024-05-11T16:20:45.000Z</time>
      </trkpt>
      <trkpt lat="44.89747" lon="5.56511">
        <ele>1247.3</ele>
        <time>2024-05-11T16:20:52.000Z</time>
      </trkpt>
      <trkpt lat="44.89755" lon="5.56515">
        <ele>1246.8</ele>
        <time>2024-05-11T16:21:00.000Z</time>
      </trkpt>
      <trkpt lat="44.8976" lon="5.5652">
        <ele>1246.8</ele>
        <time>2024-05-11T16:21:07.000Z</time>
      </trkpt>
      <trkpt lat="44.89765" lon="5.56523">
        <ele>1246.8</ele>
        <time>2024-05-11T16:21:12.000Z</time>
      </trkpt>
      <trkpt lat="44.89768" lon="5.56523">
        <ele>1246.8</ele>
        <time>2024-05-11T16:21:14.000Z</time>
      </trkpt>
      <trkpt lat="44.89773" lon="5.56527">
        <ele>1247</ele>
        <time>2024-05-11T16:21:20.000Z</time>
      </trkpt>
      <trkpt lat="44.8978" lon="5.5653">
        <ele>1247</ele>
        <time>2024-05-11T16:21:28.000Z</time>
      </trkpt>
      <trkpt lat="44.89782" lon="5.5653">
        <ele>1247</ele>
        <time>2024-05-11T16:21:30.000Z</time>
      </trkpt>
      <trkpt lat="44.89787" lon="5.56534">
        <ele>1246.9</ele>
        <time>2024-05-11T16:21:37.000Z</time>
      </trkpt>
      <trkpt lat="44.89793" lon="5.56537">
        <ele>1246.8</ele>
        <time>2024-05-11T16:21:43.000Z</time>
      </trkpt>
      <trkpt lat="44.89799" lon="5.56538">
        <ele>1246.6</ele>
        <time>2024-05-11T16:21:50.000Z</time>
      </trkpt>
      <trkpt lat="44.89805" lon="5.5654">
        <ele>1246.5</ele>
        <time>2024-05-11T16:21:57.000Z</time>
      </trkpt>
      <trkpt lat="44.89806" lon="5.5654">
        <ele>1246.4</ele>
        <time>2024-05-11T16:21:58.000Z</time>
      </trkpt>
      <trkpt lat="44.89807" lon="5.56539">
        <ele>1246.1</ele>
        <time>2024-05-11T16:21:59.000Z</time>
      </trkpt>
      <trkpt lat="44.89811" lon="5.56541">
        <ele>1245.5</ele>
        <time>2024-05-11T16:22:03.000Z</time>
      </trkpt>
      <trkpt lat="44.89812" lon="5.56542">
        <ele>1245.5</ele>
        <time>2024-05-11T16:22:04.000Z</time>
      </trkpt>
      <trkpt lat="44.89815" lon="5.56544">
        <ele>1245</ele>
        <time>2024-05-11T16:22:09.000Z</time>
      </trkpt>
      <trkpt lat="44.89816" lon="5.56544">
        <ele>1244.9</ele>
        <time>2024-05-11T16:22:10.000Z</time>
      </trkpt>
      <trkpt lat="44.89819" lon="5.56545">
        <ele>1244.4</ele>
        <time>2024-05-11T16:22:15.000Z</time>
      </trkpt>
      <trkpt lat="44.89823" lon="5.56547">
        <ele>1243.7</ele>
        <time>2024-05-11T16:22:20.000Z</time>
      </trkpt>
      <trkpt lat="44.89825" lon="5.56548">
        <ele>1243.4</ele>
        <time>2024-05-11T16:22:23.000Z</time>
      </trkpt>
      <trkpt lat="44.89827" lon="5.56549">
        <ele>1243.1</ele>
        <time>2024-05-11T16:22:26.000Z</time>
      </trkpt>
      <trkpt lat="44.89828" lon="5.56549">
        <ele>1242.9</ele>
        <time>2024-05-11T16:22:28.000Z</time>
      </trkpt>
      <trkpt lat="44.89828" lon="5.56549">
        <ele>1242.8</ele>
        <time>2024-05-11T16:22:29.000Z</time>
      </trkpt>
      <trkpt lat="44.89832" lon="5.56551">
        <ele>1242.2</ele>
        <time>2024-05-11T16:22:35.000Z</time>
      </trkpt>
      <trkpt lat="44.89833" lon="5.56551">
        <ele>1242</ele>
        <time>2024-05-11T16:22:37.000Z</time>
      </trkpt>
      <trkpt lat="44.89835" lon="5.56553">
        <ele>1241.5</ele>
        <time>2024-05-11T16:22:42.000Z</time>
      </trkpt>
      <trkpt lat="44.89837" lon="5.56553">
        <ele>1241.2</ele>
        <time>2024-05-11T16:22:45.000Z</time>
      </trkpt>
      <trkpt lat="44.89841" lon="5.56555">
        <ele>1240.4</ele>
        <time>2024-05-11T16:22:50.000Z</time>
      </trkpt>
      <trkpt lat="44.89844" lon="5.56557">
        <ele>1239.5</ele>
        <time>2024-05-11T16:22:54.000Z</time>
      </trkpt>
      <trkpt lat="44.89847" lon="5.56559">
        <ele>1238.7</ele>
        <time>2024-05-11T16:22:57.000Z</time>
      </trkpt>
      <trkpt lat="44.89851" lon="5.56564">
        <ele>1237.3</ele>
        <time>2024-05-11T16:23:03.000Z</time>
      </trkpt>
      <trkpt lat="44.89852" lon="5.56564">
        <ele>1237</ele>
        <time>2024-05-11T16:23:05.000Z</time>
      </trkpt>
      <trkpt lat="44.89856" lon="5.56566">
        <ele>1236</ele>
        <time>2024-05-11T16:23:10.000Z</time>
      </trkpt>
      <trkpt lat="44.89858" lon="5.56567">
        <ele>1235.3</ele>
        <time>2024-05-11T16:23:14.000Z</time>
      </trkpt>
      <trkpt lat="44.89861" lon="5.56572">
        <ele>1234.2</ele>
        <time>2024-05-11T16:23:20.000Z</time>
      </trkpt>
      <trkpt lat="44.89865" lon="5.56575">
        <ele>1233.1</ele>
        <time>2024-05-11T16:23:27.000Z</time>
      </trkpt>
      <trkpt lat="44.89867" lon="5.56578">
        <ele>1232.5</ele>
        <time>2024-05-11T16:23:31.000Z</time>
      </trkpt>
      <trkpt lat="44.89869" lon="5.5658">
        <ele>1232</ele>
        <time>2024-05-11T16:23:35.000Z</time>
      </trkpt>
      <trkpt lat="44.8987" lon="5.56581">
        <ele>1231.7</ele>
        <time>2024-05-11T16:23:39.000Z</time>
      </trkpt>
      <trkpt lat="44.89871" lon="5.56581">
        <ele>1231.5</ele>
        <time>2024-05-11T16:23:42.000Z</time>
      </trkpt>
      <trkpt lat="44.89874" lon="5.56584">
        <ele>1230.7</ele>
        <time>2024-05-11T16:23:48.000Z</time>
      </trkpt>
      <trkpt lat="44.89877" lon="5.56586">
        <ele>1230</ele>
        <time>2024-05-11T16:23:55.000Z</time>
      </trkpt>
      <trkpt lat="44.89877" lon="5.56586">
        <ele>1229.9</ele>
        <time>2024-05-11T16:23:56.000Z</time>
      </trkpt>
      <trkpt lat="44.89879" lon="5.5659">
        <ele>1229</ele>
        <time>2024-05-11T16:24:03.000Z</time>
      </trkpt>
      <trkpt lat="44.8988" lon="5.56591">
        <ele>1228.8</ele>
        <time>2024-05-11T16:24:04.000Z</time>
      </trkpt>
      <trkpt lat="44.89885" lon="5.56594">
        <ele>1227.5</ele>
        <time>2024-05-11T16:24:11.000Z</time>
      </trkpt>
      <trkpt lat="44.89889" lon="5.56596">
        <ele>1226.7</ele>
        <time>2024-05-11T16:24:18.000Z</time>
      </trkpt>
      <trkpt lat="44.8989" lon="5.56596">
        <ele>1226.5</ele>
        <time>2024-05-11T16:24:20.000Z</time>
      </trkpt>
      <trkpt lat="44.89891" lon="5.56596">
        <ele>1226.4</ele>
        <time>2024-05-11T16:24:23.000Z</time>
      </trkpt>
      <trkpt lat="44.89891" lon="5.56596">
        <ele>1226.3</ele>
        <time>2024-05-11T16:24:26.000Z</time>
      </trkpt>
      <trkpt lat="44.89892" lon="5.56598">
        <ele>1226</ele>
        <time>2024-05-11T16:24:29.000Z</time>
      </trkpt>
      <trkpt lat="44.89897" lon="5.56598">
        <ele>1225.4</ele>
        <time>2024-05-11T16:24:36.000Z</time>
      </trkpt>
      <trkpt lat="44.89898" lon="5.56598">
        <ele>1225.3</ele>
        <time>2024-05-11T16:24:37.000Z</time>
      </trkpt>
      <trkpt lat="44.89902" lon="5.56599">
        <ele>1224.6</ele>
        <time>2024-05-11T16:24:42.000Z</time>
      </trkpt>
      <trkpt lat="44.89904" lon="5.56601">
        <ele>1224.3</ele>
        <time>2024-05-11T16:24:44.000Z</time>
      </trkpt>
      <trkpt lat="44.89906" lon="5.56602">
        <ele>1224</ele>
        <time>2024-05-11T16:24:48.000Z</time>
      </trkpt>
      <trkpt lat="44.89906" lon="5.56602">
        <ele>1223.9</ele>
        <time>2024-05-11T16:24:52.000Z</time>
      </trkpt>
      <trkpt lat="44.89907" lon="5.56603">
        <ele>1223.7</ele>
        <time>2024-05-11T16:24:57.000Z</time>
      </trkpt>
      <trkpt lat="44.8991" lon="5.56604">
        <ele>1223.2</ele>
        <time>2024-05-11T16:25:01.000Z</time>
      </trkpt>
      <trkpt lat="44.89912" lon="5.56606">
        <ele>1222.9</ele>
        <time>2024-05-11T16:25:04.000Z</time>
      </trkpt>
      <trkpt lat="44.89919" lon="5.5661">
        <ele>1221.9</ele>
        <time>2024-05-11T16:25:12.000Z</time>
      </trkpt>
      <trkpt lat="44.89925" lon="5.56614">
        <ele>1221.3</ele>
        <time>2024-05-11T16:25:19.000Z</time>
      </trkpt>
      <trkpt lat="44.89926" lon="5.56615">
        <ele>1221.2</ele>
        <time>2024-05-11T16:25:21.000Z</time>
      </trkpt>
      <trkpt lat="44.89929" lon="5.56615">
        <ele>1221</ele>
        <time>2024-05-11T16:25:23.000Z</time>
      </trkpt>
      <trkpt lat="44.89933" lon="5.56618">
        <ele>1220.6</ele>
        <time>2024-05-11T16:25:29.000Z</time>
      </trkpt>
      <trkpt lat="44.89937" lon="5.5662">
        <ele>1220.2</ele>
        <time>2024-05-11T16:25:35.000Z</time>
      </trkpt>
      <trkpt lat="44.89939" lon="5.56622">
        <ele>1220</ele>
        <time>2024-05-11T16:25:38.000Z</time>
      </trkpt>
      <trkpt lat="44.8994" lon="5.56624">
        <ele>1219.9</ele>
        <time>2024-05-11T16:25:43.000Z</time>
      </trkpt>
      <trkpt lat="44.8994" lon="5.56623">
        <ele>1219.9</ele>
        <time>2024-05-11T16:25:48.000Z</time>
      </trkpt>
      <trkpt lat="44.8994" lon="5.56624">
        <ele>1219.9</ele>
        <time>2024-05-11T16:25:51.000Z</time>
      </trkpt>
      <trkpt lat="44.8994" lon="5.56626">
        <ele>1219.7</ele>
        <time>2024-05-11T16:25:57.000Z</time>
      </trkpt>
      <trkpt lat="44.89941" lon="5.56628">
        <ele>1219.6</ele>
        <time>2024-05-11T16:26:03.000Z</time>
      </trkpt>
      <trkpt lat="44.89942" lon="5.56633">
        <ele>1219.4</ele>
        <time>2024-05-11T16:26:18.000Z</time>
      </trkpt>
      <trkpt lat="44.89941" lon="5.56632">
        <ele>1219.5</ele>
        <time>2024-05-11T16:26:24.000Z</time>
      </trkpt>
      <trkpt lat="44.89939" lon="5.56629">
        <ele>1219.8</ele>
        <time>2024-05-11T16:26:28.000Z</time>
      </trkpt>
      <trkpt lat="44.89939" lon="5.56628">
        <ele>1219.8</ele>
        <time>2024-05-11T16:26:31.000Z</time>
      </trkpt>
      <trkpt lat="44.89938" lon="5.56626">
        <ele>1219.9</ele>
        <time>2024-05-11T16:26:32.000Z</time>
      </trkpt>
      <trkpt lat="44.89936" lon="5.56624">
        <ele>1220.1</ele>
        <time>2024-05-11T16:27:28.000Z</time>
      </trkpt>
      <trkpt lat="44.89944" lon="5.56626">
        <ele>1219.5</ele>
        <time>2024-05-11T16:27:35.000Z</time>
      </trkpt>
      <trkpt lat="44.89951" lon="5.56629">
        <ele>1219</ele>
        <time>2024-05-11T16:27:43.000Z</time>
      </trkpt>
      <trkpt lat="44.89959" lon="5.56635">
        <ele>1218.2</ele>
        <time>2024-05-11T16:27:51.000Z</time>
      </trkpt>
      <trkpt lat="44.89967" lon="5.56639">
        <ele>1217.4</ele>
        <time>2024-05-11T16:27:58.000Z</time>
      </trkpt>
      <trkpt lat="44.89972" lon="5.56641">
        <ele>1217</ele>
        <time>2024-05-11T16:28:03.000Z</time>
      </trkpt>
      <trkpt lat="44.89974" lon="5.56642">
        <ele>1216.9</ele>
        <time>2024-05-11T16:28:09.000Z</time>
      </trkpt>
      <trkpt lat="44.89975" lon="5.56642">
        <ele>1216.8</ele>
        <time>2024-05-11T16:28:13.000Z</time>
      </trkpt>
      <trkpt lat="44.89977" lon="5.56642">
        <ele>1216.7</ele>
        <time>2024-05-11T16:28:15.000Z</time>
      </trkpt>
      <trkpt lat="44.8998" lon="5.56642">
        <ele>1216.4</ele>
        <time>2024-05-11T16:28:20.000Z</time>
      </trkpt>
      <trkpt lat="44.89981" lon="5.56642">
        <ele>1216.4</ele>
        <time>2024-05-11T16:28:22.000Z</time>
      </trkpt>
      <trkpt lat="44.89985" lon="5.56643">
        <ele>1216</ele>
        <time>2024-05-11T16:28:28.000Z</time>
      </trkpt>
      <trkpt lat="44.89991" lon="5.56644">
        <ele>1215.6</ele>
        <time>2024-05-11T16:28:34.000Z</time>
      </trkpt>
      <trkpt lat="44.89991" lon="5.56644">
        <ele>1215.5</ele>
        <time>2024-05-11T16:28:35.000Z</time>
      </trkpt>
      <trkpt lat="44.89995" lon="5.56647">
        <ele>1215.2</ele>
        <time>2024-05-11T16:28:39.000Z</time>
      </trkpt>
      <trkpt lat="44.90002" lon="5.56648">
        <ele>1214.4</ele>
        <time>2024-05-11T16:28:46.000Z</time>
      </trkpt>
      <trkpt lat="44.90003" lon="5.56648">
        <ele>1214.3</ele>
        <time>2024-05-11T16:28:47.000Z</time>
      </trkpt>
      <trkpt lat="44.90006" lon="5.5665">
        <ele>1213.8</ele>
        <time>2024-05-11T16:28:53.000Z</time>
      </trkpt>
      <trkpt lat="44.90009" lon="5.56648">
        <ele>1213.5</ele>
        <time>2024-05-11T16:28:57.000Z</time>
      </trkpt>
      <trkpt lat="44.90009" lon="5.56641">
        <ele>1213.7</ele>
        <time>2024-05-11T16:29:01.000Z</time>
      </trkpt>
      <trkpt lat="44.90013" lon="5.56641">
        <ele>1213</ele>
        <time>2024-05-11T16:29:06.000Z</time>
      </trkpt>
      <trkpt lat="44.90015" lon="5.56641">
        <ele>1212.8</ele>
        <time>2024-05-11T16:29:09.000Z</time>
      </trkpt>
      <trkpt lat="44.90019" lon="5.5664">
        <ele>1212.2</ele>
        <time>2024-05-11T16:29:16.000Z</time>
      </trkpt>
      <trkpt lat="44.90022" lon="5.5664">
        <ele>1211.8</ele>
        <time>2024-05-11T16:29:19.000Z</time>
      </trkpt>
      <trkpt lat="44.90024" lon="5.56639">
        <ele>1211.5</ele>
        <time>2024-05-11T16:29:22.000Z</time>
      </trkpt>
      <trkpt lat="44.90026" lon="5.56637">
        <ele>1211.3</ele>
        <time>2024-05-11T16:29:28.000Z</time>
      </trkpt>
      <trkpt lat="44.90028" lon="5.56638">
        <ele>1211</ele>
        <time>2024-05-11T16:29:31.000Z</time>
      </trkpt>
      <trkpt lat="44.90028" lon="5.56637">
        <ele>1210.9</ele>
        <time>2024-05-11T16:29:32.000Z</time>
      </trkpt>
      <trkpt lat="44.90031" lon="5.56637">
        <ele>1210.5</ele>
        <time>2024-05-11T16:29:35.000Z</time>
      </trkpt>
      <trkpt lat="44.90032" lon="5.56637">
        <ele>1210.4</ele>
        <time>2024-05-11T16:29:36.000Z</time>
      </trkpt>
      <trkpt lat="44.90036" lon="5.56636">
        <ele>1209.8</ele>
        <time>2024-05-11T16:29:41.000Z</time>
      </trkpt>
      <trkpt lat="44.90042" lon="5.56637">
        <ele>1209</ele>
        <time>2024-05-11T16:29:46.000Z</time>
      </trkpt>
      <trkpt lat="44.90046" lon="5.56638">
        <ele>1208.4</ele>
        <time>2024-05-11T16:29:48.000Z</time>
      </trkpt>
      <trkpt lat="44.9005" lon="5.5664">
        <ele>1207.9</ele>
        <time>2024-05-11T16:29:52.000Z</time>
      </trkpt>
      <trkpt lat="44.9005" lon="5.56639">
        <ele>1207.8</ele>
        <time>2024-05-11T16:29:53.000Z</time>
      </trkpt>
      <trkpt lat="44.90054" lon="5.5664">
        <ele>1207.3</ele>
        <time>2024-05-11T16:29:59.000Z</time>
      </trkpt>
      <trkpt lat="44.90055" lon="5.5664">
        <ele>1207.1</ele>
        <time>2024-05-11T16:30:01.000Z</time>
      </trkpt>
      <trkpt lat="44.90059" lon="5.56639">
        <ele>1206.8</ele>
        <time>2024-05-11T16:30:06.000Z</time>
      </trkpt>
      <trkpt lat="44.90064" lon="5.56641">
        <ele>1206.6</ele>
        <time>2024-05-11T16:30:12.000Z</time>
      </trkpt>
      <trkpt lat="44.90064" lon="5.56641">
        <ele>1206.5</ele>
        <time>2024-05-11T16:30:13.000Z</time>
      </trkpt>
      <trkpt lat="44.90071" lon="5.56644">
        <ele>1206.1</ele>
        <time>2024-05-11T16:30:22.000Z</time>
      </trkpt>
      <trkpt lat="44.90072" lon="5.56642">
        <ele>1206</ele>
        <time>2024-05-11T16:30:29.000Z</time>
      </trkpt>
      <trkpt lat="44.90074" lon="5.5664">
        <ele>1205.7</ele>
        <time>2024-05-11T16:30:34.000Z</time>
      </trkpt>
      <trkpt lat="44.90074" lon="5.56637">
        <ele>1205.7</ele>
        <time>2024-05-11T16:30:36.000Z</time>
      </trkpt>
      <trkpt lat="44.90074" lon="5.56636">
        <ele>1205.6</ele>
        <time>2024-05-11T16:30:38.000Z</time>
      </trkpt>
      <trkpt lat="44.90077" lon="5.56637">
        <ele>1205.4</ele>
        <time>2024-05-11T16:30:42.000Z</time>
      </trkpt>
      <trkpt lat="44.90079" lon="5.56635">
        <ele>1205.2</ele>
        <time>2024-05-11T16:30:45.000Z</time>
      </trkpt>
      <trkpt lat="44.90084" lon="5.56635">
        <ele>1204.8</ele>
        <time>2024-05-11T16:30:48.000Z</time>
      </trkpt>
      <trkpt lat="44.90096" lon="5.56629">
        <ele>1203.9</ele>
        <time>2024-05-11T16:30:55.000Z</time>
      </trkpt>
      <trkpt lat="44.90102" lon="5.56626">
        <ele>1203.5</ele>
        <time>2024-05-11T16:31:02.000Z</time>
      </trkpt>
      <trkpt lat="44.90107" lon="5.56628">
        <ele>1203.3</ele>
        <time>2024-05-11T16:31:09.000Z</time>
      </trkpt>
      <trkpt lat="44.90109" lon="5.5663">
        <ele>1203.2</ele>
        <time>2024-05-11T16:31:14.000Z</time>
      </trkpt>
      <trkpt lat="44.90109" lon="5.5663">
        <ele>1203.1</ele>
        <time>2024-05-11T16:31:15.000Z</time>
      </trkpt>
      <trkpt lat="44.90114" lon="5.56632">
        <ele>1202.9</ele>
        <time>2024-05-11T16:31:22.000Z</time>
      </trkpt>
      <trkpt lat="44.90116" lon="5.56637">
        <ele>1202.8</ele>
        <time>2024-05-11T16:31:26.000Z</time>
      </trkpt>
      <trkpt lat="44.90117" lon="5.56639">
        <ele>1202.8</ele>
        <time>2024-05-11T16:31:27.000Z</time>
      </trkpt>
      <trkpt lat="44.90126" lon="5.56639">
        <ele>1202.5</ele>
        <time>2024-05-11T16:31:33.000Z</time>
      </trkpt>
      <trkpt lat="44.90126" lon="5.56639">
        <ele>1202.4</ele>
        <time>2024-05-11T16:31:34.000Z</time>
      </trkpt>
      <trkpt lat="44.90129" lon="5.56639">
        <ele>1202.4</ele>
        <time>2024-05-11T16:31:36.000Z</time>
      </trkpt>
      <trkpt lat="44.90132" lon="5.56639">
        <ele>1202.3</ele>
        <time>2024-05-11T16:31:39.000Z</time>
      </trkpt>
      <trkpt lat="44.90137" lon="5.56642">
        <ele>1202.2</ele>
        <time>2024-05-11T16:31:44.000Z</time>
      </trkpt>
      <trkpt lat="44.90141" lon="5.56645">
        <ele>1202.1</ele>
        <time>2024-05-11T16:31:50.000Z</time>
      </trkpt>
      <trkpt lat="44.9014" lon="5.56642">
        <ele>1202.1</ele>
        <time>2024-05-11T16:31:52.000Z</time>
      </trkpt>
      <trkpt lat="44.90141" lon="5.56642">
        <ele>1202</ele>
        <time>2024-05-11T16:31:55.000Z</time>
      </trkpt>
      <trkpt lat="44.90147" lon="5.56646">
        <ele>1201.9</ele>
        <time>2024-05-11T16:32:04.000Z</time>
      </trkpt>
      <trkpt lat="44.90149" lon="5.56649">
        <ele>1201.9</ele>
        <time>2024-05-11T16:32:06.000Z</time>
      </trkpt>
      <trkpt lat="44.9015" lon="5.56653">
        <ele>1201.9</ele>
        <time>2024-05-11T16:32:08.000Z</time>
      </trkpt>
      <trkpt lat="44.90151" lon="5.56658">
        <ele>1202</ele>
        <time>2024-05-11T16:32:10.000Z</time>
      </trkpt>
      <trkpt lat="44.90151" lon="5.56659">
        <ele>1202</ele>
        <time>2024-05-11T16:32:11.000Z</time>
      </trkpt>
      <trkpt lat="44.90154" lon="5.56661">
        <ele>1201.8</ele>
        <time>2024-05-11T16:32:16.000Z</time>
      </trkpt>
      <trkpt lat="44.9016" lon="5.56663">
        <ele>1201.4</ele>
        <time>2024-05-11T16:32:23.000Z</time>
      </trkpt>
      <trkpt lat="44.90164" lon="5.56669">
        <ele>1201.2</ele>
        <time>2024-05-11T16:32:26.000Z</time>
      </trkpt>
      <trkpt lat="44.90165" lon="5.56667">
        <ele>1201.1</ele>
        <time>2024-05-11T16:32:28.000Z</time>
      </trkpt>
      <trkpt lat="44.90166" lon="5.56666">
        <ele>1201</ele>
        <time>2024-05-11T16:32:29.000Z</time>
      </trkpt>
      <trkpt lat="44.90172" lon="5.56663">
        <ele>1200.6</ele>
        <time>2024-05-11T16:32:36.000Z</time>
      </trkpt>
      <trkpt lat="44.90178" lon="5.56662">
        <ele>1200.1</ele>
        <time>2024-05-11T16:32:42.000Z</time>
      </trkpt>
      <trkpt lat="44.9019" lon="5.56664">
        <ele>1199.2</ele>
        <time>2024-05-11T16:32:52.000Z</time>
      </trkpt>
      <trkpt lat="44.90193" lon="5.5666">
        <ele>1198.9</ele>
        <time>2024-05-11T16:32:55.000Z</time>
      </trkpt>
      <trkpt lat="44.90193" lon="5.56657">
        <ele>1198.8</ele>
        <time>2024-05-11T16:33:00.000Z</time>
      </trkpt>
      <trkpt lat="44.90191" lon="5.56656">
        <ele>1198.9</ele>
        <time>2024-05-11T16:33:07.000Z</time>
      </trkpt>
      <trkpt lat="44.90189" lon="5.56654">
        <ele>1199.1</ele>
        <time>2024-05-11T16:33:14.000Z</time>
      </trkpt>
      <trkpt lat="44.9019" lon="5.56655">
        <ele>1199</ele>
        <time>2024-05-11T16:33:20.000Z</time>
      </trkpt>
      <trkpt lat="44.90194" lon="5.56654">
        <ele>1198.6</ele>
        <time>2024-05-11T16:33:26.000Z</time>
      </trkpt>
      <trkpt lat="44.90194" lon="5.56654">
        <ele>1198.6</ele>
        <time>2024-05-11T16:33:27.000Z</time>
      </trkpt>
      <trkpt lat="44.90199" lon="5.5665">
        <ele>1197.7</ele>
        <time>2024-05-11T16:33:34.000Z</time>
      </trkpt>
      <trkpt lat="44.90202" lon="5.56651">
        <ele>1197.3</ele>
        <time>2024-05-11T16:33:38.000Z</time>
      </trkpt>
      <trkpt lat="44.90204" lon="5.56651">
        <ele>1197</ele>
        <time>2024-05-11T16:33:40.000Z</time>
      </trkpt>
      <trkpt lat="44.90207" lon="5.56652">
        <ele>1196.6</ele>
        <time>2024-05-11T16:33:45.000Z</time>
      </trkpt>
      <trkpt lat="44.90208" lon="5.56653">
        <ele>1196.5</ele>
        <time>2024-05-11T16:33:48.000Z</time>
      </trkpt>
      <trkpt lat="44.90211" lon="5.56654">
        <ele>1196.2</ele>
        <time>2024-05-11T16:33:52.000Z</time>
      </trkpt>
      <trkpt lat="44.90215" lon="5.56655">
        <ele>1195.7</ele>
        <time>2024-05-11T16:33:57.000Z</time>
      </trkpt>
      <trkpt lat="44.90216" lon="5.56654">
        <ele>1195.5</ele>
        <time>2024-05-11T16:34:00.000Z</time>
      </trkpt>
      <trkpt lat="44.90219" lon="5.56655">
        <ele>1195.2</ele>
        <time>2024-05-11T16:34:07.000Z</time>
      </trkpt>
      <trkpt lat="44.9022" lon="5.56656">
        <ele>1195.2</ele>
        <time>2024-05-11T16:34:08.000Z</time>
      </trkpt>
      <trkpt lat="44.90227" lon="5.56654">
        <ele>1193.5</ele>
        <time>2024-05-11T16:34:15.000Z</time>
      </trkpt>
      <trkpt lat="44.90228" lon="5.56653">
        <ele>1193.3</ele>
        <time>2024-05-11T16:34:16.000Z</time>
      </trkpt>
      <trkpt lat="44.9023" lon="5.56649">
        <ele>1192</ele>
        <time>2024-05-11T16:34:21.000Z</time>
      </trkpt>
      <trkpt lat="44.90232" lon="5.56644">
        <ele>1190.6</ele>
        <time>2024-05-11T16:34:26.000Z</time>
      </trkpt>
      <trkpt lat="44.90229" lon="5.56633">
        <ele>1189.5</ele>
        <time>2024-05-11T16:34:35.000Z</time>
      </trkpt>
      <trkpt lat="44.90229" lon="5.5663">
        <ele>1189.1</ele>
        <time>2024-05-11T16:34:37.000Z</time>
      </trkpt>
      <trkpt lat="44.90227" lon="5.56626">
        <ele>1188.7</ele>
        <time>2024-05-11T16:34:42.000Z</time>
      </trkpt>
      <trkpt lat="44.90221" lon="5.56618">
        <ele>1188.8</ele>
        <time>2024-05-11T16:34:50.000Z</time>
      </trkpt>
      <trkpt lat="44.9022" lon="5.56616">
        <ele>1188.7</ele>
        <time>2024-05-11T16:34:52.000Z</time>
      </trkpt>
      <trkpt lat="44.90214" lon="5.56612">
        <ele>1189.1</ele>
        <time>2024-05-11T16:34:59.000Z</time>
      </trkpt>
      <trkpt lat="44.90211" lon="5.56609">
        <ele>1189.4</ele>
        <time>2024-05-11T16:35:05.000Z</time>
      </trkpt>
      <trkpt lat="44.90209" lon="5.56608">
        <ele>1189.7</ele>
        <time>2024-05-11T16:35:07.000Z</time>
      </trkpt>
      <trkpt lat="44.90203" lon="5.56603">
        <ele>1190.2</ele>
        <time>2024-05-11T16:35:14.000Z</time>
      </trkpt>
      <trkpt lat="44.90199" lon="5.56599">
        <ele>1190.5</ele>
        <time>2024-05-11T16:35:19.000Z</time>
      </trkpt>
      <trkpt lat="44.90196" lon="5.56596">
        <ele>1190.8</ele>
        <time>2024-05-11T16:35:22.000Z</time>
      </trkpt>
      <trkpt lat="44.90191" lon="5.56591">
        <ele>1191.1</ele>
        <time>2024-05-11T16:35:28.000Z</time>
      </trkpt>
      <trkpt lat="44.9019" lon="5.56591">
        <ele>1191.2</ele>
        <time>2024-05-11T16:35:29.000Z</time>
      </trkpt>
      <trkpt lat="44.90187" lon="5.56589">
        <ele>1191.6</ele>
        <time>2024-05-11T16:35:33.000Z</time>
      </trkpt>
      <trkpt lat="44.90185" lon="5.56589">
        <ele>1191.9</ele>
        <time>2024-05-11T16:35:35.000Z</time>
      </trkpt>
      <trkpt lat="44.90178" lon="5.56584">
        <ele>1192.7</ele>
        <time>2024-05-11T16:35:44.000Z</time>
      </trkpt>
      <trkpt lat="44.90175" lon="5.56582">
        <ele>1192.9</ele>
        <time>2024-05-11T16:35:48.000Z</time>
      </trkpt>
      <trkpt lat="44.90171" lon="5.56578">
        <ele>1193.2</ele>
        <time>2024-05-11T16:35:52.000Z</time>
      </trkpt>
      <trkpt lat="44.90169" lon="5.56573">
        <ele>1193.1</ele>
        <time>2024-05-11T16:35:58.000Z</time>
      </trkpt>
      <trkpt lat="44.90164" lon="5.56567">
        <ele>1193.2</ele>
        <time>2024-05-11T16:36:04.000Z</time>
      </trkpt>
      <trkpt lat="44.90162" lon="5.56558">
        <ele>1192.2</ele>
        <time>2024-05-11T16:36:10.000Z</time>
      </trkpt>
      <trkpt lat="44.90159" lon="5.56551">
        <ele>1191.2</ele>
        <time>2024-05-11T16:36:14.000Z</time>
      </trkpt>
      <trkpt lat="44.90158" lon="5.56548">
        <ele>1190.9</ele>
        <time>2024-05-11T16:36:15.000Z</time>
      </trkpt>
      <trkpt lat="44.90159" lon="5.56541">
        <ele>1189.2</ele>
        <time>2024-05-11T16:36:19.000Z</time>
      </trkpt>
      <trkpt lat="44.90159" lon="5.56534">
        <ele>1187.6</ele>
        <time>2024-05-11T16:36:25.000Z</time>
      </trkpt>
      <trkpt lat="44.9016" lon="5.56526">
        <ele>1185.9</ele>
        <time>2024-05-11T16:36:31.000Z</time>
      </trkpt>
      <trkpt lat="44.90162" lon="5.56522">
        <ele>1185.1</ele>
        <time>2024-05-11T16:36:37.000Z</time>
      </trkpt>
      <trkpt lat="44.90166" lon="5.56518">
        <ele>1183.9</ele>
        <time>2024-05-11T16:36:42.000Z</time>
      </trkpt>
      <trkpt lat="44.90165" lon="5.56516">
        <ele>1183.9</ele>
        <time>2024-05-11T16:36:43.000Z</time>
      </trkpt>
      <trkpt lat="44.90165" lon="5.56508">
        <ele>1183.6</ele>
        <time>2024-05-11T16:36:48.000Z</time>
      </trkpt>
      <trkpt lat="44.90165" lon="5.56498">
        <ele>1183.3</ele>
        <time>2024-05-11T16:36:53.000Z</time>
      </trkpt>
      <trkpt lat="44.90165" lon="5.56497">
        <ele>1183.4</ele>
        <time>2024-05-11T16:36:54.000Z</time>
      </trkpt>
      <trkpt lat="44.90164" lon="5.56486">
        <ele>1184.6</ele>
        <time>2024-05-11T16:37:01.000Z</time>
      </trkpt>
      <trkpt lat="44.90168" lon="5.56485">
        <ele>1184.8</ele>
        <time>2024-05-11T16:37:07.000Z</time>
      </trkpt>
      <trkpt lat="44.9017" lon="5.56479">
        <ele>1185.9</ele>
        <time>2024-05-11T16:37:13.000Z</time>
      </trkpt>
      <trkpt lat="44.90171" lon="5.56471">
        <ele>1186.8</ele>
        <time>2024-05-11T16:37:19.000Z</time>
      </trkpt>
      <trkpt lat="44.9017" lon="5.56469">
        <ele>1186.9</ele>
        <time>2024-05-11T16:37:20.000Z</time>
      </trkpt>
      <trkpt lat="44.9017" lon="5.56463">
        <ele>1187.3</ele>
        <time>2024-05-11T16:37:23.000Z</time>
      </trkpt>
      <trkpt lat="44.90172" lon="5.56462">
        <ele>1187.7</ele>
        <time>2024-05-11T16:37:26.000Z</time>
      </trkpt>
      <trkpt lat="44.90173" lon="5.56463">
        <ele>1187.8</ele>
        <time>2024-05-11T16:37:27.000Z</time>
      </trkpt>
      <trkpt lat="44.90172" lon="5.5646">
        <ele>1187.8</ele>
        <time>2024-05-11T16:37:28.000Z</time>
      </trkpt>
      <trkpt lat="44.9017" lon="5.56457">
        <ele>1187.7</ele>
        <time>2024-05-11T16:37:31.000Z</time>
      </trkpt>
      <trkpt lat="44.9017" lon="5.56445">
        <ele>1188.5</ele>
        <time>2024-05-11T16:37:39.000Z</time>
      </trkpt>
      <trkpt lat="44.90166" lon="5.5644">
        <ele>1188.1</ele>
        <time>2024-05-11T16:37:44.000Z</time>
      </trkpt>
      <trkpt lat="44.90166" lon="5.56438">
        <ele>1188.2</ele>
        <time>2024-05-11T16:37:52.000Z</time>
      </trkpt>
      <trkpt lat="44.90163" lon="5.5643">
        <ele>1188.5</ele>
        <time>2024-05-11T16:37:58.000Z</time>
      </trkpt>
      <trkpt lat="44.90163" lon="5.56428">
        <ele>1188.5</ele>
        <time>2024-05-11T16:37:59.000Z</time>
      </trkpt>
      <trkpt lat="44.90162" lon="5.56427">
        <ele>1188.6</ele>
        <time>2024-05-11T16:38:00.000Z</time>
      </trkpt>
      <trkpt lat="44.90162" lon="5.56421">
        <ele>1188.8</ele>
        <time>2024-05-11T16:38:06.000Z</time>
      </trkpt>
      <trkpt lat="44.90164" lon="5.56415">
        <ele>1189.1</ele>
        <time>2024-05-11T16:38:11.000Z</time>
      </trkpt>
      <trkpt lat="44.90162" lon="5.56408">
        <ele>1189.5</ele>
        <time>2024-05-11T16:38:16.000Z</time>
      </trkpt>
      <trkpt lat="44.90162" lon="5.56407">
        <ele>1189.6</ele>
        <time>2024-05-11T16:38:17.000Z</time>
      </trkpt>
      <trkpt lat="44.90166" lon="5.56403">
        <ele>1190</ele>
        <time>2024-05-11T16:38:23.000Z</time>
      </trkpt>
      <trkpt lat="44.90167" lon="5.56397">
        <ele>1190.4</ele>
        <time>2024-05-11T16:38:28.000Z</time>
      </trkpt>
      <trkpt lat="44.90166" lon="5.5639">
        <ele>1190.8</ele>
        <time>2024-05-11T16:38:34.000Z</time>
      </trkpt>
      <trkpt lat="44.90162" lon="5.56384">
        <ele>1191</ele>
        <time>2024-05-11T16:38:39.000Z</time>
      </trkpt>
      <trkpt lat="44.90161" lon="5.56382">
        <ele>1191</ele>
        <time>2024-05-11T16:38:40.000Z</time>
      </trkpt>
      <trkpt lat="44.90156" lon="5.56374">
        <ele>1191.1</ele>
        <time>2024-05-11T16:38:45.000Z</time>
      </trkpt>
      <trkpt lat="44.90156" lon="5.56373">
        <ele>1191.2</ele>
        <time>2024-05-11T16:38:47.000Z</time>
      </trkpt>
      <trkpt lat="44.90157" lon="5.56372">
        <ele>1191.3</ele>
        <time>2024-05-11T16:38:48.000Z</time>
      </trkpt>
      <trkpt lat="44.90158" lon="5.56376">
        <ele>1191.2</ele>
        <time>2024-05-11T16:38:51.000Z</time>
      </trkpt>
      <trkpt lat="44.90159" lon="5.56377">
        <ele>1191.2</ele>
        <time>2024-05-11T16:38:52.000Z</time>
      </trkpt>
      <trkpt lat="44.9016" lon="5.56372">
        <ele>1191.6</ele>
        <time>2024-05-11T16:38:58.000Z</time>
      </trkpt>
      <trkpt lat="44.90158" lon="5.56362">
        <ele>1192</ele>
        <time>2024-05-11T16:39:05.000Z</time>
      </trkpt>
      <trkpt lat="44.90156" lon="5.56354">
        <ele>1192.2</ele>
        <time>2024-05-11T16:39:12.000Z</time>
      </trkpt>
      <trkpt lat="44.90156" lon="5.56352">
        <ele>1192.2</ele>
        <time>2024-05-11T16:39:13.000Z</time>
      </trkpt>
      <trkpt lat="44.90157" lon="5.56347">
        <ele>1192.4</ele>
        <time>2024-05-11T16:39:18.000Z</time>
      </trkpt>
      <trkpt lat="44.90155" lon="5.56338">
        <ele>1192.5</ele>
        <time>2024-05-11T16:39:25.000Z</time>
      </trkpt>
      <trkpt lat="44.90153" lon="5.5633">
        <ele>1192.8</ele>
        <time>2024-05-11T16:39:32.000Z</time>
      </trkpt>
      <trkpt lat="44.90153" lon="5.56324">
        <ele>1193.2</ele>
        <time>2024-05-11T16:39:37.000Z</time>
      </trkpt>
      <trkpt lat="44.90154" lon="5.56317">
        <ele>1193.7</ele>
        <time>2024-05-11T16:39:42.000Z</time>
      </trkpt>
      <trkpt lat="44.90152" lon="5.56313">
        <ele>1193.9</ele>
        <time>2024-05-11T16:39:44.000Z</time>
      </trkpt>
      <trkpt lat="44.90156" lon="5.56305">
        <ele>1194.8</ele>
        <time>2024-05-11T16:39:50.000Z</time>
      </trkpt>
      <trkpt lat="44.90155" lon="5.56295">
        <ele>1194.9</ele>
        <time>2024-05-11T16:39:57.000Z</time>
      </trkpt>
      <trkpt lat="44.90155" lon="5.56289">
        <ele>1195</ele>
        <time>2024-05-11T16:40:03.000Z</time>
      </trkpt>
      <trkpt lat="44.90154" lon="5.5628">
        <ele>1195.1</ele>
        <time>2024-05-11T16:40:08.000Z</time>
      </trkpt>
      <trkpt lat="44.90152" lon="5.5627">
        <ele>1195.1</ele>
        <time>2024-05-11T16:40:14.000Z</time>
      </trkpt>
      <trkpt lat="44.90154" lon="5.56264">
        <ele>1195.4</ele>
        <time>2024-05-11T16:40:18.000Z</time>
      </trkpt>
      <trkpt lat="44.90152" lon="5.56257">
        <ele>1195.3</ele>
        <time>2024-05-11T16:40:20.000Z</time>
      </trkpt>
      <trkpt lat="44.90153" lon="5.56253">
        <ele>1195.4</ele>
        <time>2024-05-11T16:40:25.000Z</time>
      </trkpt>
      <trkpt lat="44.90151" lon="5.56251">
        <ele>1195.3</ele>
        <time>2024-05-11T16:40:26.000Z</time>
      </trkpt>
      <trkpt lat="44.9015" lon="5.56244">
        <ele>1195.3</ele>
        <time>2024-05-11T16:40:31.000Z</time>
      </trkpt>
      <trkpt lat="44.90151" lon="5.5624">
        <ele>1195.5</ele>
        <time>2024-05-11T16:40:35.000Z</time>
      </trkpt>
      <trkpt lat="44.90152" lon="5.5623">
        <ele>1195.7</ele>
        <time>2024-05-11T16:40:42.000Z</time>
      </trkpt>
      <trkpt lat="44.90152" lon="5.56224">
        <ele>1195.9</ele>
        <time>2024-05-11T16:40:50.000Z</time>
      </trkpt>
      <trkpt lat="44.90152" lon="5.56217">
        <ele>1196</ele>
        <time>2024-05-11T16:40:56.000Z</time>
      </trkpt>
      <trkpt lat="44.90152" lon="5.56216">
        <ele>1196</ele>
        <time>2024-05-11T16:40:58.000Z</time>
      </trkpt>
      <trkpt lat="44.90152" lon="5.56207">
        <ele>1196.1</ele>
        <time>2024-05-11T16:41:05.000Z</time>
      </trkpt>
      <trkpt lat="44.90153" lon="5.56202">
        <ele>1196.3</ele>
        <time>2024-05-11T16:41:10.000Z</time>
      </trkpt>
      <trkpt lat="44.90151" lon="5.56194">
        <ele>1196.3</ele>
        <time>2024-05-11T16:41:16.000Z</time>
      </trkpt>
      <trkpt lat="44.9015" lon="5.56186">
        <ele>1196.3</ele>
        <time>2024-05-11T16:41:23.000Z</time>
      </trkpt>
      <trkpt lat="44.9015" lon="5.56175">
        <ele>1196.5</ele>
        <time>2024-05-11T16:41:31.000Z</time>
      </trkpt>
      <trkpt lat="44.90149" lon="5.56168">
        <ele>1196.4</ele>
        <time>2024-05-11T16:41:38.000Z</time>
      </trkpt>
      <trkpt lat="44.90148" lon="5.56161">
        <ele>1196.5</ele>
        <time>2024-05-11T16:41:44.000Z</time>
      </trkpt>
      <trkpt lat="44.90147" lon="5.56157">
        <ele>1196.6</ele>
        <time>2024-05-11T16:41:48.000Z</time>
      </trkpt>
      <trkpt lat="44.90146" lon="5.56154">
        <ele>1196.5</ele>
        <time>2024-05-11T16:41:50.000Z</time>
      </trkpt>
      <trkpt lat="44.90144" lon="5.56149">
        <ele>1196.4</ele>
        <time>2024-05-11T16:41:54.000Z</time>
      </trkpt>
      <trkpt lat="44.90143" lon="5.5614">
        <ele>1196.6</ele>
        <time>2024-05-11T16:42:01.000Z</time>
      </trkpt>
      <trkpt lat="44.90142" lon="5.56132">
        <ele>1196.7</ele>
        <time>2024-05-11T16:42:09.000Z</time>
      </trkpt>
      <trkpt lat="44.90142" lon="5.56129">
        <ele>1196.9</ele>
        <time>2024-05-11T16:42:15.000Z</time>
      </trkpt>
      <trkpt lat="44.90141" lon="5.56125">
        <ele>1196.8</ele>
        <time>2024-05-11T16:42:18.000Z</time>
      </trkpt>
      <trkpt lat="44.9014" lon="5.56123">
        <ele>1196.7</ele>
        <time>2024-05-11T16:42:20.000Z</time>
      </trkpt>
      <trkpt lat="44.90138" lon="5.56118">
        <ele>1196.8</ele>
        <time>2024-05-11T16:42:24.000Z</time>
      </trkpt>
      <trkpt lat="44.90134" lon="5.56105">
        <ele>1197.5</ele>
        <time>2024-05-11T16:42:34.000Z</time>
      </trkpt>
      <trkpt lat="44.90132" lon="5.56095">
        <ele>1197.9</ele>
        <time>2024-05-11T16:42:42.000Z</time>
      </trkpt>
      <trkpt lat="44.90128" lon="5.56087">
        <ele>1198.3</ele>
        <time>2024-05-11T16:42:49.000Z</time>
      </trkpt>
      <trkpt lat="44.90128" lon="5.56085">
        <ele>1198.4</ele>
        <time>2024-05-11T16:42:51.000Z</time>
      </trkpt>
      <trkpt lat="44.90128" lon="5.56081">
        <ele>1198.4</ele>
        <time>2024-05-11T16:42:55.000Z</time>
      </trkpt>
      <trkpt lat="44.90124" lon="5.56072">
        <ele>1198.5</ele>
        <time>2024-05-11T16:43:03.000Z</time>
      </trkpt>
      <trkpt lat="44.90121" lon="5.56066">
        <ele>1198.5</ele>
        <time>2024-05-11T16:43:09.000Z</time>
      </trkpt>
      <trkpt lat="44.90119" lon="5.56057">
        <ele>1198.3</ele>
        <time>2024-05-11T16:43:16.000Z</time>
      </trkpt>
      <trkpt lat="44.90117" lon="5.5605">
        <ele>1198.4</ele>
        <time>2024-05-11T16:43:22.000Z</time>
      </trkpt>
      <trkpt lat="44.90115" lon="5.56046">
        <ele>1198.5</ele>
        <time>2024-05-11T16:43:25.000Z</time>
      </trkpt>
      <trkpt lat="44.90113" lon="5.56038">
        <ele>1198.7</ele>
        <time>2024-05-11T16:43:32.000Z</time>
      </trkpt>
      <trkpt lat="44.90111" lon="5.56028">
        <ele>1199</ele>
        <time>2024-05-11T16:43:40.000Z</time>
      </trkpt>
      <trkpt lat="44.90109" lon="5.5602">
        <ele>1199.1</ele>
        <time>2024-05-11T16:43:48.000Z</time>
      </trkpt>
      <trkpt lat="44.90107" lon="5.56014">
        <ele>1199.2</ele>
        <time>2024-05-11T16:43:54.000Z</time>
      </trkpt>
      <trkpt lat="44.90106" lon="5.56012">
        <ele>1199.2</ele>
        <time>2024-05-11T16:43:55.000Z</time>
      </trkpt>
      <trkpt lat="44.90105" lon="5.56008">
        <ele>1199.2</ele>
        <time>2024-05-11T16:44:00.000Z</time>
      </trkpt>
      <trkpt lat="44.90104" lon="5.56001">
        <ele>1199.2</ele>
        <time>2024-05-11T16:44:06.000Z</time>
      </trkpt>
      <trkpt lat="44.90103" lon="5.55996">
        <ele>1199.4</ele>
        <time>2024-05-11T16:44:11.000Z</time>
      </trkpt>
      <trkpt lat="44.90102" lon="5.55992">
        <ele>1199.5</ele>
        <time>2024-05-11T16:44:16.000Z</time>
      </trkpt>
      <trkpt lat="44.90101" lon="5.55985">
        <ele>1199.7</ele>
        <time>2024-05-11T16:44:23.000Z</time>
      </trkpt>
      <trkpt lat="44.90101" lon="5.55983">
        <ele>1199.8</ele>
        <time>2024-05-11T16:44:25.000Z</time>
      </trkpt>
      <trkpt lat="44.90099" lon="5.55979">
        <ele>1199.9</ele>
        <time>2024-05-11T16:44:27.000Z</time>
      </trkpt>
      <trkpt lat="44.90099" lon="5.55978">
        <ele>1199.9</ele>
        <time>2024-05-11T16:44:29.000Z</time>
      </trkpt>
      <trkpt lat="44.90096" lon="5.55976">
        <ele>1199.9</ele>
        <time>2024-05-11T16:44:32.000Z</time>
      </trkpt>
      <trkpt lat="44.90096" lon="5.55974">
        <ele>1200</ele>
        <time>2024-05-11T16:44:38.000Z</time>
      </trkpt>
      <trkpt lat="44.90094" lon="5.55969">
        <ele>1200.1</ele>
        <time>2024-05-11T16:44:44.000Z</time>
      </trkpt>
      <trkpt lat="44.9009" lon="5.5596">
        <ele>1200.4</ele>
        <time>2024-05-11T16:44:51.000Z</time>
      </trkpt>
      <trkpt lat="44.90089" lon="5.55959">
        <ele>1200.5</ele>
        <time>2024-05-11T16:44:52.000Z</time>
      </trkpt>
      <trkpt lat="44.90088" lon="5.55953">
        <ele>1200.7</ele>
        <time>2024-05-11T16:44:58.000Z</time>
      </trkpt>
      <trkpt lat="44.9009" lon="5.55953">
        <ele>1200.7</ele>
        <time>2024-05-11T16:45:00.000Z</time>
      </trkpt>
      <trkpt lat="44.90092" lon="5.55953">
        <ele>1200.7</ele>
        <time>2024-05-11T16:45:03.000Z</time>
      </trkpt>
      <trkpt lat="44.90092" lon="5.55952">
        <ele>1200.7</ele>
        <time>2024-05-11T16:45:04.000Z</time>
      </trkpt>
      <trkpt lat="44.90091" lon="5.55942">
        <ele>1201</ele>
        <time>2024-05-11T16:45:11.000Z</time>
      </trkpt>
      <trkpt lat="44.9009" lon="5.55939">
        <ele>1201</ele>
        <time>2024-05-11T16:45:13.000Z</time>
      </trkpt>
      <trkpt lat="44.90089" lon="5.55935">
        <ele>1201.1</ele>
        <time>2024-05-11T16:45:17.000Z</time>
      </trkpt>
      <trkpt lat="44.90089" lon="5.55934">
        <ele>1201.1</ele>
        <time>2024-05-11T16:45:18.000Z</time>
      </trkpt>
      <trkpt lat="44.90085" lon="5.55927">
        <ele>1201</ele>
        <time>2024-05-11T16:45:24.000Z</time>
      </trkpt>
      <trkpt lat="44.9008" lon="5.55916">
        <ele>1201</ele>
        <time>2024-05-11T16:45:32.000Z</time>
      </trkpt>
      <trkpt lat="44.90077" lon="5.55907">
        <ele>1201.3</ele>
        <time>2024-05-11T16:45:37.000Z</time>
      </trkpt>
      <trkpt lat="44.90076" lon="5.55905">
        <ele>1201.4</ele>
        <time>2024-05-11T16:45:39.000Z</time>
      </trkpt>
      <trkpt lat="44.90077" lon="5.55902">
        <ele>1201.5</ele>
        <time>2024-05-11T16:45:45.000Z</time>
      </trkpt>
      <trkpt lat="44.90074" lon="5.55898">
        <ele>1201.7</ele>
        <time>2024-05-11T16:45:48.000Z</time>
      </trkpt>
      <trkpt lat="44.90072" lon="5.55895">
        <ele>1201.8</ele>
        <time>2024-05-11T16:45:50.000Z</time>
      </trkpt>
      <trkpt lat="44.90072" lon="5.55894">
        <ele>1201.8</ele>
        <time>2024-05-11T16:45:51.000Z</time>
      </trkpt>
      <trkpt lat="44.9007" lon="5.55887">
        <ele>1202.1</ele>
        <time>2024-05-11T16:45:56.000Z</time>
      </trkpt>
      <trkpt lat="44.9007" lon="5.55885">
        <ele>1202.1</ele>
        <time>2024-05-11T16:45:58.000Z</time>
      </trkpt>
      <trkpt lat="44.90068" lon="5.55875">
        <ele>1202.5</ele>
        <time>2024-05-11T16:46:06.000Z</time>
      </trkpt>
      <trkpt lat="44.90066" lon="5.55866">
        <ele>1202.8</ele>
        <time>2024-05-11T16:46:14.000Z</time>
      </trkpt>
      <trkpt lat="44.90065" lon="5.55864">
        <ele>1202.9</ele>
        <time>2024-05-11T16:46:16.000Z</time>
      </trkpt>
      <trkpt lat="44.90064" lon="5.5586">
        <ele>1203.1</ele>
        <time>2024-05-11T16:46:21.000Z</time>
      </trkpt>
      <trkpt lat="44.90063" lon="5.55853">
        <ele>1203.4</ele>
        <time>2024-05-11T16:46:27.000Z</time>
      </trkpt>
      <trkpt lat="44.90063" lon="5.55848">
        <ele>1203.6</ele>
        <time>2024-05-11T16:46:33.000Z</time>
      </trkpt>
      <trkpt lat="44.90061" lon="5.55838">
        <ele>1204</ele>
        <time>2024-05-11T16:46:41.000Z</time>
      </trkpt>
      <trkpt lat="44.9006" lon="5.55835">
        <ele>1204.1</ele>
        <time>2024-05-11T16:46:44.000Z</time>
      </trkpt>
      <trkpt lat="44.9006" lon="5.55831">
        <ele>1204.2</ele>
        <time>2024-05-11T16:46:47.000Z</time>
      </trkpt>
      <trkpt lat="44.90058" lon="5.55826">
        <ele>1204.4</ele>
        <time>2024-05-11T16:46:51.000Z</time>
      </trkpt>
      <trkpt lat="44.90055" lon="5.55814">
        <ele>1204.7</ele>
        <time>2024-05-11T16:47:00.000Z</time>
      </trkpt>
      <trkpt lat="44.90054" lon="5.55806">
        <ele>1205.1</ele>
        <time>2024-05-11T16:47:08.000Z</time>
      </trkpt>
      <trkpt lat="44.90053" lon="5.55803">
        <ele>1205.2</ele>
        <time>2024-05-11T16:47:10.000Z</time>
      </trkpt>
      <trkpt lat="44.90051" lon="5.55796">
        <ele>1205.5</ele>
        <time>2024-05-11T16:47:16.000Z</time>
      </trkpt>
      <trkpt lat="44.90052" lon="5.5579">
        <ele>1205.6</ele>
        <time>2024-05-11T16:47:22.000Z</time>
      </trkpt>
      <trkpt lat="44.90051" lon="5.55785">
        <ele>1205.8</ele>
        <time>2024-05-11T16:47:27.000Z</time>
      </trkpt>
      <trkpt lat="44.90047" lon="5.55773">
        <ele>1206.3</ele>
        <time>2024-05-11T16:47:35.000Z</time>
      </trkpt>
      <trkpt lat="44.90046" lon="5.55768">
        <ele>1206.6</ele>
        <time>2024-05-11T16:47:38.000Z</time>
      </trkpt>
      <trkpt lat="44.90044" lon="5.55761">
        <ele>1206.9</ele>
        <time>2024-05-11T16:47:43.000Z</time>
      </trkpt>
      <trkpt lat="44.90044" lon="5.55754">
        <ele>1207.4</ele>
        <time>2024-05-11T16:47:50.000Z</time>
      </trkpt>
      <trkpt lat="44.9004" lon="5.55747">
        <ele>1207.6</ele>
        <time>2024-05-11T16:47:55.000Z</time>
      </trkpt>
      <trkpt lat="44.90039" lon="5.55745">
        <ele>1207.8</ele>
        <time>2024-05-11T16:47:56.000Z</time>
      </trkpt>
      <trkpt lat="44.90036" lon="5.5573">
        <ele>1208.7</ele>
        <time>2024-05-11T16:48:05.000Z</time>
      </trkpt>
      <trkpt lat="44.90035" lon="5.55723">
        <ele>1209.2</ele>
        <time>2024-05-11T16:48:11.000Z</time>
      </trkpt>
      <trkpt lat="44.90035" lon="5.55721">
        <ele>1209.4</ele>
        <time>2024-05-11T16:48:14.000Z</time>
      </trkpt>
      <trkpt lat="44.90034" lon="5.55717">
        <ele>1209.6</ele>
        <time>2024-05-11T16:48:19.000Z</time>
      </trkpt>
      <trkpt lat="44.90032" lon="5.5571">
        <ele>1210.1</ele>
        <time>2024-05-11T16:48:26.000Z</time>
      </trkpt>
      <trkpt lat="44.90031" lon="5.55708">
        <ele>1210.2</ele>
        <time>2024-05-11T16:48:28.000Z</time>
      </trkpt>
      <trkpt lat="44.90028" lon="5.55701">
        <ele>1210.6</ele>
        <time>2024-05-11T16:48:35.000Z</time>
      </trkpt>
      <trkpt lat="44.90028" lon="5.55696">
        <ele>1210.9</ele>
        <time>2024-05-11T16:48:41.000Z</time>
      </trkpt>
      <trkpt lat="44.90027" lon="5.55693">
        <ele>1211.1</ele>
        <time>2024-05-11T16:48:44.000Z</time>
      </trkpt>
      <trkpt lat="44.90022" lon="5.55687">
        <ele>1211.3</ele>
        <time>2024-05-11T16:48:49.000Z</time>
      </trkpt>
      <trkpt lat="44.90022" lon="5.55684">
        <ele>1211.5</ele>
        <time>2024-05-11T16:48:57.000Z</time>
      </trkpt>
      <trkpt lat="44.90022" lon="5.55679">
        <ele>1211.9</ele>
        <time>2024-05-11T16:49:03.000Z</time>
      </trkpt>
      <trkpt lat="44.9002" lon="5.55671">
        <ele>1212.4</ele>
        <time>2024-05-11T16:49:09.000Z</time>
      </trkpt>
      <trkpt lat="44.9002" lon="5.55671">
        <ele>1212.4</ele>
        <time>2024-05-11T16:49:10.000Z</time>
      </trkpt>
      <trkpt lat="44.90017" lon="5.55667">
        <ele>1212.6</ele>
        <time>2024-05-11T16:49:16.000Z</time>
      </trkpt>
      <trkpt lat="44.90016" lon="5.55662">
        <ele>1213.1</ele>
        <time>2024-05-11T16:49:22.000Z</time>
      </trkpt>
      <trkpt lat="44.90015" lon="5.5566">
        <ele>1213.4</ele>
        <time>2024-05-11T16:49:25.000Z</time>
      </trkpt>
      <trkpt lat="44.90014" lon="5.55658">
        <ele>1213.6</ele>
        <time>2024-05-11T16:49:27.000Z</time>
      </trkpt>
      <trkpt lat="44.90011" lon="5.55653">
        <ele>1214</ele>
        <time>2024-05-11T16:49:32.000Z</time>
      </trkpt>
      <trkpt lat="44.90012" lon="5.55649">
        <ele>1214.5</ele>
        <time>2024-05-11T16:49:40.000Z</time>
      </trkpt>
      <trkpt lat="44.90011" lon="5.55643">
        <ele>1215.3</ele>
        <time>2024-05-11T16:49:46.000Z</time>
      </trkpt>
      <trkpt lat="44.90007" lon="5.55639">
        <ele>1215.5</ele>
        <time>2024-05-11T16:49:53.000Z</time>
      </trkpt>
      <trkpt lat="44.90006" lon="5.55639">
        <ele>1215.4</ele>
        <time>2024-05-11T16:49:56.000Z</time>
      </trkpt>
      <trkpt lat="44.90006" lon="5.55633">
        <ele>1216</ele>
        <time>2024-05-11T16:49:59.000Z</time>
      </trkpt>
      <trkpt lat="44.90006" lon="5.55633">
        <ele>1216.1</ele>
        <time>2024-05-11T16:50:00.000Z</time>
      </trkpt>
      <trkpt lat="44.90007" lon="5.55632">
        <ele>1216.3</ele>
        <time>2024-05-11T16:50:03.000Z</time>
      </trkpt>
      <trkpt lat="44.9001" lon="5.55634">
        <ele>1216.3</ele>
        <time>2024-05-11T16:50:06.000Z</time>
      </trkpt>
      <trkpt lat="44.9001" lon="5.55635">
        <ele>1216.2</ele>
        <time>2024-05-11T16:50:07.000Z</time>
      </trkpt>
      <trkpt lat="44.90011" lon="5.55634">
        <ele>1216.4</ele>
        <time>2024-05-11T16:50:09.000Z</time>
      </trkpt>
      <trkpt lat="44.90007" lon="5.55628">
        <ele>1216.7</ele>
        <time>2024-05-11T16:50:13.000Z</time>
      </trkpt>
      <trkpt lat="44.90004" lon="5.55623">
        <ele>1217</ele>
        <time>2024-05-11T16:50:18.000Z</time>
      </trkpt>
      <trkpt lat="44.9" lon="5.5562">
        <ele>1217</ele>
        <time>2024-05-11T16:50:21.000Z</time>
      </trkpt>
      <trkpt lat="44.90001" lon="5.5562">
        <ele>1217.1</ele>
        <time>2024-05-11T16:50:22.000Z</time>
      </trkpt>
      <trkpt lat="44.90002" lon="5.55619">
        <ele>1217.3</ele>
        <time>2024-05-11T16:50:23.000Z</time>
      </trkpt>
      <trkpt lat="44.90001" lon="5.55615">
        <ele>1217.7</ele>
        <time>2024-05-11T16:50:27.000Z</time>
      </trkpt>
      <trkpt lat="44.89995" lon="5.55608">
        <ele>1217.8</ele>
        <time>2024-05-11T16:50:32.000Z</time>
      </trkpt>
      <trkpt lat="44.89995" lon="5.55605">
        <ele>1218.1</ele>
        <time>2024-05-11T16:50:33.000Z</time>
      </trkpt>
      <trkpt lat="44.89996" lon="5.55604">
        <ele>1218.3</ele>
        <time>2024-05-11T16:50:34.000Z</time>
      </trkpt>
      <trkpt lat="44.89999" lon="5.55605">
        <ele>1218.5</ele>
        <time>2024-05-11T16:50:37.000Z</time>
      </trkpt>
      <trkpt lat="44.90003" lon="5.55609">
        <ele>1218.5</ele>
        <time>2024-05-11T16:50:43.000Z</time>
      </trkpt>
      <trkpt lat="44.90006" lon="5.55609">
        <ele>1218.9</ele>
        <time>2024-05-11T16:50:49.000Z</time>
      </trkpt>
      <trkpt lat="44.90009" lon="5.5561">
        <ele>1219.1</ele>
        <time>2024-05-11T16:50:54.000Z</time>
      </trkpt>
      <trkpt lat="44.90013" lon="5.55611">
        <ele>1219.5</ele>
        <time>2024-05-11T16:50:59.000Z</time>
      </trkpt>
      <trkpt lat="44.90013" lon="5.55611">
        <ele>1219.5</ele>
        <time>2024-05-11T16:51:00.000Z</time>
      </trkpt>
      <trkpt lat="44.90018" lon="5.55611">
        <ele>1220</ele>
        <time>2024-05-11T16:51:06.000Z</time>
      </trkpt>
      <trkpt lat="44.90016" lon="5.55606">
        <ele>1220.4</ele>
        <time>2024-05-11T16:51:10.000Z</time>
      </trkpt>
      <trkpt lat="44.90018" lon="5.55607">
        <ele>1220.6</ele>
        <time>2024-05-11T16:51:13.000Z</time>
      </trkpt>
      <trkpt lat="44.90021" lon="5.55606">
        <ele>1220.9</ele>
        <time>2024-05-11T16:51:17.000Z</time>
      </trkpt>
      <trkpt lat="44.90022" lon="5.55605">
        <ele>1221.3</ele>
        <time>2024-05-11T16:51:21.000Z</time>
      </trkpt>
      <trkpt lat="44.90023" lon="5.55605">
        <ele>1221.3</ele>
        <time>2024-05-11T16:51:23.000Z</time>
      </trkpt>
      <trkpt lat="44.90028" lon="5.55606">
        <ele>1221.8</ele>
        <time>2024-05-11T16:51:32.000Z</time>
      </trkpt>
      <trkpt lat="44.90031" lon="5.55606">
        <ele>1222</ele>
        <time>2024-05-11T16:51:37.000Z</time>
      </trkpt>
      <trkpt lat="44.90033" lon="5.55607">
        <ele>1222.3</ele>
        <time>2024-05-11T16:51:42.000Z</time>
      </trkpt>
      <trkpt lat="44.90034" lon="5.55607">
        <ele>1222.3</ele>
        <time>2024-05-11T16:51:43.000Z</time>
      </trkpt>
      <trkpt lat="44.90041" lon="5.5561">
        <ele>1222.6</ele>
        <time>2024-05-11T16:51:49.000Z</time>
      </trkpt>
      <trkpt lat="44.90041" lon="5.55611">
        <ele>1222.4</ele>
        <time>2024-05-11T16:51:55.000Z</time>
      </trkpt>
      <trkpt lat="44.90041" lon="5.55612">
        <ele>1222.3</ele>
        <time>2024-05-11T16:51:56.000Z</time>
      </trkpt>
      <trkpt lat="44.90041" lon="5.55611">
        <ele>1222.4</ele>
        <time>2024-05-11T16:52:03.000Z</time>
      </trkpt>
      <trkpt lat="44.90041" lon="5.55611">
        <ele>1222.4</ele>
        <time>2024-05-11T16:52:07.000Z</time>
      </trkpt>
      <trkpt lat="44.90045" lon="5.55611">
        <ele>1222.9</ele>
        <time>2024-05-11T16:52:11.000Z</time>
      </trkpt>
      <trkpt lat="44.9005" lon="5.55613">
        <ele>1223.1</ele>
        <time>2024-05-11T16:52:16.000Z</time>
      </trkpt>
      <trkpt lat="44.90054" lon="5.55613">
        <ele>1223.4</ele>
        <time>2024-05-11T16:52:22.000Z</time>
      </trkpt>
      <trkpt lat="44.90056" lon="5.55611">
        <ele>1224</ele>
        <time>2024-05-11T16:52:26.000Z</time>
      </trkpt>
      <trkpt lat="44.9006" lon="5.55613">
        <ele>1224.3</ele>
        <time>2024-05-11T16:52:31.000Z</time>
      </trkpt>
      <trkpt lat="44.90063" lon="5.55614">
        <ele>1224.7</ele>
        <time>2024-05-11T16:52:36.000Z</time>
      </trkpt>
      <trkpt lat="44.90063" lon="5.55616">
        <ele>1224.3</ele>
        <time>2024-05-11T16:52:37.000Z</time>
      </trkpt>
      <trkpt lat="44.90061" lon="5.55613">
        <ele>1224.5</ele>
        <time>2024-05-11T16:52:43.000Z</time>
      </trkpt>
      <trkpt lat="44.90063" lon="5.55613">
        <ele>1224.8</ele>
        <time>2024-05-11T16:52:48.000Z</time>
      </trkpt>
      <trkpt lat="44.90064" lon="5.55611">
        <ele>1225.1</ele>
        <time>2024-05-11T16:52:50.000Z</time>
      </trkpt>
      <trkpt lat="44.90066" lon="5.55609">
        <ele>1225.8</ele>
        <time>2024-05-11T16:52:58.000Z</time>
      </trkpt>
      <trkpt lat="44.90067" lon="5.55608">
        <ele>1226.2</ele>
        <time>2024-05-11T16:53:01.000Z</time>
      </trkpt>
      <trkpt lat="44.90071" lon="5.55608">
        <ele>1226.7</ele>
        <time>2024-05-11T16:53:05.000Z</time>
      </trkpt>
      <trkpt lat="44.90066" lon="5.556">
        <ele>1227.3</ele>
        <time>2024-05-11T16:53:14.000Z</time>
      </trkpt>
      <trkpt lat="44.90073" lon="5.556">
        <ele>1228.1</ele>
        <time>2024-05-11T16:53:19.000Z</time>
      </trkpt>
      <trkpt lat="44.9008" lon="5.55602">
        <ele>1228.9</ele>
        <time>2024-05-11T16:53:25.000Z</time>
      </trkpt>
      <trkpt lat="44.90083" lon="5.55603">
        <ele>1229.1</ele>
        <time>2024-05-11T16:53:30.000Z</time>
      </trkpt>
      <trkpt lat="44.90084" lon="5.55603">
        <ele>1229.2</ele>
        <time>2024-05-11T16:53:31.000Z</time>
      </trkpt>
      <trkpt lat="44.90084" lon="5.556">
        <ele>1229.7</ele>
        <time>2024-05-11T16:53:37.000Z</time>
      </trkpt>
      <trkpt lat="44.90083" lon="5.55598">
        <ele>1229.8</ele>
        <time>2024-05-11T16:53:39.000Z</time>
      </trkpt>
      <trkpt lat="44.90078" lon="5.55593">
        <ele>1230</ele>
        <time>2024-05-11T16:53:46.000Z</time>
      </trkpt>
      <trkpt lat="44.90071" lon="5.55586">
        <ele>1230.2</ele>
        <time>2024-05-11T16:53:56.000Z</time>
      </trkpt>
      <trkpt lat="44.90068" lon="5.55583">
        <ele>1230.4</ele>
        <time>2024-05-11T16:54:00.000Z</time>
      </trkpt>
      <trkpt lat="44.90067" lon="5.5558">
        <ele>1230.9</ele>
        <time>2024-05-11T16:54:07.000Z</time>
      </trkpt>
      <trkpt lat="44.90062" lon="5.55574">
        <ele>1231.5</ele>
        <time>2024-05-11T16:54:15.000Z</time>
      </trkpt>
      <trkpt lat="44.90059" lon="5.55569">
        <ele>1232</ele>
        <time>2024-05-11T16:54:23.000Z</time>
      </trkpt>
      <trkpt lat="44.90058" lon="5.55567">
        <ele>1232.2</ele>
        <time>2024-05-11T16:54:28.000Z</time>
      </trkpt>
      <trkpt lat="44.90055" lon="5.55564">
        <ele>1232.4</ele>
        <time>2024-05-11T16:54:31.000Z</time>
      </trkpt>
      <trkpt lat="44.90054" lon="5.55561">
        <ele>1232.8</ele>
        <time>2024-05-11T16:54:35.000Z</time>
      </trkpt>
      <trkpt lat="44.90054" lon="5.55558">
        <ele>1233.4</ele>
        <time>2024-05-11T16:54:42.000Z</time>
      </trkpt>
      <trkpt lat="44.90053" lon="5.55555">
        <ele>1233.8</ele>
        <time>2024-05-11T16:54:47.000Z</time>
      </trkpt>
      <trkpt lat="44.90053" lon="5.55554">
        <ele>1233.9</ele>
        <time>2024-05-11T16:54:48.000Z</time>
      </trkpt>
      <trkpt lat="44.90047" lon="5.55549">
        <ele>1233.9</ele>
        <time>2024-05-11T16:54:56.000Z</time>
      </trkpt>
      <trkpt lat="44.90046" lon="5.55549">
        <ele>1233.8</ele>
        <time>2024-05-11T16:54:57.000Z</time>
      </trkpt>
      <trkpt lat="44.90039" lon="5.5554">
        <ele>1234.2</ele>
        <time>2024-05-11T16:55:03.000Z</time>
      </trkpt>
      <trkpt lat="44.90033" lon="5.55529">
        <ele>1234.8</ele>
        <time>2024-05-11T16:55:07.000Z</time>
      </trkpt>
      <trkpt lat="44.90028" lon="5.55521">
        <ele>1234.9</ele>
        <time>2024-05-11T16:55:12.000Z</time>
      </trkpt>
      <trkpt lat="44.90019" lon="5.55509">
        <ele>1235.2</ele>
        <time>2024-05-11T16:55:20.000Z</time>
      </trkpt>
      <trkpt lat="44.90019" lon="5.55508">
        <ele>1235.3</ele>
        <time>2024-05-11T16:55:21.000Z</time>
      </trkpt>
      <trkpt lat="44.90017" lon="5.555">
        <ele>1236.1</ele>
        <time>2024-05-11T16:55:29.000Z</time>
      </trkpt>
      <trkpt lat="44.90014" lon="5.55494">
        <ele>1236.6</ele>
        <time>2024-05-11T16:55:38.000Z</time>
      </trkpt>
      <trkpt lat="44.90013" lon="5.55493">
        <ele>1236.5</ele>
        <time>2024-05-11T16:55:40.000Z</time>
      </trkpt>
      <trkpt lat="44.9001" lon="5.55487">
        <ele>1237</ele>
        <time>2024-05-11T16:55:46.000Z</time>
      </trkpt>
      <trkpt lat="44.9001" lon="5.55483">
        <ele>1237.5</ele>
        <time>2024-05-11T16:55:53.000Z</time>
      </trkpt>
      <trkpt lat="44.90011" lon="5.55478">
        <ele>1238.6</ele>
        <time>2024-05-11T16:56:00.000Z</time>
      </trkpt>
      <trkpt lat="44.90012" lon="5.55479">
        <ele>1238.7</ele>
        <time>2024-05-11T16:56:03.000Z</time>
      </trkpt>
      <trkpt lat="44.90015" lon="5.5548">
        <ele>1238.8</ele>
        <time>2024-05-11T16:56:06.000Z</time>
      </trkpt>
      <trkpt lat="44.90019" lon="5.55484">
        <ele>1238.8</ele>
        <time>2024-05-11T16:56:12.000Z</time>
      </trkpt>
      <trkpt lat="44.90023" lon="5.55487">
        <ele>1239.1</ele>
        <time>2024-05-11T16:56:17.000Z</time>
      </trkpt>
      <trkpt lat="44.90027" lon="5.5549">
        <ele>1239.3</ele>
        <time>2024-05-11T16:56:22.000Z</time>
      </trkpt>
      <trkpt lat="44.90035" lon="5.55495">
        <ele>1239.7</ele>
        <time>2024-05-11T16:56:30.000Z</time>
      </trkpt>
      <trkpt lat="44.90037" lon="5.55496">
        <ele>1239.9</ele>
        <time>2024-05-11T16:56:35.000Z</time>
      </trkpt>
      <trkpt lat="44.90039" lon="5.55497">
        <ele>1239.9</ele>
        <time>2024-05-11T16:56:38.000Z</time>
      </trkpt>
      <trkpt lat="44.90042" lon="5.55502">
        <ele>1239.8</ele>
        <time>2024-05-11T16:56:43.000Z</time>
      </trkpt>
      <trkpt lat="44.90043" lon="5.55502">
        <ele>1239.9</ele>
        <time>2024-05-11T16:56:44.000Z</time>
      </trkpt>
      <trkpt lat="44.90043" lon="5.55504">
        <ele>1239.8</ele>
        <time>2024-05-11T16:56:46.000Z</time>
      </trkpt>
      <trkpt lat="44.90045" lon="5.55505">
        <ele>1239.9</ele>
        <time>2024-05-11T16:56:48.000Z</time>
      </trkpt>
      <trkpt lat="44.90047" lon="5.5551">
        <ele>1239.6</ele>
        <time>2024-05-11T16:56:54.000Z</time>
      </trkpt>
      <trkpt lat="44.90051" lon="5.55515">
        <ele>1239.6</ele>
        <time>2024-05-11T16:57:00.000Z</time>
      </trkpt>
      <trkpt lat="44.9006" lon="5.55518">
        <ele>1240.5</ele>
        <time>2024-05-11T16:57:07.000Z</time>
      </trkpt>
      <trkpt lat="44.90063" lon="5.55516">
        <ele>1241.2</ele>
        <time>2024-05-11T16:57:10.000Z</time>
      </trkpt>
      <trkpt lat="44.90063" lon="5.55518">
        <ele>1241</ele>
        <time>2024-05-11T16:57:12.000Z</time>
      </trkpt>
      <trkpt lat="44.90067" lon="5.5552">
        <ele>1241.2</ele>
        <time>2024-05-11T16:57:20.000Z</time>
      </trkpt>
      <trkpt lat="44.90071" lon="5.55519">
        <ele>1241.8</ele>
        <time>2024-05-11T16:57:24.000Z</time>
      </trkpt>
      <trkpt lat="44.90073" lon="5.55519">
        <ele>1242.1</ele>
        <time>2024-05-11T16:57:28.000Z</time>
      </trkpt>
      <trkpt lat="44.90079" lon="5.55521">
        <ele>1242.5</ele>
        <time>2024-05-11T16:57:34.000Z</time>
      </trkpt>
      <trkpt lat="44.90085" lon="5.5552">
        <ele>1243.3</ele>
        <time>2024-05-11T16:57:40.000Z</time>
      </trkpt>
      <trkpt lat="44.90091" lon="5.55521">
        <ele>1244.1</ele>
        <time>2024-05-11T16:57:47.000Z</time>
      </trkpt>
      <trkpt lat="44.90093" lon="5.55525">
        <ele>1243.9</ele>
        <time>2024-05-11T16:57:52.000Z</time>
      </trkpt>
      <trkpt lat="44.90094" lon="5.55524">
        <ele>1244</ele>
        <time>2024-05-11T16:57:54.000Z</time>
      </trkpt>
      <trkpt lat="44.90099" lon="5.55526">
        <ele>1244.6</ele>
        <time>2024-05-11T16:58:01.000Z</time>
      </trkpt>
      <trkpt lat="44.90102" lon="5.5553">
        <ele>1244.4</ele>
        <time>2024-05-11T16:58:06.000Z</time>
      </trkpt>
      <trkpt lat="44.90103" lon="5.55531">
        <ele>1244.3</ele>
        <time>2024-05-11T16:58:07.000Z</time>
      </trkpt>
      <trkpt lat="44.90107" lon="5.55536">
        <ele>1244.3</ele>
        <time>2024-05-11T16:58:13.000Z</time>
      </trkpt>
      <trkpt lat="44.90112" lon="5.55537">
        <ele>1244.9</ele>
        <time>2024-05-11T16:58:18.000Z</time>
      </trkpt>
      <trkpt lat="44.90115" lon="5.55537">
        <ele>1245.3</ele>
        <time>2024-05-11T16:58:22.000Z</time>
      </trkpt>
      <trkpt lat="44.90114" lon="5.55538">
        <ele>1245</ele>
        <time>2024-05-11T16:58:30.000Z</time>
      </trkpt>
      <trkpt lat="44.90124" lon="5.55535">
        <ele>1247.2</ele>
        <time>2024-05-11T16:58:37.000Z</time>
      </trkpt>
      <trkpt lat="44.90129" lon="5.55539">
        <ele>1247.6</ele>
        <time>2024-05-11T16:58:42.000Z</time>
      </trkpt>
      <trkpt lat="44.90131" lon="5.55547">
        <ele>1246.9</ele>
        <time>2024-05-11T16:58:49.000Z</time>
      </trkpt>
      <trkpt lat="44.90134" lon="5.55547">
        <ele>1247.4</ele>
        <time>2024-05-11T16:58:53.000Z</time>
      </trkpt>
      <trkpt lat="44.90136" lon="5.55548">
        <ele>1247.6</ele>
        <time>2024-05-11T16:58:55.000Z</time>
      </trkpt>
      <trkpt lat="44.90137" lon="5.55548">
        <ele>1247.8</ele>
        <time>2024-05-11T16:58:58.000Z</time>
      </trkpt>
      <trkpt lat="44.90148" lon="5.55538">
        <ele>1251.4</ele>
        <time>2024-05-11T16:59:06.000Z</time>
      </trkpt>
      <trkpt lat="44.90153" lon="5.55537">
        <ele>1252.7</ele>
        <time>2024-05-11T16:59:13.000Z</time>
      </trkpt>
      <trkpt lat="44.90152" lon="5.55538">
        <ele>1252.4</ele>
        <time>2024-05-11T16:59:17.000Z</time>
      </trkpt>
      <trkpt lat="44.90151" lon="5.55538">
        <ele>1252.1</ele>
        <time>2024-05-11T16:59:18.000Z</time>
      </trkpt>
      <trkpt lat="44.90141" lon="5.5555">
        <ele>1248.3</ele>
        <time>2024-05-11T16:59:25.000Z</time>
      </trkpt>
      <trkpt lat="44.90142" lon="5.55538">
        <ele>1250.2</ele>
        <time>2024-05-11T16:59:32.000Z</time>
      </trkpt>
      <trkpt lat="44.90138" lon="5.55536">
        <ele>1249.5</ele>
        <time>2024-05-11T16:59:39.000Z</time>
      </trkpt>
      <trkpt lat="44.90138" lon="5.55547">
        <ele>1248.1</ele>
        <time>2024-05-11T16:59:45.000Z</time>
      </trkpt>
      <trkpt lat="44.9014" lon="5.55552">
        <ele>1247.8</ele>
        <time>2024-05-11T16:59:47.000Z</time>
      </trkpt>
      <trkpt lat="44.90143" lon="5.55559">
        <ele>1247.5</ele>
        <time>2024-05-11T16:59:51.000Z</time>
      </trkpt>
      <trkpt lat="44.90146" lon="5.55564">
        <ele>1247.2</ele>
        <time>2024-05-11T16:59:54.000Z</time>
      </trkpt>
      <trkpt lat="44.90149" lon="5.55567">
        <ele>1247.4</ele>
        <time>2024-05-11T16:59:58.000Z</time>
      </trkpt>
      <trkpt lat="44.90154" lon="5.55568">
        <ele>1248.5</ele>
        <time>2024-05-11T17:00:03.000Z</time>
      </trkpt>
      <trkpt lat="44.90154" lon="5.55568">
        <ele>1248.5</ele>
        <time>2024-05-11T17:00:04.000Z</time>
      </trkpt>
      <trkpt lat="44.90151" lon="5.55569">
        <ele>1247.7</ele>
        <time>2024-05-11T17:00:10.000Z</time>
      </trkpt>
      <trkpt lat="44.90153" lon="5.5557">
        <ele>1247.9</ele>
        <time>2024-05-11T17:00:13.000Z</time>
      </trkpt>
      <trkpt lat="44.90155" lon="5.55572">
        <ele>1248.1</ele>
        <time>2024-05-11T17:00:16.000Z</time>
      </trkpt>
      <trkpt lat="44.90156" lon="5.55574">
        <ele>1248.1</ele>
        <time>2024-05-11T17:00:18.000Z</time>
      </trkpt>
      <trkpt lat="44.90158" lon="5.55578">
        <ele>1248</ele>
        <time>2024-05-11T17:00:22.000Z</time>
      </trkpt>
      <trkpt lat="44.90161" lon="5.5558">
        <ele>1248.1</ele>
        <time>2024-05-11T17:00:25.000Z</time>
      </trkpt>
      <trkpt lat="44.90162" lon="5.55583">
        <ele>1248</ele>
        <time>2024-05-11T17:00:28.000Z</time>
        <extensions>
          <visugpx:TrkExtension xmlns:visugpx="https://www.visugpx.com/editgpx/">
            <visugpx:node>23</visugpx:node>
            </visugpx:TrkExtension>
        </extensions>
      </trkpt>
    </trkseg>
  </trk>
</gpx>